<?xml version="1.0" encoding="UTF-8" standalone="no" ?>
<gpx xmlns="http://www.topografix.com/GPX/1/1" xmlns:xsi="http://www.w3.org/2001/XMLSchema-instance" xsi:schemaLocation="http://www.topografix.com/GPX/1/1 http://www.topografix.com/GPX/1/1/gpx.xsd" version="1.1" creator="VisuGPX - https://www.visugpx.com">
  <metadata>
    <name>J3 - Villard Enduro + col des 2 soeurs</name>
    <desc><![CDATA[Sortie journée au depart de Villard]]></desc>
  </metadata>
  <trk>
    <name><![CDATA[J3 - Villard Enduro + col des 2 soeurs_1]]></name>
    <extensions>
      <line xmlns="http://www.topografix.com/GPX/gpx_style/0/2">
        <color>0000FF</color>
        <width>4</width>
      </line>
    </extensions>
    <trkseg>
      <trkpt lat="45.07354" lon="5.5599">
        <ele>1031</ele>
      </trkpt>
      <trkpt lat="45.07354" lon="5.5599">
        <ele>1031</ele>
      </trkpt>
      <trkpt lat="45.07354" lon="5.5599">
        <ele>1031</ele>
      </trkpt>
      <trkpt lat="45.07316" lon="5.55968">
        <ele>1028.3</ele>
      </trkpt>
      <trkpt lat="45.07316" lon="5.55968">
        <ele>1028.3</ele>
      </trkpt>
      <trkpt lat="45.07326" lon="5.5592">
        <ele>1024.5</ele>
      </trkpt>
      <trkpt lat="45.07326" lon="5.5592">
        <ele>1024.5</ele>
      </trkpt>
      <trkpt lat="45.07316" lon="5.55847">
        <ele>1023.1</ele>
      </trkpt>
      <trkpt lat="45.07316" lon="5.55847">
        <ele>1023.1</ele>
      </trkpt>
      <trkpt lat="45.0732" lon="5.55773">
        <ele>1024.2</ele>
      </trkpt>
      <trkpt lat="45.0732" lon="5.55773">
        <ele>1024.2</ele>
      </trkpt>
      <trkpt lat="45.07315" lon="5.55671">
        <ele>1029</ele>
      </trkpt>
      <trkpt lat="45.07315" lon="5.55671">
        <ele>1029</ele>
      </trkpt>
      <trkpt lat="45.07274" lon="5.55674">
        <ele>1029.5</ele>
      </trkpt>
      <trkpt lat="45.07274" lon="5.55674">
        <ele>1029.5</ele>
      </trkpt>
      <trkpt lat="45.07243" lon="5.55638">
        <ele>1028.9</ele>
      </trkpt>
      <trkpt lat="45.07243" lon="5.55638">
        <ele>1028.9</ele>
      </trkpt>
      <trkpt lat="45.07147" lon="5.55513">
        <ele>1036.1</ele>
      </trkpt>
      <trkpt lat="45.07147" lon="5.55513">
        <ele>1036.1</ele>
      </trkpt>
      <trkpt lat="45.07097" lon="5.55495">
        <ele>1037.4</ele>
      </trkpt>
      <trkpt lat="45.07097" lon="5.55495">
        <ele>1037.4</ele>
      </trkpt>
      <trkpt lat="45.07004" lon="5.55465">
        <ele>1034.8</ele>
      </trkpt>
      <trkpt lat="45.07004" lon="5.55465">
        <ele>1034.8</ele>
      </trkpt>
      <trkpt lat="45.06958" lon="5.55578">
        <ele>1038</ele>
      </trkpt>
      <trkpt lat="45.06958" lon="5.55578">
        <ele>1038</ele>
      </trkpt>
      <trkpt lat="45.06925" lon="5.55686">
        <ele>1045.7</ele>
      </trkpt>
      <trkpt lat="45.06925" lon="5.55686">
        <ele>1045.7</ele>
      </trkpt>
      <trkpt lat="45.06799" lon="5.55885">
        <ele>1064.9</ele>
      </trkpt>
      <trkpt lat="45.06799" lon="5.55885">
        <ele>1064.9</ele>
      </trkpt>
      <trkpt lat="45.06796" lon="5.56052">
        <ele>1074.4</ele>
      </trkpt>
      <trkpt lat="45.06796" lon="5.56052">
        <ele>1074.4</ele>
      </trkpt>
      <trkpt lat="45.06743" lon="5.56137">
        <ele>1079.3</ele>
      </trkpt>
      <trkpt lat="45.06743" lon="5.56137">
        <ele>1079.3</ele>
      </trkpt>
      <trkpt lat="45.06735" lon="5.56246">
        <ele>1080.5</ele>
      </trkpt>
      <trkpt lat="45.06735" lon="5.56246">
        <ele>1080.5</ele>
      </trkpt>
      <trkpt lat="45.06742" lon="5.56298">
        <ele>1220.6</ele>
        <time>2019-08-17T08:03:21Z</time>
      </trkpt>
      <trkpt lat="45.06744" lon="5.56308">
        <ele>1220.8</ele>
        <time>2019-08-17T08:03:23Z</time>
      </trkpt>
      <trkpt lat="45.06755" lon="5.56331">
        <ele>1220.2</ele>
        <time>2019-08-17T08:03:30Z</time>
      </trkpt>
      <trkpt lat="45.0676" lon="5.56338">
        <ele>1219.4</ele>
        <time>2019-08-17T08:03:34Z</time>
      </trkpt>
      <trkpt lat="45.06766" lon="5.56352">
        <ele>1218.2</ele>
        <time>2019-08-17T08:03:40Z</time>
      </trkpt>
      <trkpt lat="45.06769" lon="5.56356">
        <ele>1217.8</ele>
        <time>2019-08-17T08:03:42Z</time>
      </trkpt>
      <trkpt lat="45.06778" lon="5.56369">
        <ele>1216.6</ele>
        <time>2019-08-17T08:03:47Z</time>
      </trkpt>
      <trkpt lat="45.0678" lon="5.56372">
        <ele>1216.4</ele>
        <time>2019-08-17T08:03:48Z</time>
      </trkpt>
      <trkpt lat="45.06788" lon="5.56387">
        <ele>1215.2</ele>
        <time>2019-08-17T08:03:52Z</time>
      </trkpt>
      <trkpt lat="45.06792" lon="5.56395">
        <ele>1214.4</ele>
        <time>2019-08-17T08:03:54Z</time>
      </trkpt>
      <trkpt lat="45.06798" lon="5.56415">
        <ele>1213.4</ele>
        <time>2019-08-17T08:03:58Z</time>
      </trkpt>
      <trkpt lat="45.068" lon="5.56426">
        <ele>1213</ele>
        <time>2019-08-17T08:04:00Z</time>
      </trkpt>
      <trkpt lat="45.06799" lon="5.56438">
        <ele>1212.4</ele>
        <time>2019-08-17T08:04:02Z</time>
      </trkpt>
      <trkpt lat="45.06794" lon="5.5645">
        <ele>1212.2</ele>
        <time>2019-08-17T08:04:04Z</time>
      </trkpt>
      <trkpt lat="45.06784" lon="5.56468">
        <ele>1211.6</ele>
        <time>2019-08-17T08:04:07Z</time>
      </trkpt>
      <trkpt lat="45.06761" lon="5.56498">
        <ele>1210.4</ele>
        <time>2019-08-17T08:04:12Z</time>
      </trkpt>
      <trkpt lat="45.06756" lon="5.56504">
        <ele>1210.2</ele>
        <time>2019-08-17T08:04:13Z</time>
      </trkpt>
      <trkpt lat="45.06743" lon="5.56523">
        <ele>1209.8</ele>
        <time>2019-08-17T08:04:16Z</time>
      </trkpt>
      <trkpt lat="45.06739" lon="5.56529">
        <ele>1209.6</ele>
        <time>2019-08-17T08:04:17Z</time>
      </trkpt>
      <trkpt lat="45.06737" lon="5.56537">
        <ele>1209.6</ele>
        <time>2019-08-17T08:04:18Z</time>
      </trkpt>
      <trkpt lat="45.06736" lon="5.56545">
        <ele>1209.4</ele>
        <time>2019-08-17T08:04:19Z</time>
      </trkpt>
      <trkpt lat="45.06737" lon="5.56552">
        <ele>1209.4</ele>
        <time>2019-08-17T08:04:20Z</time>
      </trkpt>
      <trkpt lat="45.06739" lon="5.56558">
        <ele>1209.2</ele>
        <time>2019-08-17T08:04:21Z</time>
      </trkpt>
      <trkpt lat="45.06746" lon="5.56567">
        <ele>1209.2</ele>
        <time>2019-08-17T08:04:23Z</time>
      </trkpt>
      <trkpt lat="45.0675" lon="5.5657">
        <ele>1209</ele>
        <time>2019-08-17T08:04:24Z</time>
      </trkpt>
      <trkpt lat="45.06772" lon="5.56579">
        <ele>1208.8</ele>
        <time>2019-08-17T08:04:29Z</time>
      </trkpt>
      <trkpt lat="45.06791" lon="5.56579">
        <ele>1209.4</ele>
        <time>2019-08-17T08:04:33Z</time>
      </trkpt>
      <trkpt lat="45.06812" lon="5.56582">
        <ele>1209.4</ele>
        <time>2019-08-17T08:04:38Z</time>
      </trkpt>
      <trkpt lat="45.06823" lon="5.56587">
        <ele>1209.2</ele>
        <time>2019-08-17T08:04:41Z</time>
      </trkpt>
      <trkpt lat="45.06834" lon="5.56595">
        <ele>1209.4</ele>
        <time>2019-08-17T08:04:44Z</time>
      </trkpt>
      <trkpt lat="45.06838" lon="5.56598">
        <ele>1209.6</ele>
        <time>2019-08-17T08:04:45Z</time>
      </trkpt>
      <trkpt lat="45.06843" lon="5.56606">
        <ele>1209.8</ele>
        <time>2019-08-17T08:04:47Z</time>
      </trkpt>
      <trkpt lat="45.06848" lon="5.56614">
        <ele>1210</ele>
        <time>2019-08-17T08:04:49Z</time>
      </trkpt>
      <trkpt lat="45.06854" lon="5.56632">
        <ele>1210.8</ele>
        <time>2019-08-17T08:04:53Z</time>
      </trkpt>
      <trkpt lat="45.06858" lon="5.56646">
        <ele>1211.2</ele>
        <time>2019-08-17T08:04:56Z</time>
      </trkpt>
      <trkpt lat="45.06859" lon="5.56655">
        <ele>1211.4</ele>
        <time>2019-08-17T08:04:58Z</time>
      </trkpt>
      <trkpt lat="45.06857" lon="5.56665">
        <ele>1211.4</ele>
        <time>2019-08-17T08:05:00Z</time>
      </trkpt>
      <trkpt lat="45.06854" lon="5.56673">
        <ele>1211.6</ele>
        <time>2019-08-17T08:05:02Z</time>
      </trkpt>
      <trkpt lat="45.06847" lon="5.56682">
        <ele>1211.6</ele>
        <time>2019-08-17T08:05:05Z</time>
      </trkpt>
      <trkpt lat="45.0684" lon="5.56686">
        <ele>1211.2</ele>
        <time>2019-08-17T08:05:07Z</time>
      </trkpt>
      <trkpt lat="45.06825" lon="5.56687">
        <ele>1210.4</ele>
        <time>2019-08-17T08:05:11Z</time>
      </trkpt>
      <trkpt lat="45.06807" lon="5.56689">
        <ele>1208.8</ele>
        <time>2019-08-17T08:05:16Z</time>
      </trkpt>
      <trkpt lat="45.068" lon="5.56693">
        <ele>1208.2</ele>
        <time>2019-08-17T08:05:18Z</time>
      </trkpt>
      <trkpt lat="45.06793" lon="5.56699">
        <ele>1207.6</ele>
        <time>2019-08-17T08:05:20Z</time>
      </trkpt>
      <trkpt lat="45.06789" lon="5.56709">
        <ele>1207.2</ele>
        <time>2019-08-17T08:05:22Z</time>
      </trkpt>
      <trkpt lat="45.06788" lon="5.5672">
        <ele>1206.8</ele>
        <time>2019-08-17T08:05:24Z</time>
      </trkpt>
      <trkpt lat="45.06787" lon="5.56732">
        <ele>1206.4</ele>
        <time>2019-08-17T08:05:26Z</time>
      </trkpt>
      <trkpt lat="45.06788" lon="5.56738">
        <ele>1206.4</ele>
        <time>2019-08-17T08:05:27Z</time>
      </trkpt>
      <trkpt lat="45.06795" lon="5.56776">
        <ele>1206.2</ele>
        <time>2019-08-17T08:05:34Z</time>
      </trkpt>
      <trkpt lat="45.06794" lon="5.56803">
        <ele>1206.8</ele>
        <time>2019-08-17T08:05:39Z</time>
      </trkpt>
      <trkpt lat="45.06789" lon="5.56825">
        <ele>1207.6</ele>
        <time>2019-08-17T08:05:43Z</time>
      </trkpt>
      <trkpt lat="45.06788" lon="5.56837">
        <ele>1208.2</ele>
        <time>2019-08-17T08:05:45Z</time>
      </trkpt>
      <trkpt lat="45.06788" lon="5.5685">
        <ele>1208.6</ele>
        <time>2019-08-17T08:05:47Z</time>
      </trkpt>
      <trkpt lat="45.0679" lon="5.56857">
        <ele>1208.8</ele>
        <time>2019-08-17T08:05:48Z</time>
      </trkpt>
      <trkpt lat="45.06792" lon="5.56863">
        <ele>1208.8</ele>
        <time>2019-08-17T08:05:49Z</time>
      </trkpt>
      <trkpt lat="45.06797" lon="5.56875">
        <ele>1209</ele>
        <time>2019-08-17T08:05:51Z</time>
      </trkpt>
      <trkpt lat="45.06807" lon="5.56889">
        <ele>1209</ele>
        <time>2019-08-17T08:05:54Z</time>
      </trkpt>
      <trkpt lat="45.06825" lon="5.56912">
        <ele>1208.6</ele>
        <time>2019-08-17T08:05:59Z</time>
      </trkpt>
      <trkpt lat="45.06845" lon="5.56931">
        <ele>1208.8</ele>
        <time>2019-08-17T08:06:04Z</time>
      </trkpt>
      <trkpt lat="45.06862" lon="5.56941">
        <ele>1209.6</ele>
        <time>2019-08-17T08:06:08Z</time>
      </trkpt>
      <trkpt lat="45.06879" lon="5.5695">
        <ele>1210.8</ele>
        <time>2019-08-17T08:06:12Z</time>
      </trkpt>
      <trkpt lat="45.06905" lon="5.56961">
        <ele>1212.6</ele>
        <time>2019-08-17T08:06:18Z</time>
      </trkpt>
      <trkpt lat="45.06908" lon="5.56963">
        <ele>1213</ele>
        <time>2019-08-17T08:06:19Z</time>
      </trkpt>
      <trkpt lat="45.06915" lon="5.56969">
        <ele>1213.6</ele>
        <time>2019-08-17T08:06:21Z</time>
      </trkpt>
      <trkpt lat="45.06918" lon="5.56978">
        <ele>1214.2</ele>
        <time>2019-08-17T08:06:23Z</time>
      </trkpt>
      <trkpt lat="45.06919" lon="5.56989">
        <ele>1214.6</ele>
        <time>2019-08-17T08:06:25Z</time>
      </trkpt>
      <trkpt lat="45.06916" lon="5.57">
        <ele>1215.2</ele>
        <time>2019-08-17T08:06:27Z</time>
      </trkpt>
      <trkpt lat="45.06914" lon="5.57005">
        <ele>1215.6</ele>
        <time>2019-08-17T08:06:28Z</time>
      </trkpt>
      <trkpt lat="45.06903" lon="5.57039">
        <ele>1217.6</ele>
        <time>2019-08-17T08:06:34Z</time>
      </trkpt>
      <trkpt lat="45.06903" lon="5.57052">
        <ele>1218.4</ele>
        <time>2019-08-17T08:06:36Z</time>
      </trkpt>
      <trkpt lat="45.06907" lon="5.57063">
        <ele>1219.2</ele>
        <time>2019-08-17T08:06:38Z</time>
      </trkpt>
      <trkpt lat="45.06912" lon="5.57077">
        <ele>1221.2</ele>
        <time>2019-08-17T08:06:42Z</time>
      </trkpt>
      <trkpt lat="45.06915" lon="5.57085">
        <ele>1223</ele>
        <time>2019-08-17T08:06:46Z</time>
      </trkpt>
      <trkpt lat="45.06926" lon="5.57101">
        <ele>1226.2</ele>
        <time>2019-08-17T08:06:54Z</time>
      </trkpt>
      <trkpt lat="45.06934" lon="5.57113">
        <ele>1228.6</ele>
        <time>2019-08-17T08:07:01Z</time>
      </trkpt>
      <trkpt lat="45.06937" lon="5.57116">
        <ele>1229.2</ele>
        <time>2019-08-17T08:07:03Z</time>
      </trkpt>
      <trkpt lat="45.06944" lon="5.57123">
        <ele>1230.2</ele>
        <time>2019-08-17T08:07:07Z</time>
      </trkpt>
      <trkpt lat="45.06954" lon="5.57133">
        <ele>1230.2</ele>
        <time>2019-08-17T08:07:14Z</time>
      </trkpt>
      <trkpt lat="45.06956" lon="5.57138">
        <ele>1230.8</ele>
        <time>2019-08-17T08:07:16Z</time>
      </trkpt>
      <trkpt lat="45.06961" lon="5.57154">
        <ele>1232.4</ele>
        <time>2019-08-17T08:07:23Z</time>
      </trkpt>
      <trkpt lat="45.06959" lon="5.57163">
        <ele>1233</ele>
        <time>2019-08-17T08:07:27Z</time>
      </trkpt>
      <trkpt lat="45.06959" lon="5.57176">
        <ele>1233.4</ele>
        <time>2019-08-17T08:07:33Z</time>
      </trkpt>
      <trkpt lat="45.06955" lon="5.57196">
        <ele>1233.8</ele>
        <time>2019-08-17T08:07:43Z</time>
      </trkpt>
      <trkpt lat="45.06952" lon="5.57217">
        <ele>1233.2</ele>
        <time>2019-08-17T08:07:51Z</time>
      </trkpt>
      <trkpt lat="45.06952" lon="5.57224">
        <ele>1232.6</ele>
        <time>2019-08-17T08:07:54Z</time>
      </trkpt>
      <trkpt lat="45.06957" lon="5.57237">
        <ele>1231.4</ele>
        <time>2019-08-17T08:07:59Z</time>
      </trkpt>
      <trkpt lat="45.0696" lon="5.57245">
        <ele>1230.4</ele>
        <time>2019-08-17T08:08:02Z</time>
      </trkpt>
      <trkpt lat="45.06967" lon="5.57258">
        <ele>1227.6</ele>
        <time>2019-08-17T08:08:09Z</time>
      </trkpt>
      <trkpt lat="45.0697" lon="5.57262">
        <ele>1226.6</ele>
        <time>2019-08-17T08:08:11Z</time>
      </trkpt>
      <trkpt lat="45.06979" lon="5.57276">
        <ele>1223</ele>
        <time>2019-08-17T08:08:19Z</time>
      </trkpt>
      <trkpt lat="45.06984" lon="5.57286">
        <ele>1220.6</ele>
        <time>2019-08-17T08:08:24Z</time>
      </trkpt>
      <trkpt lat="45.06991" lon="5.57297">
        <ele>1217.8</ele>
        <time>2019-08-17T08:08:30Z</time>
      </trkpt>
      <trkpt lat="45.07" lon="5.57308">
        <ele>1215.6</ele>
        <time>2019-08-17T08:08:37Z</time>
      </trkpt>
      <trkpt lat="45.07003" lon="5.57315">
        <ele>1215</ele>
        <time>2019-08-17T08:08:41Z</time>
      </trkpt>
      <trkpt lat="45.07012" lon="5.57328">
        <ele>1214.8</ele>
        <time>2019-08-17T08:08:49Z</time>
      </trkpt>
      <trkpt lat="45.07016" lon="5.57335">
        <ele>1215</ele>
        <time>2019-08-17T08:08:53Z</time>
      </trkpt>
      <trkpt lat="45.07019" lon="5.57345">
        <ele>1214.8</ele>
        <time>2019-08-17T08:08:58Z</time>
      </trkpt>
      <trkpt lat="45.07022" lon="5.57351">
        <ele>1214.4</ele>
        <time>2019-08-17T08:09:01Z</time>
      </trkpt>
      <trkpt lat="45.07029" lon="5.5737">
        <ele>1212.4</ele>
        <time>2019-08-17T08:09:10Z</time>
      </trkpt>
      <trkpt lat="45.07033" lon="5.57382">
        <ele>1211</ele>
        <time>2019-08-17T08:09:16Z</time>
      </trkpt>
      <trkpt lat="45.0704" lon="5.57401">
        <ele>1208.4</ele>
        <time>2019-08-17T08:09:26Z</time>
      </trkpt>
      <trkpt lat="45.07047" lon="5.57416">
        <ele>1206</ele>
        <time>2019-08-17T08:09:34Z</time>
      </trkpt>
      <trkpt lat="45.07048" lon="5.57424">
        <ele>1205</ele>
        <time>2019-08-17T08:09:38Z</time>
      </trkpt>
      <trkpt lat="45.07046" lon="5.57435">
        <ele>1204.4</ele>
        <time>2019-08-17T08:09:43Z</time>
      </trkpt>
      <trkpt lat="45.07043" lon="5.57438">
        <ele>1204.2</ele>
        <time>2019-08-17T08:09:45Z</time>
      </trkpt>
      <trkpt lat="45.07037" lon="5.57441">
        <ele>1204</ele>
        <time>2019-08-17T08:09:49Z</time>
      </trkpt>
      <trkpt lat="45.07029" lon="5.5744">
        <ele>1202.8</ele>
        <time>2019-08-17T08:09:54Z</time>
      </trkpt>
      <trkpt lat="45.07024" lon="5.57436">
        <ele>1202</ele>
        <time>2019-08-17T08:09:58Z</time>
      </trkpt>
      <trkpt lat="45.07011" lon="5.57427">
        <ele>1201.2</ele>
        <time>2019-08-17T08:10:07Z</time>
      </trkpt>
      <trkpt lat="45.07004" lon="5.57422">
        <ele>1201.2</ele>
        <time>2019-08-17T08:10:12Z</time>
      </trkpt>
      <trkpt lat="45.06991" lon="5.5741">
        <ele>1198.6</ele>
        <time>2019-08-17T08:10:21Z</time>
      </trkpt>
      <trkpt lat="45.06984" lon="5.57405">
        <ele>1196.8</ele>
        <time>2019-08-17T08:10:26Z</time>
      </trkpt>
      <trkpt lat="45.06973" lon="5.57399">
        <ele>1194.2</ele>
        <time>2019-08-17T08:10:33Z</time>
      </trkpt>
      <trkpt lat="45.06966" lon="5.57398">
        <ele>1192.8</ele>
        <time>2019-08-17T08:10:37Z</time>
      </trkpt>
      <trkpt lat="45.06959" lon="5.57407">
        <ele>1191.4</ele>
        <time>2019-08-17T08:10:43Z</time>
      </trkpt>
      <trkpt lat="45.06958" lon="5.57414">
        <ele>1190.8</ele>
        <time>2019-08-17T08:10:46Z</time>
      </trkpt>
      <trkpt lat="45.06958" lon="5.57422">
        <ele>1190.2</ele>
        <time>2019-08-17T08:10:50Z</time>
      </trkpt>
      <trkpt lat="45.06961" lon="5.57428">
        <ele>1189.8</ele>
        <time>2019-08-17T08:10:53Z</time>
      </trkpt>
      <trkpt lat="45.06966" lon="5.57437">
        <ele>1188.8</ele>
        <time>2019-08-17T08:10:58Z</time>
      </trkpt>
      <trkpt lat="45.06977" lon="5.57451">
        <ele>1188</ele>
        <time>2019-08-17T08:11:08Z</time>
      </trkpt>
      <trkpt lat="45.06987" lon="5.57469">
        <ele>1187.6</ele>
        <time>2019-08-17T08:11:19Z</time>
      </trkpt>
      <trkpt lat="45.0699" lon="5.57478">
        <ele>1187.2</ele>
        <time>2019-08-17T08:11:24Z</time>
      </trkpt>
      <trkpt lat="45.06995" lon="5.57495">
        <ele>1186.8</ele>
        <time>2019-08-17T08:11:33Z</time>
      </trkpt>
      <trkpt lat="45.06995" lon="5.57499">
        <ele>1186.6</ele>
        <time>2019-08-17T08:11:35Z</time>
      </trkpt>
      <trkpt lat="45.06999" lon="5.5752">
        <ele>1186.6</ele>
        <time>2019-08-17T08:11:45Z</time>
      </trkpt>
      <trkpt lat="45.07" lon="5.57528">
        <ele>1186.8</ele>
        <time>2019-08-17T08:11:49Z</time>
      </trkpt>
      <trkpt lat="45.07" lon="5.57535">
        <ele>1187.2</ele>
        <time>2019-08-17T08:11:52Z</time>
      </trkpt>
      <trkpt lat="45.06998" lon="5.57551">
        <ele>1188.6</ele>
        <time>2019-08-17T08:12:00Z</time>
      </trkpt>
      <trkpt lat="45.06995" lon="5.57561">
        <ele>1189.6</ele>
        <time>2019-08-17T08:12:05Z</time>
      </trkpt>
      <trkpt lat="45.06991" lon="5.57572">
        <ele>1191.4</ele>
        <time>2019-08-17T08:12:11Z</time>
      </trkpt>
      <trkpt lat="45.06991" lon="5.5759">
        <ele>1194.6</ele>
        <time>2019-08-17T08:12:19Z</time>
      </trkpt>
      <trkpt lat="45.06992" lon="5.57598">
        <ele>1196.4</ele>
        <time>2019-08-17T08:12:23Z</time>
      </trkpt>
      <trkpt lat="45.06999" lon="5.5761">
        <ele>1198</ele>
        <time>2019-08-17T08:12:30Z</time>
      </trkpt>
      <trkpt lat="45.07008" lon="5.57622">
        <ele>1199</ele>
        <time>2019-08-17T08:12:39Z</time>
      </trkpt>
      <trkpt lat="45.07013" lon="5.57631">
        <ele>1199.2</ele>
        <time>2019-08-17T08:12:44Z</time>
      </trkpt>
      <trkpt lat="45.07019" lon="5.57641">
        <ele>1199.2</ele>
        <time>2019-08-17T08:12:50Z</time>
      </trkpt>
      <trkpt lat="45.07021" lon="5.57649">
        <ele>1199.4</ele>
        <time>2019-08-17T08:12:54Z</time>
      </trkpt>
      <trkpt lat="45.07029" lon="5.57666">
        <ele>1199.8</ele>
        <time>2019-08-17T08:13:03Z</time>
      </trkpt>
      <trkpt lat="45.07031" lon="5.57675">
        <ele>1200</ele>
        <time>2019-08-17T08:13:07Z</time>
      </trkpt>
      <trkpt lat="45.07035" lon="5.57682">
        <ele>1200.6</ele>
        <time>2019-08-17T08:13:11Z</time>
      </trkpt>
      <trkpt lat="45.07039" lon="5.57694">
        <ele>1201.8</ele>
        <time>2019-08-17T08:13:17Z</time>
      </trkpt>
      <trkpt lat="45.07044" lon="5.57711">
        <ele>1204.6</ele>
        <time>2019-08-17T08:13:26Z</time>
      </trkpt>
      <trkpt lat="45.07036" lon="5.5771">
        <ele>1208</ele>
        <time>2019-08-17T08:13:35Z</time>
      </trkpt>
      <trkpt lat="45.07026" lon="5.57693">
        <ele>1211.2</ele>
        <time>2019-08-17T08:13:44Z</time>
      </trkpt>
      <trkpt lat="45.07022" lon="5.57688">
        <ele>1212.2</ele>
        <time>2019-08-17T08:13:47Z</time>
      </trkpt>
      <trkpt lat="45.07013" lon="5.57677">
        <ele>1214.4</ele>
        <time>2019-08-17T08:13:53Z</time>
      </trkpt>
      <trkpt lat="45.07008" lon="5.5767">
        <ele>1215.4</ele>
        <time>2019-08-17T08:13:56Z</time>
      </trkpt>
      <trkpt lat="45.06999" lon="5.57665">
        <ele>1216.6</ele>
        <time>2019-08-17T08:14:04Z</time>
      </trkpt>
      <trkpt lat="45.06989" lon="5.57673">
        <ele>1222.6</ele>
        <time>2019-08-17T08:14:25Z</time>
      </trkpt>
      <trkpt lat="45.06982" lon="5.5768">
        <ele>1228.8</ele>
        <time>2019-08-17T08:14:47Z</time>
      </trkpt>
      <trkpt lat="45.0697" lon="5.5769">
        <ele>1230.4</ele>
        <time>2019-08-17T08:14:53Z</time>
      </trkpt>
      <trkpt lat="45.0696" lon="5.57702">
        <ele>1232.2</ele>
        <time>2019-08-17T08:14:59Z</time>
      </trkpt>
      <trkpt lat="45.06954" lon="5.57707">
        <ele>1233.4</ele>
        <time>2019-08-17T08:15:02Z</time>
      </trkpt>
      <trkpt lat="45.0695" lon="5.57709">
        <ele>1234.4</ele>
        <time>2019-08-17T08:15:04Z</time>
      </trkpt>
      <trkpt lat="45.06942" lon="5.57709">
        <ele>1236</ele>
        <time>2019-08-17T08:15:08Z</time>
      </trkpt>
      <trkpt lat="45.06937" lon="5.57706">
        <ele>1236.6</ele>
        <time>2019-08-17T08:15:11Z</time>
      </trkpt>
      <trkpt lat="45.06927" lon="5.57695">
        <ele>1236.6</ele>
        <time>2019-08-17T08:15:18Z</time>
      </trkpt>
      <trkpt lat="45.06918" lon="5.57684">
        <ele>1235.6</ele>
        <time>2019-08-17T08:15:24Z</time>
      </trkpt>
      <trkpt lat="45.06913" lon="5.57675">
        <ele>1234</ele>
        <time>2019-08-17T08:15:29Z</time>
      </trkpt>
      <trkpt lat="45.06906" lon="5.57657">
        <ele>1232.2</ele>
        <time>2019-08-17T08:15:39Z</time>
      </trkpt>
      <trkpt lat="45.069" lon="5.57643">
        <ele>1231.8</ele>
        <time>2019-08-17T08:15:48Z</time>
      </trkpt>
      <trkpt lat="45.06891" lon="5.57638">
        <ele>1231.8</ele>
        <time>2019-08-17T08:15:56Z</time>
      </trkpt>
      <trkpt lat="45.06882" lon="5.57633">
        <ele>1231.8</ele>
        <time>2019-08-17T08:16:06Z</time>
      </trkpt>
      <trkpt lat="45.06872" lon="5.57631">
        <ele>1234.4</ele>
        <time>2019-08-17T08:16:19Z</time>
      </trkpt>
      <trkpt lat="45.06864" lon="5.57627">
        <ele>1237.4</ele>
        <time>2019-08-17T08:16:30Z</time>
      </trkpt>
      <trkpt lat="45.06857" lon="5.57626">
        <ele>1239.2</ele>
        <time>2019-08-17T08:16:36Z</time>
      </trkpt>
      <trkpt lat="45.0685" lon="5.57623">
        <ele>1242.2</ele>
        <time>2019-08-17T08:16:47Z</time>
      </trkpt>
      <trkpt lat="45.06844" lon="5.57618">
        <ele>1242.6</ele>
        <time>2019-08-17T08:16:50Z</time>
      </trkpt>
      <trkpt lat="45.06836" lon="5.57615">
        <ele>1242.8</ele>
        <time>2019-08-17T08:16:58Z</time>
      </trkpt>
      <trkpt lat="45.0683" lon="5.5761">
        <ele>1242.8</ele>
        <time>2019-08-17T08:17:02Z</time>
      </trkpt>
      <trkpt lat="45.0682" lon="5.57598">
        <ele>1244</ele>
        <time>2019-08-17T08:17:20Z</time>
      </trkpt>
      <trkpt lat="45.06815" lon="5.57593">
        <ele>1244.6</ele>
        <time>2019-08-17T08:17:28Z</time>
      </trkpt>
      <trkpt lat="45.06796" lon="5.57585">
        <ele>1246</ele>
        <time>2019-08-17T08:17:56Z</time>
      </trkpt>
      <trkpt lat="45.06783" lon="5.57582">
        <ele>1247.2</ele>
        <time>2019-08-17T08:18:09Z</time>
      </trkpt>
      <trkpt lat="45.06781" lon="5.57582">
        <ele>1247.4</ele>
        <time>2019-08-17T08:18:10Z</time>
      </trkpt>
      <trkpt lat="45.06768" lon="5.57575">
        <ele>1249</ele>
        <time>2019-08-17T08:18:51Z</time>
      </trkpt>
      <trkpt lat="45.06757" lon="5.57567">
        <ele>1251</ele>
        <time>2019-08-17T08:19:03Z</time>
      </trkpt>
      <trkpt lat="45.06747" lon="5.57561">
        <ele>1252.2</ele>
        <time>2019-08-17T08:19:09Z</time>
      </trkpt>
      <trkpt lat="45.06735" lon="5.57555">
        <ele>1254.2</ele>
        <time>2019-08-17T08:19:18Z</time>
      </trkpt>
      <trkpt lat="45.06732" lon="5.57553">
        <ele>1255</ele>
        <time>2019-08-17T08:19:21Z</time>
      </trkpt>
      <trkpt lat="45.06718" lon="5.57547">
        <ele>1258</ele>
        <time>2019-08-17T08:19:32Z</time>
      </trkpt>
      <trkpt lat="45.06711" lon="5.57548">
        <ele>1259.2</ele>
        <time>2019-08-17T08:19:37Z</time>
      </trkpt>
      <trkpt lat="45.06703" lon="5.57547">
        <ele>1261.2</ele>
        <time>2019-08-17T08:19:44Z</time>
      </trkpt>
      <trkpt lat="45.06688" lon="5.57552">
        <ele>1265.8</ele>
        <time>2019-08-17T08:20:00Z</time>
      </trkpt>
      <trkpt lat="45.06679" lon="5.57556">
        <ele>1271.4</ele>
        <time>2019-08-17T08:20:51Z</time>
      </trkpt>
      <trkpt lat="45.06654" lon="5.57579">
        <ele>1274.2</ele>
        <time>2019-08-17T08:21:48Z</time>
      </trkpt>
      <trkpt lat="45.06649" lon="5.5759">
        <ele>1275.6</ele>
        <time>2019-08-17T08:22:29Z</time>
      </trkpt>
      <trkpt lat="45.06646" lon="5.57593">
        <ele>1275.8</ele>
        <time>2019-08-17T08:22:33Z</time>
      </trkpt>
      <trkpt lat="45.06629" lon="5.57606">
        <ele>1276.8</ele>
        <time>2019-08-17T08:23:07Z</time>
      </trkpt>
      <trkpt lat="45.06615" lon="5.57617">
        <ele>1278.2</ele>
        <time>2019-08-17T08:23:21Z</time>
      </trkpt>
      <trkpt lat="45.06611" lon="5.57619">
        <ele>1278.6</ele>
        <time>2019-08-17T08:23:25Z</time>
      </trkpt>
      <trkpt lat="45.06604" lon="5.57626">
        <ele>1279.8</ele>
        <time>2019-08-17T08:23:32Z</time>
      </trkpt>
      <trkpt lat="45.06599" lon="5.5763">
        <ele>1280.4</ele>
        <time>2019-08-17T08:23:36Z</time>
      </trkpt>
      <trkpt lat="45.06596" lon="5.57634">
        <ele>1280.8</ele>
        <time>2019-08-17T08:23:39Z</time>
      </trkpt>
      <trkpt lat="45.06588" lon="5.57642">
        <ele>1282.2</ele>
        <time>2019-08-17T08:23:47Z</time>
      </trkpt>
      <trkpt lat="45.0658" lon="5.57649">
        <ele>1283.2</ele>
        <time>2019-08-17T08:23:53Z</time>
      </trkpt>
      <trkpt lat="45.0657" lon="5.57659">
        <ele>1284.8</ele>
        <time>2019-08-17T08:24:02Z</time>
      </trkpt>
      <trkpt lat="45.06561" lon="5.57668">
        <ele>1286.4</ele>
        <time>2019-08-17T08:24:10Z</time>
      </trkpt>
      <trkpt lat="45.06541" lon="5.57678">
        <ele>1289.6</ele>
        <time>2019-08-17T08:24:23Z</time>
      </trkpt>
      <trkpt lat="45.06533" lon="5.57684">
        <ele>1290.8</ele>
        <time>2019-08-17T08:24:28Z</time>
      </trkpt>
      <trkpt lat="45.06517" lon="5.57689">
        <ele>1292.8</ele>
        <time>2019-08-17T08:24:35Z</time>
      </trkpt>
      <trkpt lat="45.0651" lon="5.57689">
        <ele>1294</ele>
        <time>2019-08-17T08:24:39Z</time>
      </trkpt>
      <trkpt lat="45.065" lon="5.57687">
        <ele>1295.2</ele>
        <time>2019-08-17T08:24:44Z</time>
      </trkpt>
      <trkpt lat="45.0649" lon="5.57682">
        <ele>1296.6</ele>
        <time>2019-08-17T08:24:49Z</time>
      </trkpt>
      <trkpt lat="45.06482" lon="5.57681">
        <ele>1297.4</ele>
        <time>2019-08-17T08:24:52Z</time>
      </trkpt>
      <trkpt lat="45.06468" lon="5.57676">
        <ele>1299.6</ele>
        <time>2019-08-17T08:25:00Z</time>
      </trkpt>
      <trkpt lat="45.06453" lon="5.57671">
        <ele>1302.6</ele>
        <time>2019-08-17T08:25:12Z</time>
      </trkpt>
      <trkpt lat="45.06445" lon="5.57666">
        <ele>1303.6</ele>
        <time>2019-08-17T08:25:16Z</time>
      </trkpt>
      <trkpt lat="45.06437" lon="5.5766">
        <ele>1305.2</ele>
        <time>2019-08-17T08:25:22Z</time>
      </trkpt>
      <trkpt lat="45.06428" lon="5.57654">
        <ele>1307.2</ele>
        <time>2019-08-17T08:25:31Z</time>
      </trkpt>
      <trkpt lat="45.06424" lon="5.57647">
        <ele>1307.8</ele>
        <time>2019-08-17T08:25:36Z</time>
      </trkpt>
      <trkpt lat="45.06415" lon="5.57643">
        <ele>1308</ele>
        <time>2019-08-17T08:25:44Z</time>
      </trkpt>
      <trkpt lat="45.06406" lon="5.57639">
        <ele>1308.2</ele>
        <time>2019-08-17T08:25:50Z</time>
      </trkpt>
      <trkpt lat="45.064" lon="5.57637">
        <ele>1308</ele>
        <time>2019-08-17T08:25:54Z</time>
      </trkpt>
      <trkpt lat="45.0639" lon="5.5764">
        <ele>1307</ele>
        <time>2019-08-17T08:26:01Z</time>
      </trkpt>
      <trkpt lat="45.06386" lon="5.57643">
        <ele>1306.4</ele>
        <time>2019-08-17T08:26:04Z</time>
      </trkpt>
      <trkpt lat="45.06377" lon="5.57649">
        <ele>1305.2</ele>
        <time>2019-08-17T08:26:11Z</time>
      </trkpt>
      <trkpt lat="45.06366" lon="5.57661">
        <ele>1303.2</ele>
        <time>2019-08-17T08:26:21Z</time>
      </trkpt>
      <trkpt lat="45.06354" lon="5.57668">
        <ele>1301.6</ele>
        <time>2019-08-17T08:26:30Z</time>
      </trkpt>
      <trkpt lat="45.06344" lon="5.57676">
        <ele>1302.8</ele>
        <time>2019-08-17T08:26:41Z</time>
      </trkpt>
      <trkpt lat="45.06333" lon="5.57681">
        <ele>1304.4</ele>
        <time>2019-08-17T08:26:49Z</time>
      </trkpt>
      <trkpt lat="45.06329" lon="5.57685">
        <ele>1305.4</ele>
        <time>2019-08-17T08:26:53Z</time>
      </trkpt>
      <trkpt lat="45.06321" lon="5.57693">
        <ele>1307.2</ele>
        <time>2019-08-17T08:27:00Z</time>
      </trkpt>
      <trkpt lat="45.06313" lon="5.57697">
        <ele>1308.4</ele>
        <time>2019-08-17T08:27:04Z</time>
      </trkpt>
      <trkpt lat="45.06307" lon="5.57702">
        <ele>1309.8</ele>
        <time>2019-08-17T08:27:09Z</time>
      </trkpt>
      <trkpt lat="45.06301" lon="5.57703">
        <ele>1310.8</ele>
        <time>2019-08-17T08:27:13Z</time>
      </trkpt>
      <trkpt lat="45.06292" lon="5.57709">
        <ele>1311.8</ele>
        <time>2019-08-17T08:27:18Z</time>
      </trkpt>
      <trkpt lat="45.06281" lon="5.57719">
        <ele>1312.6</ele>
        <time>2019-08-17T08:27:26Z</time>
      </trkpt>
      <trkpt lat="45.06276" lon="5.57722">
        <ele>1313.4</ele>
        <time>2019-08-17T08:27:30Z</time>
      </trkpt>
      <trkpt lat="45.06271" lon="5.57728">
        <ele>1314.4</ele>
        <time>2019-08-17T08:27:34Z</time>
      </trkpt>
      <trkpt lat="45.06265" lon="5.57734">
        <ele>1316.4</ele>
        <time>2019-08-17T08:27:40Z</time>
      </trkpt>
      <trkpt lat="45.0626" lon="5.57736">
        <ele>1317.8</ele>
        <time>2019-08-17T08:27:44Z</time>
      </trkpt>
      <trkpt lat="45.06247" lon="5.57742">
        <ele>1321.2</ele>
        <time>2019-08-17T08:27:53Z</time>
      </trkpt>
      <trkpt lat="45.0624" lon="5.57749">
        <ele>1324.4</ele>
        <time>2019-08-17T08:28:01Z</time>
      </trkpt>
      <trkpt lat="45.06233" lon="5.57766">
        <ele>1328.8</ele>
        <time>2019-08-17T08:30:20Z</time>
      </trkpt>
      <trkpt lat="45.06228" lon="5.57783">
        <ele>1328.6</ele>
        <time>2019-08-17T08:30:27Z</time>
      </trkpt>
      <trkpt lat="45.06226" lon="5.57795">
        <ele>1328.2</ele>
        <time>2019-08-17T08:30:33Z</time>
      </trkpt>
      <trkpt lat="45.06221" lon="5.57805">
        <ele>1328.2</ele>
        <time>2019-08-17T08:30:37Z</time>
      </trkpt>
      <trkpt lat="45.06213" lon="5.57818">
        <ele>1328.4</ele>
        <time>2019-08-17T08:30:44Z</time>
      </trkpt>
      <trkpt lat="45.0621" lon="5.57824">
        <ele>1328.6</ele>
        <time>2019-08-17T08:30:48Z</time>
      </trkpt>
      <trkpt lat="45.062" lon="5.57836">
        <ele>1330.4</ele>
        <time>2019-08-17T08:30:59Z</time>
      </trkpt>
      <trkpt lat="45.06192" lon="5.5785">
        <ele>1332.2</ele>
        <time>2019-08-17T08:31:10Z</time>
      </trkpt>
      <trkpt lat="45.06186" lon="5.57861">
        <ele>1333.8</ele>
        <time>2019-08-17T08:31:18Z</time>
      </trkpt>
      <trkpt lat="45.06184" lon="5.57869">
        <ele>1334.8</ele>
        <time>2019-08-17T08:31:23Z</time>
      </trkpt>
      <trkpt lat="45.06174" lon="5.57885">
        <ele>1337</ele>
        <time>2019-08-17T08:31:34Z</time>
      </trkpt>
      <trkpt lat="45.06171" lon="5.57891">
        <ele>1337.6</ele>
        <time>2019-08-17T08:31:38Z</time>
      </trkpt>
      <trkpt lat="45.06165" lon="5.57899">
        <ele>1338.6</ele>
        <time>2019-08-17T08:31:44Z</time>
      </trkpt>
      <trkpt lat="45.0616" lon="5.57905">
        <ele>1339.4</ele>
        <time>2019-08-17T08:31:48Z</time>
      </trkpt>
      <trkpt lat="45.06147" lon="5.57918">
        <ele>1341</ele>
        <time>2019-08-17T08:31:58Z</time>
      </trkpt>
      <trkpt lat="45.06132" lon="5.57926">
        <ele>1342.2</ele>
        <time>2019-08-17T08:32:06Z</time>
      </trkpt>
      <trkpt lat="45.06128" lon="5.5793">
        <ele>1342.4</ele>
        <time>2019-08-17T08:32:08Z</time>
      </trkpt>
      <trkpt lat="45.06118" lon="5.57942">
        <ele>1343.2</ele>
        <time>2019-08-17T08:32:15Z</time>
      </trkpt>
      <trkpt lat="45.06108" lon="5.57952">
        <ele>1344</ele>
        <time>2019-08-17T08:32:22Z</time>
      </trkpt>
      <trkpt lat="45.06103" lon="5.5796">
        <ele>1344.6</ele>
        <time>2019-08-17T08:32:26Z</time>
      </trkpt>
      <trkpt lat="45.06095" lon="5.57965">
        <ele>1345</ele>
        <time>2019-08-17T08:32:31Z</time>
      </trkpt>
      <trkpt lat="45.06091" lon="5.57967">
        <ele>1345.2</ele>
        <time>2019-08-17T08:32:33Z</time>
      </trkpt>
      <trkpt lat="45.06083" lon="5.57973">
        <ele>1345.6</ele>
        <time>2019-08-17T08:32:38Z</time>
      </trkpt>
      <trkpt lat="45.06075" lon="5.57979">
        <ele>1346.4</ele>
        <time>2019-08-17T08:32:44Z</time>
      </trkpt>
      <trkpt lat="45.06067" lon="5.57982">
        <ele>1347</ele>
        <time>2019-08-17T08:32:48Z</time>
      </trkpt>
      <trkpt lat="45.06061" lon="5.57986">
        <ele>1347.8</ele>
        <time>2019-08-17T08:32:53Z</time>
      </trkpt>
      <trkpt lat="45.06057" lon="5.57993">
        <ele>1348.4</ele>
        <time>2019-08-17T08:32:57Z</time>
      </trkpt>
      <trkpt lat="45.06054" lon="5.58001">
        <ele>1349</ele>
        <time>2019-08-17T08:33:01Z</time>
      </trkpt>
      <trkpt lat="45.06052" lon="5.58013">
        <ele>1350.6</ele>
        <time>2019-08-17T08:33:10Z</time>
      </trkpt>
      <trkpt lat="45.06047" lon="5.58025">
        <ele>1351.6</ele>
        <time>2019-08-17T08:33:17Z</time>
      </trkpt>
      <trkpt lat="45.06046" lon="5.58032">
        <ele>1352</ele>
        <time>2019-08-17T08:33:21Z</time>
      </trkpt>
      <trkpt lat="45.06043" lon="5.58042">
        <ele>1352.6</ele>
        <time>2019-08-17T08:33:26Z</time>
      </trkpt>
      <trkpt lat="45.06035" lon="5.58056">
        <ele>1353.6</ele>
        <time>2019-08-17T08:33:34Z</time>
      </trkpt>
      <trkpt lat="45.06025" lon="5.58065">
        <ele>1354.8</ele>
        <time>2019-08-17T08:33:42Z</time>
      </trkpt>
      <trkpt lat="45.06017" lon="5.58077">
        <ele>1356</ele>
        <time>2019-08-17T08:33:50Z</time>
      </trkpt>
      <trkpt lat="45.06012" lon="5.58089">
        <ele>1357.2</ele>
        <time>2019-08-17T08:33:57Z</time>
      </trkpt>
      <trkpt lat="45.06004" lon="5.581">
        <ele>1359</ele>
        <time>2019-08-17T08:34:07Z</time>
      </trkpt>
      <trkpt lat="45.05998" lon="5.58104">
        <ele>1359.8</ele>
        <time>2019-08-17T08:34:11Z</time>
      </trkpt>
      <trkpt lat="45.05988" lon="5.58114">
        <ele>1361</ele>
        <time>2019-08-17T08:34:18Z</time>
      </trkpt>
      <trkpt lat="45.05981" lon="5.5812">
        <ele>1361.8</ele>
        <time>2019-08-17T08:34:23Z</time>
      </trkpt>
      <trkpt lat="45.0597" lon="5.58128">
        <ele>1363.2</ele>
        <time>2019-08-17T08:34:31Z</time>
      </trkpt>
      <trkpt lat="45.05961" lon="5.58138">
        <ele>1364.6</ele>
        <time>2019-08-17T08:34:40Z</time>
      </trkpt>
      <trkpt lat="45.05955" lon="5.58149">
        <ele>1366</ele>
        <time>2019-08-17T08:34:48Z</time>
      </trkpt>
      <trkpt lat="45.05949" lon="5.58155">
        <ele>1367.2</ele>
        <time>2019-08-17T08:34:54Z</time>
      </trkpt>
      <trkpt lat="45.05942" lon="5.58162">
        <ele>1368.6</ele>
        <time>2019-08-17T08:35:01Z</time>
      </trkpt>
      <trkpt lat="45.05936" lon="5.58166">
        <ele>1369.6</ele>
        <time>2019-08-17T08:35:06Z</time>
      </trkpt>
      <trkpt lat="45.05924" lon="5.58179">
        <ele>1371.2</ele>
        <time>2019-08-17T08:35:19Z</time>
      </trkpt>
      <trkpt lat="45.05921" lon="5.58183">
        <ele>1371.6</ele>
        <time>2019-08-17T08:35:22Z</time>
      </trkpt>
      <trkpt lat="45.05914" lon="5.58191">
        <ele>1373</ele>
        <time>2019-08-17T08:35:30Z</time>
      </trkpt>
      <trkpt lat="45.05907" lon="5.58197">
        <ele>1374.2</ele>
        <time>2019-08-17T08:35:37Z</time>
      </trkpt>
      <trkpt lat="45.05902" lon="5.58202">
        <ele>1375</ele>
        <time>2019-08-17T08:35:43Z</time>
      </trkpt>
      <trkpt lat="45.05892" lon="5.58211">
        <ele>1376.6</ele>
        <time>2019-08-17T08:35:53Z</time>
      </trkpt>
      <trkpt lat="45.0589" lon="5.58213">
        <ele>1377</ele>
        <time>2019-08-17T08:35:55Z</time>
      </trkpt>
      <trkpt lat="45.05882" lon="5.58221">
        <ele>1378.2</ele>
        <time>2019-08-17T08:36:03Z</time>
      </trkpt>
      <trkpt lat="45.05875" lon="5.58227">
        <ele>1379.6</ele>
        <time>2019-08-17T08:36:11Z</time>
      </trkpt>
      <trkpt lat="45.05864" lon="5.58234">
        <ele>1381.4</ele>
        <time>2019-08-17T08:36:21Z</time>
      </trkpt>
      <trkpt lat="45.05857" lon="5.5824">
        <ele>1382.6</ele>
        <time>2019-08-17T08:36:28Z</time>
      </trkpt>
      <trkpt lat="45.0585" lon="5.58245">
        <ele>1383.6</ele>
        <time>2019-08-17T08:36:35Z</time>
      </trkpt>
      <trkpt lat="45.05844" lon="5.58249">
        <ele>1384.2</ele>
        <time>2019-08-17T08:36:40Z</time>
      </trkpt>
      <trkpt lat="45.05838" lon="5.58253">
        <ele>1385</ele>
        <time>2019-08-17T08:36:45Z</time>
      </trkpt>
      <trkpt lat="45.05829" lon="5.58255">
        <ele>1385.8</ele>
        <time>2019-08-17T08:36:52Z</time>
      </trkpt>
      <trkpt lat="45.05823" lon="5.58258">
        <ele>1386.4</ele>
        <time>2019-08-17T08:36:56Z</time>
      </trkpt>
      <trkpt lat="45.05818" lon="5.58263">
        <ele>1387</ele>
        <time>2019-08-17T08:37:01Z</time>
      </trkpt>
      <trkpt lat="45.05811" lon="5.58266">
        <ele>1387.8</ele>
        <time>2019-08-17T08:37:05Z</time>
      </trkpt>
      <trkpt lat="45.05802" lon="5.58274">
        <ele>1388.6</ele>
        <time>2019-08-17T08:37:11Z</time>
      </trkpt>
      <trkpt lat="45.05792" lon="5.5828">
        <ele>1390</ele>
        <time>2019-08-17T08:37:18Z</time>
      </trkpt>
      <trkpt lat="45.0578" lon="5.58286">
        <ele>1391</ele>
        <time>2019-08-17T08:37:24Z</time>
      </trkpt>
      <trkpt lat="45.05776" lon="5.58291">
        <ele>1391.4</ele>
        <time>2019-08-17T08:37:27Z</time>
      </trkpt>
      <trkpt lat="45.05766" lon="5.58299">
        <ele>1392.4</ele>
        <time>2019-08-17T08:37:32Z</time>
      </trkpt>
      <trkpt lat="45.05761" lon="5.58302">
        <ele>1392.8</ele>
        <time>2019-08-17T08:37:34Z</time>
      </trkpt>
      <trkpt lat="45.05751" lon="5.58306">
        <ele>1393.6</ele>
        <time>2019-08-17T08:37:39Z</time>
      </trkpt>
      <trkpt lat="45.05738" lon="5.58309">
        <ele>1394.8</ele>
        <time>2019-08-17T08:37:45Z</time>
      </trkpt>
      <trkpt lat="45.05724" lon="5.58312">
        <ele>1396.6</ele>
        <time>2019-08-17T08:37:52Z</time>
      </trkpt>
      <trkpt lat="45.05716" lon="5.58312">
        <ele>1398.6</ele>
        <time>2019-08-17T08:37:58Z</time>
      </trkpt>
      <trkpt lat="45.05707" lon="5.58318">
        <ele>1401</ele>
        <time>2019-08-17T08:38:06Z</time>
      </trkpt>
      <trkpt lat="45.05696" lon="5.58323">
        <ele>1405.8</ele>
        <time>2019-08-17T08:38:55Z</time>
      </trkpt>
      <trkpt lat="45.05684" lon="5.58324">
        <ele>1406.6</ele>
        <time>2019-08-17T08:39:05Z</time>
      </trkpt>
      <trkpt lat="45.05672" lon="5.58326">
        <ele>1408.4</ele>
        <time>2019-08-17T08:39:14Z</time>
      </trkpt>
      <trkpt lat="45.05661" lon="5.58325">
        <ele>1410.2</ele>
        <time>2019-08-17T08:39:22Z</time>
      </trkpt>
      <trkpt lat="45.05648" lon="5.58325">
        <ele>1411.6</ele>
        <time>2019-08-17T08:39:29Z</time>
      </trkpt>
      <trkpt lat="45.05643" lon="5.58326">
        <ele>1412.2</ele>
        <time>2019-08-17T08:39:32Z</time>
      </trkpt>
      <trkpt lat="45.05634" lon="5.58326">
        <ele>1413</ele>
        <time>2019-08-17T08:39:36Z</time>
      </trkpt>
      <trkpt lat="45.05623" lon="5.58329">
        <ele>1414.2</ele>
        <time>2019-08-17T08:39:43Z</time>
      </trkpt>
      <trkpt lat="45.05617" lon="5.58328">
        <ele>1414.8</ele>
        <time>2019-08-17T08:39:46Z</time>
      </trkpt>
      <trkpt lat="45.05604" lon="5.58327">
        <ele>1416.6</ele>
        <time>2019-08-17T08:39:55Z</time>
      </trkpt>
      <trkpt lat="45.05594" lon="5.58325">
        <ele>1418</ele>
        <time>2019-08-17T08:40:02Z</time>
      </trkpt>
      <trkpt lat="45.05587" lon="5.58323">
        <ele>1419.8</ele>
        <time>2019-08-17T08:40:09Z</time>
      </trkpt>
      <trkpt lat="45.0558" lon="5.58323">
        <ele>1421.4</ele>
        <time>2019-08-17T08:40:16Z</time>
      </trkpt>
      <trkpt lat="45.05577" lon="5.58324">
        <ele>1422.6</ele>
        <time>2019-08-17T08:40:20Z</time>
      </trkpt>
      <trkpt lat="45.05568" lon="5.58328">
        <ele>1425.2</ele>
        <time>2019-08-17T08:40:31Z</time>
      </trkpt>
      <trkpt lat="45.05551" lon="5.58331">
        <ele>1428.6</ele>
        <time>2019-08-17T08:40:47Z</time>
      </trkpt>
      <trkpt lat="45.05541" lon="5.58334">
        <ele>1429.4</ele>
        <time>2019-08-17T08:40:53Z</time>
      </trkpt>
      <trkpt lat="45.05529" lon="5.5834">
        <ele>1431.8</ele>
        <time>2019-08-17T08:41:04Z</time>
      </trkpt>
      <trkpt lat="45.05523" lon="5.58342">
        <ele>1433</ele>
        <time>2019-08-17T08:41:10Z</time>
      </trkpt>
      <trkpt lat="45.05515" lon="5.58341">
        <ele>1433.6</ele>
        <time>2019-08-17T08:41:16Z</time>
      </trkpt>
      <trkpt lat="45.05502" lon="5.58342">
        <ele>1434.2</ele>
        <time>2019-08-17T08:41:30Z</time>
      </trkpt>
      <trkpt lat="45.05493" lon="5.58347">
        <ele>1435.6</ele>
        <time>2019-08-17T08:41:45Z</time>
      </trkpt>
      <trkpt lat="45.05484" lon="5.58362">
        <ele>1438.6</ele>
        <time>2019-08-17T08:42:03Z</time>
      </trkpt>
      <trkpt lat="45.05476" lon="5.58388">
        <ele>1443</ele>
        <time>2019-08-17T08:42:26Z</time>
      </trkpt>
      <trkpt lat="45.05475" lon="5.5839">
        <ele>1443.6</ele>
        <time>2019-08-17T08:42:29Z</time>
      </trkpt>
      <trkpt lat="45.05472" lon="5.58404">
        <ele>1446.4</ele>
        <time>2019-08-17T08:43:03Z</time>
      </trkpt>
      <trkpt lat="45.05471" lon="5.58405">
        <ele>1446.6</ele>
        <time>2019-08-17T08:43:05Z</time>
      </trkpt>
      <trkpt lat="45.05468" lon="5.58418">
        <ele>1448.2</ele>
        <time>2019-08-17T08:43:17Z</time>
      </trkpt>
      <trkpt lat="45.05461" lon="5.58434">
        <ele>1451.2</ele>
        <time>2019-08-17T08:43:33Z</time>
      </trkpt>
      <trkpt lat="45.05452" lon="5.58442">
        <ele>1453.2</ele>
        <time>2019-08-17T08:43:47Z</time>
      </trkpt>
      <trkpt lat="45.0545" lon="5.58456">
        <ele>1454.4</ele>
        <time>2019-08-17T08:44:17Z</time>
      </trkpt>
      <trkpt lat="45.0545" lon="5.58462">
        <ele>1454.4</ele>
        <time>2019-08-17T08:44:21Z</time>
      </trkpt>
      <trkpt lat="45.05444" lon="5.58468">
        <ele>1454</ele>
        <time>2019-08-17T08:44:26Z</time>
      </trkpt>
      <trkpt lat="45.05438" lon="5.58478">
        <ele>1453.6</ele>
        <time>2019-08-17T08:44:33Z</time>
      </trkpt>
      <trkpt lat="45.05429" lon="5.58488">
        <ele>1455</ele>
        <time>2019-08-17T08:44:43Z</time>
      </trkpt>
      <trkpt lat="45.05421" lon="5.58493">
        <ele>1456.2</ele>
        <time>2019-08-17T08:44:50Z</time>
      </trkpt>
      <trkpt lat="45.05413" lon="5.585">
        <ele>1457.2</ele>
        <time>2019-08-17T08:44:58Z</time>
      </trkpt>
      <trkpt lat="45.05405" lon="5.58503">
        <ele>1458.6</ele>
        <time>2019-08-17T08:45:06Z</time>
      </trkpt>
      <trkpt lat="45.05382" lon="5.58518">
        <ele>1460</ele>
        <time>2019-08-17T08:45:51Z</time>
      </trkpt>
      <trkpt lat="45.05379" lon="5.58518">
        <ele>1459.2</ele>
        <time>2019-08-17T08:45:59Z</time>
      </trkpt>
      <trkpt lat="45.05375" lon="5.5852">
        <ele>1458.4</ele>
        <time>2019-08-17T08:46:08Z</time>
      </trkpt>
      <trkpt lat="45.05366" lon="5.58518">
        <ele>1459</ele>
        <time>2019-08-17T08:46:19Z</time>
      </trkpt>
      <trkpt lat="45.0536" lon="5.58519">
        <ele>1460</ele>
        <time>2019-08-17T08:46:28Z</time>
      </trkpt>
      <trkpt lat="45.05355" lon="5.58518">
        <ele>1461.2</ele>
        <time>2019-08-17T08:46:40Z</time>
      </trkpt>
      <trkpt lat="45.0535" lon="5.58516">
        <ele>1460.4</ele>
        <time>2019-08-17T08:46:44Z</time>
      </trkpt>
      <trkpt lat="45.05338" lon="5.58516">
        <ele>1458</ele>
        <time>2019-08-17T08:46:52Z</time>
      </trkpt>
      <trkpt lat="45.05331" lon="5.58521">
        <ele>1456.4</ele>
        <time>2019-08-17T08:46:58Z</time>
      </trkpt>
      <trkpt lat="45.05328" lon="5.58528">
        <ele>1455.4</ele>
        <time>2019-08-17T08:47:02Z</time>
      </trkpt>
      <trkpt lat="45.05331" lon="5.58537">
        <ele>1453.8</ele>
        <time>2019-08-17T08:47:07Z</time>
      </trkpt>
      <trkpt lat="45.05341" lon="5.58546">
        <ele>1448.8</ele>
        <time>2019-08-17T08:47:18Z</time>
      </trkpt>
      <trkpt lat="45.0535" lon="5.58556">
        <ele>1443.8</ele>
        <time>2019-08-17T08:47:29Z</time>
      </trkpt>
      <trkpt lat="45.05357" lon="5.58568">
        <ele>1441.6</ele>
        <time>2019-08-17T08:47:40Z</time>
      </trkpt>
      <trkpt lat="45.05357" lon="5.58573">
        <ele>1441.2</ele>
        <time>2019-08-17T08:47:43Z</time>
      </trkpt>
      <trkpt lat="45.05352" lon="5.58578">
        <ele>1440.2</ele>
        <time>2019-08-17T08:47:49Z</time>
      </trkpt>
      <trkpt lat="45.05349" lon="5.58581">
        <ele>1439.4</ele>
        <time>2019-08-17T08:47:53Z</time>
      </trkpt>
      <trkpt lat="45.05334" lon="5.58587">
        <ele>1436</ele>
        <time>2019-08-17T08:48:05Z</time>
      </trkpt>
      <trkpt lat="45.05327" lon="5.58593">
        <ele>1434.2</ele>
        <time>2019-08-17T08:48:12Z</time>
      </trkpt>
      <trkpt lat="45.05323" lon="5.58601">
        <ele>1433.2</ele>
        <time>2019-08-17T08:48:18Z</time>
      </trkpt>
      <trkpt lat="45.0532" lon="5.5861">
        <ele>1432.2</ele>
        <time>2019-08-17T08:48:24Z</time>
      </trkpt>
      <trkpt lat="45.05317" lon="5.58617">
        <ele>1431.4</ele>
        <time>2019-08-17T08:48:29Z</time>
      </trkpt>
      <trkpt lat="45.05311" lon="5.58629">
        <ele>1429.8</ele>
        <time>2019-08-17T08:48:38Z</time>
      </trkpt>
      <trkpt lat="45.05305" lon="5.5864">
        <ele>1429</ele>
        <time>2019-08-17T08:48:46Z</time>
      </trkpt>
      <trkpt lat="45.05304" lon="5.58651">
        <ele>1428.4</ele>
        <time>2019-08-17T08:48:53Z</time>
      </trkpt>
      <trkpt lat="45.05305" lon="5.58668">
        <ele>1427</ele>
        <time>2019-08-17T08:49:03Z</time>
      </trkpt>
      <trkpt lat="45.05307" lon="5.58673">
        <ele>1426.4</ele>
        <time>2019-08-17T08:49:05Z</time>
      </trkpt>
      <trkpt lat="45.05303" lon="5.5869">
        <ele>1424.8</ele>
        <time>2019-08-17T08:58:03Z</time>
      </trkpt>
      <trkpt lat="45.05302" lon="5.58703">
        <ele>1425</ele>
        <time>2019-08-17T08:58:10Z</time>
      </trkpt>
      <trkpt lat="45.05299" lon="5.58718">
        <ele>1424.8</ele>
        <time>2019-08-17T08:58:18Z</time>
      </trkpt>
      <trkpt lat="45.05298" lon="5.58727">
        <ele>1424.8</ele>
        <time>2019-08-17T08:58:22Z</time>
      </trkpt>
      <trkpt lat="45.05294" lon="5.58739">
        <ele>1424.8</ele>
        <time>2019-08-17T08:58:28Z</time>
      </trkpt>
      <trkpt lat="45.0529" lon="5.58744">
        <ele>1424.8</ele>
        <time>2019-08-17T08:58:31Z</time>
      </trkpt>
      <trkpt lat="45.05285" lon="5.5875">
        <ele>1424.8</ele>
        <time>2019-08-17T08:58:35Z</time>
      </trkpt>
      <trkpt lat="45.05283" lon="5.58757">
        <ele>1424.6</ele>
        <time>2019-08-17T08:58:39Z</time>
      </trkpt>
      <trkpt lat="45.05282" lon="5.58766">
        <ele>1424.4</ele>
        <time>2019-08-17T08:58:45Z</time>
      </trkpt>
      <trkpt lat="45.05283" lon="5.58783">
        <ele>1425.6</ele>
        <time>2019-08-17T08:58:56Z</time>
      </trkpt>
      <trkpt lat="45.0528" lon="5.58792">
        <ele>1426.4</ele>
        <time>2019-08-17T08:59:00Z</time>
      </trkpt>
      <trkpt lat="45.05281" lon="5.58805">
        <ele>1427.6</ele>
        <time>2019-08-17T08:59:05Z</time>
      </trkpt>
      <trkpt lat="45.05285" lon="5.58811">
        <ele>1427.8</ele>
        <time>2019-08-17T08:59:08Z</time>
      </trkpt>
      <trkpt lat="45.05291" lon="5.58824">
        <ele>1429</ele>
        <time>2019-08-17T08:59:13Z</time>
      </trkpt>
      <trkpt lat="45.05294" lon="5.58836">
        <ele>1430.8</ele>
        <time>2019-08-17T08:59:18Z</time>
      </trkpt>
      <trkpt lat="45.05302" lon="5.58851">
        <ele>1433.2</ele>
        <time>2019-08-17T08:59:23Z</time>
      </trkpt>
      <trkpt lat="45.05309" lon="5.58862">
        <ele>1435</ele>
        <time>2019-08-17T08:59:27Z</time>
      </trkpt>
      <trkpt lat="45.0532" lon="5.58871">
        <ele>1437.8</ele>
        <time>2019-08-17T08:59:32Z</time>
      </trkpt>
      <trkpt lat="45.05322" lon="5.58874">
        <ele>1438.4</ele>
        <time>2019-08-17T08:59:33Z</time>
      </trkpt>
      <trkpt lat="45.05326" lon="5.58888">
        <ele>1440.4</ele>
        <time>2019-08-17T08:59:36Z</time>
      </trkpt>
      <trkpt lat="45.05328" lon="5.58908">
        <ele>1443.6</ele>
        <time>2019-08-17T08:59:41Z</time>
      </trkpt>
      <trkpt lat="45.0533" lon="5.58916">
        <ele>1445</ele>
        <time>2019-08-17T08:59:43Z</time>
      </trkpt>
      <trkpt lat="45.05333" lon="5.58923">
        <ele>1447.2</ele>
        <time>2019-08-17T08:59:46Z</time>
      </trkpt>
      <trkpt lat="45.05335" lon="5.58941">
        <ele>1452.4</ele>
        <time>2019-08-17T08:59:53Z</time>
      </trkpt>
      <trkpt lat="45.05337" lon="5.58951">
        <ele>1454.6</ele>
        <time>2019-08-17T08:59:56Z</time>
      </trkpt>
      <trkpt lat="45.05342" lon="5.58964">
        <ele>1457.4</ele>
        <time>2019-08-17T09:00:00Z</time>
      </trkpt>
      <trkpt lat="45.05349" lon="5.58974">
        <ele>1460</ele>
        <time>2019-08-17T09:00:04Z</time>
      </trkpt>
      <trkpt lat="45.05362" lon="5.58989">
        <ele>1464</ele>
        <time>2019-08-17T09:00:10Z</time>
      </trkpt>
      <trkpt lat="45.05373" lon="5.59007">
        <ele>1469.8</ele>
        <time>2019-08-17T09:00:18Z</time>
      </trkpt>
      <trkpt lat="45.05388" lon="5.59019">
        <ele>1475.4</ele>
        <time>2019-08-17T09:00:26Z</time>
      </trkpt>
      <trkpt lat="45.05397" lon="5.59024">
        <ele>1478.2</ele>
        <time>2019-08-17T09:00:30Z</time>
      </trkpt>
      <trkpt lat="45.05412" lon="5.59033">
        <ele>1482.2</ele>
        <time>2019-08-17T09:00:36Z</time>
      </trkpt>
      <trkpt lat="45.05415" lon="5.59037">
        <ele>1483.6</ele>
        <time>2019-08-17T09:00:38Z</time>
      </trkpt>
      <trkpt lat="45.05427" lon="5.59048">
        <ele>1487.2</ele>
        <time>2019-08-17T09:00:43Z</time>
      </trkpt>
      <trkpt lat="45.05438" lon="5.59062">
        <ele>1490.4</ele>
        <time>2019-08-17T09:00:48Z</time>
      </trkpt>
      <trkpt lat="45.05444" lon="5.59068">
        <ele>1491.6</ele>
        <time>2019-08-17T09:00:50Z</time>
      </trkpt>
      <trkpt lat="45.05448" lon="5.59073">
        <ele>1492.8</ele>
        <time>2019-08-17T09:00:52Z</time>
      </trkpt>
      <trkpt lat="45.05452" lon="5.59078">
        <ele>1494.2</ele>
        <time>2019-08-17T09:00:54Z</time>
      </trkpt>
      <trkpt lat="45.05463" lon="5.59087">
        <ele>1497.6</ele>
        <time>2019-08-17T09:00:59Z</time>
      </trkpt>
      <trkpt lat="45.05471" lon="5.59089">
        <ele>1499.6</ele>
        <time>2019-08-17T09:01:02Z</time>
      </trkpt>
      <trkpt lat="45.05483" lon="5.5909">
        <ele>1503</ele>
        <time>2019-08-17T09:01:07Z</time>
      </trkpt>
      <trkpt lat="45.05489" lon="5.59086">
        <ele>1505.6</ele>
        <time>2019-08-17T09:01:11Z</time>
      </trkpt>
      <trkpt lat="45.05502" lon="5.59086">
        <ele>1509.4</ele>
        <time>2019-08-17T09:01:17Z</time>
      </trkpt>
      <trkpt lat="45.05509" lon="5.59084">
        <ele>1510.6</ele>
        <time>2019-08-17T09:01:19Z</time>
      </trkpt>
      <trkpt lat="45.05514" lon="5.59086">
        <ele>1511.8</ele>
        <time>2019-08-17T09:01:21Z</time>
      </trkpt>
      <trkpt lat="45.05522" lon="5.59091">
        <ele>1515.8</ele>
        <time>2019-08-17T09:01:27Z</time>
      </trkpt>
      <trkpt lat="45.05521" lon="5.59078">
        <ele>1518.2</ele>
        <time>2019-08-17T09:01:31Z</time>
      </trkpt>
      <trkpt lat="45.05525" lon="5.59067">
        <ele>1520.6</ele>
        <time>2019-08-17T09:01:35Z</time>
      </trkpt>
      <trkpt lat="45.05528" lon="5.59056">
        <ele>1523</ele>
        <time>2019-08-17T09:01:39Z</time>
      </trkpt>
      <trkpt lat="45.05535" lon="5.59048">
        <ele>1524.4</ele>
        <time>2019-08-17T09:01:42Z</time>
      </trkpt>
      <trkpt lat="45.05543" lon="5.59045">
        <ele>1526.4</ele>
        <time>2019-08-17T09:01:46Z</time>
      </trkpt>
      <trkpt lat="45.05554" lon="5.59028">
        <ele>1530.2</ele>
        <time>2019-08-17T09:01:55Z</time>
      </trkpt>
      <trkpt lat="45.0556" lon="5.59014">
        <ele>1532</ele>
        <time>2019-08-17T09:02:00Z</time>
      </trkpt>
      <trkpt lat="45.05569" lon="5.59006">
        <ele>1533.2</ele>
        <time>2019-08-17T09:02:04Z</time>
      </trkpt>
      <trkpt lat="45.05577" lon="5.59002">
        <ele>1534.2</ele>
        <time>2019-08-17T09:02:07Z</time>
      </trkpt>
      <trkpt lat="45.05592" lon="5.58996">
        <ele>1535.6</ele>
        <time>2019-08-17T09:02:12Z</time>
      </trkpt>
      <trkpt lat="45.05597" lon="5.58995">
        <ele>1536.2</ele>
        <time>2019-08-17T09:02:14Z</time>
      </trkpt>
      <trkpt lat="45.05609" lon="5.58988">
        <ele>1537.6</ele>
        <time>2019-08-17T09:02:19Z</time>
      </trkpt>
      <trkpt lat="45.05614" lon="5.58984">
        <ele>1538.2</ele>
        <time>2019-08-17T09:02:21Z</time>
      </trkpt>
      <trkpt lat="45.0563" lon="5.58974">
        <ele>1539.8</ele>
        <time>2019-08-17T09:02:26Z</time>
      </trkpt>
      <trkpt lat="45.0564" lon="5.58964">
        <ele>1541.2</ele>
        <time>2019-08-17T09:02:31Z</time>
      </trkpt>
      <trkpt lat="45.0565" lon="5.58957">
        <ele>1542.4</ele>
        <time>2019-08-17T09:02:35Z</time>
      </trkpt>
      <trkpt lat="45.05654" lon="5.58952">
        <ele>1542.8</ele>
        <time>2019-08-17T09:02:37Z</time>
      </trkpt>
      <trkpt lat="45.0566" lon="5.58943">
        <ele>1544</ele>
        <time>2019-08-17T09:02:41Z</time>
      </trkpt>
      <trkpt lat="45.05663" lon="5.58939">
        <ele>1544.6</ele>
        <time>2019-08-17T09:02:43Z</time>
      </trkpt>
      <trkpt lat="45.05676" lon="5.58928">
        <ele>1546.4</ele>
        <time>2019-08-17T09:02:49Z</time>
      </trkpt>
      <trkpt lat="45.05694" lon="5.58917">
        <ele>1548.4</ele>
        <time>2019-08-17T09:02:56Z</time>
      </trkpt>
      <trkpt lat="45.05704" lon="5.5891">
        <ele>1549.4</ele>
        <time>2019-08-17T09:03:00Z</time>
      </trkpt>
      <trkpt lat="45.05719" lon="5.589">
        <ele>1551</ele>
        <time>2019-08-17T09:03:07Z</time>
      </trkpt>
      <trkpt lat="45.05728" lon="5.58894">
        <ele>1551.8</ele>
        <time>2019-08-17T09:03:11Z</time>
      </trkpt>
      <trkpt lat="45.05735" lon="5.58891">
        <ele>1552.6</ele>
        <time>2019-08-17T09:03:15Z</time>
      </trkpt>
      <trkpt lat="45.05741" lon="5.589">
        <ele>1553.8</ele>
        <time>2019-08-17T09:03:22Z</time>
      </trkpt>
      <trkpt lat="45.05743" lon="5.5891">
        <ele>1554.4</ele>
        <time>2019-08-17T09:03:26Z</time>
      </trkpt>
      <trkpt lat="45.05747" lon="5.58922">
        <ele>1555</ele>
        <time>2019-08-17T09:03:30Z</time>
      </trkpt>
      <trkpt lat="45.05747" lon="5.58928">
        <ele>1555.4</ele>
        <time>2019-08-17T09:03:32Z</time>
      </trkpt>
      <trkpt lat="45.05748" lon="5.58938">
        <ele>1555.8</ele>
        <time>2019-08-17T09:03:36Z</time>
      </trkpt>
      <trkpt lat="45.05747" lon="5.5895">
        <ele>1556.4</ele>
        <time>2019-08-17T09:03:40Z</time>
      </trkpt>
      <trkpt lat="45.05747" lon="5.58958">
        <ele>1556.8</ele>
        <time>2019-08-17T09:03:42Z</time>
      </trkpt>
      <trkpt lat="45.05745" lon="5.58966">
        <ele>1557.2</ele>
        <time>2019-08-17T09:03:44Z</time>
      </trkpt>
      <trkpt lat="45.05744" lon="5.58975">
        <ele>1557.6</ele>
        <time>2019-08-17T09:03:46Z</time>
      </trkpt>
      <trkpt lat="45.05745" lon="5.58994">
        <ele>1558.4</ele>
        <time>2019-08-17T09:03:51Z</time>
      </trkpt>
      <trkpt lat="45.05745" lon="5.59019">
        <ele>1559.4</ele>
        <time>2019-08-17T09:03:56Z</time>
      </trkpt>
      <trkpt lat="45.05746" lon="5.59024">
        <ele>1559.6</ele>
        <time>2019-08-17T09:03:57Z</time>
      </trkpt>
      <trkpt lat="45.05748" lon="5.59053">
        <ele>1560.4</ele>
        <time>2019-08-17T09:04:02Z</time>
      </trkpt>
      <trkpt lat="45.05749" lon="5.59062">
        <ele>1560.2</ele>
        <time>2019-08-17T09:04:04Z</time>
      </trkpt>
      <trkpt lat="45.05753" lon="5.59066">
        <ele>1559.8</ele>
        <time>2019-08-17T09:04:06Z</time>
      </trkpt>
      <trkpt lat="45.05763" lon="5.5907">
        <ele>1558.6</ele>
        <time>2019-08-17T09:04:10Z</time>
      </trkpt>
      <trkpt lat="45.05771" lon="5.59069">
        <ele>1558.2</ele>
        <time>2019-08-17T09:04:13Z</time>
      </trkpt>
      <trkpt lat="45.0578" lon="5.59071">
        <ele>1558.2</ele>
        <time>2019-08-17T09:04:16Z</time>
      </trkpt>
      <trkpt lat="45.05784" lon="5.59073">
        <ele>1558.2</ele>
        <time>2019-08-17T09:04:17Z</time>
      </trkpt>
      <trkpt lat="45.0579" lon="5.59079">
        <ele>1558.4</ele>
        <time>2019-08-17T09:04:19Z</time>
      </trkpt>
      <trkpt lat="45.05793" lon="5.59086">
        <ele>1558.4</ele>
        <time>2019-08-17T09:04:21Z</time>
      </trkpt>
      <trkpt lat="45.05798" lon="5.59085">
        <ele>1558.2</ele>
        <time>2019-08-17T09:04:23Z</time>
      </trkpt>
      <trkpt lat="45.05806" lon="5.59075">
        <ele>1558.2</ele>
        <time>2019-08-17T09:04:26Z</time>
      </trkpt>
      <trkpt lat="45.05821" lon="5.59064">
        <ele>1558.8</ele>
        <time>2019-08-17T09:04:31Z</time>
      </trkpt>
      <trkpt lat="45.05828" lon="5.59058">
        <ele>1559.2</ele>
        <time>2019-08-17T09:04:33Z</time>
      </trkpt>
      <trkpt lat="45.05841" lon="5.59052">
        <ele>1559.8</ele>
        <time>2019-08-17T09:04:36Z</time>
      </trkpt>
      <trkpt lat="45.05848" lon="5.59046">
        <ele>1560</ele>
        <time>2019-08-17T09:04:38Z</time>
      </trkpt>
      <trkpt lat="45.05853" lon="5.59039">
        <ele>1560.2</ele>
        <time>2019-08-17T09:04:40Z</time>
      </trkpt>
      <trkpt lat="45.05861" lon="5.59032">
        <ele>1560.6</ele>
        <time>2019-08-17T09:04:43Z</time>
      </trkpt>
      <trkpt lat="45.05864" lon="5.59025">
        <ele>1560.8</ele>
        <time>2019-08-17T09:04:45Z</time>
      </trkpt>
      <trkpt lat="45.05871" lon="5.59018">
        <ele>1561</ele>
        <time>2019-08-17T09:04:47Z</time>
      </trkpt>
      <trkpt lat="45.05875" lon="5.59016">
        <ele>1561.2</ele>
        <time>2019-08-17T09:04:48Z</time>
      </trkpt>
      <trkpt lat="45.05888" lon="5.59012">
        <ele>1561.6</ele>
        <time>2019-08-17T09:04:52Z</time>
      </trkpt>
      <trkpt lat="45.05899" lon="5.59012">
        <ele>1561.8</ele>
        <time>2019-08-17T09:04:55Z</time>
      </trkpt>
      <trkpt lat="45.05906" lon="5.5901">
        <ele>1562.2</ele>
        <time>2019-08-17T09:04:57Z</time>
      </trkpt>
      <trkpt lat="45.05917" lon="5.59005">
        <ele>1562.8</ele>
        <time>2019-08-17T09:05:00Z</time>
      </trkpt>
      <trkpt lat="45.05931" lon="5.58988">
        <ele>1563.4</ele>
        <time>2019-08-17T09:05:05Z</time>
      </trkpt>
      <trkpt lat="45.05952" lon="5.58969">
        <ele>1564</ele>
        <time>2019-08-17T09:05:10Z</time>
      </trkpt>
      <trkpt lat="45.05957" lon="5.58963">
        <ele>1564.4</ele>
        <time>2019-08-17T09:05:11Z</time>
      </trkpt>
      <trkpt lat="45.05979" lon="5.58931">
        <ele>1565.4</ele>
        <time>2019-08-17T09:05:17Z</time>
      </trkpt>
      <trkpt lat="45.05989" lon="5.58914">
        <ele>1565.8</ele>
        <time>2019-08-17T09:05:20Z</time>
      </trkpt>
      <trkpt lat="45.05998" lon="5.58905">
        <ele>1566</ele>
        <time>2019-08-17T09:05:22Z</time>
      </trkpt>
      <trkpt lat="45.06026" lon="5.58861">
        <ele>1566.8</ele>
        <time>2019-08-17T09:05:29Z</time>
      </trkpt>
      <trkpt lat="45.0603" lon="5.58856">
        <ele>1567</ele>
        <time>2019-08-17T09:05:30Z</time>
      </trkpt>
      <trkpt lat="45.06035" lon="5.58853">
        <ele>1567</ele>
        <time>2019-08-17T09:05:31Z</time>
      </trkpt>
      <trkpt lat="45.06052" lon="5.58845">
        <ele>1567.4</ele>
        <time>2019-08-17T09:05:34Z</time>
      </trkpt>
      <trkpt lat="45.06069" lon="5.58843">
        <ele>1567.8</ele>
        <time>2019-08-17T09:05:37Z</time>
      </trkpt>
      <trkpt lat="45.06074" lon="5.58841">
        <ele>1568</ele>
        <time>2019-08-17T09:05:38Z</time>
      </trkpt>
      <trkpt lat="45.06087" lon="5.58834">
        <ele>1568.6</ele>
        <time>2019-08-17T09:05:41Z</time>
      </trkpt>
      <trkpt lat="45.06117" lon="5.58809">
        <ele>1569.8</ele>
        <time>2019-08-17T09:05:48Z</time>
      </trkpt>
      <trkpt lat="45.06126" lon="5.58802">
        <ele>1570.4</ele>
        <time>2019-08-17T09:05:51Z</time>
      </trkpt>
      <trkpt lat="45.06137" lon="5.58796">
        <ele>1571</ele>
        <time>2019-08-17T09:05:55Z</time>
      </trkpt>
      <trkpt lat="45.06143" lon="5.58793">
        <ele>1571.4</ele>
        <time>2019-08-17T09:05:57Z</time>
      </trkpt>
      <trkpt lat="45.06147" lon="5.58792">
        <ele>1571.4</ele>
        <time>2019-08-17T09:05:58Z</time>
      </trkpt>
      <trkpt lat="45.06158" lon="5.58791">
        <ele>1571.8</ele>
        <time>2019-08-17T09:06:01Z</time>
      </trkpt>
      <trkpt lat="45.06161" lon="5.58789">
        <ele>1571.8</ele>
        <time>2019-08-17T09:06:02Z</time>
      </trkpt>
      <trkpt lat="45.06169" lon="5.58773">
        <ele>1572.2</ele>
        <time>2019-08-17T09:06:06Z</time>
      </trkpt>
      <trkpt lat="45.06173" lon="5.58765">
        <ele>1572.4</ele>
        <time>2019-08-17T09:06:08Z</time>
      </trkpt>
      <trkpt lat="45.06183" lon="5.58751">
        <ele>1572.8</ele>
        <time>2019-08-17T09:06:11Z</time>
      </trkpt>
      <trkpt lat="45.06204" lon="5.5873">
        <ele>1573.2</ele>
        <time>2019-08-17T09:06:16Z</time>
      </trkpt>
      <trkpt lat="45.06215" lon="5.58717">
        <ele>1573.4</ele>
        <time>2019-08-17T09:06:19Z</time>
      </trkpt>
      <trkpt lat="45.06233" lon="5.58692">
        <ele>1573.4</ele>
        <time>2019-08-17T09:06:24Z</time>
      </trkpt>
      <trkpt lat="45.06254" lon="5.58657">
        <ele>1573.4</ele>
        <time>2019-08-17T09:06:30Z</time>
      </trkpt>
      <trkpt lat="45.06257" lon="5.58653">
        <ele>1573.6</ele>
        <time>2019-08-17T09:06:31Z</time>
      </trkpt>
      <trkpt lat="45.0627" lon="5.5864">
        <ele>1573.6</ele>
        <time>2019-08-17T09:06:35Z</time>
      </trkpt>
      <trkpt lat="45.06281" lon="5.58622">
        <ele>1573.8</ele>
        <time>2019-08-17T09:06:39Z</time>
      </trkpt>
      <trkpt lat="45.06297" lon="5.58602">
        <ele>1573.8</ele>
        <time>2019-08-17T09:06:43Z</time>
      </trkpt>
      <trkpt lat="45.06315" lon="5.5858">
        <ele>1574</ele>
        <time>2019-08-17T09:06:47Z</time>
      </trkpt>
      <trkpt lat="45.06333" lon="5.58555">
        <ele>1574.2</ele>
        <time>2019-08-17T09:06:52Z</time>
      </trkpt>
      <trkpt lat="45.0634" lon="5.58545">
        <ele>1574.2</ele>
        <time>2019-08-17T09:06:54Z</time>
      </trkpt>
      <trkpt lat="45.0635" lon="5.5852">
        <ele>1574.4</ele>
        <time>2019-08-17T09:06:59Z</time>
      </trkpt>
      <trkpt lat="45.06354" lon="5.58505">
        <ele>1574.6</ele>
        <time>2019-08-17T09:07:03Z</time>
      </trkpt>
      <trkpt lat="45.06356" lon="5.58498">
        <ele>1574.8</ele>
        <time>2019-08-17T09:07:05Z</time>
      </trkpt>
      <trkpt lat="45.06365" lon="5.58467">
        <ele>1574.8</ele>
        <time>2019-08-17T09:07:11Z</time>
      </trkpt>
      <trkpt lat="45.06373" lon="5.58427">
        <ele>1574.2</ele>
        <time>2019-08-17T09:07:17Z</time>
      </trkpt>
      <trkpt lat="45.06373" lon="5.58422">
        <ele>1574</ele>
        <time>2019-08-17T09:07:18Z</time>
      </trkpt>
      <trkpt lat="45.0637" lon="5.58393">
        <ele>1570.2</ele>
        <time>2019-08-17T09:23:59Z</time>
      </trkpt>
      <trkpt lat="45.06364" lon="5.58383">
        <ele>1426.6</ele>
        <time>2019-07-13T10:06:41Z</time>
      </trkpt>
      <trkpt lat="45.06361" lon="5.58373">
        <ele>1426.2</ele>
        <time>2019-07-13T10:06:43Z</time>
      </trkpt>
      <trkpt lat="45.06358" lon="5.58368">
        <ele>1425.8</ele>
        <time>2019-07-13T10:06:44Z</time>
      </trkpt>
      <trkpt lat="45.06355" lon="5.58359">
        <ele>1425</ele>
        <time>2019-07-13T10:06:46Z</time>
      </trkpt>
      <trkpt lat="45.0635" lon="5.58343">
        <ele>1423.6</ele>
        <time>2019-07-13T10:06:49Z</time>
      </trkpt>
      <trkpt lat="45.06348" lon="5.58316">
        <ele>1422.4</ele>
        <time>2019-07-13T10:06:54Z</time>
      </trkpt>
      <trkpt lat="45.06345" lon="5.58293">
        <ele>1421.2</ele>
        <time>2019-07-13T10:06:58Z</time>
      </trkpt>
      <trkpt lat="45.06342" lon="5.58278">
        <ele>1420</ele>
        <time>2019-07-13T10:07:01Z</time>
      </trkpt>
      <trkpt lat="45.06341" lon="5.58257">
        <ele>1419.4</ele>
        <time>2019-07-13T10:07:04Z</time>
      </trkpt>
      <trkpt lat="45.06337" lon="5.5823">
        <ele>1418.2</ele>
        <time>2019-07-13T10:07:09Z</time>
      </trkpt>
      <trkpt lat="45.06338" lon="5.58221">
        <ele>1418.2</ele>
        <time>2019-07-13T10:07:11Z</time>
      </trkpt>
      <trkpt lat="45.0634" lon="5.58206">
        <ele>1418.4</ele>
        <time>2019-07-13T10:07:15Z</time>
      </trkpt>
      <trkpt lat="45.06339" lon="5.58197">
        <ele>1419</ele>
        <time>2019-07-13T10:07:19Z</time>
      </trkpt>
      <trkpt lat="45.06339" lon="5.58187">
        <ele>1419.4</ele>
        <time>2019-07-13T10:07:22Z</time>
      </trkpt>
      <trkpt lat="45.06336" lon="5.58176">
        <ele>1420</ele>
        <time>2019-07-13T10:07:25Z</time>
      </trkpt>
      <trkpt lat="45.06337" lon="5.58167">
        <ele>1421.4</ele>
        <time>2019-07-13T10:07:29Z</time>
      </trkpt>
      <trkpt lat="45.06337" lon="5.5815">
        <ele>1424.6</ele>
        <time>2019-07-13T10:13:09Z</time>
      </trkpt>
      <trkpt lat="45.06333" lon="5.58133">
        <ele>1425.2</ele>
        <time>2019-07-13T10:13:16Z</time>
      </trkpt>
      <trkpt lat="45.06332" lon="5.58129">
        <ele>1426.6</ele>
        <time>2019-07-13T10:13:26Z</time>
      </trkpt>
      <trkpt lat="45.06331" lon="5.58119">
        <ele>1426.6</ele>
        <time>2019-07-13T10:13:29Z</time>
      </trkpt>
      <trkpt lat="45.06329" lon="5.58107">
        <ele>1426.6</ele>
        <time>2019-07-13T10:13:32Z</time>
      </trkpt>
      <trkpt lat="45.06329" lon="5.58093">
        <ele>1426.8</ele>
        <time>2019-07-13T10:13:35Z</time>
      </trkpt>
      <trkpt lat="45.06326" lon="5.58074">
        <ele>1428.2</ele>
        <time>2019-07-13T10:13:42Z</time>
      </trkpt>
      <trkpt lat="45.06325" lon="5.58068">
        <ele>1428.6</ele>
        <time>2019-07-13T10:13:44Z</time>
      </trkpt>
      <trkpt lat="45.06326" lon="5.58058">
        <ele>1429</ele>
        <time>2019-07-13T10:13:47Z</time>
      </trkpt>
      <trkpt lat="45.06325" lon="5.5805">
        <ele>1429.6</ele>
        <time>2019-07-13T10:13:50Z</time>
      </trkpt>
      <trkpt lat="45.0632" lon="5.58038">
        <ele>1430.8</ele>
        <time>2019-07-13T10:13:56Z</time>
      </trkpt>
      <trkpt lat="45.06321" lon="5.58027">
        <ele>1431.4</ele>
        <time>2019-07-13T10:13:59Z</time>
      </trkpt>
      <trkpt lat="45.06325" lon="5.58017">
        <ele>1432.4</ele>
        <time>2019-07-13T10:14:03Z</time>
      </trkpt>
      <trkpt lat="45.06324" lon="5.58011">
        <ele>1433</ele>
        <time>2019-07-13T10:14:05Z</time>
      </trkpt>
      <trkpt lat="45.06325" lon="5.57999">
        <ele>1434.2</ele>
        <time>2019-07-13T10:14:10Z</time>
      </trkpt>
      <trkpt lat="45.06325" lon="5.5799">
        <ele>1435</ele>
        <time>2019-07-13T10:14:14Z</time>
      </trkpt>
      <trkpt lat="45.06326" lon="5.5798">
        <ele>1435.6</ele>
        <time>2019-07-13T10:14:17Z</time>
      </trkpt>
      <trkpt lat="45.06325" lon="5.57972">
        <ele>1436</ele>
        <time>2019-07-13T10:14:20Z</time>
      </trkpt>
      <trkpt lat="45.06322" lon="5.57964">
        <ele>1436.2</ele>
        <time>2019-07-13T10:14:23Z</time>
      </trkpt>
      <trkpt lat="45.06324" lon="5.57942">
        <ele>1436.8</ele>
        <time>2019-07-13T10:14:29Z</time>
      </trkpt>
      <trkpt lat="45.06323" lon="5.57932">
        <ele>1437</ele>
        <time>2019-07-13T10:14:32Z</time>
      </trkpt>
      <trkpt lat="45.06326" lon="5.57924">
        <ele>1437.4</ele>
        <time>2019-07-13T10:14:35Z</time>
      </trkpt>
      <trkpt lat="45.06325" lon="5.5791">
        <ele>1438</ele>
        <time>2019-07-13T10:14:41Z</time>
      </trkpt>
      <trkpt lat="45.06328" lon="5.57892">
        <ele>1438.2</ele>
        <time>2019-07-13T10:14:46Z</time>
      </trkpt>
      <trkpt lat="45.06333" lon="5.57876">
        <ele>1438.4</ele>
        <time>2019-07-13T10:14:51Z</time>
      </trkpt>
      <trkpt lat="45.06334" lon="5.57863">
        <ele>1439.8</ele>
        <time>2019-07-13T10:15:07Z</time>
      </trkpt>
      <trkpt lat="45.06334" lon="5.57851">
        <ele>1439.6</ele>
        <time>2019-07-13T10:15:11Z</time>
      </trkpt>
      <trkpt lat="45.06336" lon="5.57845">
        <ele>1439.2</ele>
        <time>2019-07-13T10:15:14Z</time>
      </trkpt>
      <trkpt lat="45.06342" lon="5.57839">
        <ele>1439</ele>
        <time>2019-07-13T10:15:17Z</time>
      </trkpt>
      <trkpt lat="45.06347" lon="5.57835">
        <ele>1439</ele>
        <time>2019-07-13T10:15:19Z</time>
      </trkpt>
      <trkpt lat="45.06352" lon="5.57829">
        <ele>1439</ele>
        <time>2019-07-13T10:15:21Z</time>
      </trkpt>
      <trkpt lat="45.06354" lon="5.57821">
        <ele>1438.6</ele>
        <time>2019-07-13T10:15:23Z</time>
      </trkpt>
      <trkpt lat="45.06354" lon="5.57813">
        <ele>1438.4</ele>
        <time>2019-07-13T10:15:25Z</time>
      </trkpt>
      <trkpt lat="45.06355" lon="5.57805">
        <ele>1437.8</ele>
        <time>2019-07-13T10:15:28Z</time>
      </trkpt>
      <trkpt lat="45.06354" lon="5.57788">
        <ele>1436.8</ele>
        <time>2019-07-13T10:15:33Z</time>
      </trkpt>
      <trkpt lat="45.06356" lon="5.57779">
        <ele>1436.4</ele>
        <time>2019-07-13T10:15:36Z</time>
      </trkpt>
      <trkpt lat="45.06355" lon="5.57774">
        <ele>1436.2</ele>
        <time>2019-07-13T10:15:38Z</time>
      </trkpt>
      <trkpt lat="45.0635" lon="5.57759">
        <ele>1435</ele>
        <time>2019-07-13T10:15:46Z</time>
      </trkpt>
      <trkpt lat="45.0635" lon="5.57747">
        <ele>1433.8</ele>
        <time>2019-07-13T10:15:51Z</time>
      </trkpt>
      <trkpt lat="45.06353" lon="5.57736">
        <ele>1433.2</ele>
        <time>2019-07-13T10:15:54Z</time>
      </trkpt>
      <trkpt lat="45.06356" lon="5.57723">
        <ele>1432</ele>
        <time>2019-07-13T10:15:59Z</time>
      </trkpt>
      <trkpt lat="45.06357" lon="5.57715">
        <ele>1429.6</ele>
        <time>2019-07-13T10:16:09Z</time>
      </trkpt>
      <trkpt lat="45.06365" lon="5.57702">
        <ele>1428.6</ele>
        <time>2019-07-13T10:16:13Z</time>
      </trkpt>
      <trkpt lat="45.06374" lon="5.57683">
        <ele>1427.6</ele>
        <time>2019-07-13T10:16:16Z</time>
      </trkpt>
      <trkpt lat="45.06379" lon="5.5767">
        <ele>1427</ele>
        <time>2019-07-13T10:16:18Z</time>
      </trkpt>
      <trkpt lat="45.0638" lon="5.57664">
        <ele>1426.6</ele>
        <time>2019-07-13T10:16:19Z</time>
      </trkpt>
      <trkpt lat="45.06384" lon="5.57655">
        <ele>1426</ele>
        <time>2019-07-13T10:16:21Z</time>
      </trkpt>
      <trkpt lat="45.06385" lon="5.5765">
        <ele>1425.8</ele>
        <time>2019-07-13T10:16:22Z</time>
      </trkpt>
      <trkpt lat="45.06384" lon="5.57641">
        <ele>1424</ele>
        <time>2019-07-13T10:16:27Z</time>
      </trkpt>
      <trkpt lat="45.06377" lon="5.57645">
        <ele>1417.4</ele>
        <time>2019-07-13T10:16:42Z</time>
      </trkpt>
      <trkpt lat="45.0637" lon="5.5765">
        <ele>1415</ele>
        <time>2019-07-13T10:16:46Z</time>
      </trkpt>
      <trkpt lat="45.06359" lon="5.5766">
        <ele>1411.6</ele>
        <time>2019-07-13T10:16:52Z</time>
      </trkpt>
      <trkpt lat="45.0635" lon="5.57666">
        <ele>1409.6</ele>
        <time>2019-07-13T10:16:56Z</time>
      </trkpt>
      <trkpt lat="45.06357" lon="5.5767">
        <ele>1587.4</ele>
        <time>2019-08-17T09:29:42Z</time>
      </trkpt>
      <trkpt lat="45.06353" lon="5.57671">
        <ele>1585.8</ele>
        <time>2019-08-17T09:29:44Z</time>
      </trkpt>
      <trkpt lat="45.06346" lon="5.57674">
        <ele>1582.4</ele>
        <time>2019-08-17T09:29:49Z</time>
      </trkpt>
      <trkpt lat="45.0634" lon="5.57678">
        <ele>1579.8</ele>
        <time>2019-08-17T09:29:53Z</time>
      </trkpt>
      <trkpt lat="45.06333" lon="5.5768">
        <ele>1577</ele>
        <time>2019-08-17T09:29:58Z</time>
      </trkpt>
      <trkpt lat="45.06323" lon="5.57683">
        <ele>1573.8</ele>
        <time>2019-08-17T09:30:04Z</time>
      </trkpt>
      <trkpt lat="45.06316" lon="5.57688">
        <ele>1571.8</ele>
        <time>2019-08-17T09:30:08Z</time>
      </trkpt>
      <trkpt lat="45.06308" lon="5.57695">
        <ele>1569.4</ele>
        <time>2019-08-17T09:30:13Z</time>
      </trkpt>
      <trkpt lat="45.06298" lon="5.57701">
        <ele>1566</ele>
        <time>2019-08-17T09:30:19Z</time>
      </trkpt>
      <trkpt lat="45.06291" lon="5.57707">
        <ele>1563.2</ele>
        <time>2019-08-17T09:30:23Z</time>
      </trkpt>
      <trkpt lat="45.06277" lon="5.57716">
        <ele>1556.8</ele>
        <time>2019-08-17T09:30:31Z</time>
      </trkpt>
      <trkpt lat="45.06268" lon="5.57725">
        <ele>1552.6</ele>
        <time>2019-08-17T09:30:37Z</time>
      </trkpt>
      <trkpt lat="45.06259" lon="5.57732">
        <ele>1549.6</ele>
        <time>2019-08-17T09:30:44Z</time>
      </trkpt>
      <trkpt lat="45.06245" lon="5.57736">
        <ele>1547</ele>
        <time>2019-08-17T09:30:53Z</time>
      </trkpt>
      <trkpt lat="45.06241" lon="5.57735">
        <ele>1546.4</ele>
        <time>2019-08-17T09:30:56Z</time>
      </trkpt>
      <trkpt lat="45.06233" lon="5.57727">
        <ele>1544.2</ele>
        <time>2019-08-17T09:31:03Z</time>
      </trkpt>
      <trkpt lat="45.06229" lon="5.57717">
        <ele>1543.2</ele>
        <time>2019-08-17T09:31:07Z</time>
      </trkpt>
      <trkpt lat="45.06228" lon="5.57705">
        <ele>1542.4</ele>
        <time>2019-08-17T09:31:10Z</time>
      </trkpt>
      <trkpt lat="45.06229" lon="5.57677">
        <ele>1541.4</ele>
        <time>2019-08-17T09:31:15Z</time>
      </trkpt>
      <trkpt lat="45.06236" lon="5.57632">
        <ele>1540.2</ele>
        <time>2019-08-17T09:31:21Z</time>
      </trkpt>
      <trkpt lat="45.06253" lon="5.57585">
        <ele>1539.8</ele>
        <time>2019-08-17T09:31:26Z</time>
      </trkpt>
      <trkpt lat="45.06265" lon="5.57561">
        <ele>1539.6</ele>
        <time>2019-08-17T09:31:29Z</time>
      </trkpt>
      <trkpt lat="45.06271" lon="5.57545">
        <ele>1539.6</ele>
        <time>2019-08-17T09:31:31Z</time>
      </trkpt>
      <trkpt lat="45.06273" lon="5.57529">
        <ele>1539.6</ele>
        <time>2019-08-17T09:31:33Z</time>
      </trkpt>
      <trkpt lat="45.06273" lon="5.57504">
        <ele>1539.8</ele>
        <time>2019-08-17T09:31:37Z</time>
      </trkpt>
      <trkpt lat="45.06276" lon="5.5748">
        <ele>1540</ele>
        <time>2019-08-17T09:31:41Z</time>
      </trkpt>
      <trkpt lat="45.06274" lon="5.57459">
        <ele>1540.2</ele>
        <time>2019-08-17T09:31:44Z</time>
      </trkpt>
      <trkpt lat="45.06279" lon="5.57436">
        <ele>1540.4</ele>
        <time>2019-08-17T09:31:47Z</time>
      </trkpt>
      <trkpt lat="45.0628" lon="5.57428">
        <ele>1540.4</ele>
        <time>2019-08-17T09:31:48Z</time>
      </trkpt>
      <trkpt lat="45.0628" lon="5.5742">
        <ele>1540.4</ele>
        <time>2019-08-17T09:31:49Z</time>
      </trkpt>
      <trkpt lat="45.06278" lon="5.57395">
        <ele>1541</ele>
        <time>2019-08-17T09:31:53Z</time>
      </trkpt>
      <trkpt lat="45.06279" lon="5.57375">
        <ele>1541.4</ele>
        <time>2019-08-17T09:31:56Z</time>
      </trkpt>
      <trkpt lat="45.06277" lon="5.57356">
        <ele>1541.8</ele>
        <time>2019-08-17T09:32:00Z</time>
      </trkpt>
      <trkpt lat="45.06279" lon="5.57328">
        <ele>1541.8</ele>
        <time>2019-08-17T09:32:06Z</time>
      </trkpt>
      <trkpt lat="45.06279" lon="5.57318">
        <ele>1541.6</ele>
        <time>2019-08-17T09:32:08Z</time>
      </trkpt>
      <trkpt lat="45.0628" lon="5.57304">
        <ele>1541.6</ele>
        <time>2019-08-17T09:32:11Z</time>
      </trkpt>
      <trkpt lat="45.06281" lon="5.57293">
        <ele>1541.6</ele>
        <time>2019-08-17T09:32:14Z</time>
      </trkpt>
      <trkpt lat="45.06283" lon="5.57283">
        <ele>1541.4</ele>
        <time>2019-08-17T09:32:17Z</time>
      </trkpt>
      <trkpt lat="45.06289" lon="5.57269">
        <ele>1541</ele>
        <time>2019-08-17T09:32:21Z</time>
      </trkpt>
      <trkpt lat="45.06295" lon="5.57267">
        <ele>1540.6</ele>
        <time>2019-08-17T09:32:25Z</time>
      </trkpt>
      <trkpt lat="45.06299" lon="5.57272">
        <ele>1540.4</ele>
        <time>2019-08-17T09:32:28Z</time>
      </trkpt>
      <trkpt lat="45.06309" lon="5.57286">
        <ele>1539</ele>
        <time>2019-08-17T09:32:37Z</time>
      </trkpt>
      <trkpt lat="45.06316" lon="5.57299">
        <ele>1535.4</ele>
        <time>2019-08-17T09:32:46Z</time>
      </trkpt>
      <trkpt lat="45.06324" lon="5.57315">
        <ele>1528.6</ele>
        <time>2019-08-17T09:32:57Z</time>
      </trkpt>
      <trkpt lat="45.06331" lon="5.57325">
        <ele>1523.2</ele>
        <time>2019-08-17T09:33:05Z</time>
      </trkpt>
      <trkpt lat="45.06337" lon="5.57338">
        <ele>1517.6</ele>
        <time>2019-08-17T09:33:15Z</time>
      </trkpt>
      <trkpt lat="45.06342" lon="5.57349">
        <ele>1513.2</ele>
        <time>2019-08-17T09:33:24Z</time>
      </trkpt>
      <trkpt lat="45.06346" lon="5.57357">
        <ele>1508.8</ele>
        <time>2019-08-17T09:33:30Z</time>
      </trkpt>
      <trkpt lat="45.06348" lon="5.57365">
        <ele>1505.2</ele>
        <time>2019-08-17T09:33:36Z</time>
      </trkpt>
      <trkpt lat="45.06355" lon="5.57386">
        <ele>1494.4</ele>
        <time>2019-08-17T09:35:27Z</time>
      </trkpt>
      <trkpt lat="45.06358" lon="5.57387">
        <ele>1493.4</ele>
        <time>2019-08-17T09:35:31Z</time>
      </trkpt>
      <trkpt lat="45.06354" lon="5.57397">
        <ele>1489.2</ele>
        <time>2019-08-17T09:36:20Z</time>
      </trkpt>
      <trkpt lat="45.06354" lon="5.57404">
        <ele>1488</ele>
        <time>2019-08-17T09:36:24Z</time>
      </trkpt>
      <trkpt lat="45.06355" lon="5.57413">
        <ele>1486.8</ele>
        <time>2019-08-17T09:36:30Z</time>
      </trkpt>
      <trkpt lat="45.06355" lon="5.57429">
        <ele>1485</ele>
        <time>2019-08-17T09:36:36Z</time>
      </trkpt>
      <trkpt lat="45.06356" lon="5.57434">
        <ele>1484.2</ele>
        <time>2019-08-17T09:36:38Z</time>
      </trkpt>
      <trkpt lat="45.06363" lon="5.57454">
        <ele>1482.8</ele>
        <time>2019-08-17T09:36:42Z</time>
      </trkpt>
      <trkpt lat="45.06369" lon="5.57479">
        <ele>1481.2</ele>
        <time>2019-08-17T09:36:46Z</time>
      </trkpt>
      <trkpt lat="45.0637" lon="5.57483">
        <ele>1480.8</ele>
        <time>2019-08-17T09:36:47Z</time>
      </trkpt>
      <trkpt lat="45.06371" lon="5.57508">
        <ele>1479.6</ele>
        <time>2019-08-17T09:36:51Z</time>
      </trkpt>
      <trkpt lat="45.06375" lon="5.57529">
        <ele>1476.8</ele>
        <time>2019-08-17T09:36:57Z</time>
      </trkpt>
      <trkpt lat="45.06374" lon="5.57518">
        <ele>1467.6</ele>
        <time>2019-08-17T09:37:19Z</time>
      </trkpt>
      <trkpt lat="45.06373" lon="5.57506">
        <ele>1466</ele>
        <time>2019-08-17T09:37:23Z</time>
      </trkpt>
      <trkpt lat="45.0637" lon="5.57486">
        <ele>1464</ele>
        <time>2019-08-17T09:37:31Z</time>
      </trkpt>
      <trkpt lat="45.06369" lon="5.57479">
        <ele>1463.6</ele>
        <time>2019-08-17T09:37:34Z</time>
      </trkpt>
      <trkpt lat="45.06364" lon="5.57468">
        <ele>1462.8</ele>
        <time>2019-08-17T09:37:39Z</time>
      </trkpt>
      <trkpt lat="45.06361" lon="5.57458">
        <ele>1460.8</ele>
        <time>2019-08-17T09:37:44Z</time>
      </trkpt>
      <trkpt lat="45.06358" lon="5.57451">
        <ele>1459.8</ele>
        <time>2019-08-17T09:37:48Z</time>
      </trkpt>
      <trkpt lat="45.06356" lon="5.57442">
        <ele>1459</ele>
        <time>2019-08-17T09:37:52Z</time>
      </trkpt>
      <trkpt lat="45.06356" lon="5.57434">
        <ele>1457.8</ele>
        <time>2019-08-17T09:37:55Z</time>
      </trkpt>
      <trkpt lat="45.06355" lon="5.57424">
        <ele>1456.6</ele>
        <time>2019-08-17T09:37:59Z</time>
      </trkpt>
      <trkpt lat="45.06354" lon="5.5742">
        <ele>1456.2</ele>
        <time>2019-08-17T09:38:01Z</time>
      </trkpt>
      <trkpt lat="45.06353" lon="5.57405">
        <ele>1455.4</ele>
        <time>2019-08-17T09:38:06Z</time>
      </trkpt>
      <trkpt lat="45.06359" lon="5.574">
        <ele>1455</ele>
        <time>2019-08-17T09:38:13Z</time>
      </trkpt>
      <trkpt lat="45.06371" lon="5.57388">
        <ele>1454.8</ele>
        <time>2019-08-17T09:38:17Z</time>
      </trkpt>
      <trkpt lat="45.06378" lon="5.57383">
        <ele>1454.8</ele>
        <time>2019-08-17T09:38:19Z</time>
      </trkpt>
      <trkpt lat="45.06384" lon="5.57383">
        <ele>1454.6</ele>
        <time>2019-08-17T09:38:21Z</time>
      </trkpt>
      <trkpt lat="45.06391" lon="5.57388">
        <ele>1454.8</ele>
        <time>2019-08-17T09:38:23Z</time>
      </trkpt>
      <trkpt lat="45.06398" lon="5.57391">
        <ele>1454.8</ele>
        <time>2019-08-17T09:38:25Z</time>
      </trkpt>
      <trkpt lat="45.06406" lon="5.57392">
        <ele>1455</ele>
        <time>2019-08-17T09:38:27Z</time>
      </trkpt>
      <trkpt lat="45.06412" lon="5.57388">
        <ele>1455</ele>
        <time>2019-08-17T09:38:29Z</time>
      </trkpt>
      <trkpt lat="45.06419" lon="5.5738">
        <ele>1455</ele>
        <time>2019-08-17T09:38:31Z</time>
      </trkpt>
      <trkpt lat="45.06422" lon="5.57372">
        <ele>1455.2</ele>
        <time>2019-08-17T09:38:33Z</time>
      </trkpt>
      <trkpt lat="45.0643" lon="5.57371">
        <ele>1455.6</ele>
        <time>2019-08-17T09:38:37Z</time>
      </trkpt>
      <trkpt lat="45.06437" lon="5.57371">
        <ele>1455.8</ele>
        <time>2019-08-17T09:38:39Z</time>
      </trkpt>
      <trkpt lat="45.06446" lon="5.57368">
        <ele>1455.8</ele>
        <time>2019-08-17T09:38:41Z</time>
      </trkpt>
      <trkpt lat="45.06458" lon="5.57358">
        <ele>1455.8</ele>
        <time>2019-08-17T09:38:44Z</time>
      </trkpt>
      <trkpt lat="45.06469" lon="5.57353">
        <ele>1455.8</ele>
        <time>2019-08-17T09:38:47Z</time>
      </trkpt>
      <trkpt lat="45.06474" lon="5.57348">
        <ele>1455.8</ele>
        <time>2019-08-17T09:38:49Z</time>
      </trkpt>
      <trkpt lat="45.0648" lon="5.57344">
        <ele>1455.8</ele>
        <time>2019-08-17T09:38:51Z</time>
      </trkpt>
      <trkpt lat="45.06487" lon="5.57343">
        <ele>1455.8</ele>
        <time>2019-08-17T09:38:54Z</time>
      </trkpt>
      <trkpt lat="45.06493" lon="5.57345">
        <ele>1455.8</ele>
        <time>2019-08-17T09:38:57Z</time>
      </trkpt>
      <trkpt lat="45.06503" lon="5.57362">
        <ele>1455.8</ele>
        <time>2019-08-17T09:39:01Z</time>
      </trkpt>
      <trkpt lat="45.06509" lon="5.57371">
        <ele>1455.8</ele>
        <time>2019-08-17T09:39:03Z</time>
      </trkpt>
      <trkpt lat="45.06514" lon="5.57379">
        <ele>1455.6</ele>
        <time>2019-08-17T09:39:05Z</time>
      </trkpt>
      <trkpt lat="45.06521" lon="5.57384">
        <ele>1454.8</ele>
        <time>2019-08-17T09:39:10Z</time>
      </trkpt>
      <trkpt lat="45.06528" lon="5.57375">
        <ele>1452.2</ele>
        <time>2019-08-17T09:39:46Z</time>
      </trkpt>
      <trkpt lat="45.0654" lon="5.57364">
        <ele>1451.2</ele>
        <time>2019-08-17T09:39:53Z</time>
      </trkpt>
      <trkpt lat="45.06544" lon="5.57365">
        <ele>1450.6</ele>
        <time>2019-08-17T09:39:57Z</time>
      </trkpt>
      <trkpt lat="45.06549" lon="5.57359">
        <ele>1450</ele>
        <time>2019-08-17T09:40:00Z</time>
      </trkpt>
      <trkpt lat="45.06551" lon="5.57354">
        <ele>1449.8</ele>
        <time>2019-08-17T09:40:02Z</time>
      </trkpt>
      <trkpt lat="45.06554" lon="5.57344">
        <ele>1449.4</ele>
        <time>2019-08-17T09:40:05Z</time>
      </trkpt>
      <trkpt lat="45.06567" lon="5.57321">
        <ele>1448.6</ele>
        <time>2019-08-17T09:40:11Z</time>
      </trkpt>
      <trkpt lat="45.06572" lon="5.57317">
        <ele>1448.2</ele>
        <time>2019-08-17T09:40:13Z</time>
      </trkpt>
      <trkpt lat="45.06576" lon="5.5731">
        <ele>1447.8</ele>
        <time>2019-08-17T09:40:15Z</time>
      </trkpt>
      <trkpt lat="45.06581" lon="5.573">
        <ele>1447.6</ele>
        <time>2019-08-17T09:40:17Z</time>
      </trkpt>
      <trkpt lat="45.06595" lon="5.57278">
        <ele>1447</ele>
        <time>2019-08-17T09:40:22Z</time>
      </trkpt>
      <trkpt lat="45.06602" lon="5.57272">
        <ele>1446.4</ele>
        <time>2019-08-17T09:40:26Z</time>
      </trkpt>
      <trkpt lat="45.06605" lon="5.57267">
        <ele>1446.2</ele>
        <time>2019-08-17T09:40:28Z</time>
      </trkpt>
      <trkpt lat="45.06614" lon="5.57266">
        <ele>1445.4</ele>
        <time>2019-08-17T09:40:33Z</time>
      </trkpt>
      <trkpt lat="45.06622" lon="5.57243">
        <ele>1444.4</ele>
        <time>2019-08-17T09:40:39Z</time>
      </trkpt>
      <trkpt lat="45.06624" lon="5.57238">
        <ele>1444.2</ele>
        <time>2019-08-17T09:40:40Z</time>
      </trkpt>
      <trkpt lat="45.06624" lon="5.57226">
        <ele>1443.8</ele>
        <time>2019-08-17T09:40:42Z</time>
      </trkpt>
      <trkpt lat="45.06625" lon="5.5722">
        <ele>1443.2</ele>
        <time>2019-08-17T09:40:46Z</time>
      </trkpt>
      <trkpt lat="45.06627" lon="5.57212">
        <ele>1441</ele>
        <time>2019-08-17T09:41:35Z</time>
      </trkpt>
      <trkpt lat="45.06628" lon="5.57193">
        <ele>1440.2</ele>
        <time>2019-08-17T09:41:40Z</time>
      </trkpt>
      <trkpt lat="45.0663" lon="5.57185">
        <ele>1439.6</ele>
        <time>2019-08-17T09:41:42Z</time>
      </trkpt>
      <trkpt lat="45.06636" lon="5.57182">
        <ele>1438.8</ele>
        <time>2019-08-17T09:41:45Z</time>
      </trkpt>
      <trkpt lat="45.0664" lon="5.57178">
        <ele>1438.2</ele>
        <time>2019-08-17T09:41:47Z</time>
      </trkpt>
      <trkpt lat="45.06646" lon="5.57179">
        <ele>1437.6</ele>
        <time>2019-08-17T09:41:49Z</time>
      </trkpt>
      <trkpt lat="45.06653" lon="5.57182">
        <ele>1436.8</ele>
        <time>2019-08-17T09:41:52Z</time>
      </trkpt>
      <trkpt lat="45.06656" lon="5.5718">
        <ele>1436.2</ele>
        <time>2019-08-17T09:41:54Z</time>
      </trkpt>
      <trkpt lat="45.06667" lon="5.57178">
        <ele>1435.4</ele>
        <time>2019-08-17T09:41:57Z</time>
      </trkpt>
      <trkpt lat="45.06673" lon="5.57175">
        <ele>1434.6</ele>
        <time>2019-08-17T09:41:59Z</time>
      </trkpt>
      <trkpt lat="45.06681" lon="5.5717">
        <ele>1433.8</ele>
        <time>2019-08-17T09:42:02Z</time>
      </trkpt>
      <trkpt lat="45.06694" lon="5.57159">
        <ele>1432.4</ele>
        <time>2019-08-17T09:42:07Z</time>
      </trkpt>
      <trkpt lat="45.06695" lon="5.57148">
        <ele>1431.4</ele>
        <time>2019-08-17T09:42:10Z</time>
      </trkpt>
      <trkpt lat="45.06699" lon="5.57142">
        <ele>1430.8</ele>
        <time>2019-08-17T09:42:12Z</time>
      </trkpt>
      <trkpt lat="45.06705" lon="5.57141">
        <ele>1430.2</ele>
        <time>2019-08-17T09:42:14Z</time>
      </trkpt>
      <trkpt lat="45.06709" lon="5.57138">
        <ele>1429.4</ele>
        <time>2019-08-17T09:42:16Z</time>
      </trkpt>
      <trkpt lat="45.06711" lon="5.57131">
        <ele>1428.8</ele>
        <time>2019-08-17T09:42:18Z</time>
      </trkpt>
      <trkpt lat="45.06719" lon="5.57127">
        <ele>1427.2</ele>
        <time>2019-08-17T09:42:22Z</time>
      </trkpt>
      <trkpt lat="45.0673" lon="5.5712">
        <ele>1425.6</ele>
        <time>2019-08-17T09:42:26Z</time>
      </trkpt>
      <trkpt lat="45.06737" lon="5.57115">
        <ele>1422.2</ele>
        <time>2019-08-17T09:42:44Z</time>
      </trkpt>
      <trkpt lat="45.06743" lon="5.57106">
        <ele>1421.4</ele>
        <time>2019-08-17T09:42:50Z</time>
      </trkpt>
      <trkpt lat="45.06749" lon="5.57098">
        <ele>1420</ele>
        <time>2019-08-17T09:42:54Z</time>
      </trkpt>
      <trkpt lat="45.06762" lon="5.57106">
        <ele>1418.4</ele>
        <time>2019-08-17T09:42:59Z</time>
      </trkpt>
      <trkpt lat="45.06769" lon="5.57107">
        <ele>1417.8</ele>
        <time>2019-08-17T09:43:01Z</time>
      </trkpt>
      <trkpt lat="45.06777" lon="5.57106">
        <ele>1417.2</ele>
        <time>2019-08-17T09:43:03Z</time>
      </trkpt>
      <trkpt lat="45.06782" lon="5.57111">
        <ele>1416.6</ele>
        <time>2019-08-17T09:43:05Z</time>
      </trkpt>
      <trkpt lat="45.06791" lon="5.57128">
        <ele>1414.8</ele>
        <time>2019-08-17T09:43:10Z</time>
      </trkpt>
      <trkpt lat="45.06805" lon="5.57127">
        <ele>1412.4</ele>
        <time>2019-08-17T09:43:18Z</time>
      </trkpt>
      <trkpt lat="45.0681" lon="5.57126">
        <ele>1411.4</ele>
        <time>2019-08-17T09:43:21Z</time>
      </trkpt>
      <trkpt lat="45.06814" lon="5.57121">
        <ele>1410.4</ele>
        <time>2019-08-17T09:43:24Z</time>
      </trkpt>
      <trkpt lat="45.06819" lon="5.57116">
        <ele>1408.4</ele>
        <time>2019-08-17T09:43:30Z</time>
      </trkpt>
      <trkpt lat="45.0682" lon="5.57126">
        <ele>1407.2</ele>
        <time>2019-08-17T09:43:34Z</time>
      </trkpt>
      <trkpt lat="45.06821" lon="5.57133">
        <ele>1406.2</ele>
        <time>2019-08-17T09:43:37Z</time>
      </trkpt>
      <trkpt lat="45.06821" lon="5.57144">
        <ele>1404.8</ele>
        <time>2019-08-17T09:43:41Z</time>
      </trkpt>
      <trkpt lat="45.06817" lon="5.57161">
        <ele>1403.6</ele>
        <time>2019-08-17T09:43:46Z</time>
      </trkpt>
      <trkpt lat="45.06817" lon="5.57178">
        <ele>1402.6</ele>
        <time>2019-08-17T09:43:51Z</time>
      </trkpt>
      <trkpt lat="45.0682" lon="5.57185">
        <ele>1401.8</ele>
        <time>2019-08-17T09:43:55Z</time>
      </trkpt>
      <trkpt lat="45.06826" lon="5.5718">
        <ele>1400.8</ele>
        <time>2019-08-17T09:44:00Z</time>
      </trkpt>
      <trkpt lat="45.06842" lon="5.5717">
        <ele>1399.8</ele>
        <time>2019-08-17T09:44:05Z</time>
      </trkpt>
      <trkpt lat="45.06847" lon="5.57166">
        <ele>1399.6</ele>
        <time>2019-08-17T09:44:07Z</time>
      </trkpt>
      <trkpt lat="45.06855" lon="5.57152">
        <ele>1399.4</ele>
        <time>2019-08-17T09:44:13Z</time>
      </trkpt>
      <trkpt lat="45.06866" lon="5.57139">
        <ele>1398.8</ele>
        <time>2019-08-17T09:44:17Z</time>
      </trkpt>
      <trkpt lat="45.06878" lon="5.5712">
        <ele>1398.2</ele>
        <time>2019-08-17T09:44:20Z</time>
      </trkpt>
      <trkpt lat="45.06893" lon="5.57088">
        <ele>1397.4</ele>
        <time>2019-08-17T09:44:25Z</time>
      </trkpt>
      <trkpt lat="45.06897" lon="5.57074">
        <ele>1397.2</ele>
        <time>2019-08-17T09:44:27Z</time>
      </trkpt>
      <trkpt lat="45.06898" lon="5.57066">
        <ele>1397</ele>
        <time>2019-08-17T09:44:28Z</time>
      </trkpt>
      <trkpt lat="45.06902" lon="5.57048">
        <ele>1396.4</ele>
        <time>2019-08-17T09:44:31Z</time>
      </trkpt>
      <trkpt lat="45.06904" lon="5.57044">
        <ele>1396.2</ele>
        <time>2019-08-17T09:44:32Z</time>
      </trkpt>
      <trkpt lat="45.06908" lon="5.57037">
        <ele>1395.8</ele>
        <time>2019-08-17T09:44:34Z</time>
      </trkpt>
      <trkpt lat="45.06919" lon="5.57013">
        <ele>1395</ele>
        <time>2019-08-17T09:44:39Z</time>
      </trkpt>
      <trkpt lat="45.0692" lon="5.57003">
        <ele>1394.6</ele>
        <time>2019-08-17T09:44:41Z</time>
      </trkpt>
      <trkpt lat="45.0692" lon="5.56993">
        <ele>1393.6</ele>
        <time>2019-08-17T09:44:43Z</time>
      </trkpt>
      <trkpt lat="45.06916" lon="5.56982">
        <ele>1392.6</ele>
        <time>2019-08-17T09:44:45Z</time>
      </trkpt>
      <trkpt lat="45.06912" lon="5.56974">
        <ele>1391.6</ele>
        <time>2019-08-17T09:44:47Z</time>
      </trkpt>
      <trkpt lat="45.06905" lon="5.56969">
        <ele>1391</ele>
        <time>2019-08-17T09:44:49Z</time>
      </trkpt>
      <trkpt lat="45.06882" lon="5.56958">
        <ele>1389.6</ele>
        <time>2019-08-17T09:44:54Z</time>
      </trkpt>
      <trkpt lat="45.06855" lon="5.5694">
        <ele>1387.2</ele>
        <time>2019-08-17T09:45:00Z</time>
      </trkpt>
      <trkpt lat="45.06841" lon="5.5693">
        <ele>1385.2</ele>
        <time>2019-08-17T09:45:03Z</time>
      </trkpt>
      <trkpt lat="45.06825" lon="5.56913">
        <ele>1382</ele>
        <time>2019-08-17T09:45:07Z</time>
      </trkpt>
      <trkpt lat="45.06806" lon="5.56888">
        <ele>1376.8</ele>
        <time>2019-08-17T09:45:12Z</time>
      </trkpt>
      <trkpt lat="45.06799" lon="5.56877">
        <ele>1374.8</ele>
        <time>2019-08-17T09:45:14Z</time>
      </trkpt>
      <trkpt lat="45.06793" lon="5.56865">
        <ele>1372.6</ele>
        <time>2019-08-17T09:45:16Z</time>
      </trkpt>
      <trkpt lat="45.06791" lon="5.56858">
        <ele>1371.6</ele>
        <time>2019-08-17T09:45:17Z</time>
      </trkpt>
      <trkpt lat="45.0679" lon="5.56851">
        <ele>1370.4</ele>
        <time>2019-08-17T09:45:18Z</time>
      </trkpt>
      <trkpt lat="45.06789" lon="5.56838">
        <ele>1368.6</ele>
        <time>2019-08-17T09:45:20Z</time>
      </trkpt>
      <trkpt lat="45.06794" lon="5.56811">
        <ele>1365</ele>
        <time>2019-08-17T09:45:25Z</time>
      </trkpt>
      <trkpt lat="45.06795" lon="5.56806">
        <ele>1364.4</ele>
        <time>2019-08-17T09:45:26Z</time>
      </trkpt>
      <trkpt lat="45.06799" lon="5.56786">
        <ele>1362</ele>
        <time>2019-08-17T09:45:30Z</time>
      </trkpt>
      <trkpt lat="45.06798" lon="5.56775">
        <ele>1361</ele>
        <time>2019-08-17T09:45:32Z</time>
      </trkpt>
      <trkpt lat="45.06792" lon="5.56743">
        <ele>1356.6</ele>
        <time>2019-08-17T09:45:38Z</time>
      </trkpt>
      <trkpt lat="45.06791" lon="5.56737">
        <ele>1355.8</ele>
        <time>2019-08-17T09:45:39Z</time>
      </trkpt>
      <trkpt lat="45.06791" lon="5.56721">
        <ele>1353.2</ele>
        <time>2019-08-17T09:45:42Z</time>
      </trkpt>
      <trkpt lat="45.06789" lon="5.56704">
        <ele>1350.6</ele>
        <time>2019-08-17T09:45:45Z</time>
      </trkpt>
      <trkpt lat="45.06781" lon="5.56694">
        <ele>1347.6</ele>
        <time>2019-08-17T09:45:48Z</time>
      </trkpt>
      <trkpt lat="45.06771" lon="5.56693">
        <ele>1343.6</ele>
        <time>2019-08-17T09:45:53Z</time>
      </trkpt>
      <trkpt lat="45.06765" lon="5.56693">
        <ele>1341.4</ele>
        <time>2019-08-17T09:45:56Z</time>
      </trkpt>
      <trkpt lat="45.06753" lon="5.56692">
        <ele>1336.6</ele>
        <time>2019-08-17T09:46:02Z</time>
      </trkpt>
      <trkpt lat="45.0674" lon="5.56691">
        <ele>1331.4</ele>
        <time>2019-08-17T09:46:09Z</time>
      </trkpt>
      <trkpt lat="45.06736" lon="5.56684">
        <ele>1328</ele>
        <time>2019-08-17T09:46:13Z</time>
      </trkpt>
      <trkpt lat="45.06735" lon="5.56678">
        <ele>1325.2</ele>
        <time>2019-08-17T09:46:16Z</time>
      </trkpt>
      <trkpt lat="45.06734" lon="5.56669">
        <ele>1321.2</ele>
        <time>2019-08-17T09:46:20Z</time>
      </trkpt>
      <trkpt lat="45.0673" lon="5.56662">
        <ele>1317.4</ele>
        <time>2019-08-17T09:46:24Z</time>
      </trkpt>
      <trkpt lat="45.06723" lon="5.56661">
        <ele>1313.6</ele>
        <time>2019-08-17T09:46:29Z</time>
      </trkpt>
      <trkpt lat="45.0671" lon="5.56663">
        <ele>1308.4</ele>
        <time>2019-08-17T09:46:37Z</time>
      </trkpt>
      <trkpt lat="45.06703" lon="5.56662">
        <ele>1305.4</ele>
        <time>2019-08-17T09:46:42Z</time>
      </trkpt>
      <trkpt lat="45.06696" lon="5.56663">
        <ele>1302.8</ele>
        <time>2019-08-17T09:46:47Z</time>
      </trkpt>
      <trkpt lat="45.06681" lon="5.5667">
        <ele>1297.4</ele>
        <time>2019-08-17T09:46:59Z</time>
      </trkpt>
      <trkpt lat="45.06678" lon="5.5667">
        <ele>1296.4</ele>
        <time>2019-08-17T09:47:01Z</time>
      </trkpt>
      <trkpt lat="45.06668" lon="5.56674">
        <ele>1293.6</ele>
        <time>2019-08-17T09:47:09Z</time>
      </trkpt>
      <trkpt lat="45.06651" lon="5.56683">
        <ele>1290.8</ele>
        <time>2019-08-17T09:47:23Z</time>
      </trkpt>
      <trkpt lat="45.06646" lon="5.56684">
        <ele>1289.4</ele>
        <time>2019-08-17T09:47:27Z</time>
      </trkpt>
      <trkpt lat="45.06638" lon="5.56686">
        <ele>1287</ele>
        <time>2019-08-17T09:47:33Z</time>
      </trkpt>
      <trkpt lat="45.06625" lon="5.56688">
        <ele>1284.8</ele>
        <time>2019-08-17T09:47:43Z</time>
      </trkpt>
      <trkpt lat="45.06617" lon="5.56694">
        <ele>1283.6</ele>
        <time>2019-08-17T09:47:50Z</time>
      </trkpt>
      <trkpt lat="45.06612" lon="5.56694">
        <ele>1282.6</ele>
        <time>2019-08-17T09:47:54Z</time>
      </trkpt>
      <trkpt lat="45.06603" lon="5.56695">
        <ele>1280.4</ele>
        <time>2019-08-17T09:48:02Z</time>
      </trkpt>
      <trkpt lat="45.06598" lon="5.5669">
        <ele>1279.2</ele>
        <time>2019-08-17T09:48:07Z</time>
      </trkpt>
      <trkpt lat="45.0659" lon="5.56683">
        <ele>1278.6</ele>
        <time>2019-08-17T09:48:15Z</time>
      </trkpt>
      <trkpt lat="45.06582" lon="5.56673">
        <ele>1278</ele>
        <time>2019-08-17T09:48:23Z</time>
      </trkpt>
      <trkpt lat="45.06571" lon="5.56665">
        <ele>1275.8</ele>
        <time>2019-08-17T09:48:33Z</time>
      </trkpt>
      <trkpt lat="45.06562" lon="5.5666">
        <ele>1275.6</ele>
        <time>2019-08-17T09:48:41Z</time>
      </trkpt>
      <trkpt lat="45.06558" lon="5.56657">
        <ele>1275.8</ele>
        <time>2019-08-17T09:48:45Z</time>
      </trkpt>
      <trkpt lat="45.06552" lon="5.56656">
        <ele>1276.4</ele>
        <time>2019-08-17T09:48:50Z</time>
      </trkpt>
      <trkpt lat="45.06542" lon="5.56651">
        <ele>1279</ele>
        <time>2019-08-17T09:49:00Z</time>
      </trkpt>
      <trkpt lat="45.06534" lon="5.56647">
        <ele>1281.2</ele>
        <time>2019-08-17T09:49:07Z</time>
      </trkpt>
      <trkpt lat="45.0652" lon="5.56643">
        <ele>1284</ele>
        <time>2019-08-17T09:49:18Z</time>
      </trkpt>
      <trkpt lat="45.06506" lon="5.5664">
        <ele>1285.8</ele>
        <time>2019-08-17T09:49:28Z</time>
      </trkpt>
      <trkpt lat="45.06496" lon="5.56637">
        <ele>1288.2</ele>
        <time>2019-08-17T09:49:37Z</time>
      </trkpt>
      <trkpt lat="45.0649" lon="5.56635">
        <ele>1289.2</ele>
        <time>2019-08-17T09:49:41Z</time>
      </trkpt>
      <trkpt lat="45.06481" lon="5.56631">
        <ele>1289.2</ele>
        <time>2019-08-17T09:49:47Z</time>
      </trkpt>
      <trkpt lat="45.06476" lon="5.56628">
        <ele>1289</ele>
        <time>2019-08-17T09:49:50Z</time>
      </trkpt>
      <trkpt lat="45.06467" lon="5.56625">
        <ele>1288.8</ele>
        <time>2019-08-17T09:49:55Z</time>
      </trkpt>
      <trkpt lat="45.06457" lon="5.56626">
        <ele>1288.8</ele>
        <time>2019-08-17T09:50:02Z</time>
      </trkpt>
      <trkpt lat="45.06451" lon="5.5663">
        <ele>1288.2</ele>
        <time>2019-08-17T09:50:08Z</time>
      </trkpt>
      <trkpt lat="45.06426" lon="5.56633">
        <ele>1287.4</ele>
        <time>2019-08-17T09:50:15Z</time>
      </trkpt>
      <trkpt lat="45.06403" lon="5.56637">
        <ele>1286.2</ele>
        <time>2019-08-17T09:50:20Z</time>
      </trkpt>
      <trkpt lat="45.06394" lon="5.56643">
        <ele>1285.8</ele>
        <time>2019-08-17T09:50:22Z</time>
      </trkpt>
      <trkpt lat="45.06361" lon="5.56677">
        <ele>1284.2</ele>
        <time>2019-08-17T09:50:29Z</time>
      </trkpt>
      <trkpt lat="45.06351" lon="5.56685">
        <ele>1283.8</ele>
        <time>2019-08-17T09:50:31Z</time>
      </trkpt>
      <trkpt lat="45.06334" lon="5.56695">
        <ele>1283.6</ele>
        <time>2019-08-17T09:50:34Z</time>
      </trkpt>
      <trkpt lat="45.06329" lon="5.56697">
        <ele>1283.6</ele>
        <time>2019-08-17T09:50:35Z</time>
      </trkpt>
      <trkpt lat="45.06321" lon="5.56698">
        <ele>1283.4</ele>
        <time>2019-08-17T09:50:37Z</time>
      </trkpt>
      <trkpt lat="45.06316" lon="5.56697">
        <ele>1283.4</ele>
        <time>2019-08-17T09:50:38Z</time>
      </trkpt>
      <trkpt lat="45.06308" lon="5.56693">
        <ele>1283.4</ele>
        <time>2019-08-17T09:50:40Z</time>
      </trkpt>
      <trkpt lat="45.06293" lon="5.56682">
        <ele>1283.4</ele>
        <time>2019-08-17T09:50:44Z</time>
      </trkpt>
      <trkpt lat="45.0628" lon="5.56677">
        <ele>1283.6</ele>
        <time>2019-08-17T09:50:47Z</time>
      </trkpt>
      <trkpt lat="45.06272" lon="5.56672">
        <ele>1283.8</ele>
        <time>2019-08-17T09:50:50Z</time>
      </trkpt>
      <trkpt lat="45.06267" lon="5.56667">
        <ele>1283.8</ele>
        <time>2019-08-17T09:50:53Z</time>
      </trkpt>
      <trkpt lat="45.0626" lon="5.56664">
        <ele>1284</ele>
        <time>2019-08-17T09:50:56Z</time>
      </trkpt>
      <trkpt lat="45.06248" lon="5.56668">
        <ele>1283.4</ele>
        <time>2019-08-17T09:51:02Z</time>
      </trkpt>
      <trkpt lat="45.06241" lon="5.56673">
        <ele>1282.6</ele>
        <time>2019-08-17T09:51:06Z</time>
      </trkpt>
      <trkpt lat="45.06239" lon="5.56678">
        <ele>1282.4</ele>
        <time>2019-08-17T09:51:08Z</time>
      </trkpt>
      <trkpt lat="45.06236" lon="5.56686">
        <ele>1282.2</ele>
        <time>2019-08-17T09:51:11Z</time>
      </trkpt>
      <trkpt lat="45.06228" lon="5.56707">
        <ele>1281</ele>
        <time>2019-08-17T09:51:18Z</time>
      </trkpt>
      <trkpt lat="45.06224" lon="5.56715">
        <ele>1280.8</ele>
        <time>2019-08-17T09:51:21Z</time>
      </trkpt>
      <trkpt lat="45.06222" lon="5.56721">
        <ele>1280.8</ele>
        <time>2019-08-17T09:51:26Z</time>
      </trkpt>
      <trkpt lat="45.06215" lon="5.56724">
        <ele>1281</ele>
        <time>2019-08-17T09:52:46Z</time>
      </trkpt>
      <trkpt lat="45.06206" lon="5.56732">
        <ele>1280.8</ele>
        <time>2019-08-17T09:52:51Z</time>
      </trkpt>
      <trkpt lat="45.06201" lon="5.56739">
        <ele>1282</ele>
        <time>2019-08-17T09:52:55Z</time>
      </trkpt>
      <trkpt lat="45.0619" lon="5.56744">
        <ele>1282.4</ele>
        <time>2019-08-17T09:53:01Z</time>
      </trkpt>
      <trkpt lat="45.06184" lon="5.56743">
        <ele>1282.2</ele>
        <time>2019-08-17T09:53:04Z</time>
      </trkpt>
      <trkpt lat="45.06176" lon="5.56739">
        <ele>1282.6</ele>
        <time>2019-08-17T09:53:07Z</time>
      </trkpt>
      <trkpt lat="45.06171" lon="5.56738">
        <ele>1282.8</ele>
        <time>2019-08-17T09:53:11Z</time>
      </trkpt>
      <trkpt lat="45.06166" lon="5.56741">
        <ele>1282.8</ele>
        <time>2019-08-17T09:53:19Z</time>
      </trkpt>
      <trkpt lat="45.06158" lon="5.56743">
        <ele>1282.4</ele>
        <time>2019-08-17T09:53:24Z</time>
      </trkpt>
      <trkpt lat="45.0616" lon="5.56739">
        <ele>1283.2</ele>
        <time>2019-08-17T09:53:29Z</time>
      </trkpt>
      <trkpt lat="45.06175" lon="5.5673">
        <ele>1283.8</ele>
        <time>2019-08-17T09:53:34Z</time>
      </trkpt>
      <trkpt lat="45.06184" lon="5.56722">
        <ele>1284.4</ele>
        <time>2019-08-17T09:53:36Z</time>
      </trkpt>
      <trkpt lat="45.06187" lon="5.56716">
        <ele>1284.6</ele>
        <time>2019-08-17T09:53:37Z</time>
      </trkpt>
      <trkpt lat="45.06207" lon="5.56678">
        <ele>1286.4</ele>
        <time>2019-08-17T09:53:44Z</time>
      </trkpt>
      <trkpt lat="45.06215" lon="5.56647">
        <ele>1288</ele>
        <time>2019-08-17T09:53:49Z</time>
      </trkpt>
      <trkpt lat="45.06223" lon="5.56625">
        <ele>1289.2</ele>
        <time>2019-08-17T09:53:53Z</time>
      </trkpt>
      <trkpt lat="45.06226" lon="5.56616">
        <ele>1289.8</ele>
        <time>2019-08-17T09:53:55Z</time>
      </trkpt>
      <trkpt lat="45.06232" lon="5.56605">
        <ele>1290.6</ele>
        <time>2019-08-17T09:53:58Z</time>
      </trkpt>
      <trkpt lat="45.0624" lon="5.56588">
        <ele>1292.4</ele>
        <time>2019-08-17T09:54:04Z</time>
      </trkpt>
      <trkpt lat="45.06242" lon="5.56582">
        <ele>1293.2</ele>
        <time>2019-08-17T09:54:06Z</time>
      </trkpt>
      <trkpt lat="45.06248" lon="5.56566">
        <ele>1294.8</ele>
        <time>2019-08-17T09:54:11Z</time>
      </trkpt>
      <trkpt lat="45.06251" lon="5.5655">
        <ele>1296</ele>
        <time>2019-08-17T09:54:15Z</time>
      </trkpt>
      <trkpt lat="45.06252" lon="5.56546">
        <ele>1296.2</ele>
        <time>2019-08-17T09:54:16Z</time>
      </trkpt>
      <trkpt lat="45.06254" lon="5.56529">
        <ele>1297.2</ele>
        <time>2019-08-17T09:54:20Z</time>
      </trkpt>
      <trkpt lat="45.06255" lon="5.56508">
        <ele>1298.2</ele>
        <time>2019-08-17T09:54:24Z</time>
      </trkpt>
      <trkpt lat="45.06251" lon="5.5648">
        <ele>1299.4</ele>
        <time>2019-08-17T09:54:29Z</time>
      </trkpt>
      <trkpt lat="45.0625" lon="5.56464">
        <ele>1300</ele>
        <time>2019-08-17T09:54:32Z</time>
      </trkpt>
      <trkpt lat="45.06249" lon="5.56431">
        <ele>1301</ele>
        <time>2019-08-17T09:54:37Z</time>
      </trkpt>
      <trkpt lat="45.0625" lon="5.56409">
        <ele>1301.4</ele>
        <time>2019-08-17T09:54:40Z</time>
      </trkpt>
      <trkpt lat="45.06255" lon="5.56378">
        <ele>1302.2</ele>
        <time>2019-08-17T09:54:44Z</time>
      </trkpt>
      <trkpt lat="45.06264" lon="5.5634">
        <ele>1303.4</ele>
        <time>2019-08-17T09:54:50Z</time>
      </trkpt>
      <trkpt lat="45.06267" lon="5.56327">
        <ele>1303.8</ele>
        <time>2019-08-17T09:54:52Z</time>
      </trkpt>
      <trkpt lat="45.06268" lon="5.56319">
        <ele>1303.8</ele>
        <time>2019-08-17T09:54:53Z</time>
      </trkpt>
      <trkpt lat="45.06271" lon="5.563">
        <ele>1304.2</ele>
        <time>2019-08-17T09:54:55Z</time>
      </trkpt>
      <trkpt lat="45.06273" lon="5.56266">
        <ele>1304.6</ele>
        <time>2019-08-17T09:54:58Z</time>
      </trkpt>
      <trkpt lat="45.06278" lon="5.56248">
        <ele>1305</ele>
        <time>2019-08-17T09:55:00Z</time>
      </trkpt>
      <trkpt lat="45.06286" lon="5.562">
        <ele>1305.6</ele>
        <time>2019-08-17T09:55:05Z</time>
      </trkpt>
      <trkpt lat="45.06297" lon="5.56162">
        <ele>1306.2</ele>
        <time>2019-08-17T09:55:09Z</time>
      </trkpt>
      <trkpt lat="45.063" lon="5.56129">
        <ele>1306.6</ele>
        <time>2019-08-17T09:55:12Z</time>
      </trkpt>
      <trkpt lat="45.06299" lon="5.56118">
        <ele>1306.6</ele>
        <time>2019-08-17T09:55:13Z</time>
      </trkpt>
      <trkpt lat="45.06292" lon="5.56052">
        <ele>1307</ele>
        <time>2019-08-17T09:55:19Z</time>
      </trkpt>
      <trkpt lat="45.06289" lon="5.56037">
        <ele>1307</ele>
        <time>2019-08-17T09:55:21Z</time>
      </trkpt>
      <trkpt lat="45.06279" lon="5.56056">
        <ele>1305.8</ele>
        <time>2019-08-17T10:29:08Z</time>
      </trkpt>
      <trkpt lat="45.0628" lon="5.56067">
        <ele>1305.6</ele>
        <time>2019-08-17T10:29:15Z</time>
      </trkpt>
      <trkpt lat="45.06281" lon="5.56087">
        <ele>1305.4</ele>
        <time>2019-08-17T10:29:28Z</time>
      </trkpt>
      <trkpt lat="45.06279" lon="5.56098">
        <ele>1305.8</ele>
        <time>2019-08-17T10:29:36Z</time>
      </trkpt>
      <trkpt lat="45.06279" lon="5.56102">
        <ele>1306</ele>
        <time>2019-08-17T10:29:40Z</time>
      </trkpt>
      <trkpt lat="45.06278" lon="5.56117">
        <ele>1305.8</ele>
        <time>2019-08-17T10:29:58Z</time>
      </trkpt>
      <trkpt lat="45.0627" lon="5.56126">
        <ele>1286</ele>
        <time>2019-08-17T10:30:41Z</time>
      </trkpt>
      <trkpt lat="45.06268" lon="5.56126">
        <ele>1283.8</ele>
        <time>2019-08-17T10:30:44Z</time>
      </trkpt>
      <trkpt lat="45.06259" lon="5.56122">
        <ele>1276.6</ele>
        <time>2019-08-17T10:30:58Z</time>
      </trkpt>
      <trkpt lat="45.06258" lon="5.56121">
        <ele>1273.4</ele>
        <time>2019-08-17T10:31:02Z</time>
      </trkpt>
      <trkpt lat="45.06249" lon="5.56127">
        <ele>1270</ele>
        <time>2019-08-17T10:31:24Z</time>
      </trkpt>
      <trkpt lat="45.06246" lon="5.56134">
        <ele>1270.8</ele>
        <time>2019-08-17T10:31:31Z</time>
      </trkpt>
      <trkpt lat="45.06241" lon="5.56147">
        <ele>1273.8</ele>
        <time>2019-08-17T10:31:44Z</time>
      </trkpt>
      <trkpt lat="45.06241" lon="5.56149">
        <ele>1274.2</ele>
        <time>2019-08-17T10:31:46Z</time>
      </trkpt>
      <trkpt lat="45.06236" lon="5.56162">
        <ele>1276.8</ele>
        <time>2019-08-17T10:31:55Z</time>
      </trkpt>
      <trkpt lat="45.06235" lon="5.56168">
        <ele>1278</ele>
        <time>2019-08-17T10:31:59Z</time>
      </trkpt>
      <trkpt lat="45.06232" lon="5.56177">
        <ele>1280</ele>
        <time>2019-08-17T10:32:05Z</time>
      </trkpt>
      <trkpt lat="45.06231" lon="5.56182">
        <ele>1281</ele>
        <time>2019-08-17T10:32:08Z</time>
      </trkpt>
      <trkpt lat="45.06229" lon="5.56193">
        <ele>1283.4</ele>
        <time>2019-08-17T10:32:15Z</time>
      </trkpt>
      <trkpt lat="45.06226" lon="5.56205">
        <ele>1287</ele>
        <time>2019-08-17T10:32:25Z</time>
      </trkpt>
      <trkpt lat="45.06221" lon="5.5622">
        <ele>1291.8</ele>
        <time>2019-08-17T10:32:38Z</time>
      </trkpt>
      <trkpt lat="45.06211" lon="5.5624">
        <ele>1296.8</ele>
        <time>2019-08-17T10:32:53Z</time>
      </trkpt>
      <trkpt lat="45.06202" lon="5.5626">
        <ele>1301.4</ele>
        <time>2019-08-17T10:33:08Z</time>
      </trkpt>
      <trkpt lat="45.06202" lon="5.56261">
        <ele>1301.6</ele>
        <time>2019-08-17T10:33:09Z</time>
      </trkpt>
      <trkpt lat="45.06195" lon="5.56275">
        <ele>1304.4</ele>
        <time>2019-08-17T10:33:19Z</time>
      </trkpt>
      <trkpt lat="45.06191" lon="5.56293">
        <ele>1306.8</ele>
        <time>2019-08-17T10:33:31Z</time>
      </trkpt>
      <trkpt lat="45.06189" lon="5.56298">
        <ele>1307.6</ele>
        <time>2019-08-17T10:33:35Z</time>
      </trkpt>
      <trkpt lat="45.06186" lon="5.56309">
        <ele>1309.4</ele>
        <time>2019-08-17T10:33:45Z</time>
      </trkpt>
      <trkpt lat="45.06182" lon="5.56314">
        <ele>1309.8</ele>
        <time>2019-08-17T10:33:47Z</time>
      </trkpt>
      <trkpt lat="45.06178" lon="5.56326">
        <ele>1310.8</ele>
        <time>2019-08-17T10:33:55Z</time>
      </trkpt>
      <trkpt lat="45.06173" lon="5.56337">
        <ele>1312</ele>
        <time>2019-08-17T10:34:04Z</time>
      </trkpt>
      <trkpt lat="45.06169" lon="5.56343">
        <ele>1312.4</ele>
        <time>2019-08-17T10:34:08Z</time>
      </trkpt>
      <trkpt lat="45.06158" lon="5.56359">
        <ele>1313.6</ele>
        <time>2019-08-17T10:34:18Z</time>
      </trkpt>
      <trkpt lat="45.0615" lon="5.5637">
        <ele>1314.4</ele>
        <time>2019-08-17T10:34:26Z</time>
      </trkpt>
      <trkpt lat="45.06139" lon="5.56382">
        <ele>1315.4</ele>
        <time>2019-08-17T10:34:34Z</time>
      </trkpt>
      <trkpt lat="45.06133" lon="5.56389">
        <ele>1315.6</ele>
        <time>2019-08-17T10:34:39Z</time>
      </trkpt>
      <trkpt lat="45.06124" lon="5.56397">
        <ele>1315.8</ele>
        <time>2019-08-17T10:34:45Z</time>
      </trkpt>
      <trkpt lat="45.0612" lon="5.56401">
        <ele>1315.8</ele>
        <time>2019-08-17T10:34:48Z</time>
      </trkpt>
      <trkpt lat="45.06114" lon="5.56406">
        <ele>1315.8</ele>
        <time>2019-08-17T10:34:52Z</time>
      </trkpt>
      <trkpt lat="45.06107" lon="5.56414">
        <ele>1316</ele>
        <time>2019-08-17T10:34:58Z</time>
      </trkpt>
      <trkpt lat="45.06096" lon="5.56423">
        <ele>1316.4</ele>
        <time>2019-08-17T10:35:07Z</time>
      </trkpt>
      <trkpt lat="45.06086" lon="5.56428">
        <ele>1316.8</ele>
        <time>2019-08-17T10:35:14Z</time>
      </trkpt>
      <trkpt lat="45.06076" lon="5.56432">
        <ele>1317</ele>
        <time>2019-08-17T10:35:20Z</time>
      </trkpt>
      <trkpt lat="45.06068" lon="5.5643">
        <ele>1317.2</ele>
        <time>2019-08-17T10:35:26Z</time>
      </trkpt>
      <trkpt lat="45.06064" lon="5.56432">
        <ele>1317.4</ele>
        <time>2019-08-17T10:35:30Z</time>
      </trkpt>
      <trkpt lat="45.06053" lon="5.56434">
        <ele>1318.2</ele>
        <time>2019-08-17T10:35:39Z</time>
      </trkpt>
      <trkpt lat="45.0605" lon="5.56436">
        <ele>1318.8</ele>
        <time>2019-08-17T10:35:43Z</time>
      </trkpt>
      <trkpt lat="45.06037" lon="5.5644">
        <ele>1320.2</ele>
        <time>2019-08-17T10:35:55Z</time>
      </trkpt>
      <trkpt lat="45.06028" lon="5.56445">
        <ele>1321.8</ele>
        <time>2019-08-17T10:36:07Z</time>
      </trkpt>
      <trkpt lat="45.06017" lon="5.56448">
        <ele>1323.4</ele>
        <time>2019-08-17T10:36:17Z</time>
      </trkpt>
      <trkpt lat="45.06015" lon="5.56449">
        <ele>1324</ele>
        <time>2019-08-17T10:36:20Z</time>
      </trkpt>
      <trkpt lat="45.05999" lon="5.56451">
        <ele>1326.4</ele>
        <time>2019-08-17T10:36:33Z</time>
      </trkpt>
      <trkpt lat="45.05993" lon="5.56453">
        <ele>1326.8</ele>
        <time>2019-08-17T10:36:36Z</time>
      </trkpt>
      <trkpt lat="45.0599" lon="5.56453">
        <ele>1327.2</ele>
        <time>2019-08-17T10:36:38Z</time>
      </trkpt>
      <trkpt lat="45.05984" lon="5.56445">
        <ele>1329.2</ele>
        <time>2019-08-17T10:36:46Z</time>
      </trkpt>
      <trkpt lat="45.05976" lon="5.56431">
        <ele>1331.6</ele>
        <time>2019-08-17T10:36:54Z</time>
      </trkpt>
      <trkpt lat="45.05969" lon="5.56411">
        <ele>1334.4</ele>
        <time>2019-08-17T10:37:04Z</time>
      </trkpt>
      <trkpt lat="45.05965" lon="5.56405">
        <ele>1335.8</ele>
        <time>2019-08-17T10:37:10Z</time>
      </trkpt>
      <trkpt lat="45.05951" lon="5.56385">
        <ele>1338.2</ele>
        <time>2019-08-17T10:37:21Z</time>
      </trkpt>
      <trkpt lat="45.05946" lon="5.56379">
        <ele>1339</ele>
        <time>2019-08-17T10:37:26Z</time>
      </trkpt>
      <trkpt lat="45.05943" lon="5.56377">
        <ele>1339.4</ele>
        <time>2019-08-17T10:37:28Z</time>
      </trkpt>
      <trkpt lat="45.05935" lon="5.56369">
        <ele>1341</ele>
        <time>2019-08-17T10:37:36Z</time>
      </trkpt>
      <trkpt lat="45.05926" lon="5.56361">
        <ele>1342.8</ele>
        <time>2019-08-17T10:37:44Z</time>
      </trkpt>
      <trkpt lat="45.05915" lon="5.56355">
        <ele>1344.4</ele>
        <time>2019-08-17T10:37:52Z</time>
      </trkpt>
      <trkpt lat="45.05907" lon="5.56347">
        <ele>1346.2</ele>
        <time>2019-08-17T10:38:00Z</time>
      </trkpt>
      <trkpt lat="45.05894" lon="5.56341">
        <ele>1348.6</ele>
        <time>2019-08-17T10:38:10Z</time>
      </trkpt>
      <trkpt lat="45.05883" lon="5.56329">
        <ele>1351.6</ele>
        <time>2019-08-17T10:38:23Z</time>
      </trkpt>
      <trkpt lat="45.0588" lon="5.56324">
        <ele>1352.2</ele>
        <time>2019-08-17T10:38:26Z</time>
      </trkpt>
      <trkpt lat="45.05868" lon="5.56307">
        <ele>1354.4</ele>
        <time>2019-08-17T10:38:37Z</time>
      </trkpt>
      <trkpt lat="45.05863" lon="5.56299">
        <ele>1355.2</ele>
        <time>2019-08-17T10:38:42Z</time>
      </trkpt>
      <trkpt lat="45.05854" lon="5.56288">
        <ele>1356.4</ele>
        <time>2019-08-17T10:38:49Z</time>
      </trkpt>
      <trkpt lat="45.05851" lon="5.56282">
        <ele>1356.6</ele>
        <time>2019-08-17T10:38:52Z</time>
      </trkpt>
      <trkpt lat="45.05845" lon="5.56275">
        <ele>1357</ele>
        <time>2019-08-17T10:38:56Z</time>
      </trkpt>
      <trkpt lat="45.05838" lon="5.56276">
        <ele>1357.4</ele>
        <time>2019-08-17T10:39:00Z</time>
      </trkpt>
      <trkpt lat="45.05836" lon="5.56283">
        <ele>1357.8</ele>
        <time>2019-08-17T10:39:04Z</time>
      </trkpt>
      <trkpt lat="45.05838" lon="5.56292">
        <ele>1358.6</ele>
        <time>2019-08-17T10:39:09Z</time>
      </trkpt>
      <trkpt lat="45.0584" lon="5.56299">
        <ele>1359.4</ele>
        <time>2019-08-17T10:39:13Z</time>
      </trkpt>
      <trkpt lat="45.05846" lon="5.56308">
        <ele>1360.4</ele>
        <time>2019-08-17T10:39:19Z</time>
      </trkpt>
      <trkpt lat="45.05849" lon="5.56315">
        <ele>1361</ele>
        <time>2019-08-17T10:39:23Z</time>
      </trkpt>
      <trkpt lat="45.05852" lon="5.56323">
        <ele>1361.6</ele>
        <time>2019-08-17T10:39:27Z</time>
      </trkpt>
      <trkpt lat="45.05859" lon="5.56337">
        <ele>1363</ele>
        <time>2019-08-17T10:39:34Z</time>
      </trkpt>
      <trkpt lat="45.05861" lon="5.56347">
        <ele>1363.6</ele>
        <time>2019-08-17T10:39:38Z</time>
      </trkpt>
      <trkpt lat="45.05864" lon="5.56354">
        <ele>1364.4</ele>
        <time>2019-08-17T10:39:42Z</time>
      </trkpt>
      <trkpt lat="45.05868" lon="5.56365">
        <ele>1365.4</ele>
        <time>2019-08-17T10:39:48Z</time>
      </trkpt>
      <trkpt lat="45.0587" lon="5.56368">
        <ele>1365.8</ele>
        <time>2019-08-17T10:39:50Z</time>
      </trkpt>
      <trkpt lat="45.05877" lon="5.56379">
        <ele>1366.6</ele>
        <time>2019-08-17T10:39:57Z</time>
      </trkpt>
      <trkpt lat="45.05882" lon="5.56393">
        <ele>1367.4</ele>
        <time>2019-08-17T10:40:05Z</time>
      </trkpt>
      <trkpt lat="45.05884" lon="5.56401">
        <ele>1367.8</ele>
        <time>2019-08-17T10:40:09Z</time>
      </trkpt>
      <trkpt lat="45.05885" lon="5.56413">
        <ele>1368.4</ele>
        <time>2019-08-17T10:40:15Z</time>
      </trkpt>
      <trkpt lat="45.05887" lon="5.56421">
        <ele>1369</ele>
        <time>2019-08-17T10:40:19Z</time>
      </trkpt>
      <trkpt lat="45.05886" lon="5.56429">
        <ele>1369.6</ele>
        <time>2019-08-17T10:40:23Z</time>
      </trkpt>
      <trkpt lat="45.05883" lon="5.56449">
        <ele>1370.8</ele>
        <time>2019-08-17T10:40:33Z</time>
      </trkpt>
      <trkpt lat="45.0588" lon="5.56459">
        <ele>1371.6</ele>
        <time>2019-08-17T10:40:39Z</time>
      </trkpt>
      <trkpt lat="45.05879" lon="5.56468">
        <ele>1372</ele>
        <time>2019-08-17T10:40:43Z</time>
      </trkpt>
      <trkpt lat="45.05875" lon="5.56484">
        <ele>1373</ele>
        <time>2019-08-17T10:40:52Z</time>
      </trkpt>
      <trkpt lat="45.05872" lon="5.56492">
        <ele>1373.4</ele>
        <time>2019-08-17T10:40:56Z</time>
      </trkpt>
      <trkpt lat="45.0587" lon="5.56497">
        <ele>1373.8</ele>
        <time>2019-08-17T10:40:59Z</time>
      </trkpt>
      <trkpt lat="45.05864" lon="5.56503">
        <ele>1374.4</ele>
        <time>2019-08-17T10:41:04Z</time>
      </trkpt>
      <trkpt lat="45.05861" lon="5.56509">
        <ele>1375</ele>
        <time>2019-08-17T10:41:08Z</time>
      </trkpt>
      <trkpt lat="45.05859" lon="5.56518">
        <ele>1375.8</ele>
        <time>2019-08-17T10:41:14Z</time>
      </trkpt>
      <trkpt lat="45.05856" lon="5.56524">
        <ele>1376.2</ele>
        <time>2019-08-17T10:41:18Z</time>
      </trkpt>
      <trkpt lat="45.05852" lon="5.56534">
        <ele>1376.6</ele>
        <time>2019-08-17T10:41:23Z</time>
      </trkpt>
      <trkpt lat="45.05851" lon="5.56541">
        <ele>1376.8</ele>
        <time>2019-08-17T10:41:26Z</time>
      </trkpt>
      <trkpt lat="45.05852" lon="5.56551">
        <ele>1376.8</ele>
        <time>2019-08-17T10:41:30Z</time>
      </trkpt>
      <trkpt lat="45.05856" lon="5.56563">
        <ele>1376.8</ele>
        <time>2019-08-17T10:41:35Z</time>
      </trkpt>
      <trkpt lat="45.05862" lon="5.56576">
        <ele>1376.4</ele>
        <time>2019-08-17T10:41:41Z</time>
      </trkpt>
      <trkpt lat="45.05865" lon="5.56587">
        <ele>1376</ele>
        <time>2019-08-17T10:41:47Z</time>
      </trkpt>
      <trkpt lat="45.05857" lon="5.56591">
        <ele>1375.8</ele>
        <time>2019-08-17T10:41:52Z</time>
      </trkpt>
      <trkpt lat="45.05851" lon="5.5659">
        <ele>1375.6</ele>
        <time>2019-08-17T10:41:55Z</time>
      </trkpt>
      <trkpt lat="45.05845" lon="5.56587">
        <ele>1375.4</ele>
        <time>2019-08-17T10:41:59Z</time>
      </trkpt>
      <trkpt lat="45.05837" lon="5.56577">
        <ele>1375</ele>
        <time>2019-08-17T10:42:05Z</time>
      </trkpt>
      <trkpt lat="45.05827" lon="5.56567">
        <ele>1374.4</ele>
        <time>2019-08-17T10:42:12Z</time>
      </trkpt>
      <trkpt lat="45.0582" lon="5.56561">
        <ele>1374</ele>
        <time>2019-08-17T10:42:17Z</time>
      </trkpt>
      <trkpt lat="45.05807" lon="5.56552">
        <ele>1373.2</ele>
        <time>2019-08-17T10:42:26Z</time>
      </trkpt>
      <trkpt lat="45.05799" lon="5.56551">
        <ele>1372.8</ele>
        <time>2019-08-17T10:42:31Z</time>
      </trkpt>
      <trkpt lat="45.05787" lon="5.56552">
        <ele>1372</ele>
        <time>2019-08-17T10:42:39Z</time>
      </trkpt>
      <trkpt lat="45.05778" lon="5.56551">
        <ele>1371.8</ele>
        <time>2019-08-17T10:42:44Z</time>
      </trkpt>
      <trkpt lat="45.05769" lon="5.56557">
        <ele>1371.6</ele>
        <time>2019-08-17T10:42:50Z</time>
      </trkpt>
      <trkpt lat="45.05764" lon="5.56563">
        <ele>1371.4</ele>
        <time>2019-08-17T10:42:54Z</time>
      </trkpt>
      <trkpt lat="45.05755" lon="5.56576">
        <ele>1371</ele>
        <time>2019-08-17T10:43:01Z</time>
      </trkpt>
      <trkpt lat="45.05752" lon="5.5658">
        <ele>1371</ele>
        <time>2019-08-17T10:43:03Z</time>
      </trkpt>
      <trkpt lat="45.05742" lon="5.56599">
        <ele>1370.8</ele>
        <time>2019-08-17T10:43:11Z</time>
      </trkpt>
      <trkpt lat="45.05733" lon="5.56609">
        <ele>1370.6</ele>
        <time>2019-08-17T10:43:16Z</time>
      </trkpt>
      <trkpt lat="45.05722" lon="5.56626">
        <ele>1370.6</ele>
        <time>2019-08-17T10:43:23Z</time>
      </trkpt>
      <trkpt lat="45.05713" lon="5.56641">
        <ele>1370.6</ele>
        <time>2019-08-17T10:43:29Z</time>
      </trkpt>
      <trkpt lat="45.05701" lon="5.56653">
        <ele>1370.8</ele>
        <time>2019-08-17T10:43:35Z</time>
      </trkpt>
      <trkpt lat="45.05698" lon="5.56657">
        <ele>1371</ele>
        <time>2019-08-17T10:43:37Z</time>
      </trkpt>
      <trkpt lat="45.05687" lon="5.5667">
        <ele>1371.2</ele>
        <time>2019-08-17T10:43:43Z</time>
      </trkpt>
      <trkpt lat="45.05685" lon="5.56672">
        <ele>1371.2</ele>
        <time>2019-08-17T10:43:44Z</time>
      </trkpt>
      <trkpt lat="45.05677" lon="5.56682">
        <ele>1371.2</ele>
        <time>2019-08-17T10:43:49Z</time>
      </trkpt>
      <trkpt lat="45.05667" lon="5.56694">
        <ele>1371.4</ele>
        <time>2019-08-17T10:43:55Z</time>
      </trkpt>
      <trkpt lat="45.05662" lon="5.56701">
        <ele>1371.6</ele>
        <time>2019-08-17T10:43:58Z</time>
      </trkpt>
      <trkpt lat="45.05651" lon="5.56712">
        <ele>1371.8</ele>
        <time>2019-08-17T10:44:04Z</time>
      </trkpt>
      <trkpt lat="45.05639" lon="5.56723">
        <ele>1372</ele>
        <time>2019-08-17T10:44:10Z</time>
      </trkpt>
      <trkpt lat="45.05628" lon="5.56732">
        <ele>1372</ele>
        <time>2019-08-17T10:44:15Z</time>
      </trkpt>
      <trkpt lat="45.05615" lon="5.56742">
        <ele>1372.2</ele>
        <time>2019-08-17T10:44:21Z</time>
      </trkpt>
      <trkpt lat="45.05606" lon="5.56748">
        <ele>1372.2</ele>
        <time>2019-08-17T10:44:25Z</time>
      </trkpt>
      <trkpt lat="45.05599" lon="5.56752">
        <ele>1372.4</ele>
        <time>2019-08-17T10:44:28Z</time>
      </trkpt>
      <trkpt lat="45.05591" lon="5.56752">
        <ele>1372.6</ele>
        <time>2019-08-17T10:44:32Z</time>
      </trkpt>
      <trkpt lat="45.05579" lon="5.56744">
        <ele>1372.6</ele>
        <time>2019-08-17T10:44:36Z</time>
      </trkpt>
      <trkpt lat="45.05571" lon="5.56745">
        <ele>1372.6</ele>
        <time>2019-08-17T10:44:38Z</time>
      </trkpt>
      <trkpt lat="45.05565" lon="5.56752">
        <ele>1372.6</ele>
        <time>2019-08-17T10:44:40Z</time>
      </trkpt>
      <trkpt lat="45.05561" lon="5.56759">
        <ele>1372.8</ele>
        <time>2019-08-17T10:44:42Z</time>
      </trkpt>
      <trkpt lat="45.05568" lon="5.5675">
        <ele>1372.8</ele>
        <time>2019-08-17T10:47:17Z</time>
      </trkpt>
      <trkpt lat="45.05575" lon="5.56745">
        <ele>1372.6</ele>
        <time>2019-08-17T10:47:20Z</time>
      </trkpt>
      <trkpt lat="45.05584" lon="5.56749">
        <ele>1372.4</ele>
        <time>2019-08-17T10:47:25Z</time>
      </trkpt>
      <trkpt lat="45.0559" lon="5.56759">
        <ele>1372.6</ele>
        <time>2019-08-17T10:47:31Z</time>
      </trkpt>
      <trkpt lat="45.05592" lon="5.56769">
        <ele>1372.8</ele>
        <time>2019-08-17T10:47:35Z</time>
      </trkpt>
      <trkpt lat="45.05592" lon="5.56778">
        <ele>1372.8</ele>
        <time>2019-08-17T10:47:39Z</time>
      </trkpt>
      <trkpt lat="45.0559" lon="5.56794">
        <ele>1373.2</ele>
        <time>2019-08-17T10:47:46Z</time>
      </trkpt>
      <trkpt lat="45.05587" lon="5.5681">
        <ele>1373.8</ele>
        <time>2019-08-17T10:47:53Z</time>
      </trkpt>
      <trkpt lat="45.05587" lon="5.56824">
        <ele>1375.2</ele>
        <time>2019-08-17T10:48:00Z</time>
      </trkpt>
      <trkpt lat="45.05591" lon="5.56845">
        <ele>1377.6</ele>
        <time>2019-08-17T10:48:10Z</time>
      </trkpt>
      <trkpt lat="45.05592" lon="5.56854">
        <ele>1378.6</ele>
        <time>2019-08-17T10:48:15Z</time>
      </trkpt>
      <trkpt lat="45.05595" lon="5.56873">
        <ele>1381.4</ele>
        <time>2019-08-17T10:48:26Z</time>
      </trkpt>
      <trkpt lat="45.05594" lon="5.56878">
        <ele>1382.2</ele>
        <time>2019-08-17T10:48:29Z</time>
      </trkpt>
      <trkpt lat="45.05594" lon="5.56891">
        <ele>1385</ele>
        <time>2019-08-17T10:48:39Z</time>
      </trkpt>
      <trkpt lat="45.05594" lon="5.56896">
        <ele>1385.8</ele>
        <time>2019-08-17T10:48:42Z</time>
      </trkpt>
      <trkpt lat="45.05593" lon="5.56913">
        <ele>1389</ele>
        <time>2019-08-17T10:48:52Z</time>
      </trkpt>
      <trkpt lat="45.05589" lon="5.56929">
        <ele>1391.4</ele>
        <time>2019-08-17T10:49:01Z</time>
      </trkpt>
      <trkpt lat="45.05587" lon="5.56945">
        <ele>1393.2</ele>
        <time>2019-08-17T10:49:10Z</time>
      </trkpt>
      <trkpt lat="45.05586" lon="5.56959">
        <ele>1394.8</ele>
        <time>2019-08-17T10:49:19Z</time>
      </trkpt>
      <trkpt lat="45.05589" lon="5.56976">
        <ele>1397.6</ele>
        <time>2019-08-17T10:49:31Z</time>
      </trkpt>
      <trkpt lat="45.05592" lon="5.56996">
        <ele>1401.6</ele>
        <time>2019-08-17T10:49:45Z</time>
      </trkpt>
      <trkpt lat="45.05592" lon="5.5701">
        <ele>1404.2</ele>
        <time>2019-08-17T10:49:55Z</time>
      </trkpt>
      <trkpt lat="45.05591" lon="5.5702">
        <ele>1407</ele>
        <time>2019-08-17T10:50:04Z</time>
      </trkpt>
      <trkpt lat="45.05586" lon="5.57034">
        <ele>1410.6</ele>
        <time>2019-08-17T10:50:16Z</time>
      </trkpt>
      <trkpt lat="45.05583" lon="5.57047">
        <ele>1413.8</ele>
        <time>2019-08-17T10:50:26Z</time>
      </trkpt>
      <trkpt lat="45.05581" lon="5.57056">
        <ele>1417</ele>
        <time>2019-08-17T10:50:34Z</time>
      </trkpt>
      <trkpt lat="45.05578" lon="5.57066">
        <ele>1420.6</ele>
        <time>2019-08-17T10:50:43Z</time>
      </trkpt>
      <trkpt lat="45.05576" lon="5.57069">
        <ele>1421.8</ele>
        <time>2019-08-17T10:50:46Z</time>
      </trkpt>
      <trkpt lat="45.05567" lon="5.57089">
        <ele>1427.4</ele>
        <time>2019-08-17T10:51:00Z</time>
      </trkpt>
      <trkpt lat="45.05564" lon="5.57099">
        <ele>1429.8</ele>
        <time>2019-08-17T10:51:06Z</time>
      </trkpt>
      <trkpt lat="45.05563" lon="5.57108">
        <ele>1431.8</ele>
        <time>2019-08-17T10:51:11Z</time>
      </trkpt>
      <trkpt lat="45.05561" lon="5.57123">
        <ele>1434.2</ele>
        <time>2019-08-17T10:51:18Z</time>
      </trkpt>
      <trkpt lat="45.0556" lon="5.57139">
        <ele>1436.8</ele>
        <time>2019-08-17T10:51:26Z</time>
      </trkpt>
      <trkpt lat="45.0556" lon="5.57151">
        <ele>1438.8</ele>
        <time>2019-08-17T10:51:32Z</time>
      </trkpt>
      <trkpt lat="45.05563" lon="5.57165">
        <ele>1440.8</ele>
        <time>2019-08-17T10:51:39Z</time>
      </trkpt>
      <trkpt lat="45.05564" lon="5.57174">
        <ele>1441.8</ele>
        <time>2019-08-17T10:51:43Z</time>
      </trkpt>
      <trkpt lat="45.05564" lon="5.57182">
        <ele>1442.6</ele>
        <time>2019-08-17T10:51:46Z</time>
      </trkpt>
      <trkpt lat="45.05563" lon="5.57203">
        <ele>1445</ele>
        <time>2019-08-17T10:51:55Z</time>
      </trkpt>
      <trkpt lat="45.05562" lon="5.57219">
        <ele>1447.8</ele>
        <time>2019-08-17T10:52:05Z</time>
      </trkpt>
      <trkpt lat="45.05563" lon="5.57229">
        <ele>1450</ele>
        <time>2019-08-17T10:52:12Z</time>
      </trkpt>
      <trkpt lat="45.05564" lon="5.5724">
        <ele>1452.2</ele>
        <time>2019-08-17T10:52:19Z</time>
      </trkpt>
      <trkpt lat="45.05565" lon="5.57262">
        <ele>1457.2</ele>
        <time>2019-08-17T10:52:33Z</time>
      </trkpt>
      <trkpt lat="45.05564" lon="5.5727">
        <ele>1459</ele>
        <time>2019-08-17T10:52:38Z</time>
      </trkpt>
      <trkpt lat="45.05565" lon="5.57277">
        <ele>1460.8</ele>
        <time>2019-08-17T10:52:43Z</time>
      </trkpt>
      <trkpt lat="45.05565" lon="5.57289">
        <ele>1463.8</ele>
        <time>2019-08-17T10:52:51Z</time>
      </trkpt>
      <trkpt lat="45.05565" lon="5.57308">
        <ele>1467.8</ele>
        <time>2019-08-17T10:53:03Z</time>
      </trkpt>
      <trkpt lat="45.05567" lon="5.57319">
        <ele>1469.8</ele>
        <time>2019-08-17T10:53:09Z</time>
      </trkpt>
      <trkpt lat="45.05567" lon="5.57327">
        <ele>1471.4</ele>
        <time>2019-08-17T10:53:14Z</time>
      </trkpt>
      <trkpt lat="45.05565" lon="5.57337">
        <ele>1473.4</ele>
        <time>2019-08-17T10:53:21Z</time>
      </trkpt>
      <trkpt lat="45.05559" lon="5.57346">
        <ele>1475.4</ele>
        <time>2019-08-17T10:53:29Z</time>
      </trkpt>
      <trkpt lat="45.05555" lon="5.57339">
        <ele>1477.2</ele>
        <time>2019-08-17T10:53:37Z</time>
      </trkpt>
      <trkpt lat="45.05553" lon="5.57327">
        <ele>1479</ele>
        <time>2019-08-17T10:53:45Z</time>
      </trkpt>
      <trkpt lat="45.05552" lon="5.57318">
        <ele>1480.8</ele>
        <time>2019-08-17T10:53:52Z</time>
      </trkpt>
      <trkpt lat="45.05551" lon="5.57311">
        <ele>1482</ele>
        <time>2019-08-17T10:53:57Z</time>
      </trkpt>
      <trkpt lat="45.05547" lon="5.57304">
        <ele>1483.6</ele>
        <time>2019-08-17T10:54:04Z</time>
      </trkpt>
      <trkpt lat="45.05541" lon="5.57293">
        <ele>1485.8</ele>
        <time>2019-08-17T10:54:13Z</time>
      </trkpt>
      <trkpt lat="45.05536" lon="5.57287">
        <ele>1487</ele>
        <time>2019-08-17T10:54:18Z</time>
      </trkpt>
      <trkpt lat="45.0553" lon="5.57282">
        <ele>1488.2</ele>
        <time>2019-08-17T10:54:22Z</time>
      </trkpt>
      <trkpt lat="45.05523" lon="5.57278">
        <ele>1490</ele>
        <time>2019-08-17T10:54:28Z</time>
      </trkpt>
      <trkpt lat="45.05513" lon="5.57276">
        <ele>1491.8</ele>
        <time>2019-08-17T10:54:34Z</time>
      </trkpt>
      <trkpt lat="45.05499" lon="5.57271">
        <ele>1494.4</ele>
        <time>2019-08-17T10:54:43Z</time>
      </trkpt>
      <trkpt lat="45.05487" lon="5.57264">
        <ele>1496.8</ele>
        <time>2019-08-17T10:54:51Z</time>
      </trkpt>
      <trkpt lat="45.05473" lon="5.57258">
        <ele>1499.8</ele>
        <time>2019-08-17T10:55:02Z</time>
      </trkpt>
      <trkpt lat="45.05457" lon="5.57253">
        <ele>1502.4</ele>
        <time>2019-08-17T10:55:13Z</time>
      </trkpt>
      <trkpt lat="45.05452" lon="5.57252">
        <ele>1503.4</ele>
        <time>2019-08-17T10:55:17Z</time>
      </trkpt>
      <trkpt lat="45.05444" lon="5.57248">
        <ele>1504.6</ele>
        <time>2019-08-17T10:55:23Z</time>
      </trkpt>
      <trkpt lat="45.05433" lon="5.57239">
        <ele>1506.4</ele>
        <time>2019-08-17T10:55:32Z</time>
      </trkpt>
      <trkpt lat="45.05427" lon="5.57236">
        <ele>1507.2</ele>
        <time>2019-08-17T10:55:36Z</time>
      </trkpt>
      <trkpt lat="45.05422" lon="5.5723">
        <ele>1508</ele>
        <time>2019-08-17T10:55:41Z</time>
      </trkpt>
      <trkpt lat="45.05413" lon="5.57229">
        <ele>1509.2</ele>
        <time>2019-08-17T10:55:48Z</time>
      </trkpt>
      <trkpt lat="45.05409" lon="5.57228">
        <ele>1509.6</ele>
        <time>2019-08-17T10:55:51Z</time>
      </trkpt>
      <trkpt lat="45.05404" lon="5.57225">
        <ele>1510.2</ele>
        <time>2019-08-17T10:55:55Z</time>
      </trkpt>
      <trkpt lat="45.05391" lon="5.5722">
        <ele>1511.2</ele>
        <time>2019-08-17T10:56:04Z</time>
      </trkpt>
      <trkpt lat="45.05383" lon="5.57218">
        <ele>1512</ele>
        <time>2019-08-17T10:56:11Z</time>
      </trkpt>
      <trkpt lat="45.05385" lon="5.5722">
        <ele>1512.6</ele>
        <time>2019-08-17T10:56:16Z</time>
      </trkpt>
      <trkpt lat="45.05384" lon="5.57203">
        <ele>1513.4</ele>
        <time>2019-08-17T10:56:29Z</time>
      </trkpt>
      <trkpt lat="45.05382" lon="5.572">
        <ele>1513.8</ele>
        <time>2019-08-17T10:56:32Z</time>
      </trkpt>
      <trkpt lat="45.05367" lon="5.57194">
        <ele>1515.6</ele>
        <time>2019-08-17T10:56:43Z</time>
      </trkpt>
      <trkpt lat="45.05362" lon="5.5719">
        <ele>1516.6</ele>
        <time>2019-08-17T10:56:47Z</time>
      </trkpt>
      <trkpt lat="45.05358" lon="5.57189">
        <ele>1517</ele>
        <time>2019-08-17T10:56:49Z</time>
      </trkpt>
      <trkpt lat="45.05343" lon="5.57185">
        <ele>1519</ele>
        <time>2019-08-17T10:56:59Z</time>
      </trkpt>
      <trkpt lat="45.05337" lon="5.57181">
        <ele>1519.6</ele>
        <time>2019-08-17T10:57:03Z</time>
      </trkpt>
      <trkpt lat="45.05326" lon="5.57179">
        <ele>1520.8</ele>
        <time>2019-08-17T10:57:10Z</time>
      </trkpt>
      <trkpt lat="45.05322" lon="5.57175">
        <ele>1521.4</ele>
        <time>2019-08-17T10:57:14Z</time>
      </trkpt>
      <trkpt lat="45.05312" lon="5.57168">
        <ele>1522.2</ele>
        <time>2019-08-17T10:57:23Z</time>
      </trkpt>
      <trkpt lat="45.05303" lon="5.57163">
        <ele>1523</ele>
        <time>2019-08-17T10:57:30Z</time>
      </trkpt>
      <trkpt lat="45.053" lon="5.57162">
        <ele>1523.2</ele>
        <time>2019-08-17T10:57:32Z</time>
      </trkpt>
      <trkpt lat="45.05286" lon="5.57156">
        <ele>1523.8</ele>
        <time>2019-08-17T10:57:41Z</time>
      </trkpt>
      <trkpt lat="45.05277" lon="5.57151">
        <ele>1524.2</ele>
        <time>2019-08-17T10:57:46Z</time>
      </trkpt>
      <trkpt lat="45.05263" lon="5.57139">
        <ele>1525.2</ele>
        <time>2019-08-17T10:57:54Z</time>
      </trkpt>
      <trkpt lat="45.05256" lon="5.5713">
        <ele>1525.4</ele>
        <time>2019-08-17T10:57:58Z</time>
      </trkpt>
      <trkpt lat="45.05247" lon="5.57126">
        <ele>1525.8</ele>
        <time>2019-08-17T10:58:02Z</time>
      </trkpt>
      <trkpt lat="45.05241" lon="5.57122">
        <ele>1526.4</ele>
        <time>2019-08-17T10:58:06Z</time>
      </trkpt>
      <trkpt lat="45.05231" lon="5.57112">
        <ele>1527.6</ele>
        <time>2019-08-17T10:58:14Z</time>
      </trkpt>
      <trkpt lat="45.05228" lon="5.57109">
        <ele>1528</ele>
        <time>2019-08-17T10:58:16Z</time>
      </trkpt>
      <trkpt lat="45.05218" lon="5.57101">
        <ele>1529</ele>
        <time>2019-08-17T10:58:22Z</time>
      </trkpt>
      <trkpt lat="45.05211" lon="5.57095">
        <ele>1529.8</ele>
        <time>2019-08-17T10:58:27Z</time>
      </trkpt>
      <trkpt lat="45.05206" lon="5.57088">
        <ele>1530.2</ele>
        <time>2019-08-17T10:58:31Z</time>
      </trkpt>
      <trkpt lat="45.05196" lon="5.57076">
        <ele>1531.2</ele>
        <time>2019-08-17T10:58:40Z</time>
      </trkpt>
      <trkpt lat="45.05194" lon="5.57072">
        <ele>1531.4</ele>
        <time>2019-08-17T10:58:43Z</time>
      </trkpt>
      <trkpt lat="45.05188" lon="5.57067">
        <ele>1531.4</ele>
        <time>2019-08-17T10:58:48Z</time>
      </trkpt>
      <trkpt lat="45.05179" lon="5.57065">
        <ele>1531.6</ele>
        <time>2019-08-17T10:58:55Z</time>
      </trkpt>
      <trkpt lat="45.05172" lon="5.57062">
        <ele>1531.6</ele>
        <time>2019-08-17T10:59:01Z</time>
      </trkpt>
      <trkpt lat="45.05164" lon="5.57063">
        <ele>1531.8</ele>
        <time>2019-08-17T11:01:13Z</time>
      </trkpt>
      <trkpt lat="45.05159" lon="5.57066">
        <ele>1531.6</ele>
        <time>2019-08-17T11:01:17Z</time>
      </trkpt>
      <trkpt lat="45.05151" lon="5.57068">
        <ele>1531</ele>
        <time>2019-08-17T11:01:22Z</time>
      </trkpt>
      <trkpt lat="45.05148" lon="5.5707">
        <ele>1530.8</ele>
        <time>2019-08-17T11:01:24Z</time>
      </trkpt>
      <trkpt lat="45.05141" lon="5.57072">
        <ele>1530.6</ele>
        <time>2019-08-17T11:01:28Z</time>
      </trkpt>
      <trkpt lat="45.05129" lon="5.57073">
        <ele>1530.4</ele>
        <time>2019-08-17T11:01:35Z</time>
      </trkpt>
      <trkpt lat="45.05114" lon="5.57078">
        <ele>1530.4</ele>
        <time>2019-08-17T11:01:45Z</time>
      </trkpt>
      <trkpt lat="45.05107" lon="5.57081">
        <ele>1530.8</ele>
        <time>2019-08-17T11:01:50Z</time>
      </trkpt>
      <trkpt lat="45.05103" lon="5.57082">
        <ele>1530.8</ele>
        <time>2019-08-17T11:01:52Z</time>
      </trkpt>
      <trkpt lat="45.05089" lon="5.57084">
        <ele>1531</ele>
        <time>2019-08-17T11:01:59Z</time>
      </trkpt>
      <trkpt lat="45.05072" lon="5.57085">
        <ele>1531.6</ele>
        <time>2019-08-17T11:02:07Z</time>
      </trkpt>
      <trkpt lat="45.05054" lon="5.57083">
        <ele>1531</ele>
        <time>2019-08-17T11:02:15Z</time>
      </trkpt>
      <trkpt lat="45.05045" lon="5.57081">
        <ele>1531.6</ele>
        <time>2019-08-17T11:02:19Z</time>
      </trkpt>
      <trkpt lat="45.0503" lon="5.57077">
        <ele>1532</ele>
        <time>2019-08-17T11:02:25Z</time>
      </trkpt>
      <trkpt lat="45.05019" lon="5.57072">
        <ele>1532.4</ele>
        <time>2019-08-17T11:02:30Z</time>
      </trkpt>
      <trkpt lat="45.05004" lon="5.57065">
        <ele>1532.8</ele>
        <time>2019-08-17T11:02:37Z</time>
      </trkpt>
      <trkpt lat="45.04992" lon="5.57058">
        <ele>1533.4</ele>
        <time>2019-08-17T11:02:43Z</time>
      </trkpt>
      <trkpt lat="45.04988" lon="5.57056">
        <ele>1533.6</ele>
        <time>2019-08-17T11:02:45Z</time>
      </trkpt>
      <trkpt lat="45.04976" lon="5.5705">
        <ele>1534</ele>
        <time>2019-08-17T11:02:51Z</time>
      </trkpt>
      <trkpt lat="45.04969" lon="5.57047">
        <ele>1534.4</ele>
        <time>2019-08-17T11:02:55Z</time>
      </trkpt>
      <trkpt lat="45.04954" lon="5.57042">
        <ele>1535</ele>
        <time>2019-08-17T11:03:03Z</time>
      </trkpt>
      <trkpt lat="45.04953" lon="5.57041">
        <ele>1535</ele>
        <time>2019-08-17T11:03:04Z</time>
      </trkpt>
      <trkpt lat="45.04941" lon="5.57037">
        <ele>1535.2</ele>
        <time>2019-08-17T11:03:10Z</time>
      </trkpt>
      <trkpt lat="45.04927" lon="5.57031">
        <ele>1535.6</ele>
        <time>2019-08-17T11:03:17Z</time>
      </trkpt>
      <trkpt lat="45.0492" lon="5.57028">
        <ele>1535.8</ele>
        <time>2019-08-17T11:03:21Z</time>
      </trkpt>
      <trkpt lat="45.04908" lon="5.57025">
        <ele>1536.2</ele>
        <time>2019-08-17T11:03:27Z</time>
      </trkpt>
      <trkpt lat="45.04893" lon="5.57018">
        <ele>1536.2</ele>
        <time>2019-08-17T11:03:34Z</time>
      </trkpt>
      <trkpt lat="45.04882" lon="5.57012">
        <ele>1536.4</ele>
        <time>2019-08-17T11:03:39Z</time>
      </trkpt>
      <trkpt lat="45.04865" lon="5.57002">
        <ele>1536.4</ele>
        <time>2019-08-17T11:03:47Z</time>
      </trkpt>
      <trkpt lat="45.04859" lon="5.56997">
        <ele>1536.4</ele>
        <time>2019-08-17T11:03:50Z</time>
      </trkpt>
      <trkpt lat="45.04847" lon="5.56992">
        <ele>1536.8</ele>
        <time>2019-08-17T11:03:56Z</time>
      </trkpt>
      <trkpt lat="45.04836" lon="5.56989">
        <ele>1537</ele>
        <time>2019-08-17T11:04:01Z</time>
      </trkpt>
      <trkpt lat="45.04819" lon="5.56988">
        <ele>1537.4</ele>
        <time>2019-08-17T11:04:09Z</time>
      </trkpt>
      <trkpt lat="45.04806" lon="5.56989">
        <ele>1537.8</ele>
        <time>2019-08-17T11:04:15Z</time>
      </trkpt>
      <trkpt lat="45.04793" lon="5.5699">
        <ele>1538</ele>
        <time>2019-08-17T11:04:21Z</time>
      </trkpt>
      <trkpt lat="45.04786" lon="5.56991">
        <ele>1538.2</ele>
        <time>2019-08-17T11:04:24Z</time>
      </trkpt>
      <trkpt lat="45.04775" lon="5.56992">
        <ele>1538.6</ele>
        <time>2019-08-17T11:04:29Z</time>
      </trkpt>
      <trkpt lat="45.0476" lon="5.56997">
        <ele>1539</ele>
        <time>2019-08-17T11:04:36Z</time>
      </trkpt>
      <trkpt lat="45.04752" lon="5.57">
        <ele>1539.2</ele>
        <time>2019-08-17T11:04:40Z</time>
      </trkpt>
      <trkpt lat="45.04742" lon="5.57005">
        <ele>1539.2</ele>
        <time>2019-08-17T11:04:45Z</time>
      </trkpt>
      <trkpt lat="45.04728" lon="5.57016">
        <ele>1539.4</ele>
        <time>2019-08-17T11:04:52Z</time>
      </trkpt>
      <trkpt lat="45.04715" lon="5.57031">
        <ele>1539.4</ele>
        <time>2019-08-17T11:05:00Z</time>
      </trkpt>
      <trkpt lat="45.0471" lon="5.57035">
        <ele>1539.4</ele>
        <time>2019-08-17T11:05:03Z</time>
      </trkpt>
      <trkpt lat="45.04699" lon="5.57045">
        <ele>1539.8</ele>
        <time>2019-08-17T11:05:09Z</time>
      </trkpt>
      <trkpt lat="45.0469" lon="5.57053">
        <ele>1540</ele>
        <time>2019-08-17T11:05:13Z</time>
      </trkpt>
      <trkpt lat="45.04679" lon="5.57062">
        <ele>1540</ele>
        <time>2019-08-17T11:05:18Z</time>
      </trkpt>
      <trkpt lat="45.04669" lon="5.57068">
        <ele>1539.8</ele>
        <time>2019-08-17T11:05:22Z</time>
      </trkpt>
      <trkpt lat="45.04652" lon="5.57082">
        <ele>1539.8</ele>
        <time>2019-08-17T11:05:29Z</time>
      </trkpt>
      <trkpt lat="45.04638" lon="5.57093">
        <ele>1539.8</ele>
        <time>2019-08-17T11:05:35Z</time>
      </trkpt>
      <trkpt lat="45.04632" lon="5.57097">
        <ele>1539.8</ele>
        <time>2019-08-17T11:05:37Z</time>
      </trkpt>
      <trkpt lat="45.04619" lon="5.57109">
        <ele>1539.8</ele>
        <time>2019-08-17T11:05:43Z</time>
      </trkpt>
      <trkpt lat="45.04615" lon="5.57112">
        <ele>1539.8</ele>
        <time>2019-08-17T11:05:45Z</time>
      </trkpt>
      <trkpt lat="45.04605" lon="5.57124">
        <ele>1540.4</ele>
        <time>2019-08-17T11:05:51Z</time>
      </trkpt>
      <trkpt lat="45.04595" lon="5.5714">
        <ele>1540.8</ele>
        <time>2019-08-17T11:05:58Z</time>
      </trkpt>
      <trkpt lat="45.04593" lon="5.57145">
        <ele>1541</ele>
        <time>2019-08-17T11:06:00Z</time>
      </trkpt>
      <trkpt lat="45.04586" lon="5.57159">
        <ele>1541.2</ele>
        <time>2019-08-17T11:06:06Z</time>
      </trkpt>
      <trkpt lat="45.04582" lon="5.57169">
        <ele>1541.4</ele>
        <time>2019-08-17T11:06:10Z</time>
      </trkpt>
      <trkpt lat="45.0458" lon="5.57176">
        <ele>1541.6</ele>
        <time>2019-08-17T11:06:13Z</time>
      </trkpt>
      <trkpt lat="45.04572" lon="5.5719">
        <ele>1542.2</ele>
        <time>2019-08-17T11:06:21Z</time>
      </trkpt>
      <trkpt lat="45.04566" lon="5.57197">
        <ele>1542.8</ele>
        <time>2019-08-17T11:06:28Z</time>
      </trkpt>
      <trkpt lat="45.04559" lon="5.57202">
        <ele>1543.4</ele>
        <time>2019-08-17T11:06:35Z</time>
      </trkpt>
      <trkpt lat="45.04555" lon="5.57201">
        <ele>1543.6</ele>
        <time>2019-08-17T11:06:39Z</time>
      </trkpt>
      <trkpt lat="45.04548" lon="5.57197">
        <ele>1544</ele>
        <time>2019-08-17T11:06:46Z</time>
      </trkpt>
      <trkpt lat="45.04544" lon="5.57186">
        <ele>1544.8</ele>
        <time>2019-08-17T11:06:54Z</time>
      </trkpt>
      <trkpt lat="45.0454" lon="5.5718">
        <ele>1545.4</ele>
        <time>2019-08-17T11:07:00Z</time>
      </trkpt>
      <trkpt lat="45.04537" lon="5.57174">
        <ele>1546.4</ele>
        <time>2019-08-17T11:07:06Z</time>
      </trkpt>
      <trkpt lat="45.0453" lon="5.57162">
        <ele>1547.6</ele>
        <time>2019-08-17T11:07:15Z</time>
      </trkpt>
      <trkpt lat="45.04529" lon="5.57158">
        <ele>1548</ele>
        <time>2019-08-17T11:07:18Z</time>
      </trkpt>
      <trkpt lat="45.04523" lon="5.57151">
        <ele>1549.2</ele>
        <time>2019-08-17T11:07:27Z</time>
      </trkpt>
      <trkpt lat="45.04519" lon="5.57144">
        <ele>1550.2</ele>
        <time>2019-08-17T11:07:54Z</time>
      </trkpt>
      <trkpt lat="45.04516" lon="5.57139">
        <ele>1550</ele>
        <time>2019-08-17T11:08:00Z</time>
      </trkpt>
      <trkpt lat="45.04511" lon="5.57128">
        <ele>1550.4</ele>
        <time>2019-08-17T11:08:11Z</time>
      </trkpt>
      <trkpt lat="45.04508" lon="5.57124">
        <ele>1550.4</ele>
        <time>2019-08-17T11:08:15Z</time>
      </trkpt>
      <trkpt lat="45.04503" lon="5.57116">
        <ele>1551</ele>
        <time>2019-08-17T11:08:23Z</time>
      </trkpt>
      <trkpt lat="45.04498" lon="5.5711">
        <ele>1552.4</ele>
        <time>2019-08-17T11:08:37Z</time>
      </trkpt>
      <trkpt lat="45.04495" lon="5.57101">
        <ele>1553</ele>
        <time>2019-08-17T11:08:43Z</time>
      </trkpt>
      <trkpt lat="45.04488" lon="5.57093">
        <ele>1554</ele>
        <time>2019-08-17T11:08:50Z</time>
      </trkpt>
      <trkpt lat="45.04477" lon="5.5708">
        <ele>1556</ele>
        <time>2019-08-17T11:09:01Z</time>
      </trkpt>
      <trkpt lat="45.04473" lon="5.57076">
        <ele>1556.8</ele>
        <time>2019-08-17T11:09:05Z</time>
      </trkpt>
      <trkpt lat="45.04464" lon="5.57065">
        <ele>1558.8</ele>
        <time>2019-08-17T11:09:14Z</time>
      </trkpt>
      <trkpt lat="45.04459" lon="5.57061">
        <ele>1559.6</ele>
        <time>2019-08-17T11:09:18Z</time>
      </trkpt>
      <trkpt lat="45.04451" lon="5.57056">
        <ele>1560.6</ele>
        <time>2019-08-17T11:09:23Z</time>
      </trkpt>
      <trkpt lat="45.04445" lon="5.57054">
        <ele>1561.4</ele>
        <time>2019-08-17T11:09:27Z</time>
      </trkpt>
      <trkpt lat="45.04439" lon="5.57054">
        <ele>1562</ele>
        <time>2019-08-17T11:09:31Z</time>
      </trkpt>
      <trkpt lat="45.04434" lon="5.57052">
        <ele>1562.6</ele>
        <time>2019-08-17T11:09:35Z</time>
      </trkpt>
      <trkpt lat="45.04421" lon="5.57049">
        <ele>1563.8</ele>
        <time>2019-08-17T11:09:43Z</time>
      </trkpt>
      <trkpt lat="45.04414" lon="5.57041">
        <ele>1564.6</ele>
        <time>2019-08-17T11:09:48Z</time>
      </trkpt>
      <trkpt lat="45.04412" lon="5.57034">
        <ele>1564.8</ele>
        <time>2019-08-17T11:09:51Z</time>
      </trkpt>
      <trkpt lat="45.04406" lon="5.57022">
        <ele>1565.6</ele>
        <time>2019-08-17T11:09:57Z</time>
      </trkpt>
      <trkpt lat="45.04401" lon="5.57011">
        <ele>1566.2</ele>
        <time>2019-08-17T11:10:03Z</time>
      </trkpt>
      <trkpt lat="45.044" lon="5.56998">
        <ele>1566.6</ele>
        <time>2019-08-17T11:12:45Z</time>
      </trkpt>
      <trkpt lat="45.04398" lon="5.56993">
        <ele>1566.6</ele>
        <time>2019-08-17T11:12:48Z</time>
      </trkpt>
      <trkpt lat="45.04395" lon="5.56987">
        <ele>1566.6</ele>
        <time>2019-08-17T11:12:52Z</time>
      </trkpt>
      <trkpt lat="45.04392" lon="5.56976">
        <ele>1566.6</ele>
        <time>2019-08-17T11:12:58Z</time>
      </trkpt>
      <trkpt lat="45.04389" lon="5.5697">
        <ele>1566.8</ele>
        <time>2019-08-17T11:13:02Z</time>
      </trkpt>
      <trkpt lat="45.04386" lon="5.56958">
        <ele>1567.6</ele>
        <time>2019-08-17T11:13:10Z</time>
      </trkpt>
      <trkpt lat="45.0438" lon="5.56959">
        <ele>1568.2</ele>
        <time>2019-08-17T11:13:17Z</time>
      </trkpt>
      <trkpt lat="45.04374" lon="5.56953">
        <ele>1569</ele>
        <time>2019-08-17T11:13:25Z</time>
      </trkpt>
      <trkpt lat="45.04369" lon="5.56954">
        <ele>1569.8</ele>
        <time>2019-08-17T11:13:32Z</time>
      </trkpt>
      <trkpt lat="45.04367" lon="5.56949">
        <ele>1570.4</ele>
        <time>2019-08-17T11:13:36Z</time>
      </trkpt>
      <trkpt lat="45.04356" lon="5.56942">
        <ele>1571.4</ele>
        <time>2019-08-17T11:13:47Z</time>
      </trkpt>
      <trkpt lat="45.04354" lon="5.56938">
        <ele>1571.6</ele>
        <time>2019-08-17T11:13:50Z</time>
      </trkpt>
      <trkpt lat="45.04347" lon="5.56935">
        <ele>1572.2</ele>
        <time>2019-08-17T11:13:57Z</time>
      </trkpt>
      <trkpt lat="45.04342" lon="5.56931">
        <ele>1572.8</ele>
        <time>2019-08-17T11:14:02Z</time>
      </trkpt>
      <trkpt lat="45.04339" lon="5.56927">
        <ele>1573.2</ele>
        <time>2019-08-17T11:14:06Z</time>
      </trkpt>
      <trkpt lat="45.04334" lon="5.56916">
        <ele>1574</ele>
        <time>2019-08-17T11:14:14Z</time>
      </trkpt>
      <trkpt lat="45.04332" lon="5.56909">
        <ele>1574.4</ele>
        <time>2019-08-17T11:14:19Z</time>
      </trkpt>
      <trkpt lat="45.04333" lon="5.569">
        <ele>1575.4</ele>
        <time>2019-08-17T11:14:25Z</time>
      </trkpt>
      <trkpt lat="45.04334" lon="5.56884">
        <ele>1577.2</ele>
        <time>2019-08-17T11:14:35Z</time>
      </trkpt>
      <trkpt lat="45.04334" lon="5.56865">
        <ele>1578.8</ele>
        <time>2019-08-17T11:14:46Z</time>
      </trkpt>
      <trkpt lat="45.04333" lon="5.5686">
        <ele>1579.2</ele>
        <time>2019-08-17T11:14:49Z</time>
      </trkpt>
      <trkpt lat="45.04328" lon="5.56847">
        <ele>1579.8</ele>
        <time>2019-08-17T11:14:58Z</time>
      </trkpt>
      <trkpt lat="45.04321" lon="5.56842">
        <ele>1580.4</ele>
        <time>2019-08-17T11:15:05Z</time>
      </trkpt>
      <trkpt lat="45.04316" lon="5.56841">
        <ele>1580.8</ele>
        <time>2019-08-17T11:15:09Z</time>
      </trkpt>
      <trkpt lat="45.04307" lon="5.56845">
        <ele>1581.6</ele>
        <time>2019-08-17T11:15:19Z</time>
      </trkpt>
      <trkpt lat="45.04297" lon="5.56857">
        <ele>1582.8</ele>
        <time>2019-08-17T11:15:31Z</time>
      </trkpt>
      <trkpt lat="45.04294" lon="5.56859">
        <ele>1583.2</ele>
        <time>2019-08-17T11:15:34Z</time>
      </trkpt>
      <trkpt lat="45.04284" lon="5.56866">
        <ele>1584.8</ele>
        <time>2019-08-17T11:15:45Z</time>
      </trkpt>
      <trkpt lat="45.04281" lon="5.56868">
        <ele>1585.4</ele>
        <time>2019-08-17T11:15:49Z</time>
      </trkpt>
      <trkpt lat="45.04275" lon="5.56875">
        <ele>1586.2</ele>
        <time>2019-08-17T11:15:56Z</time>
      </trkpt>
      <trkpt lat="45.0427" lon="5.56879">
        <ele>1587.2</ele>
        <time>2019-08-17T11:16:02Z</time>
      </trkpt>
      <trkpt lat="45.04262" lon="5.56883">
        <ele>1588.4</ele>
        <time>2019-08-17T11:16:10Z</time>
      </trkpt>
      <trkpt lat="45.04256" lon="5.56885">
        <ele>1589.4</ele>
        <time>2019-08-17T11:16:16Z</time>
      </trkpt>
      <trkpt lat="45.04248" lon="5.56887">
        <ele>1590.8</ele>
        <time>2019-08-17T11:16:23Z</time>
      </trkpt>
      <trkpt lat="45.04242" lon="5.56887">
        <ele>1591.8</ele>
        <time>2019-08-17T11:16:29Z</time>
      </trkpt>
      <trkpt lat="45.04236" lon="5.56891">
        <ele>1593.4</ele>
        <time>2019-08-17T11:16:37Z</time>
      </trkpt>
      <trkpt lat="45.04227" lon="5.56897">
        <ele>1595.6</ele>
        <time>2019-08-17T11:16:47Z</time>
      </trkpt>
      <trkpt lat="45.0422" lon="5.56901">
        <ele>1597.2</ele>
        <time>2019-08-17T11:16:54Z</time>
      </trkpt>
      <trkpt lat="45.04214" lon="5.56905">
        <ele>1598.2</ele>
        <time>2019-08-17T11:17:00Z</time>
      </trkpt>
      <trkpt lat="45.04209" lon="5.56909">
        <ele>1598.8</ele>
        <time>2019-08-17T11:17:05Z</time>
      </trkpt>
      <trkpt lat="45.04203" lon="5.56917">
        <ele>1599.8</ele>
        <time>2019-08-17T11:17:13Z</time>
      </trkpt>
      <trkpt lat="45.04195" lon="5.56927">
        <ele>1600.8</ele>
        <time>2019-08-17T11:17:23Z</time>
      </trkpt>
      <trkpt lat="45.04189" lon="5.56933">
        <ele>1601.6</ele>
        <time>2019-08-17T11:17:30Z</time>
      </trkpt>
      <trkpt lat="45.04182" lon="5.56943">
        <ele>1602.6</ele>
        <time>2019-08-17T11:17:39Z</time>
      </trkpt>
      <trkpt lat="45.04163" lon="5.56975">
        <ele>1451</ele>
        <time>2019-07-14T11:27:35Z</time>
      </trkpt>
      <trkpt lat="45.04163" lon="5.56976">
        <ele>1451</ele>
        <time>2019-07-14T11:27:36Z</time>
      </trkpt>
      <trkpt lat="45.04162" lon="5.56978">
        <ele>1451</ele>
        <time>2019-07-14T11:27:37Z</time>
      </trkpt>
      <trkpt lat="45.0416" lon="5.56979">
        <ele>1451</ele>
        <time>2019-07-14T11:27:38Z</time>
      </trkpt>
      <trkpt lat="45.04159" lon="5.5698">
        <ele>1451</ele>
        <time>2019-07-14T11:27:39Z</time>
      </trkpt>
      <trkpt lat="45.04158" lon="5.56981">
        <ele>1451</ele>
        <time>2019-07-14T11:27:40Z</time>
      </trkpt>
      <trkpt lat="45.04157" lon="5.56983">
        <ele>1451</ele>
        <time>2019-07-14T11:27:41Z</time>
      </trkpt>
      <trkpt lat="45.04155" lon="5.56984">
        <ele>1451</ele>
        <time>2019-07-14T11:27:42Z</time>
      </trkpt>
      <trkpt lat="45.04153" lon="5.56984">
        <ele>1452</ele>
        <time>2019-07-14T11:27:43Z</time>
      </trkpt>
      <trkpt lat="45.04152" lon="5.56985">
        <ele>1452</ele>
        <time>2019-07-14T11:27:44Z</time>
      </trkpt>
      <trkpt lat="45.0415" lon="5.56986">
        <ele>1452</ele>
        <time>2019-07-14T11:27:45Z</time>
      </trkpt>
      <trkpt lat="45.04149" lon="5.56987">
        <ele>1452</ele>
        <time>2019-07-14T11:27:46Z</time>
      </trkpt>
      <trkpt lat="45.04147" lon="5.56987">
        <ele>1452</ele>
        <time>2019-07-14T11:27:47Z</time>
      </trkpt>
      <trkpt lat="45.04145" lon="5.56988">
        <ele>1452</ele>
        <time>2019-07-14T11:27:48Z</time>
      </trkpt>
      <trkpt lat="45.04144" lon="5.56989">
        <ele>1453</ele>
        <time>2019-07-14T11:27:49Z</time>
      </trkpt>
      <trkpt lat="45.04142" lon="5.56989">
        <ele>1453</ele>
        <time>2019-07-14T11:27:50Z</time>
      </trkpt>
      <trkpt lat="45.04141" lon="5.5699">
        <ele>1453</ele>
        <time>2019-07-14T11:27:51Z</time>
      </trkpt>
      <trkpt lat="45.04139" lon="5.56991">
        <ele>1453</ele>
        <time>2019-07-14T11:27:52Z</time>
      </trkpt>
      <trkpt lat="45.04137" lon="5.56992">
        <ele>1453</ele>
        <time>2019-07-14T11:27:53Z</time>
      </trkpt>
      <trkpt lat="45.04136" lon="5.56992">
        <ele>1454</ele>
        <time>2019-07-14T11:27:54Z</time>
      </trkpt>
      <trkpt lat="45.04134" lon="5.56992">
        <ele>1454</ele>
        <time>2019-07-14T11:27:55Z</time>
      </trkpt>
      <trkpt lat="45.04132" lon="5.56993">
        <ele>1454</ele>
        <time>2019-07-14T11:27:56Z</time>
      </trkpt>
      <trkpt lat="45.04131" lon="5.56993">
        <ele>1454</ele>
        <time>2019-07-14T11:27:57Z</time>
      </trkpt>
      <trkpt lat="45.04129" lon="5.56993">
        <ele>1455</ele>
        <time>2019-07-14T11:27:58Z</time>
      </trkpt>
      <trkpt lat="45.04128" lon="5.56993">
        <ele>1455</ele>
        <time>2019-07-14T11:27:59Z</time>
      </trkpt>
      <trkpt lat="45.04125" lon="5.56992">
        <ele>1455</ele>
        <time>2019-07-14T11:28:01Z</time>
      </trkpt>
      <trkpt lat="45.04123" lon="5.56992">
        <ele>1456</ele>
        <time>2019-07-14T11:28:02Z</time>
      </trkpt>
      <trkpt lat="45.04121" lon="5.56992">
        <ele>1456</ele>
        <time>2019-07-14T11:28:03Z</time>
      </trkpt>
      <trkpt lat="45.0412" lon="5.56992">
        <ele>1456</ele>
        <time>2019-07-14T11:28:04Z</time>
      </trkpt>
      <trkpt lat="45.04118" lon="5.56992">
        <ele>1457</ele>
        <time>2019-07-14T11:28:05Z</time>
      </trkpt>
      <trkpt lat="45.04117" lon="5.56992">
        <ele>1457</ele>
        <time>2019-07-14T11:28:06Z</time>
      </trkpt>
      <trkpt lat="45.04116" lon="5.56992">
        <ele>1457</ele>
        <time>2019-07-14T11:28:07Z</time>
      </trkpt>
      <trkpt lat="45.04115" lon="5.56991">
        <ele>1457</ele>
        <time>2019-07-14T11:28:08Z</time>
      </trkpt>
      <trkpt lat="45.04113" lon="5.56991">
        <ele>1457</ele>
        <time>2019-07-14T11:28:09Z</time>
      </trkpt>
      <trkpt lat="45.04113" lon="5.5699">
        <ele>1458</ele>
        <time>2019-07-14T11:28:10Z</time>
      </trkpt>
      <trkpt lat="45.04112" lon="5.5699">
        <ele>1458</ele>
        <time>2019-07-14T11:28:11Z</time>
      </trkpt>
      <trkpt lat="45.04112" lon="5.5699">
        <ele>1458</ele>
        <time>2019-07-14T11:28:12Z</time>
      </trkpt>
      <trkpt lat="45.04111" lon="5.56989">
        <ele>1458</ele>
        <time>2019-07-14T11:28:13Z</time>
      </trkpt>
      <trkpt lat="45.04111" lon="5.56988">
        <ele>1458</ele>
        <time>2019-07-14T11:28:40Z</time>
      </trkpt>
      <trkpt lat="45.0411" lon="5.56986">
        <ele>1458</ele>
        <time>2019-07-14T11:28:41Z</time>
      </trkpt>
      <trkpt lat="45.04109" lon="5.56985">
        <ele>1458</ele>
        <time>2019-07-14T11:28:42Z</time>
      </trkpt>
      <trkpt lat="45.04108" lon="5.56983">
        <ele>1458</ele>
        <time>2019-07-14T11:28:43Z</time>
      </trkpt>
      <trkpt lat="45.04107" lon="5.56982">
        <ele>1458</ele>
        <time>2019-07-14T11:28:44Z</time>
      </trkpt>
      <trkpt lat="45.04106" lon="5.56981">
        <ele>1458</ele>
        <time>2019-07-14T11:28:45Z</time>
      </trkpt>
      <trkpt lat="45.04105" lon="5.56979">
        <ele>1458</ele>
        <time>2019-07-14T11:28:46Z</time>
      </trkpt>
      <trkpt lat="45.04104" lon="5.56978">
        <ele>1458</ele>
        <time>2019-07-14T11:28:47Z</time>
      </trkpt>
      <trkpt lat="45.04103" lon="5.56977">
        <ele>1458</ele>
        <time>2019-07-14T11:28:48Z</time>
      </trkpt>
      <trkpt lat="45.04102" lon="5.56975">
        <ele>1458</ele>
        <time>2019-07-14T11:28:49Z</time>
      </trkpt>
      <trkpt lat="45.041" lon="5.56974">
        <ele>1458</ele>
        <time>2019-07-14T11:28:50Z</time>
      </trkpt>
      <trkpt lat="45.04099" lon="5.56974">
        <ele>1458</ele>
        <time>2019-07-14T11:28:51Z</time>
      </trkpt>
      <trkpt lat="45.04098" lon="5.56973">
        <ele>1458</ele>
        <time>2019-07-14T11:28:52Z</time>
      </trkpt>
      <trkpt lat="45.04097" lon="5.56972">
        <ele>1458</ele>
        <time>2019-07-14T11:28:53Z</time>
      </trkpt>
      <trkpt lat="45.04096" lon="5.5697">
        <ele>1458</ele>
        <time>2019-07-14T11:28:54Z</time>
      </trkpt>
      <trkpt lat="45.04094" lon="5.5697">
        <ele>1458</ele>
        <time>2019-07-14T11:28:55Z</time>
      </trkpt>
      <trkpt lat="45.04092" lon="5.56969">
        <ele>1458</ele>
        <time>2019-07-14T11:28:56Z</time>
      </trkpt>
      <trkpt lat="45.04091" lon="5.56969">
        <ele>1458</ele>
        <time>2019-07-14T11:28:57Z</time>
      </trkpt>
      <trkpt lat="45.0409" lon="5.56968">
        <ele>1458</ele>
        <time>2019-07-14T11:28:58Z</time>
      </trkpt>
      <trkpt lat="45.04089" lon="5.56967">
        <ele>1458</ele>
        <time>2019-07-14T11:28:59Z</time>
      </trkpt>
      <trkpt lat="45.04087" lon="5.56966">
        <ele>1458</ele>
        <time>2019-07-14T11:29:00Z</time>
      </trkpt>
      <trkpt lat="45.04085" lon="5.56965">
        <ele>1458</ele>
        <time>2019-07-14T11:29:01Z</time>
      </trkpt>
      <trkpt lat="45.04084" lon="5.56964">
        <ele>1458</ele>
        <time>2019-07-14T11:29:02Z</time>
      </trkpt>
      <trkpt lat="45.04082" lon="5.56964">
        <ele>1471</ele>
        <time>2019-07-14T11:29:03Z</time>
      </trkpt>
      <trkpt lat="45.0408" lon="5.56963">
        <ele>1471</ele>
        <time>2019-07-14T11:29:04Z</time>
      </trkpt>
      <trkpt lat="45.04079" lon="5.56963">
        <ele>1471</ele>
        <time>2019-07-14T11:29:05Z</time>
      </trkpt>
      <trkpt lat="45.04077" lon="5.56962">
        <ele>1471</ele>
        <time>2019-07-14T11:29:06Z</time>
      </trkpt>
      <trkpt lat="45.04075" lon="5.5696">
        <ele>1471</ele>
        <time>2019-07-14T11:29:07Z</time>
      </trkpt>
      <trkpt lat="45.04074" lon="5.56959">
        <ele>1471</ele>
        <time>2019-07-14T11:29:08Z</time>
      </trkpt>
      <trkpt lat="45.04073" lon="5.56958">
        <ele>1471</ele>
        <time>2019-07-14T11:29:09Z</time>
      </trkpt>
      <trkpt lat="45.04071" lon="5.56957">
        <ele>1471</ele>
        <time>2019-07-14T11:29:10Z</time>
      </trkpt>
      <trkpt lat="45.04069" lon="5.56956">
        <ele>1471</ele>
        <time>2019-07-14T11:29:11Z</time>
      </trkpt>
      <trkpt lat="45.04068" lon="5.56956">
        <ele>1471</ele>
        <time>2019-07-14T11:29:12Z</time>
      </trkpt>
      <trkpt lat="45.04067" lon="5.56955">
        <ele>1471</ele>
        <time>2019-07-14T11:29:13Z</time>
      </trkpt>
      <trkpt lat="45.04065" lon="5.56955">
        <ele>1472</ele>
        <time>2019-07-14T11:29:14Z</time>
      </trkpt>
      <trkpt lat="45.04063" lon="5.56954">
        <ele>1472</ele>
        <time>2019-07-14T11:29:15Z</time>
      </trkpt>
      <trkpt lat="45.04062" lon="5.56953">
        <ele>1472</ele>
        <time>2019-07-14T11:29:16Z</time>
      </trkpt>
      <trkpt lat="45.0406" lon="5.56952">
        <ele>1472</ele>
        <time>2019-07-14T11:29:17Z</time>
      </trkpt>
      <trkpt lat="45.04059" lon="5.56951">
        <ele>1472</ele>
        <time>2019-07-14T11:29:18Z</time>
      </trkpt>
      <trkpt lat="45.04057" lon="5.56951">
        <ele>1472</ele>
        <time>2019-07-14T11:29:19Z</time>
      </trkpt>
      <trkpt lat="45.04055" lon="5.5695">
        <ele>1473</ele>
        <time>2019-07-14T11:29:20Z</time>
      </trkpt>
      <trkpt lat="45.04053" lon="5.5695">
        <ele>1473</ele>
        <time>2019-07-14T11:29:21Z</time>
      </trkpt>
      <trkpt lat="45.04052" lon="5.56949">
        <ele>1473</ele>
        <time>2019-07-14T11:29:22Z</time>
      </trkpt>
      <trkpt lat="45.04051" lon="5.56948">
        <ele>1473</ele>
        <time>2019-07-14T11:29:23Z</time>
      </trkpt>
      <trkpt lat="45.0405" lon="5.56947">
        <ele>1473</ele>
        <time>2019-07-14T11:29:24Z</time>
      </trkpt>
      <trkpt lat="45.04048" lon="5.56945">
        <ele>1473</ele>
        <time>2019-07-14T11:29:25Z</time>
      </trkpt>
      <trkpt lat="45.04047" lon="5.56944">
        <ele>1473</ele>
        <time>2019-07-14T11:29:26Z</time>
      </trkpt>
      <trkpt lat="45.04046" lon="5.56942">
        <ele>1473</ele>
        <time>2019-07-14T11:29:27Z</time>
      </trkpt>
      <trkpt lat="45.04044" lon="5.5694">
        <ele>1474</ele>
        <time>2019-07-14T11:29:28Z</time>
      </trkpt>
      <trkpt lat="45.04044" lon="5.56939">
        <ele>1474</ele>
        <time>2019-07-14T11:29:29Z</time>
      </trkpt>
      <trkpt lat="45.04042" lon="5.56937">
        <ele>1474</ele>
        <time>2019-07-14T11:29:30Z</time>
      </trkpt>
      <trkpt lat="45.04041" lon="5.56935">
        <ele>1474</ele>
        <time>2019-07-14T11:29:31Z</time>
      </trkpt>
      <trkpt lat="45.0404" lon="5.56933">
        <ele>1474</ele>
        <time>2019-07-14T11:29:32Z</time>
      </trkpt>
      <trkpt lat="45.04039" lon="5.56932">
        <ele>1474</ele>
        <time>2019-07-14T11:29:33Z</time>
      </trkpt>
      <trkpt lat="45.04039" lon="5.5693">
        <ele>1474</ele>
        <time>2019-07-14T11:29:34Z</time>
      </trkpt>
      <trkpt lat="45.04038" lon="5.56929">
        <ele>1474</ele>
        <time>2019-07-14T11:29:35Z</time>
      </trkpt>
      <trkpt lat="45.04037" lon="5.56927">
        <ele>1474</ele>
        <time>2019-07-14T11:29:36Z</time>
      </trkpt>
      <trkpt lat="45.04036" lon="5.56925">
        <ele>1474</ele>
        <time>2019-07-14T11:29:37Z</time>
      </trkpt>
      <trkpt lat="45.04035" lon="5.56923">
        <ele>1475</ele>
        <time>2019-07-14T11:29:38Z</time>
      </trkpt>
      <trkpt lat="45.04034" lon="5.56921">
        <ele>1475</ele>
        <time>2019-07-14T11:29:39Z</time>
      </trkpt>
      <trkpt lat="45.04034" lon="5.5692">
        <ele>1475</ele>
        <time>2019-07-14T11:29:40Z</time>
      </trkpt>
      <trkpt lat="45.04033" lon="5.56918">
        <ele>1475</ele>
        <time>2019-07-14T11:29:41Z</time>
      </trkpt>
      <trkpt lat="45.04032" lon="5.56916">
        <ele>1470</ele>
        <time>2019-07-14T11:29:42Z</time>
      </trkpt>
      <trkpt lat="45.04031" lon="5.56915">
        <ele>1470</ele>
        <time>2019-07-14T11:29:43Z</time>
      </trkpt>
      <trkpt lat="45.04031" lon="5.56913">
        <ele>1470</ele>
        <time>2019-07-14T11:29:44Z</time>
      </trkpt>
      <trkpt lat="45.0403" lon="5.56911">
        <ele>1470</ele>
        <time>2019-07-14T11:29:45Z</time>
      </trkpt>
      <trkpt lat="45.04029" lon="5.56909">
        <ele>1471</ele>
        <time>2019-07-14T11:29:46Z</time>
      </trkpt>
      <trkpt lat="45.04028" lon="5.56907">
        <ele>1471</ele>
        <time>2019-07-14T11:29:47Z</time>
      </trkpt>
      <trkpt lat="45.04028" lon="5.56905">
        <ele>1471</ele>
        <time>2019-07-14T11:29:48Z</time>
      </trkpt>
      <trkpt lat="45.04027" lon="5.56903">
        <ele>1471</ele>
        <time>2019-07-14T11:29:49Z</time>
      </trkpt>
      <trkpt lat="45.04026" lon="5.56901">
        <ele>1471</ele>
        <time>2019-07-14T11:29:50Z</time>
      </trkpt>
      <trkpt lat="45.04026" lon="5.56899">
        <ele>1470</ele>
        <time>2019-07-14T11:29:51Z</time>
      </trkpt>
      <trkpt lat="45.04025" lon="5.56897">
        <ele>1470</ele>
        <time>2019-07-14T11:29:52Z</time>
      </trkpt>
      <trkpt lat="45.04024" lon="5.56895">
        <ele>1470</ele>
        <time>2019-07-14T11:29:53Z</time>
      </trkpt>
      <trkpt lat="45.04023" lon="5.56893">
        <ele>1470</ele>
        <time>2019-07-14T11:29:54Z</time>
      </trkpt>
      <trkpt lat="45.04023" lon="5.56891">
        <ele>1470</ele>
        <time>2019-07-14T11:29:55Z</time>
      </trkpt>
      <trkpt lat="45.04022" lon="5.5689">
        <ele>1470</ele>
        <time>2019-07-14T11:29:56Z</time>
      </trkpt>
      <trkpt lat="45.04021" lon="5.56888">
        <ele>1470</ele>
        <time>2019-07-14T11:29:57Z</time>
      </trkpt>
      <trkpt lat="45.04021" lon="5.56886">
        <ele>1470</ele>
        <time>2019-07-14T11:29:58Z</time>
      </trkpt>
      <trkpt lat="45.0402" lon="5.56884">
        <ele>1470</ele>
        <time>2019-07-14T11:29:59Z</time>
      </trkpt>
      <trkpt lat="45.04018" lon="5.56882">
        <ele>1470</ele>
        <time>2019-07-14T11:30:00Z</time>
      </trkpt>
      <trkpt lat="45.04017" lon="5.5688">
        <ele>1470</ele>
        <time>2019-07-14T11:30:01Z</time>
      </trkpt>
      <trkpt lat="45.04016" lon="5.56879">
        <ele>1470</ele>
        <time>2019-07-14T11:30:02Z</time>
      </trkpt>
      <trkpt lat="45.04015" lon="5.56877">
        <ele>1470</ele>
        <time>2019-07-14T11:30:03Z</time>
      </trkpt>
      <trkpt lat="45.04014" lon="5.56875">
        <ele>1470</ele>
        <time>2019-07-14T11:30:04Z</time>
      </trkpt>
      <trkpt lat="45.04013" lon="5.56873">
        <ele>1470</ele>
        <time>2019-07-14T11:30:05Z</time>
      </trkpt>
      <trkpt lat="45.04012" lon="5.56871">
        <ele>1470</ele>
        <time>2019-07-14T11:30:06Z</time>
      </trkpt>
      <trkpt lat="45.04011" lon="5.5687">
        <ele>1471</ele>
        <time>2019-07-14T11:30:07Z</time>
      </trkpt>
      <trkpt lat="45.04009" lon="5.56868">
        <ele>1471</ele>
        <time>2019-07-14T11:30:08Z</time>
      </trkpt>
      <trkpt lat="45.04008" lon="5.56866">
        <ele>1471</ele>
        <time>2019-07-14T11:30:09Z</time>
      </trkpt>
      <trkpt lat="45.04007" lon="5.56865">
        <ele>1471</ele>
        <time>2019-07-14T11:30:10Z</time>
      </trkpt>
      <trkpt lat="45.04005" lon="5.56864">
        <ele>1471</ele>
        <time>2019-07-14T11:30:11Z</time>
      </trkpt>
      <trkpt lat="45.04004" lon="5.56862">
        <ele>1471</ele>
        <time>2019-07-14T11:30:12Z</time>
      </trkpt>
      <trkpt lat="45.04002" lon="5.56861">
        <ele>1471</ele>
        <time>2019-07-14T11:30:13Z</time>
      </trkpt>
      <trkpt lat="45.04001" lon="5.5686">
        <ele>1472</ele>
        <time>2019-07-14T11:30:14Z</time>
      </trkpt>
      <trkpt lat="45.03999" lon="5.56859">
        <ele>1484</ele>
        <time>2019-07-14T11:30:15Z</time>
      </trkpt>
      <trkpt lat="45.03997" lon="5.56858">
        <ele>1484</ele>
        <time>2019-07-14T11:30:16Z</time>
      </trkpt>
      <trkpt lat="45.03996" lon="5.56857">
        <ele>1483</ele>
        <time>2019-07-14T11:30:17Z</time>
      </trkpt>
      <trkpt lat="45.03994" lon="5.56856">
        <ele>1483</ele>
        <time>2019-07-14T11:30:18Z</time>
      </trkpt>
      <trkpt lat="45.03992" lon="5.56855">
        <ele>1484</ele>
        <time>2019-07-14T11:30:19Z</time>
      </trkpt>
      <trkpt lat="45.0399" lon="5.56854">
        <ele>1484</ele>
        <time>2019-07-14T11:30:20Z</time>
      </trkpt>
      <trkpt lat="45.03988" lon="5.56853">
        <ele>1484</ele>
        <time>2019-07-14T11:30:21Z</time>
      </trkpt>
      <trkpt lat="45.03986" lon="5.56852">
        <ele>1484</ele>
        <time>2019-07-14T11:30:22Z</time>
      </trkpt>
      <trkpt lat="45.03985" lon="5.56851">
        <ele>1484</ele>
        <time>2019-07-14T11:30:23Z</time>
      </trkpt>
      <trkpt lat="45.03983" lon="5.5685">
        <ele>1484</ele>
        <time>2019-07-14T11:30:24Z</time>
      </trkpt>
      <trkpt lat="45.03981" lon="5.56848">
        <ele>1484</ele>
        <time>2019-07-14T11:30:25Z</time>
      </trkpt>
      <trkpt lat="45.03979" lon="5.56847">
        <ele>1484</ele>
        <time>2019-07-14T11:30:26Z</time>
      </trkpt>
      <trkpt lat="45.03977" lon="5.56845">
        <ele>1484</ele>
        <time>2019-07-14T11:30:27Z</time>
      </trkpt>
      <trkpt lat="45.03975" lon="5.56843">
        <ele>1484</ele>
        <time>2019-07-14T11:30:28Z</time>
      </trkpt>
      <trkpt lat="45.03974" lon="5.56841">
        <ele>1485</ele>
        <time>2019-07-14T11:30:29Z</time>
      </trkpt>
      <trkpt lat="45.03972" lon="5.56839">
        <ele>1485</ele>
        <time>2019-07-14T11:30:30Z</time>
      </trkpt>
      <trkpt lat="45.0397" lon="5.56838">
        <ele>1485</ele>
        <time>2019-07-14T11:30:31Z</time>
      </trkpt>
      <trkpt lat="45.03968" lon="5.56837">
        <ele>1485</ele>
        <time>2019-07-14T11:30:32Z</time>
      </trkpt>
      <trkpt lat="45.03967" lon="5.56836">
        <ele>1485</ele>
        <time>2019-07-14T11:30:33Z</time>
      </trkpt>
      <trkpt lat="45.03965" lon="5.56836">
        <ele>1486</ele>
        <time>2019-07-14T11:30:34Z</time>
      </trkpt>
      <trkpt lat="45.03963" lon="5.56836">
        <ele>1486</ele>
        <time>2019-07-14T11:30:35Z</time>
      </trkpt>
      <trkpt lat="45.03961" lon="5.56837">
        <ele>1486</ele>
        <time>2019-07-14T11:30:36Z</time>
      </trkpt>
      <trkpt lat="45.03959" lon="5.56837">
        <ele>1486</ele>
        <time>2019-07-14T11:30:37Z</time>
      </trkpt>
      <trkpt lat="45.03958" lon="5.56838">
        <ele>1486</ele>
        <time>2019-07-14T11:30:38Z</time>
      </trkpt>
      <trkpt lat="45.03956" lon="5.56839">
        <ele>1487</ele>
        <time>2019-07-14T11:30:39Z</time>
      </trkpt>
      <trkpt lat="45.03955" lon="5.5684">
        <ele>1487</ele>
        <time>2019-07-14T11:30:40Z</time>
      </trkpt>
      <trkpt lat="45.03954" lon="5.56842">
        <ele>1487</ele>
        <time>2019-07-14T11:30:41Z</time>
      </trkpt>
      <trkpt lat="45.03953" lon="5.56843">
        <ele>1487</ele>
        <time>2019-07-14T11:30:42Z</time>
      </trkpt>
      <trkpt lat="45.03952" lon="5.56845">
        <ele>1487</ele>
        <time>2019-07-14T11:30:43Z</time>
      </trkpt>
      <trkpt lat="45.03951" lon="5.56846">
        <ele>1487</ele>
        <time>2019-07-14T11:30:44Z</time>
      </trkpt>
      <trkpt lat="45.0395" lon="5.56848">
        <ele>1487</ele>
        <time>2019-07-14T11:30:45Z</time>
      </trkpt>
      <trkpt lat="45.0395" lon="5.5685">
        <ele>1488</ele>
        <time>2019-07-14T11:30:46Z</time>
      </trkpt>
      <trkpt lat="45.03949" lon="5.56852">
        <ele>1488</ele>
        <time>2019-07-14T11:30:47Z</time>
      </trkpt>
      <trkpt lat="45.03949" lon="5.56854">
        <ele>1488</ele>
        <time>2019-07-14T11:30:48Z</time>
      </trkpt>
      <trkpt lat="45.03949" lon="5.56858">
        <ele>1488</ele>
        <time>2019-07-14T11:30:50Z</time>
      </trkpt>
      <trkpt lat="45.03948" lon="5.5686">
        <ele>1488</ele>
        <time>2019-07-14T11:30:51Z</time>
      </trkpt>
      <trkpt lat="45.03948" lon="5.56864">
        <ele>1488</ele>
        <time>2019-07-14T11:30:53Z</time>
      </trkpt>
      <trkpt lat="45.03947" lon="5.5687">
        <ele>1488</ele>
        <time>2019-07-14T11:30:56Z</time>
      </trkpt>
      <trkpt lat="45.03947" lon="5.56872">
        <ele>1489</ele>
        <time>2019-07-14T11:30:57Z</time>
      </trkpt>
      <trkpt lat="45.03946" lon="5.56874">
        <ele>1489</ele>
        <time>2019-07-14T11:30:58Z</time>
      </trkpt>
      <trkpt lat="45.03946" lon="5.56877">
        <ele>1489</ele>
        <time>2019-07-14T11:31:00Z</time>
      </trkpt>
      <trkpt lat="45.03946" lon="5.56879">
        <ele>1489</ele>
        <time>2019-07-14T11:31:01Z</time>
      </trkpt>
      <trkpt lat="45.03945" lon="5.56883">
        <ele>1489</ele>
        <time>2019-07-14T11:31:03Z</time>
      </trkpt>
      <trkpt lat="45.03945" lon="5.56887">
        <ele>1490</ele>
        <time>2019-07-14T11:31:05Z</time>
      </trkpt>
      <trkpt lat="45.03944" lon="5.56889">
        <ele>1490</ele>
        <time>2019-07-14T11:31:06Z</time>
      </trkpt>
      <trkpt lat="45.03944" lon="5.56891">
        <ele>1490</ele>
        <time>2019-07-14T11:31:07Z</time>
      </trkpt>
      <trkpt lat="45.03944" lon="5.569">
        <ele>1491</ele>
        <time>2019-07-14T11:31:11Z</time>
      </trkpt>
      <trkpt lat="45.03944" lon="5.56904">
        <ele>1491</ele>
        <time>2019-07-14T11:31:13Z</time>
      </trkpt>
      <trkpt lat="45.03943" lon="5.56906">
        <ele>1492</ele>
        <time>2019-07-14T11:31:14Z</time>
      </trkpt>
      <trkpt lat="45.03943" lon="5.56908">
        <ele>1492</ele>
        <time>2019-07-14T11:31:15Z</time>
      </trkpt>
      <trkpt lat="45.03943" lon="5.56915">
        <ele>1492</ele>
        <time>2019-07-14T11:31:18Z</time>
      </trkpt>
      <trkpt lat="45.03944" lon="5.56932">
        <ele>1498</ele>
        <time>2019-07-14T11:31:25Z</time>
      </trkpt>
      <trkpt lat="45.03944" lon="5.56935">
        <ele>1498</ele>
        <time>2019-07-14T11:31:26Z</time>
      </trkpt>
      <trkpt lat="45.03944" lon="5.56937">
        <ele>1498</ele>
        <time>2019-07-14T11:31:27Z</time>
      </trkpt>
      <trkpt lat="45.03945" lon="5.5694">
        <ele>1498</ele>
        <time>2019-07-14T11:31:28Z</time>
      </trkpt>
      <trkpt lat="45.03945" lon="5.56945">
        <ele>1498</ele>
        <time>2019-07-14T11:31:30Z</time>
      </trkpt>
      <trkpt lat="45.03946" lon="5.56948">
        <ele>1498</ele>
        <time>2019-07-14T11:31:31Z</time>
      </trkpt>
      <trkpt lat="45.03946" lon="5.5695">
        <ele>1498</ele>
        <time>2019-07-14T11:31:32Z</time>
      </trkpt>
      <trkpt lat="45.03946" lon="5.56953">
        <ele>1498</ele>
        <time>2019-07-14T11:31:33Z</time>
      </trkpt>
      <trkpt lat="45.03947" lon="5.56955">
        <ele>1498</ele>
        <time>2019-07-14T11:31:34Z</time>
      </trkpt>
      <trkpt lat="45.03947" lon="5.56957">
        <ele>1498</ele>
        <time>2019-07-14T11:31:35Z</time>
      </trkpt>
      <trkpt lat="45.03948" lon="5.56959">
        <ele>1499</ele>
        <time>2019-07-14T11:31:36Z</time>
      </trkpt>
      <trkpt lat="45.03949" lon="5.56961">
        <ele>1499</ele>
        <time>2019-07-14T11:31:37Z</time>
      </trkpt>
      <trkpt lat="45.03949" lon="5.56965">
        <ele>1499</ele>
        <time>2019-07-14T11:31:39Z</time>
      </trkpt>
      <trkpt lat="45.0395" lon="5.56967">
        <ele>1499</ele>
        <time>2019-07-14T11:31:40Z</time>
      </trkpt>
      <trkpt lat="45.0395" lon="5.56969">
        <ele>1499</ele>
        <time>2019-07-14T11:31:41Z</time>
      </trkpt>
      <trkpt lat="45.03951" lon="5.56971">
        <ele>1499</ele>
        <time>2019-07-14T11:31:42Z</time>
      </trkpt>
      <trkpt lat="45.03951" lon="5.56974">
        <ele>1499</ele>
        <time>2019-07-14T11:31:43Z</time>
      </trkpt>
      <trkpt lat="45.03951" lon="5.56976">
        <ele>1499</ele>
        <time>2019-07-14T11:31:44Z</time>
      </trkpt>
      <trkpt lat="45.03952" lon="5.56978">
        <ele>1500</ele>
        <time>2019-07-14T11:31:45Z</time>
      </trkpt>
      <trkpt lat="45.03952" lon="5.56981">
        <ele>1500</ele>
        <time>2019-07-14T11:31:46Z</time>
      </trkpt>
      <trkpt lat="45.03953" lon="5.56983">
        <ele>1500</ele>
        <time>2019-07-14T11:31:47Z</time>
      </trkpt>
      <trkpt lat="45.03954" lon="5.56985">
        <ele>1500</ele>
        <time>2019-07-14T11:31:48Z</time>
      </trkpt>
      <trkpt lat="45.03954" lon="5.56988">
        <ele>1500</ele>
        <time>2019-07-14T11:31:49Z</time>
      </trkpt>
      <trkpt lat="45.03954" lon="5.5699">
        <ele>1500</ele>
        <time>2019-07-14T11:31:50Z</time>
      </trkpt>
      <trkpt lat="45.03955" lon="5.56992">
        <ele>1500</ele>
        <time>2019-07-14T11:31:51Z</time>
      </trkpt>
      <trkpt lat="45.03955" lon="5.56995">
        <ele>1500</ele>
        <time>2019-07-14T11:31:52Z</time>
      </trkpt>
      <trkpt lat="45.03956" lon="5.56997">
        <ele>1500</ele>
        <time>2019-07-14T11:31:53Z</time>
      </trkpt>
      <trkpt lat="45.03956" lon="5.56999">
        <ele>1500</ele>
        <time>2019-07-14T11:31:54Z</time>
      </trkpt>
      <trkpt lat="45.03956" lon="5.57001">
        <ele>1505</ele>
        <time>2019-07-14T11:31:55Z</time>
      </trkpt>
      <trkpt lat="45.03957" lon="5.57004">
        <ele>1505</ele>
        <time>2019-07-14T11:31:56Z</time>
      </trkpt>
      <trkpt lat="45.03957" lon="5.57006">
        <ele>1505</ele>
        <time>2019-07-14T11:31:57Z</time>
      </trkpt>
      <trkpt lat="45.03957" lon="5.57013">
        <ele>1505</ele>
        <time>2019-07-14T11:32:00Z</time>
      </trkpt>
      <trkpt lat="45.03958" lon="5.57016">
        <ele>1505</ele>
        <time>2019-07-14T11:32:01Z</time>
      </trkpt>
      <trkpt lat="45.03958" lon="5.57018">
        <ele>1505</ele>
        <time>2019-07-14T11:32:02Z</time>
      </trkpt>
      <trkpt lat="45.03959" lon="5.57021">
        <ele>1505</ele>
        <time>2019-07-14T11:32:03Z</time>
      </trkpt>
      <trkpt lat="45.03959" lon="5.57022">
        <ele>1505</ele>
        <time>2019-07-14T11:32:04Z</time>
      </trkpt>
      <trkpt lat="45.0396" lon="5.57025">
        <ele>1505</ele>
        <time>2019-07-14T11:32:05Z</time>
      </trkpt>
      <trkpt lat="45.0396" lon="5.57027">
        <ele>1505</ele>
        <time>2019-07-14T11:32:06Z</time>
      </trkpt>
      <trkpt lat="45.0396" lon="5.5703">
        <ele>1505</ele>
        <time>2019-07-14T11:32:07Z</time>
      </trkpt>
      <trkpt lat="45.0396" lon="5.57032">
        <ele>1505</ele>
        <time>2019-07-14T11:32:08Z</time>
      </trkpt>
      <trkpt lat="45.03959" lon="5.57034">
        <ele>1505</ele>
        <time>2019-07-14T11:32:09Z</time>
      </trkpt>
      <trkpt lat="45.03959" lon="5.57036">
        <ele>1506</ele>
        <time>2019-07-14T11:32:10Z</time>
      </trkpt>
      <trkpt lat="45.03957" lon="5.57037">
        <ele>1506</ele>
        <time>2019-07-14T11:32:11Z</time>
      </trkpt>
      <trkpt lat="45.03956" lon="5.57039">
        <ele>1506</ele>
        <time>2019-07-14T11:32:12Z</time>
      </trkpt>
      <trkpt lat="45.03956" lon="5.57041">
        <ele>1506</ele>
        <time>2019-07-14T11:32:13Z</time>
      </trkpt>
      <trkpt lat="45.03954" lon="5.57043">
        <ele>1506</ele>
        <time>2019-07-14T11:32:14Z</time>
      </trkpt>
      <trkpt lat="45.03953" lon="5.57044">
        <ele>1506</ele>
        <time>2019-07-14T11:32:15Z</time>
      </trkpt>
      <trkpt lat="45.03952" lon="5.57046">
        <ele>1507</ele>
        <time>2019-07-14T11:32:16Z</time>
      </trkpt>
      <trkpt lat="45.03951" lon="5.57047">
        <ele>1507</ele>
        <time>2019-07-14T11:32:17Z</time>
      </trkpt>
      <trkpt lat="45.0395" lon="5.57048">
        <ele>1507</ele>
        <time>2019-07-14T11:32:18Z</time>
      </trkpt>
      <trkpt lat="45.03948" lon="5.5705">
        <ele>1507</ele>
        <time>2019-07-14T11:32:19Z</time>
      </trkpt>
      <trkpt lat="45.03947" lon="5.57051">
        <ele>1507</ele>
        <time>2019-07-14T11:32:20Z</time>
      </trkpt>
      <trkpt lat="45.03945" lon="5.57052">
        <ele>1508</ele>
        <time>2019-07-14T11:32:21Z</time>
      </trkpt>
      <trkpt lat="45.03944" lon="5.57052">
        <ele>1508</ele>
        <time>2019-07-14T11:32:22Z</time>
      </trkpt>
      <trkpt lat="45.03942" lon="5.57051">
        <ele>1508</ele>
        <time>2019-07-14T11:32:23Z</time>
      </trkpt>
      <trkpt lat="45.0394" lon="5.5705">
        <ele>1508</ele>
        <time>2019-07-14T11:32:24Z</time>
      </trkpt>
      <trkpt lat="45.03938" lon="5.57048">
        <ele>1508</ele>
        <time>2019-07-14T11:32:25Z</time>
      </trkpt>
      <trkpt lat="45.03937" lon="5.57047">
        <ele>1508</ele>
        <time>2019-07-14T11:32:26Z</time>
      </trkpt>
      <trkpt lat="45.03936" lon="5.57045">
        <ele>1508</ele>
        <time>2019-07-14T11:32:27Z</time>
      </trkpt>
      <trkpt lat="45.03935" lon="5.57043">
        <ele>1508</ele>
        <time>2019-07-14T11:32:28Z</time>
      </trkpt>
      <trkpt lat="45.03935" lon="5.57041">
        <ele>1508</ele>
        <time>2019-07-14T11:32:29Z</time>
      </trkpt>
      <trkpt lat="45.03934" lon="5.57038">
        <ele>1508</ele>
        <time>2019-07-14T11:32:30Z</time>
      </trkpt>
      <trkpt lat="45.03934" lon="5.57036">
        <ele>1508</ele>
        <time>2019-07-14T11:32:31Z</time>
      </trkpt>
      <trkpt lat="45.03934" lon="5.57034">
        <ele>1508</ele>
        <time>2019-07-14T11:32:32Z</time>
      </trkpt>
      <trkpt lat="45.03935" lon="5.57032">
        <ele>1508</ele>
        <time>2019-07-14T11:32:33Z</time>
      </trkpt>
      <trkpt lat="45.03934" lon="5.57025">
        <ele>1508</ele>
        <time>2019-07-14T11:32:36Z</time>
      </trkpt>
      <trkpt lat="45.03933" lon="5.57023">
        <ele>1508</ele>
        <time>2019-07-14T11:32:37Z</time>
      </trkpt>
      <trkpt lat="45.03933" lon="5.57021">
        <ele>1509</ele>
        <time>2019-07-14T11:32:38Z</time>
      </trkpt>
      <trkpt lat="45.03931" lon="5.57019">
        <ele>1509</ele>
        <time>2019-07-14T11:32:39Z</time>
      </trkpt>
      <trkpt lat="45.0393" lon="5.57017">
        <ele>1509</ele>
        <time>2019-07-14T11:32:40Z</time>
      </trkpt>
      <trkpt lat="45.03929" lon="5.57015">
        <ele>1509</ele>
        <time>2019-07-14T11:32:41Z</time>
      </trkpt>
      <trkpt lat="45.03927" lon="5.57013">
        <ele>1510</ele>
        <time>2019-07-14T11:32:42Z</time>
      </trkpt>
      <trkpt lat="45.03926" lon="5.57011">
        <ele>1510</ele>
        <time>2019-07-14T11:32:43Z</time>
      </trkpt>
      <trkpt lat="45.03924" lon="5.5701">
        <ele>1511</ele>
        <time>2019-07-14T11:32:44Z</time>
      </trkpt>
      <trkpt lat="45.03923" lon="5.57008">
        <ele>1511</ele>
        <time>2019-07-14T11:32:45Z</time>
      </trkpt>
      <trkpt lat="45.03922" lon="5.57007">
        <ele>1512</ele>
        <time>2019-07-14T11:32:46Z</time>
      </trkpt>
      <trkpt lat="45.0392" lon="5.57005">
        <ele>1512</ele>
        <time>2019-07-14T11:32:47Z</time>
      </trkpt>
      <trkpt lat="45.03919" lon="5.57004">
        <ele>1513</ele>
        <time>2019-07-14T11:32:48Z</time>
      </trkpt>
      <trkpt lat="45.03917" lon="5.57003">
        <ele>1513</ele>
        <time>2019-07-14T11:32:49Z</time>
      </trkpt>
      <trkpt lat="45.03915" lon="5.57002">
        <ele>1515</ele>
        <time>2019-07-14T11:32:50Z</time>
      </trkpt>
      <trkpt lat="45.03914" lon="5.57">
        <ele>1515</ele>
        <time>2019-07-14T11:32:51Z</time>
      </trkpt>
      <trkpt lat="45.03912" lon="5.57">
        <ele>1514</ele>
        <time>2019-07-14T11:32:52Z</time>
      </trkpt>
      <trkpt lat="45.0391" lon="5.56999">
        <ele>1514</ele>
        <time>2019-07-14T11:32:53Z</time>
      </trkpt>
      <trkpt lat="45.03909" lon="5.56998">
        <ele>1514</ele>
        <time>2019-07-14T11:32:54Z</time>
      </trkpt>
      <trkpt lat="45.03907" lon="5.56997">
        <ele>1514</ele>
        <time>2019-07-14T11:32:55Z</time>
      </trkpt>
      <trkpt lat="45.03906" lon="5.56997">
        <ele>1514</ele>
        <time>2019-07-14T11:32:56Z</time>
      </trkpt>
      <trkpt lat="45.03904" lon="5.56996">
        <ele>1514</ele>
        <time>2019-07-14T11:32:57Z</time>
      </trkpt>
      <trkpt lat="45.03902" lon="5.56995">
        <ele>1514</ele>
        <time>2019-07-14T11:32:58Z</time>
      </trkpt>
      <trkpt lat="45.03901" lon="5.56994">
        <ele>1515</ele>
        <time>2019-07-14T11:32:59Z</time>
      </trkpt>
      <trkpt lat="45.03899" lon="5.56993">
        <ele>1515</ele>
        <time>2019-07-14T11:33:00Z</time>
      </trkpt>
      <trkpt lat="45.03897" lon="5.56993">
        <ele>1515</ele>
        <time>2019-07-14T11:33:01Z</time>
      </trkpt>
      <trkpt lat="45.03895" lon="5.56992">
        <ele>1515</ele>
        <time>2019-07-14T11:33:02Z</time>
      </trkpt>
      <trkpt lat="45.03893" lon="5.56991">
        <ele>1515</ele>
        <time>2019-07-14T11:33:03Z</time>
      </trkpt>
      <trkpt lat="45.03891" lon="5.5699">
        <ele>1515</ele>
        <time>2019-07-14T11:33:04Z</time>
      </trkpt>
      <trkpt lat="45.03888" lon="5.5699">
        <ele>1515</ele>
        <time>2019-07-14T11:33:05Z</time>
      </trkpt>
      <trkpt lat="45.03886" lon="5.56989">
        <ele>1515</ele>
        <time>2019-07-14T11:33:06Z</time>
      </trkpt>
      <trkpt lat="45.03884" lon="5.56989">
        <ele>1515</ele>
        <time>2019-07-14T11:33:07Z</time>
      </trkpt>
      <trkpt lat="45.03882" lon="5.56988">
        <ele>1516</ele>
        <time>2019-07-14T11:33:08Z</time>
      </trkpt>
      <trkpt lat="45.0388" lon="5.56987">
        <ele>1516</ele>
        <time>2019-07-14T11:33:09Z</time>
      </trkpt>
      <trkpt lat="45.03878" lon="5.56987">
        <ele>1516</ele>
        <time>2019-07-14T11:33:10Z</time>
      </trkpt>
      <trkpt lat="45.03876" lon="5.56986">
        <ele>1516</ele>
        <time>2019-07-14T11:33:11Z</time>
      </trkpt>
      <trkpt lat="45.03874" lon="5.56984">
        <ele>1516</ele>
        <time>2019-07-14T11:33:12Z</time>
      </trkpt>
      <trkpt lat="45.03872" lon="5.56983">
        <ele>1516</ele>
        <time>2019-07-14T11:33:13Z</time>
      </trkpt>
      <trkpt lat="45.0387" lon="5.56982">
        <ele>1517</ele>
        <time>2019-07-14T11:33:14Z</time>
      </trkpt>
      <trkpt lat="45.03868" lon="5.56981">
        <ele>1517</ele>
        <time>2019-07-14T11:33:15Z</time>
      </trkpt>
      <trkpt lat="45.03866" lon="5.5698">
        <ele>1517</ele>
        <time>2019-07-14T11:33:16Z</time>
      </trkpt>
      <trkpt lat="45.03864" lon="5.56978">
        <ele>1517</ele>
        <time>2019-07-14T11:33:17Z</time>
      </trkpt>
      <trkpt lat="45.03862" lon="5.56977">
        <ele>1517</ele>
        <time>2019-07-14T11:33:18Z</time>
      </trkpt>
      <trkpt lat="45.0386" lon="5.56975">
        <ele>1517</ele>
        <time>2019-07-14T11:33:19Z</time>
      </trkpt>
      <trkpt lat="45.03858" lon="5.56974">
        <ele>1517</ele>
        <time>2019-07-14T11:33:20Z</time>
      </trkpt>
      <trkpt lat="45.03856" lon="5.56972">
        <ele>1517</ele>
        <time>2019-07-14T11:33:21Z</time>
      </trkpt>
      <trkpt lat="45.03854" lon="5.56971">
        <ele>1517</ele>
        <time>2019-07-14T11:33:22Z</time>
      </trkpt>
      <trkpt lat="45.03852" lon="5.5697">
        <ele>1517</ele>
        <time>2019-07-14T11:33:23Z</time>
      </trkpt>
      <trkpt lat="45.0385" lon="5.56969">
        <ele>1517</ele>
        <time>2019-07-14T11:33:24Z</time>
      </trkpt>
      <trkpt lat="45.03848" lon="5.56967">
        <ele>1517</ele>
        <time>2019-07-14T11:33:25Z</time>
      </trkpt>
      <trkpt lat="45.03846" lon="5.56966">
        <ele>1517</ele>
        <time>2019-07-14T11:33:26Z</time>
      </trkpt>
      <trkpt lat="45.03844" lon="5.56965">
        <ele>1517</ele>
        <time>2019-07-14T11:33:27Z</time>
      </trkpt>
      <trkpt lat="45.03842" lon="5.56963">
        <ele>1518</ele>
        <time>2019-07-14T11:33:28Z</time>
      </trkpt>
      <trkpt lat="45.0384" lon="5.56962">
        <ele>1518</ele>
        <time>2019-07-14T11:33:29Z</time>
      </trkpt>
      <trkpt lat="45.03838" lon="5.56961">
        <ele>1518</ele>
        <time>2019-07-14T11:33:30Z</time>
      </trkpt>
      <trkpt lat="45.03837" lon="5.5696">
        <ele>1517</ele>
        <time>2019-07-14T11:33:31Z</time>
      </trkpt>
      <trkpt lat="45.03835" lon="5.56959">
        <ele>1517</ele>
        <time>2019-07-14T11:33:32Z</time>
      </trkpt>
      <trkpt lat="45.03833" lon="5.56957">
        <ele>1517</ele>
        <time>2019-07-14T11:33:33Z</time>
      </trkpt>
      <trkpt lat="45.03832" lon="5.56956">
        <ele>1526</ele>
        <time>2019-07-14T11:33:34Z</time>
      </trkpt>
      <trkpt lat="45.0383" lon="5.56954">
        <ele>1526</ele>
        <time>2019-07-14T11:33:35Z</time>
      </trkpt>
      <trkpt lat="45.03829" lon="5.56953">
        <ele>1526</ele>
        <time>2019-07-14T11:33:36Z</time>
      </trkpt>
      <trkpt lat="45.03827" lon="5.56952">
        <ele>1526</ele>
        <time>2019-07-14T11:33:37Z</time>
      </trkpt>
      <trkpt lat="45.03825" lon="5.56951">
        <ele>1526</ele>
        <time>2019-07-14T11:33:38Z</time>
      </trkpt>
      <trkpt lat="45.03824" lon="5.56949">
        <ele>1526</ele>
        <time>2019-07-14T11:33:39Z</time>
      </trkpt>
      <trkpt lat="45.03822" lon="5.56948">
        <ele>1526</ele>
        <time>2019-07-14T11:33:40Z</time>
      </trkpt>
      <trkpt lat="45.0382" lon="5.56947">
        <ele>1526</ele>
        <time>2019-07-14T11:33:41Z</time>
      </trkpt>
      <trkpt lat="45.03819" lon="5.56946">
        <ele>1526</ele>
        <time>2019-07-14T11:33:42Z</time>
      </trkpt>
      <trkpt lat="45.03817" lon="5.56944">
        <ele>1526</ele>
        <time>2019-07-14T11:33:43Z</time>
      </trkpt>
      <trkpt lat="45.03816" lon="5.56943">
        <ele>1526</ele>
        <time>2019-07-14T11:33:44Z</time>
      </trkpt>
      <trkpt lat="45.03814" lon="5.56941">
        <ele>1526</ele>
        <time>2019-07-14T11:33:45Z</time>
      </trkpt>
      <trkpt lat="45.03813" lon="5.5694">
        <ele>1526</ele>
        <time>2019-07-14T11:33:46Z</time>
      </trkpt>
      <trkpt lat="45.03811" lon="5.56938">
        <ele>1526</ele>
        <time>2019-07-14T11:33:47Z</time>
      </trkpt>
      <trkpt lat="45.03809" lon="5.56937">
        <ele>1526</ele>
        <time>2019-07-14T11:33:48Z</time>
      </trkpt>
      <trkpt lat="45.03807" lon="5.56935">
        <ele>1526</ele>
        <time>2019-07-14T11:33:49Z</time>
      </trkpt>
      <trkpt lat="45.03806" lon="5.56934">
        <ele>1526</ele>
        <time>2019-07-14T11:33:50Z</time>
      </trkpt>
      <trkpt lat="45.03804" lon="5.56932">
        <ele>1526</ele>
        <time>2019-07-14T11:33:51Z</time>
      </trkpt>
      <trkpt lat="45.03803" lon="5.56931">
        <ele>1526</ele>
        <time>2019-07-14T11:33:52Z</time>
      </trkpt>
      <trkpt lat="45.03801" lon="5.56929">
        <ele>1526</ele>
        <time>2019-07-14T11:33:53Z</time>
      </trkpt>
      <trkpt lat="45.03799" lon="5.56927">
        <ele>1527</ele>
        <time>2019-07-14T11:33:54Z</time>
      </trkpt>
      <trkpt lat="45.03798" lon="5.56926">
        <ele>1527</ele>
        <time>2019-07-14T11:33:55Z</time>
      </trkpt>
      <trkpt lat="45.03796" lon="5.56924">
        <ele>1527</ele>
        <time>2019-07-14T11:33:56Z</time>
      </trkpt>
      <trkpt lat="45.03795" lon="5.56923">
        <ele>1527</ele>
        <time>2019-07-14T11:33:57Z</time>
      </trkpt>
      <trkpt lat="45.03793" lon="5.56921">
        <ele>1527</ele>
        <time>2019-07-14T11:33:58Z</time>
      </trkpt>
      <trkpt lat="45.03792" lon="5.56919">
        <ele>1527</ele>
        <time>2019-07-14T11:33:59Z</time>
      </trkpt>
      <trkpt lat="45.03791" lon="5.56918">
        <ele>1528</ele>
        <time>2019-07-14T11:34:00Z</time>
      </trkpt>
      <trkpt lat="45.03789" lon="5.56917">
        <ele>1528</ele>
        <time>2019-07-14T11:34:01Z</time>
      </trkpt>
      <trkpt lat="45.03787" lon="5.56916">
        <ele>1524</ele>
        <time>2019-07-14T11:34:02Z</time>
      </trkpt>
      <trkpt lat="45.03785" lon="5.56917">
        <ele>1528</ele>
        <time>2019-07-14T11:34:03Z</time>
      </trkpt>
      <trkpt lat="45.03783" lon="5.56918">
        <ele>1528</ele>
        <time>2019-07-14T11:34:04Z</time>
      </trkpt>
      <trkpt lat="45.03781" lon="5.5692">
        <ele>1529</ele>
        <time>2019-07-14T11:34:05Z</time>
      </trkpt>
      <trkpt lat="45.0378" lon="5.56921">
        <ele>1529</ele>
        <time>2019-07-14T11:34:06Z</time>
      </trkpt>
      <trkpt lat="45.03779" lon="5.56923">
        <ele>1529</ele>
        <time>2019-07-14T11:34:07Z</time>
      </trkpt>
      <trkpt lat="45.03779" lon="5.56926">
        <ele>1529</ele>
        <time>2019-07-14T11:34:08Z</time>
      </trkpt>
      <trkpt lat="45.03779" lon="5.56933">
        <ele>1529</ele>
        <time>2019-07-14T11:34:11Z</time>
      </trkpt>
      <trkpt lat="45.0378" lon="5.56935">
        <ele>1529</ele>
        <time>2019-07-14T11:34:12Z</time>
      </trkpt>
      <trkpt lat="45.0378" lon="5.56937">
        <ele>1529</ele>
        <time>2019-07-14T11:34:13Z</time>
      </trkpt>
      <trkpt lat="45.03781" lon="5.56939">
        <ele>1529</ele>
        <time>2019-07-14T11:34:14Z</time>
      </trkpt>
      <trkpt lat="45.03782" lon="5.56942">
        <ele>1529</ele>
        <time>2019-07-14T11:34:15Z</time>
      </trkpt>
      <trkpt lat="45.03782" lon="5.56944">
        <ele>1529</ele>
        <time>2019-07-14T11:34:16Z</time>
      </trkpt>
      <trkpt lat="45.03781" lon="5.56954">
        <ele>1529</ele>
        <time>2019-07-14T11:34:20Z</time>
      </trkpt>
      <trkpt lat="45.03781" lon="5.56956">
        <ele>1529</ele>
        <time>2019-07-14T11:34:21Z</time>
      </trkpt>
      <trkpt lat="45.0378" lon="5.56959">
        <ele>1529</ele>
        <time>2019-07-14T11:34:22Z</time>
      </trkpt>
      <trkpt lat="45.03779" lon="5.56961">
        <ele>1529</ele>
        <time>2019-07-14T11:34:23Z</time>
      </trkpt>
      <trkpt lat="45.03778" lon="5.56963">
        <ele>1529</ele>
        <time>2019-07-14T11:34:24Z</time>
      </trkpt>
      <trkpt lat="45.03777" lon="5.56965">
        <ele>1530</ele>
        <time>2019-07-14T11:34:25Z</time>
      </trkpt>
      <trkpt lat="45.03776" lon="5.56967">
        <ele>1530</ele>
        <time>2019-07-14T11:34:26Z</time>
      </trkpt>
      <trkpt lat="45.03774" lon="5.56969">
        <ele>1530</ele>
        <time>2019-07-14T11:34:27Z</time>
      </trkpt>
      <trkpt lat="45.03772" lon="5.5697">
        <ele>1530</ele>
        <time>2019-07-14T11:34:28Z</time>
      </trkpt>
      <trkpt lat="45.0377" lon="5.56971">
        <ele>1530</ele>
        <time>2019-07-14T11:34:29Z</time>
      </trkpt>
      <trkpt lat="45.03769" lon="5.56973">
        <ele>1530</ele>
        <time>2019-07-14T11:34:30Z</time>
      </trkpt>
      <trkpt lat="45.03767" lon="5.56974">
        <ele>1531</ele>
        <time>2019-07-14T11:34:31Z</time>
      </trkpt>
      <trkpt lat="45.03766" lon="5.56975">
        <ele>1531</ele>
        <time>2019-07-14T11:34:32Z</time>
      </trkpt>
      <trkpt lat="45.03764" lon="5.56976">
        <ele>1531</ele>
        <time>2019-07-14T11:34:33Z</time>
      </trkpt>
      <trkpt lat="45.03763" lon="5.56976">
        <ele>1531</ele>
        <time>2019-07-14T11:34:34Z</time>
      </trkpt>
      <trkpt lat="45.03762" lon="5.56977">
        <ele>1531</ele>
        <time>2019-07-14T11:34:35Z</time>
      </trkpt>
      <trkpt lat="45.0376" lon="5.56977">
        <ele>1531</ele>
        <time>2019-07-14T11:34:36Z</time>
      </trkpt>
      <trkpt lat="45.03757" lon="5.56977">
        <ele>1531</ele>
        <time>2019-07-14T11:34:38Z</time>
      </trkpt>
      <trkpt lat="45.03754" lon="5.56976">
        <ele>1532</ele>
        <time>2019-07-14T11:34:40Z</time>
      </trkpt>
      <trkpt lat="45.03752" lon="5.56976">
        <ele>1532</ele>
        <time>2019-07-14T11:34:41Z</time>
      </trkpt>
      <trkpt lat="45.03751" lon="5.56976">
        <ele>1532</ele>
        <time>2019-07-14T11:34:42Z</time>
      </trkpt>
      <trkpt lat="45.03749" lon="5.56975">
        <ele>1540</ele>
        <time>2019-07-14T11:34:43Z</time>
      </trkpt>
      <trkpt lat="45.03748" lon="5.56974">
        <ele>1540</ele>
        <time>2019-07-14T11:34:44Z</time>
      </trkpt>
      <trkpt lat="45.03746" lon="5.56974">
        <ele>1540</ele>
        <time>2019-07-14T11:34:45Z</time>
      </trkpt>
      <trkpt lat="45.03745" lon="5.56973">
        <ele>1540</ele>
        <time>2019-07-14T11:34:46Z</time>
      </trkpt>
      <trkpt lat="45.03744" lon="5.56973">
        <ele>1540</ele>
        <time>2019-07-14T11:34:47Z</time>
      </trkpt>
      <trkpt lat="45.03743" lon="5.56972">
        <ele>1540</ele>
        <time>2019-07-14T11:34:48Z</time>
      </trkpt>
      <trkpt lat="45.03742" lon="5.56971">
        <ele>1541</ele>
        <time>2019-07-14T11:34:49Z</time>
      </trkpt>
      <trkpt lat="45.0374" lon="5.5697">
        <ele>1541</ele>
        <time>2019-07-14T11:34:50Z</time>
      </trkpt>
      <trkpt lat="45.03739" lon="5.56969">
        <ele>1541</ele>
        <time>2019-07-14T11:34:51Z</time>
      </trkpt>
      <trkpt lat="45.03738" lon="5.56967">
        <ele>1541</ele>
        <time>2019-07-14T11:34:52Z</time>
      </trkpt>
      <trkpt lat="45.03736" lon="5.56966">
        <ele>1541</ele>
        <time>2019-07-14T11:34:53Z</time>
      </trkpt>
      <trkpt lat="45.03735" lon="5.56965">
        <ele>1541</ele>
        <time>2019-07-14T11:34:54Z</time>
      </trkpt>
      <trkpt lat="45.03733" lon="5.56964">
        <ele>1541</ele>
        <time>2019-07-14T11:34:55Z</time>
      </trkpt>
      <trkpt lat="45.03732" lon="5.56964">
        <ele>1541</ele>
        <time>2019-07-14T11:34:56Z</time>
      </trkpt>
      <trkpt lat="45.03731" lon="5.56962">
        <ele>1541</ele>
        <time>2019-07-14T11:34:57Z</time>
      </trkpt>
      <trkpt lat="45.03729" lon="5.56961">
        <ele>1541</ele>
        <time>2019-07-14T11:34:58Z</time>
      </trkpt>
      <trkpt lat="45.03728" lon="5.56959">
        <ele>1542</ele>
        <time>2019-07-14T11:34:59Z</time>
      </trkpt>
      <trkpt lat="45.03727" lon="5.56958">
        <ele>1542</ele>
        <time>2019-07-14T11:35:00Z</time>
      </trkpt>
      <trkpt lat="45.03725" lon="5.56956">
        <ele>1542</ele>
        <time>2019-07-14T11:35:01Z</time>
      </trkpt>
      <trkpt lat="45.03724" lon="5.56955">
        <ele>1542</ele>
        <time>2019-07-14T11:35:02Z</time>
      </trkpt>
      <trkpt lat="45.03722" lon="5.56954">
        <ele>1542</ele>
        <time>2019-07-14T11:35:03Z</time>
      </trkpt>
      <trkpt lat="45.03721" lon="5.56953">
        <ele>1542</ele>
        <time>2019-07-14T11:35:04Z</time>
      </trkpt>
      <trkpt lat="45.03719" lon="5.56952">
        <ele>1542</ele>
        <time>2019-07-14T11:35:05Z</time>
      </trkpt>
      <trkpt lat="45.03718" lon="5.5695">
        <ele>1542</ele>
        <time>2019-07-14T11:35:06Z</time>
      </trkpt>
      <trkpt lat="45.03717" lon="5.56949">
        <ele>1542</ele>
        <time>2019-07-14T11:35:07Z</time>
      </trkpt>
      <trkpt lat="45.03715" lon="5.56947">
        <ele>1542</ele>
        <time>2019-07-14T11:35:08Z</time>
      </trkpt>
      <trkpt lat="45.03714" lon="5.56946">
        <ele>1542</ele>
        <time>2019-07-14T11:35:09Z</time>
      </trkpt>
      <trkpt lat="45.03713" lon="5.56944">
        <ele>1543</ele>
        <time>2019-07-14T11:35:10Z</time>
      </trkpt>
      <trkpt lat="45.03711" lon="5.56943">
        <ele>1543</ele>
        <time>2019-07-14T11:35:11Z</time>
      </trkpt>
      <trkpt lat="45.0371" lon="5.56941">
        <ele>1543</ele>
        <time>2019-07-14T11:35:12Z</time>
      </trkpt>
      <trkpt lat="45.03708" lon="5.5694">
        <ele>1543</ele>
        <time>2019-07-14T11:35:13Z</time>
      </trkpt>
      <trkpt lat="45.03707" lon="5.56938">
        <ele>1543</ele>
        <time>2019-07-14T11:35:14Z</time>
      </trkpt>
      <trkpt lat="45.03706" lon="5.56937">
        <ele>1543</ele>
        <time>2019-07-14T11:35:15Z</time>
      </trkpt>
      <trkpt lat="45.03705" lon="5.56936">
        <ele>1543</ele>
        <time>2019-07-14T11:35:16Z</time>
      </trkpt>
      <trkpt lat="45.03703" lon="5.56934">
        <ele>1543</ele>
        <time>2019-07-14T11:35:17Z</time>
      </trkpt>
      <trkpt lat="45.03702" lon="5.56933">
        <ele>1544</ele>
        <time>2019-07-14T11:35:18Z</time>
      </trkpt>
      <trkpt lat="45.03701" lon="5.56932">
        <ele>1544</ele>
        <time>2019-07-14T11:35:19Z</time>
      </trkpt>
      <trkpt lat="45.037" lon="5.5693">
        <ele>1544</ele>
        <time>2019-07-14T11:35:20Z</time>
      </trkpt>
      <trkpt lat="45.03698" lon="5.56929">
        <ele>1544</ele>
        <time>2019-07-14T11:35:21Z</time>
      </trkpt>
      <trkpt lat="45.03696" lon="5.56928">
        <ele>1544</ele>
        <time>2019-07-14T11:35:22Z</time>
      </trkpt>
      <trkpt lat="45.03695" lon="5.56927">
        <ele>1544</ele>
        <time>2019-07-14T11:35:23Z</time>
      </trkpt>
      <trkpt lat="45.03694" lon="5.56926">
        <ele>1545</ele>
        <time>2019-07-14T11:35:24Z</time>
      </trkpt>
      <trkpt lat="45.03692" lon="5.56925">
        <ele>1545</ele>
        <time>2019-07-14T11:35:25Z</time>
      </trkpt>
      <trkpt lat="45.03691" lon="5.56923">
        <ele>1545</ele>
        <time>2019-07-14T11:35:26Z</time>
      </trkpt>
      <trkpt lat="45.03689" lon="5.56922">
        <ele>1545</ele>
        <time>2019-07-14T11:35:27Z</time>
      </trkpt>
      <trkpt lat="45.03688" lon="5.56921">
        <ele>1545</ele>
        <time>2019-07-14T11:35:28Z</time>
      </trkpt>
      <trkpt lat="45.03686" lon="5.5692">
        <ele>1546</ele>
        <time>2019-07-14T11:35:29Z</time>
      </trkpt>
      <trkpt lat="45.03685" lon="5.56919">
        <ele>1546</ele>
        <time>2019-07-14T11:35:30Z</time>
      </trkpt>
      <trkpt lat="45.03683" lon="5.56918">
        <ele>1546</ele>
        <time>2019-07-14T11:35:31Z</time>
      </trkpt>
      <trkpt lat="45.03682" lon="5.56917">
        <ele>1543</ele>
        <time>2019-07-14T11:35:32Z</time>
      </trkpt>
      <trkpt lat="45.0368" lon="5.56916">
        <ele>1543</ele>
        <time>2019-07-14T11:35:33Z</time>
      </trkpt>
      <trkpt lat="45.03679" lon="5.56915">
        <ele>1544</ele>
        <time>2019-07-14T11:35:34Z</time>
      </trkpt>
      <trkpt lat="45.03678" lon="5.56914">
        <ele>1544</ele>
        <time>2019-07-14T11:35:35Z</time>
      </trkpt>
      <trkpt lat="45.03676" lon="5.56913">
        <ele>1544</ele>
        <time>2019-07-14T11:35:36Z</time>
      </trkpt>
      <trkpt lat="45.03675" lon="5.56913">
        <ele>1545</ele>
        <time>2019-07-14T11:35:37Z</time>
      </trkpt>
      <trkpt lat="45.03674" lon="5.56913">
        <ele>1545</ele>
        <time>2019-07-14T11:35:38Z</time>
      </trkpt>
      <trkpt lat="45.03673" lon="5.56914">
        <ele>1546</ele>
        <time>2019-07-14T11:36:35Z</time>
      </trkpt>
      <trkpt lat="45.03672" lon="5.56914">
        <ele>1546</ele>
        <time>2019-07-14T11:36:36Z</time>
      </trkpt>
      <trkpt lat="45.03671" lon="5.56914">
        <ele>1546</ele>
        <time>2019-07-14T11:36:37Z</time>
      </trkpt>
      <trkpt lat="45.03669" lon="5.56914">
        <ele>1547</ele>
        <time>2019-07-14T11:36:38Z</time>
      </trkpt>
      <trkpt lat="45.03667" lon="5.56913">
        <ele>1547</ele>
        <time>2019-07-14T11:36:39Z</time>
      </trkpt>
      <trkpt lat="45.03665" lon="5.56914">
        <ele>1548</ele>
        <time>2019-07-14T11:36:40Z</time>
      </trkpt>
      <trkpt lat="45.03663" lon="5.56914">
        <ele>1548</ele>
        <time>2019-07-14T11:36:41Z</time>
      </trkpt>
      <trkpt lat="45.03661" lon="5.56914">
        <ele>1548</ele>
        <time>2019-07-14T11:36:42Z</time>
      </trkpt>
      <trkpt lat="45.03659" lon="5.56914">
        <ele>1548</ele>
        <time>2019-07-14T11:36:43Z</time>
      </trkpt>
      <trkpt lat="45.03657" lon="5.56914">
        <ele>1548</ele>
        <time>2019-07-14T11:36:44Z</time>
      </trkpt>
      <trkpt lat="45.03655" lon="5.56914">
        <ele>1548</ele>
        <time>2019-07-14T11:36:45Z</time>
      </trkpt>
      <trkpt lat="45.03653" lon="5.56914">
        <ele>1548</ele>
        <time>2019-07-14T11:36:46Z</time>
      </trkpt>
      <trkpt lat="45.03651" lon="5.56915">
        <ele>1548</ele>
        <time>2019-07-14T11:36:47Z</time>
      </trkpt>
      <trkpt lat="45.03649" lon="5.56915">
        <ele>1548</ele>
        <time>2019-07-14T11:36:48Z</time>
      </trkpt>
      <trkpt lat="45.03647" lon="5.56916">
        <ele>1548</ele>
        <time>2019-07-14T11:36:49Z</time>
      </trkpt>
      <trkpt lat="45.03645" lon="5.56917">
        <ele>1554</ele>
        <time>2019-07-14T11:36:50Z</time>
      </trkpt>
      <trkpt lat="45.03643" lon="5.56918">
        <ele>1554</ele>
        <time>2019-07-14T11:36:51Z</time>
      </trkpt>
      <trkpt lat="45.03641" lon="5.56918">
        <ele>1555</ele>
        <time>2019-07-14T11:36:52Z</time>
      </trkpt>
      <trkpt lat="45.03639" lon="5.56919">
        <ele>1555</ele>
        <time>2019-07-14T11:36:53Z</time>
      </trkpt>
      <trkpt lat="45.03637" lon="5.5692">
        <ele>1555</ele>
        <time>2019-07-14T11:36:54Z</time>
      </trkpt>
      <trkpt lat="45.03635" lon="5.56921">
        <ele>1555</ele>
        <time>2019-07-14T11:36:55Z</time>
      </trkpt>
      <trkpt lat="45.03634" lon="5.56922">
        <ele>1555</ele>
        <time>2019-07-14T11:36:56Z</time>
      </trkpt>
      <trkpt lat="45.03632" lon="5.56923">
        <ele>1556</ele>
        <time>2019-07-14T11:36:57Z</time>
      </trkpt>
      <trkpt lat="45.0363" lon="5.56924">
        <ele>1556</ele>
        <time>2019-07-14T11:36:58Z</time>
      </trkpt>
      <trkpt lat="45.03628" lon="5.56925">
        <ele>1556</ele>
        <time>2019-07-14T11:36:59Z</time>
      </trkpt>
      <trkpt lat="45.03626" lon="5.56926">
        <ele>1556</ele>
        <time>2019-07-14T11:37:00Z</time>
      </trkpt>
      <trkpt lat="45.03624" lon="5.56926">
        <ele>1556</ele>
        <time>2019-07-14T11:37:01Z</time>
      </trkpt>
      <trkpt lat="45.03622" lon="5.56927">
        <ele>1557</ele>
        <time>2019-07-14T11:37:02Z</time>
      </trkpt>
      <trkpt lat="45.0362" lon="5.56927">
        <ele>1557</ele>
        <time>2019-07-14T11:37:03Z</time>
      </trkpt>
      <trkpt lat="45.03618" lon="5.56928">
        <ele>1557</ele>
        <time>2019-07-14T11:37:04Z</time>
      </trkpt>
      <trkpt lat="45.03616" lon="5.56929">
        <ele>1557</ele>
        <time>2019-07-14T11:37:05Z</time>
      </trkpt>
      <trkpt lat="45.03614" lon="5.5693">
        <ele>1557</ele>
        <time>2019-07-14T11:37:06Z</time>
      </trkpt>
      <trkpt lat="45.03612" lon="5.5693">
        <ele>1557</ele>
        <time>2019-07-14T11:37:07Z</time>
      </trkpt>
      <trkpt lat="45.0361" lon="5.56931">
        <ele>1557</ele>
        <time>2019-07-14T11:37:08Z</time>
      </trkpt>
      <trkpt lat="45.03609" lon="5.56932">
        <ele>1557</ele>
        <time>2019-07-14T11:37:09Z</time>
      </trkpt>
      <trkpt lat="45.03607" lon="5.56934">
        <ele>1558</ele>
        <time>2019-07-14T11:37:10Z</time>
      </trkpt>
      <trkpt lat="45.03606" lon="5.56936">
        <ele>1558</ele>
        <time>2019-07-14T11:37:11Z</time>
      </trkpt>
      <trkpt lat="45.03605" lon="5.56938">
        <ele>1558</ele>
        <time>2019-07-14T11:37:12Z</time>
      </trkpt>
      <trkpt lat="45.03603" lon="5.5694">
        <ele>1558</ele>
        <time>2019-07-14T11:37:13Z</time>
      </trkpt>
      <trkpt lat="45.03602" lon="5.56942">
        <ele>1558</ele>
        <time>2019-07-14T11:37:14Z</time>
      </trkpt>
      <trkpt lat="45.03602" lon="5.56945">
        <ele>1558</ele>
        <time>2019-07-14T11:37:15Z</time>
      </trkpt>
      <trkpt lat="45.03602" lon="5.56948">
        <ele>1559</ele>
        <time>2019-07-14T11:37:16Z</time>
      </trkpt>
      <trkpt lat="45.03602" lon="5.56951">
        <ele>1559</ele>
        <time>2019-07-14T11:37:17Z</time>
      </trkpt>
      <trkpt lat="45.03603" lon="5.56953">
        <ele>1559</ele>
        <time>2019-07-14T11:37:18Z</time>
      </trkpt>
      <trkpt lat="45.03605" lon="5.56956">
        <ele>1559</ele>
        <time>2019-07-14T11:37:19Z</time>
      </trkpt>
      <trkpt lat="45.03606" lon="5.56958">
        <ele>1559</ele>
        <time>2019-07-14T11:37:20Z</time>
      </trkpt>
      <trkpt lat="45.03607" lon="5.5696">
        <ele>1559</ele>
        <time>2019-07-14T11:37:21Z</time>
      </trkpt>
      <trkpt lat="45.03609" lon="5.56961">
        <ele>1559</ele>
        <time>2019-07-14T11:37:22Z</time>
      </trkpt>
      <trkpt lat="45.0361" lon="5.56963">
        <ele>1559</ele>
        <time>2019-07-14T11:37:23Z</time>
      </trkpt>
      <trkpt lat="45.03612" lon="5.56964">
        <ele>1559</ele>
        <time>2019-07-14T11:37:24Z</time>
      </trkpt>
      <trkpt lat="45.03614" lon="5.56965">
        <ele>1559</ele>
        <time>2019-07-14T11:37:25Z</time>
      </trkpt>
      <trkpt lat="45.03615" lon="5.56966">
        <ele>1559</ele>
        <time>2019-07-14T11:37:26Z</time>
      </trkpt>
      <trkpt lat="45.03617" lon="5.56967">
        <ele>1559</ele>
        <time>2019-07-14T11:37:27Z</time>
      </trkpt>
      <trkpt lat="45.03619" lon="5.56968">
        <ele>1559</ele>
        <time>2019-07-14T11:37:28Z</time>
      </trkpt>
      <trkpt lat="45.0362" lon="5.5697">
        <ele>1559</ele>
        <time>2019-07-14T11:37:29Z</time>
      </trkpt>
      <trkpt lat="45.03621" lon="5.56972">
        <ele>1559</ele>
        <time>2019-07-14T11:37:30Z</time>
      </trkpt>
      <trkpt lat="45.03623" lon="5.56973">
        <ele>1559</ele>
        <time>2019-07-14T11:37:31Z</time>
      </trkpt>
      <trkpt lat="45.03624" lon="5.56975">
        <ele>1559</ele>
        <time>2019-07-14T11:37:32Z</time>
      </trkpt>
      <trkpt lat="45.03626" lon="5.56977">
        <ele>1559</ele>
        <time>2019-07-14T11:37:33Z</time>
      </trkpt>
      <trkpt lat="45.03627" lon="5.56979">
        <ele>1559</ele>
        <time>2019-07-14T11:37:34Z</time>
      </trkpt>
      <trkpt lat="45.03628" lon="5.5698">
        <ele>1559</ele>
        <time>2019-07-14T11:37:35Z</time>
      </trkpt>
      <trkpt lat="45.03629" lon="5.56982">
        <ele>1559</ele>
        <time>2019-07-14T11:37:36Z</time>
      </trkpt>
      <trkpt lat="45.0363" lon="5.56984">
        <ele>1559</ele>
        <time>2019-07-14T11:37:37Z</time>
      </trkpt>
      <trkpt lat="45.03631" lon="5.56986">
        <ele>1559</ele>
        <time>2019-07-14T11:37:38Z</time>
      </trkpt>
      <trkpt lat="45.03632" lon="5.56988">
        <ele>1559</ele>
        <time>2019-07-14T11:37:39Z</time>
      </trkpt>
      <trkpt lat="45.03633" lon="5.56991">
        <ele>1559</ele>
        <time>2019-07-14T11:37:40Z</time>
      </trkpt>
      <trkpt lat="45.03632" lon="5.56998">
        <ele>1559</ele>
        <time>2019-07-14T11:37:43Z</time>
      </trkpt>
      <trkpt lat="45.03632" lon="5.57">
        <ele>1563</ele>
        <time>2019-07-14T11:37:44Z</time>
      </trkpt>
      <trkpt lat="45.03631" lon="5.57002">
        <ele>1563</ele>
        <time>2019-07-14T11:37:45Z</time>
      </trkpt>
      <trkpt lat="45.03629" lon="5.57003">
        <ele>1564</ele>
        <time>2019-07-14T11:37:46Z</time>
      </trkpt>
      <trkpt lat="45.03628" lon="5.57004">
        <ele>1564</ele>
        <time>2019-07-14T11:37:47Z</time>
      </trkpt>
      <trkpt lat="45.03626" lon="5.57005">
        <ele>1564</ele>
        <time>2019-07-14T11:37:48Z</time>
      </trkpt>
      <trkpt lat="45.03625" lon="5.57006">
        <ele>1564</ele>
        <time>2019-07-14T11:37:49Z</time>
      </trkpt>
      <trkpt lat="45.03623" lon="5.57007">
        <ele>1565</ele>
        <time>2019-07-14T11:37:50Z</time>
      </trkpt>
      <trkpt lat="45.03622" lon="5.57007">
        <ele>1565</ele>
        <time>2019-07-14T11:37:51Z</time>
      </trkpt>
      <trkpt lat="45.0362" lon="5.57008">
        <ele>1565</ele>
        <time>2019-07-14T11:37:52Z</time>
      </trkpt>
      <trkpt lat="45.03618" lon="5.57008">
        <ele>1565</ele>
        <time>2019-07-14T11:37:53Z</time>
      </trkpt>
      <trkpt lat="45.03616" lon="5.57008">
        <ele>1565</ele>
        <time>2019-07-14T11:37:54Z</time>
      </trkpt>
      <trkpt lat="45.03613" lon="5.57008">
        <ele>1566</ele>
        <time>2019-07-14T11:37:56Z</time>
      </trkpt>
      <trkpt lat="45.03612" lon="5.57008">
        <ele>1566</ele>
        <time>2019-07-14T11:37:57Z</time>
      </trkpt>
      <trkpt lat="45.0361" lon="5.57008">
        <ele>1566</ele>
        <time>2019-07-14T11:37:58Z</time>
      </trkpt>
      <trkpt lat="45.03608" lon="5.57008">
        <ele>1566</ele>
        <time>2019-07-14T11:37:59Z</time>
      </trkpt>
      <trkpt lat="45.03607" lon="5.57008">
        <ele>1566</ele>
        <time>2019-07-14T11:38:00Z</time>
      </trkpt>
      <trkpt lat="45.03605" lon="5.57008">
        <ele>1567</ele>
        <time>2019-07-14T11:38:01Z</time>
      </trkpt>
      <trkpt lat="45.036" lon="5.57008">
        <ele>1567</ele>
        <time>2019-07-14T11:38:04Z</time>
      </trkpt>
      <trkpt lat="45.03599" lon="5.57008">
        <ele>1567</ele>
        <time>2019-07-14T11:38:05Z</time>
      </trkpt>
      <trkpt lat="45.03597" lon="5.57009">
        <ele>1568</ele>
        <time>2019-07-14T11:38:06Z</time>
      </trkpt>
      <trkpt lat="45.03596" lon="5.57009">
        <ele>1568</ele>
        <time>2019-07-14T11:38:07Z</time>
      </trkpt>
      <trkpt lat="45.03593" lon="5.57009">
        <ele>1568</ele>
        <time>2019-07-14T11:38:09Z</time>
      </trkpt>
      <trkpt lat="45.03592" lon="5.57008">
        <ele>1568</ele>
        <time>2019-07-14T11:38:10Z</time>
      </trkpt>
      <trkpt lat="45.0359" lon="5.57008">
        <ele>1568</ele>
        <time>2019-07-14T11:38:11Z</time>
      </trkpt>
      <trkpt lat="45.03589" lon="5.57008">
        <ele>1568</ele>
        <time>2019-07-14T11:38:12Z</time>
      </trkpt>
      <trkpt lat="45.03587" lon="5.57009">
        <ele>1569</ele>
        <time>2019-07-14T11:38:13Z</time>
      </trkpt>
      <trkpt lat="45.03585" lon="5.5701">
        <ele>1569</ele>
        <time>2019-07-14T11:38:14Z</time>
      </trkpt>
      <trkpt lat="45.03584" lon="5.57011">
        <ele>1569</ele>
        <time>2019-07-14T11:38:15Z</time>
      </trkpt>
      <trkpt lat="45.03582" lon="5.57011">
        <ele>1573</ele>
        <time>2019-07-14T11:38:16Z</time>
      </trkpt>
      <trkpt lat="45.03581" lon="5.57011">
        <ele>1573</ele>
        <time>2019-07-14T11:38:17Z</time>
      </trkpt>
      <trkpt lat="45.03579" lon="5.57012">
        <ele>1573</ele>
        <time>2019-07-14T11:38:18Z</time>
      </trkpt>
      <trkpt lat="45.03577" lon="5.57012">
        <ele>1573</ele>
        <time>2019-07-14T11:38:19Z</time>
      </trkpt>
      <trkpt lat="45.03576" lon="5.57012">
        <ele>1573</ele>
        <time>2019-07-14T11:38:20Z</time>
      </trkpt>
      <trkpt lat="45.03572" lon="5.57012">
        <ele>1574</ele>
        <time>2019-07-14T11:38:22Z</time>
      </trkpt>
      <trkpt lat="45.0357" lon="5.57012">
        <ele>1574</ele>
        <time>2019-07-14T11:38:23Z</time>
      </trkpt>
      <trkpt lat="45.03569" lon="5.57012">
        <ele>1574</ele>
        <time>2019-07-14T11:38:24Z</time>
      </trkpt>
      <trkpt lat="45.03567" lon="5.57012">
        <ele>1574</ele>
        <time>2019-07-14T11:38:25Z</time>
      </trkpt>
      <trkpt lat="45.03566" lon="5.57011">
        <ele>1575</ele>
        <time>2019-07-14T11:38:26Z</time>
      </trkpt>
      <trkpt lat="45.03564" lon="5.57011">
        <ele>1575</ele>
        <time>2019-07-14T11:38:27Z</time>
      </trkpt>
      <trkpt lat="45.03562" lon="5.57012">
        <ele>1575</ele>
        <time>2019-07-14T11:38:28Z</time>
      </trkpt>
      <trkpt lat="45.0356" lon="5.57012">
        <ele>1575</ele>
        <time>2019-07-14T11:38:29Z</time>
      </trkpt>
      <trkpt lat="45.03559" lon="5.57012">
        <ele>1576</ele>
        <time>2019-07-14T11:38:30Z</time>
      </trkpt>
      <trkpt lat="45.03557" lon="5.57012">
        <ele>1576</ele>
        <time>2019-07-14T11:38:31Z</time>
      </trkpt>
      <trkpt lat="45.03555" lon="5.57012">
        <ele>1576</ele>
        <time>2019-07-14T11:38:32Z</time>
      </trkpt>
      <trkpt lat="45.03553" lon="5.57012">
        <ele>1576</ele>
        <time>2019-07-14T11:38:33Z</time>
      </trkpt>
      <trkpt lat="45.03552" lon="5.57011">
        <ele>1576</ele>
        <time>2019-07-14T11:38:34Z</time>
      </trkpt>
      <trkpt lat="45.0355" lon="5.57011">
        <ele>1576</ele>
        <time>2019-07-14T11:38:35Z</time>
      </trkpt>
      <trkpt lat="45.03548" lon="5.57011">
        <ele>1577</ele>
        <time>2019-07-14T11:38:36Z</time>
      </trkpt>
      <trkpt lat="45.03546" lon="5.57012">
        <ele>1577</ele>
        <time>2019-07-14T11:38:37Z</time>
      </trkpt>
      <trkpt lat="45.03542" lon="5.57011">
        <ele>1577</ele>
        <time>2019-07-14T11:38:39Z</time>
      </trkpt>
      <trkpt lat="45.0354" lon="5.57011">
        <ele>1577</ele>
        <time>2019-07-14T11:38:40Z</time>
      </trkpt>
      <trkpt lat="45.03539" lon="5.57011">
        <ele>1577</ele>
        <time>2019-07-14T11:38:41Z</time>
      </trkpt>
      <trkpt lat="45.03537" lon="5.57011">
        <ele>1577</ele>
        <time>2019-07-14T11:38:42Z</time>
      </trkpt>
      <trkpt lat="45.03536" lon="5.57011">
        <ele>1578</ele>
        <time>2019-07-14T11:38:43Z</time>
      </trkpt>
      <trkpt lat="45.03534" lon="5.57011">
        <ele>1578</ele>
        <time>2019-07-14T11:38:44Z</time>
      </trkpt>
      <trkpt lat="45.03531" lon="5.57011">
        <ele>1578</ele>
        <time>2019-07-14T11:38:46Z</time>
      </trkpt>
      <trkpt lat="45.03529" lon="5.57011">
        <ele>1578</ele>
        <time>2019-07-14T11:38:47Z</time>
      </trkpt>
      <trkpt lat="45.03527" lon="5.57011">
        <ele>1578</ele>
        <time>2019-07-14T11:38:48Z</time>
      </trkpt>
      <trkpt lat="45.03525" lon="5.57011">
        <ele>1578</ele>
        <time>2019-07-14T11:38:49Z</time>
      </trkpt>
      <trkpt lat="45.03523" lon="5.57011">
        <ele>1578</ele>
        <time>2019-07-14T11:38:50Z</time>
      </trkpt>
      <trkpt lat="45.03522" lon="5.5701">
        <ele>1578</ele>
        <time>2019-07-14T11:38:51Z</time>
      </trkpt>
      <trkpt lat="45.0352" lon="5.5701">
        <ele>1578</ele>
        <time>2019-07-14T11:38:52Z</time>
      </trkpt>
      <trkpt lat="45.03518" lon="5.5701">
        <ele>1578</ele>
        <time>2019-07-14T11:38:53Z</time>
      </trkpt>
      <trkpt lat="45.03516" lon="5.5701">
        <ele>1579</ele>
        <time>2019-07-14T11:38:54Z</time>
      </trkpt>
      <trkpt lat="45.03513" lon="5.5701">
        <ele>1579</ele>
        <time>2019-07-14T11:38:56Z</time>
      </trkpt>
      <trkpt lat="45.03511" lon="5.5701">
        <ele>1579</ele>
        <time>2019-07-14T11:38:57Z</time>
      </trkpt>
      <trkpt lat="45.0351" lon="5.5701">
        <ele>1579</ele>
        <time>2019-07-14T11:38:58Z</time>
      </trkpt>
      <trkpt lat="45.03508" lon="5.5701">
        <ele>1579</ele>
        <time>2019-07-14T11:38:59Z</time>
      </trkpt>
      <trkpt lat="45.03504" lon="5.5701">
        <ele>1579</ele>
        <time>2019-07-14T11:39:01Z</time>
      </trkpt>
      <trkpt lat="45.03502" lon="5.5701">
        <ele>1579</ele>
        <time>2019-07-14T11:39:02Z</time>
      </trkpt>
      <trkpt lat="45.03496" lon="5.5701">
        <ele>1583</ele>
        <time>2019-07-14T11:39:05Z</time>
      </trkpt>
      <trkpt lat="45.03494" lon="5.5701">
        <ele>1584</ele>
        <time>2019-07-14T11:39:06Z</time>
      </trkpt>
      <trkpt lat="45.03493" lon="5.5701">
        <ele>1584</ele>
        <time>2019-07-14T11:39:07Z</time>
      </trkpt>
      <trkpt lat="45.03491" lon="5.5701">
        <ele>1584</ele>
        <time>2019-07-14T11:39:08Z</time>
      </trkpt>
      <trkpt lat="45.03489" lon="5.5701">
        <ele>1585</ele>
        <time>2019-07-14T11:39:09Z</time>
      </trkpt>
      <trkpt lat="45.03487" lon="5.57011">
        <ele>1585</ele>
        <time>2019-07-14T11:39:10Z</time>
      </trkpt>
      <trkpt lat="45.03485" lon="5.57011">
        <ele>1586</ele>
        <time>2019-07-14T11:39:11Z</time>
      </trkpt>
      <trkpt lat="45.03483" lon="5.57011">
        <ele>1586</ele>
        <time>2019-07-14T11:39:12Z</time>
      </trkpt>
      <trkpt lat="45.03481" lon="5.57011">
        <ele>1587</ele>
        <time>2019-07-14T11:39:13Z</time>
      </trkpt>
      <trkpt lat="45.03479" lon="5.57011">
        <ele>1587</ele>
        <time>2019-07-14T11:39:14Z</time>
      </trkpt>
      <trkpt lat="45.0347" lon="5.57011">
        <ele>1589</ele>
        <time>2019-07-14T11:39:19Z</time>
      </trkpt>
      <trkpt lat="45.03468" lon="5.57011">
        <ele>1589</ele>
        <time>2019-07-14T11:39:20Z</time>
      </trkpt>
      <trkpt lat="45.03466" lon="5.5701">
        <ele>1589</ele>
        <time>2019-07-14T11:39:21Z</time>
      </trkpt>
      <trkpt lat="45.03465" lon="5.5701">
        <ele>1589</ele>
        <time>2019-07-14T11:39:22Z</time>
      </trkpt>
      <trkpt lat="45.03461" lon="5.5701">
        <ele>1590</ele>
        <time>2019-07-14T11:39:24Z</time>
      </trkpt>
      <trkpt lat="45.0346" lon="5.5701">
        <ele>1590</ele>
        <time>2019-07-14T11:39:25Z</time>
      </trkpt>
      <trkpt lat="45.03458" lon="5.5701">
        <ele>1590</ele>
        <time>2019-07-14T11:39:26Z</time>
      </trkpt>
      <trkpt lat="45.03457" lon="5.57009">
        <ele>1591</ele>
        <time>2019-07-14T11:39:27Z</time>
      </trkpt>
      <trkpt lat="45.03455" lon="5.57009">
        <ele>1591</ele>
        <time>2019-07-14T11:39:28Z</time>
      </trkpt>
      <trkpt lat="45.03453" lon="5.57009">
        <ele>1591</ele>
        <time>2019-07-14T11:39:29Z</time>
      </trkpt>
      <trkpt lat="45.03452" lon="5.57008">
        <ele>1591</ele>
        <time>2019-07-14T11:39:30Z</time>
      </trkpt>
      <trkpt lat="45.0345" lon="5.57007">
        <ele>1592</ele>
        <time>2019-07-14T11:39:31Z</time>
      </trkpt>
      <trkpt lat="45.03448" lon="5.57007">
        <ele>1592</ele>
        <time>2019-07-14T11:39:32Z</time>
      </trkpt>
      <trkpt lat="45.03447" lon="5.57006">
        <ele>1592</ele>
        <time>2019-07-14T11:39:33Z</time>
      </trkpt>
      <trkpt lat="45.03445" lon="5.57005">
        <ele>1592</ele>
        <time>2019-07-14T11:39:34Z</time>
      </trkpt>
      <trkpt lat="45.03443" lon="5.57004">
        <ele>1592</ele>
        <time>2019-07-14T11:39:35Z</time>
      </trkpt>
      <trkpt lat="45.03442" lon="5.57003">
        <ele>1593</ele>
        <time>2019-07-14T11:39:36Z</time>
      </trkpt>
      <trkpt lat="45.0344" lon="5.57002">
        <ele>1593</ele>
        <time>2019-07-14T11:39:37Z</time>
      </trkpt>
      <trkpt lat="45.03438" lon="5.57001">
        <ele>1593</ele>
        <time>2019-07-14T11:39:38Z</time>
      </trkpt>
      <trkpt lat="45.03437" lon="5.56999">
        <ele>1589</ele>
        <time>2019-07-14T11:39:39Z</time>
      </trkpt>
      <trkpt lat="45.03435" lon="5.56998">
        <ele>1589</ele>
        <time>2019-07-14T11:39:40Z</time>
      </trkpt>
      <trkpt lat="45.03434" lon="5.56997">
        <ele>1590</ele>
        <time>2019-07-14T11:39:41Z</time>
      </trkpt>
      <trkpt lat="45.03433" lon="5.56996">
        <ele>1590</ele>
        <time>2019-07-14T11:39:42Z</time>
      </trkpt>
      <trkpt lat="45.03431" lon="5.56995">
        <ele>1590</ele>
        <time>2019-07-14T11:39:43Z</time>
      </trkpt>
      <trkpt lat="45.03429" lon="5.56994">
        <ele>1591</ele>
        <time>2019-07-14T11:39:44Z</time>
      </trkpt>
      <trkpt lat="45.03428" lon="5.56993">
        <ele>1591</ele>
        <time>2019-07-14T11:39:45Z</time>
      </trkpt>
      <trkpt lat="45.03427" lon="5.56991">
        <ele>1591</ele>
        <time>2019-07-14T11:39:46Z</time>
      </trkpt>
      <trkpt lat="45.03426" lon="5.5699">
        <ele>1591</ele>
        <time>2019-07-14T11:39:47Z</time>
      </trkpt>
      <trkpt lat="45.03425" lon="5.56988">
        <ele>1591</ele>
        <time>2019-07-14T11:39:48Z</time>
      </trkpt>
      <trkpt lat="45.03423" lon="5.56987">
        <ele>1591</ele>
        <time>2019-07-14T11:39:49Z</time>
      </trkpt>
      <trkpt lat="45.03422" lon="5.56986">
        <ele>1591</ele>
        <time>2019-07-14T11:39:50Z</time>
      </trkpt>
      <trkpt lat="45.0342" lon="5.56985">
        <ele>1590</ele>
        <time>2019-07-14T11:39:51Z</time>
      </trkpt>
      <trkpt lat="45.03419" lon="5.56984">
        <ele>1590</ele>
        <time>2019-07-14T11:39:52Z</time>
      </trkpt>
      <trkpt lat="45.03417" lon="5.56984">
        <ele>1590</ele>
        <time>2019-07-14T11:39:53Z</time>
      </trkpt>
      <trkpt lat="45.03415" lon="5.56983">
        <ele>1598</ele>
        <time>2019-07-14T11:39:54Z</time>
      </trkpt>
      <trkpt lat="45.03414" lon="5.56982">
        <ele>1598</ele>
        <time>2019-07-14T11:39:55Z</time>
      </trkpt>
      <trkpt lat="45.03412" lon="5.56981">
        <ele>1598</ele>
        <time>2019-07-14T11:39:56Z</time>
      </trkpt>
      <trkpt lat="45.03411" lon="5.56979">
        <ele>1598</ele>
        <time>2019-07-14T11:39:57Z</time>
      </trkpt>
      <trkpt lat="45.03409" lon="5.56978">
        <ele>1598</ele>
        <time>2019-07-14T11:39:58Z</time>
      </trkpt>
      <trkpt lat="45.03407" lon="5.56977">
        <ele>1598</ele>
        <time>2019-07-14T11:39:59Z</time>
      </trkpt>
      <trkpt lat="45.03406" lon="5.56975">
        <ele>1598</ele>
        <time>2019-07-14T11:40:00Z</time>
      </trkpt>
      <trkpt lat="45.03404" lon="5.56974">
        <ele>1598</ele>
        <time>2019-07-14T11:40:01Z</time>
      </trkpt>
      <trkpt lat="45.03403" lon="5.56973">
        <ele>1599</ele>
        <time>2019-07-14T11:40:02Z</time>
      </trkpt>
      <trkpt lat="45.03401" lon="5.56971">
        <ele>1599</ele>
        <time>2019-07-14T11:40:03Z</time>
      </trkpt>
      <trkpt lat="45.034" lon="5.5697">
        <ele>1599</ele>
        <time>2019-07-14T11:40:04Z</time>
      </trkpt>
      <trkpt lat="45.03398" lon="5.56969">
        <ele>1599</ele>
        <time>2019-07-14T11:40:05Z</time>
      </trkpt>
      <trkpt lat="45.03397" lon="5.56967">
        <ele>1599</ele>
        <time>2019-07-14T11:40:06Z</time>
      </trkpt>
      <trkpt lat="45.03395" lon="5.56966">
        <ele>1599</ele>
        <time>2019-07-14T11:40:07Z</time>
      </trkpt>
      <trkpt lat="45.03393" lon="5.56964">
        <ele>1599</ele>
        <time>2019-07-14T11:40:08Z</time>
      </trkpt>
      <trkpt lat="45.03392" lon="5.56963">
        <ele>1599</ele>
        <time>2019-07-14T11:40:09Z</time>
      </trkpt>
      <trkpt lat="45.03391" lon="5.56961">
        <ele>1599</ele>
        <time>2019-07-14T11:40:10Z</time>
      </trkpt>
      <trkpt lat="45.03389" lon="5.56959">
        <ele>1599</ele>
        <time>2019-07-14T11:40:11Z</time>
      </trkpt>
      <trkpt lat="45.03388" lon="5.56958">
        <ele>1599</ele>
        <time>2019-07-14T11:40:12Z</time>
      </trkpt>
      <trkpt lat="45.03387" lon="5.56956">
        <ele>1599</ele>
        <time>2019-07-14T11:40:13Z</time>
      </trkpt>
      <trkpt lat="45.03386" lon="5.56955">
        <ele>1599</ele>
        <time>2019-07-14T11:40:14Z</time>
      </trkpt>
      <trkpt lat="45.03384" lon="5.56953">
        <ele>1599</ele>
        <time>2019-07-14T11:40:15Z</time>
      </trkpt>
      <trkpt lat="45.03383" lon="5.56951">
        <ele>1599</ele>
        <time>2019-07-14T11:40:16Z</time>
      </trkpt>
      <trkpt lat="45.03381" lon="5.5695">
        <ele>1599</ele>
        <time>2019-07-14T11:40:17Z</time>
      </trkpt>
      <trkpt lat="45.0338" lon="5.56948">
        <ele>1599</ele>
        <time>2019-07-14T11:40:18Z</time>
      </trkpt>
      <trkpt lat="45.03378" lon="5.56946">
        <ele>1599</ele>
        <time>2019-07-14T11:40:19Z</time>
      </trkpt>
      <trkpt lat="45.03376" lon="5.56944">
        <ele>1600</ele>
        <time>2019-07-14T11:40:20Z</time>
      </trkpt>
      <trkpt lat="45.03374" lon="5.56943">
        <ele>1600</ele>
        <time>2019-07-14T11:40:21Z</time>
      </trkpt>
      <trkpt lat="45.03371" lon="5.56942">
        <ele>1600</ele>
        <time>2019-07-14T11:40:22Z</time>
      </trkpt>
      <trkpt lat="45.03367" lon="5.56942">
        <ele>1601</ele>
        <time>2019-07-14T11:40:23Z</time>
      </trkpt>
      <trkpt lat="45.03363" lon="5.56945">
        <ele>1601</ele>
        <time>2019-07-14T11:40:24Z</time>
      </trkpt>
      <trkpt lat="45.0336" lon="5.5695">
        <ele>1602</ele>
        <time>2019-07-14T11:40:25Z</time>
      </trkpt>
      <trkpt lat="45.03357" lon="5.56956">
        <ele>1602</ele>
        <time>2019-07-14T11:40:26Z</time>
      </trkpt>
      <trkpt lat="45.03359" lon="5.56969">
        <ele>1603</ele>
        <time>2019-07-14T11:40:28Z</time>
      </trkpt>
      <trkpt lat="45.03361" lon="5.56974">
        <ele>1603</ele>
        <time>2019-07-14T11:40:29Z</time>
      </trkpt>
      <trkpt lat="45.03364" lon="5.56979">
        <ele>1603</ele>
        <time>2019-07-14T11:40:30Z</time>
      </trkpt>
      <trkpt lat="45.03367" lon="5.56983">
        <ele>1603</ele>
        <time>2019-07-14T11:40:31Z</time>
      </trkpt>
      <trkpt lat="45.03368" lon="5.56988">
        <ele>1603</ele>
        <time>2019-07-14T11:40:32Z</time>
      </trkpt>
      <trkpt lat="45.03369" lon="5.56993">
        <ele>1603</ele>
        <time>2019-07-14T11:40:33Z</time>
      </trkpt>
      <trkpt lat="45.03368" lon="5.56997">
        <ele>1603</ele>
        <time>2019-07-14T11:40:34Z</time>
      </trkpt>
      <trkpt lat="45.03367" lon="5.57001">
        <ele>1607</ele>
        <time>2019-07-14T11:40:35Z</time>
      </trkpt>
      <trkpt lat="45.03366" lon="5.57004">
        <ele>1608</ele>
        <time>2019-07-14T11:40:36Z</time>
      </trkpt>
      <trkpt lat="45.03364" lon="5.57006">
        <ele>1608</ele>
        <time>2019-07-14T11:40:37Z</time>
      </trkpt>
      <trkpt lat="45.03361" lon="5.57008">
        <ele>1608</ele>
        <time>2019-07-14T11:40:38Z</time>
      </trkpt>
      <trkpt lat="45.03358" lon="5.57009">
        <ele>1609</ele>
        <time>2019-07-14T11:40:39Z</time>
      </trkpt>
      <trkpt lat="45.03355" lon="5.5701">
        <ele>1609</ele>
        <time>2019-07-14T11:40:40Z</time>
      </trkpt>
      <trkpt lat="45.03352" lon="5.5701">
        <ele>1609</ele>
        <time>2019-07-14T11:40:41Z</time>
      </trkpt>
      <trkpt lat="45.0335" lon="5.57011">
        <ele>1610</ele>
        <time>2019-07-14T11:40:42Z</time>
      </trkpt>
      <trkpt lat="45.03347" lon="5.57012">
        <ele>1610</ele>
        <time>2019-07-14T11:40:43Z</time>
      </trkpt>
      <trkpt lat="45.03344" lon="5.57013">
        <ele>1610</ele>
        <time>2019-07-14T11:40:44Z</time>
      </trkpt>
      <trkpt lat="45.03342" lon="5.57013">
        <ele>1610</ele>
        <time>2019-07-14T11:40:45Z</time>
      </trkpt>
      <trkpt lat="45.03339" lon="5.57013">
        <ele>1611</ele>
        <time>2019-07-14T11:40:46Z</time>
      </trkpt>
      <trkpt lat="45.03336" lon="5.57013">
        <ele>1611</ele>
        <time>2019-07-14T11:40:47Z</time>
      </trkpt>
      <trkpt lat="45.03333" lon="5.57012">
        <ele>1616</ele>
        <time>2019-07-14T11:40:48Z</time>
      </trkpt>
      <trkpt lat="45.03331" lon="5.57012">
        <ele>1616</ele>
        <time>2019-07-14T11:40:49Z</time>
      </trkpt>
      <trkpt lat="45.03329" lon="5.57011">
        <ele>1616</ele>
        <time>2019-07-14T11:40:50Z</time>
      </trkpt>
      <trkpt lat="45.03326" lon="5.57011">
        <ele>1616</ele>
        <time>2019-07-14T11:40:51Z</time>
      </trkpt>
      <trkpt lat="45.03325" lon="5.5701">
        <ele>1616</ele>
        <time>2019-07-14T11:40:52Z</time>
      </trkpt>
      <trkpt lat="45.03322" lon="5.57009">
        <ele>1616</ele>
        <time>2019-07-14T11:40:53Z</time>
      </trkpt>
      <trkpt lat="45.0332" lon="5.57008">
        <ele>1617</ele>
        <time>2019-07-14T11:40:54Z</time>
      </trkpt>
      <trkpt lat="45.03317" lon="5.57008">
        <ele>1617</ele>
        <time>2019-07-14T11:40:55Z</time>
      </trkpt>
      <trkpt lat="45.03315" lon="5.57007">
        <ele>1617</ele>
        <time>2019-07-14T11:40:56Z</time>
      </trkpt>
      <trkpt lat="45.03313" lon="5.57006">
        <ele>1618</ele>
        <time>2019-07-14T11:40:57Z</time>
      </trkpt>
      <trkpt lat="45.03311" lon="5.57005">
        <ele>1618</ele>
        <time>2019-07-14T11:40:58Z</time>
      </trkpt>
      <trkpt lat="45.03309" lon="5.57004">
        <ele>1618</ele>
        <time>2019-07-14T11:40:59Z</time>
      </trkpt>
      <trkpt lat="45.03306" lon="5.57004">
        <ele>1619</ele>
        <time>2019-07-14T11:41:00Z</time>
      </trkpt>
      <trkpt lat="45.03304" lon="5.57004">
        <ele>1619</ele>
        <time>2019-07-14T11:41:01Z</time>
      </trkpt>
      <trkpt lat="45.03302" lon="5.57005">
        <ele>1619</ele>
        <time>2019-07-14T11:41:02Z</time>
      </trkpt>
      <trkpt lat="45.033" lon="5.57006">
        <ele>1619</ele>
        <time>2019-07-14T11:41:03Z</time>
      </trkpt>
      <trkpt lat="45.03298" lon="5.57006">
        <ele>1620</ele>
        <time>2019-07-14T11:41:04Z</time>
      </trkpt>
      <trkpt lat="45.03296" lon="5.57008">
        <ele>1620</ele>
        <time>2019-07-14T11:41:05Z</time>
      </trkpt>
      <trkpt lat="45.03295" lon="5.57009">
        <ele>1620</ele>
        <time>2019-07-14T11:41:06Z</time>
      </trkpt>
      <trkpt lat="45.03293" lon="5.57011">
        <ele>1620</ele>
        <time>2019-07-14T11:41:07Z</time>
      </trkpt>
      <trkpt lat="45.03291" lon="5.57012">
        <ele>1621</ele>
        <time>2019-07-14T11:41:08Z</time>
      </trkpt>
      <trkpt lat="45.0329" lon="5.57013">
        <ele>1621</ele>
        <time>2019-07-14T11:41:09Z</time>
      </trkpt>
      <trkpt lat="45.03288" lon="5.57014">
        <ele>1621</ele>
        <time>2019-07-14T11:41:10Z</time>
      </trkpt>
      <trkpt lat="45.03286" lon="5.57014">
        <ele>1621</ele>
        <time>2019-07-14T11:41:11Z</time>
      </trkpt>
      <trkpt lat="45.03285" lon="5.57015">
        <ele>1621</ele>
        <time>2019-07-14T11:41:12Z</time>
      </trkpt>
      <trkpt lat="45.03281" lon="5.57014">
        <ele>1622</ele>
        <time>2019-07-14T11:41:14Z</time>
      </trkpt>
      <trkpt lat="45.0328" lon="5.57014">
        <ele>1622</ele>
        <time>2019-07-14T11:41:15Z</time>
      </trkpt>
      <trkpt lat="45.03278" lon="5.57013">
        <ele>1622</ele>
        <time>2019-07-14T11:41:16Z</time>
      </trkpt>
      <trkpt lat="45.03276" lon="5.57013">
        <ele>1622</ele>
        <time>2019-07-14T11:41:17Z</time>
      </trkpt>
      <trkpt lat="45.03275" lon="5.57012">
        <ele>1622</ele>
        <time>2019-07-14T11:41:18Z</time>
      </trkpt>
      <trkpt lat="45.03273" lon="5.57011">
        <ele>1623</ele>
        <time>2019-07-14T11:41:19Z</time>
      </trkpt>
      <trkpt lat="45.03272" lon="5.5701">
        <ele>1623</ele>
        <time>2019-07-14T11:41:20Z</time>
      </trkpt>
      <trkpt lat="45.0327" lon="5.57009">
        <ele>1623</ele>
        <time>2019-07-14T11:41:21Z</time>
      </trkpt>
      <trkpt lat="45.03269" lon="5.57007">
        <ele>1623</ele>
        <time>2019-07-14T11:41:22Z</time>
      </trkpt>
      <trkpt lat="45.03268" lon="5.57006">
        <ele>1623</ele>
        <time>2019-07-14T11:41:23Z</time>
      </trkpt>
      <trkpt lat="45.03266" lon="5.57005">
        <ele>1624</ele>
        <time>2019-07-14T11:41:24Z</time>
      </trkpt>
      <trkpt lat="45.03265" lon="5.57003">
        <ele>1624</ele>
        <time>2019-07-14T11:41:25Z</time>
      </trkpt>
      <trkpt lat="45.03264" lon="5.57001">
        <ele>1624</ele>
        <time>2019-07-14T11:41:26Z</time>
      </trkpt>
      <trkpt lat="45.03264" lon="5.56999">
        <ele>1624</ele>
        <time>2019-07-14T11:41:27Z</time>
      </trkpt>
      <trkpt lat="45.03263" lon="5.56997">
        <ele>1625</ele>
        <time>2019-07-14T11:41:28Z</time>
      </trkpt>
      <trkpt lat="45.03262" lon="5.56995">
        <ele>1625</ele>
        <time>2019-07-14T11:41:29Z</time>
      </trkpt>
      <trkpt lat="45.03262" lon="5.56992">
        <ele>1624</ele>
        <time>2019-07-14T11:41:31Z</time>
      </trkpt>
      <trkpt lat="45.03261" lon="5.56992">
        <ele>1625</ele>
        <time>2019-07-14T11:41:33Z</time>
      </trkpt>
      <trkpt lat="45.03263" lon="5.5699">
        <ele>1624</ele>
        <time>2019-07-14T11:42:50Z</time>
      </trkpt>
      <trkpt lat="45.03265" lon="5.56988">
        <ele>1624</ele>
        <time>2019-07-14T11:42:51Z</time>
      </trkpt>
      <trkpt lat="45.03266" lon="5.56986">
        <ele>1624</ele>
        <time>2019-07-14T11:42:52Z</time>
      </trkpt>
      <trkpt lat="45.03267" lon="5.56983">
        <ele>1623</ele>
        <time>2019-07-14T11:42:53Z</time>
      </trkpt>
      <trkpt lat="45.03268" lon="5.56981">
        <ele>1623</ele>
        <time>2019-07-14T11:42:54Z</time>
      </trkpt>
      <trkpt lat="45.0327" lon="5.56979">
        <ele>1623</ele>
        <time>2019-07-14T11:42:55Z</time>
      </trkpt>
      <trkpt lat="45.0327" lon="5.56976">
        <ele>1623</ele>
        <time>2019-07-14T11:42:56Z</time>
      </trkpt>
      <trkpt lat="45.03271" lon="5.56974">
        <ele>1623</ele>
        <time>2019-07-14T11:42:57Z</time>
      </trkpt>
      <trkpt lat="45.03272" lon="5.56956">
        <ele>1623</ele>
        <time>2019-07-14T11:43:05Z</time>
      </trkpt>
      <trkpt lat="45.03272" lon="5.56951">
        <ele>1623</ele>
        <time>2019-07-14T11:43:07Z</time>
      </trkpt>
      <trkpt lat="45.03272" lon="5.56935">
        <ele>1625</ele>
        <time>2019-07-14T11:43:14Z</time>
      </trkpt>
      <trkpt lat="45.03272" lon="5.56924">
        <ele>1626</ele>
        <time>2019-07-14T11:43:19Z</time>
      </trkpt>
      <trkpt lat="45.03272" lon="5.56922">
        <ele>1626</ele>
        <time>2019-07-14T11:43:20Z</time>
      </trkpt>
      <trkpt lat="45.03271" lon="5.5692">
        <ele>1626</ele>
        <time>2019-07-14T11:43:21Z</time>
      </trkpt>
      <trkpt lat="45.03272" lon="5.56911">
        <ele>1629</ele>
        <time>2019-07-14T11:43:25Z</time>
      </trkpt>
      <trkpt lat="45.03271" lon="5.56904">
        <ele>1628</ele>
        <time>2019-07-14T11:43:28Z</time>
      </trkpt>
      <trkpt lat="45.03271" lon="5.56897">
        <ele>1628</ele>
        <time>2019-07-14T11:43:31Z</time>
      </trkpt>
      <trkpt lat="45.0327" lon="5.5689">
        <ele>1628</ele>
        <time>2019-07-14T11:43:34Z</time>
      </trkpt>
      <trkpt lat="45.0327" lon="5.56885">
        <ele>1628</ele>
        <time>2019-07-14T11:43:36Z</time>
      </trkpt>
      <trkpt lat="45.0327" lon="5.56881">
        <ele>1628</ele>
        <time>2019-07-14T11:43:38Z</time>
      </trkpt>
      <trkpt lat="45.0327" lon="5.56877">
        <ele>1629</ele>
        <time>2019-07-14T11:43:40Z</time>
      </trkpt>
      <trkpt lat="45.0327" lon="5.56875">
        <ele>1629</ele>
        <time>2019-07-14T11:43:41Z</time>
      </trkpt>
      <trkpt lat="45.0327" lon="5.56867">
        <ele>1630</ele>
        <time>2019-07-14T11:43:45Z</time>
      </trkpt>
      <trkpt lat="45.03271" lon="5.56865">
        <ele>1630</ele>
        <time>2019-07-14T11:43:46Z</time>
      </trkpt>
      <trkpt lat="45.03272" lon="5.56863">
        <ele>1630</ele>
        <time>2019-07-14T11:43:47Z</time>
      </trkpt>
      <trkpt lat="45.03273" lon="5.56861">
        <ele>1630</ele>
        <time>2019-07-14T11:43:48Z</time>
      </trkpt>
      <trkpt lat="45.03273" lon="5.56859">
        <ele>1630</ele>
        <time>2019-07-14T11:43:49Z</time>
      </trkpt>
      <trkpt lat="45.03274" lon="5.56857">
        <ele>1630</ele>
        <time>2019-07-14T11:43:50Z</time>
      </trkpt>
      <trkpt lat="45.03274" lon="5.56848">
        <ele>1631</ele>
        <time>2019-07-14T11:43:54Z</time>
      </trkpt>
      <trkpt lat="45.03275" lon="5.56843">
        <ele>1631</ele>
        <time>2019-07-14T11:43:56Z</time>
      </trkpt>
      <trkpt lat="45.03274" lon="5.56839">
        <ele>1632</ele>
        <time>2019-07-14T11:43:58Z</time>
      </trkpt>
      <trkpt lat="45.03274" lon="5.56837">
        <ele>1632</ele>
        <time>2019-07-14T11:43:59Z</time>
      </trkpt>
      <trkpt lat="45.03273" lon="5.56835">
        <ele>1632</ele>
        <time>2019-07-14T11:44:00Z</time>
      </trkpt>
      <trkpt lat="45.03273" lon="5.56831">
        <ele>1635</ele>
        <time>2019-07-14T11:44:02Z</time>
      </trkpt>
      <trkpt lat="45.03272" lon="5.56829">
        <ele>1635</ele>
        <time>2019-07-14T11:44:03Z</time>
      </trkpt>
      <trkpt lat="45.03272" lon="5.56827">
        <ele>1635</ele>
        <time>2019-07-14T11:44:04Z</time>
      </trkpt>
      <trkpt lat="45.03272" lon="5.56825">
        <ele>1635</ele>
        <time>2019-07-14T11:44:05Z</time>
      </trkpt>
      <trkpt lat="45.03271" lon="5.56823">
        <ele>1635</ele>
        <time>2019-07-14T11:44:06Z</time>
      </trkpt>
      <trkpt lat="45.0327" lon="5.56821">
        <ele>1635</ele>
        <time>2019-07-14T11:44:07Z</time>
      </trkpt>
      <trkpt lat="45.03269" lon="5.56819">
        <ele>1635</ele>
        <time>2019-07-14T11:44:08Z</time>
      </trkpt>
      <trkpt lat="45.03268" lon="5.56817">
        <ele>1635</ele>
        <time>2019-07-14T11:44:09Z</time>
      </trkpt>
      <trkpt lat="45.03267" lon="5.56815">
        <ele>1635</ele>
        <time>2019-07-14T11:44:10Z</time>
      </trkpt>
      <trkpt lat="45.03267" lon="5.56814">
        <ele>1635</ele>
        <time>2019-07-14T11:44:11Z</time>
      </trkpt>
      <trkpt lat="45.03265" lon="5.56812">
        <ele>1635</ele>
        <time>2019-07-14T11:44:12Z</time>
      </trkpt>
      <trkpt lat="45.03265" lon="5.5681">
        <ele>1635</ele>
        <time>2019-07-14T11:44:13Z</time>
      </trkpt>
      <trkpt lat="45.03264" lon="5.56808">
        <ele>1635</ele>
        <time>2019-07-14T11:44:14Z</time>
      </trkpt>
      <trkpt lat="45.03264" lon="5.56806">
        <ele>1634</ele>
        <time>2019-07-14T11:44:15Z</time>
      </trkpt>
      <trkpt lat="45.03263" lon="5.56804">
        <ele>1634</ele>
        <time>2019-07-14T11:44:16Z</time>
      </trkpt>
      <trkpt lat="45.03262" lon="5.56803">
        <ele>1634</ele>
        <time>2019-07-14T11:44:17Z</time>
      </trkpt>
      <trkpt lat="45.03262" lon="5.56801">
        <ele>1634</ele>
        <time>2019-07-14T11:44:18Z</time>
      </trkpt>
      <trkpt lat="45.03261" lon="5.56799">
        <ele>1634</ele>
        <time>2019-07-14T11:44:19Z</time>
      </trkpt>
      <trkpt lat="45.0326" lon="5.56797">
        <ele>1634</ele>
        <time>2019-07-14T11:44:20Z</time>
      </trkpt>
      <trkpt lat="45.0326" lon="5.56795">
        <ele>1634</ele>
        <time>2019-07-14T11:44:21Z</time>
      </trkpt>
      <trkpt lat="45.03259" lon="5.56793">
        <ele>1634</ele>
        <time>2019-07-14T11:44:22Z</time>
      </trkpt>
      <trkpt lat="45.03259" lon="5.5679">
        <ele>1634</ele>
        <time>2019-07-14T11:44:23Z</time>
      </trkpt>
      <trkpt lat="45.03258" lon="5.56788">
        <ele>1634</ele>
        <time>2019-07-14T11:44:24Z</time>
      </trkpt>
      <trkpt lat="45.03258" lon="5.56786">
        <ele>1634</ele>
        <time>2019-07-14T11:44:25Z</time>
      </trkpt>
      <trkpt lat="45.03257" lon="5.56784">
        <ele>1635</ele>
        <time>2019-07-14T11:44:26Z</time>
      </trkpt>
      <trkpt lat="45.03256" lon="5.56783">
        <ele>1635</ele>
        <time>2019-07-14T11:44:27Z</time>
      </trkpt>
      <trkpt lat="45.03255" lon="5.56782">
        <ele>1635</ele>
        <time>2019-07-14T11:44:28Z</time>
      </trkpt>
      <trkpt lat="45.03253" lon="5.5678">
        <ele>1635</ele>
        <time>2019-07-14T11:44:29Z</time>
      </trkpt>
      <trkpt lat="45.03252" lon="5.56779">
        <ele>1635</ele>
        <time>2019-07-14T11:44:30Z</time>
      </trkpt>
      <trkpt lat="45.03251" lon="5.56778">
        <ele>1636</ele>
        <time>2019-07-14T11:44:31Z</time>
      </trkpt>
      <trkpt lat="45.03249" lon="5.56777">
        <ele>1649</ele>
        <time>2019-07-14T11:44:32Z</time>
      </trkpt>
      <trkpt lat="45.03248" lon="5.56776">
        <ele>1649</ele>
        <time>2019-07-14T11:44:33Z</time>
      </trkpt>
      <trkpt lat="45.03246" lon="5.56775">
        <ele>1649</ele>
        <time>2019-07-14T11:44:34Z</time>
      </trkpt>
      <trkpt lat="45.03244" lon="5.56774">
        <ele>1649</ele>
        <time>2019-07-14T11:44:35Z</time>
      </trkpt>
      <trkpt lat="45.03243" lon="5.56774">
        <ele>1649</ele>
        <time>2019-07-14T11:44:36Z</time>
      </trkpt>
      <trkpt lat="45.03241" lon="5.56774">
        <ele>1650</ele>
        <time>2019-07-14T11:44:37Z</time>
      </trkpt>
      <trkpt lat="45.0324" lon="5.56775">
        <ele>1650</ele>
        <time>2019-07-14T11:44:38Z</time>
      </trkpt>
      <trkpt lat="45.03239" lon="5.56776">
        <ele>1650</ele>
        <time>2019-07-14T11:44:39Z</time>
      </trkpt>
      <trkpt lat="45.03237" lon="5.56777">
        <ele>1650</ele>
        <time>2019-07-14T11:44:40Z</time>
      </trkpt>
      <trkpt lat="45.03235" lon="5.56778">
        <ele>1650</ele>
        <time>2019-07-14T11:44:41Z</time>
      </trkpt>
      <trkpt lat="45.03234" lon="5.56779">
        <ele>1651</ele>
        <time>2019-07-14T11:44:42Z</time>
      </trkpt>
      <trkpt lat="45.03232" lon="5.5678">
        <ele>1651</ele>
        <time>2019-07-14T11:44:43Z</time>
      </trkpt>
      <trkpt lat="45.03231" lon="5.56781">
        <ele>1651</ele>
        <time>2019-07-14T11:44:44Z</time>
      </trkpt>
      <trkpt lat="45.0323" lon="5.56783">
        <ele>1651</ele>
        <time>2019-07-14T11:44:45Z</time>
      </trkpt>
      <trkpt lat="45.03229" lon="5.56784">
        <ele>1651</ele>
        <time>2019-07-14T11:44:46Z</time>
      </trkpt>
      <trkpt lat="45.03227" lon="5.56785">
        <ele>1651</ele>
        <time>2019-07-14T11:44:47Z</time>
      </trkpt>
      <trkpt lat="45.03225" lon="5.56786">
        <ele>1652</ele>
        <time>2019-07-14T11:44:48Z</time>
      </trkpt>
      <trkpt lat="45.03224" lon="5.56786">
        <ele>1652</ele>
        <time>2019-07-14T11:44:49Z</time>
      </trkpt>
      <trkpt lat="45.03222" lon="5.56787">
        <ele>1652</ele>
        <time>2019-07-14T11:44:50Z</time>
      </trkpt>
      <trkpt lat="45.03221" lon="5.56788">
        <ele>1652</ele>
        <time>2019-07-14T11:44:51Z</time>
      </trkpt>
      <trkpt lat="45.0322" lon="5.56789">
        <ele>1652</ele>
        <time>2019-07-14T11:44:52Z</time>
      </trkpt>
      <trkpt lat="45.03219" lon="5.56791">
        <ele>1652</ele>
        <time>2019-07-14T11:44:53Z</time>
      </trkpt>
      <trkpt lat="45.03217" lon="5.56792">
        <ele>1653</ele>
        <time>2019-07-14T11:44:54Z</time>
      </trkpt>
      <trkpt lat="45.03216" lon="5.56794">
        <ele>1653</ele>
        <time>2019-07-14T11:44:55Z</time>
      </trkpt>
      <trkpt lat="45.03215" lon="5.56795">
        <ele>1653</ele>
        <time>2019-07-14T11:44:56Z</time>
      </trkpt>
      <trkpt lat="45.03214" lon="5.56797">
        <ele>1653</ele>
        <time>2019-07-14T11:44:57Z</time>
      </trkpt>
      <trkpt lat="45.03212" lon="5.56798">
        <ele>1653</ele>
        <time>2019-07-14T11:44:58Z</time>
      </trkpt>
      <trkpt lat="45.03211" lon="5.568">
        <ele>1653</ele>
        <time>2019-07-14T11:44:59Z</time>
      </trkpt>
      <trkpt lat="45.0321" lon="5.56802">
        <ele>1653</ele>
        <time>2019-07-14T11:45:00Z</time>
      </trkpt>
      <trkpt lat="45.03209" lon="5.56804">
        <ele>1654</ele>
        <time>2019-07-14T11:45:01Z</time>
      </trkpt>
      <trkpt lat="45.03208" lon="5.56806">
        <ele>1654</ele>
        <time>2019-07-14T11:45:02Z</time>
      </trkpt>
      <trkpt lat="45.03207" lon="5.56808">
        <ele>1654</ele>
        <time>2019-07-14T11:45:03Z</time>
      </trkpt>
      <trkpt lat="45.03206" lon="5.5681">
        <ele>1654</ele>
        <time>2019-07-14T11:45:04Z</time>
      </trkpt>
      <trkpt lat="45.03205" lon="5.56812">
        <ele>1654</ele>
        <time>2019-07-14T11:45:05Z</time>
      </trkpt>
      <trkpt lat="45.03204" lon="5.56814">
        <ele>1654</ele>
        <time>2019-07-14T11:45:06Z</time>
      </trkpt>
      <trkpt lat="45.03203" lon="5.56815">
        <ele>1655</ele>
        <time>2019-07-14T11:45:07Z</time>
      </trkpt>
      <trkpt lat="45.03202" lon="5.56817">
        <ele>1655</ele>
        <time>2019-07-14T11:45:08Z</time>
      </trkpt>
      <trkpt lat="45.03201" lon="5.56818">
        <ele>1655</ele>
        <time>2019-07-14T11:45:09Z</time>
      </trkpt>
      <trkpt lat="45.032" lon="5.5682">
        <ele>1655</ele>
        <time>2019-07-14T11:45:10Z</time>
      </trkpt>
      <trkpt lat="45.03198" lon="5.56821">
        <ele>1655</ele>
        <time>2019-07-14T11:45:11Z</time>
      </trkpt>
      <trkpt lat="45.03197" lon="5.56823">
        <ele>1656</ele>
        <time>2019-07-14T11:45:12Z</time>
      </trkpt>
      <trkpt lat="45.03196" lon="5.56824">
        <ele>1656</ele>
        <time>2019-07-14T11:45:13Z</time>
      </trkpt>
      <trkpt lat="45.03195" lon="5.56826">
        <ele>1656</ele>
        <time>2019-07-14T11:45:14Z</time>
      </trkpt>
      <trkpt lat="45.03193" lon="5.56828">
        <ele>1656</ele>
        <time>2019-07-14T11:45:15Z</time>
      </trkpt>
      <trkpt lat="45.03193" lon="5.5683">
        <ele>1657</ele>
        <time>2019-07-14T11:45:16Z</time>
      </trkpt>
      <trkpt lat="45.03191" lon="5.56832">
        <ele>1657</ele>
        <time>2019-07-14T11:45:17Z</time>
      </trkpt>
      <trkpt lat="45.0319" lon="5.56834">
        <ele>1657</ele>
        <time>2019-07-14T11:45:18Z</time>
      </trkpt>
      <trkpt lat="45.03189" lon="5.56836">
        <ele>1657</ele>
        <time>2019-07-14T11:45:19Z</time>
      </trkpt>
      <trkpt lat="45.03187" lon="5.56838">
        <ele>1657</ele>
        <time>2019-07-14T11:45:20Z</time>
      </trkpt>
      <trkpt lat="45.03186" lon="5.5684">
        <ele>1657</ele>
        <time>2019-07-14T11:45:21Z</time>
      </trkpt>
      <trkpt lat="45.03185" lon="5.56842">
        <ele>1657</ele>
        <time>2019-07-14T11:45:22Z</time>
      </trkpt>
      <trkpt lat="45.03184" lon="5.56844">
        <ele>1657</ele>
        <time>2019-07-14T11:45:23Z</time>
      </trkpt>
      <trkpt lat="45.03183" lon="5.56846">
        <ele>1658</ele>
        <time>2019-07-14T11:45:24Z</time>
      </trkpt>
      <trkpt lat="45.03182" lon="5.56847">
        <ele>1658</ele>
        <time>2019-07-14T11:45:25Z</time>
      </trkpt>
      <trkpt lat="45.0318" lon="5.56848">
        <ele>1658</ele>
        <time>2019-07-14T11:45:26Z</time>
      </trkpt>
      <trkpt lat="45.03178" lon="5.56849">
        <ele>1658</ele>
        <time>2019-07-14T11:45:27Z</time>
      </trkpt>
      <trkpt lat="45.03177" lon="5.5685">
        <ele>1658</ele>
        <time>2019-07-14T11:45:28Z</time>
      </trkpt>
      <trkpt lat="45.03175" lon="5.56851">
        <ele>1658</ele>
        <time>2019-07-14T11:45:29Z</time>
      </trkpt>
      <trkpt lat="45.03174" lon="5.56851">
        <ele>1658</ele>
        <time>2019-07-14T11:45:30Z</time>
      </trkpt>
      <trkpt lat="45.03172" lon="5.56851">
        <ele>1658</ele>
        <time>2019-07-14T11:45:31Z</time>
      </trkpt>
      <trkpt lat="45.0317" lon="5.5685">
        <ele>1659</ele>
        <time>2019-07-14T11:45:32Z</time>
      </trkpt>
      <trkpt lat="45.03169" lon="5.56849">
        <ele>1659</ele>
        <time>2019-07-14T11:45:33Z</time>
      </trkpt>
      <trkpt lat="45.03167" lon="5.56848">
        <ele>1659</ele>
        <time>2019-07-14T11:45:34Z</time>
      </trkpt>
      <trkpt lat="45.03166" lon="5.56847">
        <ele>1669</ele>
        <time>2019-07-14T11:45:35Z</time>
      </trkpt>
      <trkpt lat="45.03165" lon="5.56845">
        <ele>1668</ele>
        <time>2019-07-14T11:45:36Z</time>
      </trkpt>
      <trkpt lat="45.03163" lon="5.56842">
        <ele>1668</ele>
        <time>2019-07-14T11:45:37Z</time>
      </trkpt>
      <trkpt lat="45.03162" lon="5.5684">
        <ele>1667</ele>
        <time>2019-07-14T11:45:38Z</time>
      </trkpt>
      <trkpt lat="45.03161" lon="5.56838">
        <ele>1667</ele>
        <time>2019-07-14T11:45:39Z</time>
      </trkpt>
      <trkpt lat="45.0316" lon="5.56835">
        <ele>1667</ele>
        <time>2019-07-14T11:45:40Z</time>
      </trkpt>
      <trkpt lat="45.0316" lon="5.56833">
        <ele>1666</ele>
        <time>2019-07-14T11:45:41Z</time>
      </trkpt>
      <trkpt lat="45.03159" lon="5.5683">
        <ele>1666</ele>
        <time>2019-07-14T11:45:42Z</time>
      </trkpt>
      <trkpt lat="45.03159" lon="5.56828">
        <ele>1667</ele>
        <time>2019-07-14T11:45:43Z</time>
      </trkpt>
      <trkpt lat="45.03158" lon="5.56826">
        <ele>1667</ele>
        <time>2019-07-14T11:45:44Z</time>
      </trkpt>
      <trkpt lat="45.03158" lon="5.56824">
        <ele>1667</ele>
        <time>2019-07-14T11:45:45Z</time>
      </trkpt>
      <trkpt lat="45.03157" lon="5.56821">
        <ele>1668</ele>
        <time>2019-07-14T11:45:46Z</time>
      </trkpt>
      <trkpt lat="45.03157" lon="5.56819">
        <ele>1668</ele>
        <time>2019-07-14T11:45:47Z</time>
      </trkpt>
      <trkpt lat="45.03156" lon="5.56814">
        <ele>1669</ele>
        <time>2019-07-14T11:45:49Z</time>
      </trkpt>
      <trkpt lat="45.03156" lon="5.56812">
        <ele>1669</ele>
        <time>2019-07-14T11:45:50Z</time>
      </trkpt>
      <trkpt lat="45.03156" lon="5.56809">
        <ele>1669</ele>
        <time>2019-07-14T11:45:51Z</time>
      </trkpt>
      <trkpt lat="45.03155" lon="5.56807">
        <ele>1669</ele>
        <time>2019-07-14T11:45:52Z</time>
      </trkpt>
      <trkpt lat="45.03155" lon="5.56802">
        <ele>1669</ele>
        <time>2019-07-14T11:45:54Z</time>
      </trkpt>
      <trkpt lat="45.03154" lon="5.56799">
        <ele>1669</ele>
        <time>2019-07-14T11:45:55Z</time>
      </trkpt>
      <trkpt lat="45.03154" lon="5.56797">
        <ele>1669</ele>
        <time>2019-07-14T11:45:56Z</time>
      </trkpt>
      <trkpt lat="45.03154" lon="5.56792">
        <ele>1669</ele>
        <time>2019-07-14T11:45:58Z</time>
      </trkpt>
      <trkpt lat="45.03153" lon="5.56789">
        <ele>1669</ele>
        <time>2019-07-14T11:45:59Z</time>
      </trkpt>
      <trkpt lat="45.03153" lon="5.56784">
        <ele>1669</ele>
        <time>2019-07-14T11:46:01Z</time>
      </trkpt>
      <trkpt lat="45.03153" lon="5.56776">
        <ele>1668</ele>
        <time>2019-07-14T11:46:04Z</time>
      </trkpt>
      <trkpt lat="45.03152" lon="5.56763">
        <ele>1667</ele>
        <time>2019-07-14T11:46:09Z</time>
      </trkpt>
      <trkpt lat="45.03152" lon="5.5676">
        <ele>1667</ele>
        <time>2019-07-14T11:46:10Z</time>
      </trkpt>
      <trkpt lat="45.03151" lon="5.56757">
        <ele>1667</ele>
        <time>2019-07-14T11:46:11Z</time>
      </trkpt>
      <trkpt lat="45.03151" lon="5.56754">
        <ele>1666</ele>
        <time>2019-07-14T11:46:12Z</time>
      </trkpt>
      <trkpt lat="45.03151" lon="5.56751">
        <ele>1666</ele>
        <time>2019-07-14T11:46:13Z</time>
      </trkpt>
      <trkpt lat="45.0315" lon="5.56748">
        <ele>1660</ele>
        <time>2019-07-14T11:46:14Z</time>
      </trkpt>
      <trkpt lat="45.03149" lon="5.56746">
        <ele>1660</ele>
        <time>2019-07-14T11:46:15Z</time>
      </trkpt>
      <trkpt lat="45.03148" lon="5.56743">
        <ele>1660</ele>
        <time>2019-07-14T11:46:16Z</time>
      </trkpt>
      <trkpt lat="45.03147" lon="5.5674">
        <ele>1660</ele>
        <time>2019-07-14T11:46:17Z</time>
      </trkpt>
      <trkpt lat="45.03146" lon="5.56737">
        <ele>1660</ele>
        <time>2019-07-14T11:46:18Z</time>
      </trkpt>
      <trkpt lat="45.03145" lon="5.56735">
        <ele>1660</ele>
        <time>2019-07-14T11:46:19Z</time>
      </trkpt>
      <trkpt lat="45.03143" lon="5.56733">
        <ele>1660</ele>
        <time>2019-07-14T11:46:20Z</time>
      </trkpt>
      <trkpt lat="45.03141" lon="5.56732">
        <ele>1660</ele>
        <time>2019-07-14T11:46:21Z</time>
      </trkpt>
      <trkpt lat="45.03139" lon="5.56732">
        <ele>1660</ele>
        <time>2019-07-14T11:46:22Z</time>
      </trkpt>
      <trkpt lat="45.03136" lon="5.56731">
        <ele>1660</ele>
        <time>2019-07-14T11:46:23Z</time>
      </trkpt>
      <trkpt lat="45.03134" lon="5.5673">
        <ele>1660</ele>
        <time>2019-07-14T11:46:24Z</time>
      </trkpt>
      <trkpt lat="45.03132" lon="5.5673">
        <ele>1660</ele>
        <time>2019-07-14T11:46:25Z</time>
      </trkpt>
      <trkpt lat="45.0313" lon="5.5673">
        <ele>1661</ele>
        <time>2019-07-14T11:46:26Z</time>
      </trkpt>
      <trkpt lat="45.03128" lon="5.56731">
        <ele>1661</ele>
        <time>2019-07-14T11:46:27Z</time>
      </trkpt>
      <trkpt lat="45.03126" lon="5.56733">
        <ele>1661</ele>
        <time>2019-07-14T11:46:28Z</time>
      </trkpt>
      <trkpt lat="45.03124" lon="5.56735">
        <ele>1662</ele>
        <time>2019-07-14T11:46:29Z</time>
      </trkpt>
      <trkpt lat="45.03122" lon="5.56737">
        <ele>1662</ele>
        <time>2019-07-14T11:46:30Z</time>
      </trkpt>
      <trkpt lat="45.0312" lon="5.56739">
        <ele>1663</ele>
        <time>2019-07-14T11:46:31Z</time>
      </trkpt>
      <trkpt lat="45.03119" lon="5.56741">
        <ele>1663</ele>
        <time>2019-07-14T11:46:32Z</time>
      </trkpt>
      <trkpt lat="45.03117" lon="5.56743">
        <ele>1664</ele>
        <time>2019-07-14T11:46:33Z</time>
      </trkpt>
      <trkpt lat="45.03114" lon="5.56745">
        <ele>1664</ele>
        <time>2019-07-14T11:46:34Z</time>
      </trkpt>
      <trkpt lat="45.03112" lon="5.56747">
        <ele>1665</ele>
        <time>2019-07-14T11:46:35Z</time>
      </trkpt>
      <trkpt lat="45.03111" lon="5.56749">
        <ele>1666</ele>
        <time>2019-07-14T11:46:36Z</time>
      </trkpt>
      <trkpt lat="45.03108" lon="5.5675">
        <ele>1667</ele>
        <time>2019-07-14T11:46:37Z</time>
      </trkpt>
      <trkpt lat="45.03105" lon="5.56751">
        <ele>1675</ele>
        <time>2019-07-14T11:46:38Z</time>
      </trkpt>
      <trkpt lat="45.03103" lon="5.56752">
        <ele>1675</ele>
        <time>2019-07-14T11:46:39Z</time>
      </trkpt>
      <trkpt lat="45.031" lon="5.56753">
        <ele>1675</ele>
        <time>2019-07-14T11:46:40Z</time>
      </trkpt>
      <trkpt lat="45.03098" lon="5.56753">
        <ele>1676</ele>
        <time>2019-07-14T11:46:41Z</time>
      </trkpt>
      <trkpt lat="45.03096" lon="5.56752">
        <ele>1676</ele>
        <time>2019-07-14T11:46:42Z</time>
      </trkpt>
      <trkpt lat="45.03092" lon="5.56753">
        <ele>1677</ele>
        <time>2019-07-14T11:46:44Z</time>
      </trkpt>
      <trkpt lat="45.0309" lon="5.56754">
        <ele>1677</ele>
        <time>2019-07-14T11:46:45Z</time>
      </trkpt>
      <trkpt lat="45.03087" lon="5.56755">
        <ele>1678</ele>
        <time>2019-07-14T11:46:46Z</time>
      </trkpt>
      <trkpt lat="45.03085" lon="5.56755">
        <ele>1678</ele>
        <time>2019-07-14T11:46:47Z</time>
      </trkpt>
      <trkpt lat="45.03083" lon="5.56756">
        <ele>1681</ele>
        <time>2019-07-14T11:46:48Z</time>
      </trkpt>
      <trkpt lat="45.03081" lon="5.56756">
        <ele>1681</ele>
        <time>2019-07-14T11:46:49Z</time>
      </trkpt>
      <trkpt lat="45.03079" lon="5.56756">
        <ele>1682</ele>
        <time>2019-07-14T11:46:50Z</time>
      </trkpt>
      <trkpt lat="45.03077" lon="5.56756">
        <ele>1682</ele>
        <time>2019-07-14T11:46:51Z</time>
      </trkpt>
      <trkpt lat="45.03075" lon="5.56756">
        <ele>1682</ele>
        <time>2019-07-14T11:46:52Z</time>
      </trkpt>
      <trkpt lat="45.03073" lon="5.56756">
        <ele>1683</ele>
        <time>2019-07-14T11:46:53Z</time>
      </trkpt>
      <trkpt lat="45.03071" lon="5.56755">
        <ele>1683</ele>
        <time>2019-07-14T11:46:54Z</time>
      </trkpt>
      <trkpt lat="45.03069" lon="5.56755">
        <ele>1684</ele>
        <time>2019-07-14T11:46:55Z</time>
      </trkpt>
      <trkpt lat="45.03067" lon="5.56755">
        <ele>1684</ele>
        <time>2019-07-14T11:46:56Z</time>
      </trkpt>
      <trkpt lat="45.03066" lon="5.56754">
        <ele>1684</ele>
        <time>2019-07-14T11:46:57Z</time>
      </trkpt>
      <trkpt lat="45.03061" lon="5.56755">
        <ele>1685</ele>
        <time>2019-07-14T11:46:59Z</time>
      </trkpt>
      <trkpt lat="45.03059" lon="5.56755">
        <ele>1685</ele>
        <time>2019-07-14T11:47:00Z</time>
      </trkpt>
      <trkpt lat="45.03058" lon="5.56756">
        <ele>1686</ele>
        <time>2019-07-14T11:47:01Z</time>
      </trkpt>
      <trkpt lat="45.03056" lon="5.56757">
        <ele>1686</ele>
        <time>2019-07-14T11:47:02Z</time>
      </trkpt>
      <trkpt lat="45.03054" lon="5.56757">
        <ele>1686</ele>
        <time>2019-07-14T11:47:03Z</time>
      </trkpt>
      <trkpt lat="45.03052" lon="5.56758">
        <ele>1687</ele>
        <time>2019-07-14T11:47:04Z</time>
      </trkpt>
      <trkpt lat="45.0305" lon="5.56759">
        <ele>1687</ele>
        <time>2019-07-14T11:47:05Z</time>
      </trkpt>
      <trkpt lat="45.03049" lon="5.5676">
        <ele>1687</ele>
        <time>2019-07-14T11:47:06Z</time>
      </trkpt>
      <trkpt lat="45.03047" lon="5.56761">
        <ele>1687</ele>
        <time>2019-07-14T11:47:07Z</time>
      </trkpt>
      <trkpt lat="45.03045" lon="5.56762">
        <ele>1688</ele>
        <time>2019-07-14T11:47:08Z</time>
      </trkpt>
      <trkpt lat="45.03044" lon="5.56763">
        <ele>1688</ele>
        <time>2019-07-14T11:47:09Z</time>
      </trkpt>
      <trkpt lat="45.03042" lon="5.56765">
        <ele>1688</ele>
        <time>2019-07-14T11:47:10Z</time>
      </trkpt>
      <trkpt lat="45.0304" lon="5.56766">
        <ele>1688</ele>
        <time>2019-07-14T11:47:11Z</time>
      </trkpt>
      <trkpt lat="45.03039" lon="5.56768">
        <ele>1688</ele>
        <time>2019-07-14T11:47:12Z</time>
      </trkpt>
      <trkpt lat="45.03037" lon="5.5677">
        <ele>1689</ele>
        <time>2019-07-14T11:47:13Z</time>
      </trkpt>
      <trkpt lat="45.03036" lon="5.56772">
        <ele>1689</ele>
        <time>2019-07-14T11:47:14Z</time>
      </trkpt>
      <trkpt lat="45.03035" lon="5.56774">
        <ele>1689</ele>
        <time>2019-07-14T11:47:15Z</time>
      </trkpt>
      <trkpt lat="45.03033" lon="5.56776">
        <ele>1689</ele>
        <time>2019-07-14T11:47:16Z</time>
      </trkpt>
      <trkpt lat="45.03032" lon="5.56778">
        <ele>1689</ele>
        <time>2019-07-14T11:47:17Z</time>
      </trkpt>
      <trkpt lat="45.0303" lon="5.56781">
        <ele>1690</ele>
        <time>2019-07-14T11:47:18Z</time>
      </trkpt>
      <trkpt lat="45.03029" lon="5.56783">
        <ele>1690</ele>
        <time>2019-07-14T11:47:19Z</time>
      </trkpt>
      <trkpt lat="45.03027" lon="5.56786">
        <ele>1690</ele>
        <time>2019-07-14T11:47:20Z</time>
      </trkpt>
      <trkpt lat="45.03026" lon="5.56788">
        <ele>1690</ele>
        <time>2019-07-14T11:47:21Z</time>
      </trkpt>
      <trkpt lat="45.03024" lon="5.5679">
        <ele>1691</ele>
        <time>2019-07-14T11:47:22Z</time>
      </trkpt>
      <trkpt lat="45.03023" lon="5.56793">
        <ele>1691</ele>
        <time>2019-07-14T11:47:23Z</time>
      </trkpt>
      <trkpt lat="45.03022" lon="5.56795">
        <ele>1691</ele>
        <time>2019-07-14T11:47:24Z</time>
      </trkpt>
      <trkpt lat="45.03021" lon="5.56798">
        <ele>1691</ele>
        <time>2019-07-14T11:47:25Z</time>
      </trkpt>
      <trkpt lat="45.03019" lon="5.56801">
        <ele>1692</ele>
        <time>2019-07-14T11:47:26Z</time>
      </trkpt>
      <trkpt lat="45.03018" lon="5.56803">
        <ele>1692</ele>
        <time>2019-07-14T11:47:27Z</time>
      </trkpt>
      <trkpt lat="45.03016" lon="5.56805">
        <ele>1693</ele>
        <time>2019-07-14T11:47:28Z</time>
      </trkpt>
      <trkpt lat="45.03015" lon="5.56807">
        <ele>1693</ele>
        <time>2019-07-14T11:47:29Z</time>
      </trkpt>
      <trkpt lat="45.03014" lon="5.5681">
        <ele>1693</ele>
        <time>2019-07-14T11:47:30Z</time>
      </trkpt>
      <trkpt lat="45.03013" lon="5.56812">
        <ele>1694</ele>
        <time>2019-07-14T11:47:31Z</time>
      </trkpt>
      <trkpt lat="45.03011" lon="5.56814">
        <ele>1694</ele>
        <time>2019-07-14T11:47:32Z</time>
      </trkpt>
      <trkpt lat="45.0301" lon="5.56816">
        <ele>1695</ele>
        <time>2019-07-14T11:47:33Z</time>
      </trkpt>
      <trkpt lat="45.03009" lon="5.56819">
        <ele>1696</ele>
        <time>2019-07-14T11:47:34Z</time>
      </trkpt>
      <trkpt lat="45.03008" lon="5.56821">
        <ele>1696</ele>
        <time>2019-07-14T11:47:35Z</time>
      </trkpt>
      <trkpt lat="45.03007" lon="5.56823">
        <ele>1697</ele>
        <time>2019-07-14T11:47:36Z</time>
      </trkpt>
      <trkpt lat="45.03005" lon="5.56824">
        <ele>1698</ele>
        <time>2019-07-14T11:47:37Z</time>
      </trkpt>
      <trkpt lat="45.03003" lon="5.56825">
        <ele>1698</ele>
        <time>2019-07-14T11:47:38Z</time>
      </trkpt>
      <trkpt lat="45.03001" lon="5.56826">
        <ele>1699</ele>
        <time>2019-07-14T11:47:39Z</time>
      </trkpt>
      <trkpt lat="45.03" lon="5.56828">
        <ele>1702</ele>
        <time>2019-07-14T11:47:40Z</time>
      </trkpt>
      <trkpt lat="45.02998" lon="5.5683">
        <ele>1702</ele>
        <time>2019-07-14T11:47:41Z</time>
      </trkpt>
      <trkpt lat="45.02997" lon="5.56832">
        <ele>1702</ele>
        <time>2019-07-14T11:47:42Z</time>
      </trkpt>
      <trkpt lat="45.02995" lon="5.56834">
        <ele>1704</ele>
        <time>2019-07-14T11:47:43Z</time>
      </trkpt>
      <trkpt lat="45.02994" lon="5.56836">
        <ele>1705</ele>
        <time>2019-07-14T11:47:44Z</time>
      </trkpt>
      <trkpt lat="45.02992" lon="5.56838">
        <ele>1705</ele>
        <time>2019-07-14T11:47:45Z</time>
      </trkpt>
      <trkpt lat="45.0299" lon="5.56839">
        <ele>1706</ele>
        <time>2019-07-14T11:47:46Z</time>
      </trkpt>
      <trkpt lat="45.02989" lon="5.5684">
        <ele>1707</ele>
        <time>2019-07-14T11:47:47Z</time>
      </trkpt>
      <trkpt lat="45.02987" lon="5.56841">
        <ele>1707</ele>
        <time>2019-07-14T11:47:48Z</time>
      </trkpt>
      <trkpt lat="45.02986" lon="5.56843">
        <ele>1707</ele>
        <time>2019-07-14T11:47:49Z</time>
      </trkpt>
      <trkpt lat="45.02984" lon="5.56845">
        <ele>1708</ele>
        <time>2019-07-14T11:47:50Z</time>
      </trkpt>
      <trkpt lat="45.02983" lon="5.56846">
        <ele>1708</ele>
        <time>2019-07-14T11:47:51Z</time>
      </trkpt>
      <trkpt lat="45.02982" lon="5.56848">
        <ele>1709</ele>
        <time>2019-07-14T11:47:52Z</time>
      </trkpt>
      <trkpt lat="45.0298" lon="5.5685">
        <ele>1709</ele>
        <time>2019-07-14T11:47:53Z</time>
      </trkpt>
      <trkpt lat="45.0298" lon="5.56852">
        <ele>1710</ele>
        <time>2019-07-14T11:47:54Z</time>
      </trkpt>
      <trkpt lat="45.02979" lon="5.56854">
        <ele>1710</ele>
        <time>2019-07-14T11:47:55Z</time>
      </trkpt>
      <trkpt lat="45.02978" lon="5.56855">
        <ele>1710</ele>
        <time>2019-07-14T11:47:56Z</time>
      </trkpt>
      <trkpt lat="45.02977" lon="5.56857">
        <ele>1710</ele>
        <time>2019-07-14T11:47:57Z</time>
      </trkpt>
      <trkpt lat="45.02976" lon="5.56859">
        <ele>1711</ele>
        <time>2019-07-14T11:47:58Z</time>
      </trkpt>
      <trkpt lat="45.02974" lon="5.56861">
        <ele>1711</ele>
        <time>2019-07-14T11:47:59Z</time>
      </trkpt>
      <trkpt lat="45.02973" lon="5.56862">
        <ele>1711</ele>
        <time>2019-07-14T11:48:00Z</time>
      </trkpt>
      <trkpt lat="45.02972" lon="5.56864">
        <ele>1711</ele>
        <time>2019-07-14T11:48:01Z</time>
      </trkpt>
      <trkpt lat="45.02971" lon="5.56866">
        <ele>1712</ele>
        <time>2019-07-14T11:48:02Z</time>
      </trkpt>
      <trkpt lat="45.02971" lon="5.56867">
        <ele>1712</ele>
        <time>2019-07-14T11:48:03Z</time>
      </trkpt>
      <trkpt lat="45.0297" lon="5.56869">
        <ele>1712</ele>
        <time>2019-07-14T11:48:04Z</time>
      </trkpt>
      <trkpt lat="45.02969" lon="5.56871">
        <ele>1712</ele>
        <time>2019-07-14T11:48:05Z</time>
      </trkpt>
      <trkpt lat="45.02967" lon="5.56873">
        <ele>1712</ele>
        <time>2019-07-14T11:48:06Z</time>
      </trkpt>
      <trkpt lat="45.02966" lon="5.56875">
        <ele>1713</ele>
        <time>2019-07-14T11:48:07Z</time>
      </trkpt>
      <trkpt lat="45.02965" lon="5.56877">
        <ele>1713</ele>
        <time>2019-07-14T11:48:08Z</time>
      </trkpt>
      <trkpt lat="45.02964" lon="5.56879">
        <ele>1713</ele>
        <time>2019-07-14T11:48:09Z</time>
      </trkpt>
      <trkpt lat="45.02963" lon="5.5688">
        <ele>1713</ele>
        <time>2019-07-14T11:48:10Z</time>
      </trkpt>
      <trkpt lat="45.02961" lon="5.56882">
        <ele>1714</ele>
        <time>2019-07-14T11:48:11Z</time>
      </trkpt>
      <trkpt lat="45.0296" lon="5.56884">
        <ele>1714</ele>
        <time>2019-07-14T11:48:12Z</time>
      </trkpt>
      <trkpt lat="45.02959" lon="5.56886">
        <ele>1714</ele>
        <time>2019-07-14T11:48:13Z</time>
      </trkpt>
      <trkpt lat="45.02958" lon="5.56888">
        <ele>1714</ele>
        <time>2019-07-14T11:48:14Z</time>
      </trkpt>
      <trkpt lat="45.02958" lon="5.5689">
        <ele>1714</ele>
        <time>2019-07-14T11:48:15Z</time>
      </trkpt>
      <trkpt lat="45.02957" lon="5.56892">
        <ele>1714</ele>
        <time>2019-07-14T11:48:16Z</time>
      </trkpt>
      <trkpt lat="45.02956" lon="5.56893">
        <ele>1715</ele>
        <time>2019-07-14T11:48:17Z</time>
      </trkpt>
      <trkpt lat="45.02955" lon="5.56895">
        <ele>1715</ele>
        <time>2019-07-14T11:48:18Z</time>
      </trkpt>
      <trkpt lat="45.02953" lon="5.56896">
        <ele>1715</ele>
        <time>2019-07-14T11:48:19Z</time>
      </trkpt>
      <trkpt lat="45.02952" lon="5.56898">
        <ele>1715</ele>
        <time>2019-07-14T11:48:20Z</time>
      </trkpt>
      <trkpt lat="45.0295" lon="5.56899">
        <ele>1716</ele>
        <time>2019-07-14T11:48:21Z</time>
      </trkpt>
      <trkpt lat="45.02949" lon="5.56901">
        <ele>1716</ele>
        <time>2019-07-14T11:48:22Z</time>
      </trkpt>
      <trkpt lat="45.02948" lon="5.56902">
        <ele>1716</ele>
        <time>2019-07-14T11:48:23Z</time>
      </trkpt>
      <trkpt lat="45.02948" lon="5.56904">
        <ele>1716</ele>
        <time>2019-07-14T11:48:24Z</time>
      </trkpt>
      <trkpt lat="45.02947" lon="5.56906">
        <ele>1717</ele>
        <time>2019-07-14T11:48:25Z</time>
      </trkpt>
      <trkpt lat="45.02947" lon="5.56909">
        <ele>1717</ele>
        <time>2019-07-14T11:48:26Z</time>
      </trkpt>
      <trkpt lat="45.02947" lon="5.56911">
        <ele>1717</ele>
        <time>2019-07-14T11:48:27Z</time>
      </trkpt>
      <trkpt lat="45.02946" lon="5.56913">
        <ele>1717</ele>
        <time>2019-07-14T11:48:28Z</time>
      </trkpt>
      <trkpt lat="45.02945" lon="5.56915">
        <ele>1717</ele>
        <time>2019-07-14T11:48:29Z</time>
      </trkpt>
      <trkpt lat="45.02945" lon="5.56917">
        <ele>1722</ele>
        <time>2019-07-14T11:48:30Z</time>
      </trkpt>
      <trkpt lat="45.02945" lon="5.56924">
        <ele>1722</ele>
        <time>2019-07-14T11:48:33Z</time>
      </trkpt>
      <trkpt lat="45.02946" lon="5.56926">
        <ele>1722</ele>
        <time>2019-07-14T11:48:34Z</time>
      </trkpt>
      <trkpt lat="45.02947" lon="5.56928">
        <ele>1722</ele>
        <time>2019-07-14T11:48:35Z</time>
      </trkpt>
      <trkpt lat="45.02947" lon="5.5693">
        <ele>1722</ele>
        <time>2019-07-14T11:48:36Z</time>
      </trkpt>
      <trkpt lat="45.02948" lon="5.56933">
        <ele>1722</ele>
        <time>2019-07-14T11:48:37Z</time>
      </trkpt>
      <trkpt lat="45.02948" lon="5.56935">
        <ele>1722</ele>
        <time>2019-07-14T11:48:38Z</time>
      </trkpt>
      <trkpt lat="45.02949" lon="5.56937">
        <ele>1722</ele>
        <time>2019-07-14T11:48:39Z</time>
      </trkpt>
      <trkpt lat="45.0295" lon="5.56939">
        <ele>1722</ele>
        <time>2019-07-14T11:48:40Z</time>
      </trkpt>
      <trkpt lat="45.02952" lon="5.56942">
        <ele>1722</ele>
        <time>2019-07-14T11:48:41Z</time>
      </trkpt>
      <trkpt lat="45.02953" lon="5.56944">
        <ele>1722</ele>
        <time>2019-07-14T11:48:42Z</time>
      </trkpt>
      <trkpt lat="45.02955" lon="5.56946">
        <ele>1721</ele>
        <time>2019-07-14T11:48:43Z</time>
      </trkpt>
      <trkpt lat="45.02956" lon="5.56948">
        <ele>1721</ele>
        <time>2019-07-14T11:48:44Z</time>
      </trkpt>
      <trkpt lat="45.02958" lon="5.5695">
        <ele>1721</ele>
        <time>2019-07-14T11:48:45Z</time>
      </trkpt>
      <trkpt lat="45.0296" lon="5.56951">
        <ele>1721</ele>
        <time>2019-07-14T11:48:46Z</time>
      </trkpt>
      <trkpt lat="45.02961" lon="5.56953">
        <ele>1721</ele>
        <time>2019-07-14T11:48:47Z</time>
      </trkpt>
      <trkpt lat="45.02962" lon="5.56955">
        <ele>1721</ele>
        <time>2019-07-14T11:48:48Z</time>
      </trkpt>
      <trkpt lat="45.02963" lon="5.56957">
        <ele>1721</ele>
        <time>2019-07-14T11:48:49Z</time>
      </trkpt>
      <trkpt lat="45.02963" lon="5.56959">
        <ele>1721</ele>
        <time>2019-07-14T11:48:50Z</time>
      </trkpt>
      <trkpt lat="45.02964" lon="5.5696">
        <ele>1721</ele>
        <time>2019-07-14T11:48:51Z</time>
      </trkpt>
      <trkpt lat="45.02964" lon="5.56961">
        <ele>1721</ele>
        <time>2019-07-14T11:50:12Z</time>
      </trkpt>
      <trkpt lat="45.02966" lon="5.56963">
        <ele>1721</ele>
        <time>2019-07-14T11:50:13Z</time>
      </trkpt>
      <trkpt lat="45.02967" lon="5.56964">
        <ele>1721</ele>
        <time>2019-07-14T11:50:14Z</time>
      </trkpt>
      <trkpt lat="45.02968" lon="5.56966">
        <ele>1721</ele>
        <time>2019-07-14T11:50:15Z</time>
      </trkpt>
      <trkpt lat="45.02969" lon="5.56968">
        <ele>1721</ele>
        <time>2019-07-14T11:50:16Z</time>
      </trkpt>
      <trkpt lat="45.0297" lon="5.5697">
        <ele>1721</ele>
        <time>2019-07-14T11:50:17Z</time>
      </trkpt>
      <trkpt lat="45.02971" lon="5.56973">
        <ele>1721</ele>
        <time>2019-07-14T11:50:18Z</time>
      </trkpt>
      <trkpt lat="45.02972" lon="5.56975">
        <ele>1721</ele>
        <time>2019-07-14T11:50:19Z</time>
      </trkpt>
      <trkpt lat="45.02973" lon="5.56977">
        <ele>1720</ele>
        <time>2019-07-14T11:50:20Z</time>
      </trkpt>
      <trkpt lat="45.02975" lon="5.5698">
        <ele>1720</ele>
        <time>2019-07-14T11:50:21Z</time>
      </trkpt>
      <trkpt lat="45.02976" lon="5.56982">
        <ele>1720</ele>
        <time>2019-07-14T11:50:22Z</time>
      </trkpt>
      <trkpt lat="45.02977" lon="5.56984">
        <ele>1720</ele>
        <time>2019-07-14T11:50:23Z</time>
      </trkpt>
      <trkpt lat="45.02978" lon="5.56985">
        <ele>1720</ele>
        <time>2019-07-14T11:50:24Z</time>
      </trkpt>
      <trkpt lat="45.02979" lon="5.56987">
        <ele>1720</ele>
        <time>2019-07-14T11:50:25Z</time>
      </trkpt>
      <trkpt lat="45.0298" lon="5.56988">
        <ele>1720</ele>
        <time>2019-07-14T11:50:26Z</time>
      </trkpt>
      <trkpt lat="45.02982" lon="5.56989">
        <ele>1719</ele>
        <time>2019-07-14T11:50:27Z</time>
      </trkpt>
      <trkpt lat="45.02983" lon="5.56991">
        <ele>1719</ele>
        <time>2019-07-14T11:50:28Z</time>
      </trkpt>
      <trkpt lat="45.02984" lon="5.56992">
        <ele>1719</ele>
        <time>2019-07-14T11:50:29Z</time>
      </trkpt>
      <trkpt lat="45.02984" lon="5.56994">
        <ele>1719</ele>
        <time>2019-07-14T11:50:30Z</time>
      </trkpt>
      <trkpt lat="45.02985" lon="5.56995">
        <ele>1719</ele>
        <time>2019-07-14T11:50:31Z</time>
      </trkpt>
      <trkpt lat="45.02985" lon="5.56996">
        <ele>1719</ele>
        <time>2019-07-14T11:50:32Z</time>
      </trkpt>
      <trkpt lat="45.02985" lon="5.56996">
        <ele>1719</ele>
        <time>2019-07-14T11:50:34Z</time>
      </trkpt>
      <trkpt lat="45.02984" lon="5.56996">
        <ele>1719</ele>
        <time>2019-07-14T11:52:14Z</time>
      </trkpt>
      <trkpt lat="45.02983" lon="5.56996">
        <ele>1719</ele>
        <time>2019-07-14T11:52:15Z</time>
      </trkpt>
      <trkpt lat="45.02982" lon="5.56996">
        <ele>1719</ele>
        <time>2019-07-14T11:52:16Z</time>
      </trkpt>
      <trkpt lat="45.02982" lon="5.56995">
        <ele>1719</ele>
        <time>2019-07-14T11:52:19Z</time>
      </trkpt>
      <trkpt lat="45.02982" lon="5.56992">
        <ele>1719</ele>
        <time>2019-07-14T11:52:20Z</time>
      </trkpt>
      <trkpt lat="45.02981" lon="5.5699">
        <ele>1719</ele>
        <time>2019-07-14T11:52:21Z</time>
      </trkpt>
      <trkpt lat="45.0298" lon="5.5699">
        <ele>1720</ele>
        <time>2019-07-14T11:52:22Z</time>
      </trkpt>
      <trkpt lat="45.02978" lon="5.56991">
        <ele>1720</ele>
        <time>2019-07-14T11:52:23Z</time>
      </trkpt>
      <trkpt lat="45.02976" lon="5.56993">
        <ele>1720</ele>
        <time>2019-07-14T11:52:24Z</time>
      </trkpt>
      <trkpt lat="45.02975" lon="5.56996">
        <ele>1720</ele>
        <time>2019-07-14T11:52:25Z</time>
      </trkpt>
      <trkpt lat="45.02974" lon="5.57">
        <ele>1718</ele>
        <time>2019-07-14T11:52:26Z</time>
      </trkpt>
      <trkpt lat="45.02972" lon="5.57004">
        <ele>1718</ele>
        <time>2019-07-14T11:52:27Z</time>
      </trkpt>
      <trkpt lat="45.0297" lon="5.57007">
        <ele>1718</ele>
        <time>2019-07-14T11:52:28Z</time>
      </trkpt>
      <trkpt lat="45.02968" lon="5.57009">
        <ele>1718</ele>
        <time>2019-07-14T11:52:29Z</time>
      </trkpt>
      <trkpt lat="45.02966" lon="5.5701">
        <ele>1719</ele>
        <time>2019-07-14T11:52:30Z</time>
      </trkpt>
      <trkpt lat="45.02965" lon="5.57012">
        <ele>1719</ele>
        <time>2019-07-14T11:52:31Z</time>
      </trkpt>
      <trkpt lat="45.02963" lon="5.57014">
        <ele>1719</ele>
        <time>2019-07-14T11:52:32Z</time>
      </trkpt>
      <trkpt lat="45.02962" lon="5.57015">
        <ele>1719</ele>
        <time>2019-07-14T11:52:33Z</time>
      </trkpt>
      <trkpt lat="45.0296" lon="5.57017">
        <ele>1719</ele>
        <time>2019-07-14T11:52:34Z</time>
      </trkpt>
      <trkpt lat="45.02959" lon="5.57018">
        <ele>1719</ele>
        <time>2019-07-14T11:52:35Z</time>
      </trkpt>
      <trkpt lat="45.02958" lon="5.5702">
        <ele>1719</ele>
        <time>2019-07-14T11:52:36Z</time>
      </trkpt>
      <trkpt lat="45.02956" lon="5.57021">
        <ele>1719</ele>
        <time>2019-07-14T11:52:37Z</time>
      </trkpt>
      <trkpt lat="45.02955" lon="5.57023">
        <ele>1719</ele>
        <time>2019-07-14T11:52:38Z</time>
      </trkpt>
      <trkpt lat="45.02953" lon="5.57024">
        <ele>1719</ele>
        <time>2019-07-14T11:52:39Z</time>
      </trkpt>
      <trkpt lat="45.02952" lon="5.57026">
        <ele>1719</ele>
        <time>2019-07-14T11:52:40Z</time>
      </trkpt>
      <trkpt lat="45.02951" lon="5.57027">
        <ele>1720</ele>
        <time>2019-07-14T11:52:41Z</time>
      </trkpt>
      <trkpt lat="45.02949" lon="5.57027">
        <ele>1720</ele>
        <time>2019-07-14T11:52:42Z</time>
      </trkpt>
      <trkpt lat="45.02948" lon="5.57029">
        <ele>1720</ele>
        <time>2019-07-14T11:52:43Z</time>
      </trkpt>
      <trkpt lat="45.02947" lon="5.5703">
        <ele>1720</ele>
        <time>2019-07-14T11:52:44Z</time>
      </trkpt>
      <trkpt lat="45.02945" lon="5.57031">
        <ele>1720</ele>
        <time>2019-07-14T11:52:45Z</time>
      </trkpt>
      <trkpt lat="45.02944" lon="5.57032">
        <ele>1720</ele>
        <time>2019-07-14T11:52:46Z</time>
      </trkpt>
      <trkpt lat="45.02942" lon="5.57033">
        <ele>1720</ele>
        <time>2019-07-14T11:52:47Z</time>
      </trkpt>
      <trkpt lat="45.02941" lon="5.57035">
        <ele>1720</ele>
        <time>2019-07-14T11:52:48Z</time>
      </trkpt>
      <trkpt lat="45.02939" lon="5.57036">
        <ele>1720</ele>
        <time>2019-07-14T11:52:49Z</time>
      </trkpt>
      <trkpt lat="45.02938" lon="5.57037">
        <ele>1720</ele>
        <time>2019-07-14T11:52:50Z</time>
      </trkpt>
      <trkpt lat="45.02937" lon="5.57038">
        <ele>1720</ele>
        <time>2019-07-14T11:52:51Z</time>
      </trkpt>
      <trkpt lat="45.02935" lon="5.57039">
        <ele>1720</ele>
        <time>2019-07-14T11:52:52Z</time>
      </trkpt>
      <trkpt lat="45.02934" lon="5.5704">
        <ele>1720</ele>
        <time>2019-07-14T11:52:53Z</time>
      </trkpt>
      <trkpt lat="45.02932" lon="5.57041">
        <ele>1720</ele>
        <time>2019-07-14T11:52:54Z</time>
      </trkpt>
      <trkpt lat="45.02931" lon="5.57042">
        <ele>1720</ele>
        <time>2019-07-14T11:52:55Z</time>
      </trkpt>
      <trkpt lat="45.02929" lon="5.57043">
        <ele>1720</ele>
        <time>2019-07-14T11:52:56Z</time>
      </trkpt>
      <trkpt lat="45.02927" lon="5.57043">
        <ele>1720</ele>
        <time>2019-07-14T11:52:57Z</time>
      </trkpt>
      <trkpt lat="45.02926" lon="5.57044">
        <ele>1720</ele>
        <time>2019-07-14T11:52:58Z</time>
      </trkpt>
      <trkpt lat="45.02925" lon="5.57045">
        <ele>1720</ele>
        <time>2019-07-14T11:52:59Z</time>
      </trkpt>
      <trkpt lat="45.02923" lon="5.57046">
        <ele>1720</ele>
        <time>2019-07-14T11:53:00Z</time>
      </trkpt>
      <trkpt lat="45.02922" lon="5.57047">
        <ele>1720</ele>
        <time>2019-07-14T11:53:01Z</time>
      </trkpt>
      <trkpt lat="45.0292" lon="5.57048">
        <ele>1721</ele>
        <time>2019-07-14T11:53:02Z</time>
      </trkpt>
      <trkpt lat="45.02918" lon="5.57049">
        <ele>1721</ele>
        <time>2019-07-14T11:53:03Z</time>
      </trkpt>
      <trkpt lat="45.02917" lon="5.57049">
        <ele>1721</ele>
        <time>2019-07-14T11:53:04Z</time>
      </trkpt>
      <trkpt lat="45.02916" lon="5.5705">
        <ele>1732</ele>
        <time>2019-07-14T11:53:05Z</time>
      </trkpt>
      <trkpt lat="45.02914" lon="5.57051">
        <ele>1732</ele>
        <time>2019-07-14T11:53:06Z</time>
      </trkpt>
      <trkpt lat="45.02913" lon="5.57051">
        <ele>1732</ele>
        <time>2019-07-14T11:53:07Z</time>
      </trkpt>
      <trkpt lat="45.02912" lon="5.57052">
        <ele>1732</ele>
        <time>2019-07-14T11:53:08Z</time>
      </trkpt>
      <trkpt lat="45.0291" lon="5.57053">
        <ele>1732</ele>
        <time>2019-07-14T11:53:09Z</time>
      </trkpt>
      <trkpt lat="45.02909" lon="5.57054">
        <ele>1732</ele>
        <time>2019-07-14T11:53:10Z</time>
      </trkpt>
      <trkpt lat="45.02908" lon="5.57055">
        <ele>1732</ele>
        <time>2019-07-14T11:53:11Z</time>
      </trkpt>
      <trkpt lat="45.02906" lon="5.57055">
        <ele>1732</ele>
        <time>2019-07-14T11:53:12Z</time>
      </trkpt>
      <trkpt lat="45.02905" lon="5.57055">
        <ele>1732</ele>
        <time>2019-07-14T11:53:13Z</time>
      </trkpt>
      <trkpt lat="45.02903" lon="5.57056">
        <ele>1733</ele>
        <time>2019-07-14T11:53:14Z</time>
      </trkpt>
      <trkpt lat="45.02902" lon="5.57056">
        <ele>1733</ele>
        <time>2019-07-14T11:53:15Z</time>
      </trkpt>
      <trkpt lat="45.029" lon="5.57057">
        <ele>1733</ele>
        <time>2019-07-14T11:53:16Z</time>
      </trkpt>
      <trkpt lat="45.02899" lon="5.57057">
        <ele>1733</ele>
        <time>2019-07-14T11:53:17Z</time>
      </trkpt>
      <trkpt lat="45.02897" lon="5.57058">
        <ele>1733</ele>
        <time>2019-07-14T11:53:18Z</time>
      </trkpt>
      <trkpt lat="45.02896" lon="5.57059">
        <ele>1733</ele>
        <time>2019-07-14T11:53:19Z</time>
      </trkpt>
      <trkpt lat="45.02894" lon="5.5706">
        <ele>1733</ele>
        <time>2019-07-14T11:53:20Z</time>
      </trkpt>
      <trkpt lat="45.02893" lon="5.5706">
        <ele>1733</ele>
        <time>2019-07-14T11:53:21Z</time>
      </trkpt>
      <trkpt lat="45.02891" lon="5.57061">
        <ele>1734</ele>
        <time>2019-07-14T11:53:22Z</time>
      </trkpt>
      <trkpt lat="45.0289" lon="5.57061">
        <ele>1734</ele>
        <time>2019-07-14T11:53:23Z</time>
      </trkpt>
      <trkpt lat="45.02888" lon="5.57061">
        <ele>1734</ele>
        <time>2019-07-14T11:53:24Z</time>
      </trkpt>
      <trkpt lat="45.02886" lon="5.57062">
        <ele>1734</ele>
        <time>2019-07-14T11:53:25Z</time>
      </trkpt>
      <trkpt lat="45.02885" lon="5.57063">
        <ele>1735</ele>
        <time>2019-07-14T11:53:26Z</time>
      </trkpt>
      <trkpt lat="45.02883" lon="5.57063">
        <ele>1735</ele>
        <time>2019-07-14T11:53:27Z</time>
      </trkpt>
      <trkpt lat="45.02881" lon="5.57064">
        <ele>1735</ele>
        <time>2019-07-14T11:53:28Z</time>
      </trkpt>
      <trkpt lat="45.02879" lon="5.57064">
        <ele>1735</ele>
        <time>2019-07-14T11:53:29Z</time>
      </trkpt>
      <trkpt lat="45.02878" lon="5.57065">
        <ele>1736</ele>
        <time>2019-07-14T11:53:30Z</time>
      </trkpt>
      <trkpt lat="45.02876" lon="5.57066">
        <ele>1736</ele>
        <time>2019-07-14T11:53:31Z</time>
      </trkpt>
      <trkpt lat="45.02875" lon="5.57066">
        <ele>1736</ele>
        <time>2019-07-14T11:53:32Z</time>
      </trkpt>
      <trkpt lat="45.02873" lon="5.57067">
        <ele>1736</ele>
        <time>2019-07-14T11:53:33Z</time>
      </trkpt>
      <trkpt lat="45.02872" lon="5.57068">
        <ele>1737</ele>
        <time>2019-07-14T11:53:34Z</time>
      </trkpt>
      <trkpt lat="45.0287" lon="5.57068">
        <ele>1737</ele>
        <time>2019-07-14T11:53:35Z</time>
      </trkpt>
      <trkpt lat="45.02868" lon="5.57069">
        <ele>1737</ele>
        <time>2019-07-14T11:53:36Z</time>
      </trkpt>
      <trkpt lat="45.02867" lon="5.57069">
        <ele>1737</ele>
        <time>2019-07-14T11:53:37Z</time>
      </trkpt>
      <trkpt lat="45.02865" lon="5.5707">
        <ele>1738</ele>
        <time>2019-07-14T11:53:38Z</time>
      </trkpt>
      <trkpt lat="45.02863" lon="5.5707">
        <ele>1738</ele>
        <time>2019-07-14T11:53:39Z</time>
      </trkpt>
      <trkpt lat="45.02861" lon="5.57071">
        <ele>1738</ele>
        <time>2019-07-14T11:53:40Z</time>
      </trkpt>
      <trkpt lat="45.0286" lon="5.57072">
        <ele>1739</ele>
        <time>2019-07-14T11:53:41Z</time>
      </trkpt>
      <trkpt lat="45.02858" lon="5.57073">
        <ele>1739</ele>
        <time>2019-07-14T11:53:42Z</time>
      </trkpt>
      <trkpt lat="45.02856" lon="5.57074">
        <ele>1739</ele>
        <time>2019-07-14T11:53:43Z</time>
      </trkpt>
      <trkpt lat="45.02855" lon="5.57075">
        <ele>1740</ele>
        <time>2019-07-14T11:53:44Z</time>
      </trkpt>
      <trkpt lat="45.02853" lon="5.57076">
        <ele>1740</ele>
        <time>2019-07-14T11:53:45Z</time>
      </trkpt>
      <trkpt lat="45.02851" lon="5.57077">
        <ele>1740</ele>
        <time>2019-07-14T11:53:46Z</time>
      </trkpt>
      <trkpt lat="45.02849" lon="5.57078">
        <ele>1741</ele>
        <time>2019-07-14T11:53:47Z</time>
      </trkpt>
      <trkpt lat="45.02847" lon="5.57079">
        <ele>1741</ele>
        <time>2019-07-14T11:53:48Z</time>
      </trkpt>
      <trkpt lat="45.02845" lon="5.5708">
        <ele>1742</ele>
        <time>2019-07-14T11:53:49Z</time>
      </trkpt>
      <trkpt lat="45.02843" lon="5.57081">
        <ele>1742</ele>
        <time>2019-07-14T11:53:50Z</time>
      </trkpt>
      <trkpt lat="45.02841" lon="5.57083">
        <ele>1743</ele>
        <time>2019-07-14T11:53:51Z</time>
      </trkpt>
      <trkpt lat="45.02839" lon="5.57084">
        <ele>1741</ele>
        <time>2019-07-14T11:53:52Z</time>
      </trkpt>
      <trkpt lat="45.02837" lon="5.57086">
        <ele>1742</ele>
        <time>2019-07-14T11:53:53Z</time>
      </trkpt>
      <trkpt lat="45.02836" lon="5.57087">
        <ele>1742</ele>
        <time>2019-07-14T11:53:54Z</time>
      </trkpt>
      <trkpt lat="45.02834" lon="5.57088">
        <ele>1742</ele>
        <time>2019-07-14T11:53:55Z</time>
      </trkpt>
      <trkpt lat="45.02832" lon="5.5709">
        <ele>1746</ele>
        <time>2019-07-14T11:53:56Z</time>
      </trkpt>
      <trkpt lat="45.02831" lon="5.57091">
        <ele>1746</ele>
        <time>2019-07-14T11:53:57Z</time>
      </trkpt>
      <trkpt lat="45.02829" lon="5.57093">
        <ele>1746</ele>
        <time>2019-07-14T11:53:58Z</time>
      </trkpt>
      <trkpt lat="45.02827" lon="5.57094">
        <ele>1746</ele>
        <time>2019-07-14T11:53:59Z</time>
      </trkpt>
      <trkpt lat="45.02825" lon="5.57095">
        <ele>1747</ele>
        <time>2019-07-14T11:54:00Z</time>
      </trkpt>
      <trkpt lat="45.02824" lon="5.57097">
        <ele>1747</ele>
        <time>2019-07-14T11:54:01Z</time>
      </trkpt>
      <trkpt lat="45.02822" lon="5.57099">
        <ele>1747</ele>
        <time>2019-07-14T11:54:02Z</time>
      </trkpt>
      <trkpt lat="45.0282" lon="5.571">
        <ele>1747</ele>
        <time>2019-07-14T11:54:03Z</time>
      </trkpt>
      <trkpt lat="45.02818" lon="5.57102">
        <ele>1747</ele>
        <time>2019-07-14T11:54:04Z</time>
      </trkpt>
      <trkpt lat="45.02816" lon="5.57103">
        <ele>1748</ele>
        <time>2019-07-14T11:54:05Z</time>
      </trkpt>
      <trkpt lat="45.02815" lon="5.57104">
        <ele>1748</ele>
        <time>2019-07-14T11:54:06Z</time>
      </trkpt>
      <trkpt lat="45.02813" lon="5.57106">
        <ele>1748</ele>
        <time>2019-07-14T11:54:07Z</time>
      </trkpt>
      <trkpt lat="45.02811" lon="5.57107">
        <ele>1748</ele>
        <time>2019-07-14T11:54:08Z</time>
      </trkpt>
      <trkpt lat="45.0281" lon="5.57108">
        <ele>1748</ele>
        <time>2019-07-14T11:54:09Z</time>
      </trkpt>
      <trkpt lat="45.02808" lon="5.57109">
        <ele>1748</ele>
        <time>2019-07-14T11:54:10Z</time>
      </trkpt>
      <trkpt lat="45.02806" lon="5.5711">
        <ele>1748</ele>
        <time>2019-07-14T11:54:11Z</time>
      </trkpt>
      <trkpt lat="45.02804" lon="5.57111">
        <ele>1749</ele>
        <time>2019-07-14T11:54:12Z</time>
      </trkpt>
      <trkpt lat="45.02802" lon="5.57112">
        <ele>1749</ele>
        <time>2019-07-14T11:54:13Z</time>
      </trkpt>
      <trkpt lat="45.02801" lon="5.57114">
        <ele>1749</ele>
        <time>2019-07-14T11:54:14Z</time>
      </trkpt>
      <trkpt lat="45.02799" lon="5.57115">
        <ele>1749</ele>
        <time>2019-07-14T11:54:15Z</time>
      </trkpt>
      <trkpt lat="45.02797" lon="5.57115">
        <ele>1749</ele>
        <time>2019-07-14T11:54:16Z</time>
      </trkpt>
      <trkpt lat="45.02795" lon="5.57116">
        <ele>1749</ele>
        <time>2019-07-14T11:54:17Z</time>
      </trkpt>
      <trkpt lat="45.02793" lon="5.57117">
        <ele>1750</ele>
        <time>2019-07-14T11:54:18Z</time>
      </trkpt>
      <trkpt lat="45.02791" lon="5.57118">
        <ele>1750</ele>
        <time>2019-07-14T11:54:19Z</time>
      </trkpt>
      <trkpt lat="45.02789" lon="5.57119">
        <ele>1750</ele>
        <time>2019-07-14T11:54:20Z</time>
      </trkpt>
      <trkpt lat="45.02787" lon="5.57119">
        <ele>1750</ele>
        <time>2019-07-14T11:54:21Z</time>
      </trkpt>
      <trkpt lat="45.02785" lon="5.5712">
        <ele>1750</ele>
        <time>2019-07-14T11:54:22Z</time>
      </trkpt>
      <trkpt lat="45.02783" lon="5.5712">
        <ele>1751</ele>
        <time>2019-07-14T11:54:23Z</time>
      </trkpt>
      <trkpt lat="45.02781" lon="5.57121">
        <ele>1751</ele>
        <time>2019-07-14T11:54:24Z</time>
      </trkpt>
      <trkpt lat="45.02779" lon="5.57121">
        <ele>1751</ele>
        <time>2019-07-14T11:54:25Z</time>
      </trkpt>
      <trkpt lat="45.02778" lon="5.57122">
        <ele>1751</ele>
        <time>2019-07-14T11:54:26Z</time>
      </trkpt>
      <trkpt lat="45.02774" lon="5.57122">
        <ele>1752</ele>
        <time>2019-07-14T11:54:28Z</time>
      </trkpt>
      <trkpt lat="45.02773" lon="5.57123">
        <ele>1752</ele>
        <time>2019-07-14T11:54:29Z</time>
      </trkpt>
      <trkpt lat="45.02771" lon="5.57124">
        <ele>1752</ele>
        <time>2019-07-14T11:54:30Z</time>
      </trkpt>
      <trkpt lat="45.02769" lon="5.57125">
        <ele>1752</ele>
        <time>2019-07-14T11:54:31Z</time>
      </trkpt>
      <trkpt lat="45.02767" lon="5.57126">
        <ele>1752</ele>
        <time>2019-07-14T11:54:32Z</time>
      </trkpt>
      <trkpt lat="45.02766" lon="5.57125">
        <ele>1752</ele>
        <time>2019-07-14T11:54:33Z</time>
      </trkpt>
      <trkpt lat="45.02765" lon="5.57124">
        <ele>1752</ele>
        <time>2019-07-14T11:54:34Z</time>
      </trkpt>
      <trkpt lat="45.02764" lon="5.57122">
        <ele>1753</ele>
        <time>2019-07-14T11:54:35Z</time>
      </trkpt>
      <trkpt lat="45.02765" lon="5.57117">
        <ele>1753</ele>
        <time>2019-07-14T11:54:37Z</time>
      </trkpt>
      <trkpt lat="45.02765" lon="5.57114">
        <ele>1754</ele>
        <time>2019-07-14T11:54:38Z</time>
      </trkpt>
      <trkpt lat="45.02766" lon="5.57112">
        <ele>1754</ele>
        <time>2019-07-14T11:54:39Z</time>
      </trkpt>
      <trkpt lat="45.02767" lon="5.5711">
        <ele>1754</ele>
        <time>2019-07-14T11:54:40Z</time>
      </trkpt>
      <trkpt lat="45.02768" lon="5.57108">
        <ele>1754</ele>
        <time>2019-07-14T11:54:41Z</time>
      </trkpt>
      <trkpt lat="45.0277" lon="5.57106">
        <ele>1754</ele>
        <time>2019-07-14T11:54:42Z</time>
      </trkpt>
      <trkpt lat="45.02771" lon="5.57105">
        <ele>1754</ele>
        <time>2019-07-14T11:54:43Z</time>
      </trkpt>
      <trkpt lat="45.02772" lon="5.57103">
        <ele>1754</ele>
        <time>2019-07-14T11:54:44Z</time>
      </trkpt>
      <trkpt lat="45.02773" lon="5.57101">
        <ele>1754</ele>
        <time>2019-07-14T11:54:45Z</time>
      </trkpt>
      <trkpt lat="45.02774" lon="5.571">
        <ele>1754</ele>
        <time>2019-07-14T11:54:46Z</time>
      </trkpt>
      <trkpt lat="45.02776" lon="5.57099">
        <ele>1754</ele>
        <time>2019-07-14T11:54:47Z</time>
      </trkpt>
      <trkpt lat="45.02777" lon="5.57097">
        <ele>1754</ele>
        <time>2019-07-14T11:54:48Z</time>
      </trkpt>
      <trkpt lat="45.02778" lon="5.57096">
        <ele>1754</ele>
        <time>2019-07-14T11:54:49Z</time>
      </trkpt>
      <trkpt lat="45.02779" lon="5.57094">
        <ele>1754</ele>
        <time>2019-07-14T11:54:50Z</time>
      </trkpt>
      <trkpt lat="45.0278" lon="5.57092">
        <ele>1753</ele>
        <time>2019-07-14T11:54:51Z</time>
      </trkpt>
      <trkpt lat="45.02781" lon="5.5709">
        <ele>1753</ele>
        <time>2019-07-14T11:54:52Z</time>
      </trkpt>
      <trkpt lat="45.02782" lon="5.57089">
        <ele>1753</ele>
        <time>2019-07-14T11:54:53Z</time>
      </trkpt>
      <trkpt lat="45.02783" lon="5.57087">
        <ele>1753</ele>
        <time>2019-07-14T11:54:54Z</time>
      </trkpt>
      <trkpt lat="45.02785" lon="5.57085">
        <ele>1753</ele>
        <time>2019-07-14T11:54:55Z</time>
      </trkpt>
      <trkpt lat="45.02786" lon="5.57083">
        <ele>1757</ele>
        <time>2019-07-14T11:54:56Z</time>
      </trkpt>
      <trkpt lat="45.02786" lon="5.57081">
        <ele>1757</ele>
        <time>2019-07-14T11:54:57Z</time>
      </trkpt>
      <trkpt lat="45.02787" lon="5.57079">
        <ele>1757</ele>
        <time>2019-07-14T11:54:58Z</time>
      </trkpt>
      <trkpt lat="45.02788" lon="5.57077">
        <ele>1757</ele>
        <time>2019-07-14T11:54:59Z</time>
      </trkpt>
      <trkpt lat="45.02789" lon="5.57075">
        <ele>1757</ele>
        <time>2019-07-14T11:55:00Z</time>
      </trkpt>
      <trkpt lat="45.02789" lon="5.57072">
        <ele>1756</ele>
        <time>2019-07-14T11:55:01Z</time>
      </trkpt>
      <trkpt lat="45.02789" lon="5.5707">
        <ele>1756</ele>
        <time>2019-07-14T11:55:02Z</time>
      </trkpt>
      <trkpt lat="45.02789" lon="5.57063">
        <ele>1757</ele>
        <time>2019-07-14T11:55:05Z</time>
      </trkpt>
      <trkpt lat="45.02788" lon="5.5706">
        <ele>1757</ele>
        <time>2019-07-14T11:55:06Z</time>
      </trkpt>
      <trkpt lat="45.02787" lon="5.57058">
        <ele>1757</ele>
        <time>2019-07-14T11:55:07Z</time>
      </trkpt>
      <trkpt lat="45.02786" lon="5.57056">
        <ele>1757</ele>
        <time>2019-07-14T11:55:08Z</time>
      </trkpt>
      <trkpt lat="45.02785" lon="5.57055">
        <ele>1757</ele>
        <time>2019-07-14T11:55:09Z</time>
      </trkpt>
      <trkpt lat="45.02784" lon="5.57054">
        <ele>1757</ele>
        <time>2019-07-14T11:55:10Z</time>
      </trkpt>
      <trkpt lat="45.02782" lon="5.57053">
        <ele>1757</ele>
        <time>2019-07-14T11:55:11Z</time>
      </trkpt>
      <trkpt lat="45.02781" lon="5.57052">
        <ele>1758</ele>
        <time>2019-07-14T11:55:12Z</time>
      </trkpt>
      <trkpt lat="45.02779" lon="5.57051">
        <ele>1758</ele>
        <time>2019-07-14T11:55:13Z</time>
      </trkpt>
      <trkpt lat="45.02778" lon="5.57051">
        <ele>1758</ele>
        <time>2019-07-14T11:55:14Z</time>
      </trkpt>
      <trkpt lat="45.02776" lon="5.57051">
        <ele>1758</ele>
        <time>2019-07-14T11:55:15Z</time>
      </trkpt>
      <trkpt lat="45.02775" lon="5.57052">
        <ele>1758</ele>
        <time>2019-07-14T11:55:16Z</time>
      </trkpt>
      <trkpt lat="45.02773" lon="5.57052">
        <ele>1758</ele>
        <time>2019-07-14T11:55:17Z</time>
      </trkpt>
      <trkpt lat="45.02771" lon="5.57052">
        <ele>1759</ele>
        <time>2019-07-14T11:55:18Z</time>
      </trkpt>
      <trkpt lat="45.0277" lon="5.57052">
        <ele>1759</ele>
        <time>2019-07-14T11:55:19Z</time>
      </trkpt>
      <trkpt lat="45.02767" lon="5.57052">
        <ele>1759</ele>
        <time>2019-07-14T11:55:21Z</time>
      </trkpt>
      <trkpt lat="45.02765" lon="5.57051">
        <ele>1759</ele>
        <time>2019-07-14T11:55:22Z</time>
      </trkpt>
      <trkpt lat="45.02764" lon="5.5705">
        <ele>1759</ele>
        <time>2019-07-14T11:55:23Z</time>
      </trkpt>
      <trkpt lat="45.02762" lon="5.57049">
        <ele>1759</ele>
        <time>2019-07-14T11:55:24Z</time>
      </trkpt>
      <trkpt lat="45.0276" lon="5.57048">
        <ele>1760</ele>
        <time>2019-07-14T11:55:25Z</time>
      </trkpt>
      <trkpt lat="45.02759" lon="5.57047">
        <ele>1760</ele>
        <time>2019-07-14T11:55:26Z</time>
      </trkpt>
      <trkpt lat="45.02758" lon="5.57046">
        <ele>1760</ele>
        <time>2019-07-14T11:55:27Z</time>
      </trkpt>
      <trkpt lat="45.02756" lon="5.57045">
        <ele>1760</ele>
        <time>2019-07-14T11:55:28Z</time>
      </trkpt>
      <trkpt lat="45.02754" lon="5.57044">
        <ele>1760</ele>
        <time>2019-07-14T11:55:29Z</time>
      </trkpt>
      <trkpt lat="45.02753" lon="5.57044">
        <ele>1760</ele>
        <time>2019-07-14T11:55:30Z</time>
      </trkpt>
      <trkpt lat="45.02751" lon="5.57043">
        <ele>1760</ele>
        <time>2019-07-14T11:55:31Z</time>
      </trkpt>
      <trkpt lat="45.02749" lon="5.57043">
        <ele>1775</ele>
        <time>2019-07-14T11:55:32Z</time>
      </trkpt>
      <trkpt lat="45.02748" lon="5.57042">
        <ele>1775</ele>
        <time>2019-07-14T11:55:33Z</time>
      </trkpt>
      <trkpt lat="45.02746" lon="5.57041">
        <ele>1775</ele>
        <time>2019-07-14T11:55:34Z</time>
      </trkpt>
      <trkpt lat="45.02745" lon="5.5704">
        <ele>1775</ele>
        <time>2019-07-14T11:55:35Z</time>
      </trkpt>
      <trkpt lat="45.02743" lon="5.57039">
        <ele>1775</ele>
        <time>2019-07-14T11:55:36Z</time>
      </trkpt>
      <trkpt lat="45.02742" lon="5.57037">
        <ele>1775</ele>
        <time>2019-07-14T11:55:37Z</time>
      </trkpt>
      <trkpt lat="45.02741" lon="5.57036">
        <ele>1775</ele>
        <time>2019-07-14T11:55:38Z</time>
      </trkpt>
      <trkpt lat="45.02739" lon="5.57035">
        <ele>1775</ele>
        <time>2019-07-14T11:55:39Z</time>
      </trkpt>
      <trkpt lat="45.02737" lon="5.57035">
        <ele>1776</ele>
        <time>2019-07-14T11:55:40Z</time>
      </trkpt>
      <trkpt lat="45.02736" lon="5.57034">
        <ele>1776</ele>
        <time>2019-07-14T11:55:41Z</time>
      </trkpt>
      <trkpt lat="45.02734" lon="5.57032">
        <ele>1776</ele>
        <time>2019-07-14T11:55:42Z</time>
      </trkpt>
      <trkpt lat="45.02733" lon="5.57031">
        <ele>1776</ele>
        <time>2019-07-14T11:55:43Z</time>
      </trkpt>
      <trkpt lat="45.02731" lon="5.57029">
        <ele>1776</ele>
        <time>2019-07-14T11:55:44Z</time>
      </trkpt>
      <trkpt lat="45.02729" lon="5.57028">
        <ele>1776</ele>
        <time>2019-07-14T11:55:45Z</time>
      </trkpt>
      <trkpt lat="45.02728" lon="5.57027">
        <ele>1777</ele>
        <time>2019-07-14T11:55:46Z</time>
      </trkpt>
      <trkpt lat="45.02726" lon="5.57026">
        <ele>1777</ele>
        <time>2019-07-14T11:55:47Z</time>
      </trkpt>
      <trkpt lat="45.02724" lon="5.57025">
        <ele>1777</ele>
        <time>2019-07-14T11:55:48Z</time>
      </trkpt>
      <trkpt lat="45.02722" lon="5.57024">
        <ele>1777</ele>
        <time>2019-07-14T11:55:49Z</time>
      </trkpt>
      <trkpt lat="45.0272" lon="5.57023">
        <ele>1778</ele>
        <time>2019-07-14T11:55:50Z</time>
      </trkpt>
      <trkpt lat="45.02719" lon="5.57021">
        <ele>1778</ele>
        <time>2019-07-14T11:55:51Z</time>
      </trkpt>
      <trkpt lat="45.02717" lon="5.5702">
        <ele>1778</ele>
        <time>2019-07-14T11:55:52Z</time>
      </trkpt>
      <trkpt lat="45.02715" lon="5.57018">
        <ele>1779</ele>
        <time>2019-07-14T11:55:53Z</time>
      </trkpt>
      <trkpt lat="45.02713" lon="5.57016">
        <ele>1779</ele>
        <time>2019-07-14T11:55:54Z</time>
      </trkpt>
      <trkpt lat="45.02712" lon="5.57014">
        <ele>1779</ele>
        <time>2019-07-14T11:55:55Z</time>
      </trkpt>
      <trkpt lat="45.02711" lon="5.57011">
        <ele>1779</ele>
        <time>2019-07-14T11:55:56Z</time>
      </trkpt>
      <trkpt lat="45.0271" lon="5.57009">
        <ele>1780</ele>
        <time>2019-07-14T11:55:57Z</time>
      </trkpt>
      <trkpt lat="45.02708" lon="5.57007">
        <ele>1780</ele>
        <time>2019-07-14T11:55:58Z</time>
      </trkpt>
      <trkpt lat="45.02706" lon="5.57006">
        <ele>1780</ele>
        <time>2019-07-14T11:55:59Z</time>
      </trkpt>
      <trkpt lat="45.02705" lon="5.57005">
        <ele>1781</ele>
        <time>2019-07-14T11:56:00Z</time>
      </trkpt>
      <trkpt lat="45.02703" lon="5.57005">
        <ele>1781</ele>
        <time>2019-07-14T11:56:01Z</time>
      </trkpt>
      <trkpt lat="45.02701" lon="5.57005">
        <ele>1782</ele>
        <time>2019-07-14T11:56:02Z</time>
      </trkpt>
      <trkpt lat="45.02699" lon="5.57004">
        <ele>1782</ele>
        <time>2019-07-14T11:56:03Z</time>
      </trkpt>
      <trkpt lat="45.02697" lon="5.57003">
        <ele>1782</ele>
        <time>2019-07-14T11:56:04Z</time>
      </trkpt>
      <trkpt lat="45.02695" lon="5.57003">
        <ele>1783</ele>
        <time>2019-07-14T11:56:05Z</time>
      </trkpt>
      <trkpt lat="45.02693" lon="5.57003">
        <ele>1783</ele>
        <time>2019-07-14T11:56:06Z</time>
      </trkpt>
      <trkpt lat="45.02691" lon="5.57002">
        <ele>1784</ele>
        <time>2019-07-14T11:56:07Z</time>
      </trkpt>
      <trkpt lat="45.0269" lon="5.57001">
        <ele>1784</ele>
        <time>2019-07-14T11:56:08Z</time>
      </trkpt>
      <trkpt lat="45.02688" lon="5.57">
        <ele>1785</ele>
        <time>2019-07-14T11:56:09Z</time>
      </trkpt>
      <trkpt lat="45.02686" lon="5.56999">
        <ele>1781</ele>
        <time>2019-07-14T11:56:10Z</time>
      </trkpt>
      <trkpt lat="45.02684" lon="5.56998">
        <ele>1782</ele>
        <time>2019-07-14T11:56:11Z</time>
      </trkpt>
      <trkpt lat="45.02682" lon="5.56997">
        <ele>1782</ele>
        <time>2019-07-14T11:56:12Z</time>
      </trkpt>
      <trkpt lat="45.02681" lon="5.56995">
        <ele>1783</ele>
        <time>2019-07-14T11:56:13Z</time>
      </trkpt>
      <trkpt lat="45.02679" lon="5.56994">
        <ele>1783</ele>
        <time>2019-07-14T11:56:14Z</time>
      </trkpt>
      <trkpt lat="45.02677" lon="5.56993">
        <ele>1784</ele>
        <time>2019-07-14T11:56:15Z</time>
      </trkpt>
      <trkpt lat="45.02676" lon="5.56991">
        <ele>1784</ele>
        <time>2019-07-14T11:56:16Z</time>
      </trkpt>
      <trkpt lat="45.02674" lon="5.5699">
        <ele>1784</ele>
        <time>2019-07-14T11:56:17Z</time>
      </trkpt>
      <trkpt lat="45.02672" lon="5.56989">
        <ele>1784</ele>
        <time>2019-07-14T11:56:18Z</time>
      </trkpt>
      <trkpt lat="45.02671" lon="5.56988">
        <ele>1784</ele>
        <time>2019-07-14T11:56:19Z</time>
      </trkpt>
      <trkpt lat="45.0267" lon="5.56988">
        <ele>1784</ele>
        <time>2019-07-14T11:56:20Z</time>
      </trkpt>
      <trkpt lat="45.02669" lon="5.56988">
        <ele>1784</ele>
        <time>2019-07-14T11:56:21Z</time>
      </trkpt>
      <trkpt lat="45.02668" lon="5.56985">
        <ele>1783</ele>
        <time>2019-07-14T11:56:22Z</time>
      </trkpt>
      <trkpt lat="45.02666" lon="5.56982">
        <ele>1793</ele>
        <time>2019-07-14T11:56:23Z</time>
      </trkpt>
      <trkpt lat="45.02664" lon="5.56981">
        <ele>1793</ele>
        <time>2019-07-14T11:56:24Z</time>
      </trkpt>
      <trkpt lat="45.02662" lon="5.56979">
        <ele>1794</ele>
        <time>2019-07-14T11:56:25Z</time>
      </trkpt>
      <trkpt lat="45.02659" lon="5.56978">
        <ele>1794</ele>
        <time>2019-07-14T11:56:26Z</time>
      </trkpt>
      <trkpt lat="45.02658" lon="5.56978">
        <ele>1794</ele>
        <time>2019-07-14T11:56:27Z</time>
      </trkpt>
      <trkpt lat="45.02656" lon="5.56977">
        <ele>1794</ele>
        <time>2019-07-14T11:56:28Z</time>
      </trkpt>
      <trkpt lat="45.02654" lon="5.56976">
        <ele>1794</ele>
        <time>2019-07-14T11:56:29Z</time>
      </trkpt>
      <trkpt lat="45.02652" lon="5.56976">
        <ele>1794</ele>
        <time>2019-07-14T11:56:30Z</time>
      </trkpt>
      <trkpt lat="45.02649" lon="5.56975">
        <ele>1794</ele>
        <time>2019-07-14T11:56:31Z</time>
      </trkpt>
      <trkpt lat="45.02648" lon="5.56974">
        <ele>1794</ele>
        <time>2019-07-14T11:56:32Z</time>
      </trkpt>
      <trkpt lat="45.02646" lon="5.56973">
        <ele>1795</ele>
        <time>2019-07-14T11:56:33Z</time>
      </trkpt>
      <trkpt lat="45.02643" lon="5.56972">
        <ele>1795</ele>
        <time>2019-07-14T11:56:34Z</time>
      </trkpt>
      <trkpt lat="45.02641" lon="5.5697">
        <ele>1795</ele>
        <time>2019-07-14T11:56:35Z</time>
      </trkpt>
      <trkpt lat="45.0264" lon="5.56968">
        <ele>1795</ele>
        <time>2019-07-14T11:56:36Z</time>
      </trkpt>
      <trkpt lat="45.02638" lon="5.56966">
        <ele>1795</ele>
        <time>2019-07-14T11:56:37Z</time>
      </trkpt>
      <trkpt lat="45.02637" lon="5.56965">
        <ele>1795</ele>
        <time>2019-07-14T11:56:38Z</time>
      </trkpt>
      <trkpt lat="45.02635" lon="5.56963">
        <ele>1795</ele>
        <time>2019-07-14T11:56:39Z</time>
      </trkpt>
      <trkpt lat="45.02633" lon="5.56961">
        <ele>1795</ele>
        <time>2019-07-14T11:56:40Z</time>
      </trkpt>
      <trkpt lat="45.02631" lon="5.56959">
        <ele>1795</ele>
        <time>2019-07-14T11:56:41Z</time>
      </trkpt>
      <trkpt lat="45.0263" lon="5.56958">
        <ele>1795</ele>
        <time>2019-07-14T11:56:42Z</time>
      </trkpt>
      <trkpt lat="45.02628" lon="5.56956">
        <ele>1795</ele>
        <time>2019-07-14T11:56:43Z</time>
      </trkpt>
      <trkpt lat="45.02627" lon="5.56954">
        <ele>1796</ele>
        <time>2019-07-14T11:56:44Z</time>
      </trkpt>
      <trkpt lat="45.02625" lon="5.56953">
        <ele>1796</ele>
        <time>2019-07-14T11:56:45Z</time>
      </trkpt>
      <trkpt lat="45.02623" lon="5.56951">
        <ele>1796</ele>
        <time>2019-07-14T11:56:46Z</time>
      </trkpt>
      <trkpt lat="45.02621" lon="5.5695">
        <ele>1796</ele>
        <time>2019-07-14T11:56:47Z</time>
      </trkpt>
      <trkpt lat="45.0262" lon="5.56948">
        <ele>1796</ele>
        <time>2019-07-14T11:56:48Z</time>
      </trkpt>
      <trkpt lat="45.02617" lon="5.56947">
        <ele>1796</ele>
        <time>2019-07-14T11:56:49Z</time>
      </trkpt>
      <trkpt lat="45.02615" lon="5.56946">
        <ele>1796</ele>
        <time>2019-07-14T11:56:50Z</time>
      </trkpt>
      <trkpt lat="45.02613" lon="5.56945">
        <ele>1797</ele>
        <time>2019-07-14T11:56:51Z</time>
      </trkpt>
      <trkpt lat="45.02611" lon="5.56944">
        <ele>1797</ele>
        <time>2019-07-14T11:56:52Z</time>
      </trkpt>
      <trkpt lat="45.02609" lon="5.56943">
        <ele>1797</ele>
        <time>2019-07-14T11:56:53Z</time>
      </trkpt>
      <trkpt lat="45.02607" lon="5.56942">
        <ele>1797</ele>
        <time>2019-07-14T11:56:54Z</time>
      </trkpt>
      <trkpt lat="45.02605" lon="5.56941">
        <ele>1797</ele>
        <time>2019-07-14T11:56:55Z</time>
      </trkpt>
      <trkpt lat="45.02604" lon="5.56941">
        <ele>1798</ele>
        <time>2019-07-14T11:56:56Z</time>
      </trkpt>
      <trkpt lat="45.02602" lon="5.5694">
        <ele>1798</ele>
        <time>2019-07-14T11:56:57Z</time>
      </trkpt>
      <trkpt lat="45.02599" lon="5.56939">
        <ele>1798</ele>
        <time>2019-07-14T11:56:58Z</time>
      </trkpt>
      <trkpt lat="45.02597" lon="5.56938">
        <ele>1798</ele>
        <time>2019-07-14T11:56:59Z</time>
      </trkpt>
      <trkpt lat="45.02595" lon="5.56938">
        <ele>1798</ele>
        <time>2019-07-14T11:57:00Z</time>
      </trkpt>
      <trkpt lat="45.02593" lon="5.56937">
        <ele>1799</ele>
        <time>2019-07-14T11:57:01Z</time>
      </trkpt>
      <trkpt lat="45.02591" lon="5.56937">
        <ele>1799</ele>
        <time>2019-07-14T11:57:02Z</time>
      </trkpt>
      <trkpt lat="45.02589" lon="5.56937">
        <ele>1799</ele>
        <time>2019-07-14T11:57:03Z</time>
      </trkpt>
      <trkpt lat="45.02588" lon="5.56936">
        <ele>1799</ele>
        <time>2019-07-14T11:57:04Z</time>
      </trkpt>
      <trkpt lat="45.02586" lon="5.56936">
        <ele>1799</ele>
        <time>2019-07-14T11:57:05Z</time>
      </trkpt>
      <trkpt lat="45.02584" lon="5.56936">
        <ele>1799</ele>
        <time>2019-07-14T11:57:06Z</time>
      </trkpt>
      <trkpt lat="45.02582" lon="5.56935">
        <ele>1810</ele>
        <time>2019-07-14T11:57:07Z</time>
      </trkpt>
      <trkpt lat="45.0258" lon="5.56935">
        <ele>1810</ele>
        <time>2019-07-14T11:57:08Z</time>
      </trkpt>
      <trkpt lat="45.02578" lon="5.56934">
        <ele>1810</ele>
        <time>2019-07-14T11:57:09Z</time>
      </trkpt>
      <trkpt lat="45.02576" lon="5.56933">
        <ele>1810</ele>
        <time>2019-07-14T11:57:10Z</time>
      </trkpt>
      <trkpt lat="45.02574" lon="5.56933">
        <ele>1810</ele>
        <time>2019-07-14T11:57:11Z</time>
      </trkpt>
      <trkpt lat="45.02572" lon="5.56932">
        <ele>1810</ele>
        <time>2019-07-14T11:57:12Z</time>
      </trkpt>
      <trkpt lat="45.0257" lon="5.56931">
        <ele>1811</ele>
        <time>2019-07-14T11:57:13Z</time>
      </trkpt>
      <trkpt lat="45.02568" lon="5.56931">
        <ele>1811</ele>
        <time>2019-07-14T11:57:14Z</time>
      </trkpt>
      <trkpt lat="45.02564" lon="5.56931">
        <ele>1812</ele>
        <time>2019-07-14T11:57:16Z</time>
      </trkpt>
      <trkpt lat="45.02562" lon="5.56931">
        <ele>1813</ele>
        <time>2019-07-14T11:57:17Z</time>
      </trkpt>
      <trkpt lat="45.0256" lon="5.56931">
        <ele>1813</ele>
        <time>2019-07-14T11:57:18Z</time>
      </trkpt>
      <trkpt lat="45.02559" lon="5.5693">
        <ele>1813</ele>
        <time>2019-07-14T11:57:19Z</time>
      </trkpt>
      <trkpt lat="45.02558" lon="5.5693">
        <ele>1814</ele>
        <time>2019-07-14T11:57:20Z</time>
      </trkpt>
      <trkpt lat="45.02556" lon="5.56929">
        <ele>1814</ele>
        <time>2019-07-14T11:57:21Z</time>
      </trkpt>
      <trkpt lat="45.02555" lon="5.56929">
        <ele>1814</ele>
        <time>2019-07-14T11:57:22Z</time>
      </trkpt>
      <trkpt lat="45.02553" lon="5.56928">
        <ele>1815</ele>
        <time>2019-07-14T11:57:23Z</time>
      </trkpt>
      <trkpt lat="45.02552" lon="5.56928">
        <ele>1815</ele>
        <time>2019-07-14T11:57:24Z</time>
      </trkpt>
      <trkpt lat="45.02551" lon="5.56927">
        <ele>1815</ele>
        <time>2019-07-14T11:57:25Z</time>
      </trkpt>
      <trkpt lat="45.02549" lon="5.56927">
        <ele>1815</ele>
        <time>2019-07-14T11:57:26Z</time>
      </trkpt>
      <trkpt lat="45.02548" lon="5.56926">
        <ele>1816</ele>
        <time>2019-07-14T11:57:27Z</time>
      </trkpt>
      <trkpt lat="45.02546" lon="5.56925">
        <ele>1816</ele>
        <time>2019-07-14T11:57:28Z</time>
      </trkpt>
      <trkpt lat="45.02545" lon="5.56924">
        <ele>1816</ele>
        <time>2019-07-14T11:57:29Z</time>
      </trkpt>
      <trkpt lat="45.02544" lon="5.56922">
        <ele>1816</ele>
        <time>2019-07-14T11:57:30Z</time>
      </trkpt>
      <trkpt lat="45.02543" lon="5.5692">
        <ele>1816</ele>
        <time>2019-07-14T11:57:31Z</time>
      </trkpt>
      <trkpt lat="45.02542" lon="5.5692">
        <ele>1816</ele>
        <time>2019-07-14T11:57:32Z</time>
      </trkpt>
      <trkpt lat="45.02541" lon="5.56919">
        <ele>1816</ele>
        <time>2019-07-14T11:57:33Z</time>
      </trkpt>
      <trkpt lat="45.02539" lon="5.56919">
        <ele>1817</ele>
        <time>2019-07-14T11:57:34Z</time>
      </trkpt>
      <trkpt lat="45.02538" lon="5.56919">
        <ele>1817</ele>
        <time>2019-07-14T11:57:35Z</time>
      </trkpt>
      <trkpt lat="45.02537" lon="5.56919">
        <ele>1817</ele>
        <time>2019-07-14T11:57:36Z</time>
      </trkpt>
      <trkpt lat="45.02535" lon="5.5692">
        <ele>1817</ele>
        <time>2019-07-14T11:57:37Z</time>
      </trkpt>
      <trkpt lat="45.02534" lon="5.56921">
        <ele>1818</ele>
        <time>2019-07-14T11:57:38Z</time>
      </trkpt>
      <trkpt lat="45.02533" lon="5.56923">
        <ele>1818</ele>
        <time>2019-07-14T11:57:39Z</time>
      </trkpt>
      <trkpt lat="45.02532" lon="5.56925">
        <ele>1818</ele>
        <time>2019-07-14T11:57:40Z</time>
      </trkpt>
      <trkpt lat="45.02531" lon="5.56927">
        <ele>1818</ele>
        <time>2019-07-14T11:57:41Z</time>
      </trkpt>
      <trkpt lat="45.02531" lon="5.56929">
        <ele>1818</ele>
        <time>2019-07-14T11:57:42Z</time>
      </trkpt>
      <trkpt lat="45.02531" lon="5.56932">
        <ele>1819</ele>
        <time>2019-07-14T11:57:43Z</time>
      </trkpt>
      <trkpt lat="45.02531" lon="5.56934">
        <ele>1819</ele>
        <time>2019-07-14T11:57:44Z</time>
      </trkpt>
      <trkpt lat="45.02532" lon="5.56936">
        <ele>1819</ele>
        <time>2019-07-14T11:57:45Z</time>
      </trkpt>
      <trkpt lat="45.02533" lon="5.56938">
        <ele>1819</ele>
        <time>2019-07-14T11:57:46Z</time>
      </trkpt>
      <trkpt lat="45.02534" lon="5.56939">
        <ele>1819</ele>
        <time>2019-07-14T11:57:47Z</time>
      </trkpt>
      <trkpt lat="45.02535" lon="5.56941">
        <ele>1819</ele>
        <time>2019-07-14T11:57:48Z</time>
      </trkpt>
      <trkpt lat="45.02536" lon="5.56943">
        <ele>1819</ele>
        <time>2019-07-14T11:57:49Z</time>
      </trkpt>
      <trkpt lat="45.02537" lon="5.56944">
        <ele>1819</ele>
        <time>2019-07-14T11:57:50Z</time>
      </trkpt>
      <trkpt lat="45.02538" lon="5.56946">
        <ele>1819</ele>
        <time>2019-07-14T11:57:51Z</time>
      </trkpt>
      <trkpt lat="45.02539" lon="5.56948">
        <ele>1819</ele>
        <time>2019-07-14T11:57:52Z</time>
      </trkpt>
      <trkpt lat="45.02539" lon="5.56949">
        <ele>1819</ele>
        <time>2019-07-14T11:57:53Z</time>
      </trkpt>
      <trkpt lat="45.0254" lon="5.56951">
        <ele>1819</ele>
        <time>2019-07-14T11:57:54Z</time>
      </trkpt>
      <trkpt lat="45.02541" lon="5.56952">
        <ele>1819</ele>
        <time>2019-07-14T11:57:55Z</time>
      </trkpt>
      <trkpt lat="45.02542" lon="5.56954">
        <ele>1819</ele>
        <time>2019-07-14T11:57:56Z</time>
      </trkpt>
      <trkpt lat="45.02542" lon="5.56954">
        <ele>1819</ele>
        <time>2019-07-14T11:57:57Z</time>
      </trkpt>
      <trkpt lat="45.02542" lon="5.56954">
        <ele>1820</ele>
        <time>2019-07-14T11:57:58Z</time>
      </trkpt>
      <trkpt lat="45.02544" lon="5.56955">
        <ele>1819</ele>
        <time>2019-07-14T11:58:48Z</time>
      </trkpt>
      <trkpt lat="45.02546" lon="5.56955">
        <ele>1819</ele>
        <time>2019-07-14T11:58:49Z</time>
      </trkpt>
      <trkpt lat="45.02547" lon="5.56956">
        <ele>1819</ele>
        <time>2019-07-14T11:58:50Z</time>
      </trkpt>
      <trkpt lat="45.02548" lon="5.56957">
        <ele>1819</ele>
        <time>2019-07-14T11:58:51Z</time>
      </trkpt>
      <trkpt lat="45.02549" lon="5.56959">
        <ele>1819</ele>
        <time>2019-07-14T11:58:52Z</time>
      </trkpt>
      <trkpt lat="45.0255" lon="5.5696">
        <ele>1819</ele>
        <time>2019-07-14T11:58:53Z</time>
      </trkpt>
      <trkpt lat="45.02551" lon="5.56962">
        <ele>1819</ele>
        <time>2019-07-14T11:58:54Z</time>
      </trkpt>
      <trkpt lat="45.02552" lon="5.56964">
        <ele>1819</ele>
        <time>2019-07-14T11:58:55Z</time>
      </trkpt>
      <trkpt lat="45.02554" lon="5.56966">
        <ele>1819</ele>
        <time>2019-07-14T11:58:56Z</time>
      </trkpt>
      <trkpt lat="45.02555" lon="5.56968">
        <ele>1819</ele>
        <time>2019-07-14T11:58:57Z</time>
      </trkpt>
      <trkpt lat="45.02556" lon="5.56971">
        <ele>1820</ele>
        <time>2019-07-14T11:58:58Z</time>
      </trkpt>
      <trkpt lat="45.02557" lon="5.56973">
        <ele>1820</ele>
        <time>2019-07-14T11:58:59Z</time>
      </trkpt>
      <trkpt lat="45.02557" lon="5.56976">
        <ele>1820</ele>
        <time>2019-07-14T11:59:00Z</time>
      </trkpt>
      <trkpt lat="45.02558" lon="5.56979">
        <ele>1820</ele>
        <time>2019-07-14T11:59:01Z</time>
      </trkpt>
      <trkpt lat="45.02559" lon="5.56981">
        <ele>1820</ele>
        <time>2019-07-14T11:59:02Z</time>
      </trkpt>
      <trkpt lat="45.0256" lon="5.56984">
        <ele>1820</ele>
        <time>2019-07-14T11:59:03Z</time>
      </trkpt>
      <trkpt lat="45.02561" lon="5.56987">
        <ele>1820</ele>
        <time>2019-07-14T11:59:04Z</time>
      </trkpt>
      <trkpt lat="45.02562" lon="5.5699">
        <ele>1820</ele>
        <time>2019-07-14T11:59:05Z</time>
      </trkpt>
      <trkpt lat="45.02564" lon="5.56993">
        <ele>1820</ele>
        <time>2019-07-14T11:59:06Z</time>
      </trkpt>
      <trkpt lat="45.02565" lon="5.56996">
        <ele>1820</ele>
        <time>2019-07-14T11:59:07Z</time>
      </trkpt>
      <trkpt lat="45.02566" lon="5.56999">
        <ele>1820</ele>
        <time>2019-07-14T11:59:08Z</time>
      </trkpt>
      <trkpt lat="45.02567" lon="5.57002">
        <ele>1826</ele>
        <time>2019-07-14T11:59:09Z</time>
      </trkpt>
      <trkpt lat="45.02568" lon="5.57005">
        <ele>1826</ele>
        <time>2019-07-14T11:59:10Z</time>
      </trkpt>
      <trkpt lat="45.02569" lon="5.57008">
        <ele>1826</ele>
        <time>2019-07-14T11:59:11Z</time>
      </trkpt>
      <trkpt lat="45.02571" lon="5.57011">
        <ele>1826</ele>
        <time>2019-07-14T11:59:12Z</time>
      </trkpt>
      <trkpt lat="45.02572" lon="5.57014">
        <ele>1826</ele>
        <time>2019-07-14T11:59:13Z</time>
      </trkpt>
      <trkpt lat="45.02573" lon="5.57017">
        <ele>1827</ele>
        <time>2019-07-14T11:59:14Z</time>
      </trkpt>
      <trkpt lat="45.02574" lon="5.5702">
        <ele>1827</ele>
        <time>2019-07-14T11:59:15Z</time>
      </trkpt>
      <trkpt lat="45.02575" lon="5.57023">
        <ele>1828</ele>
        <time>2019-07-14T11:59:16Z</time>
      </trkpt>
      <trkpt lat="45.02575" lon="5.57026">
        <ele>1828</ele>
        <time>2019-07-14T11:59:17Z</time>
      </trkpt>
      <trkpt lat="45.02576" lon="5.57029">
        <ele>1829</ele>
        <time>2019-07-14T11:59:18Z</time>
      </trkpt>
      <trkpt lat="45.02577" lon="5.57032">
        <ele>1829</ele>
        <time>2019-07-14T11:59:19Z</time>
      </trkpt>
      <trkpt lat="45.02577" lon="5.57036">
        <ele>1830</ele>
        <time>2019-07-14T11:59:20Z</time>
      </trkpt>
      <trkpt lat="45.02578" lon="5.57038">
        <ele>1830</ele>
        <time>2019-07-14T11:59:21Z</time>
      </trkpt>
      <trkpt lat="45.02578" lon="5.57041">
        <ele>1830</ele>
        <time>2019-07-14T11:59:22Z</time>
      </trkpt>
      <trkpt lat="45.02579" lon="5.57044">
        <ele>1830</ele>
        <time>2019-07-14T11:59:23Z</time>
      </trkpt>
      <trkpt lat="45.02579" lon="5.57049">
        <ele>1831</ele>
        <time>2019-07-14T11:59:25Z</time>
      </trkpt>
      <trkpt lat="45.0258" lon="5.57055">
        <ele>1831</ele>
        <time>2019-07-14T11:59:27Z</time>
      </trkpt>
      <trkpt lat="45.0258" lon="5.57057">
        <ele>1831</ele>
        <time>2019-07-14T11:59:28Z</time>
      </trkpt>
      <trkpt lat="45.02581" lon="5.5706">
        <ele>1831</ele>
        <time>2019-07-14T11:59:29Z</time>
      </trkpt>
      <trkpt lat="45.02582" lon="5.57062">
        <ele>1830</ele>
        <time>2019-07-14T11:59:30Z</time>
      </trkpt>
      <trkpt lat="45.02583" lon="5.57065">
        <ele>1830</ele>
        <time>2019-07-14T11:59:31Z</time>
      </trkpt>
      <trkpt lat="45.02583" lon="5.5707">
        <ele>1830</ele>
        <time>2019-07-14T11:59:33Z</time>
      </trkpt>
      <trkpt lat="45.02583" lon="5.57076">
        <ele>1829</ele>
        <time>2019-07-14T11:59:35Z</time>
      </trkpt>
      <trkpt lat="45.02584" lon="5.57079">
        <ele>1824</ele>
        <time>2019-07-14T11:59:36Z</time>
      </trkpt>
      <trkpt lat="45.02584" lon="5.57082">
        <ele>1826</ele>
        <time>2019-07-14T11:59:37Z</time>
      </trkpt>
      <trkpt lat="45.02584" lon="5.57098">
        <ele>1820</ele>
        <time>2019-07-14T11:59:43Z</time>
      </trkpt>
      <trkpt lat="45.02583" lon="5.571">
        <ele>1832</ele>
        <time>2019-07-14T11:59:44Z</time>
      </trkpt>
      <trkpt lat="45.02582" lon="5.57102">
        <ele>1833</ele>
        <time>2019-07-14T11:59:45Z</time>
      </trkpt>
      <trkpt lat="45.02581" lon="5.57104">
        <ele>1833</ele>
        <time>2019-07-14T11:59:46Z</time>
      </trkpt>
      <trkpt lat="45.02581" lon="5.57106">
        <ele>1833</ele>
        <time>2019-07-14T11:59:47Z</time>
      </trkpt>
      <trkpt lat="45.02581" lon="5.57109">
        <ele>1834</ele>
        <time>2019-07-14T12:01:00Z</time>
      </trkpt>
      <trkpt lat="45.02581" lon="5.57111">
        <ele>1834</ele>
        <time>2019-07-14T12:01:01Z</time>
      </trkpt>
      <trkpt lat="45.02581" lon="5.57119">
        <ele>1834</ele>
        <time>2019-07-14T12:01:05Z</time>
      </trkpt>
      <trkpt lat="45.0258" lon="5.57121">
        <ele>1835</ele>
        <time>2019-07-14T12:01:06Z</time>
      </trkpt>
      <trkpt lat="45.02579" lon="5.57123">
        <ele>1835</ele>
        <time>2019-07-14T12:01:07Z</time>
      </trkpt>
      <trkpt lat="45.02579" lon="5.57125">
        <ele>1835</ele>
        <time>2019-07-14T12:01:08Z</time>
      </trkpt>
      <trkpt lat="45.02578" lon="5.57127">
        <ele>1835</ele>
        <time>2019-07-14T12:01:09Z</time>
      </trkpt>
      <trkpt lat="45.02578" lon="5.57129">
        <ele>1835</ele>
        <time>2019-07-14T12:01:10Z</time>
      </trkpt>
      <trkpt lat="45.02577" lon="5.57131">
        <ele>1835</ele>
        <time>2019-07-14T12:01:11Z</time>
      </trkpt>
      <trkpt lat="45.02577" lon="5.57134">
        <ele>1835</ele>
        <time>2019-07-14T12:01:12Z</time>
      </trkpt>
      <trkpt lat="45.02576" lon="5.57141">
        <ele>1834</ele>
        <time>2019-07-14T12:01:15Z</time>
      </trkpt>
      <trkpt lat="45.02576" lon="5.57144">
        <ele>1834</ele>
        <time>2019-07-14T12:01:16Z</time>
      </trkpt>
      <trkpt lat="45.02575" lon="5.57146">
        <ele>1834</ele>
        <time>2019-07-14T12:01:17Z</time>
      </trkpt>
      <trkpt lat="45.02575" lon="5.57149">
        <ele>1834</ele>
        <time>2019-07-14T12:01:18Z</time>
      </trkpt>
      <trkpt lat="45.02574" lon="5.57151">
        <ele>1833</ele>
        <time>2019-07-14T12:01:19Z</time>
      </trkpt>
      <trkpt lat="45.02573" lon="5.57153">
        <ele>1833</ele>
        <time>2019-07-14T12:01:20Z</time>
      </trkpt>
      <trkpt lat="45.02572" lon="5.57155">
        <ele>1833</ele>
        <time>2019-07-14T12:01:21Z</time>
      </trkpt>
      <trkpt lat="45.02571" lon="5.57157">
        <ele>1833</ele>
        <time>2019-07-14T12:01:22Z</time>
      </trkpt>
      <trkpt lat="45.0257" lon="5.57158">
        <ele>1833</ele>
        <time>2019-07-14T12:01:23Z</time>
      </trkpt>
      <trkpt lat="45.02568" lon="5.5716">
        <ele>1833</ele>
        <time>2019-07-14T12:01:24Z</time>
      </trkpt>
      <trkpt lat="45.02567" lon="5.57162">
        <ele>1833</ele>
        <time>2019-07-14T12:01:25Z</time>
      </trkpt>
      <trkpt lat="45.02566" lon="5.57163">
        <ele>1834</ele>
        <time>2019-07-14T12:01:26Z</time>
      </trkpt>
      <trkpt lat="45.02564" lon="5.57164">
        <ele>1834</ele>
        <time>2019-07-14T12:01:27Z</time>
      </trkpt>
      <trkpt lat="45.02563" lon="5.57165">
        <ele>1834</ele>
        <time>2019-07-14T12:01:28Z</time>
      </trkpt>
      <trkpt lat="45.02562" lon="5.57166">
        <ele>1835</ele>
        <time>2019-07-14T12:01:29Z</time>
      </trkpt>
      <trkpt lat="45.0256" lon="5.57167">
        <ele>1835</ele>
        <time>2019-07-14T12:01:30Z</time>
      </trkpt>
      <trkpt lat="45.02558" lon="5.57168">
        <ele>1831</ele>
        <time>2019-07-14T12:01:31Z</time>
      </trkpt>
      <trkpt lat="45.02557" lon="5.57169">
        <ele>1831</ele>
        <time>2019-07-14T12:01:32Z</time>
      </trkpt>
      <trkpt lat="45.02555" lon="5.5717">
        <ele>1831</ele>
        <time>2019-07-14T12:01:33Z</time>
      </trkpt>
      <trkpt lat="45.02554" lon="5.57171">
        <ele>1831</ele>
        <time>2019-07-14T12:01:34Z</time>
      </trkpt>
      <trkpt lat="45.02552" lon="5.57171">
        <ele>1832</ele>
        <time>2019-07-14T12:01:35Z</time>
      </trkpt>
      <trkpt lat="45.0255" lon="5.57172">
        <ele>1832</ele>
        <time>2019-07-14T12:01:36Z</time>
      </trkpt>
      <trkpt lat="45.02548" lon="5.57172">
        <ele>1832</ele>
        <time>2019-07-14T12:01:37Z</time>
      </trkpt>
      <trkpt lat="45.02546" lon="5.57173">
        <ele>1832</ele>
        <time>2019-07-14T12:01:38Z</time>
      </trkpt>
      <trkpt lat="45.02545" lon="5.57173">
        <ele>1833</ele>
        <time>2019-07-14T12:01:39Z</time>
      </trkpt>
      <trkpt lat="45.02543" lon="5.57173">
        <ele>1833</ele>
        <time>2019-07-14T12:01:40Z</time>
      </trkpt>
      <trkpt lat="45.02541" lon="5.57173">
        <ele>1833</ele>
        <time>2019-07-14T12:01:41Z</time>
      </trkpt>
      <trkpt lat="45.0254" lon="5.57173">
        <ele>1833</ele>
        <time>2019-07-14T12:01:42Z</time>
      </trkpt>
      <trkpt lat="45.02538" lon="5.57173">
        <ele>1834</ele>
        <time>2019-07-14T12:01:43Z</time>
      </trkpt>
      <trkpt lat="45.02535" lon="5.57173">
        <ele>1835</ele>
        <time>2019-07-14T12:01:45Z</time>
      </trkpt>
      <trkpt lat="45.02533" lon="5.57173">
        <ele>1835</ele>
        <time>2019-07-14T12:01:46Z</time>
      </trkpt>
      <trkpt lat="45.02532" lon="5.57172">
        <ele>1835</ele>
        <time>2019-07-14T12:01:47Z</time>
      </trkpt>
      <trkpt lat="45.0253" lon="5.57172">
        <ele>1836</ele>
        <time>2019-07-14T12:01:48Z</time>
      </trkpt>
      <trkpt lat="45.02529" lon="5.57172">
        <ele>1836</ele>
        <time>2019-07-14T12:01:49Z</time>
      </trkpt>
      <trkpt lat="45.02527" lon="5.57171">
        <ele>1836</ele>
        <time>2019-07-14T12:01:50Z</time>
      </trkpt>
      <trkpt lat="45.02525" lon="5.57171">
        <ele>1837</ele>
        <time>2019-07-14T12:01:51Z</time>
      </trkpt>
      <trkpt lat="45.02522" lon="5.57171">
        <ele>1838</ele>
        <time>2019-07-14T12:01:53Z</time>
      </trkpt>
      <trkpt lat="45.02521" lon="5.57171">
        <ele>1838</ele>
        <time>2019-07-14T12:01:54Z</time>
      </trkpt>
      <trkpt lat="45.02519" lon="5.57171">
        <ele>1839</ele>
        <time>2019-07-14T12:01:55Z</time>
      </trkpt>
      <trkpt lat="45.02517" lon="5.57171">
        <ele>1840</ele>
        <time>2019-07-14T12:01:56Z</time>
      </trkpt>
      <trkpt lat="45.02516" lon="5.57171">
        <ele>1840</ele>
        <time>2019-07-14T12:01:57Z</time>
      </trkpt>
      <trkpt lat="45.02512" lon="5.5717">
        <ele>1842</ele>
        <time>2019-07-14T12:01:59Z</time>
      </trkpt>
      <trkpt lat="45.02511" lon="5.5717">
        <ele>1842</ele>
        <time>2019-07-14T12:02:00Z</time>
      </trkpt>
      <trkpt lat="45.02509" lon="5.5717">
        <ele>1843</ele>
        <time>2019-07-14T12:02:01Z</time>
      </trkpt>
      <trkpt lat="45.02502" lon="5.5717">
        <ele>1846</ele>
        <time>2019-07-14T12:02:05Z</time>
      </trkpt>
      <trkpt lat="45.02501" lon="5.5717">
        <ele>1846</ele>
        <time>2019-07-14T12:02:06Z</time>
      </trkpt>
      <trkpt lat="45.02499" lon="5.57171">
        <ele>1849</ele>
        <time>2019-07-14T12:02:07Z</time>
      </trkpt>
      <trkpt lat="45.02497" lon="5.57171">
        <ele>1849</ele>
        <time>2019-07-14T12:02:08Z</time>
      </trkpt>
      <trkpt lat="45.02495" lon="5.57172">
        <ele>1848</ele>
        <time>2019-07-14T12:02:09Z</time>
      </trkpt>
      <trkpt lat="45.02494" lon="5.57172">
        <ele>1848</ele>
        <time>2019-07-14T12:02:10Z</time>
      </trkpt>
      <trkpt lat="45.02492" lon="5.57172">
        <ele>1848</ele>
        <time>2019-07-14T12:02:11Z</time>
      </trkpt>
      <trkpt lat="45.0249" lon="5.57171">
        <ele>1848</ele>
        <time>2019-07-14T12:02:12Z</time>
      </trkpt>
      <trkpt lat="45.02489" lon="5.57171">
        <ele>1848</ele>
        <time>2019-07-14T12:02:13Z</time>
      </trkpt>
      <trkpt lat="45.02487" lon="5.5717">
        <ele>1848</ele>
        <time>2019-07-14T12:02:14Z</time>
      </trkpt>
      <trkpt lat="45.02484" lon="5.5717">
        <ele>1848</ele>
        <time>2019-07-14T12:02:16Z</time>
      </trkpt>
      <trkpt lat="45.02482" lon="5.5717">
        <ele>1849</ele>
        <time>2019-07-14T12:02:17Z</time>
      </trkpt>
      <trkpt lat="45.0248" lon="5.57169">
        <ele>1849</ele>
        <time>2019-07-14T12:02:18Z</time>
      </trkpt>
      <trkpt lat="45.02479" lon="5.57169">
        <ele>1849</ele>
        <time>2019-07-14T12:02:19Z</time>
      </trkpt>
      <trkpt lat="45.02477" lon="5.57168">
        <ele>1849</ele>
        <time>2019-07-14T12:02:20Z</time>
      </trkpt>
      <trkpt lat="45.02476" lon="5.57167">
        <ele>1849</ele>
        <time>2019-07-14T12:02:21Z</time>
      </trkpt>
      <trkpt lat="45.02475" lon="5.57166">
        <ele>1855</ele>
        <time>2019-07-14T12:02:22Z</time>
      </trkpt>
      <trkpt lat="45.02473" lon="5.57165">
        <ele>1856</ele>
        <time>2019-07-14T12:02:23Z</time>
      </trkpt>
      <trkpt lat="45.02472" lon="5.57165">
        <ele>1856</ele>
        <time>2019-07-14T12:02:24Z</time>
      </trkpt>
      <trkpt lat="45.0247" lon="5.57164">
        <ele>1856</ele>
        <time>2019-07-14T12:02:25Z</time>
      </trkpt>
      <trkpt lat="45.02469" lon="5.57164">
        <ele>1856</ele>
        <time>2019-07-14T12:02:26Z</time>
      </trkpt>
      <trkpt lat="45.02467" lon="5.57163">
        <ele>1857</ele>
        <time>2019-07-14T12:02:27Z</time>
      </trkpt>
      <trkpt lat="45.02466" lon="5.57163">
        <ele>1857</ele>
        <time>2019-07-14T12:02:28Z</time>
      </trkpt>
      <trkpt lat="45.02465" lon="5.57163">
        <ele>1857</ele>
        <time>2019-07-14T12:02:29Z</time>
      </trkpt>
      <trkpt lat="45.02463" lon="5.57163">
        <ele>1857</ele>
        <time>2019-07-14T12:02:30Z</time>
      </trkpt>
      <trkpt lat="45.02462" lon="5.57162">
        <ele>1857</ele>
        <time>2019-07-14T12:02:31Z</time>
      </trkpt>
      <trkpt lat="45.02461" lon="5.57162">
        <ele>1858</ele>
        <time>2019-07-14T12:02:32Z</time>
      </trkpt>
      <trkpt lat="45.02459" lon="5.57162">
        <ele>1858</ele>
        <time>2019-07-14T12:02:33Z</time>
      </trkpt>
      <trkpt lat="45.02455" lon="5.57161">
        <ele>1858</ele>
        <time>2019-07-14T12:02:35Z</time>
      </trkpt>
      <trkpt lat="45.02454" lon="5.57161">
        <ele>1859</ele>
        <time>2019-07-14T12:02:36Z</time>
      </trkpt>
      <trkpt lat="45.02452" lon="5.5716">
        <ele>1859</ele>
        <time>2019-07-14T12:02:37Z</time>
      </trkpt>
      <trkpt lat="45.0245" lon="5.57159">
        <ele>1859</ele>
        <time>2019-07-14T12:02:38Z</time>
      </trkpt>
      <trkpt lat="45.02448" lon="5.57159">
        <ele>1859</ele>
        <time>2019-07-14T12:02:39Z</time>
      </trkpt>
      <trkpt lat="45.02446" lon="5.57158">
        <ele>1860</ele>
        <time>2019-07-14T12:02:40Z</time>
      </trkpt>
      <trkpt lat="45.02445" lon="5.57158">
        <ele>1860</ele>
        <time>2019-07-14T12:02:41Z</time>
      </trkpt>
      <trkpt lat="45.02443" lon="5.57156">
        <ele>1860</ele>
        <time>2019-07-14T12:02:42Z</time>
      </trkpt>
      <trkpt lat="45.02441" lon="5.57154">
        <ele>1860</ele>
        <time>2019-07-14T12:02:43Z</time>
      </trkpt>
      <trkpt lat="45.0244" lon="5.57152">
        <ele>1860</ele>
        <time>2019-07-14T12:02:44Z</time>
      </trkpt>
      <trkpt lat="45.02439" lon="5.5715">
        <ele>1860</ele>
        <time>2019-07-14T12:02:45Z</time>
      </trkpt>
      <trkpt lat="45.02437" lon="5.57149">
        <ele>1861</ele>
        <time>2019-07-14T12:02:46Z</time>
      </trkpt>
      <trkpt lat="45.02436" lon="5.57148">
        <ele>1861</ele>
        <time>2019-07-14T12:02:47Z</time>
      </trkpt>
      <trkpt lat="45.02434" lon="5.57148">
        <ele>1861</ele>
        <time>2019-07-14T12:02:48Z</time>
      </trkpt>
      <trkpt lat="45.02432" lon="5.57147">
        <ele>1861</ele>
        <time>2019-07-14T12:02:49Z</time>
      </trkpt>
      <trkpt lat="45.0243" lon="5.57147">
        <ele>1861</ele>
        <time>2019-07-14T12:02:50Z</time>
      </trkpt>
      <trkpt lat="45.02428" lon="5.57146">
        <ele>1861</ele>
        <time>2019-07-14T12:02:51Z</time>
      </trkpt>
      <trkpt lat="45.02427" lon="5.57146">
        <ele>1861</ele>
        <time>2019-07-14T12:02:52Z</time>
      </trkpt>
      <trkpt lat="45.02425" lon="5.57146">
        <ele>1861</ele>
        <time>2019-07-14T12:02:53Z</time>
      </trkpt>
      <trkpt lat="45.02424" lon="5.57145">
        <ele>1861</ele>
        <time>2019-07-14T12:02:54Z</time>
      </trkpt>
      <trkpt lat="45.02422" lon="5.57145">
        <ele>1862</ele>
        <time>2019-07-14T12:02:55Z</time>
      </trkpt>
      <trkpt lat="45.0242" lon="5.57144">
        <ele>1862</ele>
        <time>2019-07-14T12:02:56Z</time>
      </trkpt>
      <trkpt lat="45.02419" lon="5.57144">
        <ele>1862</ele>
        <time>2019-07-14T12:02:57Z</time>
      </trkpt>
      <trkpt lat="45.02417" lon="5.57144">
        <ele>1871</ele>
        <time>2019-07-14T12:02:58Z</time>
      </trkpt>
      <trkpt lat="45.02413" lon="5.57144">
        <ele>1871</ele>
        <time>2019-07-14T12:03:00Z</time>
      </trkpt>
      <trkpt lat="45.02412" lon="5.57143">
        <ele>1871</ele>
        <time>2019-07-14T12:03:01Z</time>
      </trkpt>
      <trkpt lat="45.0241" lon="5.57143">
        <ele>1871</ele>
        <time>2019-07-14T12:03:02Z</time>
      </trkpt>
      <trkpt lat="45.02408" lon="5.57142">
        <ele>1871</ele>
        <time>2019-07-14T12:03:03Z</time>
      </trkpt>
      <trkpt lat="45.02407" lon="5.57142">
        <ele>1872</ele>
        <time>2019-07-14T12:03:04Z</time>
      </trkpt>
      <trkpt lat="45.02405" lon="5.57142">
        <ele>1872</ele>
        <time>2019-07-14T12:03:05Z</time>
      </trkpt>
      <trkpt lat="45.02403" lon="5.57141">
        <ele>1872</ele>
        <time>2019-07-14T12:03:06Z</time>
      </trkpt>
      <trkpt lat="45.02401" lon="5.5714">
        <ele>1872</ele>
        <time>2019-07-14T12:03:07Z</time>
      </trkpt>
      <trkpt lat="45.024" lon="5.5714">
        <ele>1872</ele>
        <time>2019-07-14T12:03:08Z</time>
      </trkpt>
      <trkpt lat="45.02398" lon="5.57139">
        <ele>1873</ele>
        <time>2019-07-14T12:03:09Z</time>
      </trkpt>
      <trkpt lat="45.02397" lon="5.57138">
        <ele>1873</ele>
        <time>2019-07-14T12:03:10Z</time>
      </trkpt>
      <trkpt lat="45.02395" lon="5.57136">
        <ele>1873</ele>
        <time>2019-07-14T12:03:11Z</time>
      </trkpt>
      <trkpt lat="45.02394" lon="5.57135">
        <ele>1873</ele>
        <time>2019-07-14T12:03:12Z</time>
      </trkpt>
      <trkpt lat="45.02393" lon="5.57134">
        <ele>1874</ele>
        <time>2019-07-14T12:03:13Z</time>
      </trkpt>
      <trkpt lat="45.02391" lon="5.57133">
        <ele>1874</ele>
        <time>2019-07-14T12:03:14Z</time>
      </trkpt>
      <trkpt lat="45.0239" lon="5.57132">
        <ele>1874</ele>
        <time>2019-07-14T12:03:15Z</time>
      </trkpt>
      <trkpt lat="45.02389" lon="5.5713">
        <ele>1874</ele>
        <time>2019-07-14T12:03:16Z</time>
      </trkpt>
      <trkpt lat="45.02388" lon="5.57129">
        <ele>1875</ele>
        <time>2019-07-14T12:03:17Z</time>
      </trkpt>
      <trkpt lat="45.02387" lon="5.57127">
        <ele>1875</ele>
        <time>2019-07-14T12:03:18Z</time>
      </trkpt>
      <trkpt lat="45.02386" lon="5.57126">
        <ele>1875</ele>
        <time>2019-07-14T12:03:19Z</time>
      </trkpt>
      <trkpt lat="45.02385" lon="5.57124">
        <ele>1875</ele>
        <time>2019-07-14T12:03:20Z</time>
      </trkpt>
      <trkpt lat="45.02384" lon="5.57123">
        <ele>1875</ele>
        <time>2019-07-14T12:03:21Z</time>
      </trkpt>
      <trkpt lat="45.02383" lon="5.57122">
        <ele>1875</ele>
        <time>2019-07-14T12:03:22Z</time>
      </trkpt>
      <trkpt lat="45.02383" lon="5.5712">
        <ele>1875</ele>
        <time>2019-07-14T12:03:23Z</time>
      </trkpt>
      <trkpt lat="45.02382" lon="5.57119">
        <ele>1876</ele>
        <time>2019-07-14T12:03:24Z</time>
      </trkpt>
      <trkpt lat="45.02381" lon="5.57117">
        <ele>1876</ele>
        <time>2019-07-14T12:03:25Z</time>
      </trkpt>
      <trkpt lat="45.0238" lon="5.57115">
        <ele>1876</ele>
        <time>2019-07-14T12:03:26Z</time>
      </trkpt>
      <trkpt lat="45.02379" lon="5.57114">
        <ele>1876</ele>
        <time>2019-07-14T12:03:27Z</time>
      </trkpt>
      <trkpt lat="45.02378" lon="5.57113">
        <ele>1876</ele>
        <time>2019-07-14T12:03:28Z</time>
      </trkpt>
      <trkpt lat="45.02377" lon="5.57111">
        <ele>1876</ele>
        <time>2019-07-14T12:03:29Z</time>
      </trkpt>
      <trkpt lat="45.02376" lon="5.5711">
        <ele>1877</ele>
        <time>2019-07-14T12:03:30Z</time>
      </trkpt>
      <trkpt lat="45.02375" lon="5.57108">
        <ele>1877</ele>
        <time>2019-07-14T12:03:31Z</time>
      </trkpt>
      <trkpt lat="45.02375" lon="5.57106">
        <ele>1877</ele>
        <time>2019-07-14T12:03:32Z</time>
      </trkpt>
      <trkpt lat="45.02374" lon="5.57105">
        <ele>1877</ele>
        <time>2019-07-14T12:03:33Z</time>
      </trkpt>
      <trkpt lat="45.02373" lon="5.57103">
        <ele>1877</ele>
        <time>2019-07-14T12:03:34Z</time>
      </trkpt>
      <trkpt lat="45.02372" lon="5.57101">
        <ele>1878</ele>
        <time>2019-07-14T12:03:35Z</time>
      </trkpt>
      <trkpt lat="45.02372" lon="5.57099">
        <ele>1878</ele>
        <time>2019-07-14T12:03:36Z</time>
      </trkpt>
      <trkpt lat="45.02371" lon="5.57097">
        <ele>1878</ele>
        <time>2019-07-14T12:03:37Z</time>
      </trkpt>
      <trkpt lat="45.02371" lon="5.57096">
        <ele>1878</ele>
        <time>2019-07-14T12:03:38Z</time>
      </trkpt>
      <trkpt lat="45.0237" lon="5.57094">
        <ele>1878</ele>
        <time>2019-07-14T12:03:39Z</time>
      </trkpt>
      <trkpt lat="45.02369" lon="5.57093">
        <ele>1879</ele>
        <time>2019-07-14T12:03:40Z</time>
      </trkpt>
      <trkpt lat="45.02368" lon="5.57091">
        <ele>1879</ele>
        <time>2019-07-14T12:03:41Z</time>
      </trkpt>
      <trkpt lat="45.02367" lon="5.5709">
        <ele>1879</ele>
        <time>2019-07-14T12:03:42Z</time>
      </trkpt>
      <trkpt lat="45.02367" lon="5.57088">
        <ele>1879</ele>
        <time>2019-07-14T12:03:43Z</time>
      </trkpt>
      <trkpt lat="45.02366" lon="5.57087">
        <ele>1879</ele>
        <time>2019-07-14T12:03:44Z</time>
      </trkpt>
      <trkpt lat="45.02365" lon="5.57085">
        <ele>1879</ele>
        <time>2019-07-14T12:03:45Z</time>
      </trkpt>
      <trkpt lat="45.02364" lon="5.57083">
        <ele>1880</ele>
        <time>2019-07-14T12:03:46Z</time>
      </trkpt>
      <trkpt lat="45.02364" lon="5.57082">
        <ele>1880</ele>
        <time>2019-07-14T12:03:47Z</time>
      </trkpt>
      <trkpt lat="45.02362" lon="5.5708">
        <ele>1880</ele>
        <time>2019-07-14T12:03:48Z</time>
      </trkpt>
      <trkpt lat="45.02361" lon="5.57079">
        <ele>1880</ele>
        <time>2019-07-14T12:03:49Z</time>
      </trkpt>
      <trkpt lat="45.02361" lon="5.57078">
        <ele>1880</ele>
        <time>2019-07-14T12:03:50Z</time>
      </trkpt>
      <trkpt lat="45.0236" lon="5.57076">
        <ele>1881</ele>
        <time>2019-07-14T12:03:51Z</time>
      </trkpt>
      <trkpt lat="45.02359" lon="5.57074">
        <ele>1881</ele>
        <time>2019-07-14T12:03:52Z</time>
      </trkpt>
      <trkpt lat="45.02358" lon="5.57073">
        <ele>1881</ele>
        <time>2019-07-14T12:03:53Z</time>
      </trkpt>
      <trkpt lat="45.02358" lon="5.57071">
        <ele>1881</ele>
        <time>2019-07-14T12:03:54Z</time>
      </trkpt>
      <trkpt lat="45.02356" lon="5.5707">
        <ele>1881</ele>
        <time>2019-07-14T12:03:55Z</time>
      </trkpt>
      <trkpt lat="45.02355" lon="5.57069">
        <ele>1881</ele>
        <time>2019-07-14T12:03:56Z</time>
      </trkpt>
      <trkpt lat="45.02354" lon="5.57067">
        <ele>1881</ele>
        <time>2019-07-14T12:03:57Z</time>
      </trkpt>
      <trkpt lat="45.02353" lon="5.57066">
        <ele>1881</ele>
        <time>2019-07-14T12:03:58Z</time>
      </trkpt>
      <trkpt lat="45.02352" lon="5.57064">
        <ele>1881</ele>
        <time>2019-07-14T12:03:59Z</time>
      </trkpt>
      <trkpt lat="45.02351" lon="5.57063">
        <ele>1881</ele>
        <time>2019-07-14T12:04:00Z</time>
      </trkpt>
      <trkpt lat="45.0235" lon="5.57061">
        <ele>1881</ele>
        <time>2019-07-14T12:04:01Z</time>
      </trkpt>
      <trkpt lat="45.0235" lon="5.57059">
        <ele>1881</ele>
        <time>2019-07-14T12:04:02Z</time>
      </trkpt>
      <trkpt lat="45.02348" lon="5.57058">
        <ele>1881</ele>
        <time>2019-07-14T12:04:03Z</time>
      </trkpt>
      <trkpt lat="45.02347" lon="5.57056">
        <ele>1880</ele>
        <time>2019-07-14T12:04:04Z</time>
      </trkpt>
      <trkpt lat="45.02346" lon="5.57055">
        <ele>1880</ele>
        <time>2019-07-14T12:04:05Z</time>
      </trkpt>
      <trkpt lat="45.02345" lon="5.57053">
        <ele>1880</ele>
        <time>2019-07-14T12:04:06Z</time>
      </trkpt>
      <trkpt lat="45.02343" lon="5.57052">
        <ele>1880</ele>
        <time>2019-07-14T12:04:07Z</time>
      </trkpt>
      <trkpt lat="45.02342" lon="5.57051">
        <ele>1880</ele>
        <time>2019-07-14T12:04:08Z</time>
      </trkpt>
      <trkpt lat="45.02341" lon="5.5705">
        <ele>1880</ele>
        <time>2019-07-14T12:04:09Z</time>
      </trkpt>
      <trkpt lat="45.0234" lon="5.57049">
        <ele>1880</ele>
        <time>2019-07-14T12:04:10Z</time>
      </trkpt>
      <trkpt lat="45.02338" lon="5.57047">
        <ele>1880</ele>
        <time>2019-07-14T12:04:11Z</time>
      </trkpt>
      <trkpt lat="45.02338" lon="5.57045">
        <ele>1880</ele>
        <time>2019-07-14T12:04:12Z</time>
      </trkpt>
      <trkpt lat="45.02337" lon="5.57044">
        <ele>1880</ele>
        <time>2019-07-14T12:04:13Z</time>
      </trkpt>
      <trkpt lat="45.02336" lon="5.57042">
        <ele>1880</ele>
        <time>2019-07-14T12:04:14Z</time>
      </trkpt>
      <trkpt lat="45.02335" lon="5.5704">
        <ele>1880</ele>
        <time>2019-07-14T12:04:15Z</time>
      </trkpt>
      <trkpt lat="45.02334" lon="5.57039">
        <ele>1880</ele>
        <time>2019-07-14T12:04:16Z</time>
      </trkpt>
      <trkpt lat="45.02333" lon="5.57038">
        <ele>1889</ele>
        <time>2019-07-14T12:04:17Z</time>
      </trkpt>
      <trkpt lat="45.02331" lon="5.57038">
        <ele>1889</ele>
        <time>2019-07-14T12:04:18Z</time>
      </trkpt>
      <trkpt lat="45.02329" lon="5.57037">
        <ele>1889</ele>
        <time>2019-07-14T12:04:20Z</time>
      </trkpt>
      <trkpt lat="45.02327" lon="5.57037">
        <ele>1889</ele>
        <time>2019-07-14T12:04:21Z</time>
      </trkpt>
      <trkpt lat="45.02325" lon="5.57036">
        <ele>1889</ele>
        <time>2019-07-14T12:04:22Z</time>
      </trkpt>
      <trkpt lat="45.02324" lon="5.57036">
        <ele>1889</ele>
        <time>2019-07-14T12:04:23Z</time>
      </trkpt>
      <trkpt lat="45.02322" lon="5.57035">
        <ele>1889</ele>
        <time>2019-07-14T12:04:24Z</time>
      </trkpt>
      <trkpt lat="45.02321" lon="5.57034">
        <ele>1889</ele>
        <time>2019-07-14T12:04:25Z</time>
      </trkpt>
      <trkpt lat="45.0232" lon="5.57033">
        <ele>1889</ele>
        <time>2019-07-14T12:04:26Z</time>
      </trkpt>
      <trkpt lat="45.02318" lon="5.57032">
        <ele>1889</ele>
        <time>2019-07-14T12:04:27Z</time>
      </trkpt>
      <trkpt lat="45.02317" lon="5.57032">
        <ele>1889</ele>
        <time>2019-07-14T12:04:28Z</time>
      </trkpt>
      <trkpt lat="45.02315" lon="5.57031">
        <ele>1889</ele>
        <time>2019-07-14T12:04:29Z</time>
      </trkpt>
      <trkpt lat="45.02313" lon="5.57031">
        <ele>1890</ele>
        <time>2019-07-14T12:04:30Z</time>
      </trkpt>
      <trkpt lat="45.02312" lon="5.5703">
        <ele>1890</ele>
        <time>2019-07-14T12:04:31Z</time>
      </trkpt>
      <trkpt lat="45.02309" lon="5.57029">
        <ele>1890</ele>
        <time>2019-07-14T12:04:32Z</time>
      </trkpt>
      <trkpt lat="45.02308" lon="5.57027">
        <ele>1890</ele>
        <time>2019-07-14T12:04:33Z</time>
      </trkpt>
      <trkpt lat="45.02305" lon="5.57027">
        <ele>1890</ele>
        <time>2019-07-14T12:04:34Z</time>
      </trkpt>
      <trkpt lat="45.02303" lon="5.57026">
        <ele>1890</ele>
        <time>2019-07-14T12:04:35Z</time>
      </trkpt>
      <trkpt lat="45.02301" lon="5.57026">
        <ele>1890</ele>
        <time>2019-07-14T12:04:36Z</time>
      </trkpt>
      <trkpt lat="45.02299" lon="5.57025">
        <ele>1890</ele>
        <time>2019-07-14T12:04:37Z</time>
      </trkpt>
      <trkpt lat="45.02297" lon="5.57025">
        <ele>1890</ele>
        <time>2019-07-14T12:04:38Z</time>
      </trkpt>
      <trkpt lat="45.02295" lon="5.57026">
        <ele>1891</ele>
        <time>2019-07-14T12:04:39Z</time>
      </trkpt>
      <trkpt lat="45.02293" lon="5.57026">
        <ele>1891</ele>
        <time>2019-07-14T12:04:40Z</time>
      </trkpt>
      <trkpt lat="45.02291" lon="5.57026">
        <ele>1891</ele>
        <time>2019-07-14T12:04:41Z</time>
      </trkpt>
      <trkpt lat="45.0229" lon="5.57026">
        <ele>1891</ele>
        <time>2019-07-14T12:04:42Z</time>
      </trkpt>
      <trkpt lat="45.02285" lon="5.57026">
        <ele>1891</ele>
        <time>2019-07-14T12:04:44Z</time>
      </trkpt>
      <trkpt lat="45.02284" lon="5.57027">
        <ele>1891</ele>
        <time>2019-07-14T12:04:45Z</time>
      </trkpt>
      <trkpt lat="45.02281" lon="5.57027">
        <ele>1892</ele>
        <time>2019-07-14T12:04:46Z</time>
      </trkpt>
      <trkpt lat="45.02271" lon="5.57027">
        <ele>1892</ele>
        <time>2019-07-14T12:04:51Z</time>
      </trkpt>
      <trkpt lat="45.02269" lon="5.57027">
        <ele>1892</ele>
        <time>2019-07-14T12:04:52Z</time>
      </trkpt>
      <trkpt lat="45.02267" lon="5.57028">
        <ele>1892</ele>
        <time>2019-07-14T12:04:53Z</time>
      </trkpt>
      <trkpt lat="45.02265" lon="5.57028">
        <ele>1892</ele>
        <time>2019-07-14T12:04:54Z</time>
      </trkpt>
      <trkpt lat="45.02263" lon="5.57029">
        <ele>1892</ele>
        <time>2019-07-14T12:04:55Z</time>
      </trkpt>
      <trkpt lat="45.02261" lon="5.57029">
        <ele>1892</ele>
        <time>2019-07-14T12:04:56Z</time>
      </trkpt>
      <trkpt lat="45.02259" lon="5.57029">
        <ele>1893</ele>
        <time>2019-07-14T12:04:57Z</time>
      </trkpt>
      <trkpt lat="45.02257" lon="5.5703">
        <ele>1893</ele>
        <time>2019-07-14T12:04:58Z</time>
      </trkpt>
      <trkpt lat="45.02255" lon="5.57031">
        <ele>1893</ele>
        <time>2019-07-14T12:04:59Z</time>
      </trkpt>
      <trkpt lat="45.02253" lon="5.57031">
        <ele>1893</ele>
        <time>2019-07-14T12:05:00Z</time>
      </trkpt>
      <trkpt lat="45.02251" lon="5.57031">
        <ele>1893</ele>
        <time>2019-07-14T12:05:01Z</time>
      </trkpt>
      <trkpt lat="45.0225" lon="5.57032">
        <ele>1898</ele>
        <time>2019-07-14T12:05:02Z</time>
      </trkpt>
      <trkpt lat="45.02248" lon="5.57032">
        <ele>1898</ele>
        <time>2019-07-14T12:05:03Z</time>
      </trkpt>
      <trkpt lat="45.02246" lon="5.57032">
        <ele>1899</ele>
        <time>2019-07-14T12:05:04Z</time>
      </trkpt>
      <trkpt lat="45.02244" lon="5.57033">
        <ele>1899</ele>
        <time>2019-07-14T12:05:05Z</time>
      </trkpt>
      <trkpt lat="45.02242" lon="5.57033">
        <ele>1899</ele>
        <time>2019-07-14T12:05:06Z</time>
      </trkpt>
      <trkpt lat="45.02238" lon="5.57033">
        <ele>1899</ele>
        <time>2019-07-14T12:05:08Z</time>
      </trkpt>
      <trkpt lat="45.02236" lon="5.57034">
        <ele>1899</ele>
        <time>2019-07-14T12:05:09Z</time>
      </trkpt>
      <trkpt lat="45.02234" lon="5.57034">
        <ele>1899</ele>
        <time>2019-07-14T12:05:10Z</time>
      </trkpt>
      <trkpt lat="45.02232" lon="5.57035">
        <ele>1900</ele>
        <time>2019-07-14T12:05:11Z</time>
      </trkpt>
      <trkpt lat="45.02231" lon="5.57035">
        <ele>1900</ele>
        <time>2019-07-14T12:05:12Z</time>
      </trkpt>
      <trkpt lat="45.02228" lon="5.57036">
        <ele>1900</ele>
        <time>2019-07-14T12:05:13Z</time>
      </trkpt>
      <trkpt lat="45.02226" lon="5.57036">
        <ele>1900</ele>
        <time>2019-07-14T12:05:14Z</time>
      </trkpt>
      <trkpt lat="45.02224" lon="5.57037">
        <ele>1900</ele>
        <time>2019-07-14T12:05:15Z</time>
      </trkpt>
      <trkpt lat="45.02222" lon="5.57038">
        <ele>1900</ele>
        <time>2019-07-14T12:05:16Z</time>
      </trkpt>
      <trkpt lat="45.02221" lon="5.57039">
        <ele>1900</ele>
        <time>2019-07-14T12:05:17Z</time>
      </trkpt>
      <trkpt lat="45.02219" lon="5.5704">
        <ele>1901</ele>
        <time>2019-07-14T12:05:18Z</time>
      </trkpt>
      <trkpt lat="45.02217" lon="5.57041">
        <ele>1901</ele>
        <time>2019-07-14T12:05:19Z</time>
      </trkpt>
      <trkpt lat="45.02215" lon="5.57042">
        <ele>1901</ele>
        <time>2019-07-14T12:05:20Z</time>
      </trkpt>
      <trkpt lat="45.02213" lon="5.57043">
        <ele>1901</ele>
        <time>2019-07-14T12:05:21Z</time>
      </trkpt>
      <trkpt lat="45.02211" lon="5.57044">
        <ele>1901</ele>
        <time>2019-07-14T12:05:22Z</time>
      </trkpt>
      <trkpt lat="45.02209" lon="5.57044">
        <ele>1902</ele>
        <time>2019-07-14T12:05:23Z</time>
      </trkpt>
      <trkpt lat="45.02207" lon="5.57045">
        <ele>1902</ele>
        <time>2019-07-14T12:05:24Z</time>
      </trkpt>
      <trkpt lat="45.02205" lon="5.57046">
        <ele>1902</ele>
        <time>2019-07-14T12:05:25Z</time>
      </trkpt>
      <trkpt lat="45.02202" lon="5.57047">
        <ele>1902</ele>
        <time>2019-07-14T12:05:26Z</time>
      </trkpt>
      <trkpt lat="45.022" lon="5.57048">
        <ele>1902</ele>
        <time>2019-07-14T12:05:27Z</time>
      </trkpt>
      <trkpt lat="45.02198" lon="5.57049">
        <ele>1903</ele>
        <time>2019-07-14T12:05:28Z</time>
      </trkpt>
      <trkpt lat="45.02196" lon="5.5705">
        <ele>1903</ele>
        <time>2019-07-14T12:05:29Z</time>
      </trkpt>
      <trkpt lat="45.02194" lon="5.57051">
        <ele>1903</ele>
        <time>2019-07-14T12:05:30Z</time>
      </trkpt>
      <trkpt lat="45.02191" lon="5.57051">
        <ele>1903</ele>
        <time>2019-07-14T12:05:31Z</time>
      </trkpt>
      <trkpt lat="45.02189" lon="5.57052">
        <ele>1903</ele>
        <time>2019-07-14T12:05:32Z</time>
      </trkpt>
      <trkpt lat="45.02187" lon="5.57052">
        <ele>1903</ele>
        <time>2019-07-14T12:05:33Z</time>
      </trkpt>
      <trkpt lat="45.02184" lon="5.57052">
        <ele>1904</ele>
        <time>2019-07-14T12:05:34Z</time>
      </trkpt>
      <trkpt lat="45.02182" lon="5.57053">
        <ele>1904</ele>
        <time>2019-07-14T12:05:35Z</time>
      </trkpt>
      <trkpt lat="45.0218" lon="5.57053">
        <ele>1904</ele>
        <time>2019-07-14T12:05:36Z</time>
      </trkpt>
      <trkpt lat="45.02176" lon="5.57052">
        <ele>1904</ele>
        <time>2019-07-14T12:05:38Z</time>
      </trkpt>
      <trkpt lat="45.02173" lon="5.57052">
        <ele>1904</ele>
        <time>2019-07-14T12:05:39Z</time>
      </trkpt>
      <trkpt lat="45.02171" lon="5.57052">
        <ele>1904</ele>
        <time>2019-07-14T12:05:40Z</time>
      </trkpt>
      <trkpt lat="45.02169" lon="5.57051">
        <ele>1904</ele>
        <time>2019-07-14T12:05:41Z</time>
      </trkpt>
      <trkpt lat="45.02166" lon="5.57051">
        <ele>1911</ele>
        <time>2019-07-14T12:05:42Z</time>
      </trkpt>
      <trkpt lat="45.02164" lon="5.57051">
        <ele>1911</ele>
        <time>2019-07-14T12:05:43Z</time>
      </trkpt>
      <trkpt lat="45.02162" lon="5.57051">
        <ele>1911</ele>
        <time>2019-07-14T12:05:44Z</time>
      </trkpt>
      <trkpt lat="45.02159" lon="5.5705">
        <ele>1911</ele>
        <time>2019-07-14T12:05:45Z</time>
      </trkpt>
      <trkpt lat="45.02157" lon="5.5705">
        <ele>1911</ele>
        <time>2019-07-14T12:05:46Z</time>
      </trkpt>
      <trkpt lat="45.02155" lon="5.5705">
        <ele>1911</ele>
        <time>2019-07-14T12:05:47Z</time>
      </trkpt>
      <trkpt lat="45.02152" lon="5.57049">
        <ele>1911</ele>
        <time>2019-07-14T12:05:48Z</time>
      </trkpt>
      <trkpt lat="45.0215" lon="5.57048">
        <ele>1911</ele>
        <time>2019-07-14T12:05:49Z</time>
      </trkpt>
      <trkpt lat="45.02147" lon="5.57047">
        <ele>1911</ele>
        <time>2019-07-14T12:05:50Z</time>
      </trkpt>
      <trkpt lat="45.02145" lon="5.57046">
        <ele>1911</ele>
        <time>2019-07-14T12:05:51Z</time>
      </trkpt>
      <trkpt lat="45.02142" lon="5.57045">
        <ele>1911</ele>
        <time>2019-07-14T12:05:52Z</time>
      </trkpt>
      <trkpt lat="45.0214" lon="5.57045">
        <ele>1911</ele>
        <time>2019-07-14T12:05:53Z</time>
      </trkpt>
      <trkpt lat="45.02137" lon="5.57045">
        <ele>1912</ele>
        <time>2019-07-14T12:05:54Z</time>
      </trkpt>
      <trkpt lat="45.02134" lon="5.57044">
        <ele>1912</ele>
        <time>2019-07-14T12:05:55Z</time>
      </trkpt>
      <trkpt lat="45.02132" lon="5.57044">
        <ele>1912</ele>
        <time>2019-07-14T12:05:56Z</time>
      </trkpt>
      <trkpt lat="45.02129" lon="5.57044">
        <ele>1912</ele>
        <time>2019-07-14T12:05:57Z</time>
      </trkpt>
      <trkpt lat="45.02127" lon="5.57043">
        <ele>1913</ele>
        <time>2019-07-14T12:05:58Z</time>
      </trkpt>
      <trkpt lat="45.02124" lon="5.57043">
        <ele>1913</ele>
        <time>2019-07-14T12:05:59Z</time>
      </trkpt>
      <trkpt lat="45.02122" lon="5.57042">
        <ele>1913</ele>
        <time>2019-07-14T12:06:00Z</time>
      </trkpt>
      <trkpt lat="45.02119" lon="5.57042">
        <ele>1913</ele>
        <time>2019-07-14T12:06:01Z</time>
      </trkpt>
      <trkpt lat="45.02116" lon="5.57041">
        <ele>1913</ele>
        <time>2019-07-14T12:06:02Z</time>
      </trkpt>
      <trkpt lat="45.02114" lon="5.5704">
        <ele>1913</ele>
        <time>2019-07-14T12:06:03Z</time>
      </trkpt>
      <trkpt lat="45.02111" lon="5.57039">
        <ele>1914</ele>
        <time>2019-07-14T12:06:04Z</time>
      </trkpt>
      <trkpt lat="45.02108" lon="5.57039">
        <ele>1914</ele>
        <time>2019-07-14T12:06:05Z</time>
      </trkpt>
      <trkpt lat="45.02103" lon="5.57038">
        <ele>1914</ele>
        <time>2019-07-14T12:06:07Z</time>
      </trkpt>
      <trkpt lat="45.021" lon="5.57037">
        <ele>1914</ele>
        <time>2019-07-14T12:06:08Z</time>
      </trkpt>
      <trkpt lat="45.02098" lon="5.57037">
        <ele>1914</ele>
        <time>2019-07-14T12:06:09Z</time>
      </trkpt>
      <trkpt lat="45.02095" lon="5.57036">
        <ele>1914</ele>
        <time>2019-07-14T12:06:10Z</time>
      </trkpt>
      <trkpt lat="45.02093" lon="5.57035">
        <ele>1914</ele>
        <time>2019-07-14T12:06:11Z</time>
      </trkpt>
      <trkpt lat="45.02091" lon="5.57034">
        <ele>1914</ele>
        <time>2019-07-14T12:06:12Z</time>
      </trkpt>
      <trkpt lat="45.02089" lon="5.57034">
        <ele>1914</ele>
        <time>2019-07-14T12:06:13Z</time>
      </trkpt>
      <trkpt lat="45.02087" lon="5.57033">
        <ele>1914</ele>
        <time>2019-07-14T12:06:14Z</time>
      </trkpt>
      <trkpt lat="45.02085" lon="5.57033">
        <ele>1914</ele>
        <time>2019-07-14T12:06:15Z</time>
      </trkpt>
      <trkpt lat="45.02082" lon="5.57032">
        <ele>1926</ele>
        <time>2019-07-14T12:06:16Z</time>
      </trkpt>
      <trkpt lat="45.02081" lon="5.57033">
        <ele>1926</ele>
        <time>2019-07-14T12:06:17Z</time>
      </trkpt>
      <trkpt lat="45.02079" lon="5.57033">
        <ele>1926</ele>
        <time>2019-07-14T12:06:18Z</time>
      </trkpt>
      <trkpt lat="45.02076" lon="5.57033">
        <ele>1926</ele>
        <time>2019-07-14T12:06:19Z</time>
      </trkpt>
      <trkpt lat="45.02074" lon="5.57033">
        <ele>1926</ele>
        <time>2019-07-14T12:06:20Z</time>
      </trkpt>
      <trkpt lat="45.0207" lon="5.57033">
        <ele>1927</ele>
        <time>2019-07-14T12:06:22Z</time>
      </trkpt>
      <trkpt lat="45.02068" lon="5.57033">
        <ele>1927</ele>
        <time>2019-07-14T12:06:23Z</time>
      </trkpt>
      <trkpt lat="45.02066" lon="5.57032">
        <ele>1927</ele>
        <time>2019-07-14T12:06:24Z</time>
      </trkpt>
      <trkpt lat="45.02064" lon="5.57032">
        <ele>1927</ele>
        <time>2019-07-14T12:06:25Z</time>
      </trkpt>
      <trkpt lat="45.02062" lon="5.57031">
        <ele>1927</ele>
        <time>2019-07-14T12:06:26Z</time>
      </trkpt>
      <trkpt lat="45.0206" lon="5.57032">
        <ele>1928</ele>
        <time>2019-07-14T12:06:27Z</time>
      </trkpt>
      <trkpt lat="45.02058" lon="5.57032">
        <ele>1928</ele>
        <time>2019-07-14T12:06:28Z</time>
      </trkpt>
      <trkpt lat="45.02053" lon="5.57032">
        <ele>1929</ele>
        <time>2019-07-14T12:06:30Z</time>
      </trkpt>
      <trkpt lat="45.02051" lon="5.57033">
        <ele>1929</ele>
        <time>2019-07-14T12:06:31Z</time>
      </trkpt>
      <trkpt lat="45.02049" lon="5.57034">
        <ele>1929</ele>
        <time>2019-07-14T12:06:32Z</time>
      </trkpt>
      <trkpt lat="45.02047" lon="5.57034">
        <ele>1930</ele>
        <time>2019-07-14T12:06:33Z</time>
      </trkpt>
      <trkpt lat="45.02045" lon="5.57035">
        <ele>1930</ele>
        <time>2019-07-14T12:06:34Z</time>
      </trkpt>
      <trkpt lat="45.02043" lon="5.57035">
        <ele>1930</ele>
        <time>2019-07-14T12:06:35Z</time>
      </trkpt>
      <trkpt lat="45.02041" lon="5.57035">
        <ele>1931</ele>
        <time>2019-07-14T12:06:36Z</time>
      </trkpt>
      <trkpt lat="45.02039" lon="5.57035">
        <ele>1931</ele>
        <time>2019-07-14T12:06:37Z</time>
      </trkpt>
      <trkpt lat="45.02037" lon="5.57036">
        <ele>1931</ele>
        <time>2019-07-14T12:06:38Z</time>
      </trkpt>
      <trkpt lat="45.02035" lon="5.57036">
        <ele>1931</ele>
        <time>2019-07-14T12:06:39Z</time>
      </trkpt>
      <trkpt lat="45.02033" lon="5.57036">
        <ele>1932</ele>
        <time>2019-07-14T12:06:40Z</time>
      </trkpt>
      <trkpt lat="45.02031" lon="5.57035">
        <ele>1932</ele>
        <time>2019-07-14T12:06:41Z</time>
      </trkpt>
      <trkpt lat="45.02029" lon="5.57035">
        <ele>1932</ele>
        <time>2019-07-14T12:06:42Z</time>
      </trkpt>
      <trkpt lat="45.02027" lon="5.57035">
        <ele>1932</ele>
        <time>2019-07-14T12:06:43Z</time>
      </trkpt>
      <trkpt lat="45.02025" lon="5.57035">
        <ele>1932</ele>
        <time>2019-07-14T12:06:44Z</time>
      </trkpt>
      <trkpt lat="45.02023" lon="5.57034">
        <ele>1932</ele>
        <time>2019-07-14T12:06:45Z</time>
      </trkpt>
      <trkpt lat="45.02021" lon="5.57033">
        <ele>1932</ele>
        <time>2019-07-14T12:06:46Z</time>
      </trkpt>
      <trkpt lat="45.02019" lon="5.57031">
        <ele>1932</ele>
        <time>2019-07-14T12:06:47Z</time>
      </trkpt>
      <trkpt lat="45.02017" lon="5.5703">
        <ele>1932</ele>
        <time>2019-07-14T12:06:48Z</time>
      </trkpt>
      <trkpt lat="45.02016" lon="5.5703">
        <ele>1932</ele>
        <time>2019-07-14T12:06:49Z</time>
      </trkpt>
      <trkpt lat="45.02014" lon="5.5703">
        <ele>1932</ele>
        <time>2019-07-14T12:06:50Z</time>
      </trkpt>
      <trkpt lat="45.02012" lon="5.57029">
        <ele>1933</ele>
        <time>2019-07-14T12:06:51Z</time>
      </trkpt>
      <trkpt lat="45.0201" lon="5.57029">
        <ele>1933</ele>
        <time>2019-07-14T12:06:52Z</time>
      </trkpt>
      <trkpt lat="45.02008" lon="5.57028">
        <ele>1933</ele>
        <time>2019-07-14T12:06:53Z</time>
      </trkpt>
      <trkpt lat="45.02006" lon="5.57027">
        <ele>1932</ele>
        <time>2019-07-14T12:06:54Z</time>
      </trkpt>
      <trkpt lat="45.02004" lon="5.57026">
        <ele>1932</ele>
        <time>2019-07-14T12:06:55Z</time>
      </trkpt>
      <trkpt lat="45.02002" lon="5.57025">
        <ele>1932</ele>
        <time>2019-07-14T12:06:56Z</time>
      </trkpt>
      <trkpt lat="45.02" lon="5.57024">
        <ele>1932</ele>
        <time>2019-07-14T12:06:57Z</time>
      </trkpt>
      <trkpt lat="45.01999" lon="5.57023">
        <ele>1945</ele>
        <time>2019-07-14T12:06:58Z</time>
      </trkpt>
      <trkpt lat="45.01997" lon="5.57022">
        <ele>1944</ele>
        <time>2019-07-14T12:06:59Z</time>
      </trkpt>
      <trkpt lat="45.01995" lon="5.57022">
        <ele>1944</ele>
        <time>2019-07-14T12:07:00Z</time>
      </trkpt>
      <trkpt lat="45.01994" lon="5.57021">
        <ele>1944</ele>
        <time>2019-07-14T12:07:01Z</time>
      </trkpt>
      <trkpt lat="45.01992" lon="5.57021">
        <ele>1944</ele>
        <time>2019-07-14T12:07:02Z</time>
      </trkpt>
      <trkpt lat="45.0199" lon="5.5702">
        <ele>1945</ele>
        <time>2019-07-14T12:07:03Z</time>
      </trkpt>
      <trkpt lat="45.01988" lon="5.57019">
        <ele>1945</ele>
        <time>2019-07-14T12:07:04Z</time>
      </trkpt>
      <trkpt lat="45.01986" lon="5.57018">
        <ele>1945</ele>
        <time>2019-07-14T12:07:05Z</time>
      </trkpt>
      <trkpt lat="45.01984" lon="5.57017">
        <ele>1945</ele>
        <time>2019-07-14T12:07:06Z</time>
      </trkpt>
      <trkpt lat="45.01983" lon="5.57016">
        <ele>1945</ele>
        <time>2019-07-14T12:07:07Z</time>
      </trkpt>
      <trkpt lat="45.01981" lon="5.57015">
        <ele>1945</ele>
        <time>2019-07-14T12:07:08Z</time>
      </trkpt>
      <trkpt lat="45.0198" lon="5.57014">
        <ele>1946</ele>
        <time>2019-07-14T12:07:09Z</time>
      </trkpt>
      <trkpt lat="45.01978" lon="5.57013">
        <ele>1946</ele>
        <time>2019-07-14T12:07:10Z</time>
      </trkpt>
      <trkpt lat="45.01976" lon="5.57013">
        <ele>1946</ele>
        <time>2019-07-14T12:07:11Z</time>
      </trkpt>
      <trkpt lat="45.01975" lon="5.57012">
        <ele>1947</ele>
        <time>2019-07-14T12:07:12Z</time>
      </trkpt>
      <trkpt lat="45.01973" lon="5.57011">
        <ele>1947</ele>
        <time>2019-07-14T12:07:13Z</time>
      </trkpt>
      <trkpt lat="45.01971" lon="5.5701">
        <ele>1948</ele>
        <time>2019-07-14T12:07:14Z</time>
      </trkpt>
      <trkpt lat="45.0197" lon="5.57008">
        <ele>1948</ele>
        <time>2019-07-14T12:07:15Z</time>
      </trkpt>
      <trkpt lat="45.01968" lon="5.57007">
        <ele>1948</ele>
        <time>2019-07-14T12:07:16Z</time>
      </trkpt>
      <trkpt lat="45.01966" lon="5.57006">
        <ele>1949</ele>
        <time>2019-07-14T12:07:17Z</time>
      </trkpt>
      <trkpt lat="45.01965" lon="5.57005">
        <ele>1949</ele>
        <time>2019-07-14T12:07:18Z</time>
      </trkpt>
      <trkpt lat="45.01963" lon="5.57003">
        <ele>1949</ele>
        <time>2019-07-14T12:07:19Z</time>
      </trkpt>
      <trkpt lat="45.01961" lon="5.57002">
        <ele>1950</ele>
        <time>2019-07-14T12:07:20Z</time>
      </trkpt>
      <trkpt lat="45.01959" lon="5.57002">
        <ele>1950</ele>
        <time>2019-07-14T12:07:21Z</time>
      </trkpt>
      <trkpt lat="45.01957" lon="5.57001">
        <ele>1951</ele>
        <time>2019-07-14T12:07:22Z</time>
      </trkpt>
      <trkpt lat="45.01955" lon="5.57001">
        <ele>1951</ele>
        <time>2019-07-14T12:07:23Z</time>
      </trkpt>
      <trkpt lat="45.01954" lon="5.57">
        <ele>1951</ele>
        <time>2019-07-14T12:07:24Z</time>
      </trkpt>
      <trkpt lat="45.01952" lon="5.56999">
        <ele>1936</ele>
        <time>2019-07-14T12:07:25Z</time>
      </trkpt>
      <trkpt lat="45.01951" lon="5.56997">
        <ele>1937</ele>
        <time>2019-07-14T12:07:26Z</time>
      </trkpt>
      <trkpt lat="45.01949" lon="5.56996">
        <ele>1937</ele>
        <time>2019-07-14T12:07:27Z</time>
      </trkpt>
      <trkpt lat="45.01948" lon="5.56994">
        <ele>1937</ele>
        <time>2019-07-14T12:07:28Z</time>
      </trkpt>
      <trkpt lat="45.01947" lon="5.56992">
        <ele>1938</ele>
        <time>2019-07-14T12:07:29Z</time>
      </trkpt>
      <trkpt lat="45.01945" lon="5.56991">
        <ele>1938</ele>
        <time>2019-07-14T12:07:30Z</time>
      </trkpt>
      <trkpt lat="45.01944" lon="5.5699">
        <ele>1938</ele>
        <time>2019-07-14T12:07:31Z</time>
      </trkpt>
      <trkpt lat="45.01942" lon="5.56989">
        <ele>1939</ele>
        <time>2019-07-14T12:07:32Z</time>
      </trkpt>
      <trkpt lat="45.0194" lon="5.56989">
        <ele>1939</ele>
        <time>2019-07-14T12:07:33Z</time>
      </trkpt>
      <trkpt lat="45.01938" lon="5.56989">
        <ele>1940</ele>
        <time>2019-07-14T12:07:34Z</time>
      </trkpt>
      <trkpt lat="45.01937" lon="5.56989">
        <ele>1941</ele>
        <time>2019-07-14T12:07:35Z</time>
      </trkpt>
      <trkpt lat="45.01935" lon="5.5699">
        <ele>1941</ele>
        <time>2019-07-14T12:07:36Z</time>
      </trkpt>
      <trkpt lat="45.01933" lon="5.5699">
        <ele>1942</ele>
        <time>2019-07-14T12:07:37Z</time>
      </trkpt>
      <trkpt lat="45.01931" lon="5.56989">
        <ele>1943</ele>
        <time>2019-07-14T12:07:38Z</time>
      </trkpt>
      <trkpt lat="45.0193" lon="5.56987">
        <ele>1943</ele>
        <time>2019-07-14T12:07:39Z</time>
      </trkpt>
      <trkpt lat="45.01929" lon="5.56986">
        <ele>1942</ele>
        <time>2019-07-14T12:07:40Z</time>
      </trkpt>
      <trkpt lat="45.01927" lon="5.56983">
        <ele>1942</ele>
        <time>2019-07-14T12:07:41Z</time>
      </trkpt>
      <trkpt lat="45.01926" lon="5.56981">
        <ele>1942</ele>
        <time>2019-07-14T12:07:42Z</time>
      </trkpt>
      <trkpt lat="45.01925" lon="5.5698">
        <ele>1941</ele>
        <time>2019-07-14T12:07:43Z</time>
      </trkpt>
      <trkpt lat="45.01923" lon="5.56979">
        <ele>1941</ele>
        <time>2019-07-14T12:07:44Z</time>
      </trkpt>
      <trkpt lat="45.01921" lon="5.56979">
        <ele>1941</ele>
        <time>2019-07-14T12:07:45Z</time>
      </trkpt>
      <trkpt lat="45.01919" lon="5.56979">
        <ele>1942</ele>
        <time>2019-07-14T12:07:46Z</time>
      </trkpt>
      <trkpt lat="45.01917" lon="5.56979">
        <ele>1942</ele>
        <time>2019-07-14T12:07:47Z</time>
      </trkpt>
      <trkpt lat="45.01915" lon="5.56979">
        <ele>1951</ele>
        <time>2019-07-14T12:07:48Z</time>
      </trkpt>
      <trkpt lat="45.01913" lon="5.56979">
        <ele>1951</ele>
        <time>2019-07-14T12:07:49Z</time>
      </trkpt>
      <trkpt lat="45.01912" lon="5.56979">
        <ele>1951</ele>
        <time>2019-07-14T12:07:50Z</time>
      </trkpt>
      <trkpt lat="45.0191" lon="5.5698">
        <ele>1951</ele>
        <time>2019-07-14T12:07:51Z</time>
      </trkpt>
      <trkpt lat="45.01908" lon="5.56979">
        <ele>1951</ele>
        <time>2019-07-14T12:07:52Z</time>
      </trkpt>
      <trkpt lat="45.01907" lon="5.56979">
        <ele>1950</ele>
        <time>2019-07-14T12:07:53Z</time>
      </trkpt>
      <trkpt lat="45.01905" lon="5.56979">
        <ele>1950</ele>
        <time>2019-07-14T12:07:54Z</time>
      </trkpt>
      <trkpt lat="45.01903" lon="5.56979">
        <ele>1950</ele>
        <time>2019-07-14T12:07:55Z</time>
      </trkpt>
      <trkpt lat="45.01901" lon="5.56979">
        <ele>1950</ele>
        <time>2019-07-14T12:07:56Z</time>
      </trkpt>
      <trkpt lat="45.01899" lon="5.56979">
        <ele>1950</ele>
        <time>2019-07-14T12:07:57Z</time>
      </trkpt>
      <trkpt lat="45.01897" lon="5.56979">
        <ele>1950</ele>
        <time>2019-07-14T12:07:58Z</time>
      </trkpt>
      <trkpt lat="45.01895" lon="5.56979">
        <ele>1950</ele>
        <time>2019-07-14T12:07:59Z</time>
      </trkpt>
      <trkpt lat="45.01893" lon="5.56979">
        <ele>1950</ele>
        <time>2019-07-14T12:08:00Z</time>
      </trkpt>
      <trkpt lat="45.01892" lon="5.56979">
        <ele>1950</ele>
        <time>2019-07-14T12:08:01Z</time>
      </trkpt>
      <trkpt lat="45.0189" lon="5.56979">
        <ele>1950</ele>
        <time>2019-07-14T12:08:02Z</time>
      </trkpt>
      <trkpt lat="45.01888" lon="5.5698">
        <ele>1950</ele>
        <time>2019-07-14T12:08:03Z</time>
      </trkpt>
      <trkpt lat="45.01886" lon="5.5698">
        <ele>1950</ele>
        <time>2019-07-14T12:08:04Z</time>
      </trkpt>
      <trkpt lat="45.01885" lon="5.56981">
        <ele>1950</ele>
        <time>2019-07-14T12:08:05Z</time>
      </trkpt>
      <trkpt lat="45.01883" lon="5.56981">
        <ele>1950</ele>
        <time>2019-07-14T12:08:06Z</time>
      </trkpt>
      <trkpt lat="45.01881" lon="5.56981">
        <ele>1950</ele>
        <time>2019-07-14T12:08:07Z</time>
      </trkpt>
      <trkpt lat="45.0188" lon="5.56982">
        <ele>1950</ele>
        <time>2019-07-14T12:08:08Z</time>
      </trkpt>
      <trkpt lat="45.01876" lon="5.56982">
        <ele>1951</ele>
        <time>2019-07-14T12:08:10Z</time>
      </trkpt>
      <trkpt lat="45.01874" lon="5.56982">
        <ele>1951</ele>
        <time>2019-07-14T12:08:11Z</time>
      </trkpt>
      <trkpt lat="45.01873" lon="5.56983">
        <ele>1951</ele>
        <time>2019-07-14T12:08:12Z</time>
      </trkpt>
      <trkpt lat="45.01871" lon="5.56984">
        <ele>1951</ele>
        <time>2019-07-14T12:08:13Z</time>
      </trkpt>
      <trkpt lat="45.01869" lon="5.56985">
        <ele>1951</ele>
        <time>2019-07-14T12:08:14Z</time>
      </trkpt>
      <trkpt lat="45.01867" lon="5.56985">
        <ele>1952</ele>
        <time>2019-07-14T12:08:15Z</time>
      </trkpt>
      <trkpt lat="45.01865" lon="5.56986">
        <ele>1952</ele>
        <time>2019-07-14T12:08:16Z</time>
      </trkpt>
      <trkpt lat="45.01864" lon="5.56987">
        <ele>1952</ele>
        <time>2019-07-14T12:08:17Z</time>
      </trkpt>
      <trkpt lat="45.01862" lon="5.56989">
        <ele>1952</ele>
        <time>2019-07-14T12:08:18Z</time>
      </trkpt>
      <trkpt lat="45.0186" lon="5.5699">
        <ele>1953</ele>
        <time>2019-07-14T12:08:19Z</time>
      </trkpt>
      <trkpt lat="45.01858" lon="5.56991">
        <ele>1953</ele>
        <time>2019-07-14T12:08:20Z</time>
      </trkpt>
      <trkpt lat="45.01857" lon="5.56992">
        <ele>1953</ele>
        <time>2019-07-14T12:08:21Z</time>
      </trkpt>
      <trkpt lat="45.01855" lon="5.56993">
        <ele>1954</ele>
        <time>2019-07-14T12:08:22Z</time>
      </trkpt>
      <trkpt lat="45.01853" lon="5.56994">
        <ele>1954</ele>
        <time>2019-07-14T12:08:23Z</time>
      </trkpt>
      <trkpt lat="45.01852" lon="5.56996">
        <ele>1955</ele>
        <time>2019-07-14T12:08:24Z</time>
      </trkpt>
      <trkpt lat="45.01851" lon="5.56997">
        <ele>1955</ele>
        <time>2019-07-14T12:08:25Z</time>
      </trkpt>
      <trkpt lat="45.01849" lon="5.56999">
        <ele>1956</ele>
        <time>2019-07-14T12:08:26Z</time>
      </trkpt>
      <trkpt lat="45.01847" lon="5.57001">
        <ele>1966</ele>
        <time>2019-07-14T12:08:27Z</time>
      </trkpt>
      <trkpt lat="45.01846" lon="5.57002">
        <ele>1966</ele>
        <time>2019-07-14T12:08:28Z</time>
      </trkpt>
      <trkpt lat="45.01844" lon="5.57004">
        <ele>1966</ele>
        <time>2019-07-14T12:08:29Z</time>
      </trkpt>
      <trkpt lat="45.01842" lon="5.57006">
        <ele>1965</ele>
        <time>2019-07-14T12:08:30Z</time>
      </trkpt>
      <trkpt lat="45.0184" lon="5.57007">
        <ele>1965</ele>
        <time>2019-07-14T12:08:31Z</time>
      </trkpt>
      <trkpt lat="45.01838" lon="5.57009">
        <ele>1966</ele>
        <time>2019-07-14T12:08:32Z</time>
      </trkpt>
      <trkpt lat="45.01837" lon="5.57011">
        <ele>1966</ele>
        <time>2019-07-14T12:08:33Z</time>
      </trkpt>
      <trkpt lat="45.01835" lon="5.57013">
        <ele>1966</ele>
        <time>2019-07-14T12:08:34Z</time>
      </trkpt>
      <trkpt lat="45.01834" lon="5.57015">
        <ele>1967</ele>
        <time>2019-07-14T12:08:35Z</time>
      </trkpt>
      <trkpt lat="45.01832" lon="5.57016">
        <ele>1968</ele>
        <time>2019-07-14T12:08:36Z</time>
      </trkpt>
      <trkpt lat="45.0183" lon="5.57018">
        <ele>1968</ele>
        <time>2019-07-14T12:08:37Z</time>
      </trkpt>
      <trkpt lat="45.01828" lon="5.57019">
        <ele>1969</ele>
        <time>2019-07-14T12:08:38Z</time>
      </trkpt>
      <trkpt lat="45.01827" lon="5.57021">
        <ele>1969</ele>
        <time>2019-07-14T12:08:39Z</time>
      </trkpt>
      <trkpt lat="45.01825" lon="5.57024">
        <ele>1970</ele>
        <time>2019-07-14T12:08:40Z</time>
      </trkpt>
      <trkpt lat="45.01824" lon="5.57026">
        <ele>1970</ele>
        <time>2019-07-14T12:08:41Z</time>
      </trkpt>
      <trkpt lat="45.01823" lon="5.57027">
        <ele>1971</ele>
        <time>2019-07-14T12:08:42Z</time>
      </trkpt>
      <trkpt lat="45.01821" lon="5.57029">
        <ele>1971</ele>
        <time>2019-07-14T12:08:43Z</time>
      </trkpt>
      <trkpt lat="45.0182" lon="5.57031">
        <ele>1971</ele>
        <time>2019-07-14T12:08:44Z</time>
      </trkpt>
      <trkpt lat="45.01818" lon="5.57033">
        <ele>1972</ele>
        <time>2019-07-14T12:08:45Z</time>
      </trkpt>
      <trkpt lat="45.01817" lon="5.57035">
        <ele>1972</ele>
        <time>2019-07-14T12:08:46Z</time>
      </trkpt>
      <trkpt lat="45.01815" lon="5.57037">
        <ele>1973</ele>
        <time>2019-07-14T12:08:47Z</time>
      </trkpt>
      <trkpt lat="45.01814" lon="5.57039">
        <ele>1973</ele>
        <time>2019-07-14T12:08:48Z</time>
      </trkpt>
      <trkpt lat="45.01812" lon="5.57041">
        <ele>1973</ele>
        <time>2019-07-14T12:08:49Z</time>
      </trkpt>
      <trkpt lat="45.01811" lon="5.57043">
        <ele>1974</ele>
        <time>2019-07-14T12:08:50Z</time>
      </trkpt>
      <trkpt lat="45.01809" lon="5.57045">
        <ele>1974</ele>
        <time>2019-07-14T12:08:51Z</time>
      </trkpt>
      <trkpt lat="45.01808" lon="5.57047">
        <ele>1974</ele>
        <time>2019-07-14T12:08:52Z</time>
      </trkpt>
      <trkpt lat="45.01807" lon="5.57049">
        <ele>1975</ele>
        <time>2019-07-14T12:08:53Z</time>
      </trkpt>
      <trkpt lat="45.01805" lon="5.57052">
        <ele>1975</ele>
        <time>2019-07-14T12:08:54Z</time>
      </trkpt>
      <trkpt lat="45.01804" lon="5.57054">
        <ele>1975</ele>
        <time>2019-07-14T12:08:55Z</time>
      </trkpt>
      <trkpt lat="45.01802" lon="5.57056">
        <ele>1975</ele>
        <time>2019-07-14T12:08:56Z</time>
      </trkpt>
      <trkpt lat="45.01801" lon="5.57058">
        <ele>1976</ele>
        <time>2019-07-14T12:08:57Z</time>
      </trkpt>
      <trkpt lat="45.01799" lon="5.5706">
        <ele>1976</ele>
        <time>2019-07-14T12:08:58Z</time>
      </trkpt>
      <trkpt lat="45.01798" lon="5.57062">
        <ele>1976</ele>
        <time>2019-07-14T12:08:59Z</time>
      </trkpt>
      <trkpt lat="45.01796" lon="5.57064">
        <ele>1976</ele>
        <time>2019-07-14T12:09:00Z</time>
      </trkpt>
      <trkpt lat="45.01794" lon="5.57066">
        <ele>1976</ele>
        <time>2019-07-14T12:09:01Z</time>
      </trkpt>
      <trkpt lat="45.01793" lon="5.57068">
        <ele>1976</ele>
        <time>2019-07-14T12:09:02Z</time>
      </trkpt>
      <trkpt lat="45.01791" lon="5.5707">
        <ele>1976</ele>
        <time>2019-07-14T12:09:03Z</time>
      </trkpt>
      <trkpt lat="45.01789" lon="5.57072">
        <ele>1976</ele>
        <time>2019-07-14T12:09:04Z</time>
      </trkpt>
      <trkpt lat="45.01788" lon="5.57074">
        <ele>1976</ele>
        <time>2019-07-14T12:09:05Z</time>
      </trkpt>
      <trkpt lat="45.01786" lon="5.57075">
        <ele>1977</ele>
        <time>2019-07-14T12:09:06Z</time>
      </trkpt>
      <trkpt lat="45.01784" lon="5.57077">
        <ele>1977</ele>
        <time>2019-07-14T12:09:07Z</time>
      </trkpt>
      <trkpt lat="45.01782" lon="5.57078">
        <ele>1977</ele>
        <time>2019-07-14T12:09:08Z</time>
      </trkpt>
      <trkpt lat="45.0178" lon="5.5708">
        <ele>1977</ele>
        <time>2019-07-14T12:09:09Z</time>
      </trkpt>
      <trkpt lat="45.01778" lon="5.57082">
        <ele>1977</ele>
        <time>2019-07-14T12:09:10Z</time>
      </trkpt>
      <trkpt lat="45.01777" lon="5.57083">
        <ele>1985</ele>
        <time>2019-07-14T12:09:11Z</time>
      </trkpt>
      <trkpt lat="45.01775" lon="5.57085">
        <ele>1985</ele>
        <time>2019-07-14T12:09:12Z</time>
      </trkpt>
      <trkpt lat="45.01773" lon="5.57087">
        <ele>1985</ele>
        <time>2019-07-14T12:09:13Z</time>
      </trkpt>
      <trkpt lat="45.01771" lon="5.57088">
        <ele>1984</ele>
        <time>2019-07-14T12:09:14Z</time>
      </trkpt>
      <trkpt lat="45.01769" lon="5.5709">
        <ele>1984</ele>
        <time>2019-07-14T12:09:15Z</time>
      </trkpt>
      <trkpt lat="45.01767" lon="5.57092">
        <ele>1984</ele>
        <time>2019-07-14T12:09:16Z</time>
      </trkpt>
      <trkpt lat="45.01765" lon="5.57094">
        <ele>1984</ele>
        <time>2019-07-14T12:09:17Z</time>
      </trkpt>
      <trkpt lat="45.01764" lon="5.57095">
        <ele>1984</ele>
        <time>2019-07-14T12:09:18Z</time>
      </trkpt>
      <trkpt lat="45.01762" lon="5.57097">
        <ele>1984</ele>
        <time>2019-07-14T12:09:19Z</time>
      </trkpt>
      <trkpt lat="45.0176" lon="5.57098">
        <ele>1984</ele>
        <time>2019-07-14T12:09:20Z</time>
      </trkpt>
      <trkpt lat="45.01758" lon="5.57099">
        <ele>1984</ele>
        <time>2019-07-14T12:09:21Z</time>
      </trkpt>
      <trkpt lat="45.01756" lon="5.57101">
        <ele>1984</ele>
        <time>2019-07-14T12:09:22Z</time>
      </trkpt>
      <trkpt lat="45.01755" lon="5.57102">
        <ele>1984</ele>
        <time>2019-07-14T12:09:23Z</time>
      </trkpt>
      <trkpt lat="45.01753" lon="5.57104">
        <ele>1984</ele>
        <time>2019-07-14T12:09:24Z</time>
      </trkpt>
      <trkpt lat="45.01751" lon="5.57105">
        <ele>1984</ele>
        <time>2019-07-14T12:09:25Z</time>
      </trkpt>
      <trkpt lat="45.01749" lon="5.57107">
        <ele>1983</ele>
        <time>2019-07-14T12:09:26Z</time>
      </trkpt>
      <trkpt lat="45.01748" lon="5.57108">
        <ele>1983</ele>
        <time>2019-07-14T12:09:27Z</time>
      </trkpt>
      <trkpt lat="45.01746" lon="5.5711">
        <ele>1984</ele>
        <time>2019-07-14T12:09:28Z</time>
      </trkpt>
      <trkpt lat="45.01744" lon="5.57111">
        <ele>1984</ele>
        <time>2019-07-14T12:09:29Z</time>
      </trkpt>
      <trkpt lat="45.01742" lon="5.57113">
        <ele>1984</ele>
        <time>2019-07-14T12:09:30Z</time>
      </trkpt>
      <trkpt lat="45.0174" lon="5.57114">
        <ele>1984</ele>
        <time>2019-07-14T12:09:31Z</time>
      </trkpt>
      <trkpt lat="45.01738" lon="5.57116">
        <ele>1984</ele>
        <time>2019-07-14T12:09:32Z</time>
      </trkpt>
      <trkpt lat="45.01737" lon="5.57117">
        <ele>1984</ele>
        <time>2019-07-14T12:09:33Z</time>
      </trkpt>
      <trkpt lat="45.01735" lon="5.57119">
        <ele>1985</ele>
        <time>2019-07-14T12:09:34Z</time>
      </trkpt>
      <trkpt lat="45.01733" lon="5.5712">
        <ele>1985</ele>
        <time>2019-07-14T12:09:35Z</time>
      </trkpt>
      <trkpt lat="45.01731" lon="5.57121">
        <ele>1985</ele>
        <time>2019-07-14T12:09:36Z</time>
      </trkpt>
      <trkpt lat="45.01729" lon="5.57122">
        <ele>1985</ele>
        <time>2019-07-14T12:09:37Z</time>
      </trkpt>
      <trkpt lat="45.01727" lon="5.57124">
        <ele>1985</ele>
        <time>2019-07-14T12:09:38Z</time>
      </trkpt>
      <trkpt lat="45.01725" lon="5.57125">
        <ele>1985</ele>
        <time>2019-07-14T12:09:39Z</time>
      </trkpt>
      <trkpt lat="45.01723" lon="5.57126">
        <ele>1985</ele>
        <time>2019-07-14T12:09:40Z</time>
      </trkpt>
      <trkpt lat="45.0172" lon="5.57127">
        <ele>1985</ele>
        <time>2019-07-14T12:09:41Z</time>
      </trkpt>
      <trkpt lat="45.01719" lon="5.57128">
        <ele>1985</ele>
        <time>2019-07-14T12:09:42Z</time>
      </trkpt>
      <trkpt lat="45.01717" lon="5.57128">
        <ele>1986</ele>
        <time>2019-07-14T12:09:43Z</time>
      </trkpt>
      <trkpt lat="45.01714" lon="5.57129">
        <ele>1986</ele>
        <time>2019-07-14T12:09:44Z</time>
      </trkpt>
      <trkpt lat="45.01712" lon="5.57129">
        <ele>1986</ele>
        <time>2019-07-14T12:09:45Z</time>
      </trkpt>
      <trkpt lat="45.0171" lon="5.5713">
        <ele>1986</ele>
        <time>2019-07-14T12:09:46Z</time>
      </trkpt>
      <trkpt lat="45.01708" lon="5.5713">
        <ele>1986</ele>
        <time>2019-07-14T12:09:47Z</time>
      </trkpt>
      <trkpt lat="45.01706" lon="5.57131">
        <ele>1986</ele>
        <time>2019-07-14T12:09:48Z</time>
      </trkpt>
      <trkpt lat="45.01704" lon="5.57131">
        <ele>1986</ele>
        <time>2019-07-14T12:09:49Z</time>
      </trkpt>
      <trkpt lat="45.01702" lon="5.57131">
        <ele>1986</ele>
        <time>2019-07-14T12:09:50Z</time>
      </trkpt>
      <trkpt lat="45.01699" lon="5.57132">
        <ele>1986</ele>
        <time>2019-07-14T12:09:51Z</time>
      </trkpt>
      <trkpt lat="45.01697" lon="5.57133">
        <ele>1986</ele>
        <time>2019-07-14T12:09:52Z</time>
      </trkpt>
      <trkpt lat="45.01695" lon="5.57134">
        <ele>1987</ele>
        <time>2019-07-14T12:09:53Z</time>
      </trkpt>
      <trkpt lat="45.01693" lon="5.57135">
        <ele>1987</ele>
        <time>2019-07-14T12:09:54Z</time>
      </trkpt>
      <trkpt lat="45.01691" lon="5.57136">
        <ele>1987</ele>
        <time>2019-07-14T12:09:55Z</time>
      </trkpt>
      <trkpt lat="45.01689" lon="5.57138">
        <ele>1987</ele>
        <time>2019-07-14T12:09:56Z</time>
      </trkpt>
      <trkpt lat="45.01687" lon="5.57139">
        <ele>1987</ele>
        <time>2019-07-14T12:09:57Z</time>
      </trkpt>
      <trkpt lat="45.01685" lon="5.5714">
        <ele>1988</ele>
        <time>2019-07-14T12:09:58Z</time>
      </trkpt>
      <trkpt lat="45.01683" lon="5.57142">
        <ele>1988</ele>
        <time>2019-07-14T12:09:59Z</time>
      </trkpt>
      <trkpt lat="45.0168" lon="5.57143">
        <ele>1988</ele>
        <time>2019-07-14T12:10:00Z</time>
      </trkpt>
      <trkpt lat="45.01679" lon="5.57144">
        <ele>1989</ele>
        <time>2019-07-14T12:10:01Z</time>
      </trkpt>
      <trkpt lat="45.01676" lon="5.57146">
        <ele>1989</ele>
        <time>2019-07-14T12:10:02Z</time>
      </trkpt>
      <trkpt lat="45.01674" lon="5.57147">
        <ele>1989</ele>
        <time>2019-07-14T12:10:03Z</time>
      </trkpt>
      <trkpt lat="45.01672" lon="5.57147">
        <ele>1989</ele>
        <time>2019-07-14T12:10:04Z</time>
      </trkpt>
      <trkpt lat="45.01668" lon="5.57147">
        <ele>1990</ele>
        <time>2019-07-14T12:10:06Z</time>
      </trkpt>
      <trkpt lat="45.01666" lon="5.57148">
        <ele>1994</ele>
        <time>2019-07-14T12:10:07Z</time>
      </trkpt>
      <trkpt lat="45.01663" lon="5.57148">
        <ele>1994</ele>
        <time>2019-07-14T12:10:08Z</time>
      </trkpt>
      <trkpt lat="45.01661" lon="5.57149">
        <ele>1994</ele>
        <time>2019-07-14T12:10:09Z</time>
      </trkpt>
      <trkpt lat="45.01659" lon="5.57149">
        <ele>1994</ele>
        <time>2019-07-14T12:10:10Z</time>
      </trkpt>
      <trkpt lat="45.01657" lon="5.57149">
        <ele>1994</ele>
        <time>2019-07-14T12:10:11Z</time>
      </trkpt>
      <trkpt lat="45.01654" lon="5.5715">
        <ele>1994</ele>
        <time>2019-07-14T12:10:12Z</time>
      </trkpt>
      <trkpt lat="45.01652" lon="5.5715">
        <ele>1994</ele>
        <time>2019-07-14T12:10:13Z</time>
      </trkpt>
      <trkpt lat="45.0165" lon="5.57151">
        <ele>1994</ele>
        <time>2019-07-14T12:10:14Z</time>
      </trkpt>
      <trkpt lat="45.01648" lon="5.57151">
        <ele>1994</ele>
        <time>2019-07-14T12:10:15Z</time>
      </trkpt>
      <trkpt lat="45.01646" lon="5.57151">
        <ele>1994</ele>
        <time>2019-07-14T12:10:16Z</time>
      </trkpt>
      <trkpt lat="45.01643" lon="5.57151">
        <ele>1994</ele>
        <time>2019-07-14T12:10:17Z</time>
      </trkpt>
      <trkpt lat="45.01641" lon="5.5715">
        <ele>1994</ele>
        <time>2019-07-14T12:10:18Z</time>
      </trkpt>
      <trkpt lat="45.01638" lon="5.5715">
        <ele>1995</ele>
        <time>2019-07-14T12:10:19Z</time>
      </trkpt>
      <trkpt lat="45.01636" lon="5.5715">
        <ele>1995</ele>
        <time>2019-07-14T12:10:20Z</time>
      </trkpt>
      <trkpt lat="45.01634" lon="5.57149">
        <ele>1995</ele>
        <time>2019-07-14T12:10:21Z</time>
      </trkpt>
      <trkpt lat="45.01632" lon="5.57149">
        <ele>1995</ele>
        <time>2019-07-14T12:10:22Z</time>
      </trkpt>
      <trkpt lat="45.01629" lon="5.57148">
        <ele>1995</ele>
        <time>2019-07-14T12:10:23Z</time>
      </trkpt>
      <trkpt lat="45.01627" lon="5.57148">
        <ele>1995</ele>
        <time>2019-07-14T12:10:24Z</time>
      </trkpt>
      <trkpt lat="45.01625" lon="5.57147">
        <ele>1995</ele>
        <time>2019-07-14T12:10:25Z</time>
      </trkpt>
      <trkpt lat="45.01623" lon="5.57146">
        <ele>1996</ele>
        <time>2019-07-14T12:10:26Z</time>
      </trkpt>
      <trkpt lat="45.01621" lon="5.57145">
        <ele>1996</ele>
        <time>2019-07-14T12:10:27Z</time>
      </trkpt>
      <trkpt lat="45.01618" lon="5.57144">
        <ele>1996</ele>
        <time>2019-07-14T12:10:28Z</time>
      </trkpt>
      <trkpt lat="45.01616" lon="5.57143">
        <ele>1996</ele>
        <time>2019-07-14T12:10:29Z</time>
      </trkpt>
      <trkpt lat="45.01614" lon="5.57142">
        <ele>1996</ele>
        <time>2019-07-14T12:10:30Z</time>
      </trkpt>
      <trkpt lat="45.01611" lon="5.57141">
        <ele>1996</ele>
        <time>2019-07-14T12:10:31Z</time>
      </trkpt>
      <trkpt lat="45.01609" lon="5.57139">
        <ele>1996</ele>
        <time>2019-07-14T12:10:32Z</time>
      </trkpt>
      <trkpt lat="45.01607" lon="5.57138">
        <ele>1996</ele>
        <time>2019-07-14T12:10:33Z</time>
      </trkpt>
      <trkpt lat="45.01605" lon="5.57137">
        <ele>1996</ele>
        <time>2019-07-14T12:10:34Z</time>
      </trkpt>
      <trkpt lat="45.01604" lon="5.57135">
        <ele>1996</ele>
        <time>2019-07-14T12:10:35Z</time>
      </trkpt>
      <trkpt lat="45.01603" lon="5.57133">
        <ele>1996</ele>
        <time>2019-07-14T12:10:36Z</time>
      </trkpt>
      <trkpt lat="45.01601" lon="5.57132">
        <ele>1996</ele>
        <time>2019-07-14T12:10:37Z</time>
      </trkpt>
      <trkpt lat="45.01599" lon="5.5713">
        <ele>1996</ele>
        <time>2019-07-14T12:10:38Z</time>
      </trkpt>
      <trkpt lat="45.01597" lon="5.57128">
        <ele>1996</ele>
        <time>2019-07-14T12:10:39Z</time>
      </trkpt>
      <trkpt lat="45.01596" lon="5.57127">
        <ele>1996</ele>
        <time>2019-07-14T12:10:40Z</time>
      </trkpt>
      <trkpt lat="45.01594" lon="5.57125">
        <ele>1996</ele>
        <time>2019-07-14T12:10:41Z</time>
      </trkpt>
      <trkpt lat="45.01593" lon="5.57123">
        <ele>1995</ele>
        <time>2019-07-14T12:10:42Z</time>
      </trkpt>
      <trkpt lat="45.01592" lon="5.5712">
        <ele>1995</ele>
        <time>2019-07-14T12:10:43Z</time>
      </trkpt>
      <trkpt lat="45.0159" lon="5.57117">
        <ele>1995</ele>
        <time>2019-07-14T12:10:44Z</time>
      </trkpt>
      <trkpt lat="45.0159" lon="5.57112">
        <ele>1994</ele>
        <time>2019-07-14T12:10:45Z</time>
      </trkpt>
      <trkpt lat="45.01588" lon="5.57107">
        <ele>1994</ele>
        <time>2019-07-14T12:10:46Z</time>
      </trkpt>
      <trkpt lat="45.01586" lon="5.57101">
        <ele>1993</ele>
        <time>2019-07-14T12:10:47Z</time>
      </trkpt>
      <trkpt lat="45.01584" lon="5.57095">
        <ele>1993</ele>
        <time>2019-07-14T12:10:48Z</time>
      </trkpt>
      <trkpt lat="45.01582" lon="5.57088">
        <ele>1993</ele>
        <time>2019-07-14T12:10:49Z</time>
      </trkpt>
      <trkpt lat="45.0158" lon="5.57081">
        <ele>1990</ele>
        <time>2019-07-14T12:10:50Z</time>
      </trkpt>
      <trkpt lat="45.01579" lon="5.57073">
        <ele>1988</ele>
        <time>2019-07-14T12:10:51Z</time>
      </trkpt>
      <trkpt lat="45.01577" lon="5.57065">
        <ele>1985</ele>
        <time>2019-07-14T12:10:52Z</time>
      </trkpt>
      <trkpt lat="45.01576" lon="5.57058">
        <ele>1984</ele>
        <time>2019-07-14T12:10:53Z</time>
      </trkpt>
      <trkpt lat="45.01574" lon="5.57051">
        <ele>1982</ele>
        <time>2019-07-14T12:10:54Z</time>
      </trkpt>
      <trkpt lat="45.01571" lon="5.57045">
        <ele>1981</ele>
        <time>2019-07-14T12:10:55Z</time>
      </trkpt>
      <trkpt lat="45.01569" lon="5.5704">
        <ele>1980</ele>
        <time>2019-07-14T12:10:56Z</time>
      </trkpt>
      <trkpt lat="45.01568" lon="5.57036">
        <ele>1979</ele>
        <time>2019-07-14T12:10:57Z</time>
      </trkpt>
      <trkpt lat="45.01566" lon="5.57032">
        <ele>1979</ele>
        <time>2019-07-14T12:10:58Z</time>
      </trkpt>
      <trkpt lat="45.01565" lon="5.57028">
        <ele>1978</ele>
        <time>2019-07-14T12:10:59Z</time>
      </trkpt>
      <trkpt lat="45.01564" lon="5.57025">
        <ele>1978</ele>
        <time>2019-07-14T12:11:00Z</time>
      </trkpt>
      <trkpt lat="45.01564" lon="5.57022">
        <ele>1977</ele>
        <time>2019-07-14T12:11:01Z</time>
      </trkpt>
      <trkpt lat="45.01564" lon="5.57016">
        <ele>1976</ele>
        <time>2019-07-14T12:11:03Z</time>
      </trkpt>
      <trkpt lat="45.01565" lon="5.57013">
        <ele>1976</ele>
        <time>2019-07-14T12:11:04Z</time>
      </trkpt>
      <trkpt lat="45.01566" lon="5.57011">
        <ele>1976</ele>
        <time>2019-07-14T12:11:05Z</time>
      </trkpt>
      <trkpt lat="45.01568" lon="5.57008">
        <ele>1975</ele>
        <time>2019-07-14T12:11:06Z</time>
      </trkpt>
      <trkpt lat="45.0157" lon="5.57007">
        <ele>1975</ele>
        <time>2019-07-14T12:11:07Z</time>
      </trkpt>
      <trkpt lat="45.01573" lon="5.57006">
        <ele>1974</ele>
        <time>2019-07-14T12:11:08Z</time>
      </trkpt>
      <trkpt lat="45.01576" lon="5.57007">
        <ele>1974</ele>
        <time>2019-07-14T12:11:09Z</time>
      </trkpt>
      <trkpt lat="45.01579" lon="5.57009">
        <ele>1974</ele>
        <time>2019-07-14T12:11:10Z</time>
      </trkpt>
      <trkpt lat="45.01584" lon="5.57011">
        <ele>1972</ele>
        <time>2019-07-14T12:11:11Z</time>
      </trkpt>
      <trkpt lat="45.01588" lon="5.57013">
        <ele>1973</ele>
        <time>2019-07-14T12:11:12Z</time>
      </trkpt>
      <trkpt lat="45.01591" lon="5.57015">
        <ele>1973</ele>
        <time>2019-07-14T12:11:13Z</time>
      </trkpt>
      <trkpt lat="45.01594" lon="5.57018">
        <ele>1973</ele>
        <time>2019-07-14T12:11:14Z</time>
      </trkpt>
      <trkpt lat="45.01597" lon="5.57019">
        <ele>1973</ele>
        <time>2019-07-14T12:11:15Z</time>
      </trkpt>
      <trkpt lat="45.016" lon="5.57019">
        <ele>1973</ele>
        <time>2019-07-14T12:11:16Z</time>
      </trkpt>
      <trkpt lat="45.01602" lon="5.57018">
        <ele>1973</ele>
        <time>2019-07-14T12:11:17Z</time>
      </trkpt>
      <trkpt lat="45.01603" lon="5.57016">
        <ele>1973</ele>
        <time>2019-07-14T12:11:18Z</time>
      </trkpt>
      <trkpt lat="45.01603" lon="5.57013">
        <ele>1973</ele>
        <time>2019-07-14T12:11:19Z</time>
      </trkpt>
      <trkpt lat="45.01602" lon="5.57004">
        <ele>1972</ele>
        <time>2019-07-14T12:11:21Z</time>
      </trkpt>
      <trkpt lat="45.016" lon="5.57001">
        <ele>1972</ele>
        <time>2019-07-14T12:11:22Z</time>
      </trkpt>
      <trkpt lat="45.01597" lon="5.56997">
        <ele>1964</ele>
        <time>2019-07-14T12:11:23Z</time>
      </trkpt>
      <trkpt lat="45.01593" lon="5.56994">
        <ele>1965</ele>
        <time>2019-07-14T12:11:24Z</time>
      </trkpt>
      <trkpt lat="45.0159" lon="5.5699">
        <ele>1964</ele>
        <time>2019-07-14T12:11:25Z</time>
      </trkpt>
      <trkpt lat="45.01587" lon="5.56985">
        <ele>1963</ele>
        <time>2019-07-14T12:11:26Z</time>
      </trkpt>
      <trkpt lat="45.01582" lon="5.5698">
        <ele>1963</ele>
        <time>2019-07-14T12:11:27Z</time>
      </trkpt>
      <trkpt lat="45.01577" lon="5.56975">
        <ele>1962</ele>
        <time>2019-07-14T12:11:28Z</time>
      </trkpt>
      <trkpt lat="45.01571" lon="5.5697">
        <ele>1961</ele>
        <time>2019-07-14T12:11:29Z</time>
      </trkpt>
      <trkpt lat="45.01566" lon="5.56966">
        <ele>1960</ele>
        <time>2019-07-14T12:11:30Z</time>
      </trkpt>
      <trkpt lat="45.0156" lon="5.56962">
        <ele>1959</ele>
        <time>2019-07-14T12:11:31Z</time>
      </trkpt>
      <trkpt lat="45.01554" lon="5.5696">
        <ele>1958</ele>
        <time>2019-07-14T12:11:32Z</time>
      </trkpt>
      <trkpt lat="45.01548" lon="5.56959">
        <ele>1958</ele>
        <time>2019-07-14T12:11:33Z</time>
      </trkpt>
      <trkpt lat="45.01541" lon="5.56958">
        <ele>1958</ele>
        <time>2019-07-14T12:11:34Z</time>
      </trkpt>
      <trkpt lat="45.01535" lon="5.56958">
        <ele>1958</ele>
        <time>2019-07-14T12:11:35Z</time>
      </trkpt>
      <trkpt lat="45.01522" lon="5.56959">
        <ele>1957</ele>
        <time>2019-07-14T12:11:37Z</time>
      </trkpt>
      <trkpt lat="45.01516" lon="5.56959">
        <ele>1957</ele>
        <time>2019-07-14T12:11:38Z</time>
      </trkpt>
      <trkpt lat="45.01509" lon="5.56959">
        <ele>1957</ele>
        <time>2019-07-14T12:11:39Z</time>
      </trkpt>
      <trkpt lat="45.01502" lon="5.56958">
        <ele>1957</ele>
        <time>2019-07-14T12:11:40Z</time>
      </trkpt>
      <trkpt lat="45.01495" lon="5.56957">
        <ele>1948</ele>
        <time>2019-07-14T12:11:41Z</time>
      </trkpt>
      <trkpt lat="45.01487" lon="5.56958">
        <ele>1947</ele>
        <time>2019-07-14T12:11:42Z</time>
      </trkpt>
      <trkpt lat="45.01482" lon="5.56961">
        <ele>1947</ele>
        <time>2019-07-14T12:11:43Z</time>
      </trkpt>
      <trkpt lat="45.01477" lon="5.56966">
        <ele>1948</ele>
        <time>2019-07-14T12:11:44Z</time>
      </trkpt>
      <trkpt lat="45.01473" lon="5.56972">
        <ele>1948</ele>
        <time>2019-07-14T12:11:45Z</time>
      </trkpt>
      <trkpt lat="45.01469" lon="5.56978">
        <ele>1948</ele>
        <time>2019-07-14T12:11:46Z</time>
      </trkpt>
      <trkpt lat="45.01466" lon="5.56983">
        <ele>1948</ele>
        <time>2019-07-14T12:11:47Z</time>
      </trkpt>
      <trkpt lat="45.01463" lon="5.56988">
        <ele>1948</ele>
        <time>2019-07-14T12:11:48Z</time>
      </trkpt>
      <trkpt lat="45.0146" lon="5.56994">
        <ele>1948</ele>
        <time>2019-07-14T12:11:49Z</time>
      </trkpt>
      <trkpt lat="45.01457" lon="5.56999">
        <ele>1947</ele>
        <time>2019-07-14T12:11:50Z</time>
      </trkpt>
      <trkpt lat="45.01454" lon="5.57004">
        <ele>1961</ele>
        <time>2019-07-14T12:11:51Z</time>
      </trkpt>
      <trkpt lat="45.0145" lon="5.57008">
        <ele>1960</ele>
        <time>2019-07-14T12:11:52Z</time>
      </trkpt>
      <trkpt lat="45.01447" lon="5.57013">
        <ele>1960</ele>
        <time>2019-07-14T12:11:53Z</time>
      </trkpt>
      <trkpt lat="45.01442" lon="5.57018">
        <ele>1959</ele>
        <time>2019-07-14T12:11:54Z</time>
      </trkpt>
      <trkpt lat="45.01437" lon="5.57024">
        <ele>1960</ele>
        <time>2019-07-14T12:11:55Z</time>
      </trkpt>
      <trkpt lat="45.01432" lon="5.5703">
        <ele>1960</ele>
        <time>2019-07-14T12:11:56Z</time>
      </trkpt>
      <trkpt lat="45.01427" lon="5.57036">
        <ele>1961</ele>
        <time>2019-07-14T12:11:57Z</time>
      </trkpt>
      <trkpt lat="45.01422" lon="5.57043">
        <ele>1962</ele>
        <time>2019-07-14T12:11:58Z</time>
      </trkpt>
      <trkpt lat="45.01417" lon="5.57049">
        <ele>1962</ele>
        <time>2019-07-14T12:11:59Z</time>
      </trkpt>
      <trkpt lat="45.01412" lon="5.57054">
        <ele>1953</ele>
        <time>2019-07-14T12:12:00Z</time>
      </trkpt>
      <trkpt lat="45.01406" lon="5.57059">
        <ele>1954</ele>
        <time>2019-07-14T12:12:01Z</time>
      </trkpt>
      <trkpt lat="45.01399" lon="5.57064">
        <ele>1954</ele>
        <time>2019-07-14T12:12:02Z</time>
      </trkpt>
      <trkpt lat="45.01392" lon="5.57067">
        <ele>1954</ele>
        <time>2019-07-14T12:12:03Z</time>
      </trkpt>
      <trkpt lat="45.01385" lon="5.5707">
        <ele>1954</ele>
        <time>2019-07-14T12:12:04Z</time>
      </trkpt>
      <trkpt lat="45.01378" lon="5.57072">
        <ele>1953</ele>
        <time>2019-07-14T12:12:05Z</time>
      </trkpt>
      <trkpt lat="45.01372" lon="5.57074">
        <ele>1953</ele>
        <time>2019-07-14T12:12:06Z</time>
      </trkpt>
      <trkpt lat="45.01365" lon="5.57075">
        <ele>1953</ele>
        <time>2019-07-14T12:12:07Z</time>
      </trkpt>
      <trkpt lat="45.01359" lon="5.57075">
        <ele>1953</ele>
        <time>2019-07-14T12:12:08Z</time>
      </trkpt>
      <trkpt lat="45.01352" lon="5.57072">
        <ele>1954</ele>
        <time>2019-07-14T12:12:09Z</time>
      </trkpt>
      <trkpt lat="45.01345" lon="5.57069">
        <ele>1954</ele>
        <time>2019-07-14T12:12:10Z</time>
      </trkpt>
      <trkpt lat="45.01339" lon="5.57065">
        <ele>1953</ele>
        <time>2019-07-14T12:12:11Z</time>
      </trkpt>
      <trkpt lat="45.01333" lon="5.57062">
        <ele>1951</ele>
        <time>2019-07-14T12:12:12Z</time>
      </trkpt>
      <trkpt lat="45.01329" lon="5.5706">
        <ele>1950</ele>
        <time>2019-07-14T12:12:13Z</time>
      </trkpt>
      <trkpt lat="45.01326" lon="5.57059">
        <ele>1949</ele>
        <time>2019-07-14T12:12:14Z</time>
      </trkpt>
      <trkpt lat="45.01323" lon="5.57058">
        <ele>1949</ele>
        <time>2019-07-14T12:12:15Z</time>
      </trkpt>
      <trkpt lat="45.01321" lon="5.57059">
        <ele>1949</ele>
        <time>2019-07-14T12:12:16Z</time>
      </trkpt>
      <trkpt lat="45.0132" lon="5.57059">
        <ele>1949</ele>
        <time>2019-07-14T12:12:17Z</time>
      </trkpt>
      <trkpt lat="45.01317" lon="5.5706">
        <ele>1949</ele>
        <time>2019-07-14T12:12:18Z</time>
      </trkpt>
      <trkpt lat="45.01315" lon="5.5706">
        <ele>1949</ele>
        <time>2019-07-14T12:12:19Z</time>
      </trkpt>
      <trkpt lat="45.01313" lon="5.57061">
        <ele>1949</ele>
        <time>2019-07-14T12:12:20Z</time>
      </trkpt>
      <trkpt lat="45.01311" lon="5.57062">
        <ele>1949</ele>
        <time>2019-07-14T12:12:21Z</time>
      </trkpt>
      <trkpt lat="45.01309" lon="5.57062">
        <ele>1949</ele>
        <time>2019-07-14T12:12:22Z</time>
      </trkpt>
      <trkpt lat="45.01307" lon="5.57064">
        <ele>1949</ele>
        <time>2019-07-14T12:12:23Z</time>
      </trkpt>
      <trkpt lat="45.01305" lon="5.57066">
        <ele>1949</ele>
        <time>2019-07-14T12:12:24Z</time>
      </trkpt>
      <trkpt lat="45.01303" lon="5.57067">
        <ele>1950</ele>
        <time>2019-07-14T12:12:25Z</time>
      </trkpt>
      <trkpt lat="45.013" lon="5.57069">
        <ele>1950</ele>
        <time>2019-07-14T12:12:26Z</time>
      </trkpt>
      <trkpt lat="45.01298" lon="5.57069">
        <ele>1950</ele>
        <time>2019-07-14T12:12:27Z</time>
      </trkpt>
      <trkpt lat="45.01296" lon="5.5707">
        <ele>1950</ele>
        <time>2019-07-14T12:12:28Z</time>
      </trkpt>
      <trkpt lat="45.01294" lon="5.5707">
        <ele>1950</ele>
        <time>2019-07-14T12:12:29Z</time>
      </trkpt>
      <trkpt lat="45.01291" lon="5.5707">
        <ele>1950</ele>
        <time>2019-07-14T12:12:30Z</time>
      </trkpt>
      <trkpt lat="45.01288" lon="5.57071">
        <ele>1950</ele>
        <time>2019-07-14T12:12:31Z</time>
      </trkpt>
      <trkpt lat="45.01285" lon="5.57072">
        <ele>1950</ele>
        <time>2019-07-14T12:12:32Z</time>
      </trkpt>
      <trkpt lat="45.01281" lon="5.57072">
        <ele>1950</ele>
        <time>2019-07-14T12:12:33Z</time>
      </trkpt>
      <trkpt lat="45.01278" lon="5.57073">
        <ele>1951</ele>
        <time>2019-07-14T12:12:34Z</time>
      </trkpt>
      <trkpt lat="45.01273" lon="5.57073">
        <ele>1952</ele>
        <time>2019-07-14T12:12:35Z</time>
      </trkpt>
      <trkpt lat="45.01269" lon="5.57075">
        <ele>1952</ele>
        <time>2019-07-14T12:12:36Z</time>
      </trkpt>
      <trkpt lat="45.01264" lon="5.57076">
        <ele>1954</ele>
        <time>2019-07-14T12:12:37Z</time>
      </trkpt>
      <trkpt lat="45.01259" lon="5.57078">
        <ele>1955</ele>
        <time>2019-07-14T12:12:38Z</time>
      </trkpt>
      <trkpt lat="45.01254" lon="5.57079">
        <ele>1958</ele>
        <time>2019-07-14T12:12:39Z</time>
      </trkpt>
      <trkpt lat="45.01249" lon="5.57081">
        <ele>1959</ele>
        <time>2019-07-14T12:12:40Z</time>
      </trkpt>
      <trkpt lat="45.01244" lon="5.57082">
        <ele>1958</ele>
        <time>2019-07-14T12:12:41Z</time>
      </trkpt>
      <trkpt lat="45.0124" lon="5.57085">
        <ele>1967</ele>
        <time>2019-07-14T12:12:42Z</time>
      </trkpt>
      <trkpt lat="45.01236" lon="5.57087">
        <ele>1969</ele>
        <time>2019-07-14T12:12:43Z</time>
      </trkpt>
      <trkpt lat="45.01231" lon="5.57088">
        <ele>1970</ele>
        <time>2019-07-14T12:12:44Z</time>
      </trkpt>
      <trkpt lat="45.01226" lon="5.57088">
        <ele>1971</ele>
        <time>2019-07-14T12:12:45Z</time>
      </trkpt>
      <trkpt lat="45.01222" lon="5.57087">
        <ele>1971</ele>
        <time>2019-07-14T12:12:46Z</time>
      </trkpt>
      <trkpt lat="45.01217" lon="5.57086">
        <ele>1972</ele>
        <time>2019-07-14T12:12:47Z</time>
      </trkpt>
      <trkpt lat="45.01212" lon="5.57085">
        <ele>1972</ele>
        <time>2019-07-14T12:12:48Z</time>
      </trkpt>
      <trkpt lat="45.01207" lon="5.57084">
        <ele>1972</ele>
        <time>2019-07-14T12:12:49Z</time>
      </trkpt>
      <trkpt lat="45.01202" lon="5.57084">
        <ele>1971</ele>
        <time>2019-07-14T12:12:50Z</time>
      </trkpt>
      <trkpt lat="45.01197" lon="5.57083">
        <ele>1949</ele>
        <time>2019-07-14T12:12:51Z</time>
      </trkpt>
      <trkpt lat="45.01193" lon="5.57082">
        <ele>1950</ele>
        <time>2019-07-14T12:12:52Z</time>
      </trkpt>
      <trkpt lat="45.01188" lon="5.57082">
        <ele>1950</ele>
        <time>2019-07-14T12:12:53Z</time>
      </trkpt>
      <trkpt lat="45.01184" lon="5.57081">
        <ele>1951</ele>
        <time>2019-07-14T12:12:54Z</time>
      </trkpt>
      <trkpt lat="45.01179" lon="5.5708">
        <ele>1952</ele>
        <time>2019-07-14T12:12:55Z</time>
      </trkpt>
      <trkpt lat="45.01175" lon="5.57078">
        <ele>1952</ele>
        <time>2019-07-14T12:12:56Z</time>
      </trkpt>
      <trkpt lat="45.0117" lon="5.57075">
        <ele>1952</ele>
        <time>2019-07-14T12:12:57Z</time>
      </trkpt>
      <trkpt lat="45.01165" lon="5.57072">
        <ele>1950</ele>
        <time>2019-07-14T12:12:58Z</time>
      </trkpt>
      <trkpt lat="45.01161" lon="5.57068">
        <ele>1948</ele>
        <time>2019-07-14T12:12:59Z</time>
      </trkpt>
      <trkpt lat="45.01156" lon="5.57065">
        <ele>1947</ele>
        <time>2019-07-14T12:13:00Z</time>
      </trkpt>
      <trkpt lat="45.01152" lon="5.57064">
        <ele>1946</ele>
        <time>2019-07-14T12:13:01Z</time>
      </trkpt>
      <trkpt lat="45.01148" lon="5.57064">
        <ele>1945</ele>
        <time>2019-07-14T12:13:02Z</time>
      </trkpt>
      <trkpt lat="45.01143" lon="5.57065">
        <ele>1945</ele>
        <time>2019-07-14T12:13:03Z</time>
      </trkpt>
      <trkpt lat="45.01139" lon="5.57064">
        <ele>1944</ele>
        <time>2019-07-14T12:13:04Z</time>
      </trkpt>
      <trkpt lat="45.01135" lon="5.57064">
        <ele>1944</ele>
        <time>2019-07-14T12:13:05Z</time>
      </trkpt>
      <trkpt lat="45.0113" lon="5.57063">
        <ele>1943</ele>
        <time>2019-07-14T12:13:06Z</time>
      </trkpt>
      <trkpt lat="45.01125" lon="5.57062">
        <ele>1943</ele>
        <time>2019-07-14T12:13:07Z</time>
      </trkpt>
      <trkpt lat="45.0112" lon="5.5706">
        <ele>1943</ele>
        <time>2019-07-14T12:13:08Z</time>
      </trkpt>
      <trkpt lat="45.01114" lon="5.57059">
        <ele>1943</ele>
        <time>2019-07-14T12:13:09Z</time>
      </trkpt>
      <trkpt lat="45.01109" lon="5.57057">
        <ele>1942</ele>
        <time>2019-07-14T12:13:10Z</time>
      </trkpt>
      <trkpt lat="45.01102" lon="5.57055">
        <ele>1942</ele>
        <time>2019-07-14T12:13:11Z</time>
      </trkpt>
      <trkpt lat="45.01096" lon="5.57052">
        <ele>1942</ele>
        <time>2019-07-14T12:13:12Z</time>
      </trkpt>
      <trkpt lat="45.0109" lon="5.5705">
        <ele>1941</ele>
        <time>2019-07-14T12:13:13Z</time>
      </trkpt>
      <trkpt lat="45.01083" lon="5.57049">
        <ele>1941</ele>
        <time>2019-07-14T12:13:14Z</time>
      </trkpt>
      <trkpt lat="45.01071" lon="5.5705">
        <ele>1939</ele>
        <time>2019-07-14T12:13:16Z</time>
      </trkpt>
      <trkpt lat="45.01066" lon="5.5705">
        <ele>1939</ele>
        <time>2019-07-14T12:13:17Z</time>
      </trkpt>
      <trkpt lat="45.01061" lon="5.57051">
        <ele>1939</ele>
        <time>2019-07-14T12:13:18Z</time>
      </trkpt>
      <trkpt lat="45.01057" lon="5.57052">
        <ele>1939</ele>
        <time>2019-07-14T12:13:19Z</time>
      </trkpt>
      <trkpt lat="45.01053" lon="5.57053">
        <ele>1938</ele>
        <time>2019-07-14T12:13:20Z</time>
      </trkpt>
      <trkpt lat="45.01049" lon="5.57055">
        <ele>1938</ele>
        <time>2019-07-14T12:13:21Z</time>
      </trkpt>
      <trkpt lat="45.01045" lon="5.57059">
        <ele>1939</ele>
        <time>2019-07-14T12:13:22Z</time>
      </trkpt>
      <trkpt lat="45.01041" lon="5.57062">
        <ele>1939</ele>
        <time>2019-07-14T12:13:23Z</time>
      </trkpt>
      <trkpt lat="45.01037" lon="5.57066">
        <ele>1939</ele>
        <time>2019-07-14T12:13:24Z</time>
      </trkpt>
      <trkpt lat="45.01033" lon="5.5707">
        <ele>1939</ele>
        <time>2019-07-14T12:13:25Z</time>
      </trkpt>
      <trkpt lat="45.01029" lon="5.57074">
        <ele>1938</ele>
        <time>2019-07-14T12:13:26Z</time>
      </trkpt>
      <trkpt lat="45.01026" lon="5.57077">
        <ele>1938</ele>
        <time>2019-07-14T12:13:27Z</time>
      </trkpt>
      <trkpt lat="45.01023" lon="5.5708">
        <ele>1938</ele>
        <time>2019-07-14T12:13:28Z</time>
      </trkpt>
      <trkpt lat="45.0102" lon="5.57082">
        <ele>1938</ele>
        <time>2019-07-14T12:13:29Z</time>
      </trkpt>
      <trkpt lat="45.01017" lon="5.57083">
        <ele>1938</ele>
        <time>2019-07-14T12:13:30Z</time>
      </trkpt>
      <trkpt lat="45.01014" lon="5.57085">
        <ele>1948</ele>
        <time>2019-07-14T12:13:31Z</time>
      </trkpt>
      <trkpt lat="45.01011" lon="5.57086">
        <ele>1947</ele>
        <time>2019-07-14T12:13:32Z</time>
      </trkpt>
      <trkpt lat="45.01008" lon="5.57087">
        <ele>1946</ele>
        <time>2019-07-14T12:13:33Z</time>
      </trkpt>
      <trkpt lat="45.01006" lon="5.57088">
        <ele>1945</ele>
        <time>2019-07-14T12:13:34Z</time>
      </trkpt>
      <trkpt lat="45.01003" lon="5.5709">
        <ele>1944</ele>
        <time>2019-07-14T12:13:35Z</time>
      </trkpt>
      <trkpt lat="45.01" lon="5.57092">
        <ele>1942</ele>
        <time>2019-07-14T12:13:36Z</time>
      </trkpt>
      <trkpt lat="45.00996" lon="5.57093">
        <ele>1943</ele>
        <time>2019-07-14T12:13:37Z</time>
      </trkpt>
      <trkpt lat="45.00993" lon="5.57094">
        <ele>1944</ele>
        <time>2019-07-14T12:13:38Z</time>
      </trkpt>
      <trkpt lat="45.0099" lon="5.57096">
        <ele>1944</ele>
        <time>2019-07-14T12:13:39Z</time>
      </trkpt>
      <trkpt lat="45.00987" lon="5.57098">
        <ele>1945</ele>
        <time>2019-07-14T12:13:40Z</time>
      </trkpt>
      <trkpt lat="45.00983" lon="5.571">
        <ele>1946</ele>
        <time>2019-07-14T12:13:41Z</time>
      </trkpt>
      <trkpt lat="45.0098" lon="5.57103">
        <ele>1947</ele>
        <time>2019-07-14T12:13:42Z</time>
      </trkpt>
      <trkpt lat="45.00977" lon="5.57106">
        <ele>1948</ele>
        <time>2019-07-14T12:13:43Z</time>
      </trkpt>
      <trkpt lat="45.00974" lon="5.57109">
        <ele>1948</ele>
        <time>2019-07-14T12:13:44Z</time>
      </trkpt>
      <trkpt lat="45.00971" lon="5.57113">
        <ele>1949</ele>
        <time>2019-07-14T12:13:45Z</time>
      </trkpt>
      <trkpt lat="45.00969" lon="5.57116">
        <ele>1950</ele>
        <time>2019-07-14T12:13:46Z</time>
      </trkpt>
      <trkpt lat="45.00966" lon="5.57118">
        <ele>1950</ele>
        <time>2019-07-14T12:13:47Z</time>
      </trkpt>
      <trkpt lat="45.00963" lon="5.5712">
        <ele>1950</ele>
        <time>2019-07-14T12:13:48Z</time>
      </trkpt>
      <trkpt lat="45.00961" lon="5.57123">
        <ele>1951</ele>
        <time>2019-07-14T12:13:49Z</time>
      </trkpt>
      <trkpt lat="45.00959" lon="5.57124">
        <ele>1951</ele>
        <time>2019-07-14T12:13:50Z</time>
      </trkpt>
      <trkpt lat="45.00959" lon="5.57125">
        <ele>1951</ele>
        <time>2019-07-14T12:14:02Z</time>
      </trkpt>
      <trkpt lat="45.00948" lon="5.57134">
        <ele>1952</ele>
        <time>2019-07-14T12:14:49Z</time>
      </trkpt>
      <trkpt lat="45.00942" lon="5.5714">
        <ele>1953</ele>
        <time>2019-07-14T12:14:57Z</time>
      </trkpt>
      <trkpt lat="45.0094" lon="5.57142">
        <ele>1953</ele>
        <time>2019-07-14T12:14:58Z</time>
      </trkpt>
      <trkpt lat="45.00939" lon="5.57143">
        <ele>1953</ele>
        <time>2019-07-14T12:14:59Z</time>
      </trkpt>
      <trkpt lat="45.00938" lon="5.57144">
        <ele>1954</ele>
        <time>2019-07-14T12:15:00Z</time>
      </trkpt>
      <trkpt lat="45.00933" lon="5.5715">
        <ele>1955</ele>
        <time>2019-07-14T12:15:30Z</time>
      </trkpt>
      <trkpt lat="45.0093" lon="5.57153">
        <ele>1955</ele>
        <time>2019-07-14T12:15:31Z</time>
      </trkpt>
      <trkpt lat="45.00929" lon="5.57156">
        <ele>1956</ele>
        <time>2019-07-14T12:15:32Z</time>
      </trkpt>
      <trkpt lat="45.00927" lon="5.57158">
        <ele>1956</ele>
        <time>2019-07-14T12:15:33Z</time>
      </trkpt>
      <trkpt lat="45.00926" lon="5.5716">
        <ele>1957</ele>
        <time>2019-07-14T12:15:34Z</time>
      </trkpt>
      <trkpt lat="45.00925" lon="5.57162">
        <ele>1957</ele>
        <time>2019-07-14T12:15:35Z</time>
      </trkpt>
      <trkpt lat="45.00923" lon="5.57163">
        <ele>1958</ele>
        <time>2019-07-14T12:15:36Z</time>
      </trkpt>
      <trkpt lat="45.00922" lon="5.57165">
        <ele>1958</ele>
        <time>2019-07-14T12:15:37Z</time>
      </trkpt>
      <trkpt lat="45.0092" lon="5.57167">
        <ele>1962</ele>
        <time>2019-07-14T12:15:38Z</time>
      </trkpt>
      <trkpt lat="45.00919" lon="5.57169">
        <ele>1962</ele>
        <time>2019-07-14T12:15:39Z</time>
      </trkpt>
      <trkpt lat="45.00917" lon="5.5717">
        <ele>1963</ele>
        <time>2019-07-14T12:15:40Z</time>
      </trkpt>
      <trkpt lat="45.00915" lon="5.57172">
        <ele>1962</ele>
        <time>2019-07-14T12:15:41Z</time>
      </trkpt>
      <trkpt lat="45.00914" lon="5.57173">
        <ele>1963</ele>
        <time>2019-07-14T12:15:42Z</time>
      </trkpt>
      <trkpt lat="45.00913" lon="5.57175">
        <ele>1963</ele>
        <time>2019-07-14T12:15:43Z</time>
      </trkpt>
      <trkpt lat="45.00911" lon="5.57176">
        <ele>1964</ele>
        <time>2019-07-14T12:15:44Z</time>
      </trkpt>
      <trkpt lat="45.0091" lon="5.57177">
        <ele>1964</ele>
        <time>2019-07-14T12:15:45Z</time>
      </trkpt>
      <trkpt lat="45.00909" lon="5.57178">
        <ele>1965</ele>
        <time>2019-07-14T12:15:46Z</time>
      </trkpt>
      <trkpt lat="45.00908" lon="5.57179">
        <ele>1965</ele>
        <time>2019-07-14T12:15:47Z</time>
      </trkpt>
      <trkpt lat="45.00906" lon="5.5718">
        <ele>1965</ele>
        <time>2019-07-14T12:15:48Z</time>
      </trkpt>
      <trkpt lat="45.00905" lon="5.5718">
        <ele>1966</ele>
        <time>2019-07-14T12:15:49Z</time>
      </trkpt>
      <trkpt lat="45.00903" lon="5.57181">
        <ele>1966</ele>
        <time>2019-07-14T12:15:50Z</time>
      </trkpt>
      <trkpt lat="45.00902" lon="5.57181">
        <ele>1966</ele>
        <time>2019-07-14T12:15:51Z</time>
      </trkpt>
      <trkpt lat="45.009" lon="5.57182">
        <ele>1966</ele>
        <time>2019-07-14T12:15:52Z</time>
      </trkpt>
      <trkpt lat="45.00899" lon="5.57183">
        <ele>1966</ele>
        <time>2019-07-14T12:15:53Z</time>
      </trkpt>
      <trkpt lat="45.00898" lon="5.57183">
        <ele>1967</ele>
        <time>2019-07-14T12:15:54Z</time>
      </trkpt>
      <trkpt lat="45.00896" lon="5.57184">
        <ele>1967</ele>
        <time>2019-07-14T12:15:55Z</time>
      </trkpt>
      <trkpt lat="45.00895" lon="5.57184">
        <ele>1967</ele>
        <time>2019-07-14T12:15:56Z</time>
      </trkpt>
      <trkpt lat="45.00893" lon="5.57185">
        <ele>1967</ele>
        <time>2019-07-14T12:15:57Z</time>
      </trkpt>
      <trkpt lat="45.00892" lon="5.57186">
        <ele>1967</ele>
        <time>2019-07-14T12:15:58Z</time>
      </trkpt>
      <trkpt lat="45.0089" lon="5.57187">
        <ele>1968</ele>
        <time>2019-07-14T12:15:59Z</time>
      </trkpt>
      <trkpt lat="45.00888" lon="5.57187">
        <ele>1968</ele>
        <time>2019-07-14T12:16:00Z</time>
      </trkpt>
      <trkpt lat="45.00887" lon="5.57187">
        <ele>1968</ele>
        <time>2019-07-14T12:16:01Z</time>
      </trkpt>
      <trkpt lat="45.00885" lon="5.57188">
        <ele>1968</ele>
        <time>2019-07-14T12:16:02Z</time>
      </trkpt>
      <trkpt lat="45.00884" lon="5.57189">
        <ele>1968</ele>
        <time>2019-07-14T12:16:03Z</time>
      </trkpt>
      <trkpt lat="45.00882" lon="5.57189">
        <ele>1968</ele>
        <time>2019-07-14T12:16:04Z</time>
      </trkpt>
      <trkpt lat="45.0088" lon="5.5719">
        <ele>1968</ele>
        <time>2019-07-14T12:16:05Z</time>
      </trkpt>
      <trkpt lat="45.00879" lon="5.57191">
        <ele>1968</ele>
        <time>2019-07-14T12:16:06Z</time>
      </trkpt>
      <trkpt lat="45.00877" lon="5.57191">
        <ele>1968</ele>
        <time>2019-07-14T12:16:07Z</time>
      </trkpt>
      <trkpt lat="45.00876" lon="5.57192">
        <ele>1968</ele>
        <time>2019-07-14T12:16:08Z</time>
      </trkpt>
      <trkpt lat="45.00875" lon="5.57193">
        <ele>1968</ele>
        <time>2019-07-14T12:16:09Z</time>
      </trkpt>
      <trkpt lat="45.00873" lon="5.57193">
        <ele>1968</ele>
        <time>2019-07-14T12:16:10Z</time>
      </trkpt>
      <trkpt lat="45.00872" lon="5.57193">
        <ele>1968</ele>
        <time>2019-07-14T12:16:11Z</time>
      </trkpt>
      <trkpt lat="45.00871" lon="5.57194">
        <ele>1968</ele>
        <time>2019-07-14T12:16:12Z</time>
      </trkpt>
      <trkpt lat="45.0087" lon="5.57195">
        <ele>1968</ele>
        <time>2019-07-14T12:16:13Z</time>
      </trkpt>
      <trkpt lat="45.00869" lon="5.57195">
        <ele>1968</ele>
        <time>2019-07-14T12:16:14Z</time>
      </trkpt>
      <trkpt lat="45.00868" lon="5.57196">
        <ele>1968</ele>
        <time>2019-07-14T12:16:15Z</time>
      </trkpt>
      <trkpt lat="45.00866" lon="5.57197">
        <ele>1968</ele>
        <time>2019-07-14T12:16:16Z</time>
      </trkpt>
      <trkpt lat="45.00865" lon="5.57198">
        <ele>1969</ele>
        <time>2019-07-14T12:16:17Z</time>
      </trkpt>
      <trkpt lat="45.00863" lon="5.57199">
        <ele>1969</ele>
        <time>2019-07-14T12:16:18Z</time>
      </trkpt>
      <trkpt lat="45.00862" lon="5.572">
        <ele>1969</ele>
        <time>2019-07-14T12:16:19Z</time>
      </trkpt>
      <trkpt lat="45.00861" lon="5.57201">
        <ele>1969</ele>
        <time>2019-07-14T12:16:20Z</time>
      </trkpt>
      <trkpt lat="45.00859" lon="5.57201">
        <ele>1969</ele>
        <time>2019-07-14T12:16:21Z</time>
      </trkpt>
      <trkpt lat="45.00857" lon="5.57202">
        <ele>1969</ele>
        <time>2019-07-14T12:16:22Z</time>
      </trkpt>
      <trkpt lat="45.00856" lon="5.57203">
        <ele>1969</ele>
        <time>2019-07-14T12:16:23Z</time>
      </trkpt>
      <trkpt lat="45.00854" lon="5.57204">
        <ele>1969</ele>
        <time>2019-07-14T12:16:24Z</time>
      </trkpt>
      <trkpt lat="45.00852" lon="5.57205">
        <ele>1969</ele>
        <time>2019-07-14T12:16:25Z</time>
      </trkpt>
      <trkpt lat="45.0085" lon="5.57205">
        <ele>1969</ele>
        <time>2019-07-14T12:16:26Z</time>
      </trkpt>
      <trkpt lat="45.00849" lon="5.57206">
        <ele>1970</ele>
        <time>2019-07-14T12:16:27Z</time>
      </trkpt>
      <trkpt lat="45.00848" lon="5.57207">
        <ele>1970</ele>
        <time>2019-07-14T12:16:28Z</time>
      </trkpt>
      <trkpt lat="45.00846" lon="5.57208">
        <ele>1970</ele>
        <time>2019-07-14T12:16:29Z</time>
      </trkpt>
      <trkpt lat="45.00844" lon="5.57209">
        <ele>1970</ele>
        <time>2019-07-14T12:16:30Z</time>
      </trkpt>
      <trkpt lat="45.00843" lon="5.57209">
        <ele>1970</ele>
        <time>2019-07-14T12:16:31Z</time>
      </trkpt>
      <trkpt lat="45.00839" lon="5.5721">
        <ele>1970</ele>
        <time>2019-07-14T12:16:33Z</time>
      </trkpt>
      <trkpt lat="45.00838" lon="5.5721">
        <ele>1970</ele>
        <time>2019-07-14T12:16:34Z</time>
      </trkpt>
      <trkpt lat="45.00836" lon="5.5721">
        <ele>1970</ele>
        <time>2019-07-14T12:16:35Z</time>
      </trkpt>
      <trkpt lat="45.00834" lon="5.5721">
        <ele>1970</ele>
        <time>2019-07-14T12:16:37Z</time>
      </trkpt>
      <trkpt lat="45.00832" lon="5.5721">
        <ele>1971</ele>
        <time>2019-07-14T12:16:38Z</time>
      </trkpt>
      <trkpt lat="45.00831" lon="5.5721">
        <ele>1971</ele>
        <time>2019-07-14T12:16:39Z</time>
      </trkpt>
      <trkpt lat="45.0083" lon="5.5721">
        <ele>1972</ele>
        <time>2019-07-14T12:16:40Z</time>
      </trkpt>
      <trkpt lat="45.00829" lon="5.57209">
        <ele>1971</ele>
        <time>2019-07-14T12:16:41Z</time>
      </trkpt>
      <trkpt lat="45.00827" lon="5.57209">
        <ele>1971</ele>
        <time>2019-07-14T12:16:42Z</time>
      </trkpt>
      <trkpt lat="45.00827" lon="5.57208">
        <ele>1971</ele>
        <time>2019-07-14T12:16:43Z</time>
      </trkpt>
      <trkpt lat="45.00826" lon="5.57209">
        <ele>1971</ele>
        <time>2019-07-14T12:16:44Z</time>
      </trkpt>
      <trkpt lat="45.00824" lon="5.5721">
        <ele>1972</ele>
        <time>2019-07-14T12:16:45Z</time>
      </trkpt>
      <trkpt lat="45.00823" lon="5.5721">
        <ele>1972</ele>
        <time>2019-07-14T12:16:46Z</time>
      </trkpt>
      <trkpt lat="45.00822" lon="5.57211">
        <ele>1972</ele>
        <time>2019-07-14T12:16:47Z</time>
      </trkpt>
      <trkpt lat="45.0082" lon="5.57211">
        <ele>1972</ele>
        <time>2019-07-14T12:16:48Z</time>
      </trkpt>
      <trkpt lat="45.00819" lon="5.57211">
        <ele>1972</ele>
        <time>2019-07-14T12:16:49Z</time>
      </trkpt>
      <trkpt lat="45.00818" lon="5.57211">
        <ele>1972</ele>
        <time>2019-07-14T12:16:50Z</time>
      </trkpt>
      <trkpt lat="45.00816" lon="5.57212">
        <ele>1972</ele>
        <time>2019-07-14T12:16:51Z</time>
      </trkpt>
      <trkpt lat="45.00815" lon="5.57212">
        <ele>1972</ele>
        <time>2019-07-14T12:16:52Z</time>
      </trkpt>
      <trkpt lat="45.00814" lon="5.57212">
        <ele>1973</ele>
        <time>2019-07-14T12:16:53Z</time>
      </trkpt>
      <trkpt lat="45.00812" lon="5.57212">
        <ele>1973</ele>
        <time>2019-07-14T12:16:54Z</time>
      </trkpt>
      <trkpt lat="45.00811" lon="5.57213">
        <ele>1973</ele>
        <time>2019-07-14T12:16:55Z</time>
      </trkpt>
      <trkpt lat="45.0081" lon="5.57213">
        <ele>1973</ele>
        <time>2019-07-14T12:16:56Z</time>
      </trkpt>
      <trkpt lat="45.00808" lon="5.57213">
        <ele>1973</ele>
        <time>2019-07-14T12:16:57Z</time>
      </trkpt>
      <trkpt lat="45.00807" lon="5.57214">
        <ele>1973</ele>
        <time>2019-07-14T12:16:58Z</time>
      </trkpt>
      <trkpt lat="45.00806" lon="5.57214">
        <ele>1973</ele>
        <time>2019-07-14T12:16:59Z</time>
      </trkpt>
      <trkpt lat="45.00804" lon="5.57214">
        <ele>1973</ele>
        <time>2019-07-14T12:17:00Z</time>
      </trkpt>
      <trkpt lat="45.00803" lon="5.57215">
        <ele>1973</ele>
        <time>2019-07-14T12:17:01Z</time>
      </trkpt>
      <trkpt lat="45.00802" lon="5.57215">
        <ele>1974</ele>
        <time>2019-07-14T12:17:02Z</time>
      </trkpt>
      <trkpt lat="45.008" lon="5.57216">
        <ele>1974</ele>
        <time>2019-07-14T12:17:03Z</time>
      </trkpt>
      <trkpt lat="45.00799" lon="5.57217">
        <ele>1974</ele>
        <time>2019-07-14T12:17:04Z</time>
      </trkpt>
      <trkpt lat="45.00798" lon="5.57218">
        <ele>1974</ele>
        <time>2019-07-14T12:17:05Z</time>
      </trkpt>
      <trkpt lat="45.00797" lon="5.57218">
        <ele>1974</ele>
        <time>2019-07-14T12:17:06Z</time>
      </trkpt>
      <trkpt lat="45.00795" lon="5.57219">
        <ele>1974</ele>
        <time>2019-07-14T12:17:07Z</time>
      </trkpt>
      <trkpt lat="45.00795" lon="5.5722">
        <ele>1975</ele>
        <time>2019-07-14T12:17:08Z</time>
      </trkpt>
      <trkpt lat="45.00794" lon="5.57221">
        <ele>1975</ele>
        <time>2019-07-14T12:17:09Z</time>
      </trkpt>
      <trkpt lat="45.00793" lon="5.57223">
        <ele>1975</ele>
        <time>2019-07-14T12:17:10Z</time>
      </trkpt>
      <trkpt lat="45.00792" lon="5.57225">
        <ele>1975</ele>
        <time>2019-07-14T12:17:11Z</time>
      </trkpt>
      <trkpt lat="45.0079" lon="5.57226">
        <ele>1976</ele>
        <time>2019-07-14T12:17:12Z</time>
      </trkpt>
      <trkpt lat="45.0079" lon="5.57228">
        <ele>1976</ele>
        <time>2019-07-14T12:17:13Z</time>
      </trkpt>
      <trkpt lat="45.00789" lon="5.57229">
        <ele>1976</ele>
        <time>2019-07-14T12:17:14Z</time>
      </trkpt>
      <trkpt lat="45.00788" lon="5.5723">
        <ele>1976</ele>
        <time>2019-07-14T12:17:15Z</time>
      </trkpt>
      <trkpt lat="45.00786" lon="5.57231">
        <ele>1977</ele>
        <time>2019-07-14T12:17:16Z</time>
      </trkpt>
      <trkpt lat="45.00785" lon="5.57231">
        <ele>1977</ele>
        <time>2019-07-14T12:17:17Z</time>
      </trkpt>
      <trkpt lat="45.00784" lon="5.57231">
        <ele>1977</ele>
        <time>2019-07-14T12:17:18Z</time>
      </trkpt>
      <trkpt lat="45.00782" lon="5.57232">
        <ele>1977</ele>
        <time>2019-07-14T12:17:19Z</time>
      </trkpt>
      <trkpt lat="45.00781" lon="5.57233">
        <ele>1977</ele>
        <time>2019-07-14T12:17:20Z</time>
      </trkpt>
      <trkpt lat="45.00779" lon="5.57234">
        <ele>1978</ele>
        <time>2019-07-14T12:17:21Z</time>
      </trkpt>
      <trkpt lat="45.00778" lon="5.57235">
        <ele>1978</ele>
        <time>2019-07-14T12:17:22Z</time>
      </trkpt>
      <trkpt lat="45.00776" lon="5.57235">
        <ele>1978</ele>
        <time>2019-07-14T12:17:23Z</time>
      </trkpt>
      <trkpt lat="45.00774" lon="5.57235">
        <ele>1979</ele>
        <time>2019-07-14T12:17:25Z</time>
      </trkpt>
      <trkpt lat="45.00772" lon="5.57236">
        <ele>1979</ele>
        <time>2019-07-14T12:17:26Z</time>
      </trkpt>
      <trkpt lat="45.00771" lon="5.57238">
        <ele>1980</ele>
        <time>2019-07-14T12:17:27Z</time>
      </trkpt>
      <trkpt lat="45.00771" lon="5.5724">
        <ele>1980</ele>
        <time>2019-07-14T12:17:28Z</time>
      </trkpt>
      <trkpt lat="45.00769" lon="5.57241">
        <ele>1981</ele>
        <time>2019-07-14T12:17:29Z</time>
      </trkpt>
      <trkpt lat="45.00768" lon="5.57241">
        <ele>1981</ele>
        <time>2019-07-14T12:17:30Z</time>
      </trkpt>
      <trkpt lat="45.00767" lon="5.57242">
        <ele>1981</ele>
        <time>2019-07-14T12:17:31Z</time>
      </trkpt>
      <trkpt lat="45.00766" lon="5.57243">
        <ele>1982</ele>
        <time>2019-07-14T12:17:32Z</time>
      </trkpt>
      <trkpt lat="45.00764" lon="5.57244">
        <ele>1982</ele>
        <time>2019-07-14T12:17:33Z</time>
      </trkpt>
      <trkpt lat="45.00763" lon="5.57245">
        <ele>1983</ele>
        <time>2019-07-14T12:17:34Z</time>
      </trkpt>
      <trkpt lat="45.00761" lon="5.57246">
        <ele>1984</ele>
        <time>2019-07-14T12:17:35Z</time>
      </trkpt>
      <trkpt lat="45.0076" lon="5.57247">
        <ele>1984</ele>
        <time>2019-07-14T12:17:36Z</time>
      </trkpt>
      <trkpt lat="45.00759" lon="5.57248">
        <ele>1985</ele>
        <time>2019-07-14T12:17:37Z</time>
      </trkpt>
      <trkpt lat="45.00758" lon="5.57249">
        <ele>1986</ele>
        <time>2019-07-14T12:17:38Z</time>
      </trkpt>
      <trkpt lat="45.00757" lon="5.5725">
        <ele>1986</ele>
        <time>2019-07-14T12:17:39Z</time>
      </trkpt>
      <trkpt lat="45.00755" lon="5.5725">
        <ele>1992</ele>
        <time>2019-07-14T12:17:40Z</time>
      </trkpt>
      <trkpt lat="45.00753" lon="5.57251">
        <ele>1991</ele>
        <time>2019-07-14T12:17:41Z</time>
      </trkpt>
      <trkpt lat="45.00752" lon="5.57252">
        <ele>1991</ele>
        <time>2019-07-14T12:17:42Z</time>
      </trkpt>
      <trkpt lat="45.0075" lon="5.57253">
        <ele>1991</ele>
        <time>2019-07-14T12:17:43Z</time>
      </trkpt>
      <trkpt lat="45.00749" lon="5.57254">
        <ele>1992</ele>
        <time>2019-07-14T12:17:44Z</time>
      </trkpt>
      <trkpt lat="45.00748" lon="5.57256">
        <ele>1993</ele>
        <time>2019-07-14T12:17:45Z</time>
      </trkpt>
      <trkpt lat="45.00747" lon="5.57256">
        <ele>1994</ele>
        <time>2019-07-14T12:17:46Z</time>
      </trkpt>
      <trkpt lat="45.00745" lon="5.57257">
        <ele>1994</ele>
        <time>2019-07-14T12:17:47Z</time>
      </trkpt>
      <trkpt lat="45.00744" lon="5.57258">
        <ele>1995</ele>
        <time>2019-07-14T12:17:48Z</time>
      </trkpt>
      <trkpt lat="45.00743" lon="5.57259">
        <ele>1995</ele>
        <time>2019-07-14T12:17:49Z</time>
      </trkpt>
      <trkpt lat="45.00742" lon="5.5726">
        <ele>1996</ele>
        <time>2019-07-14T12:17:50Z</time>
      </trkpt>
      <trkpt lat="45.00741" lon="5.57262">
        <ele>1996</ele>
        <time>2019-07-14T12:17:51Z</time>
      </trkpt>
      <trkpt lat="45.0074" lon="5.57263">
        <ele>1997</ele>
        <time>2019-07-14T12:17:52Z</time>
      </trkpt>
      <trkpt lat="45.00739" lon="5.57264">
        <ele>1998</ele>
        <time>2019-07-14T12:17:53Z</time>
      </trkpt>
      <trkpt lat="45.00737" lon="5.57265">
        <ele>1998</ele>
        <time>2019-07-14T12:17:54Z</time>
      </trkpt>
      <trkpt lat="45.00736" lon="5.57266">
        <ele>1998</ele>
        <time>2019-07-14T12:17:55Z</time>
      </trkpt>
      <trkpt lat="45.00735" lon="5.57267">
        <ele>1999</ele>
        <time>2019-07-14T12:17:56Z</time>
      </trkpt>
      <trkpt lat="45.00734" lon="5.57268">
        <ele>1999</ele>
        <time>2019-07-14T12:17:57Z</time>
      </trkpt>
      <trkpt lat="45.00732" lon="5.57269">
        <ele>1999</ele>
        <time>2019-07-14T12:17:58Z</time>
      </trkpt>
      <trkpt lat="45.00731" lon="5.5727">
        <ele>2000</ele>
        <time>2019-07-14T12:17:59Z</time>
      </trkpt>
      <trkpt lat="45.00729" lon="5.57271">
        <ele>2000</ele>
        <time>2019-07-14T12:18:00Z</time>
      </trkpt>
      <trkpt lat="45.00728" lon="5.57272">
        <ele>2000</ele>
        <time>2019-07-14T12:18:01Z</time>
      </trkpt>
      <trkpt lat="45.00727" lon="5.57274">
        <ele>2001</ele>
        <time>2019-07-14T12:18:02Z</time>
      </trkpt>
      <trkpt lat="45.00726" lon="5.57275">
        <ele>2001</ele>
        <time>2019-07-14T12:18:03Z</time>
      </trkpt>
      <trkpt lat="45.00725" lon="5.57276">
        <ele>2001</ele>
        <time>2019-07-14T12:18:04Z</time>
      </trkpt>
      <trkpt lat="45.00724" lon="5.57276">
        <ele>2001</ele>
        <time>2019-07-14T12:18:05Z</time>
      </trkpt>
      <trkpt lat="45.00723" lon="5.57277">
        <ele>2001</ele>
        <time>2019-07-14T12:18:06Z</time>
      </trkpt>
      <trkpt lat="45.00721" lon="5.57276">
        <ele>2002</ele>
        <time>2019-07-14T12:18:07Z</time>
      </trkpt>
      <trkpt lat="45.0072" lon="5.57277">
        <ele>2002</ele>
        <time>2019-07-14T12:18:08Z</time>
      </trkpt>
      <trkpt lat="45.00718" lon="5.57277">
        <ele>2002</ele>
        <time>2019-07-14T12:18:09Z</time>
      </trkpt>
      <trkpt lat="45.00716" lon="5.57277">
        <ele>2002</ele>
        <time>2019-07-14T12:18:10Z</time>
      </trkpt>
      <trkpt lat="45.00715" lon="5.57278">
        <ele>2002</ele>
        <time>2019-07-14T12:18:11Z</time>
      </trkpt>
      <trkpt lat="45.00713" lon="5.57278">
        <ele>2002</ele>
        <time>2019-07-14T12:18:12Z</time>
      </trkpt>
      <trkpt lat="45.00708" lon="5.57278">
        <ele>2002</ele>
        <time>2019-07-14T12:18:15Z</time>
      </trkpt>
      <trkpt lat="45.00705" lon="5.57278">
        <ele>2002</ele>
        <time>2019-07-14T12:18:17Z</time>
      </trkpt>
      <trkpt lat="45.00704" lon="5.57279">
        <ele>2003</ele>
        <time>2019-07-14T12:18:18Z</time>
      </trkpt>
      <trkpt lat="45.00703" lon="5.5728">
        <ele>2003</ele>
        <time>2019-07-14T12:18:19Z</time>
      </trkpt>
      <trkpt lat="45.00702" lon="5.57281">
        <ele>2003</ele>
        <time>2019-07-14T12:18:20Z</time>
      </trkpt>
      <trkpt lat="45.00702" lon="5.57281">
        <ele>2003</ele>
        <time>2019-07-14T12:18:22Z</time>
      </trkpt>
      <trkpt lat="45.00696" lon="5.57284">
        <ele>2003</ele>
        <time>2019-07-14T12:19:41Z</time>
      </trkpt>
      <trkpt lat="45.00694" lon="5.57286">
        <ele>2003</ele>
        <time>2019-07-14T12:19:42Z</time>
      </trkpt>
      <trkpt lat="45.00692" lon="5.57287">
        <ele>2004</ele>
        <time>2019-07-14T12:19:43Z</time>
      </trkpt>
      <trkpt lat="45.00691" lon="5.57289">
        <ele>2004</ele>
        <time>2019-07-14T12:19:44Z</time>
      </trkpt>
      <trkpt lat="45.00689" lon="5.57291">
        <ele>2004</ele>
        <time>2019-07-14T12:19:45Z</time>
      </trkpt>
      <trkpt lat="45.00688" lon="5.57292">
        <ele>2004</ele>
        <time>2019-07-14T12:19:46Z</time>
      </trkpt>
      <trkpt lat="45.00686" lon="5.57294">
        <ele>2004</ele>
        <time>2019-07-14T12:19:47Z</time>
      </trkpt>
      <trkpt lat="45.00684" lon="5.57296">
        <ele>2004</ele>
        <time>2019-07-14T12:19:48Z</time>
      </trkpt>
      <trkpt lat="45.00682" lon="5.57297">
        <ele>2005</ele>
        <time>2019-07-14T12:19:49Z</time>
      </trkpt>
      <trkpt lat="45.0068" lon="5.57299">
        <ele>2005</ele>
        <time>2019-07-14T12:19:50Z</time>
      </trkpt>
      <trkpt lat="45.00678" lon="5.573">
        <ele>2005</ele>
        <time>2019-07-14T12:19:51Z</time>
      </trkpt>
      <trkpt lat="45.00676" lon="5.57301">
        <ele>2005</ele>
        <time>2019-07-14T12:19:52Z</time>
      </trkpt>
      <trkpt lat="45.00674" lon="5.57301">
        <ele>2005</ele>
        <time>2019-07-14T12:19:53Z</time>
      </trkpt>
      <trkpt lat="45.00673" lon="5.57303">
        <ele>2005</ele>
        <time>2019-07-14T12:19:54Z</time>
      </trkpt>
      <trkpt lat="45.00671" lon="5.57304">
        <ele>2006</ele>
        <time>2019-07-14T12:19:55Z</time>
      </trkpt>
      <trkpt lat="45.00669" lon="5.57306">
        <ele>2006</ele>
        <time>2019-07-14T12:19:56Z</time>
      </trkpt>
      <trkpt lat="45.00666" lon="5.57308">
        <ele>2010</ele>
        <time>2019-07-14T12:19:57Z</time>
      </trkpt>
      <trkpt lat="45.00665" lon="5.57309">
        <ele>2010</ele>
        <time>2019-07-14T12:19:58Z</time>
      </trkpt>
      <trkpt lat="45.00663" lon="5.5731">
        <ele>2010</ele>
        <time>2019-07-14T12:19:59Z</time>
      </trkpt>
      <trkpt lat="45.00661" lon="5.5731">
        <ele>2010</ele>
        <time>2019-07-14T12:20:00Z</time>
      </trkpt>
      <trkpt lat="45.00659" lon="5.57311">
        <ele>2010</ele>
        <time>2019-07-14T12:20:01Z</time>
      </trkpt>
      <trkpt lat="45.00657" lon="5.57312">
        <ele>2010</ele>
        <time>2019-07-14T12:20:02Z</time>
      </trkpt>
      <trkpt lat="45.00656" lon="5.57313">
        <ele>2010</ele>
        <time>2019-07-14T12:20:03Z</time>
      </trkpt>
      <trkpt lat="45.00654" lon="5.57313">
        <ele>2010</ele>
        <time>2019-07-14T12:20:04Z</time>
      </trkpt>
      <trkpt lat="45.00652" lon="5.57314">
        <ele>2010</ele>
        <time>2019-07-14T12:20:05Z</time>
      </trkpt>
      <trkpt lat="45.0065" lon="5.57315">
        <ele>2011</ele>
        <time>2019-07-14T12:20:06Z</time>
      </trkpt>
      <trkpt lat="45.00649" lon="5.57316">
        <ele>2011</ele>
        <time>2019-07-14T12:20:07Z</time>
      </trkpt>
      <trkpt lat="45.00647" lon="5.57317">
        <ele>2011</ele>
        <time>2019-07-14T12:20:08Z</time>
      </trkpt>
      <trkpt lat="45.00645" lon="5.57318">
        <ele>2011</ele>
        <time>2019-07-14T12:20:09Z</time>
      </trkpt>
      <trkpt lat="45.00644" lon="5.57319">
        <ele>2011</ele>
        <time>2019-07-14T12:20:10Z</time>
      </trkpt>
      <trkpt lat="45.00642" lon="5.57321">
        <ele>2011</ele>
        <time>2019-07-14T12:20:11Z</time>
      </trkpt>
      <trkpt lat="45.00641" lon="5.57322">
        <ele>2011</ele>
        <time>2019-07-14T12:20:12Z</time>
      </trkpt>
      <trkpt lat="45.00639" lon="5.57324">
        <ele>2011</ele>
        <time>2019-07-14T12:20:13Z</time>
      </trkpt>
      <trkpt lat="45.00638" lon="5.57326">
        <ele>2011</ele>
        <time>2019-07-14T12:20:14Z</time>
      </trkpt>
      <trkpt lat="45.00637" lon="5.57327">
        <ele>2011</ele>
        <time>2019-07-14T12:20:15Z</time>
      </trkpt>
      <trkpt lat="45.00635" lon="5.57328">
        <ele>2012</ele>
        <time>2019-07-14T12:20:16Z</time>
      </trkpt>
      <trkpt lat="45.00634" lon="5.57329">
        <ele>2012</ele>
        <time>2019-07-14T12:20:17Z</time>
      </trkpt>
      <trkpt lat="45.00633" lon="5.57331">
        <ele>2012</ele>
        <time>2019-07-14T12:20:18Z</time>
      </trkpt>
      <trkpt lat="45.00631" lon="5.57332">
        <ele>2012</ele>
        <time>2019-07-14T12:20:19Z</time>
      </trkpt>
      <trkpt lat="45.0063" lon="5.57334">
        <ele>2015</ele>
        <time>2019-07-14T12:20:20Z</time>
      </trkpt>
      <trkpt lat="45.00628" lon="5.57335">
        <ele>2015</ele>
        <time>2019-07-14T12:20:21Z</time>
      </trkpt>
      <trkpt lat="45.00627" lon="5.57336">
        <ele>2015</ele>
        <time>2019-07-14T12:20:22Z</time>
      </trkpt>
      <trkpt lat="45.00625" lon="5.57337">
        <ele>2015</ele>
        <time>2019-07-14T12:20:23Z</time>
      </trkpt>
      <trkpt lat="45.00624" lon="5.57338">
        <ele>2015</ele>
        <time>2019-07-14T12:20:24Z</time>
      </trkpt>
      <trkpt lat="45.00623" lon="5.57339">
        <ele>2015</ele>
        <time>2019-07-14T12:20:25Z</time>
      </trkpt>
      <trkpt lat="45.00621" lon="5.5734">
        <ele>2015</ele>
        <time>2019-07-14T12:20:26Z</time>
      </trkpt>
      <trkpt lat="45.0062" lon="5.57341">
        <ele>2015</ele>
        <time>2019-07-14T12:20:27Z</time>
      </trkpt>
      <trkpt lat="45.00618" lon="5.57342">
        <ele>2015</ele>
        <time>2019-07-14T12:20:28Z</time>
      </trkpt>
      <trkpt lat="45.00617" lon="5.57343">
        <ele>2016</ele>
        <time>2019-07-14T12:20:29Z</time>
      </trkpt>
      <trkpt lat="45.00615" lon="5.57344">
        <ele>2016</ele>
        <time>2019-07-14T12:20:30Z</time>
      </trkpt>
      <trkpt lat="45.00614" lon="5.57345">
        <ele>2016</ele>
        <time>2019-07-14T12:20:31Z</time>
      </trkpt>
      <trkpt lat="45.00613" lon="5.57346">
        <ele>2016</ele>
        <time>2019-07-14T12:20:32Z</time>
      </trkpt>
      <trkpt lat="45.00611" lon="5.57347">
        <ele>2016</ele>
        <time>2019-07-14T12:20:33Z</time>
      </trkpt>
      <trkpt lat="45.0061" lon="5.57348">
        <ele>2016</ele>
        <time>2019-07-14T12:20:34Z</time>
      </trkpt>
      <trkpt lat="45.00608" lon="5.57349">
        <ele>2016</ele>
        <time>2019-07-14T12:20:35Z</time>
      </trkpt>
      <trkpt lat="45.00606" lon="5.5735">
        <ele>2016</ele>
        <time>2019-07-14T12:20:36Z</time>
      </trkpt>
      <trkpt lat="45.00605" lon="5.57351">
        <ele>2016</ele>
        <time>2019-07-14T12:20:37Z</time>
      </trkpt>
      <trkpt lat="45.00604" lon="5.57352">
        <ele>2016</ele>
        <time>2019-07-14T12:20:38Z</time>
      </trkpt>
      <trkpt lat="45.00602" lon="5.57352">
        <ele>2016</ele>
        <time>2019-07-14T12:20:39Z</time>
      </trkpt>
      <trkpt lat="45.00601" lon="5.57352">
        <ele>2016</ele>
        <time>2019-07-14T12:20:40Z</time>
      </trkpt>
      <trkpt lat="45.00599" lon="5.57353">
        <ele>2016</ele>
        <time>2019-07-14T12:20:41Z</time>
      </trkpt>
      <trkpt lat="45.00597" lon="5.57354">
        <ele>2016</ele>
        <time>2019-07-14T12:20:42Z</time>
      </trkpt>
      <trkpt lat="45.00596" lon="5.57354">
        <ele>2016</ele>
        <time>2019-07-14T12:20:43Z</time>
      </trkpt>
      <trkpt lat="45.00595" lon="5.57356">
        <ele>2016</ele>
        <time>2019-07-14T12:20:44Z</time>
      </trkpt>
      <trkpt lat="45.00594" lon="5.57357">
        <ele>2016</ele>
        <time>2019-07-14T12:20:45Z</time>
      </trkpt>
      <trkpt lat="45.00592" lon="5.57358">
        <ele>2017</ele>
        <time>2019-07-14T12:20:46Z</time>
      </trkpt>
      <trkpt lat="45.00591" lon="5.57359">
        <ele>2017</ele>
        <time>2019-07-14T12:20:47Z</time>
      </trkpt>
      <trkpt lat="45.00588" lon="5.5736">
        <ele>2017</ele>
        <time>2019-07-14T12:20:48Z</time>
      </trkpt>
      <trkpt lat="45.00586" lon="5.57361">
        <ele>2017</ele>
        <time>2019-07-14T12:20:49Z</time>
      </trkpt>
      <trkpt lat="45.00583" lon="5.57363">
        <ele>2023</ele>
        <time>2019-07-14T12:20:50Z</time>
      </trkpt>
      <trkpt lat="45.00581" lon="5.57366">
        <ele>2023</ele>
        <time>2019-07-14T12:20:51Z</time>
      </trkpt>
      <trkpt lat="45.00578" lon="5.57368">
        <ele>2023</ele>
        <time>2019-07-14T12:20:52Z</time>
      </trkpt>
      <trkpt lat="45.00577" lon="5.5737">
        <ele>2023</ele>
        <time>2019-07-14T12:20:53Z</time>
      </trkpt>
      <trkpt lat="45.00576" lon="5.57372">
        <ele>2023</ele>
        <time>2019-07-14T12:20:54Z</time>
      </trkpt>
      <trkpt lat="45.00574" lon="5.57374">
        <ele>2023</ele>
        <time>2019-07-14T12:20:55Z</time>
      </trkpt>
      <trkpt lat="45.00573" lon="5.57376">
        <ele>2023</ele>
        <time>2019-07-14T12:20:56Z</time>
      </trkpt>
      <trkpt lat="45.00572" lon="5.57378">
        <ele>2023</ele>
        <time>2019-07-14T12:20:57Z</time>
      </trkpt>
      <trkpt lat="45.00571" lon="5.5738">
        <ele>2023</ele>
        <time>2019-07-14T12:20:58Z</time>
      </trkpt>
      <trkpt lat="45.0057" lon="5.57382">
        <ele>2023</ele>
        <time>2019-07-14T12:20:59Z</time>
      </trkpt>
      <trkpt lat="45.0057" lon="5.57383">
        <ele>2024</ele>
        <time>2019-07-14T12:21:00Z</time>
      </trkpt>
      <trkpt lat="45.00569" lon="5.57384">
        <ele>2024</ele>
        <time>2019-07-14T12:21:02Z</time>
      </trkpt>
      <trkpt lat="45.00568" lon="5.57385">
        <ele>2024</ele>
        <time>2019-07-14T12:21:59Z</time>
      </trkpt>
      <trkpt lat="45.00567" lon="5.57386">
        <ele>2024</ele>
        <time>2019-07-14T12:22:00Z</time>
      </trkpt>
      <trkpt lat="45.00565" lon="5.57388">
        <ele>2024</ele>
        <time>2019-07-14T12:22:01Z</time>
      </trkpt>
      <trkpt lat="45.00563" lon="5.57391">
        <ele>2024</ele>
        <time>2019-07-14T12:22:02Z</time>
      </trkpt>
      <trkpt lat="45.00562" lon="5.57394">
        <ele>2024</ele>
        <time>2019-07-14T12:22:03Z</time>
      </trkpt>
      <trkpt lat="45.00559" lon="5.57397">
        <ele>2024</ele>
        <time>2019-07-14T12:22:04Z</time>
      </trkpt>
      <trkpt lat="45.00555" lon="5.57401">
        <ele>2024</ele>
        <time>2019-07-14T12:22:05Z</time>
      </trkpt>
      <trkpt lat="45.00551" lon="5.57404">
        <ele>2024</ele>
        <time>2019-07-14T12:22:06Z</time>
      </trkpt>
      <trkpt lat="45.00548" lon="5.57407">
        <ele>2025</ele>
        <time>2019-07-14T12:22:07Z</time>
      </trkpt>
      <trkpt lat="45.00544" lon="5.5741">
        <ele>2025</ele>
        <time>2019-07-14T12:22:08Z</time>
      </trkpt>
      <trkpt lat="45.00541" lon="5.57413">
        <ele>2025</ele>
        <time>2019-07-14T12:22:09Z</time>
      </trkpt>
      <trkpt lat="45.00539" lon="5.57414">
        <ele>2026</ele>
        <time>2019-07-14T12:22:10Z</time>
      </trkpt>
      <trkpt lat="45.00538" lon="5.57415">
        <ele>2026</ele>
        <time>2019-07-14T12:22:11Z</time>
      </trkpt>
      <trkpt lat="45.00536" lon="5.57416">
        <ele>2026</ele>
        <time>2019-07-14T12:22:12Z</time>
      </trkpt>
      <trkpt lat="45.00535" lon="5.57417">
        <ele>2026</ele>
        <time>2019-07-14T12:22:13Z</time>
      </trkpt>
      <trkpt lat="45.00534" lon="5.57419">
        <ele>2026</ele>
        <time>2019-07-14T12:22:14Z</time>
      </trkpt>
      <trkpt lat="45.00533" lon="5.57421">
        <ele>2026</ele>
        <time>2019-07-14T12:22:15Z</time>
      </trkpt>
      <trkpt lat="45.00531" lon="5.57423">
        <ele>2026</ele>
        <time>2019-07-14T12:22:16Z</time>
      </trkpt>
      <trkpt lat="45.0053" lon="5.57425">
        <ele>2026</ele>
        <time>2019-07-14T12:22:17Z</time>
      </trkpt>
      <trkpt lat="45.00528" lon="5.57426">
        <ele>2026</ele>
        <time>2019-07-14T12:22:18Z</time>
      </trkpt>
      <trkpt lat="45.00526" lon="5.57428">
        <ele>2027</ele>
        <time>2019-07-14T12:22:19Z</time>
      </trkpt>
      <trkpt lat="45.00525" lon="5.57429">
        <ele>2027</ele>
        <time>2019-07-14T12:22:20Z</time>
      </trkpt>
      <trkpt lat="45.00523" lon="5.57431">
        <ele>2027</ele>
        <time>2019-07-14T12:22:21Z</time>
      </trkpt>
      <trkpt lat="45.00522" lon="5.57432">
        <ele>2027</ele>
        <time>2019-07-14T12:22:22Z</time>
      </trkpt>
      <trkpt lat="45.0052" lon="5.57432">
        <ele>2027</ele>
        <time>2019-07-14T12:22:23Z</time>
      </trkpt>
      <trkpt lat="45.00518" lon="5.57433">
        <ele>2027</ele>
        <time>2019-07-14T12:22:24Z</time>
      </trkpt>
      <trkpt lat="45.00517" lon="5.57434">
        <ele>2027</ele>
        <time>2019-07-14T12:22:25Z</time>
      </trkpt>
      <trkpt lat="45.00515" lon="5.57434">
        <ele>2027</ele>
        <time>2019-07-14T12:22:26Z</time>
      </trkpt>
      <trkpt lat="45.00514" lon="5.57435">
        <ele>2027</ele>
        <time>2019-07-14T12:22:27Z</time>
      </trkpt>
      <trkpt lat="45.00512" lon="5.57436">
        <ele>2027</ele>
        <time>2019-07-14T12:22:28Z</time>
      </trkpt>
      <trkpt lat="45.0051" lon="5.57438">
        <ele>2027</ele>
        <time>2019-07-14T12:22:29Z</time>
      </trkpt>
      <trkpt lat="45.00509" lon="5.57441">
        <ele>2027</ele>
        <time>2019-07-14T12:22:30Z</time>
      </trkpt>
      <trkpt lat="45.00508" lon="5.57442">
        <ele>2027</ele>
        <time>2019-07-14T12:22:31Z</time>
      </trkpt>
      <trkpt lat="45.00507" lon="5.57443">
        <ele>2027</ele>
        <time>2019-07-14T12:22:32Z</time>
      </trkpt>
      <trkpt lat="45.00505" lon="5.57445">
        <ele>2027</ele>
        <time>2019-07-14T12:22:33Z</time>
      </trkpt>
      <trkpt lat="45.00504" lon="5.57447">
        <ele>2027</ele>
        <time>2019-07-14T12:22:34Z</time>
      </trkpt>
      <trkpt lat="45.00503" lon="5.57448">
        <ele>2027</ele>
        <time>2019-07-14T12:22:35Z</time>
      </trkpt>
      <trkpt lat="45.00502" lon="5.5745">
        <ele>2027</ele>
        <time>2019-07-14T12:22:36Z</time>
      </trkpt>
      <trkpt lat="45.00502" lon="5.57453">
        <ele>2027</ele>
        <time>2019-07-14T12:22:37Z</time>
      </trkpt>
      <trkpt lat="45.00501" lon="5.57455">
        <ele>2027</ele>
        <time>2019-07-14T12:22:38Z</time>
      </trkpt>
      <trkpt lat="45.005" lon="5.57457">
        <ele>2036</ele>
        <time>2019-07-14T12:22:39Z</time>
      </trkpt>
      <trkpt lat="45.00499" lon="5.57458">
        <ele>2036</ele>
        <time>2019-07-14T12:22:40Z</time>
      </trkpt>
      <trkpt lat="45.00497" lon="5.57459">
        <ele>2036</ele>
        <time>2019-07-14T12:22:41Z</time>
      </trkpt>
      <trkpt lat="45.00496" lon="5.5746">
        <ele>2036</ele>
        <time>2019-07-14T12:22:42Z</time>
      </trkpt>
      <trkpt lat="45.00494" lon="5.57461">
        <ele>2036</ele>
        <time>2019-07-14T12:22:43Z</time>
      </trkpt>
      <trkpt lat="45.00492" lon="5.57462">
        <ele>2036</ele>
        <time>2019-07-14T12:22:44Z</time>
      </trkpt>
      <trkpt lat="45.00491" lon="5.57463">
        <ele>2036</ele>
        <time>2019-07-14T12:22:45Z</time>
      </trkpt>
      <trkpt lat="45.00489" lon="5.57464">
        <ele>2036</ele>
        <time>2019-07-14T12:22:46Z</time>
      </trkpt>
      <trkpt lat="45.00488" lon="5.57465">
        <ele>2037</ele>
        <time>2019-07-14T12:22:47Z</time>
      </trkpt>
      <trkpt lat="45.00486" lon="5.57466">
        <ele>2037</ele>
        <time>2019-07-14T12:22:48Z</time>
      </trkpt>
      <trkpt lat="45.00485" lon="5.57467">
        <ele>2037</ele>
        <time>2019-07-14T12:22:49Z</time>
      </trkpt>
      <trkpt lat="45.00483" lon="5.57469">
        <ele>2037</ele>
        <time>2019-07-14T12:22:50Z</time>
      </trkpt>
      <trkpt lat="45.00481" lon="5.5747">
        <ele>2037</ele>
        <time>2019-07-14T12:22:51Z</time>
      </trkpt>
      <trkpt lat="45.0048" lon="5.57471">
        <ele>2037</ele>
        <time>2019-07-14T12:22:52Z</time>
      </trkpt>
      <trkpt lat="45.00478" lon="5.57473">
        <ele>2037</ele>
        <time>2019-07-14T12:22:53Z</time>
      </trkpt>
      <trkpt lat="45.00476" lon="5.57475">
        <ele>2037</ele>
        <time>2019-07-14T12:22:54Z</time>
      </trkpt>
      <trkpt lat="45.00475" lon="5.57477">
        <ele>2037</ele>
        <time>2019-07-14T12:22:55Z</time>
      </trkpt>
      <trkpt lat="45.00473" lon="5.57478">
        <ele>2037</ele>
        <time>2019-07-14T12:22:56Z</time>
      </trkpt>
      <trkpt lat="45.00472" lon="5.57481">
        <ele>2037</ele>
        <time>2019-07-14T12:22:57Z</time>
      </trkpt>
      <trkpt lat="45.00471" lon="5.57483">
        <ele>2037</ele>
        <time>2019-07-14T12:22:58Z</time>
      </trkpt>
      <trkpt lat="45.0047" lon="5.57484">
        <ele>2038</ele>
        <time>2019-07-14T12:22:59Z</time>
      </trkpt>
      <trkpt lat="45.00469" lon="5.57486">
        <ele>2038</ele>
        <time>2019-07-14T12:23:00Z</time>
      </trkpt>
      <trkpt lat="45.00468" lon="5.57488">
        <ele>2038</ele>
        <time>2019-07-14T12:23:01Z</time>
      </trkpt>
      <trkpt lat="45.00468" lon="5.5749">
        <ele>2038</ele>
        <time>2019-07-14T12:23:02Z</time>
      </trkpt>
      <trkpt lat="45.00467" lon="5.57492">
        <ele>2038</ele>
        <time>2019-07-14T12:23:03Z</time>
      </trkpt>
      <trkpt lat="45.00466" lon="5.57494">
        <ele>2038</ele>
        <time>2019-07-14T12:23:04Z</time>
      </trkpt>
      <trkpt lat="45.00465" lon="5.57496">
        <ele>2038</ele>
        <time>2019-07-14T12:23:05Z</time>
      </trkpt>
      <trkpt lat="45.00464" lon="5.57497">
        <ele>2038</ele>
        <time>2019-07-14T12:23:06Z</time>
      </trkpt>
      <trkpt lat="45.00463" lon="5.57499">
        <ele>2038</ele>
        <time>2019-07-14T12:23:07Z</time>
      </trkpt>
      <trkpt lat="45.00462" lon="5.575">
        <ele>2036</ele>
        <time>2019-07-14T12:23:08Z</time>
      </trkpt>
      <trkpt lat="45.00462" lon="5.57502">
        <ele>2036</ele>
        <time>2019-07-14T12:23:09Z</time>
      </trkpt>
      <trkpt lat="45.00462" lon="5.57509">
        <ele>2036</ele>
        <time>2019-07-14T12:23:12Z</time>
      </trkpt>
      <trkpt lat="45.00463" lon="5.57512">
        <ele>2036</ele>
        <time>2019-07-14T12:23:13Z</time>
      </trkpt>
      <trkpt lat="45.00464" lon="5.57516">
        <ele>2036</ele>
        <time>2019-07-14T12:23:14Z</time>
      </trkpt>
      <trkpt lat="45.00465" lon="5.5752">
        <ele>2036</ele>
        <time>2019-07-14T12:23:15Z</time>
      </trkpt>
      <trkpt lat="45.00467" lon="5.57524">
        <ele>2035</ele>
        <time>2019-07-14T12:23:16Z</time>
      </trkpt>
      <trkpt lat="45.00469" lon="5.5753">
        <ele>2035</ele>
        <time>2019-07-14T12:23:17Z</time>
      </trkpt>
      <trkpt lat="45.00471" lon="5.57535">
        <ele>2035</ele>
        <time>2019-07-14T12:23:18Z</time>
      </trkpt>
      <trkpt lat="45.00473" lon="5.5754">
        <ele>2035</ele>
        <time>2019-07-14T12:23:19Z</time>
      </trkpt>
      <trkpt lat="45.00474" lon="5.57544">
        <ele>2035</ele>
        <time>2019-07-14T12:23:20Z</time>
      </trkpt>
      <trkpt lat="45.00475" lon="5.57548">
        <ele>2035</ele>
        <time>2019-07-14T12:23:21Z</time>
      </trkpt>
      <trkpt lat="45.00476" lon="5.57552">
        <ele>2035</ele>
        <time>2019-07-14T12:23:22Z</time>
      </trkpt>
      <trkpt lat="45.00477" lon="5.57555">
        <ele>2035</ele>
        <time>2019-07-14T12:23:23Z</time>
      </trkpt>
      <trkpt lat="45.00477" lon="5.57558">
        <ele>2035</ele>
        <time>2019-07-14T12:23:24Z</time>
      </trkpt>
      <trkpt lat="45.00478" lon="5.57565">
        <ele>2035</ele>
        <time>2019-07-14T12:23:26Z</time>
      </trkpt>
      <trkpt lat="45.00478" lon="5.57568">
        <ele>2034</ele>
        <time>2019-07-14T12:23:27Z</time>
      </trkpt>
      <trkpt lat="45.00479" lon="5.57571">
        <ele>2034</ele>
        <time>2019-07-14T12:23:28Z</time>
      </trkpt>
      <trkpt lat="45.0048" lon="5.57574">
        <ele>2034</ele>
        <time>2019-07-14T12:23:29Z</time>
      </trkpt>
      <trkpt lat="45.0048" lon="5.57576">
        <ele>2034</ele>
        <time>2019-07-14T12:23:30Z</time>
      </trkpt>
      <trkpt lat="45.0048" lon="5.57579">
        <ele>2034</ele>
        <time>2019-07-14T12:23:31Z</time>
      </trkpt>
      <trkpt lat="45.00481" lon="5.57582">
        <ele>2034</ele>
        <time>2019-07-14T12:23:32Z</time>
      </trkpt>
      <trkpt lat="45.00481" lon="5.57584">
        <ele>2035</ele>
        <time>2019-07-14T12:23:33Z</time>
      </trkpt>
      <trkpt lat="45.00482" lon="5.57587">
        <ele>2035</ele>
        <time>2019-07-14T12:23:34Z</time>
      </trkpt>
      <trkpt lat="45.00483" lon="5.57589">
        <ele>2035</ele>
        <time>2019-07-14T12:23:35Z</time>
      </trkpt>
      <trkpt lat="45.00483" lon="5.57594">
        <ele>2035</ele>
        <time>2019-07-14T12:23:37Z</time>
      </trkpt>
      <trkpt lat="45.00483" lon="5.57597">
        <ele>2035</ele>
        <time>2019-07-14T12:23:38Z</time>
      </trkpt>
      <trkpt lat="45.00484" lon="5.57602">
        <ele>2035</ele>
        <time>2019-07-14T12:23:40Z</time>
      </trkpt>
      <trkpt lat="45.00484" lon="5.57607">
        <ele>2035</ele>
        <time>2019-07-14T12:23:42Z</time>
      </trkpt>
      <trkpt lat="45.00484" lon="5.57615">
        <ele>2036</ele>
        <time>2019-07-14T12:23:45Z</time>
      </trkpt>
      <trkpt lat="45.00483" lon="5.57618">
        <ele>2036</ele>
        <time>2019-07-14T12:23:46Z</time>
      </trkpt>
      <trkpt lat="45.00483" lon="5.57629">
        <ele>2036</ele>
        <time>2019-07-14T12:23:50Z</time>
      </trkpt>
      <trkpt lat="45.00482" lon="5.57631">
        <ele>2036</ele>
        <time>2019-07-14T12:23:51Z</time>
      </trkpt>
      <trkpt lat="45.00481" lon="5.57633">
        <ele>2036</ele>
        <time>2019-07-14T12:23:52Z</time>
      </trkpt>
      <trkpt lat="45.0048" lon="5.57635">
        <ele>2037</ele>
        <time>2019-07-14T12:23:53Z</time>
      </trkpt>
      <trkpt lat="45.00479" lon="5.57637">
        <ele>2037</ele>
        <time>2019-07-14T12:23:54Z</time>
      </trkpt>
      <trkpt lat="45.00477" lon="5.57639">
        <ele>2037</ele>
        <time>2019-07-14T12:23:55Z</time>
      </trkpt>
      <trkpt lat="45.00476" lon="5.57641">
        <ele>2037</ele>
        <time>2019-07-14T12:23:56Z</time>
      </trkpt>
      <trkpt lat="45.00474" lon="5.57643">
        <ele>2037</ele>
        <time>2019-07-14T12:23:57Z</time>
      </trkpt>
      <trkpt lat="45.00472" lon="5.57643">
        <ele>2037</ele>
        <time>2019-07-14T12:23:58Z</time>
      </trkpt>
      <trkpt lat="45.00471" lon="5.57644">
        <ele>2037</ele>
        <time>2019-07-14T12:23:59Z</time>
      </trkpt>
      <trkpt lat="45.00469" lon="5.57644">
        <ele>2037</ele>
        <time>2019-07-14T12:24:00Z</time>
      </trkpt>
      <trkpt lat="45.00468" lon="5.57645">
        <ele>2037</ele>
        <time>2019-07-14T12:24:01Z</time>
      </trkpt>
      <trkpt lat="45.00466" lon="5.57645">
        <ele>2037</ele>
        <time>2019-07-14T12:24:02Z</time>
      </trkpt>
      <trkpt lat="45.00465" lon="5.57646">
        <ele>2037</ele>
        <time>2019-07-14T12:24:03Z</time>
      </trkpt>
      <trkpt lat="45.00463" lon="5.57646">
        <ele>2037</ele>
        <time>2019-07-14T12:24:04Z</time>
      </trkpt>
      <trkpt lat="45.00462" lon="5.57647">
        <ele>2037</ele>
        <time>2019-07-14T12:24:05Z</time>
      </trkpt>
      <trkpt lat="45.00461" lon="5.57649">
        <ele>2037</ele>
        <time>2019-07-14T12:24:06Z</time>
      </trkpt>
      <trkpt lat="45.0046" lon="5.57651">
        <ele>2037</ele>
        <time>2019-07-14T12:24:07Z</time>
      </trkpt>
      <trkpt lat="45.00459" lon="5.57653">
        <ele>2038</ele>
        <time>2019-07-14T12:24:08Z</time>
      </trkpt>
      <trkpt lat="45.00458" lon="5.57654">
        <ele>2038</ele>
        <time>2019-07-14T12:24:09Z</time>
      </trkpt>
      <trkpt lat="45.00456" lon="5.57656">
        <ele>2038</ele>
        <time>2019-07-14T12:24:10Z</time>
      </trkpt>
      <trkpt lat="45.00455" lon="5.57659">
        <ele>2038</ele>
        <time>2019-07-14T12:24:11Z</time>
      </trkpt>
      <trkpt lat="45.00454" lon="5.57661">
        <ele>2038</ele>
        <time>2019-07-14T12:24:12Z</time>
      </trkpt>
      <trkpt lat="45.00452" lon="5.57664">
        <ele>2038</ele>
        <time>2019-07-14T12:24:13Z</time>
      </trkpt>
      <trkpt lat="45.00451" lon="5.57666">
        <ele>2038</ele>
        <time>2019-07-14T12:24:14Z</time>
      </trkpt>
      <trkpt lat="45.00451" lon="5.57668">
        <ele>2044</ele>
        <time>2019-07-14T12:24:15Z</time>
      </trkpt>
      <trkpt lat="45.0045" lon="5.5767">
        <ele>2044</ele>
        <time>2019-07-14T12:24:16Z</time>
      </trkpt>
      <trkpt lat="45.00449" lon="5.57672">
        <ele>2044</ele>
        <time>2019-07-14T12:24:17Z</time>
      </trkpt>
      <trkpt lat="45.00449" lon="5.57674">
        <ele>2044</ele>
        <time>2019-07-14T12:24:18Z</time>
      </trkpt>
      <trkpt lat="45.00448" lon="5.57678">
        <ele>2044</ele>
        <time>2019-07-14T12:24:20Z</time>
      </trkpt>
      <trkpt lat="45.00447" lon="5.5768">
        <ele>2045</ele>
        <time>2019-07-14T12:24:21Z</time>
      </trkpt>
      <trkpt lat="45.00446" lon="5.57683">
        <ele>2045</ele>
        <time>2019-07-14T12:24:22Z</time>
      </trkpt>
      <trkpt lat="45.00445" lon="5.57685">
        <ele>2045</ele>
        <time>2019-07-14T12:24:23Z</time>
      </trkpt>
      <trkpt lat="45.00444" lon="5.57688">
        <ele>2045</ele>
        <time>2019-07-14T12:24:24Z</time>
      </trkpt>
      <trkpt lat="45.00442" lon="5.5769">
        <ele>2045</ele>
        <time>2019-07-14T12:24:25Z</time>
      </trkpt>
      <trkpt lat="45.00441" lon="5.57692">
        <ele>2045</ele>
        <time>2019-07-14T12:24:26Z</time>
      </trkpt>
      <trkpt lat="45.0044" lon="5.57693">
        <ele>2046</ele>
        <time>2019-07-14T12:24:27Z</time>
      </trkpt>
      <trkpt lat="45.00438" lon="5.57694">
        <ele>2046</ele>
        <time>2019-07-14T12:24:28Z</time>
      </trkpt>
      <trkpt lat="45.00436" lon="5.57696">
        <ele>2046</ele>
        <time>2019-07-14T12:24:29Z</time>
      </trkpt>
      <trkpt lat="45.00434" lon="5.57697">
        <ele>2046</ele>
        <time>2019-07-14T12:24:30Z</time>
      </trkpt>
      <trkpt lat="45.00433" lon="5.57699">
        <ele>2046</ele>
        <time>2019-07-14T12:24:31Z</time>
      </trkpt>
      <trkpt lat="45.0043" lon="5.577">
        <ele>2046</ele>
        <time>2019-07-14T12:24:32Z</time>
      </trkpt>
      <trkpt lat="45.00428" lon="5.57701">
        <ele>2046</ele>
        <time>2019-07-14T12:24:33Z</time>
      </trkpt>
      <trkpt lat="45.00427" lon="5.57703">
        <ele>2047</ele>
        <time>2019-07-14T12:24:34Z</time>
      </trkpt>
      <trkpt lat="45.00425" lon="5.57705">
        <ele>2047</ele>
        <time>2019-07-14T12:24:35Z</time>
      </trkpt>
      <trkpt lat="45.00424" lon="5.57707">
        <ele>2047</ele>
        <time>2019-07-14T12:24:36Z</time>
      </trkpt>
      <trkpt lat="45.00423" lon="5.57708">
        <ele>2047</ele>
        <time>2019-07-14T12:24:37Z</time>
      </trkpt>
      <trkpt lat="45.00422" lon="5.5771">
        <ele>2047</ele>
        <time>2019-07-14T12:24:38Z</time>
      </trkpt>
      <trkpt lat="45.0042" lon="5.57711">
        <ele>2048</ele>
        <time>2019-07-14T12:24:39Z</time>
      </trkpt>
      <trkpt lat="45.00419" lon="5.57713">
        <ele>2048</ele>
        <time>2019-07-14T12:24:40Z</time>
      </trkpt>
      <trkpt lat="45.00417" lon="5.57713">
        <ele>2048</ele>
        <time>2019-07-14T12:24:41Z</time>
      </trkpt>
      <trkpt lat="45.00415" lon="5.57714">
        <ele>2053</ele>
        <time>2019-07-14T12:24:42Z</time>
      </trkpt>
      <trkpt lat="45.00414" lon="5.57715">
        <ele>2053</ele>
        <time>2019-07-14T12:24:43Z</time>
      </trkpt>
      <trkpt lat="45.00412" lon="5.57717">
        <ele>2053</ele>
        <time>2019-07-14T12:24:44Z</time>
      </trkpt>
      <trkpt lat="45.00411" lon="5.57719">
        <ele>2053</ele>
        <time>2019-07-14T12:24:45Z</time>
      </trkpt>
      <trkpt lat="45.00409" lon="5.57721">
        <ele>2053</ele>
        <time>2019-07-14T12:24:46Z</time>
      </trkpt>
      <trkpt lat="45.00408" lon="5.57723">
        <ele>2053</ele>
        <time>2019-07-14T12:24:47Z</time>
      </trkpt>
      <trkpt lat="45.00407" lon="5.57725">
        <ele>2054</ele>
        <time>2019-07-14T12:24:48Z</time>
      </trkpt>
      <trkpt lat="45.00406" lon="5.57726">
        <ele>2054</ele>
        <time>2019-07-14T12:24:49Z</time>
      </trkpt>
      <trkpt lat="45.00398" lon="5.5773">
        <ele>2054</ele>
        <time>2019-07-14T12:26:45Z</time>
      </trkpt>
      <trkpt lat="45.00392" lon="5.57719">
        <ele>2054</ele>
        <time>2019-07-14T12:40:49Z</time>
      </trkpt>
      <trkpt lat="45.004" lon="5.57715">
        <ele>2053</ele>
        <time>2019-07-14T12:44:23Z</time>
      </trkpt>
      <trkpt lat="45.00401" lon="5.57715">
        <ele>2053</ele>
        <time>2019-07-14T12:44:24Z</time>
      </trkpt>
      <trkpt lat="45.004" lon="5.57715">
        <ele>2053</ele>
        <time>2019-07-14T12:44:25Z</time>
      </trkpt>
      <trkpt lat="45.00401" lon="5.57714">
        <ele>2053</ele>
        <time>2019-07-14T12:44:40Z</time>
      </trkpt>
      <trkpt lat="45.00403" lon="5.57712">
        <ele>2053</ele>
        <time>2019-07-14T12:44:41Z</time>
      </trkpt>
      <trkpt lat="45.00403" lon="5.5771">
        <ele>2053</ele>
        <time>2019-07-14T12:44:42Z</time>
      </trkpt>
      <trkpt lat="45.00403" lon="5.57709">
        <ele>2052</ele>
        <time>2019-07-14T12:44:43Z</time>
      </trkpt>
      <trkpt lat="45.00402" lon="5.57709">
        <ele>2052</ele>
        <time>2019-07-14T12:44:44Z</time>
      </trkpt>
      <trkpt lat="45.00402" lon="5.57708">
        <ele>2052</ele>
        <time>2019-07-14T12:44:45Z</time>
      </trkpt>
      <trkpt lat="45.00401" lon="5.57714">
        <ele>2053</ele>
        <time>2019-07-14T12:45:02Z</time>
      </trkpt>
      <trkpt lat="45.004" lon="5.57717">
        <ele>2053</ele>
        <time>2019-07-14T12:45:03Z</time>
      </trkpt>
      <trkpt lat="45.00401" lon="5.57718">
        <ele>2053</ele>
        <time>2019-07-14T12:45:04Z</time>
      </trkpt>
      <trkpt lat="45.00401" lon="5.57719">
        <ele>2053</ele>
        <time>2019-07-14T12:45:05Z</time>
      </trkpt>
      <trkpt lat="45.00402" lon="5.5772">
        <ele>2053</ele>
        <time>2019-07-14T12:45:06Z</time>
      </trkpt>
      <trkpt lat="45.00404" lon="5.5772">
        <ele>2053</ele>
        <time>2019-07-14T12:45:13Z</time>
      </trkpt>
      <trkpt lat="45.00406" lon="5.5772">
        <ele>2053</ele>
        <time>2019-07-14T12:45:14Z</time>
      </trkpt>
      <trkpt lat="45.00407" lon="5.5772">
        <ele>2053</ele>
        <time>2019-07-14T12:45:15Z</time>
      </trkpt>
      <trkpt lat="45.00408" lon="5.57719">
        <ele>2053</ele>
        <time>2019-07-14T12:45:16Z</time>
      </trkpt>
      <trkpt lat="45.00409" lon="5.57719">
        <ele>2053</ele>
        <time>2019-07-14T12:45:17Z</time>
      </trkpt>
      <trkpt lat="45.00412" lon="5.57718">
        <ele>2053</ele>
        <time>2019-07-14T12:45:18Z</time>
      </trkpt>
      <trkpt lat="45.00414" lon="5.57717">
        <ele>2053</ele>
        <time>2019-07-14T12:45:19Z</time>
      </trkpt>
      <trkpt lat="45.00417" lon="5.57715">
        <ele>2048</ele>
        <time>2019-07-14T12:45:20Z</time>
      </trkpt>
      <trkpt lat="45.0042" lon="5.57713">
        <ele>2048</ele>
        <time>2019-07-14T12:45:21Z</time>
      </trkpt>
      <trkpt lat="45.00423" lon="5.5771">
        <ele>2047</ele>
        <time>2019-07-14T12:45:22Z</time>
      </trkpt>
      <trkpt lat="45.00427" lon="5.57706">
        <ele>2047</ele>
        <time>2019-07-14T12:45:23Z</time>
      </trkpt>
      <trkpt lat="45.0043" lon="5.57701">
        <ele>2046</ele>
        <time>2019-07-14T12:45:24Z</time>
      </trkpt>
      <trkpt lat="45.00435" lon="5.57697">
        <ele>2046</ele>
        <time>2019-07-14T12:45:25Z</time>
      </trkpt>
      <trkpt lat="45.00439" lon="5.57693">
        <ele>2046</ele>
        <time>2019-07-14T12:45:26Z</time>
      </trkpt>
      <trkpt lat="45.00443" lon="5.57689">
        <ele>2045</ele>
        <time>2019-07-14T12:45:27Z</time>
      </trkpt>
      <trkpt lat="45.00446" lon="5.57683">
        <ele>2045</ele>
        <time>2019-07-14T12:45:28Z</time>
      </trkpt>
      <trkpt lat="45.00448" lon="5.57676">
        <ele>2044</ele>
        <time>2019-07-14T12:45:29Z</time>
      </trkpt>
      <trkpt lat="45.00451" lon="5.57668">
        <ele>2044</ele>
        <time>2019-07-14T12:45:30Z</time>
      </trkpt>
      <trkpt lat="45.00454" lon="5.5766">
        <ele>2038</ele>
        <time>2019-07-14T12:45:31Z</time>
      </trkpt>
      <trkpt lat="45.00457" lon="5.57653">
        <ele>2038</ele>
        <time>2019-07-14T12:45:32Z</time>
      </trkpt>
      <trkpt lat="45.00461" lon="5.57648">
        <ele>2037</ele>
        <time>2019-07-14T12:45:33Z</time>
      </trkpt>
      <trkpt lat="45.00465" lon="5.57646">
        <ele>2037</ele>
        <time>2019-07-14T12:45:34Z</time>
      </trkpt>
      <trkpt lat="45.00469" lon="5.57643">
        <ele>2037</ele>
        <time>2019-07-14T12:45:35Z</time>
      </trkpt>
      <trkpt lat="45.00473" lon="5.5764">
        <ele>2037</ele>
        <time>2019-07-14T12:45:36Z</time>
      </trkpt>
      <trkpt lat="45.00477" lon="5.57635">
        <ele>2037</ele>
        <time>2019-07-14T12:45:37Z</time>
      </trkpt>
      <trkpt lat="45.00479" lon="5.57631">
        <ele>2036</ele>
        <time>2019-07-14T12:45:38Z</time>
      </trkpt>
      <trkpt lat="45.0048" lon="5.57627">
        <ele>2036</ele>
        <time>2019-07-14T12:45:39Z</time>
      </trkpt>
      <trkpt lat="45.0048" lon="5.57622">
        <ele>2036</ele>
        <time>2019-07-14T12:45:40Z</time>
      </trkpt>
      <trkpt lat="45.00481" lon="5.57617">
        <ele>2036</ele>
        <time>2019-07-14T12:45:41Z</time>
      </trkpt>
      <trkpt lat="45.00481" lon="5.57612">
        <ele>2036</ele>
        <time>2019-07-14T12:45:42Z</time>
      </trkpt>
      <trkpt lat="45.00482" lon="5.57606">
        <ele>2035</ele>
        <time>2019-07-14T12:45:43Z</time>
      </trkpt>
      <trkpt lat="45.00481" lon="5.57601">
        <ele>2035</ele>
        <time>2019-07-14T12:45:44Z</time>
      </trkpt>
      <trkpt lat="45.0048" lon="5.57595">
        <ele>2035</ele>
        <time>2019-07-14T12:45:45Z</time>
      </trkpt>
      <trkpt lat="45.0048" lon="5.57588">
        <ele>2035</ele>
        <time>2019-07-14T12:45:46Z</time>
      </trkpt>
      <trkpt lat="45.00479" lon="5.57581">
        <ele>2034</ele>
        <time>2019-07-14T12:45:47Z</time>
      </trkpt>
      <trkpt lat="45.00478" lon="5.57574">
        <ele>2034</ele>
        <time>2019-07-14T12:45:48Z</time>
      </trkpt>
      <trkpt lat="45.00477" lon="5.57569">
        <ele>2035</ele>
        <time>2019-07-14T12:45:49Z</time>
      </trkpt>
      <trkpt lat="45.00476" lon="5.57565">
        <ele>2035</ele>
        <time>2019-07-14T12:45:50Z</time>
      </trkpt>
      <trkpt lat="45.00475" lon="5.57561">
        <ele>2035</ele>
        <time>2019-07-14T12:45:51Z</time>
      </trkpt>
      <trkpt lat="45.00475" lon="5.57555">
        <ele>2035</ele>
        <time>2019-07-14T12:45:53Z</time>
      </trkpt>
      <trkpt lat="45.00474" lon="5.57552">
        <ele>2035</ele>
        <time>2019-07-14T12:45:54Z</time>
      </trkpt>
      <trkpt lat="45.00473" lon="5.57549">
        <ele>2035</ele>
        <time>2019-07-14T12:45:55Z</time>
      </trkpt>
      <trkpt lat="45.00473" lon="5.57546">
        <ele>2035</ele>
        <time>2019-07-14T12:45:56Z</time>
      </trkpt>
      <trkpt lat="45.00472" lon="5.57543">
        <ele>2035</ele>
        <time>2019-07-14T12:45:57Z</time>
      </trkpt>
      <trkpt lat="45.00472" lon="5.57537">
        <ele>2035</ele>
        <time>2019-07-14T12:45:59Z</time>
      </trkpt>
      <trkpt lat="45.00471" lon="5.57534">
        <ele>2035</ele>
        <time>2019-07-14T12:46:00Z</time>
      </trkpt>
      <trkpt lat="45.0047" lon="5.57531">
        <ele>2035</ele>
        <time>2019-07-14T12:46:01Z</time>
      </trkpt>
      <trkpt lat="45.00468" lon="5.57528">
        <ele>2035</ele>
        <time>2019-07-14T12:46:02Z</time>
      </trkpt>
      <trkpt lat="45.00467" lon="5.57526">
        <ele>2035</ele>
        <time>2019-07-14T12:46:03Z</time>
      </trkpt>
      <trkpt lat="45.00466" lon="5.57523">
        <ele>2035</ele>
        <time>2019-07-14T12:46:04Z</time>
      </trkpt>
      <trkpt lat="45.00464" lon="5.57521">
        <ele>2036</ele>
        <time>2019-07-14T12:46:05Z</time>
      </trkpt>
      <trkpt lat="45.00463" lon="5.57519">
        <ele>2036</ele>
        <time>2019-07-14T12:46:06Z</time>
      </trkpt>
      <trkpt lat="45.00462" lon="5.57517">
        <ele>2036</ele>
        <time>2019-07-14T12:46:07Z</time>
      </trkpt>
      <trkpt lat="45.00461" lon="5.57514">
        <ele>2036</ele>
        <time>2019-07-14T12:46:08Z</time>
      </trkpt>
      <trkpt lat="45.0046" lon="5.57512">
        <ele>2036</ele>
        <time>2019-07-14T12:46:09Z</time>
      </trkpt>
      <trkpt lat="45.0046" lon="5.57505">
        <ele>2036</ele>
        <time>2019-07-14T12:46:12Z</time>
      </trkpt>
      <trkpt lat="45.00461" lon="5.57503">
        <ele>2036</ele>
        <time>2019-07-14T12:46:13Z</time>
      </trkpt>
      <trkpt lat="45.00462" lon="5.57498">
        <ele>2038</ele>
        <time>2019-07-14T12:46:38Z</time>
      </trkpt>
      <trkpt lat="45.00463" lon="5.57495">
        <ele>2038</ele>
        <time>2019-07-14T12:46:39Z</time>
      </trkpt>
      <trkpt lat="45.00465" lon="5.57491">
        <ele>2038</ele>
        <time>2019-07-14T12:46:40Z</time>
      </trkpt>
      <trkpt lat="45.00468" lon="5.57487">
        <ele>2038</ele>
        <time>2019-07-14T12:46:41Z</time>
      </trkpt>
      <trkpt lat="45.00471" lon="5.57482">
        <ele>2037</ele>
        <time>2019-07-14T12:46:42Z</time>
      </trkpt>
      <trkpt lat="45.00473" lon="5.57478">
        <ele>2037</ele>
        <time>2019-07-14T12:46:43Z</time>
      </trkpt>
      <trkpt lat="45.00476" lon="5.57473">
        <ele>2037</ele>
        <time>2019-07-14T12:46:44Z</time>
      </trkpt>
      <trkpt lat="45.00478" lon="5.5747">
        <ele>2037</ele>
        <time>2019-07-14T12:46:45Z</time>
      </trkpt>
      <trkpt lat="45.00481" lon="5.57466">
        <ele>2037</ele>
        <time>2019-07-14T12:46:46Z</time>
      </trkpt>
      <trkpt lat="45.00484" lon="5.57464">
        <ele>2037</ele>
        <time>2019-07-14T12:46:47Z</time>
      </trkpt>
      <trkpt lat="45.00487" lon="5.57462">
        <ele>2037</ele>
        <time>2019-07-14T12:46:48Z</time>
      </trkpt>
      <trkpt lat="45.0049" lon="5.5746">
        <ele>2037</ele>
        <time>2019-07-14T12:46:49Z</time>
      </trkpt>
      <trkpt lat="45.00493" lon="5.57458">
        <ele>2036</ele>
        <time>2019-07-14T12:46:50Z</time>
      </trkpt>
      <trkpt lat="45.00495" lon="5.57457">
        <ele>2036</ele>
        <time>2019-07-14T12:46:51Z</time>
      </trkpt>
      <trkpt lat="45.00497" lon="5.57456">
        <ele>2036</ele>
        <time>2019-07-14T12:46:52Z</time>
      </trkpt>
      <trkpt lat="45.00499" lon="5.57454">
        <ele>2036</ele>
        <time>2019-07-14T12:46:53Z</time>
      </trkpt>
      <trkpt lat="45.005" lon="5.57453">
        <ele>2027</ele>
        <time>2019-07-14T12:46:54Z</time>
      </trkpt>
      <trkpt lat="45.00502" lon="5.57452">
        <ele>2027</ele>
        <time>2019-07-14T12:46:55Z</time>
      </trkpt>
      <trkpt lat="45.00504" lon="5.57449">
        <ele>2027</ele>
        <time>2019-07-14T12:46:56Z</time>
      </trkpt>
      <trkpt lat="45.00505" lon="5.57447">
        <ele>2027</ele>
        <time>2019-07-14T12:46:57Z</time>
      </trkpt>
      <trkpt lat="45.00507" lon="5.57444">
        <ele>2027</ele>
        <time>2019-07-14T12:46:58Z</time>
      </trkpt>
      <trkpt lat="45.00508" lon="5.57442">
        <ele>2027</ele>
        <time>2019-07-14T12:46:59Z</time>
      </trkpt>
      <trkpt lat="45.00509" lon="5.57439">
        <ele>2027</ele>
        <time>2019-07-14T12:47:00Z</time>
      </trkpt>
      <trkpt lat="45.00511" lon="5.57437">
        <ele>2027</ele>
        <time>2019-07-14T12:47:01Z</time>
      </trkpt>
      <trkpt lat="45.00512" lon="5.57436">
        <ele>2027</ele>
        <time>2019-07-14T12:47:02Z</time>
      </trkpt>
      <trkpt lat="45.00512" lon="5.57437">
        <ele>2027</ele>
        <time>2019-07-14T12:47:04Z</time>
      </trkpt>
      <trkpt lat="45.00514" lon="5.57437">
        <ele>2027</ele>
        <time>2019-07-14T12:47:30Z</time>
      </trkpt>
      <trkpt lat="45.00516" lon="5.57436">
        <ele>2027</ele>
        <time>2019-07-14T12:47:31Z</time>
      </trkpt>
      <trkpt lat="45.00519" lon="5.57435">
        <ele>2027</ele>
        <time>2019-07-14T12:47:32Z</time>
      </trkpt>
      <trkpt lat="45.00523" lon="5.57432">
        <ele>2027</ele>
        <time>2019-07-14T12:47:33Z</time>
      </trkpt>
      <trkpt lat="45.00527" lon="5.5743">
        <ele>2026</ele>
        <time>2019-07-14T12:47:34Z</time>
      </trkpt>
      <trkpt lat="45.00531" lon="5.57426">
        <ele>2026</ele>
        <time>2019-07-14T12:47:35Z</time>
      </trkpt>
      <trkpt lat="45.00534" lon="5.57422">
        <ele>2026</ele>
        <time>2019-07-14T12:47:36Z</time>
      </trkpt>
      <trkpt lat="45.00537" lon="5.57418">
        <ele>2026</ele>
        <time>2019-07-14T12:47:37Z</time>
      </trkpt>
      <trkpt lat="45.00541" lon="5.57414">
        <ele>2025</ele>
        <time>2019-07-14T12:47:38Z</time>
      </trkpt>
      <trkpt lat="45.00545" lon="5.5741">
        <ele>2025</ele>
        <time>2019-07-14T12:47:39Z</time>
      </trkpt>
      <trkpt lat="45.00549" lon="5.57406">
        <ele>2025</ele>
        <time>2019-07-14T12:47:40Z</time>
      </trkpt>
      <trkpt lat="45.00553" lon="5.57403">
        <ele>2024</ele>
        <time>2019-07-14T12:47:41Z</time>
      </trkpt>
      <trkpt lat="45.00555" lon="5.57401">
        <ele>2024</ele>
        <time>2019-07-14T12:47:42Z</time>
      </trkpt>
      <trkpt lat="45.00557" lon="5.57398">
        <ele>2024</ele>
        <time>2019-07-14T12:47:43Z</time>
      </trkpt>
      <trkpt lat="45.00559" lon="5.57397">
        <ele>2024</ele>
        <time>2019-07-14T12:47:44Z</time>
      </trkpt>
      <trkpt lat="45.0056" lon="5.57396">
        <ele>2024</ele>
        <time>2019-07-14T12:47:45Z</time>
      </trkpt>
      <trkpt lat="45.00562" lon="5.57394">
        <ele>2024</ele>
        <time>2019-07-14T12:47:46Z</time>
      </trkpt>
      <trkpt lat="45.00564" lon="5.57392">
        <ele>2024</ele>
        <time>2019-07-14T12:47:47Z</time>
      </trkpt>
      <trkpt lat="45.00565" lon="5.5739">
        <ele>2024</ele>
        <time>2019-07-14T12:47:48Z</time>
      </trkpt>
      <trkpt lat="45.00566" lon="5.57388">
        <ele>2024</ele>
        <time>2019-07-14T12:47:49Z</time>
      </trkpt>
      <trkpt lat="45.00567" lon="5.57386">
        <ele>2024</ele>
        <time>2019-07-14T12:47:50Z</time>
      </trkpt>
      <trkpt lat="45.00568" lon="5.57386">
        <ele>2024</ele>
        <time>2019-07-14T12:47:51Z</time>
      </trkpt>
      <trkpt lat="45.00569" lon="5.57383">
        <ele>2024</ele>
        <time>2019-07-14T12:48:23Z</time>
      </trkpt>
      <trkpt lat="45.00571" lon="5.57379">
        <ele>2023</ele>
        <time>2019-07-14T12:48:24Z</time>
      </trkpt>
      <trkpt lat="45.00573" lon="5.57376">
        <ele>2023</ele>
        <time>2019-07-14T12:48:25Z</time>
      </trkpt>
      <trkpt lat="45.00575" lon="5.57373">
        <ele>2023</ele>
        <time>2019-07-14T12:48:26Z</time>
      </trkpt>
      <trkpt lat="45.00577" lon="5.57369">
        <ele>2023</ele>
        <time>2019-07-14T12:48:27Z</time>
      </trkpt>
      <trkpt lat="45.00579" lon="5.57366">
        <ele>2023</ele>
        <time>2019-07-14T12:48:28Z</time>
      </trkpt>
      <trkpt lat="45.00581" lon="5.57364">
        <ele>2023</ele>
        <time>2019-07-14T12:48:29Z</time>
      </trkpt>
      <trkpt lat="45.00583" lon="5.57363">
        <ele>2023</ele>
        <time>2019-07-14T12:48:30Z</time>
      </trkpt>
      <trkpt lat="45.00585" lon="5.57361">
        <ele>2017</ele>
        <time>2019-07-14T12:48:31Z</time>
      </trkpt>
      <trkpt lat="45.00587" lon="5.5736">
        <ele>2017</ele>
        <time>2019-07-14T12:48:32Z</time>
      </trkpt>
      <trkpt lat="45.00589" lon="5.5736">
        <ele>2017</ele>
        <time>2019-07-14T12:48:33Z</time>
      </trkpt>
      <trkpt lat="45.00591" lon="5.57358">
        <ele>2017</ele>
        <time>2019-07-14T12:48:34Z</time>
      </trkpt>
      <trkpt lat="45.00593" lon="5.57357">
        <ele>2017</ele>
        <time>2019-07-14T12:48:35Z</time>
      </trkpt>
      <trkpt lat="45.00595" lon="5.57355">
        <ele>2016</ele>
        <time>2019-07-14T12:48:36Z</time>
      </trkpt>
      <trkpt lat="45.00597" lon="5.57354">
        <ele>2016</ele>
        <time>2019-07-14T12:48:37Z</time>
      </trkpt>
      <trkpt lat="45.006" lon="5.57352">
        <ele>2016</ele>
        <time>2019-07-14T12:48:38Z</time>
      </trkpt>
      <trkpt lat="45.00604" lon="5.5735">
        <ele>2016</ele>
        <time>2019-07-14T12:48:39Z</time>
      </trkpt>
      <trkpt lat="45.00609" lon="5.57347">
        <ele>2016</ele>
        <time>2019-07-14T12:48:40Z</time>
      </trkpt>
      <trkpt lat="45.00613" lon="5.57344">
        <ele>2016</ele>
        <time>2019-07-14T12:48:41Z</time>
      </trkpt>
      <trkpt lat="45.00618" lon="5.5734">
        <ele>2015</ele>
        <time>2019-07-14T12:48:42Z</time>
      </trkpt>
      <trkpt lat="45.00622" lon="5.57337">
        <ele>2015</ele>
        <time>2019-07-14T12:48:43Z</time>
      </trkpt>
      <trkpt lat="45.00627" lon="5.57332">
        <ele>2012</ele>
        <time>2019-07-14T12:48:44Z</time>
      </trkpt>
      <trkpt lat="45.00631" lon="5.57327">
        <ele>2012</ele>
        <time>2019-07-14T12:48:45Z</time>
      </trkpt>
      <trkpt lat="45.00635" lon="5.57323">
        <ele>2011</ele>
        <time>2019-07-14T12:48:46Z</time>
      </trkpt>
      <trkpt lat="45.0064" lon="5.57319">
        <ele>2011</ele>
        <time>2019-07-14T12:48:47Z</time>
      </trkpt>
      <trkpt lat="45.00644" lon="5.57317">
        <ele>2011</ele>
        <time>2019-07-14T12:48:48Z</time>
      </trkpt>
      <trkpt lat="45.00649" lon="5.57314">
        <ele>2011</ele>
        <time>2019-07-14T12:48:49Z</time>
      </trkpt>
      <trkpt lat="45.00653" lon="5.57312">
        <ele>2010</ele>
        <time>2019-07-14T12:48:50Z</time>
      </trkpt>
      <trkpt lat="45.00657" lon="5.5731">
        <ele>2010</ele>
        <time>2019-07-14T12:48:51Z</time>
      </trkpt>
      <trkpt lat="45.00662" lon="5.57308">
        <ele>2010</ele>
        <time>2019-07-14T12:48:52Z</time>
      </trkpt>
      <trkpt lat="45.00667" lon="5.57305">
        <ele>2006</ele>
        <time>2019-07-14T12:48:53Z</time>
      </trkpt>
      <trkpt lat="45.00671" lon="5.57303">
        <ele>2005</ele>
        <time>2019-07-14T12:48:54Z</time>
      </trkpt>
      <trkpt lat="45.00676" lon="5.573">
        <ele>2005</ele>
        <time>2019-07-14T12:48:55Z</time>
      </trkpt>
      <trkpt lat="45.0068" lon="5.57298">
        <ele>2005</ele>
        <time>2019-07-14T12:48:56Z</time>
      </trkpt>
      <trkpt lat="45.00684" lon="5.57295">
        <ele>2004</ele>
        <time>2019-07-14T12:48:57Z</time>
      </trkpt>
      <trkpt lat="45.00688" lon="5.57291">
        <ele>2004</ele>
        <time>2019-07-14T12:48:58Z</time>
      </trkpt>
      <trkpt lat="45.00691" lon="5.57288">
        <ele>2004</ele>
        <time>2019-07-14T12:48:59Z</time>
      </trkpt>
      <trkpt lat="45.00694" lon="5.57284">
        <ele>2003</ele>
        <time>2019-07-14T12:49:00Z</time>
      </trkpt>
      <trkpt lat="45.00698" lon="5.57281">
        <ele>2003</ele>
        <time>2019-07-14T12:49:01Z</time>
      </trkpt>
      <trkpt lat="45.00701" lon="5.57279">
        <ele>2003</ele>
        <time>2019-07-14T12:49:02Z</time>
      </trkpt>
      <trkpt lat="45.00704" lon="5.57277">
        <ele>2002</ele>
        <time>2019-07-14T12:49:03Z</time>
      </trkpt>
      <trkpt lat="45.00708" lon="5.57276">
        <ele>2002</ele>
        <time>2019-07-14T12:49:04Z</time>
      </trkpt>
      <trkpt lat="45.00711" lon="5.57276">
        <ele>2002</ele>
        <time>2019-07-14T12:49:05Z</time>
      </trkpt>
      <trkpt lat="45.00715" lon="5.57275">
        <ele>2002</ele>
        <time>2019-07-14T12:49:06Z</time>
      </trkpt>
      <trkpt lat="45.0072" lon="5.57274">
        <ele>2001</ele>
        <time>2019-07-14T12:49:07Z</time>
      </trkpt>
      <trkpt lat="45.00724" lon="5.57272">
        <ele>2001</ele>
        <time>2019-07-14T12:49:08Z</time>
      </trkpt>
      <trkpt lat="45.00728" lon="5.57269">
        <ele>2000</ele>
        <time>2019-07-14T12:49:09Z</time>
      </trkpt>
      <trkpt lat="45.00732" lon="5.57266">
        <ele>1999</ele>
        <time>2019-07-14T12:49:10Z</time>
      </trkpt>
      <trkpt lat="45.00735" lon="5.57262">
        <ele>1998</ele>
        <time>2019-07-14T12:49:11Z</time>
      </trkpt>
      <trkpt lat="45.00738" lon="5.57259">
        <ele>1996</ele>
        <time>2019-07-14T12:49:12Z</time>
      </trkpt>
      <trkpt lat="45.00741" lon="5.57256">
        <ele>1995</ele>
        <time>2019-07-14T12:49:13Z</time>
      </trkpt>
      <trkpt lat="45.00744" lon="5.57253">
        <ele>1993</ele>
        <time>2019-07-14T12:49:14Z</time>
      </trkpt>
      <trkpt lat="45.00748" lon="5.5725">
        <ele>1990</ele>
        <time>2019-07-14T12:49:15Z</time>
      </trkpt>
      <trkpt lat="45.00752" lon="5.57247">
        <ele>1988</ele>
        <time>2019-07-14T12:49:16Z</time>
      </trkpt>
      <trkpt lat="45.00755" lon="5.57243">
        <ele>1985</ele>
        <time>2019-07-14T12:49:17Z</time>
      </trkpt>
      <trkpt lat="45.00759" lon="5.57241">
        <ele>1983</ele>
        <time>2019-07-14T12:49:18Z</time>
      </trkpt>
      <trkpt lat="45.00763" lon="5.57239">
        <ele>1982</ele>
        <time>2019-07-14T12:49:19Z</time>
      </trkpt>
      <trkpt lat="45.00768" lon="5.57237">
        <ele>1980</ele>
        <time>2019-07-14T12:49:20Z</time>
      </trkpt>
      <trkpt lat="45.00772" lon="5.57235">
        <ele>1979</ele>
        <time>2019-07-14T12:49:21Z</time>
      </trkpt>
      <trkpt lat="45.00778" lon="5.57232">
        <ele>1978</ele>
        <time>2019-07-14T12:49:22Z</time>
      </trkpt>
      <trkpt lat="45.00784" lon="5.57228">
        <ele>1977</ele>
        <time>2019-07-14T12:49:23Z</time>
      </trkpt>
      <trkpt lat="45.00788" lon="5.57226">
        <ele>1976</ele>
        <time>2019-07-14T12:49:24Z</time>
      </trkpt>
      <trkpt lat="45.00793" lon="5.57224">
        <ele>1975</ele>
        <time>2019-07-14T12:49:25Z</time>
      </trkpt>
      <trkpt lat="45.00797" lon="5.57222">
        <ele>1975</ele>
        <time>2019-07-14T12:49:26Z</time>
      </trkpt>
      <trkpt lat="45.00801" lon="5.5722">
        <ele>1974</ele>
        <time>2019-07-14T12:49:27Z</time>
      </trkpt>
      <trkpt lat="45.00805" lon="5.57219">
        <ele>1974</ele>
        <time>2019-07-14T12:49:28Z</time>
      </trkpt>
      <trkpt lat="45.00809" lon="5.57218">
        <ele>1974</ele>
        <time>2019-07-14T12:49:29Z</time>
      </trkpt>
      <trkpt lat="45.00813" lon="5.57217">
        <ele>1974</ele>
        <time>2019-07-14T12:49:30Z</time>
      </trkpt>
      <trkpt lat="45.00818" lon="5.57216">
        <ele>1973</ele>
        <time>2019-07-14T12:49:31Z</time>
      </trkpt>
      <trkpt lat="45.00824" lon="5.57213">
        <ele>1973</ele>
        <time>2019-07-14T12:49:32Z</time>
      </trkpt>
      <trkpt lat="45.0083" lon="5.57211">
        <ele>1972</ele>
        <time>2019-07-14T12:49:33Z</time>
      </trkpt>
      <trkpt lat="45.00836" lon="5.57208">
        <ele>1970</ele>
        <time>2019-07-14T12:49:34Z</time>
      </trkpt>
      <trkpt lat="45.00843" lon="5.57206">
        <ele>1969</ele>
        <time>2019-07-14T12:49:35Z</time>
      </trkpt>
      <trkpt lat="45.00849" lon="5.57204">
        <ele>1969</ele>
        <time>2019-07-14T12:49:36Z</time>
      </trkpt>
      <trkpt lat="45.00856" lon="5.57201">
        <ele>1969</ele>
        <time>2019-07-14T12:49:37Z</time>
      </trkpt>
      <trkpt lat="45.00864" lon="5.57197">
        <ele>1968</ele>
        <time>2019-07-14T12:49:38Z</time>
      </trkpt>
      <trkpt lat="45.00871" lon="5.57193">
        <ele>1968</ele>
        <time>2019-07-14T12:49:39Z</time>
      </trkpt>
      <trkpt lat="45.00877" lon="5.57189">
        <ele>1968</ele>
        <time>2019-07-14T12:49:40Z</time>
      </trkpt>
      <trkpt lat="45.00884" lon="5.57187">
        <ele>1968</ele>
        <time>2019-07-14T12:49:41Z</time>
      </trkpt>
      <trkpt lat="45.0089" lon="5.57184">
        <ele>1967</ele>
        <time>2019-07-14T12:49:42Z</time>
      </trkpt>
      <trkpt lat="45.00896" lon="5.57182">
        <ele>1967</ele>
        <time>2019-07-14T12:49:43Z</time>
      </trkpt>
      <trkpt lat="45.00902" lon="5.57179">
        <ele>1966</ele>
        <time>2019-07-14T12:49:44Z</time>
      </trkpt>
      <trkpt lat="45.00908" lon="5.57176">
        <ele>1964</ele>
        <time>2019-07-14T12:49:45Z</time>
      </trkpt>
      <trkpt lat="45.00913" lon="5.57172">
        <ele>1963</ele>
        <time>2019-07-14T12:49:46Z</time>
      </trkpt>
      <trkpt lat="45.00918" lon="5.57169">
        <ele>1962</ele>
        <time>2019-07-14T12:49:47Z</time>
      </trkpt>
      <trkpt lat="45.00922" lon="5.57165">
        <ele>1958</ele>
        <time>2019-07-14T12:49:48Z</time>
      </trkpt>
      <trkpt lat="45.00925" lon="5.5716">
        <ele>1957</ele>
        <time>2019-07-14T12:49:49Z</time>
      </trkpt>
      <trkpt lat="45.00929" lon="5.57156">
        <ele>1956</ele>
        <time>2019-07-14T12:49:50Z</time>
      </trkpt>
      <trkpt lat="45.00932" lon="5.57152">
        <ele>1955</ele>
        <time>2019-07-14T12:49:51Z</time>
      </trkpt>
      <trkpt lat="45.00934" lon="5.57149">
        <ele>1954</ele>
        <time>2019-07-14T12:49:52Z</time>
      </trkpt>
      <trkpt lat="45.00936" lon="5.57147">
        <ele>1954</ele>
        <time>2019-07-14T12:49:53Z</time>
      </trkpt>
      <trkpt lat="45.00937" lon="5.57145">
        <ele>1954</ele>
        <time>2019-07-14T12:49:54Z</time>
      </trkpt>
      <trkpt lat="45.00938" lon="5.57143">
        <ele>1953</ele>
        <time>2019-07-14T12:49:55Z</time>
      </trkpt>
      <trkpt lat="45.00938" lon="5.57143">
        <ele>1953</ele>
        <time>2019-07-14T12:49:56Z</time>
      </trkpt>
      <trkpt lat="45.00938" lon="5.57143">
        <ele>1953</ele>
        <time>2019-07-14T12:49:57Z</time>
      </trkpt>
      <trkpt lat="45.00939" lon="5.57142">
        <ele>1953</ele>
        <time>2019-07-14T12:50:03Z</time>
      </trkpt>
      <trkpt lat="45.00941" lon="5.57138">
        <ele>1953</ele>
        <time>2019-07-14T12:50:04Z</time>
      </trkpt>
      <trkpt lat="45.00943" lon="5.57134">
        <ele>1952</ele>
        <time>2019-07-14T12:50:05Z</time>
      </trkpt>
      <trkpt lat="45.00946" lon="5.5713">
        <ele>1951</ele>
        <time>2019-07-14T12:50:06Z</time>
      </trkpt>
      <trkpt lat="45.0095" lon="5.57126">
        <ele>1951</ele>
        <time>2019-07-14T12:50:07Z</time>
      </trkpt>
      <trkpt lat="45.00954" lon="5.57122">
        <ele>1950</ele>
        <time>2019-07-14T12:50:08Z</time>
      </trkpt>
      <trkpt lat="45.00958" lon="5.57119">
        <ele>1950</ele>
        <time>2019-07-14T12:50:09Z</time>
      </trkpt>
      <trkpt lat="45.00964" lon="5.57115">
        <ele>1949</ele>
        <time>2019-07-14T12:50:10Z</time>
      </trkpt>
      <trkpt lat="45.00969" lon="5.57112">
        <ele>1949</ele>
        <time>2019-07-14T12:50:11Z</time>
      </trkpt>
      <trkpt lat="45.00975" lon="5.57107">
        <ele>1948</ele>
        <time>2019-07-14T12:50:12Z</time>
      </trkpt>
      <trkpt lat="45.0098" lon="5.57102">
        <ele>1947</ele>
        <time>2019-07-14T12:50:13Z</time>
      </trkpt>
      <trkpt lat="45.00985" lon="5.57098">
        <ele>1945</ele>
        <time>2019-07-14T12:50:14Z</time>
      </trkpt>
      <trkpt lat="45.00991" lon="5.57093">
        <ele>1944</ele>
        <time>2019-07-14T12:50:15Z</time>
      </trkpt>
      <trkpt lat="45.00995" lon="5.57089">
        <ele>1942</ele>
        <time>2019-07-14T12:50:16Z</time>
      </trkpt>
      <trkpt lat="45.01" lon="5.57085">
        <ele>1939</ele>
        <time>2019-07-14T12:50:17Z</time>
      </trkpt>
      <trkpt lat="45.01004" lon="5.57081">
        <ele>1938</ele>
        <time>2019-07-14T12:50:18Z</time>
      </trkpt>
      <trkpt lat="45.01008" lon="5.57077">
        <ele>1938</ele>
        <time>2019-07-14T12:50:19Z</time>
      </trkpt>
      <trkpt lat="45.01011" lon="5.57072">
        <ele>1938</ele>
        <time>2019-07-14T12:50:20Z</time>
      </trkpt>
      <trkpt lat="45.01013" lon="5.57068">
        <ele>1938</ele>
        <time>2019-07-14T12:50:21Z</time>
      </trkpt>
      <trkpt lat="45.01014" lon="5.57062">
        <ele>1938</ele>
        <time>2019-07-14T12:50:22Z</time>
      </trkpt>
      <trkpt lat="45.01015" lon="5.57057">
        <ele>1937</ele>
        <time>2019-07-14T12:50:23Z</time>
      </trkpt>
      <trkpt lat="45.01016" lon="5.57052">
        <ele>1937</ele>
        <time>2019-07-14T12:50:24Z</time>
      </trkpt>
      <trkpt lat="45.01016" lon="5.57047">
        <ele>1937</ele>
        <time>2019-07-14T12:50:25Z</time>
      </trkpt>
      <trkpt lat="45.01017" lon="5.57041">
        <ele>1937</ele>
        <time>2019-07-14T12:50:26Z</time>
      </trkpt>
      <trkpt lat="45.01017" lon="5.57035">
        <ele>1936</ele>
        <time>2019-07-14T12:50:27Z</time>
      </trkpt>
      <trkpt lat="45.01016" lon="5.5703">
        <ele>1936</ele>
        <time>2019-07-14T12:50:28Z</time>
      </trkpt>
      <trkpt lat="45.01015" lon="5.57025">
        <ele>1936</ele>
        <time>2019-07-14T12:50:29Z</time>
      </trkpt>
      <trkpt lat="45.01014" lon="5.57022">
        <ele>1935</ele>
        <time>2019-07-14T12:50:30Z</time>
      </trkpt>
      <trkpt lat="45.01012" lon="5.57018">
        <ele>1935</ele>
        <time>2019-07-14T12:50:31Z</time>
      </trkpt>
      <trkpt lat="45.0101" lon="5.57015">
        <ele>1935</ele>
        <time>2019-07-14T12:50:32Z</time>
      </trkpt>
      <trkpt lat="45.01008" lon="5.57012">
        <ele>1934</ele>
        <time>2019-07-14T12:50:33Z</time>
      </trkpt>
      <trkpt lat="45.01006" lon="5.57009">
        <ele>1934</ele>
        <time>2019-07-14T12:50:34Z</time>
      </trkpt>
      <trkpt lat="45.01004" lon="5.57006">
        <ele>1934</ele>
        <time>2019-07-14T12:50:35Z</time>
      </trkpt>
      <trkpt lat="45.01002" lon="5.57004">
        <ele>1933</ele>
        <time>2019-07-14T12:50:36Z</time>
      </trkpt>
      <trkpt lat="45.01" lon="5.57001">
        <ele>1933</ele>
        <time>2019-07-14T12:50:37Z</time>
      </trkpt>
      <trkpt lat="45.00998" lon="5.57">
        <ele>1933</ele>
        <time>2019-07-14T12:50:38Z</time>
      </trkpt>
      <trkpt lat="45.00996" lon="5.57">
        <ele>1934</ele>
        <time>2019-07-14T12:50:39Z</time>
      </trkpt>
      <trkpt lat="45.00996" lon="5.57">
        <ele>1934</ele>
        <time>2019-07-14T12:51:22Z</time>
      </trkpt>
      <trkpt lat="45.00994" lon="5.56999">
        <ele>1935</ele>
        <time>2019-07-14T12:51:26Z</time>
      </trkpt>
      <trkpt lat="45.00992" lon="5.56999">
        <ele>1935</ele>
        <time>2019-07-14T12:51:27Z</time>
      </trkpt>
      <trkpt lat="45.0099" lon="5.56999">
        <ele>1936</ele>
        <time>2019-07-14T12:51:28Z</time>
      </trkpt>
      <trkpt lat="45.00988" lon="5.56999">
        <ele>1936</ele>
        <time>2019-07-14T12:51:29Z</time>
      </trkpt>
      <trkpt lat="45.00985" lon="5.57">
        <ele>1937</ele>
        <time>2019-07-14T12:51:30Z</time>
      </trkpt>
      <trkpt lat="45.00982" lon="5.57">
        <ele>1933</ele>
        <time>2019-07-14T12:51:31Z</time>
      </trkpt>
      <trkpt lat="45.00979" lon="5.57001">
        <ele>1933</ele>
        <time>2019-07-14T12:51:32Z</time>
      </trkpt>
      <trkpt lat="45.00976" lon="5.57001">
        <ele>1933</ele>
        <time>2019-07-14T12:51:33Z</time>
      </trkpt>
      <trkpt lat="45.00972" lon="5.57002">
        <ele>1933</ele>
        <time>2019-07-14T12:51:34Z</time>
      </trkpt>
      <trkpt lat="45.00969" lon="5.57002">
        <ele>1933</ele>
        <time>2019-07-14T12:51:35Z</time>
      </trkpt>
      <trkpt lat="45.00966" lon="5.57002">
        <ele>1933</ele>
        <time>2019-07-14T12:51:36Z</time>
      </trkpt>
      <trkpt lat="45.00963" lon="5.57001">
        <ele>1933</ele>
        <time>2019-07-14T12:51:37Z</time>
      </trkpt>
      <trkpt lat="45.0096" lon="5.57002">
        <ele>1933</ele>
        <time>2019-07-14T12:51:38Z</time>
      </trkpt>
      <trkpt lat="45.00957" lon="5.57002">
        <ele>1933</ele>
        <time>2019-07-14T12:51:39Z</time>
      </trkpt>
      <trkpt lat="45.00953" lon="5.57002">
        <ele>1933</ele>
        <time>2019-07-14T12:51:40Z</time>
      </trkpt>
      <trkpt lat="45.0095" lon="5.57003">
        <ele>1933</ele>
        <time>2019-07-14T12:51:41Z</time>
      </trkpt>
      <trkpt lat="45.00947" lon="5.57003">
        <ele>1933</ele>
        <time>2019-07-14T12:51:42Z</time>
      </trkpt>
      <trkpt lat="45.00944" lon="5.57002">
        <ele>1933</ele>
        <time>2019-07-14T12:51:43Z</time>
      </trkpt>
      <trkpt lat="45.0094" lon="5.57001">
        <ele>1933</ele>
        <time>2019-07-14T12:51:44Z</time>
      </trkpt>
      <trkpt lat="45.00937" lon="5.57001">
        <ele>1933</ele>
        <time>2019-07-14T12:51:45Z</time>
      </trkpt>
      <trkpt lat="45.00934" lon="5.57001">
        <ele>1933</ele>
        <time>2019-07-14T12:51:46Z</time>
      </trkpt>
      <trkpt lat="45.00931" lon="5.57">
        <ele>1933</ele>
        <time>2019-07-14T12:51:47Z</time>
      </trkpt>
      <trkpt lat="45.00929" lon="5.56999">
        <ele>1936</ele>
        <time>2019-07-14T12:51:48Z</time>
      </trkpt>
      <trkpt lat="45.00927" lon="5.56998">
        <ele>1936</ele>
        <time>2019-07-14T12:51:49Z</time>
      </trkpt>
      <trkpt lat="45.00925" lon="5.56998">
        <ele>1936</ele>
        <time>2019-07-14T12:51:50Z</time>
      </trkpt>
      <trkpt lat="45.00925" lon="5.56998">
        <ele>1936</ele>
        <time>2019-07-14T12:51:51Z</time>
      </trkpt>
      <trkpt lat="45.00924" lon="5.56996">
        <ele>1936</ele>
        <time>2019-07-14T12:52:27Z</time>
      </trkpt>
      <trkpt lat="45.00925" lon="5.56994">
        <ele>1936</ele>
        <time>2019-07-14T12:52:28Z</time>
      </trkpt>
      <trkpt lat="45.00926" lon="5.56994">
        <ele>1936</ele>
        <time>2019-07-14T12:52:29Z</time>
      </trkpt>
      <trkpt lat="45.00927" lon="5.56994">
        <ele>1937</ele>
        <time>2019-07-14T12:52:30Z</time>
      </trkpt>
      <trkpt lat="45.00928" lon="5.56995">
        <ele>1937</ele>
        <time>2019-07-14T12:52:31Z</time>
      </trkpt>
      <trkpt lat="45.0093" lon="5.56995">
        <ele>1937</ele>
        <time>2019-07-14T12:52:32Z</time>
      </trkpt>
      <trkpt lat="45.00931" lon="5.56997">
        <ele>1937</ele>
        <time>2019-07-14T12:52:33Z</time>
      </trkpt>
      <trkpt lat="45.00933" lon="5.56998">
        <ele>1937</ele>
        <time>2019-07-14T12:52:34Z</time>
      </trkpt>
      <trkpt lat="45.00934" lon="5.56998">
        <ele>1937</ele>
        <time>2019-07-14T12:52:35Z</time>
      </trkpt>
      <trkpt lat="45.00936" lon="5.56999">
        <ele>1937</ele>
        <time>2019-07-14T12:52:36Z</time>
      </trkpt>
      <trkpt lat="45.00938" lon="5.56999">
        <ele>1938</ele>
        <time>2019-07-14T12:52:37Z</time>
      </trkpt>
      <trkpt lat="45.0094" lon="5.57">
        <ele>1938</ele>
        <time>2019-07-14T12:52:38Z</time>
      </trkpt>
      <trkpt lat="45.00942" lon="5.57001">
        <ele>1933</ele>
        <time>2019-07-14T12:52:39Z</time>
      </trkpt>
      <trkpt lat="45.00944" lon="5.57002">
        <ele>1933</ele>
        <time>2019-07-14T12:52:40Z</time>
      </trkpt>
      <trkpt lat="45.00946" lon="5.57003">
        <ele>1933</ele>
        <time>2019-07-14T12:52:41Z</time>
      </trkpt>
      <trkpt lat="45.00948" lon="5.57003">
        <ele>1933</ele>
        <time>2019-07-14T12:52:42Z</time>
      </trkpt>
      <trkpt lat="45.0095" lon="5.57004">
        <ele>1933</ele>
        <time>2019-07-14T12:52:43Z</time>
      </trkpt>
      <trkpt lat="45.00953" lon="5.57003">
        <ele>1933</ele>
        <time>2019-07-14T12:52:44Z</time>
      </trkpt>
      <trkpt lat="45.00955" lon="5.57002">
        <ele>1933</ele>
        <time>2019-07-14T12:52:45Z</time>
      </trkpt>
      <trkpt lat="45.00957" lon="5.57002">
        <ele>1933</ele>
        <time>2019-07-14T12:52:46Z</time>
      </trkpt>
      <trkpt lat="45.00959" lon="5.57002">
        <ele>1933</ele>
        <time>2019-07-14T12:52:47Z</time>
      </trkpt>
      <trkpt lat="45.00967" lon="5.57002">
        <ele>1933</ele>
        <time>2019-07-14T12:52:50Z</time>
      </trkpt>
      <trkpt lat="45.00969" lon="5.57002">
        <ele>1933</ele>
        <time>2019-07-14T12:52:51Z</time>
      </trkpt>
      <trkpt lat="45.00972" lon="5.57002">
        <ele>1933</ele>
        <time>2019-07-14T12:52:52Z</time>
      </trkpt>
      <trkpt lat="45.00974" lon="5.57002">
        <ele>1933</ele>
        <time>2019-07-14T12:52:53Z</time>
      </trkpt>
      <trkpt lat="45.00977" lon="5.57002">
        <ele>1933</ele>
        <time>2019-07-14T12:52:54Z</time>
      </trkpt>
      <trkpt lat="45.0098" lon="5.57002">
        <ele>1933</ele>
        <time>2019-07-14T12:52:55Z</time>
      </trkpt>
      <trkpt lat="45.00982" lon="5.57002">
        <ele>1933</ele>
        <time>2019-07-14T12:52:56Z</time>
      </trkpt>
      <trkpt lat="45.00992" lon="5.57003">
        <ele>1933</ele>
        <time>2019-07-14T12:53:00Z</time>
      </trkpt>
      <trkpt lat="45.00994" lon="5.57003">
        <ele>1933</ele>
        <time>2019-07-14T12:53:01Z</time>
      </trkpt>
      <trkpt lat="45.00996" lon="5.57004">
        <ele>1933</ele>
        <time>2019-07-14T12:53:02Z</time>
      </trkpt>
      <trkpt lat="45.00998" lon="5.57004">
        <ele>1933</ele>
        <time>2019-07-14T12:53:03Z</time>
      </trkpt>
      <trkpt lat="45.01" lon="5.57004">
        <ele>1933</ele>
        <time>2019-07-14T12:53:04Z</time>
      </trkpt>
      <trkpt lat="45.01002" lon="5.57005">
        <ele>1934</ele>
        <time>2019-07-14T12:53:05Z</time>
      </trkpt>
      <trkpt lat="45.01004" lon="5.57007">
        <ele>1934</ele>
        <time>2019-07-14T12:53:06Z</time>
      </trkpt>
      <trkpt lat="45.01006" lon="5.57008">
        <ele>1934</ele>
        <time>2019-07-14T12:53:07Z</time>
      </trkpt>
      <trkpt lat="45.01008" lon="5.57011">
        <ele>1934</ele>
        <time>2019-07-14T12:53:08Z</time>
      </trkpt>
      <trkpt lat="45.01009" lon="5.57014">
        <ele>1935</ele>
        <time>2019-07-14T12:53:09Z</time>
      </trkpt>
      <trkpt lat="45.01011" lon="5.57016">
        <ele>1935</ele>
        <time>2019-07-14T12:53:10Z</time>
      </trkpt>
      <trkpt lat="45.01013" lon="5.57018">
        <ele>1935</ele>
        <time>2019-07-14T12:53:11Z</time>
      </trkpt>
      <trkpt lat="45.01015" lon="5.5702">
        <ele>1935</ele>
        <time>2019-07-14T12:53:12Z</time>
      </trkpt>
      <trkpt lat="45.01017" lon="5.57022">
        <ele>1935</ele>
        <time>2019-07-14T12:53:13Z</time>
      </trkpt>
      <trkpt lat="45.01019" lon="5.57024">
        <ele>1936</ele>
        <time>2019-07-14T12:53:14Z</time>
      </trkpt>
      <trkpt lat="45.01021" lon="5.57027">
        <ele>1936</ele>
        <time>2019-07-14T12:53:15Z</time>
      </trkpt>
      <trkpt lat="45.01023" lon="5.57029">
        <ele>1936</ele>
        <time>2019-07-14T12:53:16Z</time>
      </trkpt>
      <trkpt lat="45.01026" lon="5.57031">
        <ele>1936</ele>
        <time>2019-07-14T12:53:17Z</time>
      </trkpt>
      <trkpt lat="45.01028" lon="5.57033">
        <ele>1936</ele>
        <time>2019-07-14T12:53:18Z</time>
      </trkpt>
      <trkpt lat="45.0103" lon="5.57035">
        <ele>1936</ele>
        <time>2019-07-14T12:53:19Z</time>
      </trkpt>
      <trkpt lat="45.01033" lon="5.57036">
        <ele>1936</ele>
        <time>2019-07-14T12:53:20Z</time>
      </trkpt>
      <trkpt lat="45.01036" lon="5.57037">
        <ele>1937</ele>
        <time>2019-07-14T12:53:21Z</time>
      </trkpt>
      <trkpt lat="45.01039" lon="5.57039">
        <ele>1937</ele>
        <time>2019-07-14T12:53:22Z</time>
      </trkpt>
      <trkpt lat="45.01042" lon="5.5704">
        <ele>1937</ele>
        <time>2019-07-14T12:53:23Z</time>
      </trkpt>
      <trkpt lat="45.01045" lon="5.57041">
        <ele>1937</ele>
        <time>2019-07-14T12:53:24Z</time>
      </trkpt>
      <trkpt lat="45.01048" lon="5.57042">
        <ele>1937</ele>
        <time>2019-07-14T12:53:25Z</time>
      </trkpt>
      <trkpt lat="45.01049" lon="5.57042">
        <ele>1937</ele>
        <time>2019-07-14T12:53:26Z</time>
      </trkpt>
      <trkpt lat="45.01051" lon="5.57042">
        <ele>1937</ele>
        <time>2019-07-14T12:53:27Z</time>
      </trkpt>
      <trkpt lat="45.01053" lon="5.57042">
        <ele>1937</ele>
        <time>2019-07-14T12:53:28Z</time>
      </trkpt>
      <trkpt lat="45.01055" lon="5.57042">
        <ele>1937</ele>
        <time>2019-07-14T12:53:29Z</time>
      </trkpt>
      <trkpt lat="45.01057" lon="5.57042">
        <ele>1937</ele>
        <time>2019-07-14T12:53:30Z</time>
      </trkpt>
      <trkpt lat="45.01059" lon="5.57042">
        <ele>1937</ele>
        <time>2019-07-14T12:53:31Z</time>
      </trkpt>
      <trkpt lat="45.01061" lon="5.57042">
        <ele>1937</ele>
        <time>2019-07-14T12:53:32Z</time>
      </trkpt>
      <trkpt lat="45.01063" lon="5.57043">
        <ele>1938</ele>
        <time>2019-07-14T12:53:33Z</time>
      </trkpt>
      <trkpt lat="45.01065" lon="5.57043">
        <ele>1938</ele>
        <time>2019-07-14T12:53:34Z</time>
      </trkpt>
      <trkpt lat="45.01067" lon="5.57044">
        <ele>1938</ele>
        <time>2019-07-14T12:53:35Z</time>
      </trkpt>
      <trkpt lat="45.01069" lon="5.57044">
        <ele>1938</ele>
        <time>2019-07-14T12:53:36Z</time>
      </trkpt>
      <trkpt lat="45.01071" lon="5.57044">
        <ele>1938</ele>
        <time>2019-07-14T12:53:37Z</time>
      </trkpt>
      <trkpt lat="45.01073" lon="5.57044">
        <ele>1938</ele>
        <time>2019-07-14T12:53:38Z</time>
      </trkpt>
      <trkpt lat="45.01075" lon="5.57044">
        <ele>1938</ele>
        <time>2019-07-14T12:53:39Z</time>
      </trkpt>
      <trkpt lat="45.01078" lon="5.57044">
        <ele>1938</ele>
        <time>2019-07-14T12:53:40Z</time>
      </trkpt>
      <trkpt lat="45.01084" lon="5.57044">
        <ele>1940</ele>
        <time>2019-07-14T12:53:43Z</time>
      </trkpt>
      <trkpt lat="45.01086" lon="5.57044">
        <ele>1940</ele>
        <time>2019-07-14T12:53:44Z</time>
      </trkpt>
      <trkpt lat="45.01088" lon="5.57045">
        <ele>1940</ele>
        <time>2019-07-14T12:53:45Z</time>
      </trkpt>
      <trkpt lat="45.0109" lon="5.57046">
        <ele>1940</ele>
        <time>2019-07-14T12:53:46Z</time>
      </trkpt>
      <trkpt lat="45.01092" lon="5.57046">
        <ele>1941</ele>
        <time>2019-07-14T12:53:47Z</time>
      </trkpt>
      <trkpt lat="45.01094" lon="5.57047">
        <ele>1941</ele>
        <time>2019-07-14T12:53:48Z</time>
      </trkpt>
      <trkpt lat="45.01096" lon="5.57048">
        <ele>1941</ele>
        <time>2019-07-14T12:53:49Z</time>
      </trkpt>
      <trkpt lat="45.01099" lon="5.57049">
        <ele>1941</ele>
        <time>2019-07-14T12:53:50Z</time>
      </trkpt>
      <trkpt lat="45.01101" lon="5.5705">
        <ele>1941</ele>
        <time>2019-07-14T12:53:51Z</time>
      </trkpt>
      <trkpt lat="45.01103" lon="5.57051">
        <ele>1941</ele>
        <time>2019-07-14T12:53:52Z</time>
      </trkpt>
      <trkpt lat="45.01105" lon="5.57052">
        <ele>1942</ele>
        <time>2019-07-14T12:53:53Z</time>
      </trkpt>
      <trkpt lat="45.01107" lon="5.57053">
        <ele>1942</ele>
        <time>2019-07-14T12:53:54Z</time>
      </trkpt>
      <trkpt lat="45.0111" lon="5.57054">
        <ele>1942</ele>
        <time>2019-07-14T12:53:55Z</time>
      </trkpt>
      <trkpt lat="45.01112" lon="5.57055">
        <ele>1942</ele>
        <time>2019-07-14T12:53:56Z</time>
      </trkpt>
      <trkpt lat="45.01115" lon="5.57055">
        <ele>1942</ele>
        <time>2019-07-14T12:53:57Z</time>
      </trkpt>
      <trkpt lat="45.01117" lon="5.57055">
        <ele>1942</ele>
        <time>2019-07-14T12:53:58Z</time>
      </trkpt>
      <trkpt lat="45.01119" lon="5.57056">
        <ele>1942</ele>
        <time>2019-07-14T12:53:59Z</time>
      </trkpt>
      <trkpt lat="45.01122" lon="5.57056">
        <ele>1942</ele>
        <time>2019-07-14T12:54:00Z</time>
      </trkpt>
      <trkpt lat="45.01124" lon="5.57057">
        <ele>1942</ele>
        <time>2019-07-14T12:54:01Z</time>
      </trkpt>
      <trkpt lat="45.01126" lon="5.57058">
        <ele>1943</ele>
        <time>2019-07-14T12:54:02Z</time>
      </trkpt>
      <trkpt lat="45.01128" lon="5.57058">
        <ele>1943</ele>
        <time>2019-07-14T12:54:03Z</time>
      </trkpt>
      <trkpt lat="45.0113" lon="5.57058">
        <ele>1943</ele>
        <time>2019-07-14T12:54:04Z</time>
      </trkpt>
      <trkpt lat="45.01132" lon="5.57058">
        <ele>1943</ele>
        <time>2019-07-14T12:54:05Z</time>
      </trkpt>
      <trkpt lat="45.01135" lon="5.57058">
        <ele>1943</ele>
        <time>2019-07-14T12:54:06Z</time>
      </trkpt>
      <trkpt lat="45.01137" lon="5.57059">
        <ele>1943</ele>
        <time>2019-07-14T12:54:07Z</time>
      </trkpt>
      <trkpt lat="45.01139" lon="5.57059">
        <ele>1944</ele>
        <time>2019-07-14T12:54:08Z</time>
      </trkpt>
      <trkpt lat="45.01142" lon="5.57059">
        <ele>1944</ele>
        <time>2019-07-14T12:54:09Z</time>
      </trkpt>
      <trkpt lat="45.01144" lon="5.5706">
        <ele>1944</ele>
        <time>2019-07-14T12:54:10Z</time>
      </trkpt>
      <trkpt lat="45.01147" lon="5.5706">
        <ele>1944</ele>
        <time>2019-07-14T12:54:11Z</time>
      </trkpt>
      <trkpt lat="45.01149" lon="5.57061">
        <ele>1945</ele>
        <time>2019-07-14T12:54:12Z</time>
      </trkpt>
      <trkpt lat="45.01151" lon="5.57062">
        <ele>1945</ele>
        <time>2019-07-14T12:54:13Z</time>
      </trkpt>
      <trkpt lat="45.01154" lon="5.57063">
        <ele>1946</ele>
        <time>2019-07-14T12:54:14Z</time>
      </trkpt>
      <trkpt lat="45.01156" lon="5.57064">
        <ele>1946</ele>
        <time>2019-07-14T12:54:15Z</time>
      </trkpt>
      <trkpt lat="45.01159" lon="5.57065">
        <ele>1947</ele>
        <time>2019-07-14T12:54:16Z</time>
      </trkpt>
      <trkpt lat="45.01161" lon="5.57066">
        <ele>1948</ele>
        <time>2019-07-14T12:54:17Z</time>
      </trkpt>
      <trkpt lat="45.01163" lon="5.57068">
        <ele>1948</ele>
        <time>2019-07-14T12:54:18Z</time>
      </trkpt>
      <trkpt lat="45.01166" lon="5.5707">
        <ele>1949</ele>
        <time>2019-07-14T12:54:19Z</time>
      </trkpt>
      <trkpt lat="45.01168" lon="5.57072">
        <ele>1951</ele>
        <time>2019-07-14T12:54:20Z</time>
      </trkpt>
      <trkpt lat="45.01171" lon="5.57073">
        <ele>1952</ele>
        <time>2019-07-14T12:54:21Z</time>
      </trkpt>
      <trkpt lat="45.01173" lon="5.57075">
        <ele>1952</ele>
        <time>2019-07-14T12:54:22Z</time>
      </trkpt>
      <trkpt lat="45.01176" lon="5.57076">
        <ele>1952</ele>
        <time>2019-07-14T12:54:23Z</time>
      </trkpt>
      <trkpt lat="45.01178" lon="5.57076">
        <ele>1951</ele>
        <time>2019-07-14T12:54:24Z</time>
      </trkpt>
      <trkpt lat="45.01181" lon="5.57077">
        <ele>1951</ele>
        <time>2019-07-14T12:54:25Z</time>
      </trkpt>
      <trkpt lat="45.01184" lon="5.57077">
        <ele>1950</ele>
        <time>2019-07-14T12:54:26Z</time>
      </trkpt>
      <trkpt lat="45.01187" lon="5.57077">
        <ele>1950</ele>
        <time>2019-07-14T12:54:27Z</time>
      </trkpt>
      <trkpt lat="45.01191" lon="5.57077">
        <ele>1950</ele>
        <time>2019-07-14T12:54:28Z</time>
      </trkpt>
      <trkpt lat="45.01195" lon="5.57078">
        <ele>1949</ele>
        <time>2019-07-14T12:54:29Z</time>
      </trkpt>
      <trkpt lat="45.012" lon="5.57079">
        <ele>1949</ele>
        <time>2019-07-14T12:54:30Z</time>
      </trkpt>
      <trkpt lat="45.01205" lon="5.5708">
        <ele>1949</ele>
        <time>2019-07-14T12:54:31Z</time>
      </trkpt>
      <trkpt lat="45.0121" lon="5.57081">
        <ele>1949</ele>
        <time>2019-07-14T12:54:32Z</time>
      </trkpt>
      <trkpt lat="45.01215" lon="5.57082">
        <ele>1950</ele>
        <time>2019-07-14T12:54:33Z</time>
      </trkpt>
      <trkpt lat="45.0122" lon="5.57082">
        <ele>1951</ele>
        <time>2019-07-14T12:54:34Z</time>
      </trkpt>
      <trkpt lat="45.01225" lon="5.57082">
        <ele>1951</ele>
        <time>2019-07-14T12:54:35Z</time>
      </trkpt>
      <trkpt lat="45.0123" lon="5.57082">
        <ele>1952</ele>
        <time>2019-07-14T12:54:36Z</time>
      </trkpt>
      <trkpt lat="45.01234" lon="5.5708">
        <ele>1953</ele>
        <time>2019-07-14T12:54:37Z</time>
      </trkpt>
      <trkpt lat="45.01239" lon="5.57079">
        <ele>1955</ele>
        <time>2019-07-14T12:54:38Z</time>
      </trkpt>
      <trkpt lat="45.01243" lon="5.57077">
        <ele>1956</ele>
        <time>2019-07-14T12:54:39Z</time>
      </trkpt>
      <trkpt lat="45.01247" lon="5.57075">
        <ele>1956</ele>
        <time>2019-07-14T12:54:40Z</time>
      </trkpt>
      <trkpt lat="45.01252" lon="5.57074">
        <ele>1956</ele>
        <time>2019-07-14T12:54:41Z</time>
      </trkpt>
      <trkpt lat="45.01257" lon="5.57073">
        <ele>1955</ele>
        <time>2019-07-14T12:54:42Z</time>
      </trkpt>
      <trkpt lat="45.01262" lon="5.57072">
        <ele>1953</ele>
        <time>2019-07-14T12:54:43Z</time>
      </trkpt>
      <trkpt lat="45.01266" lon="5.57071">
        <ele>1952</ele>
        <time>2019-07-14T12:54:44Z</time>
      </trkpt>
      <trkpt lat="45.0127" lon="5.5707">
        <ele>1951</ele>
        <time>2019-07-14T12:54:45Z</time>
      </trkpt>
      <trkpt lat="45.01274" lon="5.57069">
        <ele>1951</ele>
        <time>2019-07-14T12:54:46Z</time>
      </trkpt>
      <trkpt lat="45.01277" lon="5.57068">
        <ele>1950</ele>
        <time>2019-07-14T12:54:47Z</time>
      </trkpt>
      <trkpt lat="45.0128" lon="5.57068">
        <ele>1950</ele>
        <time>2019-07-14T12:54:48Z</time>
      </trkpt>
      <trkpt lat="45.01283" lon="5.57068">
        <ele>1950</ele>
        <time>2019-07-14T12:54:49Z</time>
      </trkpt>
      <trkpt lat="45.01286" lon="5.57068">
        <ele>1949</ele>
        <time>2019-07-14T12:54:50Z</time>
      </trkpt>
      <trkpt lat="45.01289" lon="5.57067">
        <ele>1949</ele>
        <time>2019-07-14T12:54:51Z</time>
      </trkpt>
      <trkpt lat="45.01292" lon="5.57067">
        <ele>1949</ele>
        <time>2019-07-14T12:54:52Z</time>
      </trkpt>
      <trkpt lat="45.01296" lon="5.57067">
        <ele>1949</ele>
        <time>2019-07-14T12:54:53Z</time>
      </trkpt>
      <trkpt lat="45.01305" lon="5.57066">
        <ele>1950</ele>
        <time>2019-07-14T12:54:56Z</time>
      </trkpt>
      <trkpt lat="45.01307" lon="5.57065">
        <ele>1950</ele>
        <time>2019-07-14T12:54:57Z</time>
      </trkpt>
      <trkpt lat="45.0131" lon="5.57064">
        <ele>1949</ele>
        <time>2019-07-14T12:54:58Z</time>
      </trkpt>
      <trkpt lat="45.01312" lon="5.57062">
        <ele>1949</ele>
        <time>2019-07-14T12:54:59Z</time>
      </trkpt>
      <trkpt lat="45.01315" lon="5.5706">
        <ele>1949</ele>
        <time>2019-07-14T12:55:00Z</time>
      </trkpt>
      <trkpt lat="45.01319" lon="5.57059">
        <ele>1949</ele>
        <time>2019-07-14T12:55:01Z</time>
      </trkpt>
      <trkpt lat="45.01322" lon="5.57059">
        <ele>1949</ele>
        <time>2019-07-14T12:55:02Z</time>
      </trkpt>
      <trkpt lat="45.01326" lon="5.5706">
        <ele>1950</ele>
        <time>2019-07-14T12:55:03Z</time>
      </trkpt>
      <trkpt lat="45.0133" lon="5.57061">
        <ele>1950</ele>
        <time>2019-07-14T12:55:04Z</time>
      </trkpt>
      <trkpt lat="45.01334" lon="5.57062">
        <ele>1952</ele>
        <time>2019-07-14T12:55:05Z</time>
      </trkpt>
      <trkpt lat="45.01338" lon="5.57062">
        <ele>1953</ele>
        <time>2019-07-14T12:55:06Z</time>
      </trkpt>
      <trkpt lat="45.01341" lon="5.57063">
        <ele>1953</ele>
        <time>2019-07-14T12:55:07Z</time>
      </trkpt>
      <trkpt lat="45.01344" lon="5.57064">
        <ele>1953</ele>
        <time>2019-07-14T12:55:08Z</time>
      </trkpt>
      <trkpt lat="45.01347" lon="5.57065">
        <ele>1953</ele>
        <time>2019-07-14T12:55:09Z</time>
      </trkpt>
      <trkpt lat="45.0135" lon="5.57065">
        <ele>1953</ele>
        <time>2019-07-14T12:55:10Z</time>
      </trkpt>
      <trkpt lat="45.01353" lon="5.57065">
        <ele>1952</ele>
        <time>2019-07-14T12:55:11Z</time>
      </trkpt>
      <trkpt lat="45.01355" lon="5.57066">
        <ele>1952</ele>
        <time>2019-07-14T12:55:12Z</time>
      </trkpt>
      <trkpt lat="45.01357" lon="5.57066">
        <ele>1952</ele>
        <time>2019-07-14T12:55:13Z</time>
      </trkpt>
      <trkpt lat="45.01356" lon="5.57067">
        <ele>1952</ele>
        <time>2019-07-14T12:55:14Z</time>
      </trkpt>
      <trkpt lat="45.01358" lon="5.5707">
        <ele>1953</ele>
        <time>2019-07-14T12:55:40Z</time>
      </trkpt>
      <trkpt lat="45.0136" lon="5.57071">
        <ele>1953</ele>
        <time>2019-07-14T12:55:41Z</time>
      </trkpt>
      <trkpt lat="45.01362" lon="5.57071">
        <ele>1953</ele>
        <time>2019-07-14T12:55:42Z</time>
      </trkpt>
      <trkpt lat="45.01364" lon="5.57071">
        <ele>1953</ele>
        <time>2019-07-14T12:55:43Z</time>
      </trkpt>
      <trkpt lat="45.01368" lon="5.5707">
        <ele>1953</ele>
        <time>2019-07-14T12:55:45Z</time>
      </trkpt>
      <trkpt lat="45.0137" lon="5.57069">
        <ele>1952</ele>
        <time>2019-07-14T12:55:46Z</time>
      </trkpt>
      <trkpt lat="45.01371" lon="5.57068">
        <ele>1952</ele>
        <time>2019-07-14T12:55:47Z</time>
      </trkpt>
      <trkpt lat="45.01374" lon="5.57066">
        <ele>1952</ele>
        <time>2019-07-14T12:55:48Z</time>
      </trkpt>
      <trkpt lat="45.01376" lon="5.57065">
        <ele>1952</ele>
        <time>2019-07-14T12:55:49Z</time>
      </trkpt>
      <trkpt lat="45.01378" lon="5.57063">
        <ele>1952</ele>
        <time>2019-07-14T12:55:50Z</time>
      </trkpt>
      <trkpt lat="45.0138" lon="5.57062">
        <ele>1952</ele>
        <time>2019-07-14T12:55:51Z</time>
      </trkpt>
      <trkpt lat="45.01382" lon="5.57062">
        <ele>1952</ele>
        <time>2019-07-14T12:55:52Z</time>
      </trkpt>
      <trkpt lat="45.01385" lon="5.57062">
        <ele>1952</ele>
        <time>2019-07-14T12:55:53Z</time>
      </trkpt>
      <trkpt lat="45.01387" lon="5.57061">
        <ele>1953</ele>
        <time>2019-07-14T12:55:54Z</time>
      </trkpt>
      <trkpt lat="45.01389" lon="5.57061">
        <ele>1953</ele>
        <time>2019-07-14T12:55:55Z</time>
      </trkpt>
      <trkpt lat="45.01392" lon="5.5706">
        <ele>1953</ele>
        <time>2019-07-14T12:55:56Z</time>
      </trkpt>
      <trkpt lat="45.01394" lon="5.5706">
        <ele>1953</ele>
        <time>2019-07-14T12:55:57Z</time>
      </trkpt>
      <trkpt lat="45.01397" lon="5.57059">
        <ele>1953</ele>
        <time>2019-07-14T12:55:58Z</time>
      </trkpt>
      <trkpt lat="45.01399" lon="5.57057">
        <ele>1953</ele>
        <time>2019-07-14T12:55:59Z</time>
      </trkpt>
      <trkpt lat="45.01402" lon="5.57056">
        <ele>1953</ele>
        <time>2019-07-14T12:56:00Z</time>
      </trkpt>
      <trkpt lat="45.01404" lon="5.57054">
        <ele>1953</ele>
        <time>2019-07-14T12:56:01Z</time>
      </trkpt>
      <trkpt lat="45.01407" lon="5.57052">
        <ele>1952</ele>
        <time>2019-07-14T12:56:02Z</time>
      </trkpt>
      <trkpt lat="45.01409" lon="5.5705">
        <ele>1952</ele>
        <time>2019-07-14T12:56:03Z</time>
      </trkpt>
      <trkpt lat="45.01411" lon="5.57048">
        <ele>1952</ele>
        <time>2019-07-14T12:56:04Z</time>
      </trkpt>
      <trkpt lat="45.01413" lon="5.57047">
        <ele>1952</ele>
        <time>2019-07-14T12:56:05Z</time>
      </trkpt>
      <trkpt lat="45.01415" lon="5.57046">
        <ele>1951</ele>
        <time>2019-07-14T12:56:06Z</time>
      </trkpt>
      <trkpt lat="45.01417" lon="5.57045">
        <ele>1962</ele>
        <time>2019-07-14T12:56:07Z</time>
      </trkpt>
      <trkpt lat="45.01419" lon="5.57043">
        <ele>1961</ele>
        <time>2019-07-14T12:56:08Z</time>
      </trkpt>
      <trkpt lat="45.01421" lon="5.57042">
        <ele>1961</ele>
        <time>2019-07-14T12:56:09Z</time>
      </trkpt>
      <trkpt lat="45.01423" lon="5.5704">
        <ele>1961</ele>
        <time>2019-07-14T12:56:10Z</time>
      </trkpt>
      <trkpt lat="45.01424" lon="5.57038">
        <ele>1961</ele>
        <time>2019-07-14T12:56:11Z</time>
      </trkpt>
      <trkpt lat="45.01426" lon="5.57036">
        <ele>1961</ele>
        <time>2019-07-14T12:56:12Z</time>
      </trkpt>
      <trkpt lat="45.01428" lon="5.57034">
        <ele>1960</ele>
        <time>2019-07-14T12:56:13Z</time>
      </trkpt>
      <trkpt lat="45.0143" lon="5.57031">
        <ele>1960</ele>
        <time>2019-07-14T12:56:14Z</time>
      </trkpt>
      <trkpt lat="45.01432" lon="5.57029">
        <ele>1960</ele>
        <time>2019-07-14T12:56:15Z</time>
      </trkpt>
      <trkpt lat="45.01433" lon="5.57026">
        <ele>1959</ele>
        <time>2019-07-14T12:56:16Z</time>
      </trkpt>
      <trkpt lat="45.01435" lon="5.57024">
        <ele>1959</ele>
        <time>2019-07-14T12:56:17Z</time>
      </trkpt>
      <trkpt lat="45.01436" lon="5.57021">
        <ele>1958</ele>
        <time>2019-07-14T12:56:18Z</time>
      </trkpt>
      <trkpt lat="45.01437" lon="5.57018">
        <ele>1958</ele>
        <time>2019-07-14T12:56:19Z</time>
      </trkpt>
      <trkpt lat="45.01439" lon="5.57015">
        <ele>1958</ele>
        <time>2019-07-14T12:56:20Z</time>
      </trkpt>
      <trkpt lat="45.01441" lon="5.57013">
        <ele>1958</ele>
        <time>2019-07-14T12:56:21Z</time>
      </trkpt>
      <trkpt lat="45.01444" lon="5.57011">
        <ele>1959</ele>
        <time>2019-07-14T12:56:22Z</time>
      </trkpt>
      <trkpt lat="45.01446" lon="5.57009">
        <ele>1959</ele>
        <time>2019-07-14T12:56:23Z</time>
      </trkpt>
      <trkpt lat="45.01448" lon="5.57008">
        <ele>1960</ele>
        <time>2019-07-14T12:56:24Z</time>
      </trkpt>
      <trkpt lat="45.01451" lon="5.57007">
        <ele>1960</ele>
        <time>2019-07-14T12:56:25Z</time>
      </trkpt>
      <trkpt lat="45.01452" lon="5.57005">
        <ele>1960</ele>
        <time>2019-07-14T12:56:26Z</time>
      </trkpt>
      <trkpt lat="45.01453" lon="5.57003">
        <ele>1960</ele>
        <time>2019-07-14T12:56:27Z</time>
      </trkpt>
      <trkpt lat="45.01453" lon="5.57001">
        <ele>1960</ele>
        <time>2019-07-14T12:56:28Z</time>
      </trkpt>
      <trkpt lat="45.01454" lon="5.56999">
        <ele>1947</ele>
        <time>2019-07-14T12:56:29Z</time>
      </trkpt>
      <trkpt lat="45.01455" lon="5.56997">
        <ele>1947</ele>
        <time>2019-07-14T12:56:30Z</time>
      </trkpt>
      <trkpt lat="45.01456" lon="5.56994">
        <ele>1947</ele>
        <time>2019-07-14T12:56:31Z</time>
      </trkpt>
      <trkpt lat="45.01457" lon="5.56991">
        <ele>1947</ele>
        <time>2019-07-14T12:56:32Z</time>
      </trkpt>
      <trkpt lat="45.01459" lon="5.56988">
        <ele>1947</ele>
        <time>2019-07-14T12:56:33Z</time>
      </trkpt>
      <trkpt lat="45.01461" lon="5.56986">
        <ele>1947</ele>
        <time>2019-07-14T12:56:34Z</time>
      </trkpt>
      <trkpt lat="45.01463" lon="5.56983">
        <ele>1948</ele>
        <time>2019-07-14T12:56:35Z</time>
      </trkpt>
      <trkpt lat="45.01466" lon="5.5698">
        <ele>1948</ele>
        <time>2019-07-14T12:56:36Z</time>
      </trkpt>
      <trkpt lat="45.01468" lon="5.56977">
        <ele>1948</ele>
        <time>2019-07-14T12:56:37Z</time>
      </trkpt>
      <trkpt lat="45.01469" lon="5.56974">
        <ele>1947</ele>
        <time>2019-07-14T12:56:38Z</time>
      </trkpt>
      <trkpt lat="45.01471" lon="5.5697">
        <ele>1947</ele>
        <time>2019-07-14T12:56:39Z</time>
      </trkpt>
      <trkpt lat="45.01473" lon="5.56967">
        <ele>1947</ele>
        <time>2019-07-14T12:56:40Z</time>
      </trkpt>
      <trkpt lat="45.01476" lon="5.56964">
        <ele>1947</ele>
        <time>2019-07-14T12:56:41Z</time>
      </trkpt>
      <trkpt lat="45.01479" lon="5.56961">
        <ele>1947</ele>
        <time>2019-07-14T12:56:42Z</time>
      </trkpt>
      <trkpt lat="45.01481" lon="5.56959">
        <ele>1947</ele>
        <time>2019-07-14T12:56:43Z</time>
      </trkpt>
      <trkpt lat="45.01484" lon="5.56957">
        <ele>1947</ele>
        <time>2019-07-14T12:56:44Z</time>
      </trkpt>
      <trkpt lat="45.01487" lon="5.56955">
        <ele>1947</ele>
        <time>2019-07-14T12:56:45Z</time>
      </trkpt>
      <trkpt lat="45.0149" lon="5.56954">
        <ele>1947</ele>
        <time>2019-07-14T12:56:46Z</time>
      </trkpt>
      <trkpt lat="45.01492" lon="5.56954">
        <ele>1947</ele>
        <time>2019-07-14T12:56:47Z</time>
      </trkpt>
      <trkpt lat="45.01498" lon="5.56954">
        <ele>1948</ele>
        <time>2019-07-14T12:56:49Z</time>
      </trkpt>
      <trkpt lat="45.01501" lon="5.56955">
        <ele>1956</ele>
        <time>2019-07-14T12:56:50Z</time>
      </trkpt>
      <trkpt lat="45.01504" lon="5.56956">
        <ele>1957</ele>
        <time>2019-07-14T12:56:51Z</time>
      </trkpt>
      <trkpt lat="45.01506" lon="5.56957">
        <ele>1957</ele>
        <time>2019-07-14T12:56:52Z</time>
      </trkpt>
      <trkpt lat="45.01509" lon="5.56959">
        <ele>1957</ele>
        <time>2019-07-14T12:56:53Z</time>
      </trkpt>
      <trkpt lat="45.01512" lon="5.5696">
        <ele>1958</ele>
        <time>2019-07-14T12:56:54Z</time>
      </trkpt>
      <trkpt lat="45.01514" lon="5.56962">
        <ele>1958</ele>
        <time>2019-07-14T12:56:55Z</time>
      </trkpt>
      <trkpt lat="45.01517" lon="5.56962">
        <ele>1958</ele>
        <time>2019-07-14T12:56:56Z</time>
      </trkpt>
      <trkpt lat="45.01519" lon="5.56963">
        <ele>1958</ele>
        <time>2019-07-14T12:56:57Z</time>
      </trkpt>
      <trkpt lat="45.01524" lon="5.56962">
        <ele>1958</ele>
        <time>2019-07-14T12:56:59Z</time>
      </trkpt>
      <trkpt lat="45.01532" lon="5.56962">
        <ele>1958</ele>
        <time>2019-07-14T12:57:02Z</time>
      </trkpt>
      <trkpt lat="45.01534" lon="5.56962">
        <ele>1958</ele>
        <time>2019-07-14T12:57:03Z</time>
      </trkpt>
      <trkpt lat="45.01537" lon="5.56961">
        <ele>1958</ele>
        <time>2019-07-14T12:57:04Z</time>
      </trkpt>
      <trkpt lat="45.01539" lon="5.5696">
        <ele>1958</ele>
        <time>2019-07-14T12:57:05Z</time>
      </trkpt>
      <trkpt lat="45.01542" lon="5.56959">
        <ele>1958</ele>
        <time>2019-07-14T12:57:06Z</time>
      </trkpt>
      <trkpt lat="45.01544" lon="5.56958">
        <ele>1958</ele>
        <time>2019-07-14T12:57:07Z</time>
      </trkpt>
      <trkpt lat="45.01546" lon="5.56958">
        <ele>1958</ele>
        <time>2019-07-14T12:57:08Z</time>
      </trkpt>
      <trkpt lat="45.01548" lon="5.56958">
        <ele>1958</ele>
        <time>2019-07-14T12:57:09Z</time>
      </trkpt>
      <trkpt lat="45.01551" lon="5.56958">
        <ele>1958</ele>
        <time>2019-07-14T12:57:10Z</time>
      </trkpt>
      <trkpt lat="45.01554" lon="5.56959">
        <ele>1958</ele>
        <time>2019-07-14T12:57:11Z</time>
      </trkpt>
      <trkpt lat="45.01556" lon="5.56959">
        <ele>1958</ele>
        <time>2019-07-14T12:57:12Z</time>
      </trkpt>
      <trkpt lat="45.01558" lon="5.5696">
        <ele>1958</ele>
        <time>2019-07-14T12:57:13Z</time>
      </trkpt>
      <trkpt lat="45.01561" lon="5.56961">
        <ele>1959</ele>
        <time>2019-07-14T12:57:14Z</time>
      </trkpt>
      <trkpt lat="45.01563" lon="5.56962">
        <ele>1959</ele>
        <time>2019-07-14T12:57:15Z</time>
      </trkpt>
      <trkpt lat="45.01566" lon="5.56963">
        <ele>1959</ele>
        <time>2019-07-14T12:57:16Z</time>
      </trkpt>
      <trkpt lat="45.01568" lon="5.56964">
        <ele>1959</ele>
        <time>2019-07-14T12:57:17Z</time>
      </trkpt>
      <trkpt lat="45.01569" lon="5.56966">
        <ele>1960</ele>
        <time>2019-07-14T12:57:18Z</time>
      </trkpt>
      <trkpt lat="45.01572" lon="5.56968">
        <ele>1960</ele>
        <time>2019-07-14T12:57:19Z</time>
      </trkpt>
      <trkpt lat="45.01574" lon="5.5697">
        <ele>1961</ele>
        <time>2019-07-14T12:57:20Z</time>
      </trkpt>
      <trkpt lat="45.01576" lon="5.56971">
        <ele>1961</ele>
        <time>2019-07-14T12:57:21Z</time>
      </trkpt>
      <trkpt lat="45.01578" lon="5.56973">
        <ele>1962</ele>
        <time>2019-07-14T12:57:22Z</time>
      </trkpt>
      <trkpt lat="45.0158" lon="5.56976">
        <ele>1962</ele>
        <time>2019-07-14T12:57:23Z</time>
      </trkpt>
      <trkpt lat="45.01582" lon="5.56978">
        <ele>1963</ele>
        <time>2019-07-14T12:57:24Z</time>
      </trkpt>
      <trkpt lat="45.01584" lon="5.5698">
        <ele>1961</ele>
        <time>2019-07-14T12:57:25Z</time>
      </trkpt>
      <trkpt lat="45.01585" lon="5.56982">
        <ele>1962</ele>
        <time>2019-07-14T12:57:26Z</time>
      </trkpt>
      <trkpt lat="45.01587" lon="5.56984">
        <ele>1963</ele>
        <time>2019-07-14T12:57:27Z</time>
      </trkpt>
      <trkpt lat="45.01589" lon="5.56986">
        <ele>1963</ele>
        <time>2019-07-14T12:57:28Z</time>
      </trkpt>
      <trkpt lat="45.01591" lon="5.56989">
        <ele>1964</ele>
        <time>2019-07-14T12:57:29Z</time>
      </trkpt>
      <trkpt lat="45.01593" lon="5.56991">
        <ele>1964</ele>
        <time>2019-07-14T12:57:30Z</time>
      </trkpt>
      <trkpt lat="45.01595" lon="5.56993">
        <ele>1964</ele>
        <time>2019-07-14T12:57:31Z</time>
      </trkpt>
      <trkpt lat="45.01596" lon="5.56996">
        <ele>1964</ele>
        <time>2019-07-14T12:57:32Z</time>
      </trkpt>
      <trkpt lat="45.01598" lon="5.56999">
        <ele>1964</ele>
        <time>2019-07-14T12:57:33Z</time>
      </trkpt>
      <trkpt lat="45.016" lon="5.57002">
        <ele>1972</ele>
        <time>2019-07-14T12:57:34Z</time>
      </trkpt>
      <trkpt lat="45.01601" lon="5.57004">
        <ele>1972</ele>
        <time>2019-07-14T12:57:35Z</time>
      </trkpt>
      <trkpt lat="45.01602" lon="5.57006">
        <ele>1972</ele>
        <time>2019-07-14T12:57:36Z</time>
      </trkpt>
      <trkpt lat="45.01603" lon="5.57012">
        <ele>1973</ele>
        <time>2019-07-14T12:57:38Z</time>
      </trkpt>
      <trkpt lat="45.01603" lon="5.57014">
        <ele>1973</ele>
        <time>2019-07-14T12:57:39Z</time>
      </trkpt>
      <trkpt lat="45.01603" lon="5.57017">
        <ele>1973</ele>
        <time>2019-07-14T12:57:40Z</time>
      </trkpt>
      <trkpt lat="45.01602" lon="5.57019">
        <ele>1973</ele>
        <time>2019-07-14T12:57:41Z</time>
      </trkpt>
      <trkpt lat="45.016" lon="5.57021">
        <ele>1974</ele>
        <time>2019-07-14T12:57:42Z</time>
      </trkpt>
      <trkpt lat="45.01598" lon="5.57022">
        <ele>1974</ele>
        <time>2019-07-14T12:57:43Z</time>
      </trkpt>
      <trkpt lat="45.01596" lon="5.57023">
        <ele>1974</ele>
        <time>2019-07-14T12:57:44Z</time>
      </trkpt>
      <trkpt lat="45.01594" lon="5.57023">
        <ele>1974</ele>
        <time>2019-07-14T12:57:45Z</time>
      </trkpt>
      <trkpt lat="45.01592" lon="5.57022">
        <ele>1974</ele>
        <time>2019-07-14T12:57:46Z</time>
      </trkpt>
      <trkpt lat="45.0159" lon="5.57021">
        <ele>1974</ele>
        <time>2019-07-14T12:57:47Z</time>
      </trkpt>
      <trkpt lat="45.01589" lon="5.57019">
        <ele>1973</ele>
        <time>2019-07-14T12:57:48Z</time>
      </trkpt>
      <trkpt lat="45.01588" lon="5.57017">
        <ele>1973</ele>
        <time>2019-07-14T12:57:49Z</time>
      </trkpt>
      <trkpt lat="45.01587" lon="5.57015">
        <ele>1973</ele>
        <time>2019-07-14T12:57:50Z</time>
      </trkpt>
      <trkpt lat="45.01585" lon="5.57014">
        <ele>1973</ele>
        <time>2019-07-14T12:57:51Z</time>
      </trkpt>
      <trkpt lat="45.01584" lon="5.57012">
        <ele>1973</ele>
        <time>2019-07-14T12:57:52Z</time>
      </trkpt>
      <trkpt lat="45.01582" lon="5.57009">
        <ele>1974</ele>
        <time>2019-07-14T12:57:53Z</time>
      </trkpt>
      <trkpt lat="45.01581" lon="5.57007">
        <ele>1973</ele>
        <time>2019-07-14T12:57:54Z</time>
      </trkpt>
      <trkpt lat="45.0158" lon="5.57006">
        <ele>1973</ele>
        <time>2019-07-14T12:57:55Z</time>
      </trkpt>
      <trkpt lat="45.01578" lon="5.57006">
        <ele>1973</ele>
        <time>2019-07-14T12:57:56Z</time>
      </trkpt>
      <trkpt lat="45.01574" lon="5.57006">
        <ele>1974</ele>
        <time>2019-07-14T12:57:58Z</time>
      </trkpt>
      <trkpt lat="45.01572" lon="5.57007">
        <ele>1974</ele>
        <time>2019-07-14T12:57:59Z</time>
      </trkpt>
      <trkpt lat="45.01571" lon="5.57008">
        <ele>1975</ele>
        <time>2019-07-14T12:58:00Z</time>
      </trkpt>
      <trkpt lat="45.01569" lon="5.57009">
        <ele>1975</ele>
        <time>2019-07-14T12:58:01Z</time>
      </trkpt>
      <trkpt lat="45.01568" lon="5.57011">
        <ele>1975</ele>
        <time>2019-07-14T12:58:02Z</time>
      </trkpt>
      <trkpt lat="45.01567" lon="5.57013">
        <ele>1976</ele>
        <time>2019-07-14T12:58:03Z</time>
      </trkpt>
      <trkpt lat="45.01566" lon="5.57015">
        <ele>1976</ele>
        <time>2019-07-14T12:58:04Z</time>
      </trkpt>
      <trkpt lat="45.01565" lon="5.57018">
        <ele>1977</ele>
        <time>2019-07-14T12:58:05Z</time>
      </trkpt>
      <trkpt lat="45.01565" lon="5.57024">
        <ele>1977</ele>
        <time>2019-07-14T12:58:07Z</time>
      </trkpt>
      <trkpt lat="45.01566" lon="5.57027">
        <ele>1978</ele>
        <time>2019-07-14T12:58:08Z</time>
      </trkpt>
      <trkpt lat="45.01568" lon="5.5703">
        <ele>1978</ele>
        <time>2019-07-14T12:58:09Z</time>
      </trkpt>
      <trkpt lat="45.01569" lon="5.57032">
        <ele>1979</ele>
        <time>2019-07-14T12:58:10Z</time>
      </trkpt>
      <trkpt lat="45.0157" lon="5.57035">
        <ele>1979</ele>
        <time>2019-07-14T12:58:11Z</time>
      </trkpt>
      <trkpt lat="45.01571" lon="5.57038">
        <ele>1980</ele>
        <time>2019-07-14T12:58:12Z</time>
      </trkpt>
      <trkpt lat="45.01571" lon="5.57041">
        <ele>1980</ele>
        <time>2019-07-14T12:58:13Z</time>
      </trkpt>
      <trkpt lat="45.01572" lon="5.57043">
        <ele>1981</ele>
        <time>2019-07-14T12:58:14Z</time>
      </trkpt>
      <trkpt lat="45.01572" lon="5.57046">
        <ele>1981</ele>
        <time>2019-07-14T12:58:15Z</time>
      </trkpt>
      <trkpt lat="45.01573" lon="5.57048">
        <ele>1981</ele>
        <time>2019-07-14T12:58:16Z</time>
      </trkpt>
      <trkpt lat="45.01574" lon="5.57051">
        <ele>1982</ele>
        <time>2019-07-14T12:58:17Z</time>
      </trkpt>
      <trkpt lat="45.01574" lon="5.57053">
        <ele>1983</ele>
        <time>2019-07-14T12:58:18Z</time>
      </trkpt>
      <trkpt lat="45.01575" lon="5.57056">
        <ele>1983</ele>
        <time>2019-07-14T12:58:19Z</time>
      </trkpt>
      <trkpt lat="45.01575" lon="5.57058">
        <ele>1984</ele>
        <time>2019-07-14T12:58:20Z</time>
      </trkpt>
      <trkpt lat="45.01576" lon="5.57063">
        <ele>1985</ele>
        <time>2019-07-14T12:58:22Z</time>
      </trkpt>
      <trkpt lat="45.01576" lon="5.57065">
        <ele>1985</ele>
        <time>2019-07-14T12:58:23Z</time>
      </trkpt>
      <trkpt lat="45.01577" lon="5.57068">
        <ele>1986</ele>
        <time>2019-07-14T12:58:24Z</time>
      </trkpt>
      <trkpt lat="45.01578" lon="5.57071">
        <ele>1987</ele>
        <time>2019-07-14T12:58:25Z</time>
      </trkpt>
      <trkpt lat="45.01579" lon="5.57073">
        <ele>1988</ele>
        <time>2019-07-14T12:58:26Z</time>
      </trkpt>
      <trkpt lat="45.0158" lon="5.57076">
        <ele>1988</ele>
        <time>2019-07-14T12:58:27Z</time>
      </trkpt>
      <trkpt lat="45.0158" lon="5.57078">
        <ele>1989</ele>
        <time>2019-07-14T12:58:28Z</time>
      </trkpt>
      <trkpt lat="45.01581" lon="5.57081">
        <ele>1990</ele>
        <time>2019-07-14T12:58:29Z</time>
      </trkpt>
      <trkpt lat="45.01581" lon="5.57083">
        <ele>1991</ele>
        <time>2019-07-14T12:58:30Z</time>
      </trkpt>
      <trkpt lat="45.01582" lon="5.57086">
        <ele>1993</ele>
        <time>2019-07-14T12:58:31Z</time>
      </trkpt>
      <trkpt lat="45.01583" lon="5.57088">
        <ele>1994</ele>
        <time>2019-07-14T12:58:32Z</time>
      </trkpt>
      <trkpt lat="45.01584" lon="5.57091">
        <ele>1992</ele>
        <time>2019-07-14T12:58:33Z</time>
      </trkpt>
      <trkpt lat="45.01585" lon="5.57093">
        <ele>1993</ele>
        <time>2019-07-14T12:58:34Z</time>
      </trkpt>
      <trkpt lat="45.01586" lon="5.57095">
        <ele>1993</ele>
        <time>2019-07-14T12:58:35Z</time>
      </trkpt>
      <trkpt lat="45.01587" lon="5.57097">
        <ele>1993</ele>
        <time>2019-07-14T12:58:36Z</time>
      </trkpt>
      <trkpt lat="45.01588" lon="5.57099">
        <ele>1993</ele>
        <time>2019-07-14T12:58:37Z</time>
      </trkpt>
      <trkpt lat="45.01589" lon="5.57101">
        <ele>1993</ele>
        <time>2019-07-14T12:58:38Z</time>
      </trkpt>
      <trkpt lat="45.01589" lon="5.57103">
        <ele>1993</ele>
        <time>2019-07-14T12:58:39Z</time>
      </trkpt>
      <trkpt lat="45.0159" lon="5.57105">
        <ele>1994</ele>
        <time>2019-07-14T12:58:40Z</time>
      </trkpt>
      <trkpt lat="45.0159" lon="5.57107">
        <ele>1994</ele>
        <time>2019-07-14T12:58:41Z</time>
      </trkpt>
      <trkpt lat="45.01591" lon="5.5711">
        <ele>1994</ele>
        <time>2019-07-14T12:58:42Z</time>
      </trkpt>
      <trkpt lat="45.01591" lon="5.57113">
        <ele>1994</ele>
        <time>2019-07-14T12:58:43Z</time>
      </trkpt>
      <trkpt lat="45.01592" lon="5.57115">
        <ele>1994</ele>
        <time>2019-07-14T12:58:44Z</time>
      </trkpt>
      <trkpt lat="45.01592" lon="5.57118">
        <ele>1995</ele>
        <time>2019-07-14T12:58:45Z</time>
      </trkpt>
      <trkpt lat="45.01592" lon="5.5712">
        <ele>1995</ele>
        <time>2019-07-14T12:58:46Z</time>
      </trkpt>
      <trkpt lat="45.01593" lon="5.57123">
        <ele>1995</ele>
        <time>2019-07-14T12:58:47Z</time>
      </trkpt>
      <trkpt lat="45.01593" lon="5.57125">
        <ele>1996</ele>
        <time>2019-07-14T12:58:48Z</time>
      </trkpt>
      <trkpt lat="45.01594" lon="5.57126">
        <ele>1996</ele>
        <time>2019-07-14T12:58:49Z</time>
      </trkpt>
      <trkpt lat="45.01595" lon="5.57127">
        <ele>1996</ele>
        <time>2019-07-14T12:58:50Z</time>
      </trkpt>
      <trkpt lat="45.01596" lon="5.57129">
        <ele>1996</ele>
        <time>2019-07-14T12:58:51Z</time>
      </trkpt>
      <trkpt lat="45.01597" lon="5.5713">
        <ele>1996</ele>
        <time>2019-07-14T12:58:52Z</time>
      </trkpt>
      <trkpt lat="45.01598" lon="5.57132">
        <ele>1996</ele>
        <time>2019-07-14T12:58:53Z</time>
      </trkpt>
      <trkpt lat="45.01598" lon="5.57134">
        <ele>1997</ele>
        <time>2019-07-14T12:58:54Z</time>
      </trkpt>
      <trkpt lat="45.01599" lon="5.57136">
        <ele>1997</ele>
        <time>2019-07-14T12:58:55Z</time>
      </trkpt>
      <trkpt lat="45.016" lon="5.57137">
        <ele>1997</ele>
        <time>2019-07-14T12:58:56Z</time>
      </trkpt>
      <trkpt lat="45.01599" lon="5.57139">
        <ele>1997</ele>
        <time>2019-07-14T12:58:57Z</time>
      </trkpt>
      <trkpt lat="45.01598" lon="5.5714">
        <ele>1998</ele>
        <time>2019-07-14T12:58:58Z</time>
      </trkpt>
      <trkpt lat="45.01597" lon="5.5714">
        <ele>1998</ele>
        <time>2019-07-14T12:58:59Z</time>
      </trkpt>
      <trkpt lat="45.01596" lon="5.5714">
        <ele>1998</ele>
        <time>2019-07-14T12:59:00Z</time>
      </trkpt>
      <trkpt lat="45.01594" lon="5.5714">
        <ele>1998</ele>
        <time>2019-07-14T12:59:01Z</time>
      </trkpt>
      <trkpt lat="45.01592" lon="5.5714">
        <ele>1998</ele>
        <time>2019-07-14T12:59:02Z</time>
      </trkpt>
      <trkpt lat="45.0159" lon="5.57139">
        <ele>1998</ele>
        <time>2019-07-14T12:59:03Z</time>
      </trkpt>
      <trkpt lat="45.01588" lon="5.57139">
        <ele>1998</ele>
        <time>2019-07-14T12:59:04Z</time>
      </trkpt>
      <trkpt lat="45.01587" lon="5.57138">
        <ele>1998</ele>
        <time>2019-07-14T12:59:05Z</time>
      </trkpt>
      <trkpt lat="45.01585" lon="5.57137">
        <ele>1998</ele>
        <time>2019-07-14T12:59:06Z</time>
      </trkpt>
      <trkpt lat="45.01582" lon="5.57137">
        <ele>2002</ele>
        <time>2019-07-14T12:59:07Z</time>
      </trkpt>
      <trkpt lat="45.0158" lon="5.57136">
        <ele>2002</ele>
        <time>2019-07-14T12:59:08Z</time>
      </trkpt>
      <trkpt lat="45.01579" lon="5.57135">
        <ele>2002</ele>
        <time>2019-07-14T12:59:09Z</time>
      </trkpt>
      <trkpt lat="45.01577" lon="5.57134">
        <ele>2002</ele>
        <time>2019-07-14T12:59:10Z</time>
      </trkpt>
      <trkpt lat="45.01575" lon="5.57133">
        <ele>2002</ele>
        <time>2019-07-14T12:59:11Z</time>
      </trkpt>
      <trkpt lat="45.01573" lon="5.57133">
        <ele>2001</ele>
        <time>2019-07-14T12:59:12Z</time>
      </trkpt>
      <trkpt lat="45.01571" lon="5.57132">
        <ele>2001</ele>
        <time>2019-07-14T12:59:13Z</time>
      </trkpt>
      <trkpt lat="45.01569" lon="5.57131">
        <ele>2001</ele>
        <time>2019-07-14T12:59:14Z</time>
      </trkpt>
      <trkpt lat="45.01568" lon="5.5713">
        <ele>2001</ele>
        <time>2019-07-14T12:59:15Z</time>
      </trkpt>
      <trkpt lat="45.01566" lon="5.57129">
        <ele>2001</ele>
        <time>2019-07-14T12:59:16Z</time>
      </trkpt>
      <trkpt lat="45.01564" lon="5.57128">
        <ele>2001</ele>
        <time>2019-07-14T12:59:17Z</time>
      </trkpt>
      <trkpt lat="45.01562" lon="5.57127">
        <ele>2001</ele>
        <time>2019-07-14T12:59:18Z</time>
      </trkpt>
      <trkpt lat="45.0156" lon="5.57126">
        <ele>2001</ele>
        <time>2019-07-14T12:59:19Z</time>
      </trkpt>
      <trkpt lat="45.01558" lon="5.57125">
        <ele>2000</ele>
        <time>2019-07-14T12:59:20Z</time>
      </trkpt>
      <trkpt lat="45.01556" lon="5.57124">
        <ele>2000</ele>
        <time>2019-07-14T12:59:21Z</time>
      </trkpt>
      <trkpt lat="45.01553" lon="5.57123">
        <ele>2000</ele>
        <time>2019-07-14T12:59:22Z</time>
      </trkpt>
      <trkpt lat="45.01552" lon="5.57122">
        <ele>2000</ele>
        <time>2019-07-14T12:59:23Z</time>
      </trkpt>
      <trkpt lat="45.0155" lon="5.57121">
        <ele>2000</ele>
        <time>2019-07-14T12:59:24Z</time>
      </trkpt>
      <trkpt lat="45.01548" lon="5.5712">
        <ele>2000</ele>
        <time>2019-07-14T12:59:25Z</time>
      </trkpt>
      <trkpt lat="45.01545" lon="5.57121">
        <ele>2000</ele>
        <time>2019-07-14T12:59:26Z</time>
      </trkpt>
      <trkpt lat="45.01543" lon="5.57122">
        <ele>2000</ele>
        <time>2019-07-14T12:59:27Z</time>
      </trkpt>
      <trkpt lat="45.01542" lon="5.57124">
        <ele>2000</ele>
        <time>2019-07-14T12:59:28Z</time>
      </trkpt>
      <trkpt lat="45.0154" lon="5.57127">
        <ele>2001</ele>
        <time>2019-07-14T12:59:29Z</time>
      </trkpt>
      <trkpt lat="45.01539" lon="5.57129">
        <ele>2001</ele>
        <time>2019-07-14T12:59:30Z</time>
      </trkpt>
      <trkpt lat="45.01537" lon="5.5713">
        <ele>2001</ele>
        <time>2019-07-14T12:59:31Z</time>
      </trkpt>
      <trkpt lat="45.01536" lon="5.57131">
        <ele>2001</ele>
        <time>2019-07-14T12:59:32Z</time>
      </trkpt>
      <trkpt lat="45.01534" lon="5.57132">
        <ele>2001</ele>
        <time>2019-07-14T12:59:33Z</time>
      </trkpt>
      <trkpt lat="45.01532" lon="5.57133">
        <ele>2002</ele>
        <time>2019-07-14T12:59:34Z</time>
      </trkpt>
      <trkpt lat="45.01531" lon="5.57134">
        <ele>2002</ele>
        <time>2019-07-14T12:59:35Z</time>
      </trkpt>
      <trkpt lat="45.01529" lon="5.57135">
        <ele>2002</ele>
        <time>2019-07-14T12:59:36Z</time>
      </trkpt>
      <trkpt lat="45.01528" lon="5.57136">
        <ele>2002</ele>
        <time>2019-07-14T12:59:37Z</time>
      </trkpt>
      <trkpt lat="45.01527" lon="5.57138">
        <ele>2002</ele>
        <time>2019-07-14T12:59:38Z</time>
      </trkpt>
      <trkpt lat="45.01526" lon="5.57139">
        <ele>2003</ele>
        <time>2019-07-14T12:59:39Z</time>
      </trkpt>
      <trkpt lat="45.01525" lon="5.5714">
        <ele>2003</ele>
        <time>2019-07-14T12:59:40Z</time>
      </trkpt>
      <trkpt lat="45.01523" lon="5.5714">
        <ele>2003</ele>
        <time>2019-07-14T12:59:41Z</time>
      </trkpt>
      <trkpt lat="45.01522" lon="5.57141">
        <ele>2003</ele>
        <time>2019-07-14T12:59:42Z</time>
      </trkpt>
      <trkpt lat="45.01521" lon="5.57142">
        <ele>2003</ele>
        <time>2019-07-14T12:59:43Z</time>
      </trkpt>
      <trkpt lat="45.01519" lon="5.57144">
        <ele>2004</ele>
        <time>2019-07-14T12:59:44Z</time>
      </trkpt>
      <trkpt lat="45.01519" lon="5.57146">
        <ele>2004</ele>
        <time>2019-07-14T12:59:45Z</time>
      </trkpt>
      <trkpt lat="45.01519" lon="5.57153">
        <ele>2005</ele>
        <time>2019-07-14T12:59:48Z</time>
      </trkpt>
      <trkpt lat="45.01519" lon="5.57155">
        <ele>2005</ele>
        <time>2019-07-14T12:59:49Z</time>
      </trkpt>
      <trkpt lat="45.0152" lon="5.57167">
        <ele>2010</ele>
        <time>2019-07-14T12:59:54Z</time>
      </trkpt>
      <trkpt lat="45.01519" lon="5.57172">
        <ele>2010</ele>
        <time>2019-07-14T12:59:56Z</time>
      </trkpt>
      <trkpt lat="45.0152" lon="5.57177">
        <ele>2010</ele>
        <time>2019-07-14T12:59:58Z</time>
      </trkpt>
      <trkpt lat="45.01521" lon="5.57179">
        <ele>2010</ele>
        <time>2019-07-14T12:59:59Z</time>
      </trkpt>
      <trkpt lat="45.01521" lon="5.57181">
        <ele>2010</ele>
        <time>2019-07-14T13:00:00Z</time>
      </trkpt>
      <trkpt lat="45.01522" lon="5.57182">
        <ele>2010</ele>
        <time>2019-07-14T13:00:01Z</time>
      </trkpt>
      <trkpt lat="45.01522" lon="5.57185">
        <ele>2010</ele>
        <time>2019-07-14T13:00:02Z</time>
      </trkpt>
      <trkpt lat="45.01523" lon="5.57186">
        <ele>2010</ele>
        <time>2019-07-14T13:00:03Z</time>
      </trkpt>
      <trkpt lat="45.01523" lon="5.57188">
        <ele>2010</ele>
        <time>2019-07-14T13:00:04Z</time>
      </trkpt>
      <trkpt lat="45.01524" lon="5.57189">
        <ele>2010</ele>
        <time>2019-07-14T13:00:05Z</time>
      </trkpt>
      <trkpt lat="45.01525" lon="5.57191">
        <ele>2010</ele>
        <time>2019-07-14T13:00:06Z</time>
      </trkpt>
      <trkpt lat="45.01526" lon="5.57193">
        <ele>2010</ele>
        <time>2019-07-14T13:00:07Z</time>
      </trkpt>
      <trkpt lat="45.01527" lon="5.57194">
        <ele>2010</ele>
        <time>2019-07-14T13:00:08Z</time>
      </trkpt>
      <trkpt lat="45.01527" lon="5.57196">
        <ele>2010</ele>
        <time>2019-07-14T13:00:09Z</time>
      </trkpt>
      <trkpt lat="45.01529" lon="5.57198">
        <ele>2010</ele>
        <time>2019-07-14T13:00:10Z</time>
      </trkpt>
      <trkpt lat="45.01529" lon="5.572">
        <ele>2010</ele>
        <time>2019-07-14T13:00:11Z</time>
      </trkpt>
      <trkpt lat="45.0153" lon="5.57201">
        <ele>2009</ele>
        <time>2019-07-14T13:00:12Z</time>
      </trkpt>
      <trkpt lat="45.01531" lon="5.57203">
        <ele>2009</ele>
        <time>2019-07-14T13:00:13Z</time>
      </trkpt>
      <trkpt lat="45.01531" lon="5.57205">
        <ele>2009</ele>
        <time>2019-07-14T13:00:14Z</time>
      </trkpt>
      <trkpt lat="45.01532" lon="5.57207">
        <ele>2009</ele>
        <time>2019-07-14T13:00:15Z</time>
      </trkpt>
      <trkpt lat="45.01532" lon="5.57208">
        <ele>2009</ele>
        <time>2019-07-14T13:00:16Z</time>
      </trkpt>
      <trkpt lat="45.01532" lon="5.57212">
        <ele>2009</ele>
        <time>2019-07-14T13:00:18Z</time>
      </trkpt>
      <trkpt lat="45.01533" lon="5.57214">
        <ele>2009</ele>
        <time>2019-07-14T13:00:19Z</time>
      </trkpt>
      <trkpt lat="45.01533" lon="5.57216">
        <ele>2009</ele>
        <time>2019-07-14T13:00:20Z</time>
      </trkpt>
      <trkpt lat="45.01534" lon="5.57217">
        <ele>2009</ele>
        <time>2019-07-14T13:00:21Z</time>
      </trkpt>
      <trkpt lat="45.01535" lon="5.5722">
        <ele>2009</ele>
        <time>2019-07-14T13:00:22Z</time>
      </trkpt>
      <trkpt lat="45.01536" lon="5.57222">
        <ele>2009</ele>
        <time>2019-07-14T13:00:23Z</time>
      </trkpt>
      <trkpt lat="45.01537" lon="5.57223">
        <ele>2009</ele>
        <time>2019-07-14T13:00:24Z</time>
      </trkpt>
      <trkpt lat="45.01538" lon="5.57225">
        <ele>2009</ele>
        <time>2019-07-14T13:00:25Z</time>
      </trkpt>
      <trkpt lat="45.01539" lon="5.57226">
        <ele>2009</ele>
        <time>2019-07-14T13:00:26Z</time>
      </trkpt>
      <trkpt lat="45.01539" lon="5.57226">
        <ele>2009</ele>
        <time>2019-07-14T13:00:27Z</time>
      </trkpt>
      <trkpt lat="45.0154" lon="5.57226">
        <ele>2009</ele>
        <time>2019-07-14T13:02:21Z</time>
      </trkpt>
      <trkpt lat="45.01541" lon="5.57227">
        <ele>2009</ele>
        <time>2019-07-14T13:02:22Z</time>
      </trkpt>
      <trkpt lat="45.01542" lon="5.57227">
        <ele>2009</ele>
        <time>2019-07-14T13:02:23Z</time>
      </trkpt>
      <trkpt lat="45.01542" lon="5.57227">
        <ele>2009</ele>
        <time>2019-07-14T13:02:26Z</time>
      </trkpt>
      <trkpt lat="45.01543" lon="5.57227">
        <ele>2009</ele>
        <time>2019-07-14T13:02:27Z</time>
      </trkpt>
      <trkpt lat="45.01544" lon="5.57228">
        <ele>2009</ele>
        <time>2019-07-14T13:02:28Z</time>
      </trkpt>
      <trkpt lat="45.01545" lon="5.57228">
        <ele>2009</ele>
        <time>2019-07-14T13:02:29Z</time>
      </trkpt>
      <trkpt lat="45.01545" lon="5.57228">
        <ele>2009</ele>
        <time>2019-07-14T13:02:30Z</time>
      </trkpt>
      <trkpt lat="45.01546" lon="5.57228">
        <ele>2009</ele>
        <time>2019-07-14T13:03:01Z</time>
      </trkpt>
      <trkpt lat="45.01547" lon="5.57227">
        <ele>2009</ele>
        <time>2019-07-14T13:03:02Z</time>
      </trkpt>
      <trkpt lat="45.01548" lon="5.57226">
        <ele>2008</ele>
        <time>2019-07-14T13:03:03Z</time>
      </trkpt>
      <trkpt lat="45.0155" lon="5.57225">
        <ele>2008</ele>
        <time>2019-07-14T13:03:04Z</time>
      </trkpt>
      <trkpt lat="45.01551" lon="5.57224">
        <ele>2008</ele>
        <time>2019-07-14T13:03:05Z</time>
      </trkpt>
      <trkpt lat="45.01554" lon="5.57222">
        <ele>2008</ele>
        <time>2019-07-14T13:03:06Z</time>
      </trkpt>
      <trkpt lat="45.01556" lon="5.5722">
        <ele>2008</ele>
        <time>2019-07-14T13:03:07Z</time>
      </trkpt>
      <trkpt lat="45.01559" lon="5.57218">
        <ele>2008</ele>
        <time>2019-07-14T13:03:08Z</time>
      </trkpt>
      <trkpt lat="45.01562" lon="5.57215">
        <ele>2008</ele>
        <time>2019-07-14T13:03:09Z</time>
      </trkpt>
      <trkpt lat="45.01565" lon="5.57213">
        <ele>2008</ele>
        <time>2019-07-14T13:03:10Z</time>
      </trkpt>
      <trkpt lat="45.01569" lon="5.57212">
        <ele>2008</ele>
        <time>2019-07-14T13:03:11Z</time>
      </trkpt>
      <trkpt lat="45.01572" lon="5.5721">
        <ele>2008</ele>
        <time>2019-07-14T13:03:12Z</time>
      </trkpt>
      <trkpt lat="45.01576" lon="5.57208">
        <ele>2008</ele>
        <time>2019-07-14T13:03:13Z</time>
      </trkpt>
      <trkpt lat="45.01579" lon="5.57206">
        <ele>2008</ele>
        <time>2019-07-14T13:03:14Z</time>
      </trkpt>
      <trkpt lat="45.01584" lon="5.57204">
        <ele>2000</ele>
        <time>2019-07-14T13:03:15Z</time>
      </trkpt>
      <trkpt lat="45.01588" lon="5.57201">
        <ele>2000</ele>
        <time>2019-07-14T13:03:16Z</time>
      </trkpt>
      <trkpt lat="45.01593" lon="5.57199">
        <ele>2000</ele>
        <time>2019-07-14T13:03:17Z</time>
      </trkpt>
      <trkpt lat="45.01598" lon="5.57196">
        <ele>1999</ele>
        <time>2019-07-14T13:03:18Z</time>
      </trkpt>
      <trkpt lat="45.01605" lon="5.57193">
        <ele>1999</ele>
        <time>2019-07-14T13:03:19Z</time>
      </trkpt>
      <trkpt lat="45.01611" lon="5.5719">
        <ele>1998</ele>
        <time>2019-07-14T13:03:20Z</time>
      </trkpt>
      <trkpt lat="45.01617" lon="5.57187">
        <ele>1998</ele>
        <time>2019-07-14T13:03:21Z</time>
      </trkpt>
      <trkpt lat="45.01623" lon="5.57184">
        <ele>1997</ele>
        <time>2019-07-14T13:03:22Z</time>
      </trkpt>
      <trkpt lat="45.01629" lon="5.57181">
        <ele>1997</ele>
        <time>2019-07-14T13:03:23Z</time>
      </trkpt>
      <trkpt lat="45.01635" lon="5.57178">
        <ele>1996</ele>
        <time>2019-07-14T13:03:24Z</time>
      </trkpt>
      <trkpt lat="45.01642" lon="5.57174">
        <ele>1996</ele>
        <time>2019-07-14T13:03:25Z</time>
      </trkpt>
      <trkpt lat="45.01648" lon="5.57169">
        <ele>1995</ele>
        <time>2019-07-14T13:03:26Z</time>
      </trkpt>
      <trkpt lat="45.01655" lon="5.57164">
        <ele>1995</ele>
        <time>2019-07-14T13:03:27Z</time>
      </trkpt>
      <trkpt lat="45.01662" lon="5.57158">
        <ele>1994</ele>
        <time>2019-07-14T13:03:28Z</time>
      </trkpt>
      <trkpt lat="45.01668" lon="5.57153">
        <ele>1991</ele>
        <time>2019-07-14T13:03:29Z</time>
      </trkpt>
      <trkpt lat="45.01674" lon="5.57147">
        <ele>1989</ele>
        <time>2019-07-14T13:03:30Z</time>
      </trkpt>
      <trkpt lat="45.01681" lon="5.57142">
        <ele>1988</ele>
        <time>2019-07-14T13:03:31Z</time>
      </trkpt>
      <trkpt lat="45.01687" lon="5.57138">
        <ele>1987</ele>
        <time>2019-07-14T13:03:32Z</time>
      </trkpt>
      <trkpt lat="45.01693" lon="5.57135">
        <ele>1987</ele>
        <time>2019-07-14T13:03:33Z</time>
      </trkpt>
      <trkpt lat="45.01698" lon="5.57132">
        <ele>1986</ele>
        <time>2019-07-14T13:03:34Z</time>
      </trkpt>
      <trkpt lat="45.01703" lon="5.57129">
        <ele>1986</ele>
        <time>2019-07-14T13:03:35Z</time>
      </trkpt>
      <trkpt lat="45.01708" lon="5.57127">
        <ele>1986</ele>
        <time>2019-07-14T13:03:36Z</time>
      </trkpt>
      <trkpt lat="45.01712" lon="5.57125">
        <ele>1985</ele>
        <time>2019-07-14T13:03:37Z</time>
      </trkpt>
      <trkpt lat="45.01716" lon="5.57124">
        <ele>1985</ele>
        <time>2019-07-14T13:03:38Z</time>
      </trkpt>
      <trkpt lat="45.01719" lon="5.57122">
        <ele>1985</ele>
        <time>2019-07-14T13:03:39Z</time>
      </trkpt>
      <trkpt lat="45.01723" lon="5.57119">
        <ele>1985</ele>
        <time>2019-07-14T13:03:40Z</time>
      </trkpt>
      <trkpt lat="45.01727" lon="5.57116">
        <ele>1985</ele>
        <time>2019-07-14T13:03:41Z</time>
      </trkpt>
      <trkpt lat="45.01731" lon="5.57114">
        <ele>1984</ele>
        <time>2019-07-14T13:03:42Z</time>
      </trkpt>
      <trkpt lat="45.01735" lon="5.57111">
        <ele>1984</ele>
        <time>2019-07-14T13:03:43Z</time>
      </trkpt>
      <trkpt lat="45.0174" lon="5.57108">
        <ele>1984</ele>
        <time>2019-07-14T13:03:44Z</time>
      </trkpt>
      <trkpt lat="45.01745" lon="5.57104">
        <ele>1983</ele>
        <time>2019-07-14T13:03:45Z</time>
      </trkpt>
      <trkpt lat="45.0175" lon="5.57099">
        <ele>1982</ele>
        <time>2019-07-14T13:03:46Z</time>
      </trkpt>
      <trkpt lat="45.01754" lon="5.57094">
        <ele>1983</ele>
        <time>2019-07-14T13:03:47Z</time>
      </trkpt>
      <trkpt lat="45.01759" lon="5.57089">
        <ele>1983</ele>
        <time>2019-07-14T13:03:48Z</time>
      </trkpt>
      <trkpt lat="45.01764" lon="5.57083">
        <ele>1978</ele>
        <time>2019-07-14T13:03:49Z</time>
      </trkpt>
      <trkpt lat="45.01768" lon="5.57077">
        <ele>1977</ele>
        <time>2019-07-14T13:03:50Z</time>
      </trkpt>
      <trkpt lat="45.01773" lon="5.57071">
        <ele>1976</ele>
        <time>2019-07-14T13:03:51Z</time>
      </trkpt>
      <trkpt lat="45.01778" lon="5.57064">
        <ele>1975</ele>
        <time>2019-07-14T13:03:52Z</time>
      </trkpt>
      <trkpt lat="45.01783" lon="5.57058">
        <ele>1975</ele>
        <time>2019-07-14T13:03:53Z</time>
      </trkpt>
      <trkpt lat="45.01789" lon="5.57052">
        <ele>1974</ele>
        <time>2019-07-14T13:03:54Z</time>
      </trkpt>
      <trkpt lat="45.01793" lon="5.57047">
        <ele>1974</ele>
        <time>2019-07-14T13:03:55Z</time>
      </trkpt>
      <trkpt lat="45.01798" lon="5.57042">
        <ele>1973</ele>
        <time>2019-07-14T13:03:56Z</time>
      </trkpt>
      <trkpt lat="45.01801" lon="5.57037">
        <ele>1972</ele>
        <time>2019-07-14T13:03:57Z</time>
      </trkpt>
      <trkpt lat="45.01806" lon="5.5703">
        <ele>1971</ele>
        <time>2019-07-14T13:03:58Z</time>
      </trkpt>
      <trkpt lat="45.01812" lon="5.57024">
        <ele>1970</ele>
        <time>2019-07-14T13:03:59Z</time>
      </trkpt>
      <trkpt lat="45.01818" lon="5.57017">
        <ele>1969</ele>
        <time>2019-07-14T13:04:00Z</time>
      </trkpt>
      <trkpt lat="45.01824" lon="5.57009">
        <ele>1966</ele>
        <time>2019-07-14T13:04:01Z</time>
      </trkpt>
      <trkpt lat="45.01831" lon="5.57001">
        <ele>1963</ele>
        <time>2019-07-14T13:04:02Z</time>
      </trkpt>
      <trkpt lat="45.01838" lon="5.56993">
        <ele>1958</ele>
        <time>2019-07-14T13:04:03Z</time>
      </trkpt>
      <trkpt lat="45.01845" lon="5.56986">
        <ele>1955</ele>
        <time>2019-07-14T13:04:04Z</time>
      </trkpt>
      <trkpt lat="45.01851" lon="5.5698">
        <ele>1952</ele>
        <time>2019-07-14T13:04:05Z</time>
      </trkpt>
      <trkpt lat="45.01857" lon="5.56975">
        <ele>1951</ele>
        <time>2019-07-14T13:04:06Z</time>
      </trkpt>
      <trkpt lat="45.01862" lon="5.5697">
        <ele>1950</ele>
        <time>2019-07-14T13:04:07Z</time>
      </trkpt>
      <trkpt lat="45.01867" lon="5.56967">
        <ele>1949</ele>
        <time>2019-07-14T13:04:08Z</time>
      </trkpt>
      <trkpt lat="45.01873" lon="5.56964">
        <ele>1949</ele>
        <time>2019-07-14T13:04:09Z</time>
      </trkpt>
      <trkpt lat="45.01879" lon="5.56961">
        <ele>1948</ele>
        <time>2019-07-14T13:04:10Z</time>
      </trkpt>
      <trkpt lat="45.01885" lon="5.56958">
        <ele>1947</ele>
        <time>2019-07-14T13:04:11Z</time>
      </trkpt>
      <trkpt lat="45.01891" lon="5.56956">
        <ele>1947</ele>
        <time>2019-07-14T13:04:12Z</time>
      </trkpt>
      <trkpt lat="45.01898" lon="5.56954">
        <ele>1946</ele>
        <time>2019-07-14T13:04:13Z</time>
      </trkpt>
      <trkpt lat="45.01904" lon="5.56955">
        <ele>1946</ele>
        <time>2019-07-14T13:04:14Z</time>
      </trkpt>
      <trkpt lat="45.01911" lon="5.56956">
        <ele>1946</ele>
        <time>2019-07-14T13:04:15Z</time>
      </trkpt>
      <trkpt lat="45.01917" lon="5.56958">
        <ele>1947</ele>
        <time>2019-07-14T13:04:16Z</time>
      </trkpt>
      <trkpt lat="45.01922" lon="5.56961">
        <ele>1936</ele>
        <time>2019-07-14T13:04:17Z</time>
      </trkpt>
      <trkpt lat="45.01928" lon="5.56965">
        <ele>1936</ele>
        <time>2019-07-14T13:04:18Z</time>
      </trkpt>
      <trkpt lat="45.01934" lon="5.5697">
        <ele>1936</ele>
        <time>2019-07-14T13:04:19Z</time>
      </trkpt>
      <trkpt lat="45.0194" lon="5.56975">
        <ele>1936</ele>
        <time>2019-07-14T13:04:20Z</time>
      </trkpt>
      <trkpt lat="45.01945" lon="5.56979">
        <ele>1936</ele>
        <time>2019-07-14T13:04:21Z</time>
      </trkpt>
      <trkpt lat="45.0195" lon="5.56982">
        <ele>1935</ele>
        <time>2019-07-14T13:04:22Z</time>
      </trkpt>
      <trkpt lat="45.01954" lon="5.56984">
        <ele>1935</ele>
        <time>2019-07-14T13:04:23Z</time>
      </trkpt>
      <trkpt lat="45.01958" lon="5.56986">
        <ele>1934</ele>
        <time>2019-07-14T13:04:24Z</time>
      </trkpt>
      <trkpt lat="45.0196" lon="5.56987">
        <ele>1934</ele>
        <time>2019-07-14T13:04:25Z</time>
      </trkpt>
      <trkpt lat="45.01963" lon="5.56988">
        <ele>1933</ele>
        <time>2019-07-14T13:04:26Z</time>
      </trkpt>
      <trkpt lat="45.01964" lon="5.56988">
        <ele>1933</ele>
        <time>2019-07-14T13:04:52Z</time>
      </trkpt>
      <trkpt lat="45.01965" lon="5.5699">
        <ele>1933</ele>
        <time>2019-07-14T13:04:53Z</time>
      </trkpt>
      <trkpt lat="45.01967" lon="5.56992">
        <ele>1933</ele>
        <time>2019-07-14T13:04:54Z</time>
      </trkpt>
      <trkpt lat="45.01968" lon="5.56994">
        <ele>1933</ele>
        <time>2019-07-14T13:04:55Z</time>
      </trkpt>
      <trkpt lat="45.01971" lon="5.56996">
        <ele>1932</ele>
        <time>2019-07-14T13:04:56Z</time>
      </trkpt>
      <trkpt lat="45.01974" lon="5.56999">
        <ele>1932</ele>
        <time>2019-07-14T13:04:57Z</time>
      </trkpt>
      <trkpt lat="45.01978" lon="5.57002">
        <ele>1945</ele>
        <time>2019-07-14T13:04:58Z</time>
      </trkpt>
      <trkpt lat="45.01981" lon="5.57005">
        <ele>1943</ele>
        <time>2019-07-14T13:04:59Z</time>
      </trkpt>
      <trkpt lat="45.01986" lon="5.57009">
        <ele>1942</ele>
        <time>2019-07-14T13:05:00Z</time>
      </trkpt>
      <trkpt lat="45.01991" lon="5.57012">
        <ele>1941</ele>
        <time>2019-07-14T13:05:01Z</time>
      </trkpt>
      <trkpt lat="45.01997" lon="5.57015">
        <ele>1941</ele>
        <time>2019-07-14T13:05:02Z</time>
      </trkpt>
      <trkpt lat="45.02003" lon="5.57017">
        <ele>1931</ele>
        <time>2019-07-14T13:05:03Z</time>
      </trkpt>
      <trkpt lat="45.02009" lon="5.57019">
        <ele>1931</ele>
        <time>2019-07-14T13:05:04Z</time>
      </trkpt>
      <trkpt lat="45.02015" lon="5.57021">
        <ele>1931</ele>
        <time>2019-07-14T13:05:05Z</time>
      </trkpt>
      <trkpt lat="45.02021" lon="5.57022">
        <ele>1931</ele>
        <time>2019-07-14T13:05:06Z</time>
      </trkpt>
      <trkpt lat="45.02027" lon="5.57024">
        <ele>1931</ele>
        <time>2019-07-14T13:05:07Z</time>
      </trkpt>
      <trkpt lat="45.02032" lon="5.57025">
        <ele>1930</ele>
        <time>2019-07-14T13:05:08Z</time>
      </trkpt>
      <trkpt lat="45.02037" lon="5.57027">
        <ele>1930</ele>
        <time>2019-07-14T13:05:09Z</time>
      </trkpt>
      <trkpt lat="45.02041" lon="5.57028">
        <ele>1930</ele>
        <time>2019-07-14T13:05:10Z</time>
      </trkpt>
      <trkpt lat="45.02046" lon="5.57029">
        <ele>1929</ele>
        <time>2019-07-14T13:05:11Z</time>
      </trkpt>
      <trkpt lat="45.02052" lon="5.5703">
        <ele>1929</ele>
        <time>2019-07-14T13:05:12Z</time>
      </trkpt>
      <trkpt lat="45.02058" lon="5.5703">
        <ele>1928</ele>
        <time>2019-07-14T13:05:13Z</time>
      </trkpt>
      <trkpt lat="45.02065" lon="5.5703">
        <ele>1927</ele>
        <time>2019-07-14T13:05:14Z</time>
      </trkpt>
      <trkpt lat="45.02073" lon="5.57031">
        <ele>1926</ele>
        <time>2019-07-14T13:05:15Z</time>
      </trkpt>
      <trkpt lat="45.02081" lon="5.57032">
        <ele>1926</ele>
        <time>2019-07-14T13:05:16Z</time>
      </trkpt>
      <trkpt lat="45.02089" lon="5.57034">
        <ele>1914</ele>
        <time>2019-07-14T13:05:17Z</time>
      </trkpt>
      <trkpt lat="45.02097" lon="5.57037">
        <ele>1914</ele>
        <time>2019-07-14T13:05:18Z</time>
      </trkpt>
      <trkpt lat="45.02106" lon="5.57039">
        <ele>1914</ele>
        <time>2019-07-14T13:05:19Z</time>
      </trkpt>
      <trkpt lat="45.02115" lon="5.5704">
        <ele>1913</ele>
        <time>2019-07-14T13:05:20Z</time>
      </trkpt>
      <trkpt lat="45.02123" lon="5.57042">
        <ele>1913</ele>
        <time>2019-07-14T13:05:21Z</time>
      </trkpt>
      <trkpt lat="45.02131" lon="5.57044">
        <ele>1912</ele>
        <time>2019-07-14T13:05:22Z</time>
      </trkpt>
      <trkpt lat="45.0214" lon="5.57046">
        <ele>1912</ele>
        <time>2019-07-14T13:05:23Z</time>
      </trkpt>
      <trkpt lat="45.02148" lon="5.57048">
        <ele>1911</ele>
        <time>2019-07-14T13:05:24Z</time>
      </trkpt>
      <trkpt lat="45.02157" lon="5.57049">
        <ele>1911</ele>
        <time>2019-07-14T13:05:25Z</time>
      </trkpt>
      <trkpt lat="45.02166" lon="5.57051">
        <ele>1911</ele>
        <time>2019-07-14T13:05:26Z</time>
      </trkpt>
      <trkpt lat="45.02174" lon="5.57052">
        <ele>1904</ele>
        <time>2019-07-14T13:05:27Z</time>
      </trkpt>
      <trkpt lat="45.02182" lon="5.57054">
        <ele>1904</ele>
        <time>2019-07-14T13:05:28Z</time>
      </trkpt>
      <trkpt lat="45.02189" lon="5.57058">
        <ele>1904</ele>
        <time>2019-07-14T13:05:29Z</time>
      </trkpt>
      <trkpt lat="45.02195" lon="5.57061">
        <ele>1904</ele>
        <time>2019-07-14T13:05:30Z</time>
      </trkpt>
      <trkpt lat="45.02201" lon="5.57064">
        <ele>1904</ele>
        <time>2019-07-14T13:05:31Z</time>
      </trkpt>
      <trkpt lat="45.02205" lon="5.57066">
        <ele>1904</ele>
        <time>2019-07-14T13:05:32Z</time>
      </trkpt>
      <trkpt lat="45.02208" lon="5.57068">
        <ele>1904</ele>
        <time>2019-07-14T13:05:33Z</time>
      </trkpt>
      <trkpt lat="45.0221" lon="5.57068">
        <ele>1904</ele>
        <time>2019-07-14T13:05:34Z</time>
      </trkpt>
      <trkpt lat="45.02212" lon="5.57069">
        <ele>1904</ele>
        <time>2019-07-14T13:05:35Z</time>
      </trkpt>
      <trkpt lat="45.02214" lon="5.5707">
        <ele>1904</ele>
        <time>2019-07-14T13:05:36Z</time>
      </trkpt>
      <trkpt lat="45.02215" lon="5.5707">
        <ele>1904</ele>
        <time>2019-07-14T13:05:37Z</time>
      </trkpt>
      <trkpt lat="45.02217" lon="5.57071">
        <ele>1904</ele>
        <time>2019-07-14T13:05:38Z</time>
      </trkpt>
      <trkpt lat="45.02218" lon="5.57072">
        <ele>1905</ele>
        <time>2019-07-14T13:05:39Z</time>
      </trkpt>
      <trkpt lat="45.0222" lon="5.57073">
        <ele>1905</ele>
        <time>2019-07-14T13:05:40Z</time>
      </trkpt>
      <trkpt lat="45.02221" lon="5.57074">
        <ele>1905</ele>
        <time>2019-07-14T13:05:41Z</time>
      </trkpt>
      <trkpt lat="45.02223" lon="5.57075">
        <ele>1905</ele>
        <time>2019-07-14T13:05:42Z</time>
      </trkpt>
      <trkpt lat="45.02224" lon="5.57076">
        <ele>1905</ele>
        <time>2019-07-14T13:05:43Z</time>
      </trkpt>
      <trkpt lat="45.02226" lon="5.57077">
        <ele>1905</ele>
        <time>2019-07-14T13:05:44Z</time>
      </trkpt>
      <trkpt lat="45.02227" lon="5.57078">
        <ele>1905</ele>
        <time>2019-07-14T13:05:45Z</time>
      </trkpt>
      <trkpt lat="45.02229" lon="5.57079">
        <ele>1906</ele>
        <time>2019-07-14T13:05:46Z</time>
      </trkpt>
      <trkpt lat="45.02231" lon="5.57079">
        <ele>1906</ele>
        <time>2019-07-14T13:05:47Z</time>
      </trkpt>
      <trkpt lat="45.02234" lon="5.5708">
        <ele>1906</ele>
        <time>2019-07-14T13:05:48Z</time>
      </trkpt>
      <trkpt lat="45.02236" lon="5.57081">
        <ele>1907</ele>
        <time>2019-07-14T13:05:49Z</time>
      </trkpt>
      <trkpt lat="45.02238" lon="5.57082">
        <ele>1907</ele>
        <time>2019-07-14T13:05:50Z</time>
      </trkpt>
      <trkpt lat="45.0224" lon="5.57083">
        <ele>1907</ele>
        <time>2019-07-14T13:05:51Z</time>
      </trkpt>
      <trkpt lat="45.02242" lon="5.57084">
        <ele>1908</ele>
        <time>2019-07-14T13:05:52Z</time>
      </trkpt>
      <trkpt lat="45.02244" lon="5.57084">
        <ele>1908</ele>
        <time>2019-07-14T13:05:53Z</time>
      </trkpt>
      <trkpt lat="45.02246" lon="5.57085">
        <ele>1909</ele>
        <time>2019-07-14T13:05:54Z</time>
      </trkpt>
      <trkpt lat="45.02248" lon="5.57085">
        <ele>1909</ele>
        <time>2019-07-14T13:05:55Z</time>
      </trkpt>
      <trkpt lat="45.0225" lon="5.57086">
        <ele>1908</ele>
        <time>2019-07-14T13:05:56Z</time>
      </trkpt>
      <trkpt lat="45.02253" lon="5.57087">
        <ele>1907</ele>
        <time>2019-07-14T13:05:57Z</time>
      </trkpt>
      <trkpt lat="45.02255" lon="5.57088">
        <ele>1906</ele>
        <time>2019-07-14T13:05:58Z</time>
      </trkpt>
      <trkpt lat="45.02257" lon="5.57088">
        <ele>1905</ele>
        <time>2019-07-14T13:05:59Z</time>
      </trkpt>
      <trkpt lat="45.02259" lon="5.57089">
        <ele>1904</ele>
        <time>2019-07-14T13:06:00Z</time>
      </trkpt>
      <trkpt lat="45.02261" lon="5.57088">
        <ele>1903</ele>
        <time>2019-07-14T13:06:01Z</time>
      </trkpt>
      <trkpt lat="45.02263" lon="5.57088">
        <ele>1902</ele>
        <time>2019-07-14T13:06:02Z</time>
      </trkpt>
      <trkpt lat="45.02264" lon="5.57088">
        <ele>1902</ele>
        <time>2019-07-14T13:06:03Z</time>
      </trkpt>
      <trkpt lat="45.02265" lon="5.57088">
        <ele>1901</ele>
        <time>2019-07-14T13:06:04Z</time>
      </trkpt>
      <trkpt lat="45.02266" lon="5.57088">
        <ele>1901</ele>
        <time>2019-07-14T13:06:05Z</time>
      </trkpt>
      <trkpt lat="45.02266" lon="5.57088">
        <ele>1901</ele>
        <time>2019-07-14T13:06:42Z</time>
      </trkpt>
      <trkpt lat="45.02268" lon="5.57089">
        <ele>1900</ele>
        <time>2019-07-14T13:06:43Z</time>
      </trkpt>
      <trkpt lat="45.02271" lon="5.57089">
        <ele>1900</ele>
        <time>2019-07-14T13:06:44Z</time>
      </trkpt>
      <trkpt lat="45.02274" lon="5.5709">
        <ele>1898</ele>
        <time>2019-07-14T13:06:45Z</time>
      </trkpt>
      <trkpt lat="45.02279" lon="5.57092">
        <ele>1897</ele>
        <time>2019-07-14T13:06:46Z</time>
      </trkpt>
      <trkpt lat="45.02284" lon="5.57093">
        <ele>1896</ele>
        <time>2019-07-14T13:06:47Z</time>
      </trkpt>
      <trkpt lat="45.02289" lon="5.57094">
        <ele>1895</ele>
        <time>2019-07-14T13:06:48Z</time>
      </trkpt>
      <trkpt lat="45.02295" lon="5.57096">
        <ele>1894</ele>
        <time>2019-07-14T13:06:49Z</time>
      </trkpt>
      <trkpt lat="45.02301" lon="5.57097">
        <ele>1893</ele>
        <time>2019-07-14T13:06:50Z</time>
      </trkpt>
      <trkpt lat="45.02307" lon="5.57099">
        <ele>1892</ele>
        <time>2019-07-14T13:06:51Z</time>
      </trkpt>
      <trkpt lat="45.02314" lon="5.571">
        <ele>1892</ele>
        <time>2019-07-14T13:06:52Z</time>
      </trkpt>
      <trkpt lat="45.02321" lon="5.57101">
        <ele>1891</ele>
        <time>2019-07-14T13:06:53Z</time>
      </trkpt>
      <trkpt lat="45.02327" lon="5.57101">
        <ele>1891</ele>
        <time>2019-07-14T13:06:54Z</time>
      </trkpt>
      <trkpt lat="45.02333" lon="5.57102">
        <ele>1891</ele>
        <time>2019-07-14T13:06:55Z</time>
      </trkpt>
      <trkpt lat="45.02338" lon="5.57102">
        <ele>1883</ele>
        <time>2019-07-14T13:06:56Z</time>
      </trkpt>
      <trkpt lat="45.02344" lon="5.57103">
        <ele>1882</ele>
        <time>2019-07-14T13:06:57Z</time>
      </trkpt>
      <trkpt lat="45.02349" lon="5.57104">
        <ele>1881</ele>
        <time>2019-07-14T13:06:58Z</time>
      </trkpt>
      <trkpt lat="45.02354" lon="5.57106">
        <ele>1880</ele>
        <time>2019-07-14T13:06:59Z</time>
      </trkpt>
      <trkpt lat="45.02359" lon="5.57107">
        <ele>1879</ele>
        <time>2019-07-14T13:07:00Z</time>
      </trkpt>
      <trkpt lat="45.02364" lon="5.57109">
        <ele>1878</ele>
        <time>2019-07-14T13:07:01Z</time>
      </trkpt>
      <trkpt lat="45.02368" lon="5.5711">
        <ele>1878</ele>
        <time>2019-07-14T13:07:02Z</time>
      </trkpt>
      <trkpt lat="45.02371" lon="5.57111">
        <ele>1877</ele>
        <time>2019-07-14T13:07:03Z</time>
      </trkpt>
      <trkpt lat="45.02373" lon="5.57111">
        <ele>1877</ele>
        <time>2019-07-14T13:07:04Z</time>
      </trkpt>
      <trkpt lat="45.02375" lon="5.57111">
        <ele>1877</ele>
        <time>2019-07-14T13:07:05Z</time>
      </trkpt>
      <trkpt lat="45.02379" lon="5.57112">
        <ele>1876</ele>
        <time>2019-07-14T13:07:06Z</time>
      </trkpt>
      <trkpt lat="45.02383" lon="5.57113">
        <ele>1876</ele>
        <time>2019-07-14T13:07:07Z</time>
      </trkpt>
      <trkpt lat="45.02387" lon="5.57114">
        <ele>1875</ele>
        <time>2019-07-14T13:07:08Z</time>
      </trkpt>
      <trkpt lat="45.02391" lon="5.57116">
        <ele>1875</ele>
        <time>2019-07-14T13:07:09Z</time>
      </trkpt>
      <trkpt lat="45.02396" lon="5.57119">
        <ele>1874</ele>
        <time>2019-07-14T13:07:10Z</time>
      </trkpt>
      <trkpt lat="45.024" lon="5.57123">
        <ele>1874</ele>
        <time>2019-07-14T13:07:11Z</time>
      </trkpt>
      <trkpt lat="45.02405" lon="5.57128">
        <ele>1873</ele>
        <time>2019-07-14T13:07:12Z</time>
      </trkpt>
      <trkpt lat="45.0241" lon="5.57132">
        <ele>1872</ele>
        <time>2019-07-14T13:07:13Z</time>
      </trkpt>
      <trkpt lat="45.02416" lon="5.57137">
        <ele>1872</ele>
        <time>2019-07-14T13:07:14Z</time>
      </trkpt>
      <trkpt lat="45.02422" lon="5.5714">
        <ele>1861</ele>
        <time>2019-07-14T13:07:15Z</time>
      </trkpt>
      <trkpt lat="45.02428" lon="5.57142">
        <ele>1861</ele>
        <time>2019-07-14T13:07:16Z</time>
      </trkpt>
      <trkpt lat="45.02435" lon="5.57144">
        <ele>1861</ele>
        <time>2019-07-14T13:07:17Z</time>
      </trkpt>
      <trkpt lat="45.02443" lon="5.57145">
        <ele>1860</ele>
        <time>2019-07-14T13:07:18Z</time>
      </trkpt>
      <trkpt lat="45.0245" lon="5.57148">
        <ele>1859</ele>
        <time>2019-07-14T13:07:19Z</time>
      </trkpt>
      <trkpt lat="45.02457" lon="5.57151">
        <ele>1858</ele>
        <time>2019-07-14T13:07:20Z</time>
      </trkpt>
      <trkpt lat="45.02464" lon="5.57155">
        <ele>1857</ele>
        <time>2019-07-14T13:07:21Z</time>
      </trkpt>
      <trkpt lat="45.02472" lon="5.57159">
        <ele>1856</ele>
        <time>2019-07-14T13:07:22Z</time>
      </trkpt>
      <trkpt lat="45.02482" lon="5.57162">
        <ele>1854</ele>
        <time>2019-07-14T13:07:23Z</time>
      </trkpt>
      <trkpt lat="45.0249" lon="5.57166">
        <ele>1852</ele>
        <time>2019-07-14T13:07:24Z</time>
      </trkpt>
      <trkpt lat="45.02498" lon="5.57169">
        <ele>1849</ele>
        <time>2019-07-14T13:07:25Z</time>
      </trkpt>
      <trkpt lat="45.02505" lon="5.57171">
        <ele>1845</ele>
        <time>2019-07-14T13:07:26Z</time>
      </trkpt>
      <trkpt lat="45.02512" lon="5.57173">
        <ele>1841</ele>
        <time>2019-07-14T13:07:27Z</time>
      </trkpt>
      <trkpt lat="45.02518" lon="5.57176">
        <ele>1839</ele>
        <time>2019-07-14T13:07:28Z</time>
      </trkpt>
      <trkpt lat="45.02525" lon="5.57178">
        <ele>1836</ele>
        <time>2019-07-14T13:07:29Z</time>
      </trkpt>
      <trkpt lat="45.02532" lon="5.57179">
        <ele>1835</ele>
        <time>2019-07-14T13:07:30Z</time>
      </trkpt>
      <trkpt lat="45.02544" lon="5.57178">
        <ele>1832</ele>
        <time>2019-07-14T13:07:32Z</time>
      </trkpt>
      <trkpt lat="45.02551" lon="5.57176">
        <ele>1832</ele>
        <time>2019-07-14T13:07:33Z</time>
      </trkpt>
      <trkpt lat="45.02556" lon="5.57173">
        <ele>1831</ele>
        <time>2019-07-14T13:07:34Z</time>
      </trkpt>
      <trkpt lat="45.02562" lon="5.57169">
        <ele>1830</ele>
        <time>2019-07-14T13:07:35Z</time>
      </trkpt>
      <trkpt lat="45.02566" lon="5.57166">
        <ele>1834</ele>
        <time>2019-07-14T13:07:36Z</time>
      </trkpt>
      <trkpt lat="45.0257" lon="5.57163">
        <ele>1833</ele>
        <time>2019-07-14T13:07:37Z</time>
      </trkpt>
      <trkpt lat="45.02572" lon="5.5716">
        <ele>1833</ele>
        <time>2019-07-14T13:07:38Z</time>
      </trkpt>
      <trkpt lat="45.02574" lon="5.57155">
        <ele>1833</ele>
        <time>2019-07-14T13:07:39Z</time>
      </trkpt>
      <trkpt lat="45.02575" lon="5.57151">
        <ele>1833</ele>
        <time>2019-07-14T13:07:40Z</time>
      </trkpt>
      <trkpt lat="45.02576" lon="5.57145">
        <ele>1834</ele>
        <time>2019-07-14T13:07:41Z</time>
      </trkpt>
      <trkpt lat="45.02578" lon="5.5714">
        <ele>1834</ele>
        <time>2019-07-14T13:07:42Z</time>
      </trkpt>
      <trkpt lat="45.02579" lon="5.57133">
        <ele>1835</ele>
        <time>2019-07-14T13:07:43Z</time>
      </trkpt>
      <trkpt lat="45.0258" lon="5.57127">
        <ele>1835</ele>
        <time>2019-07-14T13:07:44Z</time>
      </trkpt>
      <trkpt lat="45.0258" lon="5.5712">
        <ele>1834</ele>
        <time>2019-07-14T13:07:45Z</time>
      </trkpt>
      <trkpt lat="45.02581" lon="5.57112">
        <ele>1834</ele>
        <time>2019-07-14T13:07:46Z</time>
      </trkpt>
      <trkpt lat="45.02581" lon="5.57103">
        <ele>1833</ele>
        <time>2019-07-14T13:07:47Z</time>
      </trkpt>
      <trkpt lat="45.02582" lon="5.57094">
        <ele>1831</ele>
        <time>2019-07-14T13:07:48Z</time>
      </trkpt>
      <trkpt lat="45.02581" lon="5.5708">
        <ele>1828</ele>
        <time>2019-07-14T13:07:50Z</time>
      </trkpt>
      <trkpt lat="45.02581" lon="5.57074">
        <ele>1829</ele>
        <time>2019-07-14T13:07:51Z</time>
      </trkpt>
      <trkpt lat="45.02581" lon="5.57062">
        <ele>1830</ele>
        <time>2019-07-14T13:07:53Z</time>
      </trkpt>
      <trkpt lat="45.0258" lon="5.57056">
        <ele>1831</ele>
        <time>2019-07-14T13:07:54Z</time>
      </trkpt>
      <trkpt lat="45.02579" lon="5.5705">
        <ele>1831</ele>
        <time>2019-07-14T13:07:55Z</time>
      </trkpt>
      <trkpt lat="45.02579" lon="5.57044">
        <ele>1830</ele>
        <time>2019-07-14T13:07:56Z</time>
      </trkpt>
      <trkpt lat="45.02579" lon="5.57038">
        <ele>1830</ele>
        <time>2019-07-14T13:07:57Z</time>
      </trkpt>
      <trkpt lat="45.02581" lon="5.57033">
        <ele>1829</ele>
        <time>2019-07-14T13:07:58Z</time>
      </trkpt>
      <trkpt lat="45.02583" lon="5.57029">
        <ele>1828</ele>
        <time>2019-07-14T13:07:59Z</time>
      </trkpt>
      <trkpt lat="45.02586" lon="5.57025">
        <ele>1813</ele>
        <time>2019-07-14T13:08:00Z</time>
      </trkpt>
      <trkpt lat="45.02589" lon="5.5702">
        <ele>1813</ele>
        <time>2019-07-14T13:08:01Z</time>
      </trkpt>
      <trkpt lat="45.02595" lon="5.57016">
        <ele>1813</ele>
        <time>2019-07-14T13:08:02Z</time>
      </trkpt>
      <trkpt lat="45.026" lon="5.57015">
        <ele>1812</ele>
        <time>2019-07-14T13:08:03Z</time>
      </trkpt>
      <trkpt lat="45.02605" lon="5.57015">
        <ele>1811</ele>
        <time>2019-07-14T13:08:04Z</time>
      </trkpt>
      <trkpt lat="45.02609" lon="5.57012">
        <ele>1811</ele>
        <time>2019-07-14T13:08:05Z</time>
      </trkpt>
      <trkpt lat="45.02614" lon="5.57007">
        <ele>1810</ele>
        <time>2019-07-14T13:08:06Z</time>
      </trkpt>
      <trkpt lat="45.02618" lon="5.57003">
        <ele>1809</ele>
        <time>2019-07-14T13:08:07Z</time>
      </trkpt>
      <trkpt lat="45.02623" lon="5.57001">
        <ele>1807</ele>
        <time>2019-07-14T13:08:08Z</time>
      </trkpt>
      <trkpt lat="45.02627" lon="5.57">
        <ele>1806</ele>
        <time>2019-07-14T13:08:09Z</time>
      </trkpt>
      <trkpt lat="45.02632" lon="5.57">
        <ele>1798</ele>
        <time>2019-07-14T13:08:10Z</time>
      </trkpt>
      <trkpt lat="45.02636" lon="5.56999">
        <ele>1797</ele>
        <time>2019-07-14T13:08:11Z</time>
      </trkpt>
      <trkpt lat="45.02639" lon="5.56999">
        <ele>1797</ele>
        <time>2019-07-14T13:08:12Z</time>
      </trkpt>
      <trkpt lat="45.02643" lon="5.57">
        <ele>1796</ele>
        <time>2019-07-14T13:08:13Z</time>
      </trkpt>
      <trkpt lat="45.02647" lon="5.57001">
        <ele>1801</ele>
        <time>2019-07-14T13:08:14Z</time>
      </trkpt>
      <trkpt lat="45.0265" lon="5.57003">
        <ele>1800</ele>
        <time>2019-07-14T13:08:15Z</time>
      </trkpt>
      <trkpt lat="45.02654" lon="5.57005">
        <ele>1799</ele>
        <time>2019-07-14T13:08:16Z</time>
      </trkpt>
      <trkpt lat="45.02658" lon="5.57006">
        <ele>1798</ele>
        <time>2019-07-14T13:08:17Z</time>
      </trkpt>
      <trkpt lat="45.02662" lon="5.57005">
        <ele>1796</ele>
        <time>2019-07-14T13:08:18Z</time>
      </trkpt>
      <trkpt lat="45.02667" lon="5.57004">
        <ele>1790</ele>
        <time>2019-07-14T13:08:19Z</time>
      </trkpt>
      <trkpt lat="45.02671" lon="5.57002">
        <ele>1790</ele>
        <time>2019-07-14T13:08:20Z</time>
      </trkpt>
      <trkpt lat="45.02676" lon="5.56999">
        <ele>1786</ele>
        <time>2019-07-14T13:08:21Z</time>
      </trkpt>
      <trkpt lat="45.02681" lon="5.56998">
        <ele>1783</ele>
        <time>2019-07-14T13:08:22Z</time>
      </trkpt>
      <trkpt lat="45.02686" lon="5.56998">
        <ele>1781</ele>
        <time>2019-07-14T13:08:23Z</time>
      </trkpt>
      <trkpt lat="45.02689" lon="5.57001">
        <ele>1784</ele>
        <time>2019-07-14T13:08:24Z</time>
      </trkpt>
      <trkpt lat="45.02693" lon="5.57002">
        <ele>1783</ele>
        <time>2019-07-14T13:08:25Z</time>
      </trkpt>
      <trkpt lat="45.02697" lon="5.57002">
        <ele>1782</ele>
        <time>2019-07-14T13:08:26Z</time>
      </trkpt>
      <trkpt lat="45.02701" lon="5.57003">
        <ele>1781</ele>
        <time>2019-07-14T13:08:27Z</time>
      </trkpt>
      <trkpt lat="45.02704" lon="5.57004">
        <ele>1781</ele>
        <time>2019-07-14T13:08:28Z</time>
      </trkpt>
      <trkpt lat="45.02707" lon="5.57006">
        <ele>1780</ele>
        <time>2019-07-14T13:08:29Z</time>
      </trkpt>
      <trkpt lat="45.0271" lon="5.57009">
        <ele>1779</ele>
        <time>2019-07-14T13:08:30Z</time>
      </trkpt>
      <trkpt lat="45.02713" lon="5.57012">
        <ele>1779</ele>
        <time>2019-07-14T13:08:31Z</time>
      </trkpt>
      <trkpt lat="45.02717" lon="5.57016">
        <ele>1778</ele>
        <time>2019-07-14T13:08:32Z</time>
      </trkpt>
      <trkpt lat="45.02722" lon="5.57021">
        <ele>1777</ele>
        <time>2019-07-14T13:08:33Z</time>
      </trkpt>
      <trkpt lat="45.02727" lon="5.57026">
        <ele>1777</ele>
        <time>2019-07-14T13:08:34Z</time>
      </trkpt>
      <trkpt lat="45.02734" lon="5.57031">
        <ele>1776</ele>
        <time>2019-07-14T13:08:35Z</time>
      </trkpt>
      <trkpt lat="45.02741" lon="5.57036">
        <ele>1775</ele>
        <time>2019-07-14T13:08:36Z</time>
      </trkpt>
      <trkpt lat="45.02749" lon="5.57042">
        <ele>1775</ele>
        <time>2019-07-14T13:08:37Z</time>
      </trkpt>
      <trkpt lat="45.02756" lon="5.57047">
        <ele>1760</ele>
        <time>2019-07-14T13:08:38Z</time>
      </trkpt>
      <trkpt lat="45.02762" lon="5.5705">
        <ele>1759</ele>
        <time>2019-07-14T13:08:39Z</time>
      </trkpt>
      <trkpt lat="45.02767" lon="5.57051">
        <ele>1759</ele>
        <time>2019-07-14T13:08:40Z</time>
      </trkpt>
      <trkpt lat="45.02771" lon="5.57051">
        <ele>1759</ele>
        <time>2019-07-14T13:08:41Z</time>
      </trkpt>
      <trkpt lat="45.02774" lon="5.5705">
        <ele>1758</ele>
        <time>2019-07-14T13:08:42Z</time>
      </trkpt>
      <trkpt lat="45.02778" lon="5.57049">
        <ele>1758</ele>
        <time>2019-07-14T13:08:43Z</time>
      </trkpt>
      <trkpt lat="45.02782" lon="5.57048">
        <ele>1758</ele>
        <time>2019-07-14T13:08:44Z</time>
      </trkpt>
      <trkpt lat="45.02785" lon="5.57046">
        <ele>1757</ele>
        <time>2019-07-14T13:08:45Z</time>
      </trkpt>
      <trkpt lat="45.0279" lon="5.57044">
        <ele>1757</ele>
        <time>2019-07-14T13:08:46Z</time>
      </trkpt>
      <trkpt lat="45.02795" lon="5.57042">
        <ele>1756</ele>
        <time>2019-07-14T13:08:47Z</time>
      </trkpt>
      <trkpt lat="45.02801" lon="5.5704">
        <ele>1755</ele>
        <time>2019-07-14T13:08:48Z</time>
      </trkpt>
      <trkpt lat="45.02809" lon="5.57037">
        <ele>1755</ele>
        <time>2019-07-14T13:08:49Z</time>
      </trkpt>
      <trkpt lat="45.02816" lon="5.57035">
        <ele>1754</ele>
        <time>2019-07-14T13:08:50Z</time>
      </trkpt>
      <trkpt lat="45.02825" lon="5.57031">
        <ele>1753</ele>
        <time>2019-07-14T13:08:51Z</time>
      </trkpt>
      <trkpt lat="45.02834" lon="5.57028">
        <ele>1742</ele>
        <time>2019-07-14T13:08:52Z</time>
      </trkpt>
      <trkpt lat="45.02841" lon="5.57025">
        <ele>1742</ele>
        <time>2019-07-14T13:08:53Z</time>
      </trkpt>
      <trkpt lat="45.02847" lon="5.57022">
        <ele>1742</ele>
        <time>2019-07-14T13:08:54Z</time>
      </trkpt>
      <trkpt lat="45.0285" lon="5.57017">
        <ele>1742</ele>
        <time>2019-07-14T13:08:55Z</time>
      </trkpt>
      <trkpt lat="45.02853" lon="5.57011">
        <ele>1742</ele>
        <time>2019-07-14T13:08:56Z</time>
      </trkpt>
      <trkpt lat="45.02854" lon="5.57004">
        <ele>1742</ele>
        <time>2019-07-14T13:08:57Z</time>
      </trkpt>
      <trkpt lat="45.02856" lon="5.56997">
        <ele>1741</ele>
        <time>2019-07-14T13:08:58Z</time>
      </trkpt>
      <trkpt lat="45.0286" lon="5.56991">
        <ele>1740</ele>
        <time>2019-07-14T13:08:59Z</time>
      </trkpt>
      <trkpt lat="45.02866" lon="5.56985">
        <ele>1739</ele>
        <time>2019-07-14T13:09:00Z</time>
      </trkpt>
      <trkpt lat="45.02871" lon="5.56979">
        <ele>1738</ele>
        <time>2019-07-14T13:09:01Z</time>
      </trkpt>
      <trkpt lat="45.02876" lon="5.56974">
        <ele>1737</ele>
        <time>2019-07-14T13:09:02Z</time>
      </trkpt>
      <trkpt lat="45.02881" lon="5.56971">
        <ele>1736</ele>
        <time>2019-07-14T13:09:03Z</time>
      </trkpt>
      <trkpt lat="45.02885" lon="5.56968">
        <ele>1736</ele>
        <time>2019-07-14T13:09:04Z</time>
      </trkpt>
      <trkpt lat="45.02889" lon="5.56966">
        <ele>1735</ele>
        <time>2019-07-14T13:09:05Z</time>
      </trkpt>
      <trkpt lat="45.02891" lon="5.56963">
        <ele>1735</ele>
        <time>2019-07-14T13:09:06Z</time>
      </trkpt>
      <trkpt lat="45.02892" lon="5.5696">
        <ele>1735</ele>
        <time>2019-07-14T13:09:07Z</time>
      </trkpt>
      <trkpt lat="45.02894" lon="5.56957">
        <ele>1734</ele>
        <time>2019-07-14T13:09:08Z</time>
      </trkpt>
      <trkpt lat="45.02896" lon="5.56954">
        <ele>1734</ele>
        <time>2019-07-14T13:09:09Z</time>
      </trkpt>
      <trkpt lat="45.02898" lon="5.5695">
        <ele>1734</ele>
        <time>2019-07-14T13:09:10Z</time>
      </trkpt>
      <trkpt lat="45.02903" lon="5.56946">
        <ele>1733</ele>
        <time>2019-07-14T13:09:11Z</time>
      </trkpt>
      <trkpt lat="45.02907" lon="5.56943">
        <ele>1732</ele>
        <time>2019-07-14T13:09:12Z</time>
      </trkpt>
      <trkpt lat="45.02913" lon="5.56939">
        <ele>1732</ele>
        <time>2019-07-14T13:09:13Z</time>
      </trkpt>
      <trkpt lat="45.02918" lon="5.56935">
        <ele>1724</ele>
        <time>2019-07-14T13:09:14Z</time>
      </trkpt>
      <trkpt lat="45.02924" lon="5.56932">
        <ele>1724</ele>
        <time>2019-07-14T13:09:15Z</time>
      </trkpt>
      <trkpt lat="45.0293" lon="5.56931">
        <ele>1724</ele>
        <time>2019-07-14T13:09:16Z</time>
      </trkpt>
      <trkpt lat="45.02935" lon="5.5693">
        <ele>1723</ele>
        <time>2019-07-14T13:09:17Z</time>
      </trkpt>
      <trkpt lat="45.02938" lon="5.56928">
        <ele>1723</ele>
        <time>2019-07-14T13:09:18Z</time>
      </trkpt>
      <trkpt lat="45.02939" lon="5.56925">
        <ele>1723</ele>
        <time>2019-07-14T13:09:19Z</time>
      </trkpt>
      <trkpt lat="45.02939" lon="5.56923">
        <ele>1723</ele>
        <time>2019-07-14T13:09:20Z</time>
      </trkpt>
      <trkpt lat="45.02938" lon="5.56922">
        <ele>1723</ele>
        <time>2019-07-14T13:09:21Z</time>
      </trkpt>
      <trkpt lat="45.02939" lon="5.56908">
        <ele>1718</ele>
        <time>2019-07-14T13:10:00Z</time>
      </trkpt>
      <trkpt lat="45.0294" lon="5.56903">
        <ele>1717</ele>
        <time>2019-07-14T13:10:01Z</time>
      </trkpt>
      <trkpt lat="45.0294" lon="5.56896">
        <ele>1717</ele>
        <time>2019-07-14T13:10:02Z</time>
      </trkpt>
      <trkpt lat="45.02941" lon="5.56889">
        <ele>1716</ele>
        <time>2019-07-14T13:10:03Z</time>
      </trkpt>
      <trkpt lat="45.02942" lon="5.56884">
        <ele>1715</ele>
        <time>2019-07-14T13:10:04Z</time>
      </trkpt>
      <trkpt lat="45.02943" lon="5.56879">
        <ele>1715</ele>
        <time>2019-07-14T13:10:05Z</time>
      </trkpt>
      <trkpt lat="45.02943" lon="5.56873">
        <ele>1714</ele>
        <time>2019-07-14T13:10:06Z</time>
      </trkpt>
      <trkpt lat="45.02943" lon="5.56862">
        <ele>1713</ele>
        <time>2019-07-14T13:10:09Z</time>
      </trkpt>
      <trkpt lat="45.02942" lon="5.5686">
        <ele>1713</ele>
        <time>2019-07-14T13:10:10Z</time>
      </trkpt>
      <trkpt lat="45.02942" lon="5.56858">
        <ele>1713</ele>
        <time>2019-07-14T13:10:11Z</time>
      </trkpt>
      <trkpt lat="45.02941" lon="5.56857">
        <ele>1713</ele>
        <time>2019-07-14T13:10:12Z</time>
      </trkpt>
      <trkpt lat="45.0294" lon="5.56855">
        <ele>1713</ele>
        <time>2019-07-14T13:10:13Z</time>
      </trkpt>
      <trkpt lat="45.02939" lon="5.56853">
        <ele>1713</ele>
        <time>2019-07-14T13:10:14Z</time>
      </trkpt>
      <trkpt lat="45.02938" lon="5.56852">
        <ele>1713</ele>
        <time>2019-07-14T13:10:15Z</time>
      </trkpt>
      <trkpt lat="45.02937" lon="5.5685">
        <ele>1713</ele>
        <time>2019-07-14T13:10:16Z</time>
      </trkpt>
      <trkpt lat="45.02935" lon="5.56848">
        <ele>1713</ele>
        <time>2019-07-14T13:10:17Z</time>
      </trkpt>
      <trkpt lat="45.02934" lon="5.56845">
        <ele>1713</ele>
        <time>2019-07-14T13:10:18Z</time>
      </trkpt>
      <trkpt lat="45.02932" lon="5.56842">
        <ele>1713</ele>
        <time>2019-07-14T13:10:19Z</time>
      </trkpt>
      <trkpt lat="45.02932" lon="5.56838">
        <ele>1713</ele>
        <time>2019-07-14T13:10:20Z</time>
      </trkpt>
      <trkpt lat="45.02932" lon="5.56834">
        <ele>1713</ele>
        <time>2019-07-14T13:10:21Z</time>
      </trkpt>
      <trkpt lat="45.02935" lon="5.56831">
        <ele>1706</ele>
        <time>2019-07-14T13:10:22Z</time>
      </trkpt>
      <trkpt lat="45.02938" lon="5.56829">
        <ele>1705</ele>
        <time>2019-07-14T13:10:23Z</time>
      </trkpt>
      <trkpt lat="45.02942" lon="5.56828">
        <ele>1704</ele>
        <time>2019-07-14T13:10:24Z</time>
      </trkpt>
      <trkpt lat="45.02944" lon="5.56827">
        <ele>1704</ele>
        <time>2019-07-14T13:10:25Z</time>
      </trkpt>
      <trkpt lat="45.02947" lon="5.56827">
        <ele>1703</ele>
        <time>2019-07-14T13:10:26Z</time>
      </trkpt>
      <trkpt lat="45.02949" lon="5.56826">
        <ele>1703</ele>
        <time>2019-07-14T13:10:27Z</time>
      </trkpt>
      <trkpt lat="45.0295" lon="5.56826">
        <ele>1703</ele>
        <time>2019-07-14T13:10:28Z</time>
      </trkpt>
      <trkpt lat="45.02951" lon="5.56826">
        <ele>1703</ele>
        <time>2019-07-14T13:10:29Z</time>
      </trkpt>
      <trkpt lat="45.02952" lon="5.56826">
        <ele>1703</ele>
        <time>2019-07-14T13:12:41Z</time>
      </trkpt>
      <trkpt lat="45.02955" lon="5.56828">
        <ele>1702</ele>
        <time>2019-07-14T13:12:42Z</time>
      </trkpt>
      <trkpt lat="45.02956" lon="5.56831">
        <ele>1703</ele>
        <time>2019-07-14T13:12:43Z</time>
      </trkpt>
      <trkpt lat="45.02956" lon="5.56839">
        <ele>1711</ele>
        <time>2019-07-14T13:12:45Z</time>
      </trkpt>
      <trkpt lat="45.02958" lon="5.56843">
        <ele>1711</ele>
        <time>2019-07-14T13:12:46Z</time>
      </trkpt>
      <trkpt lat="45.02961" lon="5.56842">
        <ele>1711</ele>
        <time>2019-07-14T13:12:47Z</time>
      </trkpt>
      <trkpt lat="45.02963" lon="5.56839">
        <ele>1711</ele>
        <time>2019-07-14T13:12:48Z</time>
      </trkpt>
      <trkpt lat="45.02965" lon="5.56834">
        <ele>1710</ele>
        <time>2019-07-14T13:12:49Z</time>
      </trkpt>
      <trkpt lat="45.02967" lon="5.56829">
        <ele>1702</ele>
        <time>2019-07-14T13:12:50Z</time>
      </trkpt>
      <trkpt lat="45.02969" lon="5.56823">
        <ele>1701</ele>
        <time>2019-07-14T13:12:51Z</time>
      </trkpt>
      <trkpt lat="45.02972" lon="5.56816">
        <ele>1701</ele>
        <time>2019-07-14T13:12:52Z</time>
      </trkpt>
      <trkpt lat="45.02974" lon="5.56809">
        <ele>1700</ele>
        <time>2019-07-14T13:12:53Z</time>
      </trkpt>
      <trkpt lat="45.02974" lon="5.56803">
        <ele>1700</ele>
        <time>2019-07-14T13:12:54Z</time>
      </trkpt>
      <trkpt lat="45.02976" lon="5.56797">
        <ele>1699</ele>
        <time>2019-07-14T13:12:55Z</time>
      </trkpt>
      <trkpt lat="45.02979" lon="5.56796">
        <ele>1699</ele>
        <time>2019-07-14T13:12:56Z</time>
      </trkpt>
      <trkpt lat="45.02982" lon="5.56799">
        <ele>1699</ele>
        <time>2019-07-14T13:12:57Z</time>
      </trkpt>
      <trkpt lat="45.02984" lon="5.56804">
        <ele>1700</ele>
        <time>2019-07-14T13:12:58Z</time>
      </trkpt>
      <trkpt lat="45.02985" lon="5.5681">
        <ele>1700</ele>
        <time>2019-07-14T13:12:59Z</time>
      </trkpt>
      <trkpt lat="45.02987" lon="5.56815">
        <ele>1700</ele>
        <time>2019-07-14T13:13:00Z</time>
      </trkpt>
      <trkpt lat="45.02989" lon="5.56822">
        <ele>1701</ele>
        <time>2019-07-14T13:13:01Z</time>
      </trkpt>
      <trkpt lat="45.02991" lon="5.56829">
        <ele>1701</ele>
        <time>2019-07-14T13:13:02Z</time>
      </trkpt>
      <trkpt lat="45.02992" lon="5.56837">
        <ele>1705</ele>
        <time>2019-07-14T13:13:03Z</time>
      </trkpt>
      <trkpt lat="45.02993" lon="5.56843">
        <ele>1706</ele>
        <time>2019-07-14T13:13:04Z</time>
      </trkpt>
      <trkpt lat="45.02996" lon="5.56846">
        <ele>1707</ele>
        <time>2019-07-14T13:13:05Z</time>
      </trkpt>
      <trkpt lat="45.02998" lon="5.56843">
        <ele>1705</ele>
        <time>2019-07-14T13:13:06Z</time>
      </trkpt>
      <trkpt lat="45.02999" lon="5.56837">
        <ele>1704</ele>
        <time>2019-07-14T13:13:07Z</time>
      </trkpt>
      <trkpt lat="45.03001" lon="5.56832">
        <ele>1701</ele>
        <time>2019-07-14T13:13:08Z</time>
      </trkpt>
      <trkpt lat="45.03005" lon="5.56827">
        <ele>1699</ele>
        <time>2019-07-14T13:13:09Z</time>
      </trkpt>
      <trkpt lat="45.03008" lon="5.56824">
        <ele>1697</ele>
        <time>2019-07-14T13:13:10Z</time>
      </trkpt>
      <trkpt lat="45.03013" lon="5.56821">
        <ele>1695</ele>
        <time>2019-07-14T13:13:11Z</time>
      </trkpt>
      <trkpt lat="45.03017" lon="5.56815">
        <ele>1694</ele>
        <time>2019-07-14T13:13:12Z</time>
      </trkpt>
      <trkpt lat="45.0302" lon="5.56808">
        <ele>1693</ele>
        <time>2019-07-14T13:13:13Z</time>
      </trkpt>
      <trkpt lat="45.03022" lon="5.568">
        <ele>1692</ele>
        <time>2019-07-14T13:13:14Z</time>
      </trkpt>
      <trkpt lat="45.03024" lon="5.56795">
        <ele>1691</ele>
        <time>2019-07-14T13:13:15Z</time>
      </trkpt>
      <trkpt lat="45.03029" lon="5.56793">
        <ele>1690</ele>
        <time>2019-07-14T13:13:16Z</time>
      </trkpt>
      <trkpt lat="45.03033" lon="5.56795">
        <ele>1690</ele>
        <time>2019-07-14T13:13:17Z</time>
      </trkpt>
      <trkpt lat="45.03038" lon="5.568">
        <ele>1690</ele>
        <time>2019-07-14T13:13:18Z</time>
      </trkpt>
      <trkpt lat="45.03043" lon="5.56805">
        <ele>1690</ele>
        <time>2019-07-14T13:13:19Z</time>
      </trkpt>
      <trkpt lat="45.03046" lon="5.56811">
        <ele>1690</ele>
        <time>2019-07-14T13:13:20Z</time>
      </trkpt>
      <trkpt lat="45.03049" lon="5.56817">
        <ele>1690</ele>
        <time>2019-07-14T13:13:21Z</time>
      </trkpt>
      <trkpt lat="45.03053" lon="5.56823">
        <ele>1689</ele>
        <time>2019-07-14T13:13:22Z</time>
      </trkpt>
      <trkpt lat="45.03058" lon="5.5683">
        <ele>1689</ele>
        <time>2019-07-14T13:13:23Z</time>
      </trkpt>
      <trkpt lat="45.03062" lon="5.56838">
        <ele>1692</ele>
        <time>2019-07-14T13:13:24Z</time>
      </trkpt>
      <trkpt lat="45.03067" lon="5.56847">
        <ele>1692</ele>
        <time>2019-07-14T13:13:25Z</time>
      </trkpt>
      <trkpt lat="45.03071" lon="5.56856">
        <ele>1693</ele>
        <time>2019-07-14T13:13:26Z</time>
      </trkpt>
      <trkpt lat="45.03076" lon="5.56865">
        <ele>1693</ele>
        <time>2019-07-14T13:13:27Z</time>
      </trkpt>
      <trkpt lat="45.03081" lon="5.56874">
        <ele>1694</ele>
        <time>2019-07-14T13:13:28Z</time>
      </trkpt>
      <trkpt lat="45.03085" lon="5.56883">
        <ele>1681</ele>
        <time>2019-07-14T13:13:29Z</time>
      </trkpt>
      <trkpt lat="45.03089" lon="5.56893">
        <ele>1682</ele>
        <time>2019-07-14T13:13:30Z</time>
      </trkpt>
      <trkpt lat="45.03091" lon="5.56903">
        <ele>1684</ele>
        <time>2019-07-14T13:13:31Z</time>
      </trkpt>
      <trkpt lat="45.03095" lon="5.56912">
        <ele>1685</ele>
        <time>2019-07-14T13:13:32Z</time>
      </trkpt>
      <trkpt lat="45.03098" lon="5.5692">
        <ele>1684</ele>
        <time>2019-07-14T13:13:33Z</time>
      </trkpt>
      <trkpt lat="45.03102" lon="5.56921">
        <ele>1683</ele>
        <time>2019-07-14T13:13:34Z</time>
      </trkpt>
      <trkpt lat="45.03103" lon="5.56916">
        <ele>1682</ele>
        <time>2019-07-14T13:13:35Z</time>
      </trkpt>
      <trkpt lat="45.03101" lon="5.5691">
        <ele>1683</ele>
        <time>2019-07-14T13:13:36Z</time>
      </trkpt>
      <trkpt lat="45.031" lon="5.56906">
        <ele>1682</ele>
        <time>2019-07-14T13:13:37Z</time>
      </trkpt>
      <trkpt lat="45.03103" lon="5.56904">
        <ele>1682</ele>
        <time>2019-07-14T13:13:38Z</time>
      </trkpt>
      <trkpt lat="45.03106" lon="5.56907">
        <ele>1681</ele>
        <time>2019-07-14T13:13:39Z</time>
      </trkpt>
      <trkpt lat="45.03108" lon="5.56911">
        <ele>1681</ele>
        <time>2019-07-14T13:13:40Z</time>
      </trkpt>
      <trkpt lat="45.03111" lon="5.56916">
        <ele>1680</ele>
        <time>2019-07-14T13:13:41Z</time>
      </trkpt>
      <trkpt lat="45.03115" lon="5.56919">
        <ele>1679</ele>
        <time>2019-07-14T13:13:42Z</time>
      </trkpt>
      <trkpt lat="45.03117" lon="5.56917">
        <ele>1679</ele>
        <time>2019-07-14T13:13:43Z</time>
      </trkpt>
      <trkpt lat="45.03116" lon="5.5691">
        <ele>1679</ele>
        <time>2019-07-14T13:13:44Z</time>
      </trkpt>
      <trkpt lat="45.03115" lon="5.56904">
        <ele>1679</ele>
        <time>2019-07-14T13:13:45Z</time>
      </trkpt>
      <trkpt lat="45.03116" lon="5.56899">
        <ele>1678</ele>
        <time>2019-07-14T13:13:46Z</time>
      </trkpt>
      <trkpt lat="45.03119" lon="5.56899">
        <ele>1678</ele>
        <time>2019-07-14T13:13:47Z</time>
      </trkpt>
      <trkpt lat="45.03124" lon="5.56904">
        <ele>1677</ele>
        <time>2019-07-14T13:13:48Z</time>
      </trkpt>
      <trkpt lat="45.03127" lon="5.5691">
        <ele>1676</ele>
        <time>2019-07-14T13:13:49Z</time>
      </trkpt>
      <trkpt lat="45.0313" lon="5.56916">
        <ele>1675</ele>
        <time>2019-07-14T13:13:50Z</time>
      </trkpt>
      <trkpt lat="45.03133" lon="5.56919">
        <ele>1675</ele>
        <time>2019-07-14T13:13:51Z</time>
      </trkpt>
      <trkpt lat="45.03138" lon="5.56917">
        <ele>1674</ele>
        <time>2019-07-14T13:13:52Z</time>
      </trkpt>
      <trkpt lat="45.03139" lon="5.5691">
        <ele>1673</ele>
        <time>2019-07-14T13:13:53Z</time>
      </trkpt>
      <trkpt lat="45.03137" lon="5.56904">
        <ele>1674</ele>
        <time>2019-07-14T13:13:54Z</time>
      </trkpt>
      <trkpt lat="45.03134" lon="5.56899">
        <ele>1675</ele>
        <time>2019-07-14T13:13:55Z</time>
      </trkpt>
      <trkpt lat="45.03134" lon="5.56895">
        <ele>1675</ele>
        <time>2019-07-14T13:13:56Z</time>
      </trkpt>
      <trkpt lat="45.03137" lon="5.56893">
        <ele>1674</ele>
        <time>2019-07-14T13:13:57Z</time>
      </trkpt>
      <trkpt lat="45.03139" lon="5.5689">
        <ele>1674</ele>
        <time>2019-07-14T13:13:58Z</time>
      </trkpt>
      <trkpt lat="45.03139" lon="5.56886">
        <ele>1674</ele>
        <time>2019-07-14T13:13:59Z</time>
      </trkpt>
      <trkpt lat="45.0314" lon="5.56883">
        <ele>1674</ele>
        <time>2019-07-14T13:14:00Z</time>
      </trkpt>
      <trkpt lat="45.03143" lon="5.56883">
        <ele>1674</ele>
        <time>2019-07-14T13:14:01Z</time>
      </trkpt>
      <trkpt lat="45.03146" lon="5.56886">
        <ele>1673</ele>
        <time>2019-07-14T13:14:02Z</time>
      </trkpt>
      <trkpt lat="45.03149" lon="5.56889">
        <ele>1672</ele>
        <time>2019-07-14T13:14:03Z</time>
      </trkpt>
      <trkpt lat="45.03152" lon="5.56893">
        <ele>1672</ele>
        <time>2019-07-14T13:14:04Z</time>
      </trkpt>
      <trkpt lat="45.03154" lon="5.56897">
        <ele>1671</ele>
        <time>2019-07-14T13:14:05Z</time>
      </trkpt>
      <trkpt lat="45.03155" lon="5.56902">
        <ele>1670</ele>
        <time>2019-07-14T13:14:06Z</time>
      </trkpt>
      <trkpt lat="45.03157" lon="5.56905">
        <ele>1670</ele>
        <time>2019-07-14T13:14:07Z</time>
      </trkpt>
      <trkpt lat="45.0316" lon="5.56903">
        <ele>1669</ele>
        <time>2019-07-14T13:14:08Z</time>
      </trkpt>
      <trkpt lat="45.03161" lon="5.56898">
        <ele>1670</ele>
        <time>2019-07-14T13:14:09Z</time>
      </trkpt>
      <trkpt lat="45.03161" lon="5.56892">
        <ele>1671</ele>
        <time>2019-07-14T13:14:10Z</time>
      </trkpt>
      <trkpt lat="45.03164" lon="5.56887">
        <ele>1671</ele>
        <time>2019-07-14T13:14:11Z</time>
      </trkpt>
      <trkpt lat="45.03174" lon="5.56888">
        <ele>1657</ele>
        <time>2019-07-14T13:14:13Z</time>
      </trkpt>
      <trkpt lat="45.03177" lon="5.56885">
        <ele>1656</ele>
        <time>2019-07-14T13:14:14Z</time>
      </trkpt>
      <trkpt lat="45.03175" lon="5.56879">
        <ele>1656</ele>
        <time>2019-07-14T13:14:15Z</time>
      </trkpt>
      <trkpt lat="45.03171" lon="5.56876">
        <ele>1656</ele>
        <time>2019-07-14T13:14:16Z</time>
      </trkpt>
      <trkpt lat="45.0317" lon="5.56872">
        <ele>1656</ele>
        <time>2019-07-14T13:14:17Z</time>
      </trkpt>
      <trkpt lat="45.03175" lon="5.5687">
        <ele>1656</ele>
        <time>2019-07-14T13:14:18Z</time>
      </trkpt>
      <trkpt lat="45.0318" lon="5.56871">
        <ele>1656</ele>
        <time>2019-07-14T13:14:19Z</time>
      </trkpt>
      <trkpt lat="45.03183" lon="5.56876">
        <ele>1655</ele>
        <time>2019-07-14T13:14:20Z</time>
      </trkpt>
      <trkpt lat="45.03187" lon="5.56879">
        <ele>1655</ele>
        <time>2019-07-14T13:14:21Z</time>
      </trkpt>
      <trkpt lat="45.03191" lon="5.56876">
        <ele>1654</ele>
        <time>2019-07-14T13:14:22Z</time>
      </trkpt>
      <trkpt lat="45.03193" lon="5.5687">
        <ele>1654</ele>
        <time>2019-07-14T13:14:23Z</time>
      </trkpt>
      <trkpt lat="45.03194" lon="5.56862">
        <ele>1654</ele>
        <time>2019-07-14T13:14:24Z</time>
      </trkpt>
      <trkpt lat="45.03198" lon="5.56857">
        <ele>1654</ele>
        <time>2019-07-14T13:14:25Z</time>
      </trkpt>
      <trkpt lat="45.03204" lon="5.56857">
        <ele>1653</ele>
        <time>2019-07-14T13:14:26Z</time>
      </trkpt>
      <trkpt lat="45.03207" lon="5.56863">
        <ele>1652</ele>
        <time>2019-07-14T13:14:27Z</time>
      </trkpt>
      <trkpt lat="45.03208" lon="5.56871">
        <ele>1652</ele>
        <time>2019-07-14T13:14:28Z</time>
      </trkpt>
      <trkpt lat="45.03209" lon="5.56884">
        <ele>1652</ele>
        <time>2019-07-14T13:14:30Z</time>
      </trkpt>
      <trkpt lat="45.03214" lon="5.56886">
        <ele>1651</ele>
        <time>2019-07-14T13:14:31Z</time>
      </trkpt>
      <trkpt lat="45.03218" lon="5.56884">
        <ele>1650</ele>
        <time>2019-07-14T13:14:32Z</time>
      </trkpt>
      <trkpt lat="45.03222" lon="5.56877">
        <ele>1650</ele>
        <time>2019-07-14T13:14:33Z</time>
      </trkpt>
      <trkpt lat="45.03226" lon="5.5687">
        <ele>1650</ele>
        <time>2019-07-14T13:14:34Z</time>
      </trkpt>
      <trkpt lat="45.03229" lon="5.56864">
        <ele>1650</ele>
        <time>2019-07-14T13:14:35Z</time>
      </trkpt>
      <trkpt lat="45.03233" lon="5.56858">
        <ele>1649</ele>
        <time>2019-07-14T13:14:36Z</time>
      </trkpt>
      <trkpt lat="45.03236" lon="5.56851">
        <ele>1649</ele>
        <time>2019-07-14T13:14:37Z</time>
      </trkpt>
      <trkpt lat="45.0324" lon="5.56844">
        <ele>1648</ele>
        <time>2019-07-14T13:14:38Z</time>
      </trkpt>
      <trkpt lat="45.03244" lon="5.56835">
        <ele>1647</ele>
        <time>2019-07-14T13:14:39Z</time>
      </trkpt>
      <trkpt lat="45.03247" lon="5.56828">
        <ele>1647</ele>
        <time>2019-07-14T13:14:40Z</time>
      </trkpt>
      <trkpt lat="45.03249" lon="5.5682">
        <ele>1648</ele>
        <time>2019-07-14T13:14:41Z</time>
      </trkpt>
      <trkpt lat="45.03251" lon="5.56813">
        <ele>1637</ele>
        <time>2019-07-14T13:14:42Z</time>
      </trkpt>
      <trkpt lat="45.03253" lon="5.56807">
        <ele>1636</ele>
        <time>2019-07-14T13:14:43Z</time>
      </trkpt>
      <trkpt lat="45.03256" lon="5.56806">
        <ele>1635</ele>
        <time>2019-07-14T13:14:44Z</time>
      </trkpt>
      <trkpt lat="45.03259" lon="5.56807">
        <ele>1635</ele>
        <time>2019-07-14T13:14:45Z</time>
      </trkpt>
      <trkpt lat="45.03262" lon="5.5681">
        <ele>1635</ele>
        <time>2019-07-14T13:14:46Z</time>
      </trkpt>
      <trkpt lat="45.03264" lon="5.56814">
        <ele>1635</ele>
        <time>2019-07-14T13:14:47Z</time>
      </trkpt>
      <trkpt lat="45.03266" lon="5.56818">
        <ele>1636</ele>
        <time>2019-07-14T13:14:48Z</time>
      </trkpt>
      <trkpt lat="45.03267" lon="5.56823">
        <ele>1636</ele>
        <time>2019-07-14T13:14:49Z</time>
      </trkpt>
      <trkpt lat="45.03267" lon="5.56828">
        <ele>1636</ele>
        <time>2019-07-14T13:14:50Z</time>
      </trkpt>
      <trkpt lat="45.03268" lon="5.56834">
        <ele>1635</ele>
        <time>2019-07-14T13:14:51Z</time>
      </trkpt>
      <trkpt lat="45.03269" lon="5.56839">
        <ele>1634</ele>
        <time>2019-07-14T13:14:52Z</time>
      </trkpt>
      <trkpt lat="45.03268" lon="5.56844">
        <ele>1633</ele>
        <time>2019-07-14T13:14:53Z</time>
      </trkpt>
      <trkpt lat="45.03268" lon="5.5685">
        <ele>1633</ele>
        <time>2019-07-14T13:14:54Z</time>
      </trkpt>
      <trkpt lat="45.03267" lon="5.56854">
        <ele>1632</ele>
        <time>2019-07-14T13:14:55Z</time>
      </trkpt>
      <trkpt lat="45.03266" lon="5.56857">
        <ele>1632</ele>
        <time>2019-07-14T13:14:56Z</time>
      </trkpt>
      <trkpt lat="45.03266" lon="5.56859">
        <ele>1631</ele>
        <time>2019-07-14T13:14:57Z</time>
      </trkpt>
      <trkpt lat="45.03267" lon="5.56861">
        <ele>1631</ele>
        <time>2019-07-14T13:15:08Z</time>
      </trkpt>
      <trkpt lat="45.03268" lon="5.56863">
        <ele>1630</ele>
        <time>2019-07-14T13:15:09Z</time>
      </trkpt>
      <trkpt lat="45.03271" lon="5.56864">
        <ele>1630</ele>
        <time>2019-07-14T13:15:10Z</time>
      </trkpt>
      <trkpt lat="45.03272" lon="5.56863">
        <ele>1630</ele>
        <time>2019-07-14T13:15:11Z</time>
      </trkpt>
      <trkpt lat="45.03273" lon="5.56859">
        <ele>1630</ele>
        <time>2019-07-14T13:15:12Z</time>
      </trkpt>
      <trkpt lat="45.03276" lon="5.56857">
        <ele>1630</ele>
        <time>2019-07-14T13:15:13Z</time>
      </trkpt>
      <trkpt lat="45.0328" lon="5.56858">
        <ele>1629</ele>
        <time>2019-07-14T13:15:14Z</time>
      </trkpt>
      <trkpt lat="45.03281" lon="5.56862">
        <ele>1628</ele>
        <time>2019-07-14T13:15:15Z</time>
      </trkpt>
      <trkpt lat="45.0328" lon="5.56868">
        <ele>1628</ele>
        <time>2019-07-14T13:15:16Z</time>
      </trkpt>
      <trkpt lat="45.03278" lon="5.56874">
        <ele>1628</ele>
        <time>2019-07-14T13:15:17Z</time>
      </trkpt>
      <trkpt lat="45.03278" lon="5.5688">
        <ele>1627</ele>
        <time>2019-07-14T13:15:18Z</time>
      </trkpt>
      <trkpt lat="45.03277" lon="5.56886">
        <ele>1627</ele>
        <time>2019-07-14T13:15:19Z</time>
      </trkpt>
      <trkpt lat="45.03279" lon="5.56889">
        <ele>1627</ele>
        <time>2019-07-14T13:15:20Z</time>
      </trkpt>
      <trkpt lat="45.03283" lon="5.56888">
        <ele>1626</ele>
        <time>2019-07-14T13:15:21Z</time>
      </trkpt>
      <trkpt lat="45.03286" lon="5.56883">
        <ele>1626</ele>
        <time>2019-07-14T13:15:22Z</time>
      </trkpt>
      <trkpt lat="45.03291" lon="5.56878">
        <ele>1625</ele>
        <time>2019-07-14T13:15:23Z</time>
      </trkpt>
      <trkpt lat="45.03295" lon="5.56873">
        <ele>1625</ele>
        <time>2019-07-14T13:15:24Z</time>
      </trkpt>
      <trkpt lat="45.03299" lon="5.56869">
        <ele>1624</ele>
        <time>2019-07-14T13:15:25Z</time>
      </trkpt>
      <trkpt lat="45.03302" lon="5.56868">
        <ele>1624</ele>
        <time>2019-07-14T13:15:26Z</time>
      </trkpt>
      <trkpt lat="45.03304" lon="5.56872">
        <ele>1623</ele>
        <time>2019-07-14T13:15:27Z</time>
      </trkpt>
      <trkpt lat="45.03302" lon="5.56878">
        <ele>1623</ele>
        <time>2019-07-14T13:15:28Z</time>
      </trkpt>
      <trkpt lat="45.03299" lon="5.56885">
        <ele>1623</ele>
        <time>2019-07-14T13:15:29Z</time>
      </trkpt>
      <trkpt lat="45.03297" lon="5.56892">
        <ele>1624</ele>
        <time>2019-07-14T13:15:30Z</time>
      </trkpt>
      <trkpt lat="45.03294" lon="5.56899">
        <ele>1624</ele>
        <time>2019-07-14T13:15:31Z</time>
      </trkpt>
      <trkpt lat="45.03291" lon="5.56905">
        <ele>1624</ele>
        <time>2019-07-14T13:15:32Z</time>
      </trkpt>
      <trkpt lat="45.03289" lon="5.56912">
        <ele>1625</ele>
        <time>2019-07-14T13:15:33Z</time>
      </trkpt>
      <trkpt lat="45.03287" lon="5.56919">
        <ele>1622</ele>
        <time>2019-07-14T13:15:34Z</time>
      </trkpt>
      <trkpt lat="45.03286" lon="5.56925">
        <ele>1622</ele>
        <time>2019-07-14T13:15:35Z</time>
      </trkpt>
      <trkpt lat="45.03286" lon="5.5693">
        <ele>1622</ele>
        <time>2019-07-14T13:15:36Z</time>
      </trkpt>
      <trkpt lat="45.03285" lon="5.56944">
        <ele>1622</ele>
        <time>2019-07-14T13:15:38Z</time>
      </trkpt>
      <trkpt lat="45.03284" lon="5.56951">
        <ele>1622</ele>
        <time>2019-07-14T13:15:39Z</time>
      </trkpt>
      <trkpt lat="45.03284" lon="5.5696">
        <ele>1622</ele>
        <time>2019-07-14T13:15:40Z</time>
      </trkpt>
      <trkpt lat="45.03283" lon="5.5698">
        <ele>1622</ele>
        <time>2019-07-14T13:15:42Z</time>
      </trkpt>
      <trkpt lat="45.03284" lon="5.56987">
        <ele>1621</ele>
        <time>2019-07-14T13:15:43Z</time>
      </trkpt>
      <trkpt lat="45.03288" lon="5.5699">
        <ele>1621</ele>
        <time>2019-07-14T13:15:44Z</time>
      </trkpt>
      <trkpt lat="45.03291" lon="5.56985">
        <ele>1621</ele>
        <time>2019-07-14T13:15:45Z</time>
      </trkpt>
      <trkpt lat="45.03293" lon="5.56977">
        <ele>1620</ele>
        <time>2019-07-14T13:15:46Z</time>
      </trkpt>
      <trkpt lat="45.03294" lon="5.56969">
        <ele>1620</ele>
        <time>2019-07-14T13:15:47Z</time>
      </trkpt>
      <trkpt lat="45.03297" lon="5.56963">
        <ele>1620</ele>
        <time>2019-07-14T13:15:48Z</time>
      </trkpt>
      <trkpt lat="45.03301" lon="5.56962">
        <ele>1620</ele>
        <time>2019-07-14T13:15:49Z</time>
      </trkpt>
      <trkpt lat="45.03306" lon="5.56964">
        <ele>1619</ele>
        <time>2019-07-14T13:15:50Z</time>
      </trkpt>
      <trkpt lat="45.0331" lon="5.56964">
        <ele>1619</ele>
        <time>2019-07-14T13:15:51Z</time>
      </trkpt>
      <trkpt lat="45.03312" lon="5.56957">
        <ele>1618</ele>
        <time>2019-07-14T13:15:52Z</time>
      </trkpt>
      <trkpt lat="45.03313" lon="5.56949">
        <ele>1618</ele>
        <time>2019-07-14T13:15:53Z</time>
      </trkpt>
      <trkpt lat="45.03315" lon="5.56942">
        <ele>1617</ele>
        <time>2019-07-14T13:15:54Z</time>
      </trkpt>
      <trkpt lat="45.03319" lon="5.56937">
        <ele>1616</ele>
        <time>2019-07-14T13:15:55Z</time>
      </trkpt>
      <trkpt lat="45.03323" lon="5.56932">
        <ele>1615</ele>
        <time>2019-07-14T13:15:56Z</time>
      </trkpt>
      <trkpt lat="45.03328" lon="5.56928">
        <ele>1613</ele>
        <time>2019-07-14T13:15:57Z</time>
      </trkpt>
      <trkpt lat="45.03333" lon="5.56924">
        <ele>1611</ele>
        <time>2019-07-14T13:15:58Z</time>
      </trkpt>
      <trkpt lat="45.0334" lon="5.5692">
        <ele>1606</ele>
        <time>2019-07-14T13:15:59Z</time>
      </trkpt>
      <trkpt lat="45.03347" lon="5.56916">
        <ele>1603</ele>
        <time>2019-07-14T13:16:00Z</time>
      </trkpt>
      <trkpt lat="45.03352" lon="5.56911">
        <ele>1601</ele>
        <time>2019-07-14T13:16:01Z</time>
      </trkpt>
      <trkpt lat="45.03358" lon="5.56908">
        <ele>1600</ele>
        <time>2019-07-14T13:16:02Z</time>
      </trkpt>
      <trkpt lat="45.03363" lon="5.5691">
        <ele>1599</ele>
        <time>2019-07-14T13:16:03Z</time>
      </trkpt>
      <trkpt lat="45.03366" lon="5.56916">
        <ele>1598</ele>
        <time>2019-07-14T13:16:04Z</time>
      </trkpt>
      <trkpt lat="45.03369" lon="5.56921">
        <ele>1600</ele>
        <time>2019-07-14T13:16:05Z</time>
      </trkpt>
      <trkpt lat="45.03371" lon="5.56925">
        <ele>1600</ele>
        <time>2019-07-14T13:16:06Z</time>
      </trkpt>
      <trkpt lat="45.03374" lon="5.56929">
        <ele>1599</ele>
        <time>2019-07-14T13:16:07Z</time>
      </trkpt>
      <trkpt lat="45.03376" lon="5.56932">
        <ele>1599</ele>
        <time>2019-07-14T13:16:08Z</time>
      </trkpt>
      <trkpt lat="45.03378" lon="5.56936">
        <ele>1599</ele>
        <time>2019-07-14T13:16:09Z</time>
      </trkpt>
      <trkpt lat="45.03379" lon="5.56939">
        <ele>1599</ele>
        <time>2019-07-14T13:16:10Z</time>
      </trkpt>
      <trkpt lat="45.03382" lon="5.56943">
        <ele>1599</ele>
        <time>2019-07-14T13:16:11Z</time>
      </trkpt>
      <trkpt lat="45.03385" lon="5.56946">
        <ele>1598</ele>
        <time>2019-07-14T13:16:12Z</time>
      </trkpt>
      <trkpt lat="45.03389" lon="5.56948">
        <ele>1598</ele>
        <time>2019-07-14T13:16:13Z</time>
      </trkpt>
      <trkpt lat="45.03399" lon="5.56948">
        <ele>1597</ele>
        <time>2019-07-14T13:16:15Z</time>
      </trkpt>
      <trkpt lat="45.03405" lon="5.5695">
        <ele>1596</ele>
        <time>2019-07-14T13:16:16Z</time>
      </trkpt>
      <trkpt lat="45.0341" lon="5.56953">
        <ele>1596</ele>
        <time>2019-07-14T13:16:17Z</time>
      </trkpt>
      <trkpt lat="45.03416" lon="5.56958">
        <ele>1597</ele>
        <time>2019-07-14T13:16:18Z</time>
      </trkpt>
      <trkpt lat="45.03422" lon="5.56964">
        <ele>1586</ele>
        <time>2019-07-14T13:16:19Z</time>
      </trkpt>
      <trkpt lat="45.03427" lon="5.56969">
        <ele>1586</ele>
        <time>2019-07-14T13:16:20Z</time>
      </trkpt>
      <trkpt lat="45.03432" lon="5.56974">
        <ele>1586</ele>
        <time>2019-07-14T13:16:21Z</time>
      </trkpt>
      <trkpt lat="45.03438" lon="5.56978">
        <ele>1586</ele>
        <time>2019-07-14T13:16:22Z</time>
      </trkpt>
      <trkpt lat="45.03445" lon="5.56982">
        <ele>1586</ele>
        <time>2019-07-14T13:16:23Z</time>
      </trkpt>
      <trkpt lat="45.0345" lon="5.56986">
        <ele>1585</ele>
        <time>2019-07-14T13:16:24Z</time>
      </trkpt>
      <trkpt lat="45.03456" lon="5.5699">
        <ele>1585</ele>
        <time>2019-07-14T13:16:25Z</time>
      </trkpt>
      <trkpt lat="45.03462" lon="5.56994">
        <ele>1584</ele>
        <time>2019-07-14T13:16:26Z</time>
      </trkpt>
      <trkpt lat="45.03467" lon="5.56996">
        <ele>1583</ele>
        <time>2019-07-14T13:16:27Z</time>
      </trkpt>
      <trkpt lat="45.03473" lon="5.56994">
        <ele>1582</ele>
        <time>2019-07-14T13:16:28Z</time>
      </trkpt>
      <trkpt lat="45.03479" lon="5.56992">
        <ele>1581</ele>
        <time>2019-07-14T13:16:29Z</time>
      </trkpt>
      <trkpt lat="45.03485" lon="5.56993">
        <ele>1581</ele>
        <time>2019-07-14T13:16:30Z</time>
      </trkpt>
      <trkpt lat="45.03491" lon="5.56994">
        <ele>1580</ele>
        <time>2019-07-14T13:16:31Z</time>
      </trkpt>
      <trkpt lat="45.03497" lon="5.56996">
        <ele>1580</ele>
        <time>2019-07-14T13:16:32Z</time>
      </trkpt>
      <trkpt lat="45.03508" lon="5.56994">
        <ele>1576</ele>
        <time>2019-07-14T13:16:34Z</time>
      </trkpt>
      <trkpt lat="45.03514" lon="5.56992">
        <ele>1574</ele>
        <time>2019-07-14T13:16:35Z</time>
      </trkpt>
      <trkpt lat="45.03521" lon="5.56993">
        <ele>1573</ele>
        <time>2019-07-14T13:16:36Z</time>
      </trkpt>
      <trkpt lat="45.03528" lon="5.56997">
        <ele>1572</ele>
        <time>2019-07-14T13:16:37Z</time>
      </trkpt>
      <trkpt lat="45.03535" lon="5.57001">
        <ele>1577</ele>
        <time>2019-07-14T13:16:38Z</time>
      </trkpt>
      <trkpt lat="45.03542" lon="5.57002">
        <ele>1577</ele>
        <time>2019-07-14T13:16:39Z</time>
      </trkpt>
      <trkpt lat="45.0355" lon="5.57001">
        <ele>1576</ele>
        <time>2019-07-14T13:16:40Z</time>
      </trkpt>
      <trkpt lat="45.03556" lon="5.56998">
        <ele>1570</ele>
        <time>2019-07-14T13:16:41Z</time>
      </trkpt>
      <trkpt lat="45.03563" lon="5.56996">
        <ele>1570</ele>
        <time>2019-07-14T13:16:42Z</time>
      </trkpt>
      <trkpt lat="45.03568" lon="5.56996">
        <ele>1570</ele>
        <time>2019-07-14T13:16:43Z</time>
      </trkpt>
      <trkpt lat="45.03573" lon="5.57">
        <ele>1570</ele>
        <time>2019-07-14T13:16:44Z</time>
      </trkpt>
      <trkpt lat="45.03578" lon="5.57001">
        <ele>1572</ele>
        <time>2019-07-14T13:16:45Z</time>
      </trkpt>
      <trkpt lat="45.03583" lon="5.56996">
        <ele>1570</ele>
        <time>2019-07-14T13:16:46Z</time>
      </trkpt>
      <trkpt lat="45.03586" lon="5.5699">
        <ele>1566</ele>
        <time>2019-07-14T13:16:47Z</time>
      </trkpt>
      <trkpt lat="45.0359" lon="5.56987">
        <ele>1565</ele>
        <time>2019-07-14T13:16:48Z</time>
      </trkpt>
      <trkpt lat="45.03595" lon="5.56988">
        <ele>1564</ele>
        <time>2019-07-14T13:16:49Z</time>
      </trkpt>
      <trkpt lat="45.03599" lon="5.56989">
        <ele>1563</ele>
        <time>2019-07-14T13:16:50Z</time>
      </trkpt>
      <trkpt lat="45.03601" lon="5.5699">
        <ele>1563</ele>
        <time>2019-07-14T13:16:51Z</time>
      </trkpt>
      <trkpt lat="45.03602" lon="5.56989">
        <ele>1563</ele>
        <time>2019-07-14T13:17:19Z</time>
      </trkpt>
      <trkpt lat="45.03603" lon="5.56989">
        <ele>1563</ele>
        <time>2019-07-14T13:17:20Z</time>
      </trkpt>
      <trkpt lat="45.03608" lon="5.56989">
        <ele>1562</ele>
        <time>2019-07-14T13:17:22Z</time>
      </trkpt>
      <trkpt lat="45.0361" lon="5.5699">
        <ele>1562</ele>
        <time>2019-07-14T13:17:23Z</time>
      </trkpt>
      <trkpt lat="45.03613" lon="5.5699">
        <ele>1561</ele>
        <time>2019-07-14T13:17:24Z</time>
      </trkpt>
      <trkpt lat="45.03617" lon="5.56992">
        <ele>1561</ele>
        <time>2019-07-14T13:17:25Z</time>
      </trkpt>
      <trkpt lat="45.0362" lon="5.56994">
        <ele>1560</ele>
        <time>2019-07-14T13:17:26Z</time>
      </trkpt>
      <trkpt lat="45.03624" lon="5.56996">
        <ele>1560</ele>
        <time>2019-07-14T13:17:27Z</time>
      </trkpt>
      <trkpt lat="45.03627" lon="5.56998">
        <ele>1560</ele>
        <time>2019-07-14T13:17:28Z</time>
      </trkpt>
      <trkpt lat="45.03631" lon="5.56999">
        <ele>1559</ele>
        <time>2019-07-14T13:17:29Z</time>
      </trkpt>
      <trkpt lat="45.03634" lon="5.57">
        <ele>1559</ele>
        <time>2019-07-14T13:17:30Z</time>
      </trkpt>
      <trkpt lat="45.03637" lon="5.57">
        <ele>1559</ele>
        <time>2019-07-14T13:17:31Z</time>
      </trkpt>
      <trkpt lat="45.03639" lon="5.57">
        <ele>1558</ele>
        <time>2019-07-14T13:17:33Z</time>
      </trkpt>
      <trkpt lat="45.03674" lon="5.5697">
        <ele>1548</ele>
        <time>2019-07-14T13:21:54Z</time>
      </trkpt>
      <trkpt lat="45.03678" lon="5.56973">
        <ele>1548</ele>
        <time>2019-07-14T13:21:55Z</time>
      </trkpt>
      <trkpt lat="45.03682" lon="5.56979">
        <ele>1548</ele>
        <time>2019-07-14T13:21:56Z</time>
      </trkpt>
      <trkpt lat="45.03685" lon="5.56985">
        <ele>1548</ele>
        <time>2019-07-14T13:21:57Z</time>
      </trkpt>
      <trkpt lat="45.0369" lon="5.56987">
        <ele>1547</ele>
        <time>2019-07-14T13:21:58Z</time>
      </trkpt>
      <trkpt lat="45.03693" lon="5.56983">
        <ele>1547</ele>
        <time>2019-07-14T13:21:59Z</time>
      </trkpt>
      <trkpt lat="45.03694" lon="5.56976">
        <ele>1546</ele>
        <time>2019-07-14T13:22:00Z</time>
      </trkpt>
      <trkpt lat="45.03695" lon="5.56967">
        <ele>1545</ele>
        <time>2019-07-14T13:22:01Z</time>
      </trkpt>
      <trkpt lat="45.03696" lon="5.56958">
        <ele>1545</ele>
        <time>2019-07-14T13:22:02Z</time>
      </trkpt>
      <trkpt lat="45.03698" lon="5.5695">
        <ele>1544</ele>
        <time>2019-07-14T13:22:03Z</time>
      </trkpt>
      <trkpt lat="45.03699" lon="5.56942">
        <ele>1544</ele>
        <time>2019-07-14T13:22:04Z</time>
      </trkpt>
      <trkpt lat="45.03699" lon="5.56933">
        <ele>1544</ele>
        <time>2019-07-14T13:22:05Z</time>
      </trkpt>
      <trkpt lat="45.03698" lon="5.56925">
        <ele>1544</ele>
        <time>2019-07-14T13:22:06Z</time>
      </trkpt>
      <trkpt lat="45.03701" lon="5.56915">
        <ele>1538</ele>
        <time>2019-07-14T13:22:08Z</time>
      </trkpt>
      <trkpt lat="45.03705" lon="5.56916">
        <ele>1538</ele>
        <time>2019-07-14T13:22:09Z</time>
      </trkpt>
      <trkpt lat="45.03709" lon="5.56919">
        <ele>1543</ele>
        <time>2019-07-14T13:22:10Z</time>
      </trkpt>
      <trkpt lat="45.03713" lon="5.56919">
        <ele>1542</ele>
        <time>2019-07-14T13:22:11Z</time>
      </trkpt>
      <trkpt lat="45.03717" lon="5.56916">
        <ele>1536</ele>
        <time>2019-07-14T13:22:12Z</time>
      </trkpt>
      <trkpt lat="45.03717" lon="5.56911">
        <ele>1536</ele>
        <time>2019-07-14T13:22:13Z</time>
      </trkpt>
      <trkpt lat="45.03715" lon="5.56905">
        <ele>1536</ele>
        <time>2019-07-14T13:22:14Z</time>
      </trkpt>
      <trkpt lat="45.03714" lon="5.569">
        <ele>1536</ele>
        <time>2019-07-14T13:22:15Z</time>
      </trkpt>
      <trkpt lat="45.03713" lon="5.56894">
        <ele>1536</ele>
        <time>2019-07-14T13:22:16Z</time>
      </trkpt>
      <trkpt lat="45.03716" lon="5.56892">
        <ele>1535</ele>
        <time>2019-07-14T13:22:17Z</time>
      </trkpt>
      <trkpt lat="45.03721" lon="5.56894">
        <ele>1535</ele>
        <time>2019-07-14T13:22:18Z</time>
      </trkpt>
      <trkpt lat="45.03725" lon="5.56897">
        <ele>1535</ele>
        <time>2019-07-14T13:22:19Z</time>
      </trkpt>
      <trkpt lat="45.03728" lon="5.56898">
        <ele>1535</ele>
        <time>2019-07-14T13:22:20Z</time>
      </trkpt>
      <trkpt lat="45.0373" lon="5.56895">
        <ele>1534</ele>
        <time>2019-07-14T13:22:21Z</time>
      </trkpt>
      <trkpt lat="45.0373" lon="5.5689">
        <ele>1534</ele>
        <time>2019-07-14T13:22:22Z</time>
      </trkpt>
      <trkpt lat="45.03727" lon="5.56886">
        <ele>1534</ele>
        <time>2019-07-14T13:22:23Z</time>
      </trkpt>
      <trkpt lat="45.03725" lon="5.56883">
        <ele>1534</ele>
        <time>2019-07-14T13:22:24Z</time>
      </trkpt>
      <trkpt lat="45.03722" lon="5.56879">
        <ele>1534</ele>
        <time>2019-07-14T13:22:25Z</time>
      </trkpt>
      <trkpt lat="45.03719" lon="5.56875">
        <ele>1534</ele>
        <time>2019-07-14T13:22:26Z</time>
      </trkpt>
      <trkpt lat="45.03717" lon="5.56872">
        <ele>1534</ele>
        <time>2019-07-14T13:22:27Z</time>
      </trkpt>
      <trkpt lat="45.03715" lon="5.56868">
        <ele>1534</ele>
        <time>2019-07-14T13:22:28Z</time>
      </trkpt>
      <trkpt lat="45.03712" lon="5.56866">
        <ele>1534</ele>
        <time>2019-07-14T13:22:29Z</time>
      </trkpt>
      <trkpt lat="45.03709" lon="5.56864">
        <ele>1534</ele>
        <time>2019-07-14T13:22:30Z</time>
      </trkpt>
      <trkpt lat="45.03707" lon="5.56863">
        <ele>1534</ele>
        <time>2019-07-14T13:22:31Z</time>
      </trkpt>
      <trkpt lat="45.03705" lon="5.5686">
        <ele>1534</ele>
        <time>2019-07-14T13:22:32Z</time>
      </trkpt>
      <trkpt lat="45.03703" lon="5.56857">
        <ele>1534</ele>
        <time>2019-07-14T13:22:33Z</time>
      </trkpt>
      <trkpt lat="45.037" lon="5.56854">
        <ele>1534</ele>
        <time>2019-07-14T13:22:34Z</time>
      </trkpt>
      <trkpt lat="45.03695" lon="5.56852">
        <ele>1534</ele>
        <time>2019-07-14T13:22:35Z</time>
      </trkpt>
      <trkpt lat="45.03692" lon="5.56849">
        <ele>1534</ele>
        <time>2019-07-14T13:22:36Z</time>
      </trkpt>
      <trkpt lat="45.03688" lon="5.56847">
        <ele>1534</ele>
        <time>2019-07-14T13:22:37Z</time>
      </trkpt>
      <trkpt lat="45.03688" lon="5.56844">
        <ele>1534</ele>
        <time>2019-07-14T13:22:38Z</time>
      </trkpt>
      <trkpt lat="45.0369" lon="5.56842">
        <ele>1534</ele>
        <time>2019-07-14T13:22:39Z</time>
      </trkpt>
      <trkpt lat="45.03694" lon="5.56839">
        <ele>1534</ele>
        <time>2019-07-14T13:22:40Z</time>
      </trkpt>
      <trkpt lat="45.03698" lon="5.56836">
        <ele>1534</ele>
        <time>2019-07-14T13:22:41Z</time>
      </trkpt>
      <trkpt lat="45.03704" lon="5.56833">
        <ele>1525</ele>
        <time>2019-07-14T13:22:42Z</time>
      </trkpt>
      <trkpt lat="45.03709" lon="5.56831">
        <ele>1525</ele>
        <time>2019-07-14T13:22:43Z</time>
      </trkpt>
      <trkpt lat="45.03714" lon="5.56831">
        <ele>1524</ele>
        <time>2019-07-14T13:22:44Z</time>
      </trkpt>
      <trkpt lat="45.03719" lon="5.5683">
        <ele>1524</ele>
        <time>2019-07-14T13:22:45Z</time>
      </trkpt>
      <trkpt lat="45.03724" lon="5.56831">
        <ele>1524</ele>
        <time>2019-07-14T13:22:46Z</time>
      </trkpt>
      <trkpt lat="45.03729" lon="5.56831">
        <ele>1523</ele>
        <time>2019-07-14T13:22:47Z</time>
      </trkpt>
      <trkpt lat="45.03731" lon="5.56827">
        <ele>1523</ele>
        <time>2019-07-14T13:22:48Z</time>
      </trkpt>
      <trkpt lat="45.03733" lon="5.56818">
        <ele>1523</ele>
        <time>2019-07-14T13:22:50Z</time>
      </trkpt>
      <trkpt lat="45.03736" lon="5.56816">
        <ele>1523</ele>
        <time>2019-07-14T13:22:51Z</time>
      </trkpt>
      <trkpt lat="45.03741" lon="5.56817">
        <ele>1523</ele>
        <time>2019-07-14T13:22:52Z</time>
      </trkpt>
      <trkpt lat="45.03745" lon="5.56817">
        <ele>1523</ele>
        <time>2019-07-14T13:22:53Z</time>
      </trkpt>
      <trkpt lat="45.03748" lon="5.56818">
        <ele>1523</ele>
        <time>2019-07-14T13:22:54Z</time>
      </trkpt>
      <trkpt lat="45.03753" lon="5.56818">
        <ele>1517</ele>
        <time>2019-07-14T13:22:55Z</time>
      </trkpt>
      <trkpt lat="45.03758" lon="5.56817">
        <ele>1517</ele>
        <time>2019-07-14T13:22:56Z</time>
      </trkpt>
      <trkpt lat="45.03763" lon="5.56818">
        <ele>1516</ele>
        <time>2019-07-14T13:22:57Z</time>
      </trkpt>
      <trkpt lat="45.03769" lon="5.56817">
        <ele>1515</ele>
        <time>2019-07-14T13:22:58Z</time>
      </trkpt>
      <trkpt lat="45.03775" lon="5.56818">
        <ele>1514</ele>
        <time>2019-07-14T13:22:59Z</time>
      </trkpt>
      <trkpt lat="45.0378" lon="5.5682">
        <ele>1513</ele>
        <time>2019-07-14T13:23:00Z</time>
      </trkpt>
      <trkpt lat="45.03785" lon="5.56822">
        <ele>1512</ele>
        <time>2019-07-14T13:23:01Z</time>
      </trkpt>
      <trkpt lat="45.03788" lon="5.56823">
        <ele>1512</ele>
        <time>2019-07-14T13:23:02Z</time>
      </trkpt>
      <trkpt lat="45.0379" lon="5.5682">
        <ele>1512</ele>
        <time>2019-07-14T13:23:03Z</time>
      </trkpt>
      <trkpt lat="45.03788" lon="5.56815">
        <ele>1511</ele>
        <time>2019-07-14T13:23:04Z</time>
      </trkpt>
      <trkpt lat="45.03786" lon="5.5681">
        <ele>1511</ele>
        <time>2019-07-14T13:23:05Z</time>
      </trkpt>
      <trkpt lat="45.03783" lon="5.56805">
        <ele>1511</ele>
        <time>2019-07-14T13:23:06Z</time>
      </trkpt>
      <trkpt lat="45.03782" lon="5.56801">
        <ele>1511</ele>
        <time>2019-07-14T13:23:07Z</time>
      </trkpt>
      <trkpt lat="45.03784" lon="5.56799">
        <ele>1511</ele>
        <time>2019-07-14T13:23:08Z</time>
      </trkpt>
      <trkpt lat="45.0379" lon="5.56799">
        <ele>1510</ele>
        <time>2019-07-14T13:23:09Z</time>
      </trkpt>
      <trkpt lat="45.03795" lon="5.568">
        <ele>1510</ele>
        <time>2019-07-14T13:23:10Z</time>
      </trkpt>
      <trkpt lat="45.03801" lon="5.56801">
        <ele>1509</ele>
        <time>2019-07-14T13:23:11Z</time>
      </trkpt>
      <trkpt lat="45.03806" lon="5.56803">
        <ele>1509</ele>
        <time>2019-07-14T13:23:12Z</time>
      </trkpt>
      <trkpt lat="45.0381" lon="5.56806">
        <ele>1509</ele>
        <time>2019-07-14T13:23:13Z</time>
      </trkpt>
      <trkpt lat="45.03815" lon="5.56801">
        <ele>1508</ele>
        <time>2019-07-14T13:23:15Z</time>
      </trkpt>
      <trkpt lat="45.03814" lon="5.56794">
        <ele>1507</ele>
        <time>2019-07-14T13:23:16Z</time>
      </trkpt>
      <trkpt lat="45.03812" lon="5.56787">
        <ele>1507</ele>
        <time>2019-07-14T13:23:17Z</time>
      </trkpt>
      <trkpt lat="45.03811" lon="5.5678">
        <ele>1506</ele>
        <time>2019-07-14T13:23:18Z</time>
      </trkpt>
      <trkpt lat="45.03809" lon="5.56774">
        <ele>1506</ele>
        <time>2019-07-14T13:23:19Z</time>
      </trkpt>
      <trkpt lat="45.03807" lon="5.56769">
        <ele>1505</ele>
        <time>2019-07-14T13:23:20Z</time>
      </trkpt>
      <trkpt lat="45.03804" lon="5.56766">
        <ele>1506</ele>
        <time>2019-07-14T13:23:21Z</time>
      </trkpt>
      <trkpt lat="45.03802" lon="5.56764">
        <ele>1506</ele>
        <time>2019-07-14T13:23:22Z</time>
      </trkpt>
      <trkpt lat="45.03804" lon="5.56762">
        <ele>1505</ele>
        <time>2019-07-14T13:23:23Z</time>
      </trkpt>
      <trkpt lat="45.03809" lon="5.56762">
        <ele>1504</ele>
        <time>2019-07-14T13:23:24Z</time>
      </trkpt>
      <trkpt lat="45.03814" lon="5.56762">
        <ele>1503</ele>
        <time>2019-07-14T13:23:25Z</time>
      </trkpt>
      <trkpt lat="45.0382" lon="5.56762">
        <ele>1502</ele>
        <time>2019-07-14T13:23:26Z</time>
      </trkpt>
      <trkpt lat="45.03826" lon="5.56763">
        <ele>1501</ele>
        <time>2019-07-14T13:23:27Z</time>
      </trkpt>
      <trkpt lat="45.03832" lon="5.56766">
        <ele>1501</ele>
        <time>2019-07-14T13:23:28Z</time>
      </trkpt>
      <trkpt lat="45.03837" lon="5.56769">
        <ele>1494</ele>
        <time>2019-07-14T13:23:29Z</time>
      </trkpt>
      <trkpt lat="45.03842" lon="5.56773">
        <ele>1494</ele>
        <time>2019-07-14T13:23:30Z</time>
      </trkpt>
      <trkpt lat="45.03847" lon="5.56777">
        <ele>1494</ele>
        <time>2019-07-14T13:23:31Z</time>
      </trkpt>
      <trkpt lat="45.03851" lon="5.56781">
        <ele>1494</ele>
        <time>2019-07-14T13:23:32Z</time>
      </trkpt>
      <trkpt lat="45.03854" lon="5.56783">
        <ele>1494</ele>
        <time>2019-07-14T13:23:33Z</time>
      </trkpt>
      <trkpt lat="45.03858" lon="5.56786">
        <ele>1494</ele>
        <time>2019-07-14T13:23:34Z</time>
      </trkpt>
      <trkpt lat="45.03861" lon="5.56785">
        <ele>1494</ele>
        <time>2019-07-14T13:23:35Z</time>
      </trkpt>
      <trkpt lat="45.0386" lon="5.56782">
        <ele>1493</ele>
        <time>2019-07-14T13:23:36Z</time>
      </trkpt>
      <trkpt lat="45.03858" lon="5.56777">
        <ele>1493</ele>
        <time>2019-07-14T13:23:37Z</time>
      </trkpt>
      <trkpt lat="45.03856" lon="5.56773">
        <ele>1493</ele>
        <time>2019-07-14T13:23:38Z</time>
      </trkpt>
      <trkpt lat="45.03854" lon="5.56771">
        <ele>1493</ele>
        <time>2019-07-14T13:23:39Z</time>
      </trkpt>
      <trkpt lat="45.03854" lon="5.5677">
        <ele>1493</ele>
        <time>2019-07-14T13:23:40Z</time>
      </trkpt>
      <trkpt lat="45.03854" lon="5.56771">
        <ele>1493</ele>
        <time>2019-07-14T13:23:42Z</time>
      </trkpt>
      <trkpt lat="45.03852" lon="5.56765">
        <ele>1493</ele>
        <time>2019-07-14T13:23:54Z</time>
      </trkpt>
      <trkpt lat="45.03851" lon="5.56761">
        <ele>1493</ele>
        <time>2019-07-14T13:23:55Z</time>
      </trkpt>
      <trkpt lat="45.03848" lon="5.56754">
        <ele>1493</ele>
        <time>2019-07-14T13:23:56Z</time>
      </trkpt>
      <trkpt lat="45.03846" lon="5.56749">
        <ele>1488</ele>
        <time>2019-07-14T13:23:57Z</time>
      </trkpt>
      <trkpt lat="45.03846" lon="5.56745">
        <ele>1488</ele>
        <time>2019-07-14T13:23:58Z</time>
      </trkpt>
      <trkpt lat="45.03847" lon="5.56743">
        <ele>1487</ele>
        <time>2019-07-14T13:23:59Z</time>
      </trkpt>
      <trkpt lat="45.03849" lon="5.56742">
        <ele>1486</ele>
        <time>2019-07-14T13:24:00Z</time>
      </trkpt>
      <trkpt lat="45.03851" lon="5.5674">
        <ele>1486</ele>
        <time>2019-07-14T13:24:01Z</time>
      </trkpt>
      <trkpt lat="45.03854" lon="5.56736">
        <ele>1484</ele>
        <time>2019-07-14T13:24:02Z</time>
      </trkpt>
      <trkpt lat="45.03856" lon="5.56734">
        <ele>1484</ele>
        <time>2019-07-14T13:24:03Z</time>
      </trkpt>
      <trkpt lat="45.03859" lon="5.56733">
        <ele>1483</ele>
        <time>2019-07-14T13:24:04Z</time>
      </trkpt>
      <trkpt lat="45.03862" lon="5.56733">
        <ele>1483</ele>
        <time>2019-07-14T13:24:05Z</time>
      </trkpt>
      <trkpt lat="45.03866" lon="5.56734">
        <ele>1482</ele>
        <time>2019-07-14T13:24:06Z</time>
      </trkpt>
      <trkpt lat="45.0387" lon="5.56735">
        <ele>1482</ele>
        <time>2019-07-14T13:24:07Z</time>
      </trkpt>
      <trkpt lat="45.03876" lon="5.56735">
        <ele>1481</ele>
        <time>2019-07-14T13:24:08Z</time>
      </trkpt>
      <trkpt lat="45.03881" lon="5.56736">
        <ele>1481</ele>
        <time>2019-07-14T13:24:09Z</time>
      </trkpt>
      <trkpt lat="45.03886" lon="5.56736">
        <ele>1480</ele>
        <time>2019-07-14T13:24:10Z</time>
      </trkpt>
      <trkpt lat="45.03889" lon="5.56734">
        <ele>1480</ele>
        <time>2019-07-14T13:24:11Z</time>
      </trkpt>
      <trkpt lat="45.0389" lon="5.56731">
        <ele>1479</ele>
        <time>2019-07-14T13:24:12Z</time>
      </trkpt>
      <trkpt lat="45.03889" lon="5.56729">
        <ele>1479</ele>
        <time>2019-07-14T13:24:13Z</time>
      </trkpt>
      <trkpt lat="45.03888" lon="5.56727">
        <ele>1479</ele>
        <time>2019-07-14T13:24:14Z</time>
      </trkpt>
      <trkpt lat="45.03887" lon="5.56726">
        <ele>1479</ele>
        <time>2019-07-14T13:24:15Z</time>
      </trkpt>
      <trkpt lat="45.03888" lon="5.56726">
        <ele>1479</ele>
        <time>2019-07-14T13:24:16Z</time>
      </trkpt>
      <trkpt lat="45.03885" lon="5.56721">
        <ele>1479</ele>
        <time>2019-07-14T13:24:22Z</time>
      </trkpt>
      <trkpt lat="45.03883" lon="5.56718">
        <ele>1479</ele>
        <time>2019-07-14T13:24:23Z</time>
      </trkpt>
      <trkpt lat="45.03882" lon="5.56715">
        <ele>1479</ele>
        <time>2019-07-14T13:24:24Z</time>
      </trkpt>
      <trkpt lat="45.03882" lon="5.56713">
        <ele>1479</ele>
        <time>2019-07-14T13:24:25Z</time>
      </trkpt>
      <trkpt lat="45.03884" lon="5.56712">
        <ele>1479</ele>
        <time>2019-07-14T13:24:26Z</time>
      </trkpt>
      <trkpt lat="45.03886" lon="5.5671">
        <ele>1478</ele>
        <time>2019-07-14T13:24:27Z</time>
      </trkpt>
      <trkpt lat="45.03885" lon="5.56705">
        <ele>1478</ele>
        <time>2019-07-14T13:24:29Z</time>
      </trkpt>
      <trkpt lat="45.03886" lon="5.56701">
        <ele>1477</ele>
        <time>2019-07-14T13:24:30Z</time>
      </trkpt>
      <trkpt lat="45.03888" lon="5.56698">
        <ele>1477</ele>
        <time>2019-07-14T13:24:31Z</time>
      </trkpt>
      <trkpt lat="45.03891" lon="5.56697">
        <ele>1476</ele>
        <time>2019-07-14T13:24:32Z</time>
      </trkpt>
      <trkpt lat="45.03894" lon="5.56697">
        <ele>1476</ele>
        <time>2019-07-14T13:24:33Z</time>
      </trkpt>
      <trkpt lat="45.03898" lon="5.56697">
        <ele>1476</ele>
        <time>2019-07-14T13:24:34Z</time>
      </trkpt>
      <trkpt lat="45.03903" lon="5.56696">
        <ele>1475</ele>
        <time>2019-07-14T13:24:35Z</time>
      </trkpt>
      <trkpt lat="45.03909" lon="5.56696">
        <ele>1474</ele>
        <time>2019-07-14T13:24:36Z</time>
      </trkpt>
      <trkpt lat="45.03924" lon="5.56696">
        <ele>1464</ele>
        <time>2019-07-14T13:24:38Z</time>
      </trkpt>
      <trkpt lat="45.03931" lon="5.56697">
        <ele>1463</ele>
        <time>2019-07-14T13:24:39Z</time>
      </trkpt>
      <trkpt lat="45.03938" lon="5.56698">
        <ele>1463</ele>
        <time>2019-07-14T13:24:40Z</time>
      </trkpt>
      <trkpt lat="45.03944" lon="5.567">
        <ele>1463</ele>
        <time>2019-07-14T13:24:41Z</time>
      </trkpt>
      <trkpt lat="45.03951" lon="5.56702">
        <ele>1462</ele>
        <time>2019-07-14T13:24:42Z</time>
      </trkpt>
      <trkpt lat="45.03956" lon="5.56704">
        <ele>1462</ele>
        <time>2019-07-14T13:24:43Z</time>
      </trkpt>
      <trkpt lat="45.03961" lon="5.56705">
        <ele>1461</ele>
        <time>2019-07-14T13:24:44Z</time>
      </trkpt>
      <trkpt lat="45.03964" lon="5.56707">
        <ele>1461</ele>
        <time>2019-07-14T13:24:45Z</time>
      </trkpt>
      <trkpt lat="45.03965" lon="5.56707">
        <ele>1461</ele>
        <time>2019-07-14T13:24:46Z</time>
      </trkpt>
      <trkpt lat="45.03965" lon="5.56707">
        <ele>1461</ele>
        <time>2019-07-14T13:24:47Z</time>
      </trkpt>
      <trkpt lat="45.03968" lon="5.56706">
        <ele>1460</ele>
        <time>2019-07-14T13:24:52Z</time>
      </trkpt>
      <trkpt lat="45.03992" lon="5.56734">
        <ele>1458.7</ele>
      </trkpt>
      <trkpt lat="45.04028" lon="5.56751">
        <ele>1452.6</ele>
      </trkpt>
      <trkpt lat="45.04035" lon="5.56759">
        <ele>1627.4</ele>
        <time>2019-08-17T11:20:13Z</time>
      </trkpt>
      <trkpt lat="45.04039" lon="5.56766">
        <ele>1630.6</ele>
        <time>2019-08-17T11:20:39Z</time>
      </trkpt>
      <trkpt lat="45.04044" lon="5.56778">
        <ele>1631.2</ele>
        <time>2019-08-17T11:20:45Z</time>
      </trkpt>
      <trkpt lat="45.04049" lon="5.56783">
        <ele>1631.4</ele>
        <time>2019-08-17T11:20:47Z</time>
      </trkpt>
      <trkpt lat="45.0407" lon="5.56796">
        <ele>1632.4</ele>
        <time>2019-08-17T11:20:53Z</time>
      </trkpt>
      <trkpt lat="45.04075" lon="5.56801">
        <ele>1632.8</ele>
        <time>2019-08-17T11:20:55Z</time>
      </trkpt>
      <trkpt lat="45.04085" lon="5.56817">
        <ele>1633.6</ele>
        <time>2019-08-17T11:20:59Z</time>
      </trkpt>
      <trkpt lat="45.04086" lon="5.56822">
        <ele>1633.8</ele>
        <time>2019-08-17T11:21:00Z</time>
      </trkpt>
      <trkpt lat="45.04087" lon="5.56845">
        <ele>1635.6</ele>
        <time>2019-08-17T11:21:07Z</time>
      </trkpt>
      <trkpt lat="45.04089" lon="5.5685">
        <ele>1633</ele>
        <time>2019-08-17T11:22:09Z</time>
      </trkpt>
      <trkpt lat="45.04095" lon="5.56859">
        <ele>1633</ele>
        <time>2019-08-17T11:22:11Z</time>
      </trkpt>
      <trkpt lat="45.0411" lon="5.56876">
        <ele>1632.4</ele>
        <time>2019-08-17T11:22:15Z</time>
      </trkpt>
      <trkpt lat="45.04122" lon="5.56888">
        <ele>1631.8</ele>
        <time>2019-08-17T11:23:04Z</time>
      </trkpt>
      <trkpt lat="45.04129" lon="5.56893">
        <ele>1631.4</ele>
        <time>2019-08-17T11:23:07Z</time>
      </trkpt>
      <trkpt lat="45.04139" lon="5.56897">
        <ele>1631.2</ele>
        <time>2019-08-17T11:23:10Z</time>
      </trkpt>
      <trkpt lat="45.04144" lon="5.56897">
        <ele>1631</ele>
        <time>2019-08-17T11:23:11Z</time>
      </trkpt>
      <trkpt lat="45.04173" lon="5.56896">
        <ele>1631.4</ele>
        <time>2019-08-17T11:23:16Z</time>
      </trkpt>
      <trkpt lat="45.0419" lon="5.56893">
        <ele>1631.8</ele>
        <time>2019-08-17T11:23:19Z</time>
      </trkpt>
      <trkpt lat="45.04196" lon="5.5689">
        <ele>1631.8</ele>
        <time>2019-08-17T11:23:20Z</time>
      </trkpt>
      <trkpt lat="45.04213" lon="5.56876">
        <ele>1632</ele>
        <time>2019-08-17T11:23:24Z</time>
      </trkpt>
      <trkpt lat="45.04218" lon="5.56874">
        <ele>1632</ele>
        <time>2019-08-17T11:23:25Z</time>
      </trkpt>
      <trkpt lat="45.04237" lon="5.56873">
        <ele>1632.2</ele>
        <time>2019-08-17T11:23:29Z</time>
      </trkpt>
      <trkpt lat="45.0424" lon="5.56867">
        <ele>1632.4</ele>
        <time>2019-08-17T11:23:31Z</time>
      </trkpt>
      <trkpt lat="45.04236" lon="5.56857">
        <ele>1634</ele>
        <time>2019-08-17T11:24:25Z</time>
      </trkpt>
      <trkpt lat="45.04242" lon="5.56852">
        <ele>1633.6</ele>
        <time>2019-08-17T11:24:27Z</time>
      </trkpt>
      <trkpt lat="45.04248" lon="5.5685">
        <ele>1633.4</ele>
        <time>2019-08-17T11:24:29Z</time>
      </trkpt>
      <trkpt lat="45.04253" lon="5.56844">
        <ele>1633.2</ele>
        <time>2019-08-17T11:24:31Z</time>
      </trkpt>
      <trkpt lat="45.04261" lon="5.56839">
        <ele>1632.8</ele>
        <time>2019-08-17T11:24:34Z</time>
      </trkpt>
      <trkpt lat="45.04265" lon="5.56837">
        <ele>1632.8</ele>
        <time>2019-08-17T11:24:35Z</time>
      </trkpt>
      <trkpt lat="45.04281" lon="5.56836">
        <ele>1632.6</ele>
        <time>2019-08-17T11:24:39Z</time>
      </trkpt>
      <trkpt lat="45.04288" lon="5.56827">
        <ele>1632.4</ele>
        <time>2019-08-17T11:24:42Z</time>
      </trkpt>
      <trkpt lat="45.04294" lon="5.56825">
        <ele>1632.2</ele>
        <time>2019-08-17T11:24:44Z</time>
      </trkpt>
      <trkpt lat="45.04299" lon="5.56822">
        <ele>1632.2</ele>
        <time>2019-08-17T11:24:45Z</time>
      </trkpt>
      <trkpt lat="45.0431" lon="5.56812">
        <ele>1631.8</ele>
        <time>2019-08-17T11:24:49Z</time>
      </trkpt>
      <trkpt lat="45.04316" lon="5.5681">
        <ele>1631.4</ele>
        <time>2019-08-17T11:24:51Z</time>
      </trkpt>
      <trkpt lat="45.04317" lon="5.56805">
        <ele>1631</ele>
        <time>2019-08-17T11:24:54Z</time>
      </trkpt>
      <trkpt lat="45.0431" lon="5.56799">
        <ele>1630.6</ele>
        <time>2019-08-17T11:24:57Z</time>
      </trkpt>
      <trkpt lat="45.0429" lon="5.5677">
        <ele>1629.2</ele>
        <time>2019-08-17T11:25:02Z</time>
      </trkpt>
      <trkpt lat="45.04272" lon="5.56757">
        <ele>1628</ele>
        <time>2019-08-17T11:25:05Z</time>
      </trkpt>
      <trkpt lat="45.04246" lon="5.56732">
        <ele>1626.4</ele>
        <time>2019-08-17T11:25:11Z</time>
      </trkpt>
      <trkpt lat="45.04252" lon="5.56725">
        <ele>1624.4</ele>
        <time>2019-08-17T11:25:16Z</time>
      </trkpt>
      <trkpt lat="45.04277" lon="5.56728">
        <ele>1623.2</ele>
        <time>2019-08-17T11:25:22Z</time>
      </trkpt>
      <trkpt lat="45.04281" lon="5.56725">
        <ele>1622.6</ele>
        <time>2019-08-17T11:25:25Z</time>
      </trkpt>
      <trkpt lat="45.04276" lon="5.56709">
        <ele>1621.4</ele>
        <time>2019-08-17T11:25:30Z</time>
      </trkpt>
      <trkpt lat="45.04272" lon="5.56702">
        <ele>1620.8</ele>
        <time>2019-08-17T11:25:32Z</time>
      </trkpt>
      <trkpt lat="45.04264" lon="5.56696">
        <ele>1620.2</ele>
        <time>2019-08-17T11:25:35Z</time>
      </trkpt>
      <trkpt lat="45.04269" lon="5.56686">
        <ele>1619</ele>
        <time>2019-08-17T11:25:39Z</time>
      </trkpt>
      <trkpt lat="45.04287" lon="5.56685">
        <ele>1618.2</ele>
        <time>2019-08-17T11:25:43Z</time>
      </trkpt>
      <trkpt lat="45.04304" lon="5.56679">
        <ele>1617</ele>
        <time>2019-08-17T11:25:48Z</time>
      </trkpt>
      <trkpt lat="45.04312" lon="5.56678">
        <ele>1616</ele>
        <time>2019-08-17T11:25:52Z</time>
      </trkpt>
      <trkpt lat="45.0431" lon="5.56673">
        <ele>1615.4</ele>
        <time>2019-08-17T11:25:55Z</time>
      </trkpt>
      <trkpt lat="45.04303" lon="5.5667">
        <ele>1614.8</ele>
        <time>2019-08-17T11:25:58Z</time>
      </trkpt>
      <trkpt lat="45.04297" lon="5.56664">
        <ele>1614.2</ele>
        <time>2019-08-17T11:26:02Z</time>
      </trkpt>
      <trkpt lat="45.04292" lon="5.56654">
        <ele>1611</ele>
        <time>2019-08-17T11:26:25Z</time>
      </trkpt>
      <trkpt lat="45.04299" lon="5.56651">
        <ele>1609.8</ele>
        <time>2019-08-17T11:26:29Z</time>
      </trkpt>
      <trkpt lat="45.04305" lon="5.56653">
        <ele>1609.4</ele>
        <time>2019-08-17T11:26:31Z</time>
      </trkpt>
      <trkpt lat="45.04313" lon="5.5665">
        <ele>1608.6</ele>
        <time>2019-08-17T11:26:34Z</time>
      </trkpt>
      <trkpt lat="45.04319" lon="5.56646">
        <ele>1607.6</ele>
        <time>2019-08-17T11:26:38Z</time>
      </trkpt>
      <trkpt lat="45.04323" lon="5.56638">
        <ele>1606.8</ele>
        <time>2019-08-17T11:26:41Z</time>
      </trkpt>
      <trkpt lat="45.04326" lon="5.56629">
        <ele>1606.2</ele>
        <time>2019-08-17T11:26:44Z</time>
      </trkpt>
      <trkpt lat="45.04324" lon="5.56622">
        <ele>1605.4</ele>
        <time>2019-08-17T11:26:47Z</time>
      </trkpt>
      <trkpt lat="45.04318" lon="5.56612">
        <ele>1604.8</ele>
        <time>2019-08-17T11:26:50Z</time>
      </trkpt>
      <trkpt lat="45.04316" lon="5.56605">
        <ele>1604.2</ele>
        <time>2019-08-17T11:26:52Z</time>
      </trkpt>
      <trkpt lat="45.04317" lon="5.56597">
        <ele>1603.8</ele>
        <time>2019-08-17T11:26:54Z</time>
      </trkpt>
      <trkpt lat="45.0432" lon="5.5659">
        <ele>1603.2</ele>
        <time>2019-08-17T11:26:56Z</time>
      </trkpt>
      <trkpt lat="45.04326" lon="5.56588">
        <ele>1602.6</ele>
        <time>2019-08-17T11:26:58Z</time>
      </trkpt>
      <trkpt lat="45.0435" lon="5.56595">
        <ele>1601.2</ele>
        <time>2019-08-17T11:27:05Z</time>
      </trkpt>
      <trkpt lat="45.04354" lon="5.56595">
        <ele>1600.6</ele>
        <time>2019-08-17T11:27:07Z</time>
      </trkpt>
      <trkpt lat="45.04362" lon="5.56589">
        <ele>1597.6</ele>
        <time>2019-08-17T11:27:23Z</time>
      </trkpt>
      <trkpt lat="45.04365" lon="5.56588">
        <ele>1597.6</ele>
        <time>2019-08-17T11:27:24Z</time>
      </trkpt>
      <trkpt lat="45.04376" lon="5.56587">
        <ele>1597</ele>
        <time>2019-08-17T11:27:27Z</time>
      </trkpt>
      <trkpt lat="45.04383" lon="5.56579">
        <ele>1596.2</ele>
        <time>2019-08-17T11:27:30Z</time>
      </trkpt>
      <trkpt lat="45.04371" lon="5.5657">
        <ele>1595.2</ele>
        <time>2019-08-17T11:27:34Z</time>
      </trkpt>
      <trkpt lat="45.04361" lon="5.56556">
        <ele>1594.4</ele>
        <time>2019-08-17T11:27:37Z</time>
      </trkpt>
      <trkpt lat="45.04357" lon="5.56552">
        <ele>1594.2</ele>
        <time>2019-08-17T11:27:38Z</time>
      </trkpt>
      <trkpt lat="45.04348" lon="5.56545">
        <ele>1593.8</ele>
        <time>2019-08-17T11:27:40Z</time>
      </trkpt>
      <trkpt lat="45.04347" lon="5.56538">
        <ele>1593</ele>
        <time>2019-08-17T11:27:43Z</time>
      </trkpt>
      <trkpt lat="45.04356" lon="5.56539">
        <ele>1592.4</ele>
        <time>2019-08-17T11:27:45Z</time>
      </trkpt>
      <trkpt lat="45.04365" lon="5.56537">
        <ele>1591.8</ele>
        <time>2019-08-17T11:27:47Z</time>
      </trkpt>
      <trkpt lat="45.04373" lon="5.56534">
        <ele>1591.2</ele>
        <time>2019-08-17T11:27:49Z</time>
      </trkpt>
      <trkpt lat="45.04395" lon="5.56533">
        <ele>1590</ele>
        <time>2019-08-17T11:27:53Z</time>
      </trkpt>
      <trkpt lat="45.04407" lon="5.56529">
        <ele>1589.6</ele>
        <time>2019-08-17T11:27:55Z</time>
      </trkpt>
      <trkpt lat="45.04415" lon="5.56523">
        <ele>1589</ele>
        <time>2019-08-17T11:27:57Z</time>
      </trkpt>
      <trkpt lat="45.0442" lon="5.56515">
        <ele>1588.4</ele>
        <time>2019-08-17T11:27:59Z</time>
      </trkpt>
      <trkpt lat="45.04419" lon="5.56508">
        <ele>1587.8</ele>
        <time>2019-08-17T11:28:01Z</time>
      </trkpt>
      <trkpt lat="45.04408" lon="5.56499">
        <ele>1587</ele>
        <time>2019-08-17T11:28:04Z</time>
      </trkpt>
      <trkpt lat="45.0439" lon="5.56476">
        <ele>1585.2</ele>
        <time>2019-08-17T11:28:09Z</time>
      </trkpt>
      <trkpt lat="45.04364" lon="5.56452">
        <ele>1583.4</ele>
        <time>2019-08-17T11:28:14Z</time>
      </trkpt>
      <trkpt lat="45.04361" lon="5.56448">
        <ele>1583</ele>
        <time>2019-08-17T11:28:15Z</time>
      </trkpt>
      <trkpt lat="45.0436" lon="5.56437">
        <ele>1582</ele>
        <time>2019-08-17T11:28:17Z</time>
      </trkpt>
      <trkpt lat="45.04366" lon="5.56436">
        <ele>1580.8</ele>
        <time>2019-08-17T11:28:19Z</time>
      </trkpt>
      <trkpt lat="45.04373" lon="5.56432">
        <ele>1579.6</ele>
        <time>2019-08-17T11:28:21Z</time>
      </trkpt>
      <trkpt lat="45.04376" lon="5.56431">
        <ele>1579</ele>
        <time>2019-08-17T11:28:22Z</time>
      </trkpt>
      <trkpt lat="45.04397" lon="5.56436">
        <ele>1576.4</ele>
        <time>2019-08-17T11:28:27Z</time>
      </trkpt>
      <trkpt lat="45.0441" lon="5.56435">
        <ele>1574.8</ele>
        <time>2019-08-17T11:28:30Z</time>
      </trkpt>
      <trkpt lat="45.04418" lon="5.56437">
        <ele>1573.8</ele>
        <time>2019-08-17T11:28:32Z</time>
      </trkpt>
      <trkpt lat="45.04423" lon="5.56432">
        <ele>1572.2</ele>
        <time>2019-08-17T11:28:35Z</time>
      </trkpt>
      <trkpt lat="45.04421" lon="5.56426">
        <ele>1571.2</ele>
        <time>2019-08-17T11:28:37Z</time>
      </trkpt>
      <trkpt lat="45.04412" lon="5.56412">
        <ele>1569.8</ele>
        <time>2019-08-17T11:28:40Z</time>
      </trkpt>
      <trkpt lat="45.04388" lon="5.56386">
        <ele>1566.8</ele>
        <time>2019-08-17T11:28:46Z</time>
      </trkpt>
      <trkpt lat="45.04394" lon="5.56379">
        <ele>1564.2</ele>
        <time>2019-08-17T11:28:50Z</time>
      </trkpt>
      <trkpt lat="45.04413" lon="5.56388">
        <ele>1560.4</ele>
        <time>2019-08-17T11:28:56Z</time>
      </trkpt>
      <trkpt lat="45.04416" lon="5.56391">
        <ele>1559.4</ele>
        <time>2019-08-17T11:28:58Z</time>
      </trkpt>
      <trkpt lat="45.04425" lon="5.56391">
        <ele>1550.2</ele>
        <time>2019-08-17T11:29:29Z</time>
      </trkpt>
      <trkpt lat="45.0444" lon="5.56396">
        <ele>1549.8</ele>
        <time>2019-08-17T11:29:32Z</time>
      </trkpt>
      <trkpt lat="45.04461" lon="5.56399">
        <ele>1548.4</ele>
        <time>2019-08-17T11:29:35Z</time>
      </trkpt>
      <trkpt lat="45.04472" lon="5.56398">
        <ele>1546.6</ele>
        <time>2019-08-17T11:29:38Z</time>
      </trkpt>
      <trkpt lat="45.04475" lon="5.56395">
        <ele>1540.4</ele>
        <time>2019-08-17T11:29:59Z</time>
      </trkpt>
      <trkpt lat="45.04469" lon="5.56389">
        <ele>1539.6</ele>
        <time>2019-08-17T11:30:02Z</time>
      </trkpt>
      <trkpt lat="45.04467" lon="5.56387">
        <ele>1539.4</ele>
        <time>2019-08-17T11:30:03Z</time>
      </trkpt>
      <trkpt lat="45.04462" lon="5.56374">
        <ele>1538</ele>
        <time>2019-08-17T11:30:06Z</time>
      </trkpt>
      <trkpt lat="45.0445" lon="5.56352">
        <ele>1536</ele>
        <time>2019-08-17T11:30:10Z</time>
      </trkpt>
      <trkpt lat="45.04447" lon="5.56341">
        <ele>1534.2</ele>
        <time>2019-08-17T11:30:13Z</time>
      </trkpt>
      <trkpt lat="45.04451" lon="5.56338">
        <ele>1532.4</ele>
        <time>2019-08-17T11:30:16Z</time>
      </trkpt>
      <trkpt lat="45.04456" lon="5.56332">
        <ele>1531.2</ele>
        <time>2019-08-17T11:30:18Z</time>
      </trkpt>
      <trkpt lat="45.04458" lon="5.56326">
        <ele>1530.6</ele>
        <time>2019-08-17T11:30:19Z</time>
      </trkpt>
      <trkpt lat="45.04456" lon="5.56319">
        <ele>1530</ele>
        <time>2019-08-17T11:30:20Z</time>
      </trkpt>
      <trkpt lat="45.04449" lon="5.56302">
        <ele>1528.4</ele>
        <time>2019-08-17T11:30:22Z</time>
      </trkpt>
      <trkpt lat="45.04445" lon="5.56296">
        <ele>1527.6</ele>
        <time>2019-08-17T11:30:23Z</time>
      </trkpt>
      <trkpt lat="45.04447" lon="5.56287">
        <ele>1524.6</ele>
        <time>2019-08-17T11:30:26Z</time>
      </trkpt>
      <trkpt lat="45.04456" lon="5.56296">
        <ele>1522.4</ele>
        <time>2019-08-17T11:30:28Z</time>
      </trkpt>
      <trkpt lat="45.04466" lon="5.56304">
        <ele>1520.6</ele>
        <time>2019-08-17T11:30:30Z</time>
      </trkpt>
      <trkpt lat="45.04472" lon="5.56306">
        <ele>1519.2</ele>
        <time>2019-08-17T11:30:31Z</time>
      </trkpt>
      <trkpt lat="45.04477" lon="5.56307">
        <ele>1518.2</ele>
        <time>2019-08-17T11:30:32Z</time>
      </trkpt>
      <trkpt lat="45.0448" lon="5.56302">
        <ele>1517</ele>
        <time>2019-08-17T11:30:33Z</time>
      </trkpt>
      <trkpt lat="45.0448" lon="5.56294">
        <ele>1515.8</ele>
        <time>2019-08-17T11:30:34Z</time>
      </trkpt>
      <trkpt lat="45.0447" lon="5.56275">
        <ele>1511.8</ele>
        <time>2019-08-17T11:30:37Z</time>
      </trkpt>
      <trkpt lat="45.04467" lon="5.56262">
        <ele>1509.2</ele>
        <time>2019-08-17T11:30:39Z</time>
      </trkpt>
      <trkpt lat="45.04467" lon="5.56255">
        <ele>1508</ele>
        <time>2019-08-17T11:30:40Z</time>
      </trkpt>
      <trkpt lat="45.04473" lon="5.56248">
        <ele>1505.4</ele>
        <time>2019-08-17T11:30:42Z</time>
      </trkpt>
      <trkpt lat="45.0449" lon="5.56254">
        <ele>1501.8</ele>
        <time>2019-08-17T11:30:45Z</time>
      </trkpt>
      <trkpt lat="45.04496" lon="5.56255">
        <ele>1500.6</ele>
        <time>2019-08-17T11:30:46Z</time>
      </trkpt>
      <trkpt lat="45.04508" lon="5.56247">
        <ele>1498.4</ele>
        <time>2019-08-17T11:30:48Z</time>
      </trkpt>
      <trkpt lat="45.04535" lon="5.56211">
        <ele>1490.4</ele>
        <time>2019-08-17T11:30:54Z</time>
      </trkpt>
      <trkpt lat="45.04541" lon="5.56204">
        <ele>1489.2</ele>
        <time>2019-08-17T11:30:55Z</time>
      </trkpt>
      <trkpt lat="45.04577" lon="5.56171">
        <ele>1483</ele>
        <time>2019-08-17T11:31:00Z</time>
      </trkpt>
      <trkpt lat="45.0458" lon="5.56166">
        <ele>1481.8</ele>
        <time>2019-08-17T11:31:01Z</time>
      </trkpt>
      <trkpt lat="45.04529" lon="5.56151">
        <ele>1185.8</ele>
      </trkpt>
      <trkpt lat="45.04529" lon="5.56151">
        <ele>1185.8</ele>
      </trkpt>
      <trkpt lat="45.04519" lon="5.56146">
        <ele>1184.3</ele>
      </trkpt>
      <trkpt lat="45.04519" lon="5.56146">
        <ele>1184.3</ele>
      </trkpt>
      <trkpt lat="45.04514" lon="5.56137">
        <ele>1182.3</ele>
      </trkpt>
      <trkpt lat="45.04514" lon="5.56137">
        <ele>1182.3</ele>
      </trkpt>
      <trkpt lat="45.04508" lon="5.56126">
        <ele>1180</ele>
      </trkpt>
      <trkpt lat="45.04508" lon="5.56126">
        <ele>1180</ele>
      </trkpt>
      <trkpt lat="45.04509" lon="5.56101">
        <ele>1176.1</ele>
      </trkpt>
      <trkpt lat="45.04509" lon="5.56101">
        <ele>1176.1</ele>
      </trkpt>
      <trkpt lat="45.04525" lon="5.56061">
        <ele>1171.9</ele>
      </trkpt>
      <trkpt lat="45.04545" lon="5.55993">
        <ele>1163.2</ele>
      </trkpt>
      <trkpt lat="45.04552" lon="5.55973">
        <ele>1161.1</ele>
      </trkpt>
      <trkpt lat="45.04555" lon="5.55974">
        <ele>1161.6</ele>
      </trkpt>
      <trkpt lat="45.04623" lon="5.55818">
        <ele>1158.1</ele>
      </trkpt>
      <trkpt lat="45.04625" lon="5.55792">
        <ele>1156.5</ele>
      </trkpt>
      <trkpt lat="45.04621" lon="5.5571">
        <ele>1145.6</ele>
      </trkpt>
      <trkpt lat="45.04627" lon="5.55714">
        <ele>1147.2</ele>
      </trkpt>
      <trkpt lat="45.04667" lon="5.55714">
        <ele>1153.9</ele>
      </trkpt>
      <trkpt lat="45.04667" lon="5.55714">
        <ele>1153.9</ele>
      </trkpt>
      <trkpt lat="45.04704" lon="5.55726">
        <ele>1154.3</ele>
      </trkpt>
      <trkpt lat="45.04704" lon="5.55726">
        <ele>1154.3</ele>
      </trkpt>
      <trkpt lat="45.04806" lon="5.55719">
        <ele>1151</ele>
      </trkpt>
      <trkpt lat="45.04806" lon="5.55719">
        <ele>1151</ele>
      </trkpt>
      <trkpt lat="45.04889" lon="5.55784">
        <ele>1159.9</ele>
      </trkpt>
      <trkpt lat="45.04889" lon="5.55784">
        <ele>1159.9</ele>
      </trkpt>
      <trkpt lat="45.04943" lon="5.55808">
        <ele>1164.9</ele>
      </trkpt>
      <trkpt lat="45.04943" lon="5.55808">
        <ele>1164.9</ele>
      </trkpt>
      <trkpt lat="45.04967" lon="5.55784">
        <ele>1165.9</ele>
      </trkpt>
      <trkpt lat="45.04967" lon="5.55784">
        <ele>1165.9</ele>
      </trkpt>
      <trkpt lat="45.04969" lon="5.5577">
        <ele>1165.4</ele>
      </trkpt>
      <trkpt lat="45.04969" lon="5.5577">
        <ele>1165.4</ele>
      </trkpt>
      <trkpt lat="45.04974" lon="5.5576">
        <ele>1360</ele>
        <time>2019-08-17T11:32:59Z</time>
      </trkpt>
      <trkpt lat="45.04973" lon="5.55739">
        <ele>1356.8</ele>
        <time>2019-08-17T11:33:03Z</time>
      </trkpt>
      <trkpt lat="45.04972" lon="5.5573">
        <ele>1355.2</ele>
        <time>2019-08-17T11:33:05Z</time>
      </trkpt>
      <trkpt lat="45.0497" lon="5.55706">
        <ele>1350.6</ele>
        <time>2019-08-17T11:33:11Z</time>
      </trkpt>
      <trkpt lat="45.0497" lon="5.55703">
        <ele>1349.8</ele>
        <time>2019-08-17T11:33:12Z</time>
      </trkpt>
      <trkpt lat="45.04971" lon="5.55688">
        <ele>1346.4</ele>
        <time>2019-08-17T11:33:16Z</time>
      </trkpt>
      <trkpt lat="45.0497" lon="5.5567">
        <ele>1342.2</ele>
        <time>2019-08-17T11:33:21Z</time>
      </trkpt>
      <trkpt lat="45.04971" lon="5.55653">
        <ele>1337.8</ele>
        <time>2019-08-17T11:33:26Z</time>
      </trkpt>
      <trkpt lat="45.04971" lon="5.55642">
        <ele>1335.4</ele>
        <time>2019-08-17T11:33:29Z</time>
      </trkpt>
      <trkpt lat="45.04971" lon="5.55618">
        <ele>1330</ele>
        <time>2019-08-17T11:33:36Z</time>
      </trkpt>
      <trkpt lat="45.04969" lon="5.55598">
        <ele>1326</ele>
        <time>2019-08-17T11:33:42Z</time>
      </trkpt>
      <trkpt lat="45.04967" lon="5.55584">
        <ele>1323.4</ele>
        <time>2019-08-17T11:33:46Z</time>
      </trkpt>
      <trkpt lat="45.04964" lon="5.55561">
        <ele>1319.2</ele>
        <time>2019-08-17T11:33:53Z</time>
      </trkpt>
      <trkpt lat="45.04964" lon="5.55555">
        <ele>1318</ele>
        <time>2019-08-17T11:33:55Z</time>
      </trkpt>
      <trkpt lat="45.04965" lon="5.55546">
        <ele>1316.4</ele>
        <time>2019-08-17T11:33:58Z</time>
      </trkpt>
      <trkpt lat="45.04968" lon="5.55541">
        <ele>1315.4</ele>
        <time>2019-08-17T11:34:00Z</time>
      </trkpt>
      <trkpt lat="45.04975" lon="5.55537">
        <ele>1313.8</ele>
        <time>2019-08-17T11:34:03Z</time>
      </trkpt>
      <trkpt lat="45.04981" lon="5.55541">
        <ele>1313</ele>
        <time>2019-08-17T11:34:06Z</time>
      </trkpt>
      <trkpt lat="45.04987" lon="5.55561">
        <ele>1309.8</ele>
        <time>2019-08-17T11:34:13Z</time>
      </trkpt>
      <trkpt lat="45.04988" lon="5.5557">
        <ele>1308.2</ele>
        <time>2019-08-17T11:34:16Z</time>
      </trkpt>
      <trkpt lat="45.0499" lon="5.55587">
        <ele>1305.4</ele>
        <time>2019-08-17T11:34:22Z</time>
      </trkpt>
      <trkpt lat="45.04992" lon="5.55596">
        <ele>1303.8</ele>
        <time>2019-08-17T11:34:25Z</time>
      </trkpt>
      <trkpt lat="45.04992" lon="5.55602">
        <ele>1302.8</ele>
        <time>2019-08-17T11:34:27Z</time>
      </trkpt>
      <trkpt lat="45.04993" lon="5.55611">
        <ele>1301.2</ele>
        <time>2019-08-17T11:34:30Z</time>
      </trkpt>
      <trkpt lat="45.04995" lon="5.5562">
        <ele>1299.6</ele>
        <time>2019-08-17T11:34:33Z</time>
      </trkpt>
      <trkpt lat="45.05002" lon="5.55639">
        <ele>1295.8</ele>
        <time>2019-08-17T11:34:40Z</time>
      </trkpt>
      <trkpt lat="45.05006" lon="5.55651">
        <ele>1294</ele>
        <time>2019-08-17T11:34:44Z</time>
      </trkpt>
      <trkpt lat="45.05013" lon="5.55669">
        <ele>1291</ele>
        <time>2019-08-17T11:34:51Z</time>
      </trkpt>
      <trkpt lat="45.05018" lon="5.55685">
        <ele>1288.6</ele>
        <time>2019-08-17T11:34:57Z</time>
      </trkpt>
      <trkpt lat="45.05021" lon="5.55693">
        <ele>1287.6</ele>
        <time>2019-08-17T11:35:00Z</time>
      </trkpt>
      <trkpt lat="45.05029" lon="5.55712">
        <ele>1285.2</ele>
        <time>2019-08-17T11:35:07Z</time>
      </trkpt>
      <trkpt lat="45.05031" lon="5.55718">
        <ele>1284.4</ele>
        <time>2019-08-17T11:35:09Z</time>
      </trkpt>
      <trkpt lat="45.05039" lon="5.55737">
        <ele>1282.8</ele>
        <time>2019-08-17T11:35:16Z</time>
      </trkpt>
      <trkpt lat="45.05042" lon="5.55748">
        <ele>1282</ele>
        <time>2019-08-17T11:35:20Z</time>
      </trkpt>
      <trkpt lat="45.05044" lon="5.55754">
        <ele>1282</ele>
        <time>2019-08-17T11:35:22Z</time>
      </trkpt>
      <trkpt lat="45.05048" lon="5.55774">
        <ele>1281.8</ele>
        <time>2019-08-17T11:35:29Z</time>
      </trkpt>
      <trkpt lat="45.05049" lon="5.55786">
        <ele>1281.4</ele>
        <time>2019-08-17T11:35:33Z</time>
      </trkpt>
      <trkpt lat="45.05052" lon="5.55805">
        <ele>1282</ele>
        <time>2019-08-17T11:35:39Z</time>
      </trkpt>
      <trkpt lat="45.05054" lon="5.55825">
        <ele>1282.4</ele>
        <time>2019-08-17T11:35:46Z</time>
      </trkpt>
      <trkpt lat="45.05054" lon="5.5585">
        <ele>1282.6</ele>
        <time>2019-08-17T11:35:54Z</time>
      </trkpt>
      <trkpt lat="45.05055" lon="5.55862">
        <ele>1282.8</ele>
        <time>2019-08-17T11:35:58Z</time>
      </trkpt>
      <trkpt lat="45.05055" lon="5.55881">
        <ele>1283.4</ele>
        <time>2019-08-17T11:36:04Z</time>
      </trkpt>
      <trkpt lat="45.05057" lon="5.55891">
        <ele>1283.8</ele>
        <time>2019-08-17T11:36:07Z</time>
      </trkpt>
      <trkpt lat="45.0506" lon="5.55896">
        <ele>1283.8</ele>
        <time>2019-08-17T11:36:09Z</time>
      </trkpt>
      <trkpt lat="45.05066" lon="5.55901">
        <ele>1284.2</ele>
        <time>2019-08-17T11:36:12Z</time>
      </trkpt>
      <trkpt lat="45.05076" lon="5.55898">
        <ele>1285.2</ele>
        <time>2019-08-17T11:36:16Z</time>
      </trkpt>
      <trkpt lat="45.05079" lon="5.55893">
        <ele>1285.8</ele>
        <time>2019-08-17T11:36:18Z</time>
      </trkpt>
      <trkpt lat="45.05082" lon="5.55887">
        <ele>1286.2</ele>
        <time>2019-08-17T11:36:20Z</time>
      </trkpt>
      <trkpt lat="45.05084" lon="5.5588">
        <ele>1286.6</ele>
        <time>2019-08-17T11:36:22Z</time>
      </trkpt>
      <trkpt lat="45.05084" lon="5.55872">
        <ele>1287</ele>
        <time>2019-08-17T11:36:24Z</time>
      </trkpt>
      <trkpt lat="45.05083" lon="5.55862">
        <ele>1287.8</ele>
        <time>2019-08-17T11:36:27Z</time>
      </trkpt>
      <trkpt lat="45.05081" lon="5.55855">
        <ele>1288.4</ele>
        <time>2019-08-17T11:36:29Z</time>
      </trkpt>
      <trkpt lat="45.05079" lon="5.55842">
        <ele>1289.6</ele>
        <time>2019-08-17T11:36:33Z</time>
      </trkpt>
      <trkpt lat="45.05078" lon="5.55839">
        <ele>1290</ele>
        <time>2019-08-17T11:36:34Z</time>
      </trkpt>
      <trkpt lat="45.05076" lon="5.55815">
        <ele>1292.4</ele>
        <time>2019-08-17T11:36:41Z</time>
      </trkpt>
      <trkpt lat="45.05075" lon="5.55812">
        <ele>1292.8</ele>
        <time>2019-08-17T11:36:42Z</time>
      </trkpt>
      <trkpt lat="45.05075" lon="5.558">
        <ele>1294.2</ele>
        <time>2019-08-17T11:36:46Z</time>
      </trkpt>
      <trkpt lat="45.05073" lon="5.55778">
        <ele>1297</ele>
        <time>2019-08-17T11:36:53Z</time>
      </trkpt>
      <trkpt lat="45.05073" lon="5.55772">
        <ele>1297.8</ele>
        <time>2019-08-17T11:36:55Z</time>
      </trkpt>
      <trkpt lat="45.05073" lon="5.55758">
        <ele>1300</ele>
        <time>2019-08-17T11:37:00Z</time>
      </trkpt>
      <trkpt lat="45.05071" lon="5.55735">
        <ele>1303.8</ele>
        <time>2019-08-17T11:37:08Z</time>
      </trkpt>
      <trkpt lat="45.05071" lon="5.5573">
        <ele>1304.6</ele>
        <time>2019-08-17T11:37:10Z</time>
      </trkpt>
      <trkpt lat="45.05071" lon="5.55718">
        <ele>1306.4</ele>
        <time>2019-08-17T11:37:14Z</time>
      </trkpt>
      <trkpt lat="45.05073" lon="5.557">
        <ele>1308.8</ele>
        <time>2019-08-17T11:37:20Z</time>
      </trkpt>
      <trkpt lat="45.05078" lon="5.55692">
        <ele>1310.4</ele>
        <time>2019-08-17T11:37:24Z</time>
      </trkpt>
      <trkpt lat="45.05084" lon="5.5569">
        <ele>1311.8</ele>
        <time>2019-08-17T11:37:27Z</time>
      </trkpt>
      <trkpt lat="45.0509" lon="5.55694">
        <ele>1313.6</ele>
        <time>2019-08-17T11:37:30Z</time>
      </trkpt>
      <trkpt lat="45.05093" lon="5.55701">
        <ele>1315.2</ele>
        <time>2019-08-17T11:37:33Z</time>
      </trkpt>
      <trkpt lat="45.05096" lon="5.5572">
        <ele>1317.2</ele>
        <time>2019-08-17T11:37:40Z</time>
      </trkpt>
      <trkpt lat="45.05098" lon="5.55732">
        <ele>1317.8</ele>
        <time>2019-08-17T11:37:44Z</time>
      </trkpt>
      <trkpt lat="45.05099" lon="5.55734">
        <ele>1318</ele>
        <time>2019-08-17T11:37:45Z</time>
      </trkpt>
      <trkpt lat="45.05102" lon="5.55755">
        <ele>1318.6</ele>
        <time>2019-08-17T11:37:52Z</time>
      </trkpt>
      <trkpt lat="45.05103" lon="5.55763">
        <ele>1318.8</ele>
        <time>2019-08-17T11:37:55Z</time>
      </trkpt>
      <trkpt lat="45.05106" lon="5.55774">
        <ele>1319.4</ele>
        <time>2019-08-17T11:37:59Z</time>
      </trkpt>
      <trkpt lat="45.05112" lon="5.55794">
        <ele>1322.6</ele>
        <time>2019-08-17T11:38:06Z</time>
      </trkpt>
      <trkpt lat="45.05113" lon="5.55803">
        <ele>1324</ele>
        <time>2019-08-17T11:38:09Z</time>
      </trkpt>
      <trkpt lat="45.05116" lon="5.55824">
        <ele>1327.2</ele>
        <time>2019-08-17T11:38:16Z</time>
      </trkpt>
      <trkpt lat="45.05117" lon="5.5583">
        <ele>1328.2</ele>
        <time>2019-08-17T11:38:18Z</time>
      </trkpt>
      <trkpt lat="45.05121" lon="5.5584">
        <ele>1329.8</ele>
        <time>2019-08-17T11:38:22Z</time>
      </trkpt>
      <trkpt lat="45.05125" lon="5.55858">
        <ele>1333</ele>
        <time>2019-08-17T11:38:29Z</time>
      </trkpt>
      <trkpt lat="45.05127" lon="5.55872">
        <ele>1333.4</ele>
        <time>2019-08-17T11:38:34Z</time>
      </trkpt>
      <trkpt lat="45.05131" lon="5.55891">
        <ele>1333.8</ele>
        <time>2019-08-17T11:38:41Z</time>
      </trkpt>
      <trkpt lat="45.05133" lon="5.55902">
        <ele>1333.6</ele>
        <time>2019-08-17T11:38:45Z</time>
      </trkpt>
      <trkpt lat="45.05133" lon="5.5591">
        <ele>1333.6</ele>
        <time>2019-08-17T11:38:48Z</time>
      </trkpt>
      <trkpt lat="45.05132" lon="5.55922">
        <ele>1333.4</ele>
        <time>2019-08-17T11:38:52Z</time>
      </trkpt>
      <trkpt lat="45.0513" lon="5.5593">
        <ele>1333.8</ele>
        <time>2019-08-17T11:38:55Z</time>
      </trkpt>
      <trkpt lat="45.05124" lon="5.55946">
        <ele>1334.4</ele>
        <time>2019-08-17T11:39:01Z</time>
      </trkpt>
      <trkpt lat="45.05122" lon="5.55951">
        <ele>1334.4</ele>
        <time>2019-08-17T11:39:03Z</time>
      </trkpt>
      <trkpt lat="45.05114" lon="5.55968">
        <ele>1335.4</ele>
        <time>2019-08-17T11:39:10Z</time>
      </trkpt>
      <trkpt lat="45.05111" lon="5.55976">
        <ele>1336</ele>
        <time>2019-08-17T11:39:13Z</time>
      </trkpt>
      <trkpt lat="45.0511" lon="5.55982">
        <ele>1336.4</ele>
        <time>2019-08-17T11:39:15Z</time>
      </trkpt>
      <trkpt lat="45.05111" lon="5.55991">
        <ele>1337</ele>
        <time>2019-08-17T11:39:18Z</time>
      </trkpt>
      <trkpt lat="45.05116" lon="5.56001">
        <ele>1337</ele>
        <time>2019-08-17T11:39:22Z</time>
      </trkpt>
      <trkpt lat="45.05122" lon="5.56005">
        <ele>1337.2</ele>
        <time>2019-08-17T11:39:25Z</time>
      </trkpt>
      <trkpt lat="45.05128" lon="5.56004">
        <ele>1338</ele>
        <time>2019-08-17T11:39:28Z</time>
      </trkpt>
      <trkpt lat="45.05136" lon="5.55997">
        <ele>1339</ele>
        <time>2019-08-17T11:39:32Z</time>
      </trkpt>
      <trkpt lat="45.0514" lon="5.5599">
        <ele>1339.8</ele>
        <time>2019-08-17T11:39:35Z</time>
      </trkpt>
      <trkpt lat="45.05143" lon="5.55981">
        <ele>1340.6</ele>
        <time>2019-08-17T11:39:38Z</time>
      </trkpt>
      <trkpt lat="45.05145" lon="5.55975">
        <ele>1341.2</ele>
        <time>2019-08-17T11:39:40Z</time>
      </trkpt>
      <trkpt lat="45.0515" lon="5.55964">
        <ele>1342.2</ele>
        <time>2019-08-17T11:39:44Z</time>
      </trkpt>
      <trkpt lat="45.05152" lon="5.55952">
        <ele>1343.2</ele>
        <time>2019-08-17T11:39:48Z</time>
      </trkpt>
      <trkpt lat="45.05156" lon="5.55933">
        <ele>1345</ele>
        <time>2019-08-17T11:39:55Z</time>
      </trkpt>
      <trkpt lat="45.05162" lon="5.55918">
        <ele>1347.2</ele>
        <time>2019-08-17T11:40:01Z</time>
      </trkpt>
      <trkpt lat="45.0517" lon="5.5591">
        <ele>1349</ele>
        <time>2019-08-17T11:40:06Z</time>
      </trkpt>
      <trkpt lat="45.05177" lon="5.55909">
        <ele>1350.6</ele>
        <time>2019-08-17T11:40:10Z</time>
      </trkpt>
      <trkpt lat="45.05183" lon="5.55917">
        <ele>1352.6</ele>
        <time>2019-08-17T11:40:14Z</time>
      </trkpt>
      <trkpt lat="45.05185" lon="5.55922">
        <ele>1353.8</ele>
        <time>2019-08-17T11:40:16Z</time>
      </trkpt>
      <trkpt lat="45.05188" lon="5.55942">
        <ele>1357.4</ele>
        <time>2019-08-17T11:40:23Z</time>
      </trkpt>
      <trkpt lat="45.05189" lon="5.55951">
        <ele>1358.8</ele>
        <time>2019-08-17T11:40:26Z</time>
      </trkpt>
      <trkpt lat="45.0519" lon="5.55965">
        <ele>1360.8</ele>
        <time>2019-08-17T11:40:31Z</time>
      </trkpt>
      <trkpt lat="45.05193" lon="5.55982">
        <ele>1365</ele>
        <time>2019-08-17T11:40:38Z</time>
      </trkpt>
      <trkpt lat="45.05196" lon="5.55999">
        <ele>1369.6</ele>
        <time>2019-08-17T11:40:45Z</time>
      </trkpt>
      <trkpt lat="45.05197" lon="5.56004">
        <ele>1370.6</ele>
        <time>2019-08-17T11:40:47Z</time>
      </trkpt>
      <trkpt lat="45.05203" lon="5.56021">
        <ele>1374.6</ele>
        <time>2019-08-17T11:40:54Z</time>
      </trkpt>
      <trkpt lat="45.05208" lon="5.56034">
        <ele>1377</ele>
        <time>2019-08-17T11:40:59Z</time>
      </trkpt>
      <trkpt lat="45.05211" lon="5.56046">
        <ele>1378.6</ele>
        <time>2019-08-17T11:41:03Z</time>
      </trkpt>
      <trkpt lat="45.05216" lon="5.56057">
        <ele>1380.4</ele>
        <time>2019-08-17T11:41:07Z</time>
      </trkpt>
      <trkpt lat="45.05222" lon="5.56078">
        <ele>1383.2</ele>
        <time>2019-08-17T11:41:14Z</time>
      </trkpt>
      <trkpt lat="45.05233" lon="5.56099">
        <ele>1386.6</ele>
        <time>2019-08-17T11:41:22Z</time>
      </trkpt>
      <trkpt lat="45.05238" lon="5.56111">
        <ele>1389</ele>
        <time>2019-08-17T11:41:27Z</time>
      </trkpt>
      <trkpt lat="45.05244" lon="5.56131">
        <ele>1392</ele>
        <time>2019-08-17T11:41:34Z</time>
      </trkpt>
      <trkpt lat="45.05245" lon="5.56143">
        <ele>1393.6</ele>
        <time>2019-08-17T11:41:38Z</time>
      </trkpt>
      <trkpt lat="45.05243" lon="5.56155">
        <ele>1395.6</ele>
        <time>2019-08-17T11:41:42Z</time>
      </trkpt>
      <trkpt lat="45.0524" lon="5.5618">
        <ele>1399.2</ele>
        <time>2019-08-17T11:41:49Z</time>
      </trkpt>
      <trkpt lat="45.05237" lon="5.56195">
        <ele>1401.4</ele>
        <time>2019-08-17T11:41:53Z</time>
      </trkpt>
      <trkpt lat="45.05236" lon="5.56205">
        <ele>1403.2</ele>
        <time>2019-08-17T11:41:56Z</time>
      </trkpt>
      <trkpt lat="45.05234" lon="5.56216">
        <ele>1404.8</ele>
        <time>2019-08-17T11:41:59Z</time>
      </trkpt>
      <trkpt lat="45.05232" lon="5.56222">
        <ele>1405.8</ele>
        <time>2019-08-17T11:42:01Z</time>
      </trkpt>
      <trkpt lat="45.05228" lon="5.56229">
        <ele>1407</ele>
        <time>2019-08-17T11:42:03Z</time>
      </trkpt>
      <trkpt lat="45.05225" lon="5.56239">
        <ele>1408.6</ele>
        <time>2019-08-17T11:42:06Z</time>
      </trkpt>
      <trkpt lat="45.05222" lon="5.5625">
        <ele>1410.8</ele>
        <time>2019-08-17T11:42:10Z</time>
      </trkpt>
      <trkpt lat="45.0522" lon="5.56257">
        <ele>1412.2</ele>
        <time>2019-08-17T11:42:13Z</time>
      </trkpt>
      <trkpt lat="45.05216" lon="5.5627">
        <ele>1414.2</ele>
        <time>2019-08-17T11:42:18Z</time>
      </trkpt>
      <trkpt lat="45.05214" lon="5.5628">
        <ele>1415.8</ele>
        <time>2019-08-17T11:42:22Z</time>
      </trkpt>
      <trkpt lat="45.05219" lon="5.56291">
        <ele>1418.8</ele>
        <time>2019-08-17T11:42:28Z</time>
      </trkpt>
      <trkpt lat="45.0523" lon="5.56293">
        <ele>1420.4</ele>
        <time>2019-08-17T11:42:32Z</time>
      </trkpt>
      <trkpt lat="45.05239" lon="5.56289">
        <ele>1421.8</ele>
        <time>2019-08-17T11:42:35Z</time>
      </trkpt>
      <trkpt lat="45.05244" lon="5.56283">
        <ele>1422.6</ele>
        <time>2019-08-17T11:42:37Z</time>
      </trkpt>
      <trkpt lat="45.05246" lon="5.56278">
        <ele>1423</ele>
        <time>2019-08-17T11:42:38Z</time>
      </trkpt>
      <trkpt lat="45.05249" lon="5.56268">
        <ele>1423.8</ele>
        <time>2019-08-17T11:42:40Z</time>
      </trkpt>
      <trkpt lat="45.05248" lon="5.56258">
        <ele>1424.6</ele>
        <time>2019-08-17T11:42:42Z</time>
      </trkpt>
      <trkpt lat="45.05243" lon="5.56247">
        <ele>1426</ele>
        <time>2019-08-17T11:42:45Z</time>
      </trkpt>
      <trkpt lat="45.05239" lon="5.56241">
        <ele>1430.4</ele>
        <time>2019-08-17T11:43:50Z</time>
      </trkpt>
      <trkpt lat="45.05237" lon="5.56234">
        <ele>1430.2</ele>
        <time>2019-08-17T11:43:52Z</time>
      </trkpt>
      <trkpt lat="45.05237" lon="5.56228">
        <ele>1430</ele>
        <time>2019-08-17T11:43:54Z</time>
      </trkpt>
      <trkpt lat="45.05238" lon="5.56209">
        <ele>1429.6</ele>
        <time>2019-08-17T11:43:59Z</time>
      </trkpt>
      <trkpt lat="45.0524" lon="5.56201">
        <ele>1429.6</ele>
        <time>2019-08-17T11:44:01Z</time>
      </trkpt>
      <trkpt lat="45.05241" lon="5.56182">
        <ele>1429.6</ele>
        <time>2019-08-17T11:44:06Z</time>
      </trkpt>
      <trkpt lat="45.05244" lon="5.56162">
        <ele>1429.8</ele>
        <time>2019-08-17T11:44:11Z</time>
      </trkpt>
      <trkpt lat="45.05244" lon="5.56141">
        <ele>1430.2</ele>
        <time>2019-08-17T11:44:16Z</time>
      </trkpt>
      <trkpt lat="45.05241" lon="5.5612">
        <ele>1430.8</ele>
        <time>2019-08-17T11:44:22Z</time>
      </trkpt>
      <trkpt lat="45.05241" lon="5.56111">
        <ele>1431</ele>
        <time>2019-08-17T11:44:25Z</time>
      </trkpt>
      <trkpt lat="45.05244" lon="5.56093">
        <ele>1431</ele>
        <time>2019-08-17T11:44:33Z</time>
      </trkpt>
      <trkpt lat="45.05243" lon="5.56082">
        <ele>1430.8</ele>
        <time>2019-08-17T11:44:37Z</time>
      </trkpt>
      <trkpt lat="45.05242" lon="5.56076">
        <ele>1430.6</ele>
        <time>2019-08-17T11:44:40Z</time>
      </trkpt>
      <trkpt lat="45.05248" lon="5.56079">
        <ele>1430.4</ele>
        <time>2019-08-17T11:44:46Z</time>
      </trkpt>
      <trkpt lat="45.05246" lon="5.56088">
        <ele>1430</ele>
        <time>2019-08-17T11:44:49Z</time>
      </trkpt>
      <trkpt lat="45.05243" lon="5.56105">
        <ele>1429.2</ele>
        <time>2019-08-17T11:44:57Z</time>
      </trkpt>
      <trkpt lat="45.05241" lon="5.56112">
        <ele>1428.6</ele>
        <time>2019-08-17T11:45:00Z</time>
      </trkpt>
      <trkpt lat="45.05241" lon="5.56119">
        <ele>1428.4</ele>
        <time>2019-08-17T11:45:02Z</time>
      </trkpt>
      <trkpt lat="45.05243" lon="5.5613">
        <ele>1426.8</ele>
        <time>2019-08-17T11:45:20Z</time>
      </trkpt>
      <trkpt lat="45.05238" lon="5.5612">
        <ele>1426.2</ele>
        <time>2019-08-17T11:45:25Z</time>
      </trkpt>
      <trkpt lat="45.05233" lon="5.56101">
        <ele>1425.6</ele>
        <time>2019-08-17T11:45:31Z</time>
      </trkpt>
      <trkpt lat="45.05224" lon="5.5608">
        <ele>1424.8</ele>
        <time>2019-08-17T11:45:38Z</time>
      </trkpt>
      <trkpt lat="45.0522" lon="5.56071">
        <ele>1424.6</ele>
        <time>2019-08-17T11:45:41Z</time>
      </trkpt>
      <trkpt lat="45.05214" lon="5.56054">
        <ele>1424.4</ele>
        <time>2019-08-17T11:45:48Z</time>
      </trkpt>
      <trkpt lat="45.05212" lon="5.56045">
        <ele>1424.2</ele>
        <time>2019-08-17T11:45:53Z</time>
      </trkpt>
      <trkpt lat="45.05206" lon="5.56037">
        <ele>1424</ele>
        <time>2019-08-17T11:45:57Z</time>
      </trkpt>
      <trkpt lat="45.05208" lon="5.56045">
        <ele>1423.8</ele>
        <time>2019-08-17T11:46:01Z</time>
      </trkpt>
      <trkpt lat="45.0521" lon="5.56051">
        <ele>1423.6</ele>
        <time>2019-08-17T11:46:03Z</time>
      </trkpt>
      <trkpt lat="45.05218" lon="5.56072">
        <ele>1423</ele>
        <time>2019-08-17T11:46:11Z</time>
      </trkpt>
      <trkpt lat="45.05223" lon="5.5608">
        <ele>1422.6</ele>
        <time>2019-08-17T11:46:14Z</time>
      </trkpt>
      <trkpt lat="45.05229" lon="5.56095">
        <ele>1421.8</ele>
        <time>2019-08-17T11:46:19Z</time>
      </trkpt>
      <trkpt lat="45.05232" lon="5.56105">
        <ele>1421.2</ele>
        <time>2019-08-17T11:46:22Z</time>
      </trkpt>
      <trkpt lat="45.05238" lon="5.56118">
        <ele>1420.6</ele>
        <time>2019-08-17T11:46:26Z</time>
      </trkpt>
      <trkpt lat="45.05242" lon="5.56134">
        <ele>1419.2</ele>
        <time>2019-08-17T11:46:32Z</time>
      </trkpt>
      <trkpt lat="45.05246" lon="5.56141">
        <ele>1418.2</ele>
        <time>2019-08-17T11:46:36Z</time>
      </trkpt>
      <trkpt lat="45.05246" lon="5.56151">
        <ele>1417.6</ele>
        <time>2019-08-17T11:46:40Z</time>
      </trkpt>
      <trkpt lat="45.05246" lon="5.56157">
        <ele>1417.4</ele>
        <time>2019-08-17T11:46:42Z</time>
      </trkpt>
      <trkpt lat="45.05241" lon="5.5617">
        <ele>1417</ele>
        <time>2019-08-17T11:46:46Z</time>
      </trkpt>
      <trkpt lat="45.0524" lon="5.56177">
        <ele>1416.8</ele>
        <time>2019-08-17T11:46:48Z</time>
      </trkpt>
      <trkpt lat="45.05239" lon="5.56188">
        <ele>1416.6</ele>
        <time>2019-08-17T11:46:51Z</time>
      </trkpt>
      <trkpt lat="45.05236" lon="5.56197">
        <ele>1416.4</ele>
        <time>2019-08-17T11:46:54Z</time>
      </trkpt>
      <trkpt lat="45.05232" lon="5.56218">
        <ele>1415.6</ele>
        <time>2019-08-17T11:47:00Z</time>
      </trkpt>
      <trkpt lat="45.0523" lon="5.56223">
        <ele>1415.4</ele>
        <time>2019-08-17T11:47:02Z</time>
      </trkpt>
      <trkpt lat="45.05231" lon="5.56231">
        <ele>1415.2</ele>
        <time>2019-08-17T11:47:05Z</time>
      </trkpt>
      <trkpt lat="45.05236" lon="5.56242">
        <ele>1415</ele>
        <time>2019-08-17T11:47:10Z</time>
      </trkpt>
      <trkpt lat="45.05241" lon="5.56246">
        <ele>1414.8</ele>
        <time>2019-08-17T11:47:12Z</time>
      </trkpt>
      <trkpt lat="45.05249" lon="5.56247">
        <ele>1414.8</ele>
        <time>2019-08-17T11:47:14Z</time>
      </trkpt>
      <trkpt lat="45.05253" lon="5.56245">
        <ele>1415</ele>
        <time>2019-08-17T11:47:15Z</time>
      </trkpt>
      <trkpt lat="45.05261" lon="5.56238">
        <ele>1415.4</ele>
        <time>2019-08-17T11:47:17Z</time>
      </trkpt>
      <trkpt lat="45.05264" lon="5.56235">
        <ele>1415.4</ele>
        <time>2019-08-17T11:47:18Z</time>
      </trkpt>
      <trkpt lat="45.05272" lon="5.56223">
        <ele>1415.8</ele>
        <time>2019-08-17T11:47:59Z</time>
      </trkpt>
      <trkpt lat="45.05284" lon="5.56214">
        <ele>1415</ele>
        <time>2019-08-17T11:48:03Z</time>
      </trkpt>
      <trkpt lat="45.05293" lon="5.56209">
        <ele>1414.8</ele>
        <time>2019-08-17T11:48:05Z</time>
      </trkpt>
      <trkpt lat="45.05306" lon="5.56206">
        <ele>1415</ele>
        <time>2019-08-17T11:48:07Z</time>
      </trkpt>
      <trkpt lat="45.05312" lon="5.56206">
        <ele>1415.2</ele>
        <time>2019-08-17T11:48:08Z</time>
      </trkpt>
      <trkpt lat="45.05319" lon="5.56207">
        <ele>1415.4</ele>
        <time>2019-08-17T11:48:09Z</time>
      </trkpt>
      <trkpt lat="45.0535" lon="5.56221">
        <ele>1417</ele>
        <time>2019-08-17T11:48:13Z</time>
      </trkpt>
      <trkpt lat="45.05404" lon="5.56256">
        <ele>1420.8</ele>
        <time>2019-08-17T11:48:20Z</time>
      </trkpt>
      <trkpt lat="45.05441" lon="5.56282">
        <ele>1424.2</ele>
        <time>2019-08-17T11:48:26Z</time>
      </trkpt>
      <trkpt lat="45.05446" lon="5.56284">
        <ele>1424.6</ele>
        <time>2019-08-17T11:48:27Z</time>
      </trkpt>
      <trkpt lat="45.05454" lon="5.56281">
        <ele>1426.2</ele>
        <time>2019-08-17T11:48:30Z</time>
      </trkpt>
      <trkpt lat="45.05459" lon="5.56279">
        <ele>1427.6</ele>
        <time>2019-08-17T11:48:33Z</time>
      </trkpt>
      <trkpt lat="45.05469" lon="5.56279">
        <ele>1430.6</ele>
        <time>2019-08-17T11:48:39Z</time>
      </trkpt>
      <trkpt lat="45.05479" lon="5.56282">
        <ele>1434.2</ele>
        <time>2019-08-17T11:48:47Z</time>
      </trkpt>
      <trkpt lat="45.0549" lon="5.56282">
        <ele>1435.4</ele>
        <time>2019-08-17T11:49:35Z</time>
      </trkpt>
      <trkpt lat="45.05494" lon="5.56277">
        <ele>1435</ele>
        <time>2019-08-17T11:49:38Z</time>
      </trkpt>
      <trkpt lat="45.05498" lon="5.56269">
        <ele>1430</ele>
        <time>2019-08-17T11:49:53Z</time>
      </trkpt>
      <trkpt lat="45.0551" lon="5.5624">
        <ele>1429.2</ele>
        <time>2019-08-17T11:49:58Z</time>
      </trkpt>
      <trkpt lat="45.05518" lon="5.56227">
        <ele>1429.8</ele>
        <time>2019-08-17T11:50:01Z</time>
      </trkpt>
      <trkpt lat="45.05536" lon="5.56206">
        <ele>1431.4</ele>
        <time>2019-08-17T11:50:05Z</time>
      </trkpt>
      <trkpt lat="45.05547" lon="5.56185">
        <ele>1435.6</ele>
        <time>2019-08-17T11:50:13Z</time>
      </trkpt>
      <trkpt lat="45.05542" lon="5.56169">
        <ele>1439.8</ele>
        <time>2019-08-17T11:50:27Z</time>
      </trkpt>
      <trkpt lat="45.05542" lon="5.5616">
        <ele>1440.4</ele>
        <time>2019-08-17T11:50:29Z</time>
      </trkpt>
      <trkpt lat="45.05537" lon="5.56133">
        <ele>1442</ele>
        <time>2019-08-17T11:50:33Z</time>
      </trkpt>
      <trkpt lat="45.05539" lon="5.56123">
        <ele>1444.4</ele>
        <time>2019-08-17T11:50:37Z</time>
      </trkpt>
      <trkpt lat="45.05546" lon="5.56123">
        <ele>1447</ele>
        <time>2019-08-17T11:50:41Z</time>
      </trkpt>
      <trkpt lat="45.05552" lon="5.56117">
        <ele>1450</ele>
        <time>2019-08-17T11:50:45Z</time>
      </trkpt>
      <trkpt lat="45.05556" lon="5.56112">
        <ele>1455.4</ele>
        <time>2019-08-17T11:50:58Z</time>
      </trkpt>
      <trkpt lat="45.05557" lon="5.56094">
        <ele>1458.2</ele>
        <time>2019-08-17T11:51:07Z</time>
      </trkpt>
      <trkpt lat="45.05555" lon="5.56085">
        <ele>1459.8</ele>
        <time>2019-08-17T11:51:10Z</time>
      </trkpt>
      <trkpt lat="45.05555" lon="5.56079">
        <ele>1460.2</ele>
        <time>2019-08-17T11:51:11Z</time>
      </trkpt>
      <trkpt lat="45.05558" lon="5.56067">
        <ele>1461.6</ele>
        <time>2019-08-17T11:51:14Z</time>
      </trkpt>
      <trkpt lat="45.05561" lon="5.56059">
        <ele>1462.6</ele>
        <time>2019-08-17T11:51:16Z</time>
      </trkpt>
      <trkpt lat="45.05561" lon="5.56053">
        <ele>1463.8</ele>
        <time>2019-08-17T11:51:18Z</time>
      </trkpt>
      <trkpt lat="45.05557" lon="5.56033">
        <ele>1466.6</ele>
        <time>2019-08-17T11:51:23Z</time>
      </trkpt>
      <trkpt lat="45.05554" lon="5.56024">
        <ele>1467.8</ele>
        <time>2019-08-17T11:51:25Z</time>
      </trkpt>
      <trkpt lat="45.05557" lon="5.56014">
        <ele>1470</ele>
        <time>2019-08-17T11:51:29Z</time>
      </trkpt>
      <trkpt lat="45.0556" lon="5.56002">
        <ele>1471.2</ele>
        <time>2019-08-17T11:51:32Z</time>
      </trkpt>
      <trkpt lat="45.05569" lon="5.55996">
        <ele>1473</ele>
        <time>2019-08-17T11:51:36Z</time>
      </trkpt>
      <trkpt lat="45.05575" lon="5.55996">
        <ele>1475</ele>
        <time>2019-08-17T11:51:40Z</time>
      </trkpt>
      <trkpt lat="45.05584" lon="5.55984">
        <ele>1479.4</ele>
        <time>2019-08-17T11:51:58Z</time>
      </trkpt>
      <trkpt lat="45.05587" lon="5.55979">
        <ele>1479.6</ele>
        <time>2019-08-17T11:52:00Z</time>
      </trkpt>
      <trkpt lat="45.05597" lon="5.55966">
        <ele>1479.8</ele>
        <time>2019-08-17T11:52:04Z</time>
      </trkpt>
      <trkpt lat="45.05611" lon="5.55952">
        <ele>1480.4</ele>
        <time>2019-08-17T11:52:08Z</time>
      </trkpt>
      <trkpt lat="45.05615" lon="5.55948">
        <ele>1480.4</ele>
        <time>2019-08-17T11:52:09Z</time>
      </trkpt>
      <trkpt lat="45.05633" lon="5.5594">
        <ele>1481.2</ele>
        <time>2019-08-17T11:52:13Z</time>
      </trkpt>
      <trkpt lat="45.05637" lon="5.55936">
        <ele>1481.2</ele>
        <time>2019-08-17T11:52:14Z</time>
      </trkpt>
      <trkpt lat="45.05646" lon="5.55936">
        <ele>1481.6</ele>
        <time>2019-08-17T11:52:16Z</time>
      </trkpt>
      <trkpt lat="45.05652" lon="5.5593">
        <ele>1481.8</ele>
        <time>2019-08-17T11:52:18Z</time>
      </trkpt>
      <trkpt lat="45.05651" lon="5.55919">
        <ele>1482.2</ele>
        <time>2019-08-17T11:52:22Z</time>
      </trkpt>
      <trkpt lat="45.05652" lon="5.55913">
        <ele>1482.6</ele>
        <time>2019-08-17T11:52:26Z</time>
      </trkpt>
      <trkpt lat="45.05653" lon="5.55903">
        <ele>1483.2</ele>
        <time>2019-08-17T11:52:50Z</time>
      </trkpt>
      <trkpt lat="45.05656" lon="5.55892">
        <ele>1483.2</ele>
        <time>2019-08-17T11:52:53Z</time>
      </trkpt>
      <trkpt lat="45.05657" lon="5.55884">
        <ele>1483</ele>
        <time>2019-08-17T11:52:55Z</time>
      </trkpt>
      <trkpt lat="45.05653" lon="5.55874">
        <ele>1482.8</ele>
        <time>2019-08-17T11:52:58Z</time>
      </trkpt>
      <trkpt lat="45.05649" lon="5.55866">
        <ele>1482.4</ele>
        <time>2019-08-17T11:53:03Z</time>
      </trkpt>
      <trkpt lat="45.05647" lon="5.55851">
        <ele>1481.8</ele>
        <time>2019-08-17T11:53:20Z</time>
      </trkpt>
      <trkpt lat="45.05649" lon="5.55847">
        <ele>1481.6</ele>
        <time>2019-08-17T11:53:22Z</time>
      </trkpt>
      <trkpt lat="45.05656" lon="5.55835">
        <ele>1480.8</ele>
        <time>2019-08-17T11:53:26Z</time>
      </trkpt>
      <trkpt lat="45.05666" lon="5.55822">
        <ele>1480</ele>
        <time>2019-08-17T11:53:29Z</time>
      </trkpt>
      <trkpt lat="45.05673" lon="5.55815">
        <ele>1479.6</ele>
        <time>2019-08-17T11:53:31Z</time>
      </trkpt>
      <trkpt lat="45.05685" lon="5.55811">
        <ele>1478.8</ele>
        <time>2019-08-17T11:53:35Z</time>
      </trkpt>
      <trkpt lat="45.05693" lon="5.5581">
        <ele>1478.4</ele>
        <time>2019-08-17T11:53:39Z</time>
      </trkpt>
      <trkpt lat="45.05697" lon="5.55811">
        <ele>1478.2</ele>
        <time>2019-08-17T11:53:41Z</time>
      </trkpt>
      <trkpt lat="45.05704" lon="5.55815">
        <ele>1477.8</ele>
        <time>2019-08-17T11:53:44Z</time>
      </trkpt>
      <trkpt lat="45.05708" lon="5.55816">
        <ele>1477.6</ele>
        <time>2019-08-17T11:53:46Z</time>
      </trkpt>
      <trkpt lat="45.05715" lon="5.55819">
        <ele>1477.4</ele>
        <time>2019-08-17T11:53:49Z</time>
      </trkpt>
      <trkpt lat="45.05721" lon="5.55823">
        <ele>1477</ele>
        <time>2019-08-17T11:53:52Z</time>
      </trkpt>
      <trkpt lat="45.05727" lon="5.55825">
        <ele>1476.6</ele>
        <time>2019-08-17T11:53:56Z</time>
      </trkpt>
      <trkpt lat="45.05733" lon="5.55824">
        <ele>1476.4</ele>
        <time>2019-08-17T11:53:59Z</time>
      </trkpt>
      <trkpt lat="45.05747" lon="5.55826">
        <ele>1475.2</ele>
        <time>2019-08-17T11:54:07Z</time>
      </trkpt>
      <trkpt lat="45.05754" lon="5.5583">
        <ele>1474.8</ele>
        <time>2019-08-17T11:54:10Z</time>
      </trkpt>
      <trkpt lat="45.05761" lon="5.55836">
        <ele>1474.2</ele>
        <time>2019-08-17T11:54:13Z</time>
      </trkpt>
      <trkpt lat="45.05766" lon="5.55839">
        <ele>1474</ele>
        <time>2019-08-17T11:54:15Z</time>
      </trkpt>
      <trkpt lat="45.05779" lon="5.5585">
        <ele>1472.8</ele>
        <time>2019-08-17T11:54:21Z</time>
      </trkpt>
      <trkpt lat="45.05786" lon="5.55859">
        <ele>1471.6</ele>
        <time>2019-08-17T11:54:26Z</time>
      </trkpt>
      <trkpt lat="45.058" lon="5.55872">
        <ele>1470</ele>
        <time>2019-08-17T11:54:33Z</time>
      </trkpt>
      <trkpt lat="45.05806" lon="5.55878">
        <ele>1469.2</ele>
        <time>2019-08-17T11:54:36Z</time>
      </trkpt>
      <trkpt lat="45.0581" lon="5.55883">
        <ele>1468.8</ele>
        <time>2019-08-17T11:54:38Z</time>
      </trkpt>
      <trkpt lat="45.05816" lon="5.55887">
        <ele>1468.4</ele>
        <time>2019-08-17T11:54:40Z</time>
      </trkpt>
      <trkpt lat="45.05821" lon="5.55894">
        <ele>1467.6</ele>
        <time>2019-08-17T11:54:43Z</time>
      </trkpt>
      <trkpt lat="45.05824" lon="5.55901">
        <ele>1466.8</ele>
        <time>2019-08-17T11:54:47Z</time>
      </trkpt>
      <trkpt lat="45.0583" lon="5.5591">
        <ele>1465.8</ele>
        <time>2019-08-17T11:54:53Z</time>
      </trkpt>
      <trkpt lat="45.05838" lon="5.55917">
        <ele>1464.8</ele>
        <time>2019-08-17T11:54:58Z</time>
      </trkpt>
      <trkpt lat="45.05845" lon="5.55927">
        <ele>1464</ele>
        <time>2019-08-17T11:55:03Z</time>
      </trkpt>
      <trkpt lat="45.05853" lon="5.55935">
        <ele>1463.4</ele>
        <time>2019-08-17T11:55:08Z</time>
      </trkpt>
      <trkpt lat="45.05861" lon="5.55948">
        <ele>1463</ele>
        <time>2019-08-17T11:55:13Z</time>
      </trkpt>
      <trkpt lat="45.05864" lon="5.55952">
        <ele>1462.8</ele>
        <time>2019-08-17T11:55:15Z</time>
      </trkpt>
      <trkpt lat="45.0587" lon="5.55957">
        <ele>1462.8</ele>
        <time>2019-08-17T11:55:18Z</time>
      </trkpt>
      <trkpt lat="45.05876" lon="5.55963">
        <ele>1462.8</ele>
        <time>2019-08-17T11:55:21Z</time>
      </trkpt>
      <trkpt lat="45.05882" lon="5.55967">
        <ele>1462.6</ele>
        <time>2019-08-17T11:55:23Z</time>
      </trkpt>
      <trkpt lat="45.05897" lon="5.55982">
        <ele>1462.6</ele>
        <time>2019-08-17T11:55:27Z</time>
      </trkpt>
      <trkpt lat="45.05924" lon="5.56018">
        <ele>1462</ele>
        <time>2019-08-17T11:55:34Z</time>
      </trkpt>
      <trkpt lat="45.05941" lon="5.56046">
        <ele>1461.8</ele>
        <time>2019-08-17T11:55:39Z</time>
      </trkpt>
      <trkpt lat="45.05948" lon="5.56056">
        <ele>1462</ele>
        <time>2019-08-17T11:55:41Z</time>
      </trkpt>
      <trkpt lat="45.05967" lon="5.56081">
        <ele>1462.4</ele>
        <time>2019-08-17T11:55:46Z</time>
      </trkpt>
      <trkpt lat="45.05982" lon="5.56101">
        <ele>1462.6</ele>
        <time>2019-08-17T11:55:50Z</time>
      </trkpt>
      <trkpt lat="45.05996" lon="5.56115">
        <ele>1462.4</ele>
        <time>2019-08-17T11:55:53Z</time>
      </trkpt>
      <trkpt lat="45.06006" lon="5.56129">
        <ele>1462.4</ele>
        <time>2019-08-17T11:55:55Z</time>
      </trkpt>
      <trkpt lat="45.06028" lon="5.56153">
        <ele>1462.4</ele>
        <time>2019-08-17T11:56:00Z</time>
      </trkpt>
      <trkpt lat="45.06039" lon="5.56161">
        <ele>1462.2</ele>
        <time>2019-08-17T11:56:03Z</time>
      </trkpt>
      <trkpt lat="45.06044" lon="5.56163">
        <ele>1462.2</ele>
        <time>2019-08-17T11:56:04Z</time>
      </trkpt>
      <trkpt lat="45.0605" lon="5.56163">
        <ele>1462</ele>
        <time>2019-08-17T11:56:05Z</time>
      </trkpt>
      <trkpt lat="45.06072" lon="5.56161">
        <ele>1461.4</ele>
        <time>2019-08-17T11:56:09Z</time>
      </trkpt>
      <trkpt lat="45.06077" lon="5.56159">
        <ele>1461.2</ele>
        <time>2019-08-17T11:56:10Z</time>
      </trkpt>
      <trkpt lat="45.06084" lon="5.56152">
        <ele>1460.6</ele>
        <time>2019-08-17T11:56:12Z</time>
      </trkpt>
      <trkpt lat="45.06086" lon="5.56145">
        <ele>1460.4</ele>
        <time>2019-08-17T11:56:13Z</time>
      </trkpt>
      <trkpt lat="45.06091" lon="5.56116">
        <ele>1459.4</ele>
        <time>2019-08-17T11:56:16Z</time>
      </trkpt>
      <trkpt lat="45.06095" lon="5.561">
        <ele>1458.4</ele>
        <time>2019-08-17T11:56:18Z</time>
      </trkpt>
      <trkpt lat="45.06099" lon="5.56091">
        <ele>1457.6</ele>
        <time>2019-08-17T11:56:20Z</time>
      </trkpt>
      <trkpt lat="45.06104" lon="5.56088">
        <ele>1456.6</ele>
        <time>2019-08-17T11:56:22Z</time>
      </trkpt>
      <trkpt lat="45.06109" lon="5.56098">
        <ele>1454.4</ele>
        <time>2019-08-17T11:56:26Z</time>
      </trkpt>
      <trkpt lat="45.06115" lon="5.56101">
        <ele>1453.2</ele>
        <time>2019-08-17T11:56:28Z</time>
      </trkpt>
      <trkpt lat="45.06124" lon="5.56101">
        <ele>1451.6</ele>
        <time>2019-08-17T11:56:31Z</time>
      </trkpt>
      <trkpt lat="45.06139" lon="5.561">
        <ele>1448.8</ele>
        <time>2019-08-17T11:56:36Z</time>
      </trkpt>
      <trkpt lat="45.06145" lon="5.56099">
        <ele>1447.6</ele>
        <time>2019-08-17T11:56:38Z</time>
      </trkpt>
      <trkpt lat="45.06163" lon="5.56095">
        <ele>1442.8</ele>
        <time>2019-08-17T11:56:44Z</time>
      </trkpt>
      <trkpt lat="45.06176" lon="5.56093">
        <ele>1439.6</ele>
        <time>2019-08-17T11:56:49Z</time>
      </trkpt>
      <trkpt lat="45.06186" lon="5.56092">
        <ele>1438</ele>
        <time>2019-08-17T11:56:52Z</time>
      </trkpt>
      <trkpt lat="45.06203" lon="5.56088">
        <ele>1434.4</ele>
        <time>2019-08-17T11:56:58Z</time>
      </trkpt>
      <trkpt lat="45.06211" lon="5.56089">
        <ele>1432.6</ele>
        <time>2019-08-17T11:57:01Z</time>
      </trkpt>
      <trkpt lat="45.06218" lon="5.56087">
        <ele>1430.6</ele>
        <time>2019-08-17T11:57:04Z</time>
      </trkpt>
      <trkpt lat="45.06224" lon="5.56095">
        <ele>1428.6</ele>
        <time>2019-08-17T11:57:07Z</time>
      </trkpt>
      <trkpt lat="45.06229" lon="5.56096">
        <ele>1427.2</ele>
        <time>2019-08-17T11:57:09Z</time>
      </trkpt>
      <trkpt lat="45.06234" lon="5.56095">
        <ele>1425.8</ele>
        <time>2019-08-17T11:57:11Z</time>
      </trkpt>
      <trkpt lat="45.0625" lon="5.56094">
        <ele>1419.4</ele>
        <time>2019-08-17T11:57:23Z</time>
      </trkpt>
      <trkpt lat="45.06254" lon="5.56091">
        <ele>1416</ele>
        <time>2019-08-17T11:57:48Z</time>
      </trkpt>
      <trkpt lat="45.06256" lon="5.56079">
        <ele>1415.2</ele>
        <time>2019-08-17T11:57:51Z</time>
      </trkpt>
      <trkpt lat="45.06253" lon="5.56068">
        <ele>1413.4</ele>
        <time>2019-08-17T11:57:55Z</time>
      </trkpt>
      <trkpt lat="45.06255" lon="5.56061">
        <ele>1412.2</ele>
        <time>2019-08-17T11:57:58Z</time>
      </trkpt>
      <trkpt lat="45.0626" lon="5.56054">
        <ele>1411.4</ele>
        <time>2019-08-17T11:58:00Z</time>
      </trkpt>
      <trkpt lat="45.0627" lon="5.56035">
        <ele>1409.2</ele>
        <time>2019-08-17T11:58:06Z</time>
      </trkpt>
      <trkpt lat="45.06276" lon="5.56026">
        <ele>1407.6</ele>
        <time>2019-08-17T11:58:09Z</time>
      </trkpt>
      <trkpt lat="45.06278" lon="5.56022">
        <ele>1407</ele>
        <time>2019-08-17T11:58:10Z</time>
      </trkpt>
      <trkpt lat="45.06286" lon="5.55997">
        <ele>1403.8</ele>
        <time>2019-08-17T11:58:14Z</time>
      </trkpt>
      <trkpt lat="45.0629" lon="5.55969">
        <ele>1401.2</ele>
        <time>2019-08-17T11:58:17Z</time>
      </trkpt>
      <trkpt lat="45.06298" lon="5.55917">
        <ele>1396.6</ele>
        <time>2019-08-17T11:58:22Z</time>
      </trkpt>
      <trkpt lat="45.06298" lon="5.55903">
        <ele>1394.6</ele>
        <time>2019-08-17T11:58:24Z</time>
      </trkpt>
      <trkpt lat="45.06294" lon="5.55879">
        <ele>1391.8</ele>
        <time>2019-08-17T11:58:27Z</time>
      </trkpt>
      <trkpt lat="45.06296" lon="5.55874">
        <ele>1389.2</ele>
        <time>2019-08-17T11:58:30Z</time>
      </trkpt>
      <trkpt lat="45.06304" lon="5.55879">
        <ele>1386.8</ele>
        <time>2019-08-17T11:58:33Z</time>
      </trkpt>
      <trkpt lat="45.06395" lon="5.56091">
        <ele>1066.5</ele>
      </trkpt>
      <trkpt lat="45.06395" lon="5.56091">
        <ele>1066.5</ele>
      </trkpt>
      <trkpt lat="45.06418" lon="5.56097">
        <ele>1060.8</ele>
      </trkpt>
      <trkpt lat="45.06418" lon="5.56097">
        <ele>1060.8</ele>
      </trkpt>
      <trkpt lat="45.06453" lon="5.5607">
        <ele>1060.6</ele>
      </trkpt>
      <trkpt lat="45.06453" lon="5.5607">
        <ele>1060.6</ele>
      </trkpt>
      <trkpt lat="45.06496" lon="5.5592">
        <ele>1050.4</ele>
      </trkpt>
      <trkpt lat="45.06496" lon="5.5592">
        <ele>1050.4</ele>
      </trkpt>
      <trkpt lat="45.06525" lon="5.55893">
        <ele>1048.1</ele>
      </trkpt>
      <trkpt lat="45.06525" lon="5.55893">
        <ele>1048.1</ele>
      </trkpt>
      <trkpt lat="45.06598" lon="5.55897">
        <ele>1050.4</ele>
      </trkpt>
      <trkpt lat="45.06598" lon="5.55897">
        <ele>1050.4</ele>
      </trkpt>
      <trkpt lat="45.06708" lon="5.55808">
        <ele>1046.1</ele>
      </trkpt>
      <trkpt lat="45.06727" lon="5.55782">
        <ele>1044.5</ele>
      </trkpt>
      <trkpt lat="45.06727" lon="5.55782">
        <ele>1044.5</ele>
      </trkpt>
      <trkpt lat="45.06811" lon="5.55758">
        <ele>1046.2</ele>
      </trkpt>
      <trkpt lat="45.06811" lon="5.55758">
        <ele>1046.2</ele>
      </trkpt>
      <trkpt lat="45.06955" lon="5.5557">
        <ele>1037.1</ele>
      </trkpt>
      <trkpt lat="45.06955" lon="5.5557">
        <ele>1037.1</ele>
      </trkpt>
      <trkpt lat="45.07017" lon="5.55454">
        <ele>1034.5</ele>
      </trkpt>
      <trkpt lat="45.07017" lon="5.55454">
        <ele>1034.5</ele>
      </trkpt>
      <trkpt lat="45.07143" lon="5.55502">
        <ele>1036.5</ele>
      </trkpt>
      <trkpt lat="45.07143" lon="5.55502">
        <ele>1036.5</ele>
      </trkpt>
      <trkpt lat="45.07276" lon="5.55668">
        <ele>1029.7</ele>
      </trkpt>
      <trkpt lat="45.07276" lon="5.55668">
        <ele>1029.7</ele>
      </trkpt>
      <trkpt lat="45.07322" lon="5.55693">
        <ele>1027.7</ele>
      </trkpt>
      <trkpt lat="45.07322" lon="5.55693">
        <ele>1027.7</ele>
      </trkpt>
      <trkpt lat="45.07309" lon="5.55845">
        <ele>1023.4</ele>
      </trkpt>
      <trkpt lat="45.07309" lon="5.55845">
        <ele>1023.4</ele>
      </trkpt>
      <trkpt lat="45.07318" lon="5.55914">
        <ele>1024.5</ele>
      </trkpt>
      <trkpt lat="45.07318" lon="5.55914">
        <ele>1024.5</ele>
      </trkpt>
      <trkpt lat="45.07313" lon="5.55982">
        <ele>1029.3</ele>
      </trkpt>
      <trkpt lat="45.07313" lon="5.55982">
        <ele>1029.3</ele>
      </trkpt>
      <trkpt lat="45.07361" lon="5.55996">
        <ele>1031.7</ele>
      </trkpt>
      <trkpt lat="45.07361" lon="5.55996">
        <ele>1031.7</ele>
      </trkpt>
    </trkseg>
  </trk>
</gpx>